<?xml version='1.0' encoding='UTF-8'?><gpx version="1.1" creator="JPX - https://github.com/jenetics/jpx" xmlns="http://www.topografix.com/GPX/1/1"><trk><trkseg><trkpt lat="46.0734967" lon="9.3044"><ele>208.5</ele><time>2026-03-25T07:16:23.666Z</time></trkpt><trkpt lat="46.0732467" lon="9.3043153"><ele>208.0</ele><time>2026-03-25T07:16:25.094Z</time></trkpt><trkpt lat="46.073194" lon="9.3044381"><ele>207.5</ele><time>2026-03-25T07:16:26.095Z</time></trkpt><trkpt lat="46.0731153" lon="9.3044511"><ele>207.0</ele><time>2026-03-25T07:16:30.095Z</time></trkpt><trkpt lat="46.0730837" lon="9.3043144"><ele>207.0</ele><time>2026-03-25T07:16:32.095Z</time></trkpt><trkpt lat="46.0730378" lon="9.3042225"><ele>207.0</ele><time>2026-03-25T07:16:34.095Z</time></trkpt><trkpt lat="46.0729414" lon="9.3042113"><ele>207.0</ele><time>2026-03-25T07:34:36.098Z</time></trkpt><trkpt lat="46.0729459" lon="9.3041139"><ele>207.0</ele><time>2026-03-25T07:35:45.098Z</time></trkpt><trkpt lat="46.0729222" lon="9.3040073"><ele>207.0</ele><time>2026-03-25T07:35:49.099Z</time></trkpt><trkpt lat="46.0729171" lon="9.3039152"><ele>207.0</ele><time>2026-03-25T07:35:53.099Z</time></trkpt><trkpt lat="46.0728925" lon="9.303824"><ele>207.0</ele><time>2026-03-25T07:35:57.099Z</time></trkpt><trkpt lat="46.0728639" lon="9.3037158"><ele>207.0</ele><time>2026-03-25T07:36:00.097Z</time></trkpt><trkpt lat="46.0728774" lon="9.3035905"><ele>207.0</ele><time>2026-03-25T07:36:03.098Z</time></trkpt><trkpt lat="46.0728935" lon="9.3034927"><ele>207.0</ele><time>2026-03-25T07:36:05.098Z</time></trkpt><trkpt lat="46.0729047" lon="9.3033916"><ele>207.0</ele><time>2026-03-25T07:36:07.098Z</time></trkpt><trkpt lat="46.0729141" lon="9.3032812"><ele>207.0</ele><time>2026-03-25T07:36:09.288Z</time></trkpt><trkpt lat="46.0729365" lon="9.3031413"><ele>206.5</ele><time>2026-03-25T07:36:11.879Z</time></trkpt><trkpt lat="46.0729614" lon="9.3030195"><ele>206.0</ele><time>2026-03-25T07:36:14.099Z</time></trkpt><trkpt lat="46.0729942" lon="9.3029177"><ele>205.5</ele><time>2026-03-25T07:36:16.073Z</time></trkpt><trkpt lat="46.0730467" lon="9.3028558"><ele>205.0</ele><time>2026-03-25T07:36:18.104Z</time></trkpt><trkpt lat="46.0731271" lon="9.3028633"><ele>204.5</ele><time>2026-03-25T07:36:21.103Z</time></trkpt><trkpt lat="46.0731637" lon="9.3029553"><ele>204.0</ele><time>2026-03-25T07:36:23.105Z</time></trkpt><trkpt lat="46.073201" lon="9.3030417"><ele>204.42857142857144</ele><time>2026-03-25T07:36:25.105Z</time></trkpt><trkpt lat="46.0732505" lon="9.303121"><ele>204.85714285714286</ele><time>2026-03-25T07:36:27.097Z</time></trkpt><trkpt lat="46.073298" lon="9.3031912"><ele>205.28571428571428</ele><time>2026-03-25T07:36:29.103Z</time></trkpt><trkpt lat="46.0733413" lon="9.3032597"><ele>205.71428571428572</ele><time>2026-03-25T07:36:31.106Z</time></trkpt><trkpt lat="46.0733828" lon="9.3033365"><ele>206.14285714285714</ele><time>2026-03-25T07:36:33.054Z</time></trkpt><trkpt lat="46.0734152" lon="9.3034313"><ele>206.57142857142858</ele><time>2026-03-25T07:36:35.093Z</time></trkpt><trkpt lat="46.0734285" lon="9.3035363"><ele>207.0</ele><time>2026-03-25T07:36:37.101Z</time></trkpt><trkpt lat="46.0734433" lon="9.3036393"><ele>207.00000000000003</ele><time>2026-03-25T07:36:39.094Z</time></trkpt><trkpt lat="46.0734606" lon="9.3037391"><ele>207.0</ele><time>2026-03-25T07:36:41.103Z</time></trkpt><trkpt lat="46.0734977" lon="9.3038326"><ele>207.0</ele><time>2026-03-25T07:36:43.097Z</time></trkpt><trkpt lat="46.0735474" lon="9.3039081"><ele>207.0</ele><time>2026-03-25T07:36:45.094Z</time></trkpt><trkpt lat="46.0735991" lon="9.3039838"><ele>207.0</ele><time>2026-03-25T07:36:47.096Z</time></trkpt><trkpt lat="46.073649" lon="9.3040678"><ele>207.00000000000003</ele><time>2026-03-25T07:36:49.101Z</time></trkpt><trkpt lat="46.0737012" lon="9.3041412"><ele>207.0</ele><time>2026-03-25T07:36:51.095Z</time></trkpt><trkpt lat="46.0737511" lon="9.3042207"><ele>207.33333333333334</ele><time>2026-03-25T07:36:53.095Z</time></trkpt><trkpt lat="46.0738015" lon="9.304303"><ele>207.66666666666669</ele><time>2026-03-25T07:36:55.106Z</time></trkpt><trkpt lat="46.0738495" lon="9.3043804"><ele>208.0</ele><time>2026-03-25T07:36:57.096Z</time></trkpt><trkpt lat="46.0738968" lon="9.3044492"><ele>208.33333333333334</ele><time>2026-03-25T07:36:59.009Z</time></trkpt><trkpt lat="46.0739565" lon="9.3045485"><ele>208.66666666666669</ele><time>2026-03-25T07:37:02.093Z</time></trkpt><trkpt lat="46.0739993" lon="9.3046157"><ele>209.0</ele><time>2026-03-25T07:37:04.097Z</time></trkpt><trkpt lat="46.0740638" lon="9.3047102"><ele>209.16666666666669</ele><time>2026-03-25T07:37:07.094Z</time></trkpt><trkpt lat="46.0741205" lon="9.3047909"><ele>209.33333333333334</ele><time>2026-03-25T07:37:10.101Z</time></trkpt><trkpt lat="46.0741558" lon="9.3048675"><ele>209.5</ele><time>2026-03-25T07:37:14.104Z</time></trkpt><trkpt lat="46.0742238" lon="9.3049161"><ele>209.66666666666669</ele><time>2026-03-25T07:37:30.093Z</time></trkpt><trkpt lat="46.0742903" lon="9.3049255"><ele>209.83333333333334</ele><time>2026-03-25T07:37:32.1Z</time></trkpt><trkpt lat="46.0743685" lon="9.3048735"><ele>210.0</ele><time>2026-03-25T07:37:34.094Z</time></trkpt><trkpt lat="46.0744562" lon="9.3048039"><ele>210.0</ele><time>2026-03-25T07:37:36.097Z</time></trkpt><trkpt lat="46.0745383" lon="9.3047464"><ele>210.0</ele><time>2026-03-25T07:37:38.038Z</time></trkpt><trkpt lat="46.0746289" lon="9.304682"><ele>210.0</ele><time>2026-03-25T07:37:40.117Z</time></trkpt><trkpt lat="46.0747065" lon="9.3046361"><ele>210.0</ele><time>2026-03-25T07:37:42.015Z</time></trkpt><trkpt lat="46.0748064" lon="9.3045857"><ele>210.0</ele><time>2026-03-25T07:37:44.097Z</time></trkpt><trkpt lat="46.0749076" lon="9.3045563"><ele>209.8</ele><time>2026-03-25T07:37:46.101Z</time></trkpt><trkpt lat="46.0749971" lon="9.3045386"><ele>209.6</ele><time>2026-03-25T07:37:48.103Z</time></trkpt><trkpt lat="46.0750917" lon="9.3045095"><ele>209.39999999999998</ele><time>2026-03-25T07:37:50.103Z</time></trkpt><trkpt lat="46.0751911" lon="9.3044711"><ele>209.2</ele><time>2026-03-25T07:37:52.098Z</time></trkpt><trkpt lat="46.0752947" lon="9.3044453"><ele>209.0</ele><time>2026-03-25T07:37:54.102Z</time></trkpt><trkpt lat="46.0753992" lon="9.3044316"><ele>209.0</ele><time>2026-03-25T07:37:56.097Z</time></trkpt><trkpt lat="46.0754896" lon="9.3044249"><ele>209.0</ele><time>2026-03-25T07:37:58.096Z</time></trkpt><trkpt lat="46.0755961" lon="9.3044105"><ele>209.0</ele><time>2026-03-25T07:38:00.101Z</time></trkpt><trkpt lat="46.0756913" lon="9.3044077"><ele>209.0</ele><time>2026-03-25T07:38:02.101Z</time></trkpt><trkpt lat="46.0757969" lon="9.3044251"><ele>209.0</ele><time>2026-03-25T07:38:04.106Z</time></trkpt><trkpt lat="46.0758882" lon="9.3044336"><ele>209.33333333333334</ele><time>2026-03-25T07:38:06.101Z</time></trkpt><trkpt lat="46.0759771" lon="9.3044367"><ele>209.66666666666669</ele><time>2026-03-25T07:38:08.095Z</time></trkpt><trkpt lat="46.0760703" lon="9.3044514"><ele>210.0</ele><time>2026-03-25T07:38:10.101Z</time></trkpt><trkpt lat="46.0761357" lon="9.3045124"><ele>210.33333333333331</ele><time>2026-03-25T07:38:13.1Z</time></trkpt><trkpt lat="46.0762119" lon="9.3044854"><ele>210.66666666666666</ele><time>2026-03-25T07:38:16.026Z</time></trkpt><trkpt lat="46.0762797" lon="9.3045036"><ele>211.0</ele><time>2026-03-25T07:38:25.06Z</time></trkpt><trkpt lat="46.0763515" lon="9.3045238"><ele>210.99999999999997</ele><time>2026-03-25T07:38:28.1Z</time></trkpt><trkpt lat="46.076428" lon="9.3045469"><ele>211.0</ele><time>2026-03-25T07:38:30.102Z</time></trkpt><trkpt lat="46.076515" lon="9.3045617"><ele>211.0</ele><time>2026-03-25T07:38:32.1Z</time></trkpt><trkpt lat="46.0765896" lon="9.3045776"><ele>211.0</ele><time>2026-03-25T07:38:34.106Z</time></trkpt><trkpt lat="46.0766705" lon="9.3045841"><ele>210.99999999999997</ele><time>2026-03-25T07:38:36.1Z</time></trkpt><trkpt lat="46.0767579" lon="9.304592"><ele>211.0</ele><time>2026-03-25T07:38:38.094Z</time></trkpt><trkpt lat="46.0768535" lon="9.3046083"><ele>210.8</ele><time>2026-03-25T07:38:40.102Z</time></trkpt><trkpt lat="46.0769493" lon="9.3046305"><ele>210.60000000000002</ele><time>2026-03-25T07:38:42.102Z</time></trkpt><trkpt lat="46.0770527" lon="9.30464"><ele>210.4</ele><time>2026-03-25T07:38:44.094Z</time></trkpt><trkpt lat="46.0771611" lon="9.3046641"><ele>210.2</ele><time>2026-03-25T07:38:46.105Z</time></trkpt><trkpt lat="46.077267" lon="9.3046829"><ele>210.0</ele><time>2026-03-25T07:38:48.103Z</time></trkpt><trkpt lat="46.0773696" lon="9.3047111"><ele>210.6</ele><time>2026-03-25T07:38:50.098Z</time></trkpt><trkpt lat="46.0774664" lon="9.3047622"><ele>211.2</ele><time>2026-03-25T07:38:52.102Z</time></trkpt><trkpt lat="46.0775629" lon="9.3048052"><ele>211.8</ele><time>2026-03-25T07:38:54.095Z</time></trkpt><trkpt lat="46.0776559" lon="9.3048558"><ele>212.4</ele><time>2026-03-25T07:38:56.106Z</time></trkpt><trkpt lat="46.0777369" lon="9.3049104"><ele>213.0</ele><time>2026-03-25T07:38:58.097Z</time></trkpt><trkpt lat="46.0778213" lon="9.3049817"><ele>213.0</ele><time>2026-03-25T07:39:00.097Z</time></trkpt><trkpt lat="46.0778922" lon="9.3050001"><ele>213.0</ele><time>2026-03-25T07:39:01.095Z</time></trkpt><trkpt lat="46.0779927" lon="9.3050535"><ele>213.0</ele><time>2026-03-25T07:39:03.1Z</time></trkpt><trkpt lat="46.0780903" lon="9.3051333"><ele>213.0</ele><time>2026-03-25T07:39:05.095Z</time></trkpt><trkpt lat="46.0781655" lon="9.3052184"><ele>213.0</ele><time>2026-03-25T07:39:07.1Z</time></trkpt><trkpt lat="46.0782412" lon="9.3053011"><ele>213.2</ele><time>2026-03-25T07:39:09.095Z</time></trkpt><trkpt lat="46.0783282" lon="9.3053901"><ele>213.4</ele><time>2026-03-25T07:39:11.107Z</time></trkpt><trkpt lat="46.0784076" lon="9.3054904"><ele>213.59999999999997</ele><time>2026-03-25T07:39:13.103Z</time></trkpt><trkpt lat="46.0784859" lon="9.3055996"><ele>213.79999999999998</ele><time>2026-03-25T07:39:15.094Z</time></trkpt><trkpt lat="46.078556" lon="9.305711"><ele>214.0</ele><time>2026-03-25T07:39:17.096Z</time></trkpt><trkpt lat="46.0786248" lon="9.3058331"><ele>214.2</ele><time>2026-03-25T07:39:19.094Z</time></trkpt><trkpt lat="46.0786967" lon="9.3059572"><ele>214.39999999999998</ele><time>2026-03-25T07:39:21.097Z</time></trkpt><trkpt lat="46.078752" lon="9.3060757"><ele>214.6</ele><time>2026-03-25T07:39:23.094Z</time></trkpt><trkpt lat="46.0788133" lon="9.3062127"><ele>214.8</ele><time>2026-03-25T07:39:25.096Z</time></trkpt><trkpt lat="46.0788715" lon="9.3063351"><ele>215.0</ele><time>2026-03-25T07:39:27.104Z</time></trkpt><trkpt lat="46.0789306" lon="9.3064577"><ele>214.6</ele><time>2026-03-25T07:39:29.105Z</time></trkpt><trkpt lat="46.0789883" lon="9.3065842"><ele>214.2</ele><time>2026-03-25T07:39:31.095Z</time></trkpt><trkpt lat="46.0790405" lon="9.3067127"><ele>213.8</ele><time>2026-03-25T07:39:33.094Z</time></trkpt><trkpt lat="46.0790886" lon="9.3068543"><ele>213.4</ele><time>2026-03-25T07:39:35.101Z</time></trkpt><trkpt lat="46.0791541" lon="9.3069743"><ele>213.0</ele><time>2026-03-25T07:39:37.102Z</time></trkpt><trkpt lat="46.0792117" lon="9.3070964"><ele>212.8</ele><time>2026-03-25T07:39:39.102Z</time></trkpt><trkpt lat="46.0792583" lon="9.3072455"><ele>212.60000000000002</ele><time>2026-03-25T07:39:41.102Z</time></trkpt><trkpt lat="46.0793164" lon="9.3073725"><ele>212.39999999999998</ele><time>2026-03-25T07:39:43.098Z</time></trkpt><trkpt lat="46.079368" lon="9.3075086"><ele>212.2</ele><time>2026-03-25T07:39:45.094Z</time></trkpt><trkpt lat="46.0794288" lon="9.307634"><ele>212.0</ele><time>2026-03-25T07:39:47.105Z</time></trkpt><trkpt lat="46.0794975" lon="9.3077669"><ele>212.0</ele><time>2026-03-25T07:39:49.103Z</time></trkpt><trkpt lat="46.0795646" lon="9.3079066"><ele>212.0</ele><time>2026-03-25T07:39:51.099Z</time></trkpt><trkpt lat="46.0796333" lon="9.30803"><ele>212.0</ele><time>2026-03-25T07:39:53.105Z</time></trkpt><trkpt lat="46.0796983" lon="9.3081616"><ele>212.0</ele><time>2026-03-25T07:39:55.094Z</time></trkpt><trkpt lat="46.0797609" lon="9.3082858"><ele>212.0</ele><time>2026-03-25T07:39:57.107Z</time></trkpt><trkpt lat="46.0798254" lon="9.3084017"><ele>212.2</ele><time>2026-03-25T07:39:59.104Z</time></trkpt><trkpt lat="46.0798933" lon="9.3085287"><ele>212.39999999999998</ele><time>2026-03-25T07:40:01.092Z</time></trkpt><trkpt lat="46.0799443" lon="9.3086692"><ele>212.60000000000002</ele><time>2026-03-25T07:40:03.1Z</time></trkpt><trkpt lat="46.0800039" lon="9.308795"><ele>212.8</ele><time>2026-03-25T07:40:05.094Z</time></trkpt><trkpt lat="46.0800693" lon="9.3089235"><ele>213.0</ele><time>2026-03-25T07:40:07.097Z</time></trkpt><trkpt lat="46.080126" lon="9.309056"><ele>213.2</ele><time>2026-03-25T07:40:09.102Z</time></trkpt><trkpt lat="46.0801943" lon="9.3091801"><ele>213.4</ele><time>2026-03-25T07:40:11.094Z</time></trkpt><trkpt lat="46.0802642" lon="9.3093101"><ele>213.59999999999997</ele><time>2026-03-25T07:40:13.096Z</time></trkpt><trkpt lat="46.0803291" lon="9.3094423"><ele>213.79999999999998</ele><time>2026-03-25T07:40:15.102Z</time></trkpt><trkpt lat="46.0803875" lon="9.3095738"><ele>214.0</ele><time>2026-03-25T07:40:17.1Z</time></trkpt><trkpt lat="46.0804528" lon="9.3097064"><ele>213.0</ele><time>2026-03-25T07:40:19.098Z</time></trkpt><trkpt lat="46.0805188" lon="9.3098263"><ele>211.99999999999997</ele><time>2026-03-25T07:40:21.096Z</time></trkpt><trkpt lat="46.0805913" lon="9.3099512"><ele>211.0</ele><time>2026-03-25T07:40:23.101Z</time></trkpt><trkpt lat="46.0806589" lon="9.3100795"><ele>210.0</ele><time>2026-03-25T07:40:25.105Z</time></trkpt><trkpt lat="46.0807279" lon="9.3102004"><ele>209.0</ele><time>2026-03-25T07:40:27.106Z</time></trkpt><trkpt lat="46.0807979" lon="9.3103103"><ele>209.0</ele><time>2026-03-25T07:40:29.099Z</time></trkpt><trkpt lat="46.0808786" lon="9.3104064"><ele>209.0</ele><time>2026-03-25T07:40:31.097Z</time></trkpt><trkpt lat="46.0809715" lon="9.310502"><ele>209.0</ele><time>2026-03-25T07:40:33.103Z</time></trkpt><trkpt lat="46.0810708" lon="9.3105904"><ele>209.0</ele><time>2026-03-25T07:40:35.101Z</time></trkpt><trkpt lat="46.0811639" lon="9.3106731"><ele>209.0</ele><time>2026-03-25T07:40:37.101Z</time></trkpt><trkpt lat="46.081251" lon="9.3107445"><ele>209.79999999999998</ele><time>2026-03-25T07:40:39.104Z</time></trkpt><trkpt lat="46.0813437" lon="9.3108057"><ele>210.6</ele><time>2026-03-25T07:40:41.094Z</time></trkpt><trkpt lat="46.0814408" lon="9.3108565"><ele>211.4</ele><time>2026-03-25T07:40:43.097Z</time></trkpt><trkpt lat="46.0815543" lon="9.310903"><ele>212.2</ele><time>2026-03-25T07:40:45.105Z</time></trkpt><trkpt lat="46.0816761" lon="9.3109357"><ele>213.0</ele><time>2026-03-25T07:40:47.101Z</time></trkpt><trkpt lat="46.0817898" lon="9.3109651"><ele>213.0</ele><time>2026-03-25T07:40:49.102Z</time></trkpt><trkpt lat="46.081912" lon="9.310994"><ele>213.0</ele><time>2026-03-25T07:40:51.103Z</time></trkpt><trkpt lat="46.0820304" lon="9.3110113"><ele>213.0</ele><time>2026-03-25T07:40:53.094Z</time></trkpt><trkpt lat="46.0821478" lon="9.3110387"><ele>213.0</ele><time>2026-03-25T07:40:55.107Z</time></trkpt><trkpt lat="46.0822107" lon="9.3110594"><ele>213.0</ele><time>2026-03-25T07:40:56.1Z</time></trkpt><trkpt lat="46.0822722" lon="9.3110866"><ele>213.0</ele><time>2026-03-25T07:40:57.097Z</time></trkpt><trkpt lat="46.0823856" lon="9.3111583"><ele>213.0</ele><time>2026-03-25T07:40:59.103Z</time></trkpt><trkpt lat="46.0824854" lon="9.3112353"><ele>213.0</ele><time>2026-03-25T07:41:01.105Z</time></trkpt><trkpt lat="46.0825886" lon="9.3113068"><ele>213.0</ele><time>2026-03-25T07:41:03.096Z</time></trkpt><trkpt lat="46.0826976" lon="9.3113442"><ele>211.83333333333334</ele><time>2026-03-25T07:41:05.095Z</time></trkpt><trkpt lat="46.0827609" lon="9.3113526"><ele>210.66666666666669</ele><time>2026-03-25T07:41:06.094Z</time></trkpt><trkpt lat="46.082825" lon="9.3113606"><ele>209.5</ele><time>2026-03-25T07:41:07.105Z</time></trkpt><trkpt lat="46.0829445" lon="9.3113395"><ele>208.33333333333334</ele><time>2026-03-25T07:41:09.333Z</time></trkpt><trkpt lat="46.0830703" lon="9.3113031"><ele>207.16666666666669</ele><time>2026-03-25T07:41:11.099Z</time></trkpt><trkpt lat="46.0831342" lon="9.3112804"><ele>206.0</ele><time>2026-03-25T07:41:12.1Z</time></trkpt><trkpt lat="46.0831958" lon="9.311259"><ele>207.25</ele><time>2026-03-25T07:41:13.1Z</time></trkpt><trkpt lat="46.0833195" lon="9.311219"><ele>208.5</ele><time>2026-03-25T07:41:15.099Z</time></trkpt><trkpt lat="46.0834377" lon="9.3111845"><ele>209.75</ele><time>2026-03-25T07:41:17.1Z</time></trkpt><trkpt lat="46.0835558" lon="9.3111503"><ele>211.0</ele><time>2026-03-25T07:41:19.1Z</time></trkpt><trkpt lat="46.083672" lon="9.311123"><ele>211.0</ele><time>2026-03-25T07:41:21.099Z</time></trkpt><trkpt lat="46.0837827" lon="9.3110971"><ele>211.0</ele><time>2026-03-25T07:41:23.1Z</time></trkpt><trkpt lat="46.0839002" lon="9.3110757"><ele>211.0</ele><time>2026-03-25T07:41:25.1Z</time></trkpt><trkpt lat="46.0840117" lon="9.3110523"><ele>211.0</ele><time>2026-03-25T07:41:27.099Z</time></trkpt><trkpt lat="46.0841221" lon="9.3110214"><ele>212.4</ele><time>2026-03-25T07:41:29.1Z</time></trkpt><trkpt lat="46.084217" lon="9.3110353"><ele>213.8</ele><time>2026-03-25T07:41:31.099Z</time></trkpt><trkpt lat="46.0843268" lon="9.3109997"><ele>215.20000000000002</ele><time>2026-03-25T07:41:33.101Z</time></trkpt><trkpt lat="46.084448" lon="9.3109761"><ele>216.60000000000002</ele><time>2026-03-25T07:41:35.1Z</time></trkpt><trkpt lat="46.0845619" lon="9.3109375"><ele>218.0</ele><time>2026-03-25T07:41:37.099Z</time></trkpt><trkpt lat="46.0846781" lon="9.3108886"><ele>218.0</ele><time>2026-03-25T07:41:39.1Z</time></trkpt><trkpt lat="46.0847959" lon="9.3108462"><ele>218.0</ele><time>2026-03-25T07:41:41.101Z</time></trkpt><trkpt lat="46.084912" lon="9.3108014"><ele>218.0</ele><time>2026-03-25T07:41:43.101Z</time></trkpt><trkpt lat="46.0850242" lon="9.3107316"><ele>218.0</ele><time>2026-03-25T07:41:45.099Z</time></trkpt><trkpt lat="46.0851174" lon="9.3106891"><ele>218.60000000000002</ele><time>2026-03-25T07:41:47.099Z</time></trkpt><trkpt lat="46.0852231" lon="9.3106337"><ele>219.20000000000002</ele><time>2026-03-25T07:41:49.099Z</time></trkpt><trkpt lat="46.0853303" lon="9.3105768"><ele>219.8</ele><time>2026-03-25T07:41:51.099Z</time></trkpt><trkpt lat="46.0854357" lon="9.310531"><ele>220.4</ele><time>2026-03-25T07:41:53.098Z</time></trkpt><trkpt lat="46.085525" lon="9.3104799"><ele>221.0</ele><time>2026-03-25T07:41:55.1Z</time></trkpt><trkpt lat="46.0856181" lon="9.3104233"><ele>218.0</ele><time>2026-03-25T07:41:57.1Z</time></trkpt><trkpt lat="46.0857009" lon="9.31039"><ele>215.00000000000003</ele><time>2026-03-25T07:41:59.099Z</time></trkpt><trkpt lat="46.0857913" lon="9.3103637"><ele>212.0</ele><time>2026-03-25T07:42:01.1Z</time></trkpt><trkpt lat="46.0858828" lon="9.3103289"><ele>209.0</ele><time>2026-03-25T07:42:03.1Z</time></trkpt><trkpt lat="46.0859704" lon="9.3102999"><ele>206.0</ele><time>2026-03-25T07:42:05.1Z</time></trkpt><trkpt lat="46.0860837" lon="9.3102825"><ele>206.0</ele><time>2026-03-25T07:42:08.1Z</time></trkpt><trkpt lat="46.0861941" lon="9.3102311"><ele>206.0</ele><time>2026-03-25T07:42:10.203Z</time></trkpt><trkpt lat="46.0862786" lon="9.3102047"><ele>206.0</ele><time>2026-03-25T07:42:12.204Z</time></trkpt><trkpt lat="46.0863595" lon="9.3101792"><ele>206.0</ele><time>2026-03-25T07:42:14.101Z</time></trkpt><trkpt lat="46.0864371" lon="9.3101301"><ele>206.0</ele><time>2026-03-25T07:42:16.205Z</time></trkpt><trkpt lat="46.0865264" lon="9.3101001"><ele>208.00000000000003</ele><time>2026-03-25T07:42:18.193Z</time></trkpt><trkpt lat="46.0866135" lon="9.3101053"><ele>210.0</ele><time>2026-03-25T07:42:20.101Z</time></trkpt><trkpt lat="46.0867034" lon="9.3101007"><ele>212.0</ele><time>2026-03-25T07:42:22.215Z</time></trkpt><trkpt lat="46.0867827" lon="9.3101112"><ele>214.0</ele><time>2026-03-25T07:42:24.1Z</time></trkpt><trkpt lat="46.0868691" lon="9.3101195"><ele>216.00000000000003</ele><time>2026-03-25T07:42:26.186Z</time></trkpt><trkpt lat="46.086942" lon="9.3101241"><ele>218.0</ele><time>2026-03-25T07:42:28.183Z</time></trkpt><trkpt lat="46.087013" lon="9.3101143"><ele>218.00000000000003</ele><time>2026-03-25T07:42:30.101Z</time></trkpt><trkpt lat="46.087096" lon="9.3101083"><ele>218.0</ele><time>2026-03-25T07:42:32.196Z</time></trkpt><trkpt lat="46.0871719" lon="9.3101039"><ele>218.0</ele><time>2026-03-25T07:42:34.207Z</time></trkpt><trkpt lat="46.0872394" lon="9.3101175"><ele>218.0</ele><time>2026-03-25T07:42:36.099Z</time></trkpt><trkpt lat="46.0873149" lon="9.3101512"><ele>218.00000000000003</ele><time>2026-03-25T07:42:38.203Z</time></trkpt><trkpt lat="46.0873746" lon="9.3102109"><ele>218.0</ele><time>2026-03-25T07:42:40.1Z</time></trkpt><trkpt lat="46.0874442" lon="9.310272"><ele>217.16666666666669</ele><time>2026-03-25T07:42:42.199Z</time></trkpt><trkpt lat="46.0875067" lon="9.310331"><ele>216.33333333333334</ele><time>2026-03-25T07:42:44.201Z</time></trkpt><trkpt lat="46.0875674" lon="9.310385"><ele>215.5</ele><time>2026-03-25T07:42:46.099Z</time></trkpt><trkpt lat="46.0876343" lon="9.3104331"><ele>214.66666666666669</ele><time>2026-03-25T07:42:48.184Z</time></trkpt><trkpt lat="46.0876939" lon="9.3104823"><ele>213.83333333333334</ele><time>2026-03-25T07:42:50.347Z</time></trkpt><trkpt lat="46.0877756" lon="9.3105411"><ele>213.0</ele><time>2026-03-25T07:42:52.973Z</time></trkpt><trkpt lat="46.0878439" lon="9.3105951"><ele>217.0</ele><time>2026-03-25T07:42:55.195Z</time></trkpt><trkpt lat="46.0878969" lon="9.3106499"><ele>221.0</ele><time>2026-03-25T07:42:57.1Z</time></trkpt><trkpt lat="46.0879562" lon="9.3107038"><ele>225.0</ele><time>2026-03-25T07:42:59.101Z</time></trkpt><trkpt lat="46.0880399" lon="9.3107765"><ele>229.0</ele><time>2026-03-25T07:43:02.099Z</time></trkpt><trkpt lat="46.0881307" lon="9.310852"><ele>233.0</ele><time>2026-03-25T07:43:05.111Z</time></trkpt><trkpt lat="46.0881916" lon="9.3109011"><ele>237.0</ele><time>2026-03-25T07:43:07.099Z</time></trkpt><trkpt lat="46.088255" lon="9.3109557"><ele>235.16666666666666</ele><time>2026-03-25T07:43:09.209Z</time></trkpt><trkpt lat="46.0883339" lon="9.3110161"><ele>233.33333333333331</ele><time>2026-03-25T07:43:12.099Z</time></trkpt><trkpt lat="46.0883986" lon="9.3110625"><ele>231.5</ele><time>2026-03-25T07:43:14.2Z</time></trkpt><trkpt lat="46.0884845" lon="9.3111142"><ele>229.66666666666666</ele><time>2026-03-25T07:43:17.307Z</time></trkpt><trkpt lat="46.0885457" lon="9.311159"><ele>227.83333333333331</ele><time>2026-03-25T07:43:19.306Z</time></trkpt><trkpt lat="46.0886049" lon="9.3111984"><ele>226.0</ele><time>2026-03-25T07:43:21.202Z</time></trkpt><trkpt lat="46.0887062" lon="9.3112691"><ele>226.0</ele><time>2026-03-25T07:43:24.198Z</time></trkpt><trkpt lat="46.0887652" lon="9.3113135"><ele>226.0</ele><time>2026-03-25T07:43:26.209Z</time></trkpt><trkpt lat="46.0888461" lon="9.3113684"><ele>226.0</ele><time>2026-03-25T07:43:29.101Z</time></trkpt><trkpt lat="46.0889139" lon="9.3114014"><ele>226.0</ele><time>2026-03-25T07:43:31.182Z</time></trkpt><trkpt lat="46.088984" lon="9.3114253"><ele>226.0</ele><time>2026-03-25T07:43:33.099Z</time></trkpt><trkpt lat="46.0890577" lon="9.3114451"><ele>226.0</ele><time>2026-03-25T07:43:35.166Z</time></trkpt><trkpt lat="46.0891264" lon="9.3114526"><ele>226.0</ele><time>2026-03-25T07:43:37.277Z</time></trkpt><trkpt lat="46.0891981" lon="9.3114583"><ele>228.49999999999997</ele><time>2026-03-25T07:43:39.202Z</time></trkpt><trkpt lat="46.0892737" lon="9.3114514"><ele>231.0</ele><time>2026-03-25T07:43:41.204Z</time></trkpt><trkpt lat="46.0893511" lon="9.3114579"><ele>233.5</ele><time>2026-03-25T07:43:43.303Z</time></trkpt><trkpt lat="46.0894587" lon="9.3114666"><ele>236.0</ele><time>2026-03-25T07:43:46.212Z</time></trkpt><trkpt lat="46.0895383" lon="9.3114769"><ele>238.49999999999997</ele><time>2026-03-25T07:43:48.202Z</time></trkpt><trkpt lat="46.0896257" lon="9.311486"><ele>241.0</ele><time>2026-03-25T07:43:50.101Z</time></trkpt><trkpt lat="46.0897262" lon="9.3114933"><ele>241.0</ele><time>2026-03-25T07:43:52.1Z</time></trkpt><trkpt lat="46.0898282" lon="9.3115119"><ele>241.00000000000003</ele><time>2026-03-25T07:43:54.099Z</time></trkpt><trkpt lat="46.0899374" lon="9.3115589"><ele>241.00000000000003</ele><time>2026-03-25T07:43:56.099Z</time></trkpt><trkpt lat="46.0900001" lon="9.3115792"><ele>241.0</ele><time>2026-03-25T07:43:57.098Z</time></trkpt><trkpt lat="46.0901233" lon="9.3115872"><ele>241.0</ele><time>2026-03-25T07:43:59.101Z</time></trkpt><trkpt lat="46.0901857" lon="9.3116036"><ele>241.16666666666666</ele><time>2026-03-25T07:44:00.099Z</time></trkpt><trkpt lat="46.0902552" lon="9.3116208"><ele>241.33333333333331</ele><time>2026-03-25T07:44:01.101Z</time></trkpt><trkpt lat="46.0903194" lon="9.311672"><ele>241.5</ele><time>2026-03-25T07:44:02.101Z</time></trkpt><trkpt lat="46.0904437" lon="9.3117254"><ele>241.66666666666669</ele><time>2026-03-25T07:44:04.099Z</time></trkpt><trkpt lat="46.0905069" lon="9.3117537"><ele>241.83333333333334</ele><time>2026-03-25T07:44:05.101Z</time></trkpt><trkpt lat="46.0905746" lon="9.3117869"><ele>242.0</ele><time>2026-03-25T07:44:06.099Z</time></trkpt><trkpt lat="46.0906366" lon="9.31183"><ele>242.00000000000003</ele><time>2026-03-25T07:44:07.1Z</time></trkpt><trkpt lat="46.0906964" lon="9.3118756"><ele>242.0</ele><time>2026-03-25T07:44:08.099Z</time></trkpt><trkpt lat="46.0907614" lon="9.3119283"><ele>242.0</ele><time>2026-03-25T07:44:09.1Z</time></trkpt><trkpt lat="46.0908241" lon="9.3119866"><ele>242.0</ele><time>2026-03-25T07:44:10.1Z</time></trkpt><trkpt lat="46.0908961" lon="9.3120548"><ele>242.00000000000003</ele><time>2026-03-25T07:44:11.1Z</time></trkpt><trkpt lat="46.0909618" lon="9.3121195"><ele>242.0</ele><time>2026-03-25T07:44:12.099Z</time></trkpt><trkpt lat="46.0910258" lon="9.3121858"><ele>245.83333333333334</ele><time>2026-03-25T07:44:13.099Z</time></trkpt><trkpt lat="46.091084" lon="9.3122548"><ele>249.66666666666669</ele><time>2026-03-25T07:44:14.1Z</time></trkpt><trkpt lat="46.0911503" lon="9.3123193"><ele>253.5</ele><time>2026-03-25T07:44:15.101Z</time></trkpt><trkpt lat="46.0912154" lon="9.3123829"><ele>257.3333333333333</ele><time>2026-03-25T07:44:16.099Z</time></trkpt><trkpt lat="46.0912834" lon="9.3124377"><ele>261.16666666666663</ele><time>2026-03-25T07:44:17.101Z</time></trkpt><trkpt lat="46.0913498" lon="9.3124822"><ele>265.0</ele><time>2026-03-25T07:44:18.1Z</time></trkpt><trkpt lat="46.0914214" lon="9.3125202"><ele>265.0</ele><time>2026-03-25T07:44:19.1Z</time></trkpt><trkpt lat="46.0914965" lon="9.3125546"><ele>265.0</ele><time>2026-03-25T07:44:20.1Z</time></trkpt><trkpt lat="46.0915668" lon="9.3125823"><ele>265.0</ele><time>2026-03-25T07:44:21.101Z</time></trkpt><trkpt lat="46.0916432" lon="9.312611"><ele>265.0</ele><time>2026-03-25T07:44:22.1Z</time></trkpt><trkpt lat="46.0917191" lon="9.3126377"><ele>265.0</ele><time>2026-03-25T07:44:23.1Z</time></trkpt><trkpt lat="46.0918006" lon="9.3126668"><ele>265.0</ele><time>2026-03-25T07:44:24.1Z</time></trkpt><trkpt lat="46.091878" lon="9.3126998"><ele>258.5</ele><time>2026-03-25T07:44:25.099Z</time></trkpt><trkpt lat="46.091959" lon="9.3127498"><ele>252.0</ele><time>2026-03-25T07:44:26.1Z</time></trkpt><trkpt lat="46.0920368" lon="9.3128046"><ele>245.5</ele><time>2026-03-25T07:44:27.1Z</time></trkpt><trkpt lat="46.092112" lon="9.312856"><ele>239.0</ele><time>2026-03-25T07:44:28.1Z</time></trkpt><trkpt lat="46.0921926" lon="9.3129071"><ele>232.49999999999997</ele><time>2026-03-25T07:44:29.1Z</time></trkpt><trkpt lat="46.0922702" lon="9.3129612"><ele>226.0</ele><time>2026-03-25T07:44:30.1Z</time></trkpt><trkpt lat="46.0923508" lon="9.313011"><ele>226.33333333333331</ele><time>2026-03-25T07:44:31.1Z</time></trkpt><trkpt lat="46.092434" lon="9.3130655"><ele>226.66666666666666</ele><time>2026-03-25T07:44:32.1Z</time></trkpt><trkpt lat="46.0925164" lon="9.3131235"><ele>227.0</ele><time>2026-03-25T07:44:33.101Z</time></trkpt><trkpt lat="46.0925945" lon="9.3131831"><ele>227.33333333333331</ele><time>2026-03-25T07:44:34.101Z</time></trkpt><trkpt lat="46.0926722" lon="9.3132432"><ele>227.66666666666666</ele><time>2026-03-25T07:44:35.1Z</time></trkpt><trkpt lat="46.0927471" lon="9.3133148"><ele>228.0</ele><time>2026-03-25T07:44:36.099Z</time></trkpt><trkpt lat="46.0928237" lon="9.3133763"><ele>228.0</ele><time>2026-03-25T07:44:37.101Z</time></trkpt><trkpt lat="46.0929042" lon="9.3134359"><ele>228.0</ele><time>2026-03-25T07:44:38.099Z</time></trkpt><trkpt lat="46.0929833" lon="9.3134929"><ele>228.0</ele><time>2026-03-25T07:44:39.1Z</time></trkpt><trkpt lat="46.0930546" lon="9.3135566"><ele>228.0</ele><time>2026-03-25T07:44:40.099Z</time></trkpt><trkpt lat="46.0931239" lon="9.313622"><ele>228.0</ele><time>2026-03-25T07:44:41.101Z</time></trkpt><trkpt lat="46.0931952" lon="9.313682"><ele>228.0</ele><time>2026-03-25T07:44:42.101Z</time></trkpt><trkpt lat="46.0932608" lon="9.3137454"><ele>228.83333333333334</ele><time>2026-03-25T07:44:43.1Z</time></trkpt><trkpt lat="46.0933287" lon="9.3138029"><ele>229.66666666666669</ele><time>2026-03-25T07:44:44.101Z</time></trkpt><trkpt lat="46.0933971" lon="9.3138652"><ele>230.5</ele><time>2026-03-25T07:44:45.1Z</time></trkpt><trkpt lat="46.093466" lon="9.3139247"><ele>231.33333333333334</ele><time>2026-03-25T07:44:46.1Z</time></trkpt><trkpt lat="46.0935333" lon="9.313982"><ele>232.16666666666669</ele><time>2026-03-25T07:44:47.1Z</time></trkpt><trkpt lat="46.0936022" lon="9.3140391"><ele>233.0</ele><time>2026-03-25T07:44:48.1Z</time></trkpt><trkpt lat="46.0936769" lon="9.3140951"><ele>233.00000000000003</ele><time>2026-03-25T07:44:49.1Z</time></trkpt><trkpt lat="46.093749" lon="9.3141545"><ele>233.0</ele><time>2026-03-25T07:44:50.1Z</time></trkpt><trkpt lat="46.0938151" lon="9.3142274"><ele>233.0</ele><time>2026-03-25T07:44:51.1Z</time></trkpt><trkpt lat="46.0938815" lon="9.3143089"><ele>233.0</ele><time>2026-03-25T07:44:52.099Z</time></trkpt><trkpt lat="46.0939434" lon="9.3143941"><ele>233.00000000000003</ele><time>2026-03-25T07:44:53.099Z</time></trkpt><trkpt lat="46.0940033" lon="9.3144843"><ele>233.0</ele><time>2026-03-25T07:44:54.1Z</time></trkpt><trkpt lat="46.0940656" lon="9.3145697"><ele>231.66666666666669</ele><time>2026-03-25T07:44:55.099Z</time></trkpt><trkpt lat="46.0941211" lon="9.3146592"><ele>230.33333333333334</ele><time>2026-03-25T07:44:56.1Z</time></trkpt><trkpt lat="46.094176" lon="9.3147471"><ele>229.0</ele><time>2026-03-25T07:44:57.101Z</time></trkpt><trkpt lat="46.0942356" lon="9.314833"><ele>227.66666666666669</ele><time>2026-03-25T07:44:58.101Z</time></trkpt><trkpt lat="46.0942937" lon="9.3149205"><ele>226.33333333333334</ele><time>2026-03-25T07:44:59.099Z</time></trkpt><trkpt lat="46.0943456" lon="9.315003"><ele>225.0</ele><time>2026-03-25T07:45:00.1Z</time></trkpt><trkpt lat="46.0944021" lon="9.3150831"><ele>225.00000000000003</ele><time>2026-03-25T07:45:01.1Z</time></trkpt><trkpt lat="46.0944595" lon="9.3151584"><ele>225.0</ele><time>2026-03-25T07:45:02.1Z</time></trkpt><trkpt lat="46.0945109" lon="9.3152341"><ele>225.00000000000003</ele><time>2026-03-25T07:45:03.1Z</time></trkpt><trkpt lat="46.0945638" lon="9.315313"><ele>225.00000000000003</ele><time>2026-03-25T07:45:04.099Z</time></trkpt><trkpt lat="46.0946176" lon="9.3153886"><ele>225.0</ele><time>2026-03-25T07:45:05.1Z</time></trkpt><trkpt lat="46.0946668" lon="9.3154633"><ele>225.00000000000003</ele><time>2026-03-25T07:45:06.101Z</time></trkpt><trkpt lat="46.0947186" lon="9.3155365"><ele>225.00000000000003</ele><time>2026-03-25T07:45:07.1Z</time></trkpt><trkpt lat="46.0947683" lon="9.3156074"><ele>224.00000000000003</ele><time>2026-03-25T07:45:08.099Z</time></trkpt><trkpt lat="46.0948147" lon="9.3156805"><ele>223.0</ele><time>2026-03-25T07:45:09.1Z</time></trkpt><trkpt lat="46.0948647" lon="9.3157518"><ele>222.0</ele><time>2026-03-25T07:45:10.1Z</time></trkpt><trkpt lat="46.0949124" lon="9.3158329"><ele>221.0</ele><time>2026-03-25T07:45:11.101Z</time></trkpt><trkpt lat="46.0949597" lon="9.3159134"><ele>220.0</ele><time>2026-03-25T07:45:12.1Z</time></trkpt><trkpt lat="46.0950103" lon="9.3159868"><ele>219.0</ele><time>2026-03-25T07:45:13.101Z</time></trkpt><trkpt lat="46.0950589" lon="9.3160565"><ele>218.0</ele><time>2026-03-25T07:45:14.101Z</time></trkpt><trkpt lat="46.0951093" lon="9.3161195"><ele>218.0</ele><time>2026-03-25T07:45:15.099Z</time></trkpt><trkpt lat="46.0951663" lon="9.3161729"><ele>218.0</ele><time>2026-03-25T07:45:16.101Z</time></trkpt><trkpt lat="46.0952253" lon="9.3162272"><ele>218.0</ele><time>2026-03-25T07:45:17.099Z</time></trkpt><trkpt lat="46.0952897" lon="9.3162738"><ele>218.0</ele><time>2026-03-25T07:45:18.101Z</time></trkpt><trkpt lat="46.095358" lon="9.3163135"><ele>218.0</ele><time>2026-03-25T07:45:19.101Z</time></trkpt><trkpt lat="46.0954267" lon="9.3163455"><ele>218.0</ele><time>2026-03-25T07:45:20.1Z</time></trkpt><trkpt lat="46.0954943" lon="9.3163687"><ele>218.0</ele><time>2026-03-25T07:45:21.099Z</time></trkpt><trkpt lat="46.0955603" lon="9.3163794"><ele>218.0</ele><time>2026-03-25T07:45:22.1Z</time></trkpt><trkpt lat="46.0956241" lon="9.3164026"><ele>218.0</ele><time>2026-03-25T07:45:23.101Z</time></trkpt><trkpt lat="46.0956905" lon="9.3164279"><ele>218.0</ele><time>2026-03-25T07:45:24.101Z</time></trkpt><trkpt lat="46.0957609" lon="9.3164515"><ele>218.0</ele><time>2026-03-25T07:45:25.1Z</time></trkpt><trkpt lat="46.0958323" lon="9.3164757"><ele>218.0</ele><time>2026-03-25T07:45:26.101Z</time></trkpt><trkpt lat="46.0959013" lon="9.3164951"><ele>218.0</ele><time>2026-03-25T07:45:27.1Z</time></trkpt><trkpt lat="46.0959662" lon="9.3165146"><ele>218.0</ele><time>2026-03-25T07:45:28.1Z</time></trkpt><trkpt lat="46.096037" lon="9.3165407"><ele>218.85714285714286</ele><time>2026-03-25T07:45:29.099Z</time></trkpt><trkpt lat="46.0961045" lon="9.3165678"><ele>219.71428571428572</ele><time>2026-03-25T07:45:30.102Z</time></trkpt><trkpt lat="46.0961672" lon="9.31659"><ele>220.57142857142856</ele><time>2026-03-25T07:45:31.1Z</time></trkpt><trkpt lat="46.0962335" lon="9.316606"><ele>221.42857142857144</ele><time>2026-03-25T07:45:32.1Z</time></trkpt><trkpt lat="46.0962981" lon="9.3166261"><ele>222.28571428571428</ele><time>2026-03-25T07:45:33.1Z</time></trkpt><trkpt lat="46.0963599" lon="9.3166449"><ele>223.14285714285714</ele><time>2026-03-25T07:45:34.101Z</time></trkpt><trkpt lat="46.0964246" lon="9.3166598"><ele>224.0</ele><time>2026-03-25T07:45:35.1Z</time></trkpt><trkpt lat="46.0964898" lon="9.3166656"><ele>224.00000000000003</ele><time>2026-03-25T07:45:36.102Z</time></trkpt><trkpt lat="46.0965587" lon="9.3166663"><ele>224.0</ele><time>2026-03-25T07:45:37.101Z</time></trkpt><trkpt lat="46.0966263" lon="9.3166585"><ele>224.0</ele><time>2026-03-25T07:45:38.1Z</time></trkpt><trkpt lat="46.0966918" lon="9.3166477"><ele>224.0</ele><time>2026-03-25T07:45:39.1Z</time></trkpt><trkpt lat="46.0967572" lon="9.3166288"><ele>224.00000000000003</ele><time>2026-03-25T07:45:40.1Z</time></trkpt><trkpt lat="46.0968723" lon="9.3165931"><ele>224.0</ele><time>2026-03-25T07:45:42.101Z</time></trkpt><trkpt lat="46.0969388" lon="9.3165776"><ele>223.71428571428572</ele><time>2026-03-25T07:45:43.1Z</time></trkpt><trkpt lat="46.0970023" lon="9.3165644"><ele>223.42857142857144</ele><time>2026-03-25T07:45:44.1Z</time></trkpt><trkpt lat="46.0970699" lon="9.3165546"><ele>223.14285714285714</ele><time>2026-03-25T07:45:45.099Z</time></trkpt><trkpt lat="46.0971351" lon="9.3165469"><ele>222.85714285714286</ele><time>2026-03-25T07:45:46.102Z</time></trkpt><trkpt lat="46.0972022" lon="9.3165469"><ele>222.57142857142858</ele><time>2026-03-25T07:45:47.1Z</time></trkpt><trkpt lat="46.0972688" lon="9.3165637"><ele>222.28571428571428</ele><time>2026-03-25T07:45:48.102Z</time></trkpt><trkpt lat="46.0973353" lon="9.3165837"><ele>222.0</ele><time>2026-03-25T07:45:49.101Z</time></trkpt><trkpt lat="46.097402" lon="9.3166099"><ele>221.28571428571428</ele><time>2026-03-25T07:45:50.1Z</time></trkpt><trkpt lat="46.0974672" lon="9.3166502"><ele>220.57142857142858</ele><time>2026-03-25T07:45:51.1Z</time></trkpt><trkpt lat="46.0975291" lon="9.3167006"><ele>219.85714285714286</ele><time>2026-03-25T07:45:52.101Z</time></trkpt><trkpt lat="46.0975902" lon="9.3167495"><ele>219.14285714285714</ele><time>2026-03-25T07:45:53.099Z</time></trkpt><trkpt lat="46.0976494" lon="9.3168053"><ele>218.42857142857144</ele><time>2026-03-25T07:45:54.1Z</time></trkpt><trkpt lat="46.0977094" lon="9.316859"><ele>217.71428571428572</ele><time>2026-03-25T07:45:55.1Z</time></trkpt><trkpt lat="46.0977686" lon="9.3169101"><ele>217.0</ele><time>2026-03-25T07:45:56.1Z</time></trkpt><trkpt lat="46.0978239" lon="9.3169556"><ele>216.99999999999997</ele><time>2026-03-25T07:45:57.101Z</time></trkpt><trkpt lat="46.0978817" lon="9.3169958"><ele>217.0</ele><time>2026-03-25T07:45:58.101Z</time></trkpt><trkpt lat="46.0979419" lon="9.3170355"><ele>217.0</ele><time>2026-03-25T07:45:59.1Z</time></trkpt><trkpt lat="46.0980142" lon="9.3170703"><ele>217.0</ele><time>2026-03-25T07:46:00.099Z</time></trkpt><trkpt lat="46.0981376" lon="9.3171115"><ele>216.99999999999997</ele><time>2026-03-25T07:46:02.101Z</time></trkpt><trkpt lat="46.0982091" lon="9.3171235"><ele>217.0</ele><time>2026-03-25T07:46:03.1Z</time></trkpt><trkpt lat="46.0982781" lon="9.3171256"><ele>215.85714285714286</ele><time>2026-03-25T07:46:04.102Z</time></trkpt><trkpt lat="46.0983444" lon="9.3171229"><ele>214.71428571428572</ele><time>2026-03-25T07:46:05.101Z</time></trkpt><trkpt lat="46.0984251" lon="9.3171223"><ele>213.57142857142856</ele><time>2026-03-25T07:46:06.1Z</time></trkpt><trkpt lat="46.0984917" lon="9.3171295"><ele>212.42857142857144</ele><time>2026-03-25T07:46:07.1Z</time></trkpt><trkpt lat="46.0985606" lon="9.3171335"><ele>211.28571428571428</ele><time>2026-03-25T07:46:08.1Z</time></trkpt><trkpt lat="46.0986244" lon="9.3171374"><ele>210.14285714285714</ele><time>2026-03-25T07:46:09.1Z</time></trkpt><trkpt lat="46.0986907" lon="9.3171365"><ele>209.0</ele><time>2026-03-25T07:46:10.101Z</time></trkpt><trkpt lat="46.0988097" lon="9.3171313"><ele>209.00000000000003</ele><time>2026-03-25T07:46:12.101Z</time></trkpt><trkpt lat="46.0989406" lon="9.3171248"><ele>209.0</ele><time>2026-03-25T07:46:14.101Z</time></trkpt><trkpt lat="46.0990046" lon="9.3171171"><ele>209.0</ele><time>2026-03-25T07:46:15.099Z</time></trkpt><trkpt lat="46.0990681" lon="9.3171156"><ele>209.0</ele><time>2026-03-25T07:46:16.1Z</time></trkpt><trkpt lat="46.0991322" lon="9.3171162"><ele>209.00000000000003</ele><time>2026-03-25T07:46:17.101Z</time></trkpt><trkpt lat="46.0991962" lon="9.3171105"><ele>209.0</ele><time>2026-03-25T07:46:18.101Z</time></trkpt><trkpt lat="46.0992607" lon="9.3171063"><ele>208.57142857142856</ele><time>2026-03-25T07:46:19.1Z</time></trkpt><trkpt lat="46.0993282" lon="9.3171041"><ele>208.14285714285714</ele><time>2026-03-25T07:46:20.102Z</time></trkpt><trkpt lat="46.0993941" lon="9.3170901"><ele>207.71428571428572</ele><time>2026-03-25T07:46:21.099Z</time></trkpt><trkpt lat="46.0994579" lon="9.31711"><ele>207.28571428571428</ele><time>2026-03-25T07:46:22.102Z</time></trkpt><trkpt lat="46.0995241" lon="9.3171176"><ele>206.85714285714286</ele><time>2026-03-25T07:46:23.101Z</time></trkpt><trkpt lat="46.0995879" lon="9.3171131"><ele>206.42857142857142</ele><time>2026-03-25T07:46:24.1Z</time></trkpt><trkpt lat="46.0997027" lon="9.3171124"><ele>206.0</ele><time>2026-03-25T07:46:26.101Z</time></trkpt><trkpt lat="46.0997673" lon="9.3171237"><ele>206.00000000000003</ele><time>2026-03-25T07:46:27.102Z</time></trkpt><trkpt lat="46.0998333" lon="9.317135"><ele>206.0</ele><time>2026-03-25T07:46:28.101Z</time></trkpt><trkpt lat="46.0999023" lon="9.317134"><ele>206.0</ele><time>2026-03-25T07:46:29.101Z</time></trkpt><trkpt lat="46.1000182" lon="9.3171681"><ele>206.0</ele><time>2026-03-25T07:46:31.1Z</time></trkpt><trkpt lat="46.1001364" lon="9.3172213"><ele>206.00000000000003</ele><time>2026-03-25T07:46:33.102Z</time></trkpt><trkpt lat="46.1001957" lon="9.3172593"><ele>206.0</ele><time>2026-03-25T07:46:34.1Z</time></trkpt><trkpt lat="46.1002628" lon="9.3172991"><ele>208.85714285714283</ele><time>2026-03-25T07:46:35.1Z</time></trkpt><trkpt lat="46.1003254" lon="9.3173341"><ele>211.71428571428572</ele><time>2026-03-25T07:46:36.101Z</time></trkpt><trkpt lat="46.1003831" lon="9.317376"><ele>214.57142857142856</ele><time>2026-03-25T07:46:37.102Z</time></trkpt><trkpt lat="46.100444" lon="9.3174217"><ele>217.42857142857142</ele><time>2026-03-25T07:46:38.1Z</time></trkpt><trkpt lat="46.1005061" lon="9.3174663"><ele>220.28571428571428</ele><time>2026-03-25T07:46:39.099Z</time></trkpt><trkpt lat="46.1005718" lon="9.3175156"><ele>223.14285714285714</ele><time>2026-03-25T07:46:40.102Z</time></trkpt><trkpt lat="46.1006307" lon="9.3175654"><ele>226.0</ele><time>2026-03-25T07:46:41.1Z</time></trkpt><trkpt lat="46.100689" lon="9.3176154"><ele>225.99999999999997</ele><time>2026-03-25T07:46:42.099Z</time></trkpt><trkpt lat="46.1007467" lon="9.3176626"><ele>226.0</ele><time>2026-03-25T07:46:43.099Z</time></trkpt><trkpt lat="46.1008576" lon="9.3177463"><ele>226.0</ele><time>2026-03-25T07:46:45.1Z</time></trkpt><trkpt lat="46.1009212" lon="9.3177889"><ele>226.0</ele><time>2026-03-25T07:46:46.1Z</time></trkpt><trkpt lat="46.1009836" lon="9.3178456"><ele>225.99999999999997</ele><time>2026-03-25T07:46:47.1Z</time></trkpt><trkpt lat="46.1010545" lon="9.3178931"><ele>226.0</ele><time>2026-03-25T07:46:48.1Z</time></trkpt><trkpt lat="46.1011205" lon="9.3179378"><ele>226.85714285714286</ele><time>2026-03-25T07:46:49.099Z</time></trkpt><trkpt lat="46.1011807" lon="9.3179845"><ele>227.71428571428572</ele><time>2026-03-25T07:46:50.101Z</time></trkpt><trkpt lat="46.1012387" lon="9.3180301"><ele>228.57142857142858</ele><time>2026-03-25T07:46:51.1Z</time></trkpt><trkpt lat="46.1012991" lon="9.3180659"><ele>229.42857142857144</ele><time>2026-03-25T07:46:52.101Z</time></trkpt><trkpt lat="46.1013647" lon="9.3181093"><ele>230.28571428571428</ele><time>2026-03-25T07:46:53.101Z</time></trkpt><trkpt lat="46.1014298" lon="9.3181549"><ele>231.14285714285717</ele><time>2026-03-25T07:46:54.099Z</time></trkpt><trkpt lat="46.1014948" lon="9.318198"><ele>232.00000000000003</ele><time>2026-03-25T07:46:55.102Z</time></trkpt><trkpt lat="46.1015562" lon="9.3182324"><ele>229.39999999999998</ele><time>2026-03-25T07:46:56.1Z</time></trkpt><trkpt lat="46.1016651" lon="9.3183141"><ele>226.79999999999998</ele><time>2026-03-25T07:46:58.101Z</time></trkpt><trkpt lat="46.1017719" lon="9.3184224"><ele>224.2</ele><time>2026-03-25T07:47:00.101Z</time></trkpt><trkpt lat="46.1018297" lon="9.3184819"><ele>221.6</ele><time>2026-03-25T07:47:01.1Z</time></trkpt><trkpt lat="46.1018853" lon="9.3185393"><ele>219.0</ele><time>2026-03-25T07:47:02.1Z</time></trkpt><trkpt lat="46.1019775" lon="9.3186481"><ele>219.0</ele><time>2026-03-25T07:47:04.1Z</time></trkpt><trkpt lat="46.1020505" lon="9.3187726"><ele>218.99999999999997</ele><time>2026-03-25T07:47:06.099Z</time></trkpt><trkpt lat="46.1021267" lon="9.3189095"><ele>218.99999999999997</ele><time>2026-03-25T07:47:08.101Z</time></trkpt><trkpt lat="46.102209" lon="9.3190469"><ele>219.0</ele><time>2026-03-25T07:47:10.1Z</time></trkpt><trkpt lat="46.1022587" lon="9.3191104"><ele>219.0</ele><time>2026-03-25T07:47:11.1Z</time></trkpt><trkpt lat="46.1023086" lon="9.3191777"><ele>219.0</ele><time>2026-03-25T07:47:12.101Z</time></trkpt><trkpt lat="46.1023594" lon="9.319242"><ele>219.0</ele><time>2026-03-25T07:47:13.101Z</time></trkpt><trkpt lat="46.102415" lon="9.3193"><ele>219.0</ele><time>2026-03-25T07:47:14.102Z</time></trkpt><trkpt lat="46.1024737" lon="9.319353"><ele>219.0</ele><time>2026-03-25T07:47:15.1Z</time></trkpt><trkpt lat="46.1025279" lon="9.3194042"><ele>219.0</ele><time>2026-03-25T07:47:16.101Z</time></trkpt><trkpt lat="46.1025832" lon="9.3194585"><ele>219.0</ele><time>2026-03-25T07:47:17.101Z</time></trkpt><trkpt lat="46.1026428" lon="9.3195155"><ele>219.0</ele><time>2026-03-25T07:47:18.101Z</time></trkpt><trkpt lat="46.1026966" lon="9.3195672"><ele>219.0</ele><time>2026-03-25T07:47:19.101Z</time></trkpt><trkpt lat="46.1027552" lon="9.3196223"><ele>219.0</ele><time>2026-03-25T07:47:20.1Z</time></trkpt><trkpt lat="46.102816" lon="9.3196693"><ele>219.0</ele><time>2026-03-25T07:47:21.101Z</time></trkpt><trkpt lat="46.1029241" lon="9.3197505"><ele>219.0</ele><time>2026-03-25T07:47:23.101Z</time></trkpt><trkpt lat="46.1030299" lon="9.3198284"><ele>219.0</ele><time>2026-03-25T07:47:25.102Z</time></trkpt><trkpt lat="46.1030888" lon="9.3198728"><ele>219.0</ele><time>2026-03-25T07:47:26.102Z</time></trkpt><trkpt lat="46.1031453" lon="9.3199212"><ele>218.0</ele><time>2026-03-25T07:47:27.101Z</time></trkpt><trkpt lat="46.1032558" lon="9.320014"><ele>217.0</ele><time>2026-03-25T07:47:29.102Z</time></trkpt><trkpt lat="46.1033103" lon="9.3200607"><ele>216.0</ele><time>2026-03-25T07:47:30.1Z</time></trkpt><trkpt lat="46.1033662" lon="9.3201081"><ele>215.0</ele><time>2026-03-25T07:47:31.1Z</time></trkpt><trkpt lat="46.1034244" lon="9.3201567"><ele>214.0</ele><time>2026-03-25T07:47:32.101Z</time></trkpt><trkpt lat="46.1034798" lon="9.3202072"><ele>213.0</ele><time>2026-03-25T07:47:33.102Z</time></trkpt><trkpt lat="46.1035845" lon="9.3203035"><ele>213.0</ele><time>2026-03-25T07:47:35.101Z</time></trkpt><trkpt lat="46.1036837" lon="9.3204021"><ele>213.0</ele><time>2026-03-25T07:47:37.101Z</time></trkpt><trkpt lat="46.103782" lon="9.3204888"><ele>213.0</ele><time>2026-03-25T07:47:39.102Z</time></trkpt><trkpt lat="46.103837" lon="9.3205392"><ele>213.0</ele><time>2026-03-25T07:47:40.102Z</time></trkpt><trkpt lat="46.1038917" lon="9.3205938"><ele>213.0</ele><time>2026-03-25T07:47:41.101Z</time></trkpt><trkpt lat="46.1039987" lon="9.3206783"><ele>214.33333333333334</ele><time>2026-03-25T07:47:43.101Z</time></trkpt><trkpt lat="46.1040538" lon="9.3207224"><ele>215.66666666666669</ele><time>2026-03-25T07:47:44.101Z</time></trkpt><trkpt lat="46.104108" lon="9.3207697"><ele>217.0</ele><time>2026-03-25T07:47:45.102Z</time></trkpt><trkpt lat="46.1042204" lon="9.3208649"><ele>218.33333333333334</ele><time>2026-03-25T07:47:47.101Z</time></trkpt><trkpt lat="46.1042818" lon="9.3209063"><ele>219.66666666666669</ele><time>2026-03-25T07:47:48.101Z</time></trkpt><trkpt lat="46.1043421" lon="9.3209461"><ele>221.0</ele><time>2026-03-25T07:47:49.101Z</time></trkpt><trkpt lat="46.1044523" lon="9.3210034"><ele>221.0</ele><time>2026-03-25T07:47:51.102Z</time></trkpt><trkpt lat="46.1045714" lon="9.3210548"><ele>221.0</ele><time>2026-03-25T07:47:53.101Z</time></trkpt><trkpt lat="46.1046927" lon="9.3210994"><ele>221.0</ele><time>2026-03-25T07:47:55.1Z</time></trkpt><trkpt lat="46.1048118" lon="9.3211511"><ele>221.0</ele><time>2026-03-25T07:47:57.101Z</time></trkpt><trkpt lat="46.1049228" lon="9.3211742"><ele>220.8</ele><time>2026-03-25T07:47:59.102Z</time></trkpt><trkpt lat="46.1050274" lon="9.3211796"><ele>220.60000000000002</ele><time>2026-03-25T07:48:01.102Z</time></trkpt><trkpt lat="46.1051272" lon="9.3211596"><ele>220.4</ele><time>2026-03-25T07:48:03.102Z</time></trkpt><trkpt lat="46.1052299" lon="9.3211263"><ele>220.2</ele><time>2026-03-25T07:48:05.102Z</time></trkpt><trkpt lat="46.1053418" lon="9.3210867"><ele>220.0</ele><time>2026-03-25T07:48:07.1Z</time></trkpt><trkpt lat="46.1054533" lon="9.3210397"><ele>220.0</ele><time>2026-03-25T07:48:09.099Z</time></trkpt><trkpt lat="46.1055488" lon="9.3210081"><ele>220.0</ele><time>2026-03-25T07:48:11.1Z</time></trkpt><trkpt lat="46.1056428" lon="9.3209766"><ele>220.0</ele><time>2026-03-25T07:48:13.101Z</time></trkpt><trkpt lat="46.1057466" lon="9.3209365"><ele>220.0</ele><time>2026-03-25T07:48:15.101Z</time></trkpt><trkpt lat="46.1058458" lon="9.3208992"><ele>220.0</ele><time>2026-03-25T07:48:17.1Z</time></trkpt><trkpt lat="46.105947" lon="9.3208567"><ele>219.0</ele><time>2026-03-25T07:48:19.102Z</time></trkpt><trkpt lat="46.1060417" lon="9.320831"><ele>218.0</ele><time>2026-03-25T07:48:21.1Z</time></trkpt><trkpt lat="46.1061443" lon="9.3208086"><ele>217.0</ele><time>2026-03-25T07:48:23.1Z</time></trkpt><trkpt lat="46.1062461" lon="9.3207677"><ele>216.0</ele><time>2026-03-25T07:48:25.101Z</time></trkpt><trkpt lat="46.1063417" lon="9.3207209"><ele>215.0</ele><time>2026-03-25T07:48:27.101Z</time></trkpt><trkpt lat="46.1064285" lon="9.3206958"><ele>215.0</ele><time>2026-03-25T07:48:29.1Z</time></trkpt><trkpt lat="46.1065096" lon="9.3206528"><ele>215.0</ele><time>2026-03-25T07:48:31.1Z</time></trkpt><trkpt lat="46.1065926" lon="9.3205818"><ele>215.0</ele><time>2026-03-25T07:48:33.101Z</time></trkpt><trkpt lat="46.1066749" lon="9.3205102"><ele>215.0</ele><time>2026-03-25T07:48:35.1Z</time></trkpt><trkpt lat="46.1067583" lon="9.3204362"><ele>215.0</ele><time>2026-03-25T07:48:37.101Z</time></trkpt><trkpt lat="46.1068403" lon="9.3203554"><ele>214.8</ele><time>2026-03-25T07:48:39.101Z</time></trkpt><trkpt lat="46.1069239" lon="9.3202829"><ele>214.6</ele><time>2026-03-25T07:48:41.101Z</time></trkpt><trkpt lat="46.1070105" lon="9.3202282"><ele>214.39999999999998</ele><time>2026-03-25T07:48:43.101Z</time></trkpt><trkpt lat="46.1070993" lon="9.3201824"><ele>214.2</ele><time>2026-03-25T07:48:45.101Z</time></trkpt><trkpt lat="46.1071931" lon="9.3201476"><ele>214.0</ele><time>2026-03-25T07:48:47.101Z</time></trkpt><trkpt lat="46.1072737" lon="9.3201322"><ele>213.99999999999997</ele><time>2026-03-25T07:48:49.1Z</time></trkpt><trkpt lat="46.1073581" lon="9.3201056"><ele>214.0</ele><time>2026-03-25T07:48:51.101Z</time></trkpt><trkpt lat="46.1074413" lon="9.3200736"><ele>214.0</ele><time>2026-03-25T07:48:53.101Z</time></trkpt><trkpt lat="46.1075137" lon="9.3200623"><ele>214.0</ele><time>2026-03-25T07:48:55.101Z</time></trkpt><trkpt lat="46.1076041" lon="9.3200116"><ele>213.99999999999997</ele><time>2026-03-25T07:48:57.101Z</time></trkpt><trkpt lat="46.1076913" lon="9.3199566"><ele>214.0</ele><time>2026-03-25T07:48:59.189Z</time></trkpt><trkpt lat="46.1077696" lon="9.319938"><ele>216.16666666666666</ele><time>2026-03-25T07:49:01.207Z</time></trkpt><trkpt lat="46.1078815" lon="9.3199039"><ele>218.33333333333331</ele><time>2026-03-25T07:49:03.89Z</time></trkpt><trkpt lat="46.1079777" lon="9.3198696"><ele>220.5</ele><time>2026-03-25T07:49:06.171Z</time></trkpt><trkpt lat="46.1080585" lon="9.3198498"><ele>222.66666666666669</ele><time>2026-03-25T07:49:08.217Z</time></trkpt><trkpt lat="46.1081222" lon="9.3198281"><ele>224.83333333333334</ele><time>2026-03-25T07:49:10.101Z</time></trkpt><trkpt lat="46.1081911" lon="9.3197991"><ele>227.0</ele><time>2026-03-25T07:49:12.1Z</time></trkpt><trkpt lat="46.1082664" lon="9.3197867"><ele>229.00000000000003</ele><time>2026-03-25T07:49:14.101Z</time></trkpt><trkpt lat="46.1083431" lon="9.3197757"><ele>231.0</ele><time>2026-03-25T07:49:16.037Z</time></trkpt><trkpt lat="46.1084329" lon="9.3197565"><ele>233.0</ele><time>2026-03-25T07:49:18.194Z</time></trkpt><trkpt lat="46.1085135" lon="9.3197276"><ele>235.0</ele><time>2026-03-25T07:49:20.182Z</time></trkpt><trkpt lat="46.1085937" lon="9.3197027"><ele>237.00000000000003</ele><time>2026-03-25T07:49:22.102Z</time></trkpt><trkpt lat="46.1086729" lon="9.3196881"><ele>239.0</ele><time>2026-03-25T07:49:24.028Z</time></trkpt><trkpt lat="46.1087573" lon="9.31969"><ele>237.00000000000003</ele><time>2026-03-25T07:49:26.112Z</time></trkpt><trkpt lat="46.10884" lon="9.3196848"><ele>235.0</ele><time>2026-03-25T07:49:28.198Z</time></trkpt><trkpt lat="46.108915" lon="9.3196681"><ele>233.0</ele><time>2026-03-25T07:49:30.1Z</time></trkpt><trkpt lat="46.1089962" lon="9.3196465"><ele>231.0</ele><time>2026-03-25T07:49:32.1Z</time></trkpt><trkpt lat="46.1090756" lon="9.3196205"><ele>229.00000000000003</ele><time>2026-03-25T07:49:34.1Z</time></trkpt><trkpt lat="46.1091531" lon="9.3195806"><ele>227.0</ele><time>2026-03-25T07:49:36.152Z</time></trkpt><trkpt lat="46.1092287" lon="9.3195161"><ele>227.00000000000003</ele><time>2026-03-25T07:49:38.101Z</time></trkpt><trkpt lat="46.1092991" lon="9.3194323"><ele>227.0</ele><time>2026-03-25T07:49:40.214Z</time></trkpt><trkpt lat="46.1093602" lon="9.3193462"><ele>227.0</ele><time>2026-03-25T07:49:42.197Z</time></trkpt><trkpt lat="46.1094207" lon="9.319261"><ele>227.0</ele><time>2026-03-25T07:49:44.1Z</time></trkpt><trkpt lat="46.1094829" lon="9.3191774"><ele>227.00000000000003</ele><time>2026-03-25T07:49:46.101Z</time></trkpt><trkpt lat="46.1095415" lon="9.3190914"><ele>227.0</ele><time>2026-03-25T07:49:48.18Z</time></trkpt><trkpt lat="46.1096034" lon="9.3190184"><ele>227.00000000000003</ele><time>2026-03-25T07:49:50.195Z</time></trkpt><trkpt lat="46.1096698" lon="9.318956"><ele>227.0</ele><time>2026-03-25T07:49:52.101Z</time></trkpt><trkpt lat="46.1097349" lon="9.3188814"><ele>227.0</ele><time>2026-03-25T07:49:54.101Z</time></trkpt><trkpt lat="46.1098007" lon="9.3187984"><ele>227.0</ele><time>2026-03-25T07:49:56.2Z</time></trkpt><trkpt lat="46.1098539" lon="9.3187294"><ele>227.00000000000003</ele><time>2026-03-25T07:49:58.073Z</time></trkpt><trkpt lat="46.1099108" lon="9.3186521"><ele>227.0</ele><time>2026-03-25T07:50:00.2Z</time></trkpt><trkpt lat="46.1099703" lon="9.3185724"><ele>226.33333333333334</ele><time>2026-03-25T07:50:02.184Z</time></trkpt><trkpt lat="46.1100298" lon="9.3184955"><ele>225.66666666666669</ele><time>2026-03-25T07:50:04.101Z</time></trkpt><trkpt lat="46.1100913" lon="9.3184253"><ele>225.0</ele><time>2026-03-25T07:50:06.017Z</time></trkpt><trkpt lat="46.1101673" lon="9.3183855"><ele>224.33333333333331</ele><time>2026-03-25T07:50:08.191Z</time></trkpt><trkpt lat="46.1102461" lon="9.3183853"><ele>223.66666666666666</ele><time>2026-03-25T07:50:10.19Z</time></trkpt><trkpt lat="46.1103181" lon="9.3183902"><ele>223.0</ele><time>2026-03-25T07:50:12.101Z</time></trkpt><trkpt lat="46.1103948" lon="9.3183884"><ele>222.99999999999997</ele><time>2026-03-25T07:50:14.089Z</time></trkpt><trkpt lat="46.1104675" lon="9.3183857"><ele>223.0</ele><time>2026-03-25T07:50:16.058Z</time></trkpt><trkpt lat="46.1105379" lon="9.3183737"><ele>223.0</ele><time>2026-03-25T07:50:18.102Z</time></trkpt><trkpt lat="46.1106157" lon="9.3183627"><ele>223.0</ele><time>2026-03-25T07:50:20.1Z</time></trkpt><trkpt lat="46.1106961" lon="9.3183401"><ele>222.99999999999997</ele><time>2026-03-25T07:50:22.194Z</time></trkpt><trkpt lat="46.1107736" lon="9.3182989"><ele>223.0</ele><time>2026-03-25T07:50:24.201Z</time></trkpt><trkpt lat="46.1108427" lon="9.3182312"><ele>224.66666666666666</ele><time>2026-03-25T07:50:26.103Z</time></trkpt><trkpt lat="46.110909" lon="9.3181497"><ele>226.33333333333331</ele><time>2026-03-25T07:50:28.101Z</time></trkpt><trkpt lat="46.1109648" lon="9.3180556"><ele>228.0</ele><time>2026-03-25T07:50:30.102Z</time></trkpt><trkpt lat="46.1110276" lon="9.3179716"><ele>229.66666666666669</ele><time>2026-03-25T07:50:32.192Z</time></trkpt><trkpt lat="46.1110899" lon="9.3179001"><ele>231.33333333333334</ele><time>2026-03-25T07:50:34.101Z</time></trkpt><trkpt lat="46.1111544" lon="9.3178164"><ele>233.0</ele><time>2026-03-25T07:50:36.058Z</time></trkpt><trkpt lat="46.1112192" lon="9.3177235"><ele>233.00000000000003</ele><time>2026-03-25T07:50:38.101Z</time></trkpt><trkpt lat="46.1112792" lon="9.3176317"><ele>233.0</ele><time>2026-03-25T07:50:40.102Z</time></trkpt><trkpt lat="46.111342" lon="9.317541"><ele>233.0</ele><time>2026-03-25T07:50:42.217Z</time></trkpt><trkpt lat="46.111402" lon="9.3174572"><ele>233.0</ele><time>2026-03-25T07:50:44.205Z</time></trkpt><trkpt lat="46.1114632" lon="9.3173662"><ele>233.00000000000003</ele><time>2026-03-25T07:50:46.375Z</time></trkpt><trkpt lat="46.1115354" lon="9.3172643"><ele>233.0</ele><time>2026-03-25T07:50:48.909Z</time></trkpt><trkpt lat="46.1116011" lon="9.3171784"><ele>233.66666666666669</ele><time>2026-03-25T07:50:51.119Z</time></trkpt><trkpt lat="46.1116628" lon="9.3170989"><ele>234.33333333333334</ele><time>2026-03-25T07:50:53.141Z</time></trkpt><trkpt lat="46.1117293" lon="9.3170326"><ele>235.0</ele><time>2026-03-25T07:50:55.103Z</time></trkpt><trkpt lat="46.1117922" lon="9.3169741"><ele>235.66666666666669</ele><time>2026-03-25T07:50:57.102Z</time></trkpt><trkpt lat="46.1118643" lon="9.3169227"><ele>236.33333333333334</ele><time>2026-03-25T07:50:59.068Z</time></trkpt><trkpt lat="46.111927" lon="9.3168893"><ele>237.0</ele><time>2026-03-25T07:51:01.101Z</time></trkpt><trkpt lat="46.1120027" lon="9.3168591"><ele>237.0</ele><time>2026-03-25T07:51:03.204Z</time></trkpt><trkpt lat="46.1120689" lon="9.3168433"><ele>237.0</ele><time>2026-03-25T07:51:05.101Z</time></trkpt><trkpt lat="46.1121431" lon="9.3168267"><ele>237.0</ele><time>2026-03-25T07:51:07.102Z</time></trkpt><trkpt lat="46.1122171" lon="9.3168129"><ele>237.0</ele><time>2026-03-25T07:51:09.101Z</time></trkpt><trkpt lat="46.1122976" lon="9.3168114"><ele>237.0</ele><time>2026-03-25T07:51:11.173Z</time></trkpt><trkpt lat="46.1123708" lon="9.3168114"><ele>237.0</ele><time>2026-03-25T07:51:13.213Z</time></trkpt><trkpt lat="46.1124727" lon="9.3168224"><ele>238.85714285714283</ele><time>2026-03-25T07:51:16.109Z</time></trkpt><trkpt lat="46.1125373" lon="9.3168247"><ele>240.71428571428572</ele><time>2026-03-25T07:51:18.101Z</time></trkpt><trkpt lat="46.1126053" lon="9.3168226"><ele>242.57142857142856</ele><time>2026-03-25T07:51:20.102Z</time></trkpt><trkpt lat="46.1126742" lon="9.3168072"><ele>244.42857142857142</ele><time>2026-03-25T07:51:22.127Z</time></trkpt><trkpt lat="46.1127441" lon="9.3167894"><ele>246.28571428571428</ele><time>2026-03-25T07:51:24.103Z</time></trkpt><trkpt lat="46.1128134" lon="9.3167687"><ele>248.14285714285714</ele><time>2026-03-25T07:51:26.1Z</time></trkpt><trkpt lat="46.1128793" lon="9.3167405"><ele>250.0</ele><time>2026-03-25T07:51:28.102Z</time></trkpt><trkpt lat="46.1129467" lon="9.3167109"><ele>250.0</ele><time>2026-03-25T07:51:30.179Z</time></trkpt><trkpt lat="46.1130163" lon="9.3166848"><ele>250.0</ele><time>2026-03-25T07:51:32.218Z</time></trkpt><trkpt lat="46.1130778" lon="9.3166654"><ele>250.0</ele><time>2026-03-25T07:51:34.101Z</time></trkpt><trkpt lat="46.1131425" lon="9.3166504"><ele>250.0</ele><time>2026-03-25T07:51:36.1Z</time></trkpt><trkpt lat="46.1132085" lon="9.3166496"><ele>250.0</ele><time>2026-03-25T07:51:38.102Z</time></trkpt><trkpt lat="46.1132743" lon="9.3166567"><ele>250.0</ele><time>2026-03-25T07:51:40.115Z</time></trkpt><trkpt lat="46.1133458" lon="9.3166657"><ele>250.0</ele><time>2026-03-25T07:51:42.214Z</time></trkpt><trkpt lat="46.1134116" lon="9.3166785"><ele>250.66666666666666</ele><time>2026-03-25T07:51:44.193Z</time></trkpt><trkpt lat="46.1135041" lon="9.3167199"><ele>251.33333333333331</ele><time>2026-03-25T07:51:47.101Z</time></trkpt><trkpt lat="46.1135708" lon="9.3167501"><ele>252.0</ele><time>2026-03-25T07:51:49.101Z</time></trkpt><trkpt lat="46.1136355" lon="9.3167891"><ele>252.66666666666669</ele><time>2026-03-25T07:51:51.189Z</time></trkpt><trkpt lat="46.1136935" lon="9.3168604"><ele>253.33333333333334</ele><time>2026-03-25T07:51:54.102Z</time></trkpt><trkpt lat="46.1137674" lon="9.3169346"><ele>254.0</ele><time>2026-03-25T07:51:57.101Z</time></trkpt><trkpt lat="46.1138196" lon="9.3169928"><ele>254.0</ele><time>2026-03-25T07:51:59.202Z</time></trkpt><trkpt lat="46.1138965" lon="9.3170772"><ele>254.0</ele><time>2026-03-25T07:52:02.072Z</time></trkpt><trkpt lat="46.1139495" lon="9.3171367"><ele>254.0</ele><time>2026-03-25T07:52:04.186Z</time></trkpt><trkpt lat="46.1140025" lon="9.3172021"><ele>254.0</ele><time>2026-03-25T07:52:06.206Z</time></trkpt><trkpt lat="46.1140494" lon="9.3172721"><ele>254.0</ele><time>2026-03-25T07:52:08.101Z</time></trkpt><trkpt lat="46.1141026" lon="9.317337"><ele>254.0</ele><time>2026-03-25T07:52:10.102Z</time></trkpt><trkpt lat="46.1141605" lon="9.3174066"><ele>254.0</ele><time>2026-03-25T07:52:12.216Z</time></trkpt><trkpt lat="46.1142254" lon="9.3174754"><ele>254.16666666666669</ele><time>2026-03-25T07:52:15.102Z</time></trkpt><trkpt lat="46.1142919" lon="9.3175765"><ele>254.33333333333334</ele><time>2026-03-25T07:52:18.102Z</time></trkpt><trkpt lat="46.1143412" lon="9.3176989"><ele>254.5</ele><time>2026-03-25T07:52:21.102Z</time></trkpt><trkpt lat="46.1143728" lon="9.3177908"><ele>254.66666666666669</ele><time>2026-03-25T07:52:23.171Z</time></trkpt><trkpt lat="46.1144003" lon="9.3178876"><ele>254.83333333333334</ele><time>2026-03-25T07:52:25.189Z</time></trkpt><trkpt lat="46.1144151" lon="9.3179821"><ele>255.0</ele><time>2026-03-25T07:52:27.102Z</time></trkpt><trkpt lat="46.1144303" lon="9.3180865"><ele>255.66666666666666</ele><time>2026-03-25T07:52:29.103Z</time></trkpt><trkpt lat="46.1144476" lon="9.3181883"><ele>256.3333333333333</ele><time>2026-03-25T07:52:31.029Z</time></trkpt><trkpt lat="46.1144682" lon="9.3182895"><ele>257.0</ele><time>2026-03-25T07:52:33.203Z</time></trkpt><trkpt lat="46.114492" lon="9.3184308"><ele>257.66666666666663</ele><time>2026-03-25T07:52:36.101Z</time></trkpt><trkpt lat="46.1145117" lon="9.3185511"><ele>258.3333333333333</ele><time>2026-03-25T07:52:38.101Z</time></trkpt><trkpt lat="46.1145272" lon="9.3186835"><ele>259.0</ele><time>2026-03-25T07:52:40.101Z</time></trkpt><trkpt lat="46.1145289" lon="9.3188396"><ele>260.4</ele><time>2026-03-25T07:52:42.102Z</time></trkpt><trkpt lat="46.1145249" lon="9.3190026"><ele>261.79999999999995</ele><time>2026-03-25T07:52:44.102Z</time></trkpt><trkpt lat="46.1145207" lon="9.3190986"><ele>263.20000000000005</ele><time>2026-03-25T07:52:45.102Z</time></trkpt><trkpt lat="46.1145158" lon="9.3191986"><ele>264.6</ele><time>2026-03-25T07:52:46.1Z</time></trkpt><trkpt lat="46.1145108" lon="9.3193905"><ele>266.0</ele><time>2026-03-25T07:52:48.102Z</time></trkpt><trkpt lat="46.1145175" lon="9.3195026"><ele>266.0</ele><time>2026-03-25T07:52:49.102Z</time></trkpt><trkpt lat="46.1145155" lon="9.3196174"><ele>266.0</ele><time>2026-03-25T07:52:50.101Z</time></trkpt><trkpt lat="46.1145175" lon="9.3197325"><ele>266.0</ele><time>2026-03-25T07:52:51.102Z</time></trkpt><trkpt lat="46.1145142" lon="9.3198532"><ele>266.0</ele><time>2026-03-25T07:52:52.101Z</time></trkpt><trkpt lat="46.1145054" lon="9.3199741"><ele>266.0</ele><time>2026-03-25T07:52:53.102Z</time></trkpt><trkpt lat="46.1144982" lon="9.3201021"><ele>266.0</ele><time>2026-03-25T07:52:54.101Z</time></trkpt><trkpt lat="46.114493" lon="9.3202384"><ele>266.2</ele><time>2026-03-25T07:52:55.101Z</time></trkpt><trkpt lat="46.1144878" lon="9.320368"><ele>266.40000000000003</ele><time>2026-03-25T07:52:56.102Z</time></trkpt><trkpt lat="46.114484" lon="9.3204964"><ele>266.6</ele><time>2026-03-25T07:52:57.101Z</time></trkpt><trkpt lat="46.1144791" lon="9.320633"><ele>266.8</ele><time>2026-03-25T07:52:58.1Z</time></trkpt><trkpt lat="46.1144779" lon="9.3207643"><ele>267.0</ele><time>2026-03-25T07:52:59.102Z</time></trkpt><trkpt lat="46.1144815" lon="9.3209016"><ele>267.0</ele><time>2026-03-25T07:53:00.1Z</time></trkpt><trkpt lat="46.1144764" lon="9.3210383"><ele>267.0</ele><time>2026-03-25T07:53:01.102Z</time></trkpt><trkpt lat="46.1144704" lon="9.3211838"><ele>267.0</ele><time>2026-03-25T07:53:02.102Z</time></trkpt><trkpt lat="46.1144633" lon="9.3213326"><ele>267.0</ele><time>2026-03-25T07:53:03.102Z</time></trkpt><trkpt lat="46.1144583" lon="9.32148"><ele>267.0</ele><time>2026-03-25T07:53:04.101Z</time></trkpt><trkpt lat="46.1144526" lon="9.3216342"><ele>267.4</ele><time>2026-03-25T07:53:05.103Z</time></trkpt><trkpt lat="46.1144511" lon="9.3217759"><ele>267.79999999999995</ele><time>2026-03-25T07:53:06.102Z</time></trkpt><trkpt lat="46.1144546" lon="9.321925"><ele>268.2</ele><time>2026-03-25T07:53:07.102Z</time></trkpt><trkpt lat="46.1144612" lon="9.3220668"><ele>268.59999999999997</ele><time>2026-03-25T07:53:08.101Z</time></trkpt><trkpt lat="46.1144663" lon="9.3222122"><ele>269.0</ele><time>2026-03-25T07:53:09.102Z</time></trkpt><trkpt lat="46.1144716" lon="9.3223568"><ele>269.2</ele><time>2026-03-25T07:53:10.102Z</time></trkpt><trkpt lat="46.1144783" lon="9.3225067"><ele>269.4</ele><time>2026-03-25T07:53:11.102Z</time></trkpt><trkpt lat="46.1144851" lon="9.3226562"><ele>269.6</ele><time>2026-03-25T07:53:12.102Z</time></trkpt><trkpt lat="46.1144919" lon="9.3228031"><ele>269.8</ele><time>2026-03-25T07:53:13.102Z</time></trkpt><trkpt lat="46.1144987" lon="9.3229443"><ele>270.0</ele><time>2026-03-25T07:53:14.102Z</time></trkpt><trkpt lat="46.1145099" lon="9.3230891"><ele>270.4</ele><time>2026-03-25T07:53:15.102Z</time></trkpt><trkpt lat="46.1145282" lon="9.323235"><ele>270.8</ele><time>2026-03-25T07:53:16.102Z</time></trkpt><trkpt lat="46.1145582" lon="9.3233685"><ele>271.2</ele><time>2026-03-25T07:53:17.102Z</time></trkpt><trkpt lat="46.1145922" lon="9.3234947"><ele>271.6</ele><time>2026-03-25T07:53:18.102Z</time></trkpt><trkpt lat="46.1146234" lon="9.3236335"><ele>272.0</ele><time>2026-03-25T07:53:19.102Z</time></trkpt><trkpt lat="46.114646" lon="9.3237692"><ele>271.25</ele><time>2026-03-25T07:53:20.102Z</time></trkpt><trkpt lat="46.114658" lon="9.3239087"><ele>270.5</ele><time>2026-03-25T07:53:21.101Z</time></trkpt><trkpt lat="46.1146604" lon="9.324195"><ele>269.75</ele><time>2026-03-25T07:53:23.103Z</time></trkpt><trkpt lat="46.1146478" lon="9.3243462"><ele>269.0</ele><time>2026-03-25T07:53:24.103Z</time></trkpt><trkpt lat="46.1146209" lon="9.3244933"><ele>269.0</ele><time>2026-03-25T07:53:25.102Z</time></trkpt><trkpt lat="46.1145809" lon="9.3246337"><ele>269.0</ele><time>2026-03-25T07:53:26.101Z</time></trkpt><trkpt lat="46.1145121" lon="9.3247657"><ele>269.0</ele><time>2026-03-25T07:53:27.102Z</time></trkpt><trkpt lat="46.114439" lon="9.3248843"><ele>269.0</ele><time>2026-03-25T07:53:28.102Z</time></trkpt><trkpt lat="46.1143715" lon="9.3250043"><ele>269.0</ele><time>2026-03-25T07:53:29.102Z</time></trkpt><trkpt lat="46.1143118" lon="9.325127"><ele>266.0</ele><time>2026-03-25T07:53:30.102Z</time></trkpt><trkpt lat="46.1142551" lon="9.3252548"><ele>263.0</ele><time>2026-03-25T07:53:31.102Z</time></trkpt><trkpt lat="46.114207" lon="9.3253892"><ele>260.0</ele><time>2026-03-25T07:53:32.101Z</time></trkpt><trkpt lat="46.1141703" lon="9.32553"><ele>257.0</ele><time>2026-03-25T07:53:33.103Z</time></trkpt><trkpt lat="46.1141404" lon="9.3256647"><ele>254.0</ele><time>2026-03-25T07:53:34.101Z</time></trkpt><trkpt lat="46.1141117" lon="9.3257994"><ele>250.79999999999998</ele><time>2026-03-25T07:53:35.102Z</time></trkpt><trkpt lat="46.1140774" lon="9.3259269"><ele>247.59999999999997</ele><time>2026-03-25T07:53:36.102Z</time></trkpt><trkpt lat="46.1140456" lon="9.3260484"><ele>244.4</ele><time>2026-03-25T07:53:37.101Z</time></trkpt><trkpt lat="46.1140142" lon="9.3261746"><ele>241.2</ele><time>2026-03-25T07:53:38.102Z</time></trkpt><trkpt lat="46.11399" lon="9.3263002"><ele>238.0</ele><time>2026-03-25T07:53:39.103Z</time></trkpt><trkpt lat="46.1139654" lon="9.3264161"><ele>245.99999999999997</ele><time>2026-03-25T07:53:40.102Z</time></trkpt><trkpt lat="46.1139426" lon="9.3265345"><ele>254.0</ele><time>2026-03-25T07:53:41.102Z</time></trkpt><trkpt lat="46.1139258" lon="9.3266535"><ele>262.0</ele><time>2026-03-25T07:53:42.103Z</time></trkpt><trkpt lat="46.113916" lon="9.3267763"><ele>270.0</ele><time>2026-03-25T07:53:43.101Z</time></trkpt><trkpt lat="46.1139139" lon="9.3268981"><ele>278.0</ele><time>2026-03-25T07:53:44.101Z</time></trkpt><trkpt lat="46.1139133" lon="9.3270166"><ele>286.0</ele><time>2026-03-25T07:53:45.102Z</time></trkpt><trkpt lat="46.1139177" lon="9.3271342"><ele>285.66666666666663</ele><time>2026-03-25T07:53:46.103Z</time></trkpt><trkpt lat="46.1139246" lon="9.3272587"><ele>285.3333333333333</ele><time>2026-03-25T07:53:47.102Z</time></trkpt><trkpt lat="46.1139266" lon="9.3273767"><ele>285.0</ele><time>2026-03-25T07:53:48.1Z</time></trkpt><trkpt lat="46.1139289" lon="9.3275027"><ele>284.6666666666667</ele><time>2026-03-25T07:53:49.102Z</time></trkpt><trkpt lat="46.1139282" lon="9.3276216"><ele>284.33333333333337</ele><time>2026-03-25T07:53:50.103Z</time></trkpt><trkpt lat="46.1139341" lon="9.3277421"><ele>284.0</ele><time>2026-03-25T07:53:51.102Z</time></trkpt><trkpt lat="46.1139509" lon="9.3278715"><ele>284.0</ele><time>2026-03-25T07:53:52.103Z</time></trkpt><trkpt lat="46.1139659" lon="9.3279954"><ele>284.0</ele><time>2026-03-25T07:53:53.102Z</time></trkpt><trkpt lat="46.1139999" lon="9.3281188"><ele>284.0</ele><time>2026-03-25T07:53:54.102Z</time></trkpt><trkpt lat="46.1141099" lon="9.3283368"><ele>284.0</ele><time>2026-03-25T07:53:56.1Z</time></trkpt><trkpt lat="46.1141718" lon="9.3284396"><ele>275.6666666666667</ele><time>2026-03-25T07:53:57.101Z</time></trkpt><trkpt lat="46.1142272" lon="9.3285488"><ele>267.33333333333337</ele><time>2026-03-25T07:53:58.103Z</time></trkpt><trkpt lat="46.1142687" lon="9.3286645"><ele>259.0</ele><time>2026-03-25T07:53:59.102Z</time></trkpt><trkpt lat="46.1142977" lon="9.3287867"><ele>250.66666666666669</ele><time>2026-03-25T07:54:00.102Z</time></trkpt><trkpt lat="46.1143189" lon="9.3289103"><ele>242.33333333333334</ele><time>2026-03-25T07:54:01.102Z</time></trkpt><trkpt lat="46.1143259" lon="9.3290344"><ele>234.0</ele><time>2026-03-25T07:54:02.103Z</time></trkpt><trkpt lat="46.1143265" lon="9.3291615"><ele>234.0</ele><time>2026-03-25T07:54:03.102Z</time></trkpt><trkpt lat="46.1143343" lon="9.3292886"><ele>234.0</ele><time>2026-03-25T07:54:04.102Z</time></trkpt><trkpt lat="46.1143458" lon="9.3294243"><ele>234.0</ele><time>2026-03-25T07:54:05.103Z</time></trkpt><trkpt lat="46.1143499" lon="9.3295396"><ele>234.0</ele><time>2026-03-25T07:54:06.101Z</time></trkpt><trkpt lat="46.1143506" lon="9.3296628"><ele>234.0</ele><time>2026-03-25T07:54:07.103Z</time></trkpt><trkpt lat="46.1143531" lon="9.3297808"><ele>234.0</ele><time>2026-03-25T07:54:08.102Z</time></trkpt><trkpt lat="46.1143524" lon="9.3298903"><ele>234.5</ele><time>2026-03-25T07:54:09.102Z</time></trkpt><trkpt lat="46.1143532" lon="9.3300071"><ele>235.0</ele><time>2026-03-25T07:54:10.102Z</time></trkpt><trkpt lat="46.1143565" lon="9.330124"><ele>235.5</ele><time>2026-03-25T07:54:11.102Z</time></trkpt><trkpt lat="46.114352" lon="9.3302379"><ele>236.0</ele><time>2026-03-25T07:54:12.102Z</time></trkpt><trkpt lat="46.114345" lon="9.3303507"><ele>236.5</ele><time>2026-03-25T07:54:13.102Z</time></trkpt><trkpt lat="46.1143422" lon="9.3304763"><ele>237.0</ele><time>2026-03-25T07:54:14.102Z</time></trkpt><trkpt lat="46.1143466" lon="9.3306142"><ele>238.6</ele><time>2026-03-25T07:54:15.103Z</time></trkpt><trkpt lat="46.1143556" lon="9.3307441"><ele>240.2</ele><time>2026-03-25T07:54:16.101Z</time></trkpt><trkpt lat="46.1143775" lon="9.3308713"><ele>241.8</ele><time>2026-03-25T07:54:17.102Z</time></trkpt><trkpt lat="46.1144086" lon="9.3310024"><ele>243.4</ele><time>2026-03-25T07:54:18.102Z</time></trkpt><trkpt lat="46.1144418" lon="9.3311277"><ele>245.0</ele><time>2026-03-25T07:54:19.102Z</time></trkpt><trkpt lat="46.1144797" lon="9.3312601"><ele>246.4</ele><time>2026-03-25T07:54:20.103Z</time></trkpt><trkpt lat="46.1145186" lon="9.3313931"><ele>247.8</ele><time>2026-03-25T07:54:21.102Z</time></trkpt><trkpt lat="46.114552" lon="9.3315171"><ele>249.2</ele><time>2026-03-25T07:54:22.101Z</time></trkpt><trkpt lat="46.1145987" lon="9.3316478"><ele>250.6</ele><time>2026-03-25T07:54:23.102Z</time></trkpt><trkpt lat="46.1146472" lon="9.3317737"><ele>252.0</ele><time>2026-03-25T07:54:24.103Z</time></trkpt><trkpt lat="46.114698" lon="9.3318924"><ele>252.0</ele><time>2026-03-25T07:54:25.102Z</time></trkpt><trkpt lat="46.1147542" lon="9.3320155"><ele>252.0</ele><time>2026-03-25T07:54:26.102Z</time></trkpt><trkpt lat="46.1148073" lon="9.3321356"><ele>252.0</ele><time>2026-03-25T07:54:27.102Z</time></trkpt><trkpt lat="46.1148576" lon="9.33225"><ele>252.0</ele><time>2026-03-25T07:54:28.102Z</time></trkpt><trkpt lat="46.1148983" lon="9.3323678"><ele>252.0</ele><time>2026-03-25T07:54:29.102Z</time></trkpt><trkpt lat="46.1149366" lon="9.3324856"><ele>246.6</ele><time>2026-03-25T07:54:30.102Z</time></trkpt><trkpt lat="46.1149756" lon="9.3326033"><ele>241.2</ele><time>2026-03-25T07:54:31.103Z</time></trkpt><trkpt lat="46.1150183" lon="9.3327189"><ele>235.8</ele><time>2026-03-25T07:54:32.103Z</time></trkpt><trkpt lat="46.1150626" lon="9.3328304"><ele>230.4</ele><time>2026-03-25T07:54:33.102Z</time></trkpt><trkpt lat="46.1151179" lon="9.3329374"><ele>225.0</ele><time>2026-03-25T07:54:34.102Z</time></trkpt><trkpt lat="46.1151784" lon="9.3330416"><ele>229.4</ele><time>2026-03-25T07:54:35.102Z</time></trkpt><trkpt lat="46.1152407" lon="9.3331449"><ele>233.8</ele><time>2026-03-25T07:54:36.103Z</time></trkpt><trkpt lat="46.1153018" lon="9.3332522"><ele>238.2</ele><time>2026-03-25T07:54:37.102Z</time></trkpt><trkpt lat="46.1153648" lon="9.3333608"><ele>242.6</ele><time>2026-03-25T07:54:38.103Z</time></trkpt><trkpt lat="46.1154228" lon="9.3334683"><ele>247.0</ele><time>2026-03-25T07:54:39.102Z</time></trkpt><trkpt lat="46.1154846" lon="9.3335782"><ele>247.0</ele><time>2026-03-25T07:54:40.103Z</time></trkpt><trkpt lat="46.1155438" lon="9.3336947"><ele>247.0</ele><time>2026-03-25T07:54:41.102Z</time></trkpt><trkpt lat="46.1155938" lon="9.3338219"><ele>247.0</ele><time>2026-03-25T07:54:42.102Z</time></trkpt><trkpt lat="46.1156424" lon="9.3339454"><ele>247.0</ele><time>2026-03-25T07:54:43.101Z</time></trkpt><trkpt lat="46.1156929" lon="9.3340736"><ele>247.0</ele><time>2026-03-25T07:54:44.102Z</time></trkpt><trkpt lat="46.1157376" lon="9.3341985"><ele>246.0</ele><time>2026-03-25T07:54:45.102Z</time></trkpt><trkpt lat="46.115779" lon="9.3343211"><ele>245.0</ele><time>2026-03-25T07:54:46.103Z</time></trkpt><trkpt lat="46.1158154" lon="9.3344424"><ele>244.0</ele><time>2026-03-25T07:54:47.103Z</time></trkpt><trkpt lat="46.1158409" lon="9.3345717"><ele>243.0</ele><time>2026-03-25T07:54:48.101Z</time></trkpt><trkpt lat="46.1158586" lon="9.3346995"><ele>242.0</ele><time>2026-03-25T07:54:49.103Z</time></trkpt><trkpt lat="46.1158705" lon="9.3348243"><ele>242.0</ele><time>2026-03-25T07:54:50.101Z</time></trkpt><trkpt lat="46.1158811" lon="9.3349495"><ele>242.0</ele><time>2026-03-25T07:54:51.103Z</time></trkpt><trkpt lat="46.115904" lon="9.3350818"><ele>242.0</ele><time>2026-03-25T07:54:52.101Z</time></trkpt><trkpt lat="46.1159324" lon="9.3352095"><ele>242.0</ele><time>2026-03-25T07:54:53.102Z</time></trkpt><trkpt lat="46.1159725" lon="9.335331"><ele>242.0</ele><time>2026-03-25T07:54:54.104Z</time></trkpt><trkpt lat="46.1160224" lon="9.3354468"><ele>242.0</ele><time>2026-03-25T07:54:55.101Z</time></trkpt><trkpt lat="46.1160802" lon="9.3355521"><ele>242.0</ele><time>2026-03-25T07:54:56.103Z</time></trkpt><trkpt lat="46.116141" lon="9.335654"><ele>242.0</ele><time>2026-03-25T07:54:57.101Z</time></trkpt><trkpt lat="46.1162003" lon="9.335759"><ele>242.0</ele><time>2026-03-25T07:54:58.102Z</time></trkpt><trkpt lat="46.1162624" lon="9.3358765"><ele>242.0</ele><time>2026-03-25T07:54:59.102Z</time></trkpt><trkpt lat="46.1163282" lon="9.3360059"><ele>238.0</ele><time>2026-03-25T07:55:00.102Z</time></trkpt><trkpt lat="46.1163841" lon="9.3361352"><ele>234.0</ele><time>2026-03-25T07:55:01.101Z</time></trkpt><trkpt lat="46.1164394" lon="9.3362655"><ele>230.0</ele><time>2026-03-25T07:55:02.102Z</time></trkpt><trkpt lat="46.1164938" lon="9.3363918"><ele>226.0</ele><time>2026-03-25T07:55:03.102Z</time></trkpt><trkpt lat="46.1165482" lon="9.3365116"><ele>222.0</ele><time>2026-03-25T07:55:04.102Z</time></trkpt><trkpt lat="46.1166012" lon="9.3366317"><ele>222.0</ele><time>2026-03-25T07:55:05.102Z</time></trkpt><trkpt lat="46.1166518" lon="9.3367552"><ele>222.0</ele><time>2026-03-25T07:55:06.103Z</time></trkpt><trkpt lat="46.1167057" lon="9.3368865"><ele>222.0</ele><time>2026-03-25T07:55:07.101Z</time></trkpt><trkpt lat="46.1167597" lon="9.3370197"><ele>222.0</ele><time>2026-03-25T07:55:08.102Z</time></trkpt><trkpt lat="46.1168116" lon="9.3371491"><ele>222.0</ele><time>2026-03-25T07:55:09.102Z</time></trkpt><trkpt lat="46.1168586" lon="9.3372837"><ele>224.39999999999998</ele><time>2026-03-25T07:55:10.103Z</time></trkpt><trkpt lat="46.1168953" lon="9.3374176"><ele>226.79999999999998</ele><time>2026-03-25T07:55:11.101Z</time></trkpt><trkpt lat="46.116927" lon="9.3375495"><ele>229.2</ele><time>2026-03-25T07:55:12.104Z</time></trkpt><trkpt lat="46.1169473" lon="9.3376884"><ele>231.6</ele><time>2026-03-25T07:55:13.102Z</time></trkpt><trkpt lat="46.1169562" lon="9.3378287"><ele>234.0</ele><time>2026-03-25T07:55:14.102Z</time></trkpt><trkpt lat="46.1169558" lon="9.3379664"><ele>235.2</ele><time>2026-03-25T07:55:15.102Z</time></trkpt><trkpt lat="46.1169497" lon="9.3381039"><ele>236.39999999999998</ele><time>2026-03-25T07:55:16.102Z</time></trkpt><trkpt lat="46.1169431" lon="9.338228"><ele>237.6</ele><time>2026-03-25T07:55:17.102Z</time></trkpt><trkpt lat="46.1169383" lon="9.3383569"><ele>238.8</ele><time>2026-03-25T07:55:18.102Z</time></trkpt><trkpt lat="46.1169331" lon="9.3384863"><ele>240.0</ele><time>2026-03-25T07:55:19.103Z</time></trkpt><trkpt lat="46.1169274" lon="9.3386243"><ele>240.0</ele><time>2026-03-25T07:55:20.104Z</time></trkpt><trkpt lat="46.1169097" lon="9.3387587"><ele>240.0</ele><time>2026-03-25T07:55:21.103Z</time></trkpt><trkpt lat="46.1168922" lon="9.3388971"><ele>240.0</ele><time>2026-03-25T07:55:22.102Z</time></trkpt><trkpt lat="46.1168694" lon="9.3390352"><ele>240.0</ele><time>2026-03-25T07:55:23.102Z</time></trkpt><trkpt lat="46.1168453" lon="9.3391643"><ele>240.0</ele><time>2026-03-25T07:55:24.103Z</time></trkpt><trkpt lat="46.1168182" lon="9.3392942"><ele>239.5</ele><time>2026-03-25T07:55:25.102Z</time></trkpt><trkpt lat="46.1167887" lon="9.3394212"><ele>239.0</ele><time>2026-03-25T07:55:26.103Z</time></trkpt><trkpt lat="46.1167565" lon="9.3395459"><ele>238.5</ele><time>2026-03-25T07:55:27.102Z</time></trkpt><trkpt lat="46.1167304" lon="9.3396747"><ele>238.0</ele><time>2026-03-25T07:55:28.103Z</time></trkpt><trkpt lat="46.11671" lon="9.3397932"><ele>237.5</ele><time>2026-03-25T07:55:29.103Z</time></trkpt><trkpt lat="46.1166912" lon="9.3399068"><ele>237.0</ele><time>2026-03-25T07:55:30.102Z</time></trkpt><trkpt lat="46.1166688" lon="9.3400199"><ele>235.0</ele><time>2026-03-25T07:55:31.103Z</time></trkpt><trkpt lat="46.1166464" lon="9.3401333"><ele>233.0</ele><time>2026-03-25T07:55:32.103Z</time></trkpt><trkpt lat="46.1166188" lon="9.3402415"><ele>231.0</ele><time>2026-03-25T07:55:33.102Z</time></trkpt><trkpt lat="46.1165924" lon="9.3403487"><ele>229.0</ele><time>2026-03-25T07:55:34.102Z</time></trkpt><trkpt lat="46.1165514" lon="9.3404579"><ele>227.0</ele><time>2026-03-25T07:55:35.103Z</time></trkpt><trkpt lat="46.1165278" lon="9.340562"><ele>225.0</ele><time>2026-03-25T07:55:36.102Z</time></trkpt><trkpt lat="46.1165013" lon="9.3406775"><ele>232.5</ele><time>2026-03-25T07:55:37.101Z</time></trkpt><trkpt lat="46.1164819" lon="9.3407948"><ele>240.0</ele><time>2026-03-25T07:55:38.101Z</time></trkpt><trkpt lat="46.1164505" lon="9.3409103"><ele>247.5</ele><time>2026-03-25T07:55:39.102Z</time></trkpt><trkpt lat="46.1164372" lon="9.3410245"><ele>255.0</ele><time>2026-03-25T07:55:40.103Z</time></trkpt><trkpt lat="46.1163905" lon="9.3411383"><ele>262.5</ele><time>2026-03-25T07:55:41.103Z</time></trkpt><trkpt lat="46.1163625" lon="9.341247"><ele>270.0</ele><time>2026-03-25T07:55:42.102Z</time></trkpt><trkpt lat="46.1163341" lon="9.3413539"><ele>267.2857142857143</ele><time>2026-03-25T07:55:43.102Z</time></trkpt><trkpt lat="46.1163177" lon="9.3414687"><ele>264.57142857142856</ele><time>2026-03-25T07:55:44.103Z</time></trkpt><trkpt lat="46.116288" lon="9.3415729"><ele>261.85714285714283</ele><time>2026-03-25T07:55:45.101Z</time></trkpt><trkpt lat="46.1162574" lon="9.3416751"><ele>259.1428571428571</ele><time>2026-03-25T07:55:46.101Z</time></trkpt><trkpt lat="46.116234" lon="9.341765"><ele>256.42857142857144</ele><time>2026-03-25T07:55:47.102Z</time></trkpt><trkpt lat="46.1162135" lon="9.3418646"><ele>253.71428571428567</ele><time>2026-03-25T07:55:48.102Z</time></trkpt><trkpt lat="46.1161843" lon="9.3419592"><ele>250.99999999999997</ele><time>2026-03-25T07:55:49.103Z</time></trkpt><trkpt lat="46.1161537" lon="9.342068"><ele>251.00000000000003</ele><time>2026-03-25T07:55:50.101Z</time></trkpt><trkpt lat="46.1161391" lon="9.3421759"><ele>251.0</ele><time>2026-03-25T07:55:51.103Z</time></trkpt><trkpt lat="46.1161177" lon="9.3422817"><ele>251.0</ele><time>2026-03-25T07:55:52.103Z</time></trkpt><trkpt lat="46.1160915" lon="9.342391"><ele>251.0</ele><time>2026-03-25T07:55:53.103Z</time></trkpt><trkpt lat="46.1160886" lon="9.3425014"><ele>251.00000000000003</ele><time>2026-03-25T07:55:54.102Z</time></trkpt><trkpt lat="46.1160916" lon="9.3426159"><ele>251.0</ele><time>2026-03-25T07:55:55.103Z</time></trkpt><trkpt lat="46.1160923" lon="9.3427125"><ele>249.20000000000002</ele><time>2026-03-25T07:55:56.103Z</time></trkpt><trkpt lat="46.1160907" lon="9.3428059"><ele>247.40000000000003</ele><time>2026-03-25T07:55:57.102Z</time></trkpt><trkpt lat="46.1161008" lon="9.3429076"><ele>245.6</ele><time>2026-03-25T07:55:58.104Z</time></trkpt><trkpt lat="46.1161055" lon="9.3430919"><ele>243.8</ele><time>2026-03-25T07:56:00.103Z</time></trkpt><trkpt lat="46.1161235" lon="9.3432811"><ele>242.0</ele><time>2026-03-25T07:56:02.103Z</time></trkpt><trkpt lat="46.1161349" lon="9.3433737"><ele>240.2</ele><time>2026-03-25T07:56:03.102Z</time></trkpt><trkpt lat="46.1161492" lon="9.3434711"><ele>238.39999999999998</ele><time>2026-03-25T07:56:04.102Z</time></trkpt><trkpt lat="46.1161562" lon="9.343644"><ele>236.60000000000002</ele><time>2026-03-25T07:56:06.101Z</time></trkpt><trkpt lat="46.1161714" lon="9.3438265"><ele>234.8</ele><time>2026-03-25T07:56:08.103Z</time></trkpt><trkpt lat="46.1161846" lon="9.343922"><ele>233.0</ele><time>2026-03-25T07:56:09.103Z</time></trkpt><trkpt lat="46.1161993" lon="9.3440177"><ele>232.66666666666669</ele><time>2026-03-25T07:56:10.103Z</time></trkpt><trkpt lat="46.1162128" lon="9.344119"><ele>232.33333333333334</ele><time>2026-03-25T07:56:11.102Z</time></trkpt><trkpt lat="46.1162216" lon="9.3442159"><ele>232.0</ele><time>2026-03-25T07:56:12.102Z</time></trkpt><trkpt lat="46.1162291" lon="9.3443071"><ele>231.66666666666669</ele><time>2026-03-25T07:56:13.102Z</time></trkpt><trkpt lat="46.1162413" lon="9.3444031"><ele>231.33333333333334</ele><time>2026-03-25T07:56:14.103Z</time></trkpt><trkpt lat="46.1162525" lon="9.3445031"><ele>231.0</ele><time>2026-03-25T07:56:15.102Z</time></trkpt><trkpt lat="46.1162644" lon="9.3446842"><ele>232.8</ele><time>2026-03-25T07:56:17.103Z</time></trkpt><trkpt lat="46.1162893" lon="9.3448601"><ele>234.60000000000002</ele><time>2026-03-25T07:56:19.102Z</time></trkpt><trkpt lat="46.1163022" lon="9.3449536"><ele>236.4</ele><time>2026-03-25T07:56:20.102Z</time></trkpt><trkpt lat="46.1163109" lon="9.3450468"><ele>238.2</ele><time>2026-03-25T07:56:21.103Z</time></trkpt><trkpt lat="46.1163373" lon="9.3452326"><ele>240.0</ele><time>2026-03-25T07:56:23.103Z</time></trkpt><trkpt lat="46.1163623" lon="9.3453253"><ele>240.0</ele><time>2026-03-25T07:56:24.104Z</time></trkpt><trkpt lat="46.1163879" lon="9.3454108"><ele>240.0</ele><time>2026-03-25T07:56:25.103Z</time></trkpt><trkpt lat="46.116415" lon="9.3454944"><ele>240.0</ele><time>2026-03-25T07:56:26.102Z</time></trkpt><trkpt lat="46.1164427" lon="9.3455761"><ele>240.0</ele><time>2026-03-25T07:56:27.103Z</time></trkpt><trkpt lat="46.1164754" lon="9.3456592"><ele>240.0</ele><time>2026-03-25T07:56:28.102Z</time></trkpt><trkpt lat="46.1165111" lon="9.3457351"><ele>240.0</ele><time>2026-03-25T07:56:29.103Z</time></trkpt><trkpt lat="46.1165859" lon="9.3458682"><ele>240.0</ele><time>2026-03-25T07:56:31.103Z</time></trkpt><trkpt lat="46.1166654" lon="9.3459899"><ele>236.8</ele><time>2026-03-25T07:56:33.102Z</time></trkpt><trkpt lat="46.11675" lon="9.3461057"><ele>233.6</ele><time>2026-03-25T07:56:35.103Z</time></trkpt><trkpt lat="46.1168353" lon="9.3462231"><ele>230.39999999999998</ele><time>2026-03-25T07:56:37.101Z</time></trkpt><trkpt lat="46.1168889" lon="9.3462825"><ele>227.2</ele><time>2026-03-25T07:56:38.102Z</time></trkpt><trkpt lat="46.1169422" lon="9.3463384"><ele>224.0</ele><time>2026-03-25T07:56:39.103Z</time></trkpt><trkpt lat="46.1170294" lon="9.3464277"><ele>224.0</ele><time>2026-03-25T07:56:41.103Z</time></trkpt><trkpt lat="46.1171031" lon="9.3464946"><ele>223.99999999999997</ele><time>2026-03-25T07:56:43.101Z</time></trkpt><trkpt lat="46.1171811" lon="9.3465455"><ele>223.99999999999997</ele><time>2026-03-25T07:56:45.103Z</time></trkpt><trkpt lat="46.1172687" lon="9.3466026"><ele>224.0</ele><time>2026-03-25T07:56:47.103Z</time></trkpt><trkpt lat="46.1173726" lon="9.3466495"><ele>224.0</ele><time>2026-03-25T07:56:49.103Z</time></trkpt><trkpt lat="46.1174873" lon="9.3466926"><ele>219.79999999999998</ele><time>2026-03-25T07:56:51.103Z</time></trkpt><trkpt lat="46.1176068" lon="9.3467167"><ele>215.59999999999997</ele><time>2026-03-25T07:56:53.103Z</time></trkpt><trkpt lat="46.1177189" lon="9.3467376"><ele>211.4</ele><time>2026-03-25T07:56:55.103Z</time></trkpt><trkpt lat="46.1178224" lon="9.3467856"><ele>207.2</ele><time>2026-03-25T07:56:57.103Z</time></trkpt><trkpt lat="46.1179136" lon="9.3468264"><ele>203.0</ele><time>2026-03-25T07:56:59.103Z</time></trkpt><trkpt lat="46.118021" lon="9.3468601"><ele>203.0</ele><time>2026-03-25T07:57:01.103Z</time></trkpt><trkpt lat="46.1181222" lon="9.34689"><ele>203.0</ele><time>2026-03-25T07:57:03.104Z</time></trkpt><trkpt lat="46.1182242" lon="9.3469246"><ele>203.0</ele><time>2026-03-25T07:57:05.104Z</time></trkpt><trkpt lat="46.1183285" lon="9.3469606"><ele>203.0</ele><time>2026-03-25T07:57:07.102Z</time></trkpt><trkpt lat="46.1184306" lon="9.3469876"><ele>203.0</ele><time>2026-03-25T07:57:09.101Z</time></trkpt><trkpt lat="46.1185213" lon="9.3470241"><ele>202.60000000000002</ele><time>2026-03-25T07:57:11.102Z</time></trkpt><trkpt lat="46.1186162" lon="9.3470636"><ele>202.20000000000002</ele><time>2026-03-25T07:57:13.103Z</time></trkpt><trkpt lat="46.118714" lon="9.3471065"><ele>201.8</ele><time>2026-03-25T07:57:15.102Z</time></trkpt><trkpt lat="46.1188184" lon="9.34714"><ele>201.4</ele><time>2026-03-25T07:57:17.104Z</time></trkpt><trkpt lat="46.1189168" lon="9.3471658"><ele>201.0</ele><time>2026-03-25T07:57:19.103Z</time></trkpt><trkpt lat="46.1190167" lon="9.3471875"><ele>202.4</ele><time>2026-03-25T07:57:21.103Z</time></trkpt><trkpt lat="46.1191197" lon="9.3472143"><ele>203.8</ele><time>2026-03-25T07:57:23.103Z</time></trkpt><trkpt lat="46.1192248" lon="9.3472546"><ele>205.20000000000002</ele><time>2026-03-25T07:57:25.103Z</time></trkpt><trkpt lat="46.1193235" lon="9.3472925"><ele>206.60000000000002</ele><time>2026-03-25T07:57:27.104Z</time></trkpt><trkpt lat="46.1194233" lon="9.3473406"><ele>208.0</ele><time>2026-03-25T07:57:29.103Z</time></trkpt><trkpt lat="46.119519" lon="9.3473902"><ele>208.0</ele><time>2026-03-25T07:57:31.104Z</time></trkpt><trkpt lat="46.1196322" lon="9.3474373"><ele>208.0</ele><time>2026-03-25T07:57:33.102Z</time></trkpt><trkpt lat="46.1197458" lon="9.3474836"><ele>208.0</ele><time>2026-03-25T07:57:35.104Z</time></trkpt><trkpt lat="46.1198558" lon="9.3475343"><ele>208.0</ele><time>2026-03-25T07:57:37.103Z</time></trkpt><trkpt lat="46.11996" lon="9.3475836"><ele>207.57142857142856</ele><time>2026-03-25T07:57:39.103Z</time></trkpt><trkpt lat="46.1200671" lon="9.3476387"><ele>207.14285714285717</ele><time>2026-03-25T07:57:41.103Z</time></trkpt><trkpt lat="46.1201307" lon="9.3476601"><ele>206.71428571428572</ele><time>2026-03-25T07:57:42.104Z</time></trkpt><trkpt lat="46.1201937" lon="9.3476902"><ele>206.28571428571428</ele><time>2026-03-25T07:57:43.103Z</time></trkpt><trkpt lat="46.1202543" lon="9.3477189"><ele>205.85714285714283</ele><time>2026-03-25T07:57:44.104Z</time></trkpt><trkpt lat="46.1203177" lon="9.3477429"><ele>205.42857142857144</ele><time>2026-03-25T07:57:45.104Z</time></trkpt><trkpt lat="46.1203812" lon="9.347777"><ele>205.0</ele><time>2026-03-25T07:57:46.104Z</time></trkpt><trkpt lat="46.120444" lon="9.3478174"><ele>204.99999999999997</ele><time>2026-03-25T07:57:47.102Z</time></trkpt><trkpt lat="46.1205069" lon="9.34785"><ele>205.0</ele><time>2026-03-25T07:57:48.102Z</time></trkpt><trkpt lat="46.1205702" lon="9.3478747"><ele>205.0</ele><time>2026-03-25T07:57:49.104Z</time></trkpt><trkpt lat="46.120634" lon="9.347908"><ele>205.0</ele><time>2026-03-25T07:57:50.102Z</time></trkpt><trkpt lat="46.1206942" lon="9.3479445"><ele>204.99999999999997</ele><time>2026-03-25T07:57:51.103Z</time></trkpt><trkpt lat="46.1208094" lon="9.348006"><ele>205.0</ele><time>2026-03-25T07:57:53.103Z</time></trkpt><trkpt lat="46.1209297" lon="9.3480703"><ele>205.33333333333331</ele><time>2026-03-25T07:57:55.104Z</time></trkpt><trkpt lat="46.1209881" lon="9.3481113"><ele>205.66666666666666</ele><time>2026-03-25T07:57:56.101Z</time></trkpt><trkpt lat="46.1211043" lon="9.3481753"><ele>206.0</ele><time>2026-03-25T07:57:58.103Z</time></trkpt><trkpt lat="46.1211693" lon="9.3482096"><ele>206.33333333333331</ele><time>2026-03-25T07:57:59.102Z</time></trkpt><trkpt lat="46.121236" lon="9.3482434"><ele>206.66666666666666</ele><time>2026-03-25T07:58:00.103Z</time></trkpt><trkpt lat="46.1213026" lon="9.3482791"><ele>207.0</ele><time>2026-03-25T07:58:01.102Z</time></trkpt><trkpt lat="46.1213623" lon="9.3483111"><ele>207.0</ele><time>2026-03-25T07:58:02.104Z</time></trkpt><trkpt lat="46.1214228" lon="9.3483412"><ele>207.0</ele><time>2026-03-25T07:58:03.103Z</time></trkpt><trkpt lat="46.1215363" lon="9.348392"><ele>207.0</ele><time>2026-03-25T07:58:05.103Z</time></trkpt><trkpt lat="46.1216405" lon="9.348444"><ele>207.0</ele><time>2026-03-25T07:58:07.103Z</time></trkpt><trkpt lat="46.121754" lon="9.3485009"><ele>207.0</ele><time>2026-03-25T07:58:09.102Z</time></trkpt><trkpt lat="46.1218614" lon="9.3485525"><ele>206.8</ele><time>2026-03-25T07:58:11.102Z</time></trkpt><trkpt lat="46.121967" lon="9.3486017"><ele>206.6</ele><time>2026-03-25T07:58:13.103Z</time></trkpt><trkpt lat="46.1220751" lon="9.3486555"><ele>206.4</ele><time>2026-03-25T07:58:15.102Z</time></trkpt><trkpt lat="46.1221838" lon="9.3487139"><ele>206.20000000000002</ele><time>2026-03-25T07:58:17.103Z</time></trkpt><trkpt lat="46.1222846" lon="9.3487603"><ele>206.0</ele><time>2026-03-25T07:58:19.103Z</time></trkpt><trkpt lat="46.1223766" lon="9.3488022"><ele>206.20000000000002</ele><time>2026-03-25T07:58:21.102Z</time></trkpt><trkpt lat="46.1224644" lon="9.3488607"><ele>206.4</ele><time>2026-03-25T07:58:23.104Z</time></trkpt><trkpt lat="46.1225603" lon="9.3489057"><ele>206.6</ele><time>2026-03-25T07:58:25.103Z</time></trkpt><trkpt lat="46.1226493" lon="9.3489487"><ele>206.8</ele><time>2026-03-25T07:58:27.102Z</time></trkpt><trkpt lat="46.1227443" lon="9.3489961"><ele>207.0</ele><time>2026-03-25T07:58:29.104Z</time></trkpt><trkpt lat="46.1228494" lon="9.3490329"><ele>207.0</ele><time>2026-03-25T07:58:31.103Z</time></trkpt><trkpt lat="46.1229413" lon="9.3490756"><ele>207.0</ele><time>2026-03-25T07:58:33.103Z</time></trkpt><trkpt lat="46.123025" lon="9.3491269"><ele>207.0</ele><time>2026-03-25T07:58:35.104Z</time></trkpt><trkpt lat="46.1231105" lon="9.3491784"><ele>207.0</ele><time>2026-03-25T07:58:37.103Z</time></trkpt><trkpt lat="46.1231872" lon="9.3492183"><ele>207.0</ele><time>2026-03-25T07:58:39.102Z</time></trkpt><trkpt lat="46.1232611" lon="9.3492526"><ele>207.0</ele><time>2026-03-25T07:58:41.104Z</time></trkpt><trkpt lat="46.1233259" lon="9.3493072"><ele>207.6</ele><time>2026-03-25T07:58:44.104Z</time></trkpt><trkpt lat="46.1234169" lon="9.349342"><ele>208.2</ele><time>2026-03-25T07:58:46.172Z</time></trkpt><trkpt lat="46.1235064" lon="9.3493924"><ele>208.8</ele><time>2026-03-25T07:58:48.194Z</time></trkpt><trkpt lat="46.1236195" lon="9.3494205"><ele>209.4</ele><time>2026-03-25T07:58:50.513Z</time></trkpt><trkpt lat="46.1236337" lon="9.3492236"><ele>210.0</ele><time>2026-03-25T07:58:52.104Z</time></trkpt><trkpt lat="46.1236444" lon="9.3490551"><ele>210.0</ele><time>2026-03-25T07:58:54.103Z</time></trkpt><trkpt lat="46.1236553" lon="9.3488825"><ele>210.0</ele><time>2026-03-25T07:58:56.104Z</time></trkpt><trkpt lat="46.1236678" lon="9.3487132"><ele>210.0</ele><time>2026-03-25T07:58:58.105Z</time></trkpt><trkpt lat="46.1236815" lon="9.3485556"><ele>210.0</ele><time>2026-03-25T07:59:00.103Z</time></trkpt><trkpt lat="46.1236907" lon="9.3484114"><ele>210.0</ele><time>2026-03-25T07:59:02.103Z</time></trkpt><trkpt lat="46.1237023" lon="9.3482854"><ele>209.5</ele><time>2026-03-25T07:59:04.104Z</time></trkpt><trkpt lat="46.123706" lon="9.3481881"><ele>209.0</ele><time>2026-03-25T07:59:06.104Z</time></trkpt><trkpt lat="46.123733" lon="9.348078"><ele>208.5</ele><time>2026-03-25T07:59:09.102Z</time></trkpt><trkpt lat="46.123777" lon="9.3480008"><ele>208.0</ele><time>2026-03-25T07:59:12.103Z</time></trkpt><trkpt lat="46.1238656" lon="9.3480545"><ele>207.5</ele><time>2026-03-25T07:59:15.103Z</time></trkpt><trkpt lat="46.123934" lon="9.3481224"><ele>207.0</ele><time>2026-03-25T07:59:17.103Z</time></trkpt><trkpt lat="46.1240177" lon="9.3481921"><ele>206.39999999999998</ele><time>2026-03-25T07:59:19.103Z</time></trkpt><trkpt lat="46.1241032" lon="9.348272"><ele>205.79999999999998</ele><time>2026-03-25T07:59:21.104Z</time></trkpt><trkpt lat="46.1241855" lon="9.3483574"><ele>205.2</ele><time>2026-03-25T07:59:23.103Z</time></trkpt><trkpt lat="46.1242691" lon="9.3484449"><ele>204.6</ele><time>2026-03-25T07:59:25.104Z</time></trkpt><trkpt lat="46.1243462" lon="9.3485379"><ele>204.0</ele><time>2026-03-25T07:59:27.104Z</time></trkpt><trkpt lat="46.1244183" lon="9.3486325"><ele>204.0</ele><time>2026-03-25T07:59:29.102Z</time></trkpt><trkpt lat="46.1244908" lon="9.3487277"><ele>204.0</ele><time>2026-03-25T07:59:31.102Z</time></trkpt><trkpt lat="46.1245571" lon="9.3488211"><ele>204.0</ele><time>2026-03-25T07:59:33.103Z</time></trkpt><trkpt lat="46.1246225" lon="9.3489114"><ele>204.0</ele><time>2026-03-25T07:59:35.103Z</time></trkpt><trkpt lat="46.1246867" lon="9.3490134"><ele>204.0</ele><time>2026-03-25T07:59:37.104Z</time></trkpt><trkpt lat="46.1247477" lon="9.3491279"><ele>204.2</ele><time>2026-03-25T07:59:39.104Z</time></trkpt><trkpt lat="46.124804" lon="9.3492241"><ele>204.39999999999998</ele><time>2026-03-25T07:59:41.107Z</time></trkpt><trkpt lat="46.1248861" lon="9.3493043"><ele>204.6</ele><time>2026-03-25T07:59:43.104Z</time></trkpt><trkpt lat="46.1249705" lon="9.3493794"><ele>204.8</ele><time>2026-03-25T07:59:45.105Z</time></trkpt><trkpt lat="46.1250443" lon="9.349464"><ele>205.0</ele><time>2026-03-25T07:59:47.104Z</time></trkpt><trkpt lat="46.1251066" lon="9.3495579"><ele>204.66666666666666</ele><time>2026-03-25T07:59:49.102Z</time></trkpt><trkpt lat="46.1251562" lon="9.3496507"><ele>204.33333333333331</ele><time>2026-03-25T07:59:51.102Z</time></trkpt><trkpt lat="46.1251995" lon="9.349754"><ele>204.0</ele><time>2026-03-25T07:59:53.104Z</time></trkpt><trkpt lat="46.1252503" lon="9.3498725"><ele>203.66666666666669</ele><time>2026-03-25T07:59:55.106Z</time></trkpt><trkpt lat="46.1252847" lon="9.3499505"><ele>203.33333333333334</ele><time>2026-03-25T07:59:57.086Z</time></trkpt><trkpt lat="46.1253311" lon="9.3500662"><ele>203.0</ele><time>2026-03-25T07:59:59.103Z</time></trkpt><trkpt lat="46.1253779" lon="9.3501607"><ele>203.66666666666669</ele><time>2026-03-25T08:00:01.104Z</time></trkpt><trkpt lat="46.1254393" lon="9.3502158"><ele>204.33333333333334</ele><time>2026-03-25T08:00:05.106Z</time></trkpt><trkpt lat="46.1254985" lon="9.3502958"><ele>205.0</ele><time>2026-03-25T08:00:38.165Z</time></trkpt><trkpt lat="46.1255589" lon="9.3503649"><ele>205.66666666666669</ele><time>2026-03-25T08:00:41.186Z</time></trkpt><trkpt lat="46.1256219" lon="9.3504431"><ele>206.33333333333334</ele><time>2026-03-25T08:00:44.104Z</time></trkpt><trkpt lat="46.125669" lon="9.3505152"><ele>207.0</ele><time>2026-03-25T08:00:46.106Z</time></trkpt><trkpt lat="46.125721" lon="9.3505868"><ele>207.33333333333334</ele><time>2026-03-25T08:00:48.144Z</time></trkpt><trkpt lat="46.1257786" lon="9.3506604"><ele>207.66666666666669</ele><time>2026-03-25T08:00:50.106Z</time></trkpt><trkpt lat="46.125845" lon="9.3507409"><ele>208.0</ele><time>2026-03-25T08:00:52.205Z</time></trkpt><trkpt lat="46.1259101" lon="9.3508148"><ele>208.33333333333334</ele><time>2026-03-25T08:00:54.183Z</time></trkpt><trkpt lat="46.1259757" lon="9.3508948"><ele>208.66666666666669</ele><time>2026-03-25T08:00:56.108Z</time></trkpt><trkpt lat="46.1260501" lon="9.3509709"><ele>209.0</ele><time>2026-03-25T08:00:58.103Z</time></trkpt><trkpt lat="46.126117" lon="9.3510526"><ele>209.0</ele><time>2026-03-25T08:01:00.104Z</time></trkpt><trkpt lat="46.1261809" lon="9.3511434"><ele>209.0</ele><time>2026-03-25T08:01:02.104Z</time></trkpt><trkpt lat="46.1262499" lon="9.3512406"><ele>209.0</ele><time>2026-03-25T08:01:04.104Z</time></trkpt><trkpt lat="46.1263187" lon="9.3513401"><ele>209.0</ele><time>2026-03-25T08:01:06.106Z</time></trkpt><trkpt lat="46.1263897" lon="9.351443"><ele>209.0</ele><time>2026-03-25T08:01:08.104Z</time></trkpt><trkpt lat="46.1264638" lon="9.3515428"><ele>209.0</ele><time>2026-03-25T08:01:10.105Z</time></trkpt><trkpt lat="46.1265622" lon="9.3516128"><ele>209.0</ele><time>2026-03-25T08:01:12.103Z</time></trkpt><trkpt lat="46.1266775" lon="9.3516099"><ele>209.0</ele><time>2026-03-25T08:01:14.104Z</time></trkpt><trkpt lat="46.1267949" lon="9.3516211"><ele>209.0</ele><time>2026-03-25T08:01:16.103Z</time></trkpt><trkpt lat="46.1269191" lon="9.3516263"><ele>209.00000000000003</ele><time>2026-03-25T08:01:18.108Z</time></trkpt><trkpt lat="46.1270389" lon="9.3516162"><ele>209.0</ele><time>2026-03-25T08:01:20.108Z</time></trkpt><trkpt lat="46.1271025" lon="9.3516214"><ele>209.0</ele><time>2026-03-25T08:01:21.107Z</time></trkpt><trkpt lat="46.1271664" lon="9.3516288"><ele>209.0</ele><time>2026-03-25T08:01:22.105Z</time></trkpt><trkpt lat="46.1272301" lon="9.3516414"><ele>209.00000000000003</ele><time>2026-03-25T08:01:23.109Z</time></trkpt><trkpt lat="46.1272911" lon="9.3516715"><ele>209.0</ele><time>2026-03-25T08:01:24.104Z</time></trkpt><trkpt lat="46.1273942" lon="9.351754"><ele>209.0</ele><time>2026-03-25T08:01:26.107Z</time></trkpt><trkpt lat="46.1274939" lon="9.3518221"><ele>209.0</ele><time>2026-03-25T08:01:28.11Z</time></trkpt><trkpt lat="46.127597" lon="9.3518746"><ele>209.0</ele><time>2026-03-25T08:01:30.107Z</time></trkpt><trkpt lat="46.1277022" lon="9.3519094"><ele>209.0</ele><time>2026-03-25T08:01:32.11Z</time></trkpt><trkpt lat="46.1278044" lon="9.3519292"><ele>209.0</ele><time>2026-03-25T08:01:34.103Z</time></trkpt><trkpt lat="46.1279109" lon="9.3519483"><ele>209.0</ele><time>2026-03-25T08:01:36.11Z</time></trkpt><trkpt lat="46.1280159" lon="9.351982"><ele>209.0</ele><time>2026-03-25T08:01:38.108Z</time></trkpt><trkpt lat="46.1281078" lon="9.3520379"><ele>209.0</ele><time>2026-03-25T08:01:40.105Z</time></trkpt><trkpt lat="46.1281952" lon="9.3521275"><ele>209.0</ele><time>2026-03-25T08:01:42.105Z</time></trkpt><trkpt lat="46.128284" lon="9.3522335"><ele>209.0</ele><time>2026-03-25T08:01:44.103Z</time></trkpt><trkpt lat="46.1283585" lon="9.352339"><ele>209.0</ele><time>2026-03-25T08:01:46.105Z</time></trkpt><trkpt lat="46.1284338" lon="9.3524425"><ele>209.0</ele><time>2026-03-25T08:01:48.103Z</time></trkpt><trkpt lat="46.1285142" lon="9.3525349"><ele>209.0</ele><time>2026-03-25T08:01:50.107Z</time></trkpt><trkpt lat="46.1285944" lon="9.352629"><ele>209.0</ele><time>2026-03-25T08:01:52.11Z</time></trkpt><trkpt lat="46.1286788" lon="9.352724"><ele>209.0</ele><time>2026-03-25T08:01:54.106Z</time></trkpt><trkpt lat="46.1287551" lon="9.3528155"><ele>209.0</ele><time>2026-03-25T08:01:56.105Z</time></trkpt><trkpt lat="46.1288284" lon="9.3528984"><ele>209.0</ele><time>2026-03-25T08:01:58.105Z</time></trkpt><trkpt lat="46.1288913" lon="9.3529887"><ele>209.0</ele><time>2026-03-25T08:02:00.11Z</time></trkpt><trkpt lat="46.1289508" lon="9.353076"><ele>209.0</ele><time>2026-03-25T08:02:02.106Z</time></trkpt><trkpt lat="46.1290193" lon="9.3531714"><ele>209.0</ele><time>2026-03-25T08:02:04.109Z</time></trkpt><trkpt lat="46.1290823" lon="9.3532713"><ele>209.39999999999998</ele><time>2026-03-25T08:02:06.111Z</time></trkpt><trkpt lat="46.129151" lon="9.3533695"><ele>209.8</ele><time>2026-03-25T08:02:08.111Z</time></trkpt><trkpt lat="46.1292215" lon="9.3534733"><ele>210.2</ele><time>2026-03-25T08:02:10.109Z</time></trkpt><trkpt lat="46.1292926" lon="9.3535755"><ele>210.60000000000002</ele><time>2026-03-25T08:02:12.104Z</time></trkpt><trkpt lat="46.1293678" lon="9.3536711"><ele>211.0</ele><time>2026-03-25T08:02:14.104Z</time></trkpt><trkpt lat="46.1294412" lon="9.3537708"><ele>211.0</ele><time>2026-03-25T08:02:16.108Z</time></trkpt><trkpt lat="46.1295169" lon="9.3538763"><ele>211.0</ele><time>2026-03-25T08:02:18.106Z</time></trkpt><trkpt lat="46.1295865" lon="9.3539819"><ele>211.0</ele><time>2026-03-25T08:02:20.105Z</time></trkpt><trkpt lat="46.1296485" lon="9.3540907"><ele>211.0</ele><time>2026-03-25T08:02:22.108Z</time></trkpt><trkpt lat="46.1296999" lon="9.3542008"><ele>211.0</ele><time>2026-03-25T08:02:24.11Z</time></trkpt><trkpt lat="46.1297382" lon="9.3543231"><ele>211.0</ele><time>2026-03-25T08:02:26.104Z</time></trkpt><trkpt lat="46.1297651" lon="9.3544379"><ele>211.0</ele><time>2026-03-25T08:02:28.105Z</time></trkpt><trkpt lat="46.1297892" lon="9.3545682"><ele>211.0</ele><time>2026-03-25T08:02:30.104Z</time></trkpt><trkpt lat="46.1298168" lon="9.3547032"><ele>211.0</ele><time>2026-03-25T08:02:32.107Z</time></trkpt><trkpt lat="46.1298512" lon="9.3548426"><ele>211.0</ele><time>2026-03-25T08:02:34.108Z</time></trkpt><trkpt lat="46.1298972" lon="9.3549837"><ele>210.8</ele><time>2026-03-25T08:02:36.108Z</time></trkpt><trkpt lat="46.1299494" lon="9.3551128"><ele>210.60000000000002</ele><time>2026-03-25T08:02:38.11Z</time></trkpt><trkpt lat="46.130003" lon="9.3552472"><ele>210.4</ele><time>2026-03-25T08:02:40.108Z</time></trkpt><trkpt lat="46.1300508" lon="9.3553778"><ele>210.2</ele><time>2026-03-25T08:02:42.112Z</time></trkpt><trkpt lat="46.1300968" lon="9.3555104"><ele>210.0</ele><time>2026-03-25T08:02:44.106Z</time></trkpt><trkpt lat="46.1301429" lon="9.3556506"><ele>210.0</ele><time>2026-03-25T08:02:46.106Z</time></trkpt><trkpt lat="46.1301827" lon="9.3557857"><ele>210.0</ele><time>2026-03-25T08:02:48.105Z</time></trkpt><trkpt lat="46.1302112" lon="9.3559273"><ele>210.0</ele><time>2026-03-25T08:02:50.105Z</time></trkpt><trkpt lat="46.1302426" lon="9.3560701"><ele>210.0</ele><time>2026-03-25T08:02:52.105Z</time></trkpt><trkpt lat="46.1302788" lon="9.3562167"><ele>210.0</ele><time>2026-03-25T08:02:54.111Z</time></trkpt><trkpt lat="46.130309" lon="9.3563712"><ele>210.6</ele><time>2026-03-25T08:02:56.111Z</time></trkpt><trkpt lat="46.1303311" lon="9.3565254"><ele>211.2</ele><time>2026-03-25T08:02:58.109Z</time></trkpt><trkpt lat="46.130351" lon="9.3566753"><ele>211.8</ele><time>2026-03-25T08:03:00.103Z</time></trkpt><trkpt lat="46.1303826" lon="9.3568175"><ele>212.4</ele><time>2026-03-25T08:03:02.112Z</time></trkpt><trkpt lat="46.1304236" lon="9.3569551"><ele>213.0</ele><time>2026-03-25T08:03:04.112Z</time></trkpt><trkpt lat="46.1304723" lon="9.3570961"><ele>213.4</ele><time>2026-03-25T08:03:06.112Z</time></trkpt><trkpt lat="46.130516" lon="9.35724"><ele>213.8</ele><time>2026-03-25T08:03:08.11Z</time></trkpt><trkpt lat="46.130564" lon="9.357381"><ele>214.2</ele><time>2026-03-25T08:03:10.111Z</time></trkpt><trkpt lat="46.1306079" lon="9.3575258"><ele>214.6</ele><time>2026-03-25T08:03:12.104Z</time></trkpt><trkpt lat="46.1306558" lon="9.3576618"><ele>215.0</ele><time>2026-03-25T08:03:14.11Z</time></trkpt><trkpt lat="46.1306986" lon="9.3578026"><ele>214.0</ele><time>2026-03-25T08:03:16.108Z</time></trkpt><trkpt lat="46.1307482" lon="9.357953"><ele>213.0</ele><time>2026-03-25T08:03:18.107Z</time></trkpt><trkpt lat="46.1308224" lon="9.3580786"><ele>212.0</ele><time>2026-03-25T08:03:20.108Z</time></trkpt><trkpt lat="46.1308967" lon="9.3582129"><ele>211.0</ele><time>2026-03-25T08:03:22.111Z</time></trkpt><trkpt lat="46.1309597" lon="9.3583577"><ele>211.0</ele><time>2026-03-25T08:03:24.104Z</time></trkpt><trkpt lat="46.1310223" lon="9.358516"><ele>211.0</ele><time>2026-03-25T08:03:26.113Z</time></trkpt><trkpt lat="46.1310497" lon="9.3586012"><ele>211.0</ele><time>2026-03-25T08:03:27.111Z</time></trkpt><trkpt lat="46.1310777" lon="9.3587809"><ele>211.0</ele><time>2026-03-25T08:03:29.11Z</time></trkpt><trkpt lat="46.131106" lon="9.3589478"><ele>211.0</ele><time>2026-03-25T08:03:31.111Z</time></trkpt><trkpt lat="46.1311523" lon="9.3590847"><ele>211.25</ele><time>2026-03-25T08:03:33.112Z</time></trkpt><trkpt lat="46.131211" lon="9.3592352"><ele>211.5</ele><time>2026-03-25T08:03:35.103Z</time></trkpt><trkpt lat="46.1312527" lon="9.3593921"><ele>211.75</ele><time>2026-03-25T08:03:37.107Z</time></trkpt><trkpt lat="46.1312777" lon="9.3595539"><ele>212.0</ele><time>2026-03-25T08:03:39.114Z</time></trkpt><trkpt lat="46.1313194" lon="9.3597164"><ele>211.8</ele><time>2026-03-25T08:03:41.11Z</time></trkpt><trkpt lat="46.1313857" lon="9.3598729"><ele>211.6</ele><time>2026-03-25T08:03:43.105Z</time></trkpt><trkpt lat="46.1314568" lon="9.360024"><ele>211.4</ele><time>2026-03-25T08:03:45.105Z</time></trkpt><trkpt lat="46.1314945" lon="9.3601003"><ele>211.20000000000002</ele><time>2026-03-25T08:03:46.108Z</time></trkpt><trkpt lat="46.1315323" lon="9.3601785"><ele>211.0</ele><time>2026-03-25T08:03:47.106Z</time></trkpt><trkpt lat="46.1315715" lon="9.360257"><ele>211.0</ele><time>2026-03-25T08:03:48.11Z</time></trkpt><trkpt lat="46.1316106" lon="9.3603303"><ele>211.0</ele><time>2026-03-25T08:03:49.108Z</time></trkpt><trkpt lat="46.1316544" lon="9.3604103"><ele>211.0</ele><time>2026-03-25T08:03:50.109Z</time></trkpt><trkpt lat="46.1316957" lon="9.3604895"><ele>211.0</ele><time>2026-03-25T08:03:51.106Z</time></trkpt><trkpt lat="46.1317398" lon="9.3605737"><ele>211.0</ele><time>2026-03-25T08:03:52.105Z</time></trkpt><trkpt lat="46.1317843" lon="9.3606571"><ele>211.0</ele><time>2026-03-25T08:03:53.104Z</time></trkpt><trkpt lat="46.1318242" lon="9.3607422"><ele>211.0</ele><time>2026-03-25T08:03:54.113Z</time></trkpt><trkpt lat="46.131867" lon="9.3608225"><ele>211.42857142857144</ele><time>2026-03-25T08:03:55.111Z</time></trkpt><trkpt lat="46.1319073" lon="9.3609088"><ele>211.85714285714286</ele><time>2026-03-25T08:03:56.111Z</time></trkpt><trkpt lat="46.13195" lon="9.3609932"><ele>212.28571428571428</ele><time>2026-03-25T08:03:57.112Z</time></trkpt><trkpt lat="46.1319869" lon="9.3610851"><ele>212.71428571428572</ele><time>2026-03-25T08:03:58.103Z</time></trkpt><trkpt lat="46.1320257" lon="9.3611676"><ele>213.14285714285714</ele><time>2026-03-25T08:03:59.11Z</time></trkpt><trkpt lat="46.1320676" lon="9.3612498"><ele>213.57142857142858</ele><time>2026-03-25T08:04:00.105Z</time></trkpt><trkpt lat="46.1321105" lon="9.3613339"><ele>214.0</ele><time>2026-03-25T08:04:01.106Z</time></trkpt><trkpt lat="46.1321564" lon="9.3614109"><ele>214.14285714285717</ele><time>2026-03-25T08:04:02.108Z</time></trkpt><trkpt lat="46.1322016" lon="9.3614854"><ele>214.28571428571428</ele><time>2026-03-25T08:04:03.103Z</time></trkpt><trkpt lat="46.1322469" lon="9.3615664"><ele>214.42857142857144</ele><time>2026-03-25T08:04:04.106Z</time></trkpt><trkpt lat="46.1322901" lon="9.3616464"><ele>214.57142857142858</ele><time>2026-03-25T08:04:05.11Z</time></trkpt><trkpt lat="46.1323309" lon="9.3617287"><ele>214.71428571428572</ele><time>2026-03-25T08:04:06.106Z</time></trkpt><trkpt lat="46.1323718" lon="9.3618083"><ele>214.85714285714286</ele><time>2026-03-25T08:04:07.107Z</time></trkpt><trkpt lat="46.132412" lon="9.3618877"><ele>215.0</ele><time>2026-03-25T08:04:08.108Z</time></trkpt><trkpt lat="46.1324462" lon="9.3619742"><ele>214.16666666666669</ele><time>2026-03-25T08:04:09.107Z</time></trkpt><trkpt lat="46.1324785" lon="9.3620628"><ele>213.33333333333334</ele><time>2026-03-25T08:04:10.108Z</time></trkpt><trkpt lat="46.1325096" lon="9.3621467"><ele>212.5</ele><time>2026-03-25T08:04:11.108Z</time></trkpt><trkpt lat="46.1325921" lon="9.3622997"><ele>211.66666666666669</ele><time>2026-03-25T08:04:13.103Z</time></trkpt><trkpt lat="46.1326316" lon="9.3623816"><ele>210.83333333333334</ele><time>2026-03-25T08:04:14.111Z</time></trkpt><trkpt lat="46.1326696" lon="9.3624582"><ele>210.0</ele><time>2026-03-25T08:04:15.108Z</time></trkpt><trkpt lat="46.1327366" lon="9.3626186"><ele>210.0</ele><time>2026-03-25T08:04:17.106Z</time></trkpt><trkpt lat="46.1327748" lon="9.3626965"><ele>210.0</ele><time>2026-03-25T08:04:18.113Z</time></trkpt><trkpt lat="46.1328121" lon="9.3627752"><ele>210.0</ele><time>2026-03-25T08:04:19.111Z</time></trkpt><trkpt lat="46.1328893" lon="9.3629202"><ele>210.0</ele><time>2026-03-25T08:04:21.107Z</time></trkpt><trkpt lat="46.1329321" lon="9.3629964"><ele>210.0</ele><time>2026-03-25T08:04:22.107Z</time></trkpt><trkpt lat="46.1329711" lon="9.3630752"><ele>210.0</ele><time>2026-03-25T08:04:23.107Z</time></trkpt><trkpt lat="46.1330085" lon="9.3631546"><ele>210.4</ele><time>2026-03-25T08:04:24.107Z</time></trkpt><trkpt lat="46.1330456" lon="9.3632297"><ele>210.8</ele><time>2026-03-25T08:04:25.107Z</time></trkpt><trkpt lat="46.1330814" lon="9.3633093"><ele>211.2</ele><time>2026-03-25T08:04:26.108Z</time></trkpt><trkpt lat="46.1331481" lon="9.3634554"><ele>211.6</ele><time>2026-03-25T08:04:28.109Z</time></trkpt><trkpt lat="46.1332488" lon="9.3636642"><ele>212.0</ele><time>2026-03-25T08:04:31.111Z</time></trkpt><trkpt lat="46.1333153" lon="9.3637957"><ele>211.66666666666669</ele><time>2026-03-25T08:04:33.103Z</time></trkpt><trkpt lat="46.1333823" lon="9.363876"><ele>211.33333333333334</ele><time>2026-03-25T08:04:35.105Z</time></trkpt><trkpt lat="46.1334722" lon="9.3639204"><ele>211.0</ele><time>2026-03-25T08:04:37.113Z</time></trkpt><trkpt lat="46.1335366" lon="9.363948"><ele>210.66666666666669</ele><time>2026-03-25T08:04:39.103Z</time></trkpt><trkpt lat="46.1336288" lon="9.3639328"><ele>210.33333333333334</ele><time>2026-03-25T08:04:42.113Z</time></trkpt><trkpt lat="46.1337029" lon="9.3639213"><ele>210.0</ele><time>2026-03-25T08:04:44.112Z</time></trkpt><trkpt lat="46.1337808" lon="9.3639116"><ele>210.0</ele><time>2026-03-25T08:04:46.105Z</time></trkpt><trkpt lat="46.1338667" lon="9.3638676"><ele>210.0</ele><time>2026-03-25T08:04:48.105Z</time></trkpt><trkpt lat="46.1339266" lon="9.3638257"><ele>210.0</ele><time>2026-03-25T08:04:50.104Z</time></trkpt><trkpt lat="46.1339856" lon="9.3637914"><ele>210.0</ele><time>2026-03-25T08:04:52.105Z</time></trkpt><trkpt lat="46.134064" lon="9.3637416"><ele>210.0</ele><time>2026-03-25T08:04:54.106Z</time></trkpt><trkpt lat="46.1341573" lon="9.3636738"><ele>210.0</ele><time>2026-03-25T08:04:56.104Z</time></trkpt><trkpt lat="46.1342619" lon="9.3636029"><ele>209.14285714285714</ele><time>2026-03-25T08:04:58.111Z</time></trkpt><trkpt lat="46.1343204" lon="9.363564"><ele>208.28571428571428</ele><time>2026-03-25T08:04:59.112Z</time></trkpt><trkpt lat="46.1343803" lon="9.3635224"><ele>207.42857142857144</ele><time>2026-03-25T08:05:00.114Z</time></trkpt><trkpt lat="46.1344447" lon="9.3634804"><ele>206.57142857142856</ele><time>2026-03-25T08:05:01.105Z</time></trkpt><trkpt lat="46.1345034" lon="9.3634306"><ele>205.71428571428572</ele><time>2026-03-25T08:05:02.109Z</time></trkpt><trkpt lat="46.1345658" lon="9.3633886"><ele>204.85714285714286</ele><time>2026-03-25T08:05:03.104Z</time></trkpt><trkpt lat="46.1346319" lon="9.3633444"><ele>204.0</ele><time>2026-03-25T08:05:04.109Z</time></trkpt><trkpt lat="46.1347041" lon="9.3633007"><ele>204.0</ele><time>2026-03-25T08:05:05.104Z</time></trkpt><trkpt lat="46.1347749" lon="9.3632522"><ele>204.0</ele><time>2026-03-25T08:05:06.106Z</time></trkpt><trkpt lat="46.134845" lon="9.3631992"><ele>204.0</ele><time>2026-03-25T08:05:07.11Z</time></trkpt><trkpt lat="46.1349053" lon="9.3631513"><ele>204.0</ele><time>2026-03-25T08:05:08.107Z</time></trkpt><trkpt lat="46.1349768" lon="9.3630956"><ele>204.0</ele><time>2026-03-25T08:05:09.104Z</time></trkpt><trkpt lat="46.1350518" lon="9.3630469"><ele>204.0</ele><time>2026-03-25T08:05:10.111Z</time></trkpt><trkpt lat="46.1351269" lon="9.362998"><ele>203.5</ele><time>2026-03-25T08:05:11.104Z</time></trkpt><trkpt lat="46.1351974" lon="9.3629453"><ele>203.0</ele><time>2026-03-25T08:05:12.105Z</time></trkpt><trkpt lat="46.135269" lon="9.3628991"><ele>202.5</ele><time>2026-03-25T08:05:13.105Z</time></trkpt><trkpt lat="46.1353361" lon="9.3628509"><ele>202.0</ele><time>2026-03-25T08:05:14.112Z</time></trkpt><trkpt lat="46.1354066" lon="9.3628066"><ele>201.5</ele><time>2026-03-25T08:05:15.112Z</time></trkpt><trkpt lat="46.1355108" lon="9.3627411"><ele>201.0</ele><time>2026-03-25T08:05:17.112Z</time></trkpt><trkpt lat="46.1355933" lon="9.3627696"><ele>201.0</ele><time>2026-03-25T08:05:19.104Z</time></trkpt><trkpt lat="46.1356229" lon="9.3628727"><ele>201.0</ele><time>2026-03-25T08:05:21.106Z</time></trkpt><trkpt lat="46.135624" lon="9.3630008"><ele>201.0</ele><time>2026-03-25T08:05:23.105Z</time></trkpt><trkpt lat="46.1356222" lon="9.3631467"><ele>201.0</ele><time>2026-03-25T08:05:25.108Z</time></trkpt><trkpt lat="46.1356187" lon="9.3632973"><ele>201.0</ele><time>2026-03-25T08:05:27.105Z</time></trkpt><trkpt lat="46.1356272" lon="9.3634493"><ele>201.25</ele><time>2026-03-25T08:05:29.105Z</time></trkpt><trkpt lat="46.1356382" lon="9.3636179"><ele>201.5</ele><time>2026-03-25T08:05:31.104Z</time></trkpt><trkpt lat="46.1356509" lon="9.3637558"><ele>201.75</ele><time>2026-03-25T08:05:33.104Z</time></trkpt><trkpt lat="46.1356718" lon="9.3639282"><ele>202.0</ele><time>2026-03-25T08:05:35.109Z</time></trkpt><trkpt lat="46.135702" lon="9.3641043"><ele>201.83333333333331</ele><time>2026-03-25T08:05:37.104Z</time></trkpt><trkpt lat="46.135726" lon="9.3641932"><ele>201.66666666666666</ele><time>2026-03-25T08:05:38.104Z</time></trkpt><trkpt lat="46.1357526" lon="9.3642798"><ele>201.5</ele><time>2026-03-25T08:05:39.105Z</time></trkpt><trkpt lat="46.1357798" lon="9.3643681"><ele>201.33333333333331</ele><time>2026-03-25T08:05:40.109Z</time></trkpt><trkpt lat="46.1358287" lon="9.3645235"><ele>201.16666666666666</ele><time>2026-03-25T08:05:42.105Z</time></trkpt><trkpt lat="46.1358741" lon="9.3646729"><ele>201.0</ele><time>2026-03-25T08:05:44.108Z</time></trkpt><trkpt lat="46.1358993" lon="9.3647572"><ele>201.0</ele><time>2026-03-25T08:05:45.108Z</time></trkpt><trkpt lat="46.1359517" lon="9.364906"><ele>201.0</ele><time>2026-03-25T08:05:47.11Z</time></trkpt><trkpt lat="46.1359972" lon="9.3650632"><ele>201.0</ele><time>2026-03-25T08:05:49.108Z</time></trkpt><trkpt lat="46.1360386" lon="9.3652213"><ele>201.0</ele><time>2026-03-25T08:05:51.106Z</time></trkpt><trkpt lat="46.1361073" lon="9.3653702"><ele>201.0</ele><time>2026-03-25T08:05:53.106Z</time></trkpt><trkpt lat="46.1361821" lon="9.3655065"><ele>201.0</ele><time>2026-03-25T08:05:55.105Z</time></trkpt><trkpt lat="46.136262" lon="9.365628"><ele>201.0</ele><time>2026-03-25T08:05:57.105Z</time></trkpt><trkpt lat="46.1363499" lon="9.3657382"><ele>201.0</ele><time>2026-03-25T08:05:59.105Z</time></trkpt><trkpt lat="46.1364464" lon="9.3658613"><ele>201.20000000000002</ele><time>2026-03-25T08:06:01.114Z</time></trkpt><trkpt lat="46.1365229" lon="9.3659683"><ele>201.4</ele><time>2026-03-25T08:06:03.104Z</time></trkpt><trkpt lat="46.1365725" lon="9.3661215"><ele>201.6</ele><time>2026-03-25T08:06:05.105Z</time></trkpt><trkpt lat="46.1366022" lon="9.3662919"><ele>201.8</ele><time>2026-03-25T08:06:07.104Z</time></trkpt><trkpt lat="46.136615" lon="9.3663816"><ele>202.0</ele><time>2026-03-25T08:06:08.105Z</time></trkpt><trkpt lat="46.136626" lon="9.3664714"><ele>202.0</ele><time>2026-03-25T08:06:09.105Z</time></trkpt><trkpt lat="46.136639" lon="9.3665673"><ele>202.0</ele><time>2026-03-25T08:06:10.112Z</time></trkpt><trkpt lat="46.1366482" lon="9.3666663"><ele>202.0</ele><time>2026-03-25T08:06:11.105Z</time></trkpt><trkpt lat="46.1366612" lon="9.3667632"><ele>202.0</ele><time>2026-03-25T08:06:12.106Z</time></trkpt><trkpt lat="46.1366716" lon="9.3668639"><ele>202.0</ele><time>2026-03-25T08:06:13.113Z</time></trkpt><trkpt lat="46.1366853" lon="9.366964"><ele>202.0</ele><time>2026-03-25T08:06:14.112Z</time></trkpt><trkpt lat="46.1367014" lon="9.3670604"><ele>202.0</ele><time>2026-03-25T08:06:15.11Z</time></trkpt><trkpt lat="46.1367456" lon="9.3672271"><ele>202.0</ele><time>2026-03-25T08:06:17.105Z</time></trkpt><trkpt lat="46.136815" lon="9.3673757"><ele>202.0</ele><time>2026-03-25T08:06:19.113Z</time></trkpt><trkpt lat="46.1368521" lon="9.3674542"><ele>202.0</ele><time>2026-03-25T08:06:20.112Z</time></trkpt><trkpt lat="46.1368898" lon="9.3675333"><ele>202.0</ele><time>2026-03-25T08:06:21.111Z</time></trkpt><trkpt lat="46.1369549" lon="9.3676854"><ele>202.0</ele><time>2026-03-25T08:06:23.107Z</time></trkpt><trkpt lat="46.1370285" lon="9.3678092"><ele>202.0</ele><time>2026-03-25T08:06:25.109Z</time></trkpt><trkpt lat="46.1370973" lon="9.3679277"><ele>202.0</ele><time>2026-03-25T08:06:27.105Z</time></trkpt><trkpt lat="46.1371581" lon="9.3680399"><ele>202.0</ele><time>2026-03-25T08:06:29.105Z</time></trkpt><trkpt lat="46.1372095" lon="9.3681583"><ele>202.0</ele><time>2026-03-25T08:06:31.105Z</time></trkpt><trkpt lat="46.1372506" lon="9.3682699"><ele>202.0</ele><time>2026-03-25T08:06:33.104Z</time></trkpt><trkpt lat="46.1372667" lon="9.3683898"><ele>202.49999999999997</ele><time>2026-03-25T08:06:35.105Z</time></trkpt><trkpt lat="46.1372542" lon="9.3685299"><ele>203.0</ele><time>2026-03-25T08:06:37.105Z</time></trkpt><trkpt lat="46.1372286" lon="9.368639"><ele>203.5</ele><time>2026-03-25T08:06:39.105Z</time></trkpt><trkpt lat="46.1372141" lon="9.3687571"><ele>204.0</ele><time>2026-03-25T08:06:41.108Z</time></trkpt><trkpt lat="46.1372043" lon="9.3688811"><ele>204.49999999999997</ele><time>2026-03-25T08:06:43.108Z</time></trkpt><trkpt lat="46.1372085" lon="9.3690139"><ele>205.0</ele><time>2026-03-25T08:06:45.105Z</time></trkpt><trkpt lat="46.1372139" lon="9.3691622"><ele>205.0</ele><time>2026-03-25T08:06:47.105Z</time></trkpt><trkpt lat="46.1371963" lon="9.3692972"><ele>205.0</ele><time>2026-03-25T08:06:49.108Z</time></trkpt><trkpt lat="46.1371738" lon="9.369418"><ele>205.0</ele><time>2026-03-25T08:06:51.109Z</time></trkpt><trkpt lat="46.1371432" lon="9.3695428"><ele>205.0</ele><time>2026-03-25T08:06:53.104Z</time></trkpt><trkpt lat="46.1371213" lon="9.3696706"><ele>205.0</ele><time>2026-03-25T08:06:55.106Z</time></trkpt><trkpt lat="46.1370884" lon="9.3698101"><ele>204.99999999999997</ele><time>2026-03-25T08:06:57.105Z</time></trkpt><trkpt lat="46.1370595" lon="9.3699433"><ele>205.0</ele><time>2026-03-25T08:06:59.106Z</time></trkpt><trkpt lat="46.1370345" lon="9.370061"><ele>205.0</ele><time>2026-03-25T08:07:01.106Z</time></trkpt><trkpt lat="46.137017" lon="9.3701763"><ele>205.0</ele><time>2026-03-25T08:07:03.105Z</time></trkpt><trkpt lat="46.1370054" lon="9.3702769"><ele>204.99999999999997</ele><time>2026-03-25T08:07:05.11Z</time></trkpt><trkpt lat="46.1370278" lon="9.3703691"><ele>205.0</ele><time>2026-03-25T08:07:07.105Z</time></trkpt><trkpt lat="46.1370546" lon="9.3704598"><ele>205.16666666666666</ele><time>2026-03-25T08:07:09.106Z</time></trkpt><trkpt lat="46.137086" lon="9.3705598"><ele>205.33333333333331</ele><time>2026-03-25T08:07:11.11Z</time></trkpt><trkpt lat="46.1371141" lon="9.3706744"><ele>205.5</ele><time>2026-03-25T08:07:13.106Z</time></trkpt><trkpt lat="46.1371524" lon="9.3707705"><ele>205.66666666666669</ele><time>2026-03-25T08:07:15.105Z</time></trkpt><trkpt lat="46.1371855" lon="9.3708735"><ele>205.83333333333334</ele><time>2026-03-25T08:07:17.106Z</time></trkpt><trkpt lat="46.1372093" lon="9.3709723"><ele>206.0</ele><time>2026-03-25T08:07:19.105Z</time></trkpt><trkpt lat="46.1372495" lon="9.3710769"><ele>206.0</ele><time>2026-03-25T08:07:21.112Z</time></trkpt><trkpt lat="46.1373003" lon="9.3711794"><ele>206.0</ele><time>2026-03-25T08:07:23.105Z</time></trkpt><trkpt lat="46.1373535" lon="9.3712895"><ele>206.0</ele><time>2026-03-25T08:07:25.106Z</time></trkpt><trkpt lat="46.1374095" lon="9.3714031"><ele>206.0</ele><time>2026-03-25T08:07:27.105Z</time></trkpt><trkpt lat="46.1374562" lon="9.3715227"><ele>206.0</ele><time>2026-03-25T08:07:29.106Z</time></trkpt><trkpt lat="46.1375279" lon="9.3716627"><ele>205.20000000000002</ele><time>2026-03-25T08:07:31.105Z</time></trkpt><trkpt lat="46.1375752" lon="9.3717842"><ele>204.4</ele><time>2026-03-25T08:07:33.105Z</time></trkpt><trkpt lat="46.1376267" lon="9.3719134"><ele>203.6</ele><time>2026-03-25T08:07:35.105Z</time></trkpt><trkpt lat="46.1376756" lon="9.3720238"><ele>202.8</ele><time>2026-03-25T08:07:37.106Z</time></trkpt><trkpt lat="46.1377396" lon="9.3720815"><ele>202.0</ele><time>2026-03-25T08:07:39.106Z</time></trkpt><trkpt lat="46.1378126" lon="9.3721473"><ele>202.16666666666666</ele><time>2026-03-25T08:07:41.105Z</time></trkpt><trkpt lat="46.1378938" lon="9.372214"><ele>202.33333333333331</ele><time>2026-03-25T08:07:43.106Z</time></trkpt><trkpt lat="46.1379717" lon="9.3723039"><ele>202.5</ele><time>2026-03-25T08:07:45.104Z</time></trkpt><trkpt lat="46.1380459" lon="9.3723618"><ele>202.66666666666669</ele><time>2026-03-25T08:07:47.104Z</time></trkpt><trkpt lat="46.1381249" lon="9.3724036"><ele>202.83333333333334</ele><time>2026-03-25T08:07:49.106Z</time></trkpt><trkpt lat="46.1381972" lon="9.372455"><ele>203.0</ele><time>2026-03-25T08:07:51.106Z</time></trkpt><trkpt lat="46.138266" lon="9.3725133"><ele>202.66666666666669</ele><time>2026-03-25T08:07:53.105Z</time></trkpt><trkpt lat="46.1383349" lon="9.3725792"><ele>202.33333333333334</ele><time>2026-03-25T08:07:55.106Z</time></trkpt><trkpt lat="46.1383996" lon="9.3726571"><ele>202.0</ele><time>2026-03-25T08:07:57.106Z</time></trkpt><trkpt lat="46.1384139" lon="9.3727549"><ele>201.66666666666669</ele><time>2026-03-25T08:07:59.105Z</time></trkpt><trkpt lat="46.1384228" lon="9.3728804"><ele>201.33333333333334</ele><time>2026-03-25T08:08:01.105Z</time></trkpt><trkpt lat="46.1384323" lon="9.3730076"><ele>201.0</ele><time>2026-03-25T08:08:03.104Z</time></trkpt><trkpt lat="46.1384414" lon="9.3731406"><ele>201.0</ele><time>2026-03-25T08:08:05.105Z</time></trkpt><trkpt lat="46.1384547" lon="9.3732675"><ele>201.0</ele><time>2026-03-25T08:08:07.104Z</time></trkpt><trkpt lat="46.1384612" lon="9.3734049"><ele>201.0</ele><time>2026-03-25T08:08:09.105Z</time></trkpt><trkpt lat="46.1384677" lon="9.3735413"><ele>201.0</ele><time>2026-03-25T08:08:11.106Z</time></trkpt><trkpt lat="46.138486" lon="9.3736757"><ele>201.0</ele><time>2026-03-25T08:08:13.106Z</time></trkpt><trkpt lat="46.138498" lon="9.3738083"><ele>201.60000000000002</ele><time>2026-03-25T08:08:15.104Z</time></trkpt><trkpt lat="46.1385056" lon="9.3739363"><ele>202.2</ele><time>2026-03-25T08:08:17.21Z</time></trkpt><trkpt lat="46.1385113" lon="9.3741066"><ele>202.8</ele><time>2026-03-25T08:08:20.835Z</time></trkpt><trkpt lat="46.1385228" lon="9.3741972"><ele>203.39999999999998</ele><time>2026-03-25T08:08:22.104Z</time></trkpt><trkpt lat="46.1385393" lon="9.3743322"><ele>204.0</ele><time>2026-03-25T08:08:24.106Z</time></trkpt><trkpt lat="46.1385549" lon="9.37446"><ele>204.0</ele><time>2026-03-25T08:08:26.105Z</time></trkpt><trkpt lat="46.1385567" lon="9.3745733"><ele>204.0</ele><time>2026-03-25T08:08:28.022Z</time></trkpt><trkpt lat="46.1384738" lon="9.3746708"><ele>204.0</ele><time>2026-03-25T08:08:30.104Z</time></trkpt><trkpt lat="46.1384103" lon="9.3747476"><ele>204.0</ele><time>2026-03-25T08:08:32.059Z</time></trkpt><trkpt lat="46.1384197" lon="9.374886"><ele>204.0</ele><time>2026-03-25T08:08:34.105Z</time></trkpt><trkpt lat="46.1384874" lon="9.3749807"><ele>204.6</ele><time>2026-03-25T08:08:36.044Z</time></trkpt><trkpt lat="46.1385511" lon="9.3750146"><ele>205.2</ele><time>2026-03-25T08:08:37.104Z</time></trkpt><trkpt lat="46.1386305" lon="9.3751116"><ele>205.79999999999998</ele><time>2026-03-25T08:08:39.105Z</time></trkpt><trkpt lat="46.1386914" lon="9.3752301"><ele>206.39999999999998</ele><time>2026-03-25T08:08:41.107Z</time></trkpt><trkpt lat="46.1387469" lon="9.3753531"><ele>207.0</ele><time>2026-03-25T08:08:43.106Z</time></trkpt><trkpt lat="46.1388114" lon="9.3754692"><ele>207.39999999999998</ele><time>2026-03-25T08:08:45.105Z</time></trkpt><trkpt lat="46.1388665" lon="9.3755841"><ele>207.79999999999998</ele><time>2026-03-25T08:08:47.106Z</time></trkpt><trkpt lat="46.1389146" lon="9.3757032"><ele>208.2</ele><time>2026-03-25T08:08:49.107Z</time></trkpt><trkpt lat="46.1389516" lon="9.3758268"><ele>208.6</ele><time>2026-03-25T08:08:51.105Z</time></trkpt><trkpt lat="46.1389901" lon="9.3759478"><ele>209.0</ele><time>2026-03-25T08:08:53.105Z</time></trkpt><trkpt lat="46.139022" lon="9.3760638"><ele>208.79999999999998</ele><time>2026-03-25T08:08:55.104Z</time></trkpt><trkpt lat="46.1390575" lon="9.376178"><ele>208.6</ele><time>2026-03-25T08:08:57.106Z</time></trkpt><trkpt lat="46.139091" lon="9.3762903"><ele>208.4</ele><time>2026-03-25T08:08:59.107Z</time></trkpt><trkpt lat="46.1391319" lon="9.3764202"><ele>208.2</ele><time>2026-03-25T08:09:01.107Z</time></trkpt><trkpt lat="46.1391802" lon="9.3765342"><ele>208.0</ele><time>2026-03-25T08:09:03.207Z</time></trkpt><trkpt lat="46.1392181" lon="9.3766482"><ele>207.99999999999997</ele><time>2026-03-25T08:09:05.184Z</time></trkpt><trkpt lat="46.1392521" lon="9.3767623"><ele>208.0</ele><time>2026-03-25T08:09:07.105Z</time></trkpt><trkpt lat="46.139287" lon="9.3768788"><ele>208.0</ele><time>2026-03-25T08:09:09.105Z</time></trkpt><trkpt lat="46.1393056" lon="9.3769917"><ele>208.0</ele><time>2026-03-25T08:09:11.107Z</time></trkpt><trkpt lat="46.1393483" lon="9.377106"><ele>207.99999999999997</ele><time>2026-03-25T08:09:13.105Z</time></trkpt><trkpt lat="46.1393934" lon="9.3772278"><ele>208.0</ele><time>2026-03-25T08:09:15.106Z</time></trkpt><trkpt lat="46.1394439" lon="9.3773427"><ele>208.2</ele><time>2026-03-25T08:09:17.106Z</time></trkpt><trkpt lat="46.1394841" lon="9.3774608"><ele>208.4</ele><time>2026-03-25T08:09:19.107Z</time></trkpt><trkpt lat="46.1395409" lon="9.3775784"><ele>208.6</ele><time>2026-03-25T08:09:21.106Z</time></trkpt><trkpt lat="46.1396013" lon="9.3777011"><ele>208.79999999999998</ele><time>2026-03-25T08:09:23.105Z</time></trkpt><trkpt lat="46.1396662" lon="9.377827"><ele>209.0</ele><time>2026-03-25T08:09:25.107Z</time></trkpt><trkpt lat="46.1397379" lon="9.3779383"><ele>209.16666666666669</ele><time>2026-03-25T08:09:27.104Z</time></trkpt><trkpt lat="46.1398091" lon="9.3780649"><ele>209.33333333333334</ele><time>2026-03-25T08:09:29.106Z</time></trkpt><trkpt lat="46.1398715" lon="9.3781709"><ele>209.5</ele><time>2026-03-25T08:09:31.106Z</time></trkpt><trkpt lat="46.1399192" lon="9.3782718"><ele>209.66666666666669</ele><time>2026-03-25T08:09:33.107Z</time></trkpt><trkpt lat="46.1399659" lon="9.3783643"><ele>209.83333333333334</ele><time>2026-03-25T08:09:35.106Z</time></trkpt><trkpt lat="46.140004" lon="9.3784558"><ele>210.0</ele><time>2026-03-25T08:09:37.106Z</time></trkpt><trkpt lat="46.1400365" lon="9.3785548"><ele>210.0</ele><time>2026-03-25T08:09:39.107Z</time></trkpt><trkpt lat="46.1400643" lon="9.3786447"><ele>210.0</ele><time>2026-03-25T08:09:41.104Z</time></trkpt><trkpt lat="46.1401063" lon="9.378769"><ele>210.0</ele><time>2026-03-25T08:09:43.106Z</time></trkpt><trkpt lat="46.1401364" lon="9.3788915"><ele>210.0</ele><time>2026-03-25T08:09:45.105Z</time></trkpt><trkpt lat="46.1401667" lon="9.3790303"><ele>210.0</ele><time>2026-03-25T08:09:47.105Z</time></trkpt><trkpt lat="46.1401889" lon="9.379168"><ele>210.0</ele><time>2026-03-25T08:09:49.105Z</time></trkpt><trkpt lat="46.1402168" lon="9.3793005"><ele>210.0</ele><time>2026-03-25T08:09:51.105Z</time></trkpt><trkpt lat="46.1402462" lon="9.3794417"><ele>210.0</ele><time>2026-03-25T08:09:53.106Z</time></trkpt><trkpt lat="46.1402795" lon="9.379585"><ele>210.0</ele><time>2026-03-25T08:09:55.106Z</time></trkpt><trkpt lat="46.1403183" lon="9.3797315"><ele>210.0</ele><time>2026-03-25T08:09:57.107Z</time></trkpt><trkpt lat="46.140352" lon="9.3798745"><ele>210.4</ele><time>2026-03-25T08:09:59.107Z</time></trkpt><trkpt lat="46.140384" lon="9.3800096"><ele>210.8</ele><time>2026-03-25T08:10:01.106Z</time></trkpt><trkpt lat="46.1404211" lon="9.3801584"><ele>211.2</ele><time>2026-03-25T08:10:03.105Z</time></trkpt><trkpt lat="46.1404459" lon="9.3802935"><ele>211.6</ele><time>2026-03-25T08:10:05.106Z</time></trkpt><trkpt lat="46.1404795" lon="9.3804289"><ele>212.0</ele><time>2026-03-25T08:10:07.106Z</time></trkpt><trkpt lat="46.1405125" lon="9.3805571"><ele>212.6</ele><time>2026-03-25T08:10:09.106Z</time></trkpt><trkpt lat="46.1405435" lon="9.380691"><ele>213.2</ele><time>2026-03-25T08:10:11.107Z</time></trkpt><trkpt lat="46.1405785" lon="9.380823"><ele>213.8</ele><time>2026-03-25T08:10:13.106Z</time></trkpt><trkpt lat="46.1406097" lon="9.3809722"><ele>214.4</ele><time>2026-03-25T08:10:15.107Z</time></trkpt><trkpt lat="46.1406326" lon="9.3811213"><ele>215.0</ele><time>2026-03-25T08:10:17.105Z</time></trkpt><trkpt lat="46.1406676" lon="9.381255"><ele>215.4</ele><time>2026-03-25T08:10:19.106Z</time></trkpt><trkpt lat="46.140693" lon="9.3813882"><ele>215.8</ele><time>2026-03-25T08:10:21.105Z</time></trkpt><trkpt lat="46.1407258" lon="9.3815181"><ele>216.2</ele><time>2026-03-25T08:10:23.107Z</time></trkpt><trkpt lat="46.1407587" lon="9.3816524"><ele>216.6</ele><time>2026-03-25T08:10:25.107Z</time></trkpt><trkpt lat="46.1407857" lon="9.381799"><ele>217.0</ele><time>2026-03-25T08:10:27.106Z</time></trkpt><trkpt lat="46.1408157" lon="9.3819255"><ele>216.0</ele><time>2026-03-25T08:10:29.106Z</time></trkpt><trkpt lat="46.1408479" lon="9.382061"><ele>215.0</ele><time>2026-03-25T08:10:31.107Z</time></trkpt><trkpt lat="46.1408791" lon="9.3822068"><ele>214.0</ele><time>2026-03-25T08:10:33.105Z</time></trkpt><trkpt lat="46.1409137" lon="9.3823512"><ele>213.0</ele><time>2026-03-25T08:10:35.107Z</time></trkpt><trkpt lat="46.1409497" lon="9.3824989"><ele>212.0</ele><time>2026-03-25T08:10:37.106Z</time></trkpt><trkpt lat="46.1409821" lon="9.3826341"><ele>212.0</ele><time>2026-03-25T08:10:39.107Z</time></trkpt><trkpt lat="46.1410168" lon="9.382788"><ele>212.0</ele><time>2026-03-25T08:10:41.107Z</time></trkpt><trkpt lat="46.1410519" lon="9.3829139"><ele>212.0</ele><time>2026-03-25T08:10:43.107Z</time></trkpt><trkpt lat="46.1410922" lon="9.3830265"><ele>212.0</ele><time>2026-03-25T08:10:45.106Z</time></trkpt><trkpt lat="46.1411583" lon="9.3831131"><ele>212.0</ele><time>2026-03-25T08:10:47.105Z</time></trkpt><trkpt lat="46.1412553" lon="9.3831225"><ele>212.2</ele><time>2026-03-25T08:10:49.107Z</time></trkpt><trkpt lat="46.1413544" lon="9.3830977"><ele>212.39999999999998</ele><time>2026-03-25T08:10:51.106Z</time></trkpt><trkpt lat="46.1414559" lon="9.3830909"><ele>212.60000000000002</ele><time>2026-03-25T08:10:53.107Z</time></trkpt><trkpt lat="46.1415591" lon="9.3831076"><ele>212.8</ele><time>2026-03-25T08:10:55.107Z</time></trkpt><trkpt lat="46.1416553" lon="9.3831713"><ele>213.0</ele><time>2026-03-25T08:10:57.106Z</time></trkpt><trkpt lat="46.1417423" lon="9.3832475"><ele>212.33333333333334</ele><time>2026-03-25T08:10:59.105Z</time></trkpt><trkpt lat="46.141799" lon="9.3833596"><ele>211.66666666666669</ele><time>2026-03-25T08:11:01.105Z</time></trkpt><trkpt lat="46.1418306" lon="9.3834799"><ele>211.0</ele><time>2026-03-25T08:11:03.107Z</time></trkpt><trkpt lat="46.1418456" lon="9.3835804"><ele>210.33333333333334</ele><time>2026-03-25T08:11:05.107Z</time></trkpt><trkpt lat="46.1418322" lon="9.3836772"><ele>209.66666666666669</ele><time>2026-03-25T08:11:07.108Z</time></trkpt><trkpt lat="46.1418223" lon="9.383769"><ele>209.0</ele><time>2026-03-25T08:11:09.105Z</time></trkpt><trkpt lat="46.1418025" lon="9.3838932"><ele>209.00000000000003</ele><time>2026-03-25T08:11:12.106Z</time></trkpt><trkpt lat="46.1417673" lon="9.3839839"><ele>209.0</ele><time>2026-03-25T08:11:15.105Z</time></trkpt><trkpt lat="46.1417104" lon="9.3840755"><ele>209.0</ele><time>2026-03-25T08:11:18.107Z</time></trkpt><trkpt lat="46.1416523" lon="9.3841448"><ele>209.0</ele><time>2026-03-25T08:11:21.105Z</time></trkpt><trkpt lat="46.1415718" lon="9.3841934"><ele>209.00000000000003</ele><time>2026-03-25T08:11:25.107Z</time></trkpt><trkpt lat="46.1415073" lon="9.3842373"><ele>209.0</ele><time>2026-03-25T08:11:28.107Z</time></trkpt><trkpt lat="46.1414322" lon="9.3842552"><ele>209.66666666666669</ele><time>2026-03-25T08:11:32.106Z</time></trkpt><trkpt lat="46.1413695" lon="9.3842784"><ele>210.33333333333334</ele><time>2026-03-25T08:11:35.106Z</time></trkpt><trkpt lat="46.1412949" lon="9.3842965"><ele>211.0</ele><time>2026-03-25T08:11:38.106Z</time></trkpt><trkpt lat="46.1412097" lon="9.3843208"><ele>211.66666666666669</ele><time>2026-03-25T08:11:41.106Z</time></trkpt><trkpt lat="46.1411391" lon="9.3843454"><ele>212.33333333333334</ele><time>2026-03-25T08:11:43.107Z</time></trkpt><trkpt lat="46.1410547" lon="9.3843731"><ele>213.0</ele><time>2026-03-25T08:11:45.106Z</time></trkpt><trkpt lat="46.1409469" lon="9.3844037"><ele>212.99999999999997</ele><time>2026-03-25T08:11:47.106Z</time></trkpt><trkpt lat="46.1408848" lon="9.3844236"><ele>213.0</ele><time>2026-03-25T08:11:48.105Z</time></trkpt><trkpt lat="46.1408179" lon="9.3844465"><ele>213.0</ele><time>2026-03-25T08:11:49.106Z</time></trkpt><trkpt lat="46.1407495" lon="9.3844727"><ele>213.0</ele><time>2026-03-25T08:11:50.107Z</time></trkpt><trkpt lat="46.1406811" lon="9.3845062"><ele>213.0</ele><time>2026-03-25T08:11:51.107Z</time></trkpt><trkpt lat="46.1406211" lon="9.3845407"><ele>212.99999999999997</ele><time>2026-03-25T08:11:52.105Z</time></trkpt><trkpt lat="46.1405455" lon="9.3845706"><ele>213.0</ele><time>2026-03-25T08:11:53.107Z</time></trkpt><trkpt lat="46.1404675" lon="9.3846139"><ele>213.83333333333334</ele><time>2026-03-25T08:11:54.107Z</time></trkpt><trkpt lat="46.1403915" lon="9.3846563"><ele>214.66666666666669</ele><time>2026-03-25T08:11:55.105Z</time></trkpt><trkpt lat="46.1403239" lon="9.3846871"><ele>215.5</ele><time>2026-03-25T08:11:56.105Z</time></trkpt><trkpt lat="46.1402334" lon="9.3847232"><ele>216.33333333333334</ele><time>2026-03-25T08:11:58.108Z</time></trkpt><trkpt lat="46.1401761" lon="9.3847954"><ele>217.16666666666669</ele><time>2026-03-25T08:12:00.108Z</time></trkpt><trkpt lat="46.1401606" lon="9.3849014"><ele>218.0</ele><time>2026-03-25T08:12:02.107Z</time></trkpt><trkpt lat="46.1401833" lon="9.3850107"><ele>218.0</ele><time>2026-03-25T08:12:04.107Z</time></trkpt><trkpt lat="46.1402214" lon="9.3851249"><ele>218.0</ele><time>2026-03-25T08:12:06.107Z</time></trkpt><trkpt lat="46.1402598" lon="9.3852487"><ele>218.0</ele><time>2026-03-25T08:12:08.105Z</time></trkpt><trkpt lat="46.1403002" lon="9.385382"><ele>218.0</ele><time>2026-03-25T08:12:10.108Z</time></trkpt><trkpt lat="46.1403353" lon="9.3855066"><ele>218.0</ele><time>2026-03-25T08:12:12.106Z</time></trkpt><trkpt lat="46.140386" lon="9.38564"><ele>218.2</ele><time>2026-03-25T08:12:14.106Z</time></trkpt><trkpt lat="46.1404283" lon="9.3857836"><ele>218.4</ele><time>2026-03-25T08:12:16.106Z</time></trkpt><trkpt lat="46.1404724" lon="9.3859259"><ele>218.59999999999997</ele><time>2026-03-25T08:12:18.107Z</time></trkpt><trkpt lat="46.1405114" lon="9.3860767"><ele>218.79999999999998</ele><time>2026-03-25T08:12:20.106Z</time></trkpt><trkpt lat="46.1405478" lon="9.3862022"><ele>219.0</ele><time>2026-03-25T08:12:22.107Z</time></trkpt><trkpt lat="46.1405897" lon="9.3863385"><ele>219.0</ele><time>2026-03-25T08:12:24.106Z</time></trkpt><trkpt lat="46.1406334" lon="9.3864735"><ele>218.99999999999997</ele><time>2026-03-25T08:12:26.107Z</time></trkpt><trkpt lat="46.1406713" lon="9.3866063"><ele>218.99999999999997</ele><time>2026-03-25T08:12:28.106Z</time></trkpt><trkpt lat="46.1407182" lon="9.3867289"><ele>219.0</ele><time>2026-03-25T08:12:30.105Z</time></trkpt><trkpt lat="46.1407609" lon="9.3868489"><ele>219.0</ele><time>2026-03-25T08:12:32.108Z</time></trkpt><trkpt lat="46.140803" lon="9.3869444"><ele>218.2</ele><time>2026-03-25T08:12:34.106Z</time></trkpt><trkpt lat="46.1408484" lon="9.3870569"><ele>217.39999999999998</ele><time>2026-03-25T08:12:36.106Z</time></trkpt><trkpt lat="46.1408904" lon="9.3871767"><ele>216.6</ele><time>2026-03-25T08:12:38.105Z</time></trkpt><trkpt lat="46.140933" lon="9.3873146"><ele>215.8</ele><time>2026-03-25T08:12:40.106Z</time></trkpt><trkpt lat="46.1409872" lon="9.3874478"><ele>215.0</ele><time>2026-03-25T08:12:42.107Z</time></trkpt><trkpt lat="46.141041" lon="9.3875823"><ele>214.75</ele><time>2026-03-25T08:12:44.105Z</time></trkpt><trkpt lat="46.1410877" lon="9.3877395"><ele>214.5</ele><time>2026-03-25T08:12:46.108Z</time></trkpt><trkpt lat="46.1411402" lon="9.3879017"><ele>214.25</ele><time>2026-03-25T08:12:48.107Z</time></trkpt><trkpt lat="46.1411856" lon="9.3880539"><ele>214.0</ele><time>2026-03-25T08:12:50.107Z</time></trkpt><trkpt lat="46.1412348" lon="9.3881938"><ele>214.0</ele><time>2026-03-25T08:12:52.105Z</time></trkpt><trkpt lat="46.1412838" lon="9.3883348"><ele>214.0</ele><time>2026-03-25T08:12:54.107Z</time></trkpt><trkpt lat="46.1413326" lon="9.3884814"><ele>214.0</ele><time>2026-03-25T08:12:56.106Z</time></trkpt><trkpt lat="46.1413715" lon="9.3886351"><ele>214.0</ele><time>2026-03-25T08:12:58.107Z</time></trkpt><trkpt lat="46.1414182" lon="9.3887885"><ele>213.75</ele><time>2026-03-25T08:13:00.107Z</time></trkpt><trkpt lat="46.1414628" lon="9.3889385"><ele>213.5</ele><time>2026-03-25T08:13:02.106Z</time></trkpt><trkpt lat="46.1414859" lon="9.389101"><ele>213.25</ele><time>2026-03-25T08:13:04.106Z</time></trkpt><trkpt lat="46.1415125" lon="9.3892651"><ele>213.0</ele><time>2026-03-25T08:13:06.107Z</time></trkpt><trkpt lat="46.1415631" lon="9.3894109"><ele>212.60000000000002</ele><time>2026-03-25T08:13:08.107Z</time></trkpt><trkpt lat="46.1416206" lon="9.389561"><ele>212.20000000000002</ele><time>2026-03-25T08:13:10.108Z</time></trkpt><trkpt lat="46.1416788" lon="9.3897174"><ele>211.8</ele><time>2026-03-25T08:13:12.107Z</time></trkpt><trkpt lat="46.1417092" lon="9.389797"><ele>211.4</ele><time>2026-03-25T08:13:13.107Z</time></trkpt><trkpt lat="46.1417619" lon="9.3899584"><ele>211.0</ele><time>2026-03-25T08:13:15.106Z</time></trkpt><trkpt lat="46.1418102" lon="9.3901004"><ele>211.0</ele><time>2026-03-25T08:13:17.107Z</time></trkpt><trkpt lat="46.1418375" lon="9.3902551"><ele>211.0</ele><time>2026-03-25T08:13:19.108Z</time></trkpt><trkpt lat="46.1418245" lon="9.3904149"><ele>211.0</ele><time>2026-03-25T08:13:21.107Z</time></trkpt><trkpt lat="46.1418021" lon="9.3905873"><ele>211.0</ele><time>2026-03-25T08:13:23.106Z</time></trkpt><trkpt lat="46.1417897" lon="9.3906772"><ele>211.0</ele><time>2026-03-25T08:13:24.106Z</time></trkpt><trkpt lat="46.1417741" lon="9.3907769"><ele>211.0</ele><time>2026-03-25T08:13:25.106Z</time></trkpt><trkpt lat="46.1417445" lon="9.3909554"><ele>211.0</ele><time>2026-03-25T08:13:27.107Z</time></trkpt><trkpt lat="46.1417219" lon="9.3911191"><ele>211.0</ele><time>2026-03-25T08:13:29.107Z</time></trkpt><trkpt lat="46.1416994" lon="9.3912771"><ele>211.0</ele><time>2026-03-25T08:13:31.106Z</time></trkpt><trkpt lat="46.1416882" lon="9.3914304"><ele>211.16666666666666</ele><time>2026-03-25T08:13:33.105Z</time></trkpt><trkpt lat="46.1416576" lon="9.3915648"><ele>211.33333333333331</ele><time>2026-03-25T08:13:35.108Z</time></trkpt><trkpt lat="46.1415966" lon="9.3916459"><ele>211.5</ele><time>2026-03-25T08:13:37.106Z</time></trkpt><trkpt lat="46.1415193" lon="9.3916778"><ele>211.66666666666669</ele><time>2026-03-25T08:13:39.105Z</time></trkpt><trkpt lat="46.1414293" lon="9.3916939"><ele>211.83333333333334</ele><time>2026-03-25T08:13:41.106Z</time></trkpt><trkpt lat="46.1413395" lon="9.3916983"><ele>212.0</ele><time>2026-03-25T08:13:43.106Z</time></trkpt><trkpt lat="46.1412451" lon="9.3916833"><ele>212.2</ele><time>2026-03-25T08:13:45.108Z</time></trkpt><trkpt lat="46.1411519" lon="9.3916784"><ele>212.39999999999998</ele><time>2026-03-25T08:13:47.108Z</time></trkpt><trkpt lat="46.1410547" lon="9.3916692"><ele>212.60000000000002</ele><time>2026-03-25T08:13:49.108Z</time></trkpt><trkpt lat="46.1409589" lon="9.3916435"><ele>212.8</ele><time>2026-03-25T08:13:51.106Z</time></trkpt><trkpt lat="46.1408745" lon="9.3916048"><ele>213.0</ele><time>2026-03-25T08:13:53.108Z</time></trkpt><trkpt lat="46.1407876" lon="9.391578"><ele>213.8</ele><time>2026-03-25T08:13:55.107Z</time></trkpt><trkpt lat="46.1406994" lon="9.3915439"><ele>214.60000000000002</ele><time>2026-03-25T08:13:57.107Z</time></trkpt><trkpt lat="46.1406078" lon="9.3915042"><ele>215.39999999999998</ele><time>2026-03-25T08:13:59.107Z</time></trkpt><trkpt lat="46.1405216" lon="9.3914698"><ele>216.2</ele><time>2026-03-25T08:14:01.106Z</time></trkpt><trkpt lat="46.1404321" lon="9.391439"><ele>217.0</ele><time>2026-03-25T08:14:03.107Z</time></trkpt><trkpt lat="46.1403461" lon="9.3914102"><ele>216.99999999999997</ele><time>2026-03-25T08:14:05.106Z</time></trkpt><trkpt lat="46.1402589" lon="9.3913871"><ele>217.0</ele><time>2026-03-25T08:14:07.107Z</time></trkpt><trkpt lat="46.1401849" lon="9.3913627"><ele>217.0</ele><time>2026-03-25T08:14:09.108Z</time></trkpt><trkpt lat="46.1401218" lon="9.3913375"><ele>217.0</ele><time>2026-03-25T08:14:11.106Z</time></trkpt><trkpt lat="46.1400502" lon="9.3913398"><ele>216.99999999999997</ele><time>2026-03-25T08:14:36.107Z</time></trkpt><trkpt lat="46.1400047" lon="9.3914098"><ele>217.0</ele><time>2026-03-25T08:14:39.107Z</time></trkpt><trkpt lat="46.1400145" lon="9.3915456"><ele>217.0</ele><time>2026-03-25T08:14:42.106Z</time></trkpt><trkpt lat="46.1400189" lon="9.3916514"><ele>217.0</ele><time>2026-03-25T08:14:44.104Z</time></trkpt><trkpt lat="46.1400241" lon="9.391777"><ele>217.0</ele><time>2026-03-25T08:14:46.128Z</time></trkpt><trkpt lat="46.1400069" lon="9.3919797"><ele>217.0</ele><time>2026-03-25T08:14:49.107Z</time></trkpt><trkpt lat="46.140009" lon="9.3921257"><ele>217.0</ele><time>2026-03-25T08:14:51.107Z</time></trkpt><trkpt lat="46.1400103" lon="9.3922842"><ele>217.5</ele><time>2026-03-25T08:14:53.107Z</time></trkpt><trkpt lat="46.1400172" lon="9.3924492"><ele>218.0</ele><time>2026-03-25T08:14:55.106Z</time></trkpt><trkpt lat="46.1400266" lon="9.3926087"><ele>218.5</ele><time>2026-03-25T08:14:57.108Z</time></trkpt><trkpt lat="46.1400311" lon="9.3927846"><ele>219.0</ele><time>2026-03-25T08:14:59.108Z</time></trkpt><trkpt lat="46.1400313" lon="9.3929618"><ele>218.83333333333334</ele><time>2026-03-25T08:15:01.106Z</time></trkpt><trkpt lat="46.1400308" lon="9.3930569"><ele>218.66666666666669</ele><time>2026-03-25T08:15:02.106Z</time></trkpt><trkpt lat="46.140027" lon="9.393234"><ele>218.5</ele><time>2026-03-25T08:15:04.108Z</time></trkpt><trkpt lat="46.1400283" lon="9.3933255"><ele>218.33333333333334</ele><time>2026-03-25T08:15:05.107Z</time></trkpt><trkpt lat="46.1400381" lon="9.3935003"><ele>218.16666666666669</ele><time>2026-03-25T08:15:07.107Z</time></trkpt><trkpt lat="46.1400369" lon="9.3935918"><ele>218.0</ele><time>2026-03-25T08:15:08.107Z</time></trkpt><trkpt lat="46.1400376" lon="9.3936868"><ele>218.00000000000003</ele><time>2026-03-25T08:15:09.107Z</time></trkpt><trkpt lat="46.1400408" lon="9.3937799"><ele>218.0</ele><time>2026-03-25T08:15:10.107Z</time></trkpt><trkpt lat="46.1400458" lon="9.3938735"><ele>218.0</ele><time>2026-03-25T08:15:11.108Z</time></trkpt><trkpt lat="46.1400628" lon="9.3940598"><ele>218.0</ele><time>2026-03-25T08:15:13.107Z</time></trkpt><trkpt lat="46.1400722" lon="9.3941576"><ele>218.00000000000003</ele><time>2026-03-25T08:15:14.107Z</time></trkpt><trkpt lat="46.1400819" lon="9.3942596"><ele>218.0</ele><time>2026-03-25T08:15:15.108Z</time></trkpt><trkpt lat="46.1400982" lon="9.3943552"><ele>217.57142857142858</ele><time>2026-03-25T08:15:16.108Z</time></trkpt><trkpt lat="46.140117" lon="9.3944504"><ele>217.14285714285717</ele><time>2026-03-25T08:15:17.107Z</time></trkpt><trkpt lat="46.140138" lon="9.3945462"><ele>216.71428571428572</ele><time>2026-03-25T08:15:18.108Z</time></trkpt><trkpt lat="46.140164" lon="9.3946344"><ele>216.28571428571428</ele><time>2026-03-25T08:15:19.108Z</time></trkpt><trkpt lat="46.1401923" lon="9.3947301"><ele>215.85714285714286</ele><time>2026-03-25T08:15:20.107Z</time></trkpt><trkpt lat="46.1402175" lon="9.3948325"><ele>215.42857142857142</ele><time>2026-03-25T08:15:21.107Z</time></trkpt><trkpt lat="46.140253" lon="9.3949219"><ele>215.0</ele><time>2026-03-25T08:15:22.107Z</time></trkpt><trkpt lat="46.1402938" lon="9.3950156"><ele>214.66666666666669</ele><time>2026-03-25T08:15:23.107Z</time></trkpt><trkpt lat="46.1403369" lon="9.3951119"><ele>214.33333333333334</ele><time>2026-03-25T08:15:24.107Z</time></trkpt><trkpt lat="46.1403793" lon="9.3952102"><ele>214.0</ele><time>2026-03-25T08:15:25.106Z</time></trkpt><trkpt lat="46.1404181" lon="9.3953157"><ele>213.66666666666669</ele><time>2026-03-25T08:15:26.107Z</time></trkpt><trkpt lat="46.1404575" lon="9.3954179"><ele>213.33333333333334</ele><time>2026-03-25T08:15:27.107Z</time></trkpt><trkpt lat="46.140497" lon="9.3955264"><ele>213.0</ele><time>2026-03-25T08:15:28.107Z</time></trkpt><trkpt lat="46.140541" lon="9.395639"><ele>212.66666666666666</ele><time>2026-03-25T08:15:29.107Z</time></trkpt><trkpt lat="46.1405839" lon="9.395747"><ele>212.33333333333331</ele><time>2026-03-25T08:15:30.108Z</time></trkpt><trkpt lat="46.1406303" lon="9.3958563"><ele>212.0</ele><time>2026-03-25T08:15:31.107Z</time></trkpt><trkpt lat="46.1406756" lon="9.395964"><ele>211.66666666666666</ele><time>2026-03-25T08:15:32.106Z</time></trkpt><trkpt lat="46.1407202" lon="9.3960706"><ele>211.33333333333331</ele><time>2026-03-25T08:15:33.107Z</time></trkpt><trkpt lat="46.1407638" lon="9.3961768"><ele>211.0</ele><time>2026-03-25T08:15:34.107Z</time></trkpt><trkpt lat="46.1408049" lon="9.3962861"><ele>210.66666666666666</ele><time>2026-03-25T08:15:35.107Z</time></trkpt><trkpt lat="46.1408464" lon="9.3963924"><ele>210.33333333333331</ele><time>2026-03-25T08:15:36.107Z</time></trkpt><trkpt lat="46.1408854" lon="9.3964901"><ele>210.0</ele><time>2026-03-25T08:15:37.107Z</time></trkpt><trkpt lat="46.1409243" lon="9.3965867"><ele>209.66666666666669</ele><time>2026-03-25T08:15:38.107Z</time></trkpt><trkpt lat="46.1409653" lon="9.3966794"><ele>209.33333333333334</ele><time>2026-03-25T08:15:39.108Z</time></trkpt><trkpt lat="46.1410014" lon="9.3967777"><ele>209.0</ele><time>2026-03-25T08:15:40.107Z</time></trkpt><trkpt lat="46.1410396" lon="9.3968747"><ele>209.00000000000003</ele><time>2026-03-25T08:15:41.107Z</time></trkpt><trkpt lat="46.1410831" lon="9.3969738"><ele>209.0</ele><time>2026-03-25T08:15:42.106Z</time></trkpt><trkpt lat="46.1411269" lon="9.3970776"><ele>209.0</ele><time>2026-03-25T08:15:43.106Z</time></trkpt><trkpt lat="46.1411685" lon="9.397183"><ele>209.0</ele><time>2026-03-25T08:15:44.107Z</time></trkpt><trkpt lat="46.1412103" lon="9.3972794"><ele>209.00000000000003</ele><time>2026-03-25T08:15:45.108Z</time></trkpt><trkpt lat="46.1412475" lon="9.397385"><ele>209.0</ele><time>2026-03-25T08:15:46.109Z</time></trkpt><trkpt lat="46.1412867" lon="9.3974842"><ele>208.83333333333334</ele><time>2026-03-25T08:15:47.108Z</time></trkpt><trkpt lat="46.1413253" lon="9.3975791"><ele>208.66666666666669</ele><time>2026-03-25T08:15:48.107Z</time></trkpt><trkpt lat="46.1413629" lon="9.397682"><ele>208.5</ele><time>2026-03-25T08:15:49.108Z</time></trkpt><trkpt lat="46.1413958" lon="9.3977818"><ele>208.33333333333331</ele><time>2026-03-25T08:15:50.108Z</time></trkpt><trkpt lat="46.1414286" lon="9.3978841"><ele>208.16666666666666</ele><time>2026-03-25T08:15:51.108Z</time></trkpt><trkpt lat="46.1414609" lon="9.3979849"><ele>208.0</ele><time>2026-03-25T08:15:52.107Z</time></trkpt><trkpt lat="46.1414912" lon="9.3980866"><ele>208.0</ele><time>2026-03-25T08:15:53.108Z</time></trkpt><trkpt lat="46.1415134" lon="9.3981762"><ele>208.0</ele><time>2026-03-25T08:15:54.108Z</time></trkpt><trkpt lat="46.1415426" lon="9.3983185"><ele>208.0</ele><time>2026-03-25T08:15:56.107Z</time></trkpt><trkpt lat="46.1415637" lon="9.398469"><ele>208.0</ele><time>2026-03-25T08:15:58.106Z</time></trkpt><trkpt lat="46.1415752" lon="9.3986295"><ele>208.0</ele><time>2026-03-25T08:16:00.107Z</time></trkpt><trkpt lat="46.1416019" lon="9.3988026"><ele>207.33333333333331</ele><time>2026-03-25T08:16:02.108Z</time></trkpt><trkpt lat="46.1416992" lon="9.3989087"><ele>206.66666666666666</ele><time>2026-03-25T08:16:04.106Z</time></trkpt><trkpt lat="46.1417624" lon="9.3989474"><ele>206.0</ele><time>2026-03-25T08:16:05.108Z</time></trkpt><trkpt lat="46.141821" lon="9.3989965"><ele>205.33333333333331</ele><time>2026-03-25T08:16:06.108Z</time></trkpt><trkpt lat="46.1418686" lon="9.3990602"><ele>204.66666666666666</ele><time>2026-03-25T08:16:07.107Z</time></trkpt><trkpt lat="46.1419051" lon="9.3991357"><ele>204.0</ele><time>2026-03-25T08:16:08.107Z</time></trkpt><trkpt lat="46.1419349" lon="9.3992163"><ele>204.0</ele><time>2026-03-25T08:16:09.107Z</time></trkpt><trkpt lat="46.1419624" lon="9.399304"><ele>204.0</ele><time>2026-03-25T08:16:10.108Z</time></trkpt><trkpt lat="46.1419916" lon="9.3993908"><ele>204.0</ele><time>2026-03-25T08:16:11.107Z</time></trkpt><trkpt lat="46.1420275" lon="9.3994842"><ele>204.0</ele><time>2026-03-25T08:16:12.108Z</time></trkpt><trkpt lat="46.1420611" lon="9.3995746"><ele>204.0</ele><time>2026-03-25T08:16:13.109Z</time></trkpt><trkpt lat="46.1420962" lon="9.3996695"><ele>204.0</ele><time>2026-03-25T08:16:14.106Z</time></trkpt><trkpt lat="46.1421297" lon="9.3997623"><ele>204.0</ele><time>2026-03-25T08:16:15.108Z</time></trkpt><trkpt lat="46.142162" lon="9.3998508"><ele>203.85714285714286</ele><time>2026-03-25T08:16:16.108Z</time></trkpt><trkpt lat="46.1421949" lon="9.3999426"><ele>203.71428571428572</ele><time>2026-03-25T08:16:17.108Z</time></trkpt><trkpt lat="46.1422299" lon="9.400037"><ele>203.57142857142856</ele><time>2026-03-25T08:16:18.108Z</time></trkpt><trkpt lat="46.1422651" lon="9.4001329"><ele>203.42857142857144</ele><time>2026-03-25T08:16:19.108Z</time></trkpt><trkpt lat="46.1423022" lon="9.4002269"><ele>203.28571428571428</ele><time>2026-03-25T08:16:20.107Z</time></trkpt><trkpt lat="46.1423387" lon="9.4003227"><ele>203.14285714285714</ele><time>2026-03-25T08:16:21.106Z</time></trkpt><trkpt lat="46.1423741" lon="9.4004164"><ele>203.0</ele><time>2026-03-25T08:16:22.107Z</time></trkpt><trkpt lat="46.1424114" lon="9.4005152"><ele>203.00000000000003</ele><time>2026-03-25T08:16:23.107Z</time></trkpt><trkpt lat="46.1424486" lon="9.4006175"><ele>203.0</ele><time>2026-03-25T08:16:24.107Z</time></trkpt><trkpt lat="46.1424857" lon="9.40072"><ele>203.0</ele><time>2026-03-25T08:16:25.108Z</time></trkpt><trkpt lat="46.1425214" lon="9.4008246"><ele>203.0</ele><time>2026-03-25T08:16:26.106Z</time></trkpt><trkpt lat="46.1425582" lon="9.4009291"><ele>203.00000000000003</ele><time>2026-03-25T08:16:27.108Z</time></trkpt><trkpt lat="46.1425927" lon="9.4010325"><ele>203.0</ele><time>2026-03-25T08:16:28.109Z</time></trkpt><trkpt lat="46.1426311" lon="9.4011341"><ele>203.00000000000003</ele><time>2026-03-25T08:16:29.107Z</time></trkpt><trkpt lat="46.1426689" lon="9.4012349"><ele>203.0</ele><time>2026-03-25T08:16:30.106Z</time></trkpt><trkpt lat="46.1427056" lon="9.4013412"><ele>203.0</ele><time>2026-03-25T08:16:31.107Z</time></trkpt><trkpt lat="46.1427422" lon="9.4014417"><ele>203.0</ele><time>2026-03-25T08:16:32.109Z</time></trkpt><trkpt lat="46.14278" lon="9.401547"><ele>203.00000000000003</ele><time>2026-03-25T08:16:33.107Z</time></trkpt><trkpt lat="46.1428156" lon="9.4016469"><ele>203.0</ele><time>2026-03-25T08:16:34.106Z</time></trkpt><trkpt lat="46.1428496" lon="9.4017519"><ele>202.83333333333334</ele><time>2026-03-25T08:16:35.107Z</time></trkpt><trkpt lat="46.142884" lon="9.4018604"><ele>202.66666666666669</ele><time>2026-03-25T08:16:36.108Z</time></trkpt><trkpt lat="46.1429175" lon="9.4019676"><ele>202.5</ele><time>2026-03-25T08:16:37.108Z</time></trkpt><trkpt lat="46.1429494" lon="9.4020679"><ele>202.33333333333331</ele><time>2026-03-25T08:16:38.107Z</time></trkpt><trkpt lat="46.1429803" lon="9.4021775"><ele>202.16666666666666</ele><time>2026-03-25T08:16:39.108Z</time></trkpt><trkpt lat="46.1430063" lon="9.4022867"><ele>202.0</ele><time>2026-03-25T08:16:40.108Z</time></trkpt><trkpt lat="46.1430305" lon="9.4023926"><ele>201.83333333333331</ele><time>2026-03-25T08:16:41.108Z</time></trkpt><trkpt lat="46.1430549" lon="9.4024899"><ele>201.66666666666666</ele><time>2026-03-25T08:16:42.107Z</time></trkpt><trkpt lat="46.143079" lon="9.4025852"><ele>201.5</ele><time>2026-03-25T08:16:43.108Z</time></trkpt><trkpt lat="46.1431029" lon="9.4026839"><ele>201.33333333333331</ele><time>2026-03-25T08:16:44.108Z</time></trkpt><trkpt lat="46.1431264" lon="9.4027853"><ele>201.16666666666666</ele><time>2026-03-25T08:16:45.108Z</time></trkpt><trkpt lat="46.1431589" lon="9.4029264"><ele>201.0</ele><time>2026-03-25T08:16:46.833Z</time></trkpt><trkpt lat="46.143195" lon="9.4031"><ele>201.5</ele><time>2026-03-25T08:16:48.107Z</time></trkpt><trkpt lat="46.1432165" lon="9.4032151"><ele>202.0</ele><time>2026-03-25T08:16:49.106Z</time></trkpt><trkpt lat="46.1432373" lon="9.4033258"><ele>202.5</ele><time>2026-03-25T08:16:50.107Z</time></trkpt><trkpt lat="46.1432549" lon="9.4034354"><ele>203.0</ele><time>2026-03-25T08:16:51.107Z</time></trkpt><trkpt lat="46.1432712" lon="9.4035409"><ele>203.5</ele><time>2026-03-25T08:16:52.107Z</time></trkpt><trkpt lat="46.1432859" lon="9.4036494"><ele>204.0</ele><time>2026-03-25T08:16:53.108Z</time></trkpt><trkpt lat="46.143302" lon="9.4037559"><ele>204.16666666666666</ele><time>2026-03-25T08:16:54.106Z</time></trkpt><trkpt lat="46.1433188" lon="9.4038592"><ele>204.33333333333331</ele><time>2026-03-25T08:16:55.108Z</time></trkpt><trkpt lat="46.1433403" lon="9.4040186"><ele>204.5</ele><time>2026-03-25T08:16:57.151Z</time></trkpt><trkpt lat="46.1433575" lon="9.4041543"><ele>204.66666666666666</ele><time>2026-03-25T08:16:58.107Z</time></trkpt><trkpt lat="46.1433726" lon="9.4042719"><ele>204.83333333333331</ele><time>2026-03-25T08:16:59.107Z</time></trkpt><trkpt lat="46.1433807" lon="9.4043827"><ele>205.0</ele><time>2026-03-25T08:17:00.107Z</time></trkpt><trkpt lat="46.1433909" lon="9.4044933"><ele>205.0</ele><time>2026-03-25T08:17:01.107Z</time></trkpt><trkpt lat="46.1434013" lon="9.4046048"><ele>205.0</ele><time>2026-03-25T08:17:02.106Z</time></trkpt><trkpt lat="46.1434089" lon="9.4047144"><ele>205.0</ele><time>2026-03-25T08:17:03.107Z</time></trkpt><trkpt lat="46.1434184" lon="9.4048212"><ele>205.0</ele><time>2026-03-25T08:17:04.107Z</time></trkpt><trkpt lat="46.143427" lon="9.4049236"><ele>205.0</ele><time>2026-03-25T08:17:05.108Z</time></trkpt><trkpt lat="46.1434339" lon="9.4050272"><ele>205.0</ele><time>2026-03-25T08:17:06.107Z</time></trkpt><trkpt lat="46.1434428" lon="9.4051307"><ele>205.0</ele><time>2026-03-25T08:17:07.106Z</time></trkpt><trkpt lat="46.1434532" lon="9.4052331"><ele>204.85714285714286</ele><time>2026-03-25T08:17:08.107Z</time></trkpt><trkpt lat="46.1434577" lon="9.4053367"><ele>204.7142857142857</ele><time>2026-03-25T08:17:09.108Z</time></trkpt><trkpt lat="46.1434635" lon="9.4054407"><ele>204.57142857142856</ele><time>2026-03-25T08:17:10.107Z</time></trkpt><trkpt lat="46.1434704" lon="9.4055438"><ele>204.42857142857144</ele><time>2026-03-25T08:17:11.107Z</time></trkpt><trkpt lat="46.1434769" lon="9.4056494"><ele>204.28571428571428</ele><time>2026-03-25T08:17:12.107Z</time></trkpt><trkpt lat="46.1434835" lon="9.4057549"><ele>204.14285714285714</ele><time>2026-03-25T08:17:13.107Z</time></trkpt><trkpt lat="46.1434917" lon="9.4058583"><ele>204.0</ele><time>2026-03-25T08:17:14.108Z</time></trkpt><trkpt lat="46.1434994" lon="9.4059596"><ele>203.66666666666666</ele><time>2026-03-25T08:17:15.107Z</time></trkpt><trkpt lat="46.1435093" lon="9.406053"><ele>203.33333333333331</ele><time>2026-03-25T08:17:16.106Z</time></trkpt><trkpt lat="46.1435264" lon="9.4061412"><ele>203.0</ele><time>2026-03-25T08:17:17.106Z</time></trkpt><trkpt lat="46.1435527" lon="9.4063076"><ele>202.66666666666666</ele><time>2026-03-25T08:17:19.109Z</time></trkpt><trkpt lat="46.143561" lon="9.4064844"><ele>202.33333333333331</ele><time>2026-03-25T08:17:21.108Z</time></trkpt><trkpt lat="46.1435631" lon="9.4065785"><ele>202.0</ele><time>2026-03-25T08:17:22.107Z</time></trkpt><trkpt lat="46.1435708" lon="9.4066711"><ele>202.0</ele><time>2026-03-25T08:17:23.108Z</time></trkpt><trkpt lat="46.1435963" lon="9.4068464"><ele>202.0</ele><time>2026-03-25T08:17:25.109Z</time></trkpt><trkpt lat="46.1436365" lon="9.4070154"><ele>202.0</ele><time>2026-03-25T08:17:27.108Z</time></trkpt><trkpt lat="46.1436479" lon="9.4071123"><ele>202.0</ele><time>2026-03-25T08:17:28.108Z</time></trkpt><trkpt lat="46.1436491" lon="9.4072089"><ele>202.0</ele><time>2026-03-25T08:17:29.107Z</time></trkpt><trkpt lat="46.1436511" lon="9.4073857"><ele>202.0</ele><time>2026-03-25T08:17:31.108Z</time></trkpt><trkpt lat="46.1436943" lon="9.4075264"><ele>202.0</ele><time>2026-03-25T08:17:33.109Z</time></trkpt><trkpt lat="46.1438004" lon="9.4076073"><ele>202.0</ele><time>2026-03-25T08:17:35.107Z</time></trkpt><trkpt lat="46.1439183" lon="9.4075894"><ele>202.0</ele><time>2026-03-25T08:17:37.107Z</time></trkpt><trkpt lat="46.1440084" lon="9.4074836"><ele>202.0</ele><time>2026-03-25T08:17:39.108Z</time></trkpt><trkpt lat="46.1440456" lon="9.4073262"><ele>202.0</ele><time>2026-03-25T08:17:41.107Z</time></trkpt><trkpt lat="46.1440454" lon="9.4071727"><ele>202.0</ele><time>2026-03-25T08:17:43.106Z</time></trkpt><trkpt lat="46.14409" lon="9.407031"><ele>202.0</ele><time>2026-03-25T08:17:45.109Z</time></trkpt><trkpt lat="46.1441775" lon="9.4069383"><ele>202.0</ele><time>2026-03-25T08:17:47.108Z</time></trkpt><trkpt lat="46.1442975" lon="9.406896"><ele>202.0</ele><time>2026-03-25T08:17:49.108Z</time></trkpt><trkpt lat="46.1444177" lon="9.4068946"><ele>202.0</ele><time>2026-03-25T08:17:51.109Z</time></trkpt><trkpt lat="46.1445413" lon="9.4068965"><ele>202.0</ele><time>2026-03-25T08:17:53.109Z</time></trkpt><trkpt lat="46.1446634" lon="9.4068815"><ele>202.0</ele><time>2026-03-25T08:17:55.108Z</time></trkpt><trkpt lat="46.1447781" lon="9.4069131"><ele>202.0</ele><time>2026-03-25T08:17:57.108Z</time></trkpt><trkpt lat="46.1448584" lon="9.4070237"><ele>202.0</ele><time>2026-03-25T08:17:59.107Z</time></trkpt><trkpt lat="46.1448858" lon="9.4071786"><ele>202.0</ele><time>2026-03-25T08:18:01.107Z</time></trkpt><trkpt lat="46.1449101" lon="9.407345"><ele>202.0</ele><time>2026-03-25T08:18:03.108Z</time></trkpt><trkpt lat="46.1449425" lon="9.4075107"><ele>201.75</ele><time>2026-03-25T08:18:05.107Z</time></trkpt><trkpt lat="46.1449696" lon="9.4076777"><ele>201.5</ele><time>2026-03-25T08:18:07.108Z</time></trkpt><trkpt lat="46.1449991" lon="9.4078513"><ele>201.25</ele><time>2026-03-25T08:18:09.106Z</time></trkpt><trkpt lat="46.1450225" lon="9.408025"><ele>201.0</ele><time>2026-03-25T08:18:11.106Z</time></trkpt><trkpt lat="46.1450547" lon="9.4081997"><ele>201.0</ele><time>2026-03-25T08:18:13.109Z</time></trkpt><trkpt lat="46.145072" lon="9.4082923"><ele>201.0</ele><time>2026-03-25T08:18:14.108Z</time></trkpt><trkpt lat="46.1450858" lon="9.4083856"><ele>201.0</ele><time>2026-03-25T08:18:15.107Z</time></trkpt><trkpt lat="46.145111" lon="9.4085642"><ele>201.0</ele><time>2026-03-25T08:18:17.108Z</time></trkpt><trkpt lat="46.1451359" lon="9.4087461"><ele>201.0</ele><time>2026-03-25T08:18:19.106Z</time></trkpt><trkpt lat="46.1451509" lon="9.4088352"><ele>201.0</ele><time>2026-03-25T08:18:20.108Z</time></trkpt><trkpt lat="46.1451767" lon="9.4090064"><ele>201.0</ele><time>2026-03-25T08:18:22.108Z</time></trkpt><trkpt lat="46.1451999" lon="9.4091802"><ele>201.0</ele><time>2026-03-25T08:18:24.108Z</time></trkpt><trkpt lat="46.1452244" lon="9.4093556"><ele>201.0</ele><time>2026-03-25T08:18:26.108Z</time></trkpt><trkpt lat="46.1452504" lon="9.4095341"><ele>201.0</ele><time>2026-03-25T08:18:28.108Z</time></trkpt><trkpt lat="46.1452642" lon="9.4096292"><ele>201.0</ele><time>2026-03-25T08:18:29.109Z</time></trkpt><trkpt lat="46.1452745" lon="9.409722"><ele>201.0</ele><time>2026-03-25T08:18:30.108Z</time></trkpt><trkpt lat="46.1452855" lon="9.4098118"><ele>201.0</ele><time>2026-03-25T08:18:31.106Z</time></trkpt><trkpt lat="46.1452946" lon="9.4099027"><ele>201.0</ele><time>2026-03-25T08:18:32.109Z</time></trkpt><trkpt lat="46.1453028" lon="9.4099995"><ele>201.0</ele><time>2026-03-25T08:18:33.108Z</time></trkpt><trkpt lat="46.1453095" lon="9.4100911"><ele>201.0</ele><time>2026-03-25T08:18:34.108Z</time></trkpt><trkpt lat="46.1453167" lon="9.4101851"><ele>201.0</ele><time>2026-03-25T08:18:35.107Z</time></trkpt><trkpt lat="46.1453336" lon="9.4103671"><ele>201.0</ele><time>2026-03-25T08:18:37.109Z</time></trkpt><trkpt lat="46.1453383" lon="9.4104619"><ele>201.0</ele><time>2026-03-25T08:18:38.108Z</time></trkpt><trkpt lat="46.1453397" lon="9.4105549"><ele>201.0</ele><time>2026-03-25T08:18:39.108Z</time></trkpt><trkpt lat="46.1453426" lon="9.4106466"><ele>201.0</ele><time>2026-03-25T08:18:40.108Z</time></trkpt><trkpt lat="46.1453453" lon="9.4108182"><ele>201.0</ele><time>2026-03-25T08:18:42.108Z</time></trkpt><trkpt lat="46.1453509" lon="9.4109862"><ele>201.0</ele><time>2026-03-25T08:18:44.108Z</time></trkpt><trkpt lat="46.1453563" lon="9.4111412"><ele>201.0</ele><time>2026-03-25T08:18:46.108Z</time></trkpt><trkpt lat="46.145366" lon="9.4113015"><ele>201.0</ele><time>2026-03-25T08:18:48.108Z</time></trkpt><trkpt lat="46.145374" lon="9.4114553"><ele>201.0</ele><time>2026-03-25T08:18:50.107Z</time></trkpt><trkpt lat="46.1453731" lon="9.4116015"><ele>201.0</ele><time>2026-03-25T08:18:52.108Z</time></trkpt><trkpt lat="46.1453658" lon="9.4117305"><ele>201.33333333333334</ele><time>2026-03-25T08:18:54.108Z</time></trkpt><trkpt lat="46.1453777" lon="9.4118464"><ele>201.66666666666669</ele><time>2026-03-25T08:18:56.108Z</time></trkpt><trkpt lat="46.1454415" lon="9.4118655"><ele>202.0</ele><time>2026-03-25T08:18:58.107Z</time></trkpt><trkpt lat="46.1455158" lon="9.4118581"><ele>202.33333333333334</ele><time>2026-03-25T08:19:00.109Z</time></trkpt><trkpt lat="46.1455952" lon="9.4118496"><ele>202.66666666666669</ele><time>2026-03-25T08:19:02.107Z</time></trkpt><trkpt lat="46.1456925" lon="9.4118264"><ele>203.0</ele><time>2026-03-25T08:19:04.108Z</time></trkpt><trkpt lat="46.1457899" lon="9.4118469"><ele>203.0</ele><time>2026-03-25T08:19:06.108Z</time></trkpt><trkpt lat="46.1458908" lon="9.4118407"><ele>203.0</ele><time>2026-03-25T08:19:08.109Z</time></trkpt><trkpt lat="46.1459799" lon="9.411777"><ele>203.0</ele><time>2026-03-25T08:19:10.108Z</time></trkpt><trkpt lat="46.1460878" lon="9.411735"><ele>203.0</ele><time>2026-03-25T08:19:12.107Z</time></trkpt><trkpt lat="46.1461958" lon="9.4117897"><ele>203.0</ele><time>2026-03-25T08:19:14.108Z</time></trkpt><trkpt lat="46.1462546" lon="9.4118257"><ele>203.0</ele><time>2026-03-25T08:19:15.108Z</time></trkpt><trkpt lat="46.1463678" lon="9.4118814"><ele>203.0</ele><time>2026-03-25T08:19:17.109Z</time></trkpt><trkpt lat="46.1464316" lon="9.411905"><ele>203.0</ele><time>2026-03-25T08:19:18.108Z</time></trkpt><trkpt lat="46.1465516" lon="9.4119358"><ele>203.0</ele><time>2026-03-25T08:19:20.108Z</time></trkpt><trkpt lat="46.1466671" lon="9.4119461"><ele>203.0</ele><time>2026-03-25T08:19:22.108Z</time></trkpt><trkpt lat="46.1467816" lon="9.4119703"><ele>203.4</ele><time>2026-03-25T08:19:24.108Z</time></trkpt><trkpt lat="46.1468848" lon="9.4119668"><ele>203.8</ele><time>2026-03-25T08:19:26.108Z</time></trkpt><trkpt lat="46.1469891" lon="9.4119525"><ele>204.2</ele><time>2026-03-25T08:19:28.108Z</time></trkpt><trkpt lat="46.1470886" lon="9.4119362"><ele>204.6</ele><time>2026-03-25T08:19:30.108Z</time></trkpt><trkpt lat="46.1471825" lon="9.4119204"><ele>205.0</ele><time>2026-03-25T08:19:32.107Z</time></trkpt><trkpt lat="46.1472726" lon="9.4118918"><ele>204.99999999999997</ele><time>2026-03-25T08:19:34.109Z</time></trkpt><trkpt lat="46.1473552" lon="9.4118734"><ele>205.0</ele><time>2026-03-25T08:19:36.109Z</time></trkpt><trkpt lat="46.1474199" lon="9.4119049"><ele>205.0</ele><time>2026-03-25T08:19:38.109Z</time></trkpt><trkpt lat="46.147467" lon="9.4119817"><ele>205.0</ele><time>2026-03-25T08:19:40.108Z</time></trkpt><trkpt lat="46.1474667" lon="9.4120818"><ele>204.99999999999997</ele><time>2026-03-25T08:19:42.108Z</time></trkpt><trkpt lat="46.1474215" lon="9.4122013"><ele>205.0</ele><time>2026-03-25T08:19:44.214Z</time></trkpt><trkpt lat="46.1473732" lon="9.4123051"><ele>205.0</ele><time>2026-03-25T08:19:46.213Z</time></trkpt><trkpt lat="46.1473732" lon="9.4124539"><ele>205.0</ele><time>2026-03-25T08:19:48.108Z</time></trkpt><trkpt lat="46.1473787" lon="9.4126105"><ele>205.0</ele><time>2026-03-25T08:19:50.108Z</time></trkpt><trkpt lat="46.1474255" lon="9.4127433"><ele>205.0</ele><time>2026-03-25T08:19:52.108Z</time></trkpt><trkpt lat="46.1475211" lon="9.4128336"><ele>205.0</ele><time>2026-03-25T08:19:54.109Z</time></trkpt><trkpt lat="46.147635" lon="9.4128385"><ele>205.0</ele><time>2026-03-25T08:19:56.108Z</time></trkpt><trkpt lat="46.1477344" lon="9.4127607"><ele>205.0</ele><time>2026-03-25T08:19:58.109Z</time></trkpt><trkpt lat="46.1478107" lon="9.4126562"><ele>205.0</ele><time>2026-03-25T08:20:00.107Z</time></trkpt><trkpt lat="46.1478783" lon="9.4125402"><ele>205.0</ele><time>2026-03-25T08:20:02.107Z</time></trkpt><trkpt lat="46.1479735" lon="9.4124428"><ele>205.0</ele><time>2026-03-25T08:20:04.109Z</time></trkpt><trkpt lat="46.1480343" lon="9.4124091"><ele>204.99999999999997</ele><time>2026-03-25T08:20:05.109Z</time></trkpt><trkpt lat="46.1480965" lon="9.4123894"><ele>205.0</ele><time>2026-03-25T08:20:06.108Z</time></trkpt><trkpt lat="46.1481594" lon="9.4123781"><ele>205.0</ele><time>2026-03-25T08:20:07.108Z</time></trkpt><trkpt lat="46.1482238" lon="9.4123683"><ele>205.0</ele><time>2026-03-25T08:20:08.11Z</time></trkpt><trkpt lat="46.1483446" lon="9.4123489"><ele>204.99999999999997</ele><time>2026-03-25T08:20:10.109Z</time></trkpt><trkpt lat="46.1484659" lon="9.4123491"><ele>205.0</ele><time>2026-03-25T08:20:12.109Z</time></trkpt><trkpt lat="46.1485298" lon="9.4123483"><ele>204.83333333333331</ele><time>2026-03-25T08:20:13.108Z</time></trkpt><trkpt lat="46.1485935" lon="9.4123555"><ele>204.66666666666666</ele><time>2026-03-25T08:20:14.108Z</time></trkpt><trkpt lat="46.1486586" lon="9.4123601"><ele>204.5</ele><time>2026-03-25T08:20:15.109Z</time></trkpt><trkpt lat="46.1487218" lon="9.4123651"><ele>204.33333333333331</ele><time>2026-03-25T08:20:16.108Z</time></trkpt><trkpt lat="46.1488402" lon="9.4123771"><ele>204.16666666666666</ele><time>2026-03-25T08:20:18.108Z</time></trkpt><trkpt lat="46.1489567" lon="9.4123885"><ele>204.0</ele><time>2026-03-25T08:20:20.109Z</time></trkpt><trkpt lat="46.1490773" lon="9.4124018"><ele>203.75</ele><time>2026-03-25T08:20:22.109Z</time></trkpt><trkpt lat="46.1491903" lon="9.4124208"><ele>203.5</ele><time>2026-03-25T08:20:24.108Z</time></trkpt><trkpt lat="46.1493086" lon="9.4124277"><ele>203.25</ele><time>2026-03-25T08:20:26.108Z</time></trkpt><trkpt lat="46.1494224" lon="9.4124301"><ele>203.0</ele><time>2026-03-25T08:20:28.108Z</time></trkpt><trkpt lat="46.1495386" lon="9.4124318"><ele>203.0</ele><time>2026-03-25T08:20:30.107Z</time></trkpt><trkpt lat="46.1496603" lon="9.4124378"><ele>203.0</ele><time>2026-03-25T08:20:32.107Z</time></trkpt><trkpt lat="46.1497792" lon="9.4124448"><ele>203.0</ele><time>2026-03-25T08:20:34.107Z</time></trkpt><trkpt lat="46.1498959" lon="9.4124538"><ele>203.0</ele><time>2026-03-25T08:20:36.107Z</time></trkpt><trkpt lat="46.1500152" lon="9.4124603"><ele>201.25</ele><time>2026-03-25T08:20:38.108Z</time></trkpt><trkpt lat="46.1501323" lon="9.4124717"><ele>199.5</ele><time>2026-03-25T08:20:40.108Z</time></trkpt><trkpt lat="46.1502453" lon="9.4124872"><ele>197.75</ele><time>2026-03-25T08:20:42.109Z</time></trkpt><trkpt lat="46.1503604" lon="9.4125067"><ele>196.0</ele><time>2026-03-25T08:20:44.109Z</time></trkpt><trkpt lat="46.1504673" lon="9.4125303"><ele>195.99999999999997</ele><time>2026-03-25T08:20:46.109Z</time></trkpt><trkpt lat="46.1505756" lon="9.4125602"><ele>196.0</ele><time>2026-03-25T08:20:48.108Z</time></trkpt><trkpt lat="46.1506966" lon="9.4126053"><ele>196.0</ele><time>2026-03-25T08:20:50.11Z</time></trkpt><trkpt lat="46.1507576" lon="9.4126317"><ele>196.0</ele><time>2026-03-25T08:20:51.109Z</time></trkpt><trkpt lat="46.1508172" lon="9.4126647"><ele>195.99999999999997</ele><time>2026-03-25T08:20:52.11Z</time></trkpt><trkpt lat="46.1508774" lon="9.4126972"><ele>196.0</ele><time>2026-03-25T08:20:53.108Z</time></trkpt><trkpt lat="46.1509953" lon="9.4127721"><ele>196.71428571428572</ele><time>2026-03-25T08:20:55.108Z</time></trkpt><trkpt lat="46.1510522" lon="9.4128223"><ele>197.42857142857144</ele><time>2026-03-25T08:20:56.109Z</time></trkpt><trkpt lat="46.1511093" lon="9.4128755"><ele>198.14285714285714</ele><time>2026-03-25T08:20:57.11Z</time></trkpt><trkpt lat="46.1511703" lon="9.4129302"><ele>198.85714285714286</ele><time>2026-03-25T08:20:58.108Z</time></trkpt><trkpt lat="46.1512308" lon="9.4129836"><ele>199.57142857142858</ele><time>2026-03-25T08:20:59.109Z</time></trkpt><trkpt lat="46.1512896" lon="9.4130404"><ele>200.28571428571428</ele><time>2026-03-25T08:21:00.107Z</time></trkpt><trkpt lat="46.1513482" lon="9.4131032"><ele>201.0</ele><time>2026-03-25T08:21:01.109Z</time></trkpt><trkpt lat="46.1514053" lon="9.4131623"><ele>201.0</ele><time>2026-03-25T08:21:02.109Z</time></trkpt><trkpt lat="46.1514649" lon="9.4132178"><ele>201.0</ele><time>2026-03-25T08:21:03.109Z</time></trkpt><trkpt lat="46.1515286" lon="9.4132717"><ele>201.0</ele><time>2026-03-25T08:21:04.109Z</time></trkpt><trkpt lat="46.151588" lon="9.4133315"><ele>201.0</ele><time>2026-03-25T08:21:05.108Z</time></trkpt><trkpt lat="46.1516523" lon="9.4133928"><ele>201.0</ele><time>2026-03-25T08:21:06.109Z</time></trkpt><trkpt lat="46.1517152" lon="9.4134505"><ele>201.0</ele><time>2026-03-25T08:21:07.11Z</time></trkpt><trkpt lat="46.1517834" lon="9.4135072"><ele>201.0</ele><time>2026-03-25T08:21:08.108Z</time></trkpt><trkpt lat="46.1518522" lon="9.4135614"><ele>200.66666666666666</ele><time>2026-03-25T08:21:09.109Z</time></trkpt><trkpt lat="46.1519168" lon="9.4136222"><ele>200.33333333333331</ele><time>2026-03-25T08:21:10.109Z</time></trkpt><trkpt lat="46.1519793" lon="9.4136837"><ele>200.0</ele><time>2026-03-25T08:21:11.109Z</time></trkpt><trkpt lat="46.1520452" lon="9.4137447"><ele>199.66666666666666</ele><time>2026-03-25T08:21:12.11Z</time></trkpt><trkpt lat="46.1521088" lon="9.4138077"><ele>199.33333333333331</ele><time>2026-03-25T08:21:13.108Z</time></trkpt><trkpt lat="46.1521729" lon="9.4138678"><ele>199.0</ele><time>2026-03-25T08:21:14.109Z</time></trkpt><trkpt lat="46.1522324" lon="9.413929"><ele>198.83333333333331</ele><time>2026-03-25T08:21:15.109Z</time></trkpt><trkpt lat="46.1522932" lon="9.413992"><ele>198.66666666666666</ele><time>2026-03-25T08:21:16.109Z</time></trkpt><trkpt lat="46.1523588" lon="9.414057"><ele>198.5</ele><time>2026-03-25T08:21:17.109Z</time></trkpt><trkpt lat="46.152418" lon="9.4141175"><ele>198.33333333333331</ele><time>2026-03-25T08:21:18.109Z</time></trkpt><trkpt lat="46.1524801" lon="9.4141771"><ele>198.16666666666666</ele><time>2026-03-25T08:21:19.11Z</time></trkpt><trkpt lat="46.1525431" lon="9.4142396"><ele>198.0</ele><time>2026-03-25T08:21:20.11Z</time></trkpt><trkpt lat="46.1526033" lon="9.414301"><ele>198.14285714285714</ele><time>2026-03-25T08:21:21.11Z</time></trkpt><trkpt lat="46.1526631" lon="9.4143588"><ele>198.28571428571428</ele><time>2026-03-25T08:21:22.109Z</time></trkpt><trkpt lat="46.1527236" lon="9.4144153"><ele>198.42857142857142</ele><time>2026-03-25T08:21:23.109Z</time></trkpt><trkpt lat="46.1527808" lon="9.4144753"><ele>198.57142857142856</ele><time>2026-03-25T08:21:24.11Z</time></trkpt><trkpt lat="46.1528438" lon="9.4145345"><ele>198.71428571428572</ele><time>2026-03-25T08:21:25.109Z</time></trkpt><trkpt lat="46.152904" lon="9.4145944"><ele>198.85714285714283</ele><time>2026-03-25T08:21:26.108Z</time></trkpt><trkpt lat="46.1529606" lon="9.4146499"><ele>199.0</ele><time>2026-03-25T08:21:27.108Z</time></trkpt><trkpt lat="46.1530162" lon="9.4147078"><ele>198.99999999999997</ele><time>2026-03-25T08:21:28.108Z</time></trkpt><trkpt lat="46.1530747" lon="9.414763"><ele>199.0</ele><time>2026-03-25T08:21:29.108Z</time></trkpt><trkpt lat="46.1531318" lon="9.414822"><ele>199.0</ele><time>2026-03-25T08:21:30.107Z</time></trkpt><trkpt lat="46.1531891" lon="9.4148814"><ele>199.0</ele><time>2026-03-25T08:21:31.109Z</time></trkpt><trkpt lat="46.1532475" lon="9.4149414"><ele>199.0</ele><time>2026-03-25T08:21:32.108Z</time></trkpt><trkpt lat="46.1533078" lon="9.414998"><ele>198.99999999999997</ele><time>2026-03-25T08:21:33.109Z</time></trkpt><trkpt lat="46.153363" lon="9.4150532"><ele>199.0</ele><time>2026-03-25T08:21:34.109Z</time></trkpt><trkpt lat="46.1534224" lon="9.415111"><ele>199.14285714285714</ele><time>2026-03-25T08:21:35.11Z</time></trkpt><trkpt lat="46.1534834" lon="9.4151716"><ele>199.28571428571428</ele><time>2026-03-25T08:21:36.108Z</time></trkpt><trkpt lat="46.1535415" lon="9.4152283"><ele>199.42857142857144</ele><time>2026-03-25T08:21:37.11Z</time></trkpt><trkpt lat="46.1536008" lon="9.4152838"><ele>199.57142857142856</ele><time>2026-03-25T08:21:38.107Z</time></trkpt><trkpt lat="46.1536574" lon="9.4153421"><ele>199.71428571428572</ele><time>2026-03-25T08:21:39.109Z</time></trkpt><trkpt lat="46.1537167" lon="9.4154017"><ele>199.85714285714286</ele><time>2026-03-25T08:21:40.109Z</time></trkpt><trkpt lat="46.1537769" lon="9.4154587"><ele>200.0</ele><time>2026-03-25T08:21:41.11Z</time></trkpt><trkpt lat="46.1538347" lon="9.4155153"><ele>200.00000000000003</ele><time>2026-03-25T08:21:42.108Z</time></trkpt><trkpt lat="46.1538942" lon="9.4155762"><ele>200.0</ele><time>2026-03-25T08:21:43.11Z</time></trkpt><trkpt lat="46.1539544" lon="9.4156361"><ele>200.0</ele><time>2026-03-25T08:21:44.11Z</time></trkpt><trkpt lat="46.1540145" lon="9.4156922"><ele>200.0</ele><time>2026-03-25T08:21:45.11Z</time></trkpt><trkpt lat="46.1540758" lon="9.4157458"><ele>200.0</ele><time>2026-03-25T08:21:46.109Z</time></trkpt><trkpt lat="46.1541357" lon="9.4157997"><ele>200.00000000000003</ele><time>2026-03-25T08:21:47.11Z</time></trkpt><trkpt lat="46.1541931" lon="9.4158642"><ele>200.0</ele><time>2026-03-25T08:21:48.107Z</time></trkpt><trkpt lat="46.1542522" lon="9.4159213"><ele>200.2857142857143</ele><time>2026-03-25T08:21:49.108Z</time></trkpt><trkpt lat="46.15431" lon="9.415975"><ele>200.57142857142858</ele><time>2026-03-25T08:21:50.108Z</time></trkpt><trkpt lat="46.1543668" lon="9.4160265"><ele>200.85714285714286</ele><time>2026-03-25T08:21:51.109Z</time></trkpt><trkpt lat="46.1544182" lon="9.4160816"><ele>201.14285714285717</ele><time>2026-03-25T08:21:52.108Z</time></trkpt><trkpt lat="46.1544705" lon="9.4161347"><ele>201.42857142857142</ele><time>2026-03-25T08:21:53.108Z</time></trkpt><trkpt lat="46.1545236" lon="9.4161837"><ele>201.71428571428572</ele><time>2026-03-25T08:21:54.108Z</time></trkpt><trkpt lat="46.1545759" lon="9.4162373"><ele>202.0</ele><time>2026-03-25T08:21:55.109Z</time></trkpt><trkpt lat="46.154632" lon="9.4162908"><ele>202.0</ele><time>2026-03-25T08:21:56.11Z</time></trkpt><trkpt lat="46.1546888" lon="9.4163478"><ele>202.0</ele><time>2026-03-25T08:21:57.11Z</time></trkpt><trkpt lat="46.1547497" lon="9.4164038"><ele>202.0</ele><time>2026-03-25T08:21:58.109Z</time></trkpt><trkpt lat="46.1548108" lon="9.4164595"><ele>202.0</ele><time>2026-03-25T08:21:59.108Z</time></trkpt><trkpt lat="46.1548646" lon="9.4165174"><ele>202.0</ele><time>2026-03-25T08:22:00.109Z</time></trkpt><trkpt lat="46.1549211" lon="9.4165749"><ele>202.0</ele><time>2026-03-25T08:22:01.109Z</time></trkpt><trkpt lat="46.154976" lon="9.4166319"><ele>202.0</ele><time>2026-03-25T08:22:02.107Z</time></trkpt><trkpt lat="46.1550305" lon="9.4166861"><ele>201.71428571428572</ele><time>2026-03-25T08:22:03.108Z</time></trkpt><trkpt lat="46.1550885" lon="9.4167347"><ele>201.42857142857142</ele><time>2026-03-25T08:22:04.11Z</time></trkpt><trkpt lat="46.1551431" lon="9.4167803"><ele>201.14285714285717</ele><time>2026-03-25T08:22:05.109Z</time></trkpt><trkpt lat="46.1551964" lon="9.4168305"><ele>200.85714285714286</ele><time>2026-03-25T08:22:06.108Z</time></trkpt><trkpt lat="46.1552499" lon="9.4168877"><ele>200.57142857142858</ele><time>2026-03-25T08:22:07.109Z</time></trkpt><trkpt lat="46.1553048" lon="9.4169463"><ele>200.2857142857143</ele><time>2026-03-25T08:22:08.109Z</time></trkpt><trkpt lat="46.1553607" lon="9.4170007"><ele>200.0</ele><time>2026-03-25T08:22:09.108Z</time></trkpt><trkpt lat="46.1554111" lon="9.4170573"><ele>200.0</ele><time>2026-03-25T08:22:10.108Z</time></trkpt><trkpt lat="46.1555104" lon="9.4171613"><ele>200.0</ele><time>2026-03-25T08:22:12.108Z</time></trkpt><trkpt lat="46.1556149" lon="9.4172584"><ele>200.0</ele><time>2026-03-25T08:22:14.108Z</time></trkpt><trkpt lat="46.1556708" lon="9.41731"><ele>200.0</ele><time>2026-03-25T08:22:15.11Z</time></trkpt><trkpt lat="46.1557236" lon="9.4173632"><ele>200.0</ele><time>2026-03-25T08:22:16.109Z</time></trkpt><trkpt lat="46.1558262" lon="9.4174668"><ele>200.00000000000003</ele><time>2026-03-25T08:22:18.108Z</time></trkpt><trkpt lat="46.155887" lon="9.4175186"><ele>200.0</ele><time>2026-03-25T08:22:19.109Z</time></trkpt><trkpt lat="46.1559475" lon="9.4175718"><ele>200.0</ele><time>2026-03-25T08:22:20.109Z</time></trkpt><trkpt lat="46.1560016" lon="9.4176261"><ele>200.0</ele><time>2026-03-25T08:22:21.109Z</time></trkpt><trkpt lat="46.15606" lon="9.4176847"><ele>200.0</ele><time>2026-03-25T08:22:22.108Z</time></trkpt><trkpt lat="46.1561153" lon="9.4177349"><ele>200.00000000000003</ele><time>2026-03-25T08:22:23.11Z</time></trkpt><trkpt lat="46.1561713" lon="9.4177872"><ele>200.0</ele><time>2026-03-25T08:22:24.109Z</time></trkpt><trkpt lat="46.1562232" lon="9.41784"><ele>200.00000000000003</ele><time>2026-03-25T08:22:25.109Z</time></trkpt><trkpt lat="46.1562767" lon="9.4178941"><ele>200.0</ele><time>2026-03-25T08:22:26.109Z</time></trkpt><trkpt lat="46.1563754" lon="9.4179926"><ele>200.0</ele><time>2026-03-25T08:22:28.108Z</time></trkpt><trkpt lat="46.1564266" lon="9.4180471"><ele>200.0</ele><time>2026-03-25T08:22:29.11Z</time></trkpt><trkpt lat="46.1564806" lon="9.4180961"><ele>200.00000000000003</ele><time>2026-03-25T08:22:30.109Z</time></trkpt><trkpt lat="46.1565341" lon="9.4181475"><ele>200.0</ele><time>2026-03-25T08:22:31.109Z</time></trkpt><trkpt lat="46.1566366" lon="9.418248"><ele>199.8</ele><time>2026-03-25T08:22:33.109Z</time></trkpt><trkpt lat="46.1566899" lon="9.4183003"><ele>199.6</ele><time>2026-03-25T08:22:34.11Z</time></trkpt><trkpt lat="46.1567929" lon="9.4184021"><ele>199.39999999999998</ele><time>2026-03-25T08:22:36.11Z</time></trkpt><trkpt lat="46.1568681" lon="9.4185309"><ele>199.2</ele><time>2026-03-25T08:22:38.109Z</time></trkpt><trkpt lat="46.156902" lon="9.4186846"><ele>199.0</ele><time>2026-03-25T08:22:40.108Z</time></trkpt><trkpt lat="46.1569726" lon="9.4187987"><ele>199.0</ele><time>2026-03-25T08:22:42.11Z</time></trkpt><trkpt lat="46.1570721" lon="9.4188534"><ele>199.0</ele><time>2026-03-25T08:22:44.11Z</time></trkpt><trkpt lat="46.1571846" lon="9.4188713"><ele>199.0</ele><time>2026-03-25T08:22:46.109Z</time></trkpt><trkpt lat="46.157297" lon="9.4189295"><ele>199.0</ele><time>2026-03-25T08:22:48.109Z</time></trkpt><trkpt lat="46.1574013" lon="9.4190076"><ele>199.25</ele><time>2026-03-25T08:22:50.109Z</time></trkpt><trkpt lat="46.1574989" lon="9.4190981"><ele>199.5</ele><time>2026-03-25T08:22:52.11Z</time></trkpt><trkpt lat="46.1576036" lon="9.4191902"><ele>199.75</ele><time>2026-03-25T08:22:54.11Z</time></trkpt><trkpt lat="46.157706" lon="9.419293"><ele>200.0</ele><time>2026-03-25T08:22:56.109Z</time></trkpt><trkpt lat="46.1578079" lon="9.4193925"><ele>200.0</ele><time>2026-03-25T08:22:58.109Z</time></trkpt><trkpt lat="46.1578594" lon="9.4194471"><ele>200.0</ele><time>2026-03-25T08:22:59.109Z</time></trkpt><trkpt lat="46.1579652" lon="9.4195452"><ele>200.0</ele><time>2026-03-25T08:23:01.11Z</time></trkpt><trkpt lat="46.1580188" lon="9.4195959"><ele>200.0</ele><time>2026-03-25T08:23:02.11Z</time></trkpt><trkpt lat="46.1581151" lon="9.41969"><ele>200.0</ele><time>2026-03-25T08:23:04.108Z</time></trkpt><trkpt lat="46.1582041" lon="9.4197811"><ele>200.0</ele><time>2026-03-25T08:23:06.109Z</time></trkpt><trkpt lat="46.15829" lon="9.4198741"><ele>200.0</ele><time>2026-03-25T08:23:08.109Z</time></trkpt><trkpt lat="46.1583487" lon="9.4199682"><ele>200.0</ele><time>2026-03-25T08:23:10.108Z</time></trkpt><trkpt lat="46.1583278" lon="9.4201024"><ele>200.0</ele><time>2026-03-25T08:23:12.11Z</time></trkpt><trkpt lat="46.1582561" lon="9.4202097"><ele>200.0</ele><time>2026-03-25T08:23:14.11Z</time></trkpt><trkpt lat="46.1581806" lon="9.4203115"><ele>200.0</ele><time>2026-03-25T08:23:16.11Z</time></trkpt><trkpt lat="46.1580996" lon="9.4204235"><ele>200.0</ele><time>2026-03-25T08:23:18.108Z</time></trkpt><trkpt lat="46.1580083" lon="9.4205234"><ele>200.0</ele><time>2026-03-25T08:23:20.11Z</time></trkpt><trkpt lat="46.1579175" lon="9.4206257"><ele>200.0</ele><time>2026-03-25T08:23:22.11Z</time></trkpt><trkpt lat="46.1578287" lon="9.420743"><ele>199.85714285714286</ele><time>2026-03-25T08:23:24.109Z</time></trkpt><trkpt lat="46.1577287" lon="9.4208465"><ele>199.71428571428572</ele><time>2026-03-25T08:23:26.109Z</time></trkpt><trkpt lat="46.1576782" lon="9.4209012"><ele>199.57142857142856</ele><time>2026-03-25T08:23:27.109Z</time></trkpt><trkpt lat="46.1576235" lon="9.4209559"><ele>199.42857142857144</ele><time>2026-03-25T08:23:28.108Z</time></trkpt><trkpt lat="46.157576" lon="9.4210161"><ele>199.28571428571428</ele><time>2026-03-25T08:23:29.108Z</time></trkpt><trkpt lat="46.157527" lon="9.4210756"><ele>199.14285714285714</ele><time>2026-03-25T08:23:30.109Z</time></trkpt><trkpt lat="46.1574797" lon="9.4211384"><ele>199.0</ele><time>2026-03-25T08:23:31.11Z</time></trkpt><trkpt lat="46.1574272" lon="9.4212001"><ele>198.99999999999997</ele><time>2026-03-25T08:23:32.109Z</time></trkpt><trkpt lat="46.1573769" lon="9.4212585"><ele>199.0</ele><time>2026-03-25T08:23:33.108Z</time></trkpt><trkpt lat="46.157329" lon="9.4213208"><ele>199.0</ele><time>2026-03-25T08:23:34.109Z</time></trkpt><trkpt lat="46.1572818" lon="9.4213842"><ele>199.0</ele><time>2026-03-25T08:23:35.108Z</time></trkpt><trkpt lat="46.1572316" lon="9.4214445"><ele>198.99999999999997</ele><time>2026-03-25T08:23:36.109Z</time></trkpt><trkpt lat="46.157141" lon="9.421554"><ele>199.0</ele><time>2026-03-25T08:23:38.109Z</time></trkpt><trkpt lat="46.1570568" lon="9.4216594"><ele>199.25</ele><time>2026-03-25T08:23:40.11Z</time></trkpt><trkpt lat="46.1569719" lon="9.4217675"><ele>199.5</ele><time>2026-03-25T08:23:42.111Z</time></trkpt><trkpt lat="46.1568835" lon="9.4218767"><ele>199.75</ele><time>2026-03-25T08:23:44.108Z</time></trkpt><trkpt lat="46.156789" lon="9.4219888"><ele>200.0</ele><time>2026-03-25T08:23:46.11Z</time></trkpt><trkpt lat="46.1566959" lon="9.4221045"><ele>200.0</ele><time>2026-03-25T08:23:48.109Z</time></trkpt><trkpt lat="46.1565968" lon="9.4222202"><ele>200.0</ele><time>2026-03-25T08:23:50.109Z</time></trkpt><trkpt lat="46.1565412" lon="9.4222804"><ele>200.0</ele><time>2026-03-25T08:23:51.11Z</time></trkpt><trkpt lat="46.1564469" lon="9.4223985"><ele>200.0</ele><time>2026-03-25T08:23:53.109Z</time></trkpt><trkpt lat="46.1563604" lon="9.4225153"><ele>200.0</ele><time>2026-03-25T08:23:55.11Z</time></trkpt><trkpt lat="46.1562914" lon="9.4226515"><ele>200.25</ele><time>2026-03-25T08:23:57.109Z</time></trkpt><trkpt lat="46.1562686" lon="9.4228251"><ele>200.5</ele><time>2026-03-25T08:23:59.109Z</time></trkpt><trkpt lat="46.1562475" lon="9.4229934"><ele>200.75</ele><time>2026-03-25T08:24:01.109Z</time></trkpt><trkpt lat="46.1562269" lon="9.423168"><ele>201.0</ele><time>2026-03-25T08:24:03.109Z</time></trkpt><trkpt lat="46.1562133" lon="9.4233356"><ele>201.0</ele><time>2026-03-25T08:24:05.11Z</time></trkpt><trkpt lat="46.1562025" lon="9.4235011"><ele>201.0</ele><time>2026-03-25T08:24:07.11Z</time></trkpt><trkpt lat="46.1561858" lon="9.4236677"><ele>201.0</ele><time>2026-03-25T08:24:09.11Z</time></trkpt><trkpt lat="46.1561748" lon="9.4238383"><ele>201.0</ele><time>2026-03-25T08:24:11.109Z</time></trkpt><trkpt lat="46.1561597" lon="9.4240007"><ele>201.4</ele><time>2026-03-25T08:24:13.11Z</time></trkpt><trkpt lat="46.1561492" lon="9.4241505"><ele>201.8</ele><time>2026-03-25T08:24:15.11Z</time></trkpt><trkpt lat="46.1561436" lon="9.4243025"><ele>202.20000000000002</ele><time>2026-03-25T08:24:17.11Z</time></trkpt><trkpt lat="46.1561348" lon="9.4244459"><ele>202.60000000000002</ele><time>2026-03-25T08:24:19.108Z</time></trkpt><trkpt lat="46.1561297" lon="9.4246044"><ele>203.0</ele><time>2026-03-25T08:24:21.111Z</time></trkpt><trkpt lat="46.1561207" lon="9.424758"><ele>203.0</ele><time>2026-03-25T08:24:23.11Z</time></trkpt><trkpt lat="46.1561133" lon="9.4249187"><ele>203.0</ele><time>2026-03-25T08:24:25.108Z</time></trkpt><trkpt lat="46.1561035" lon="9.425083"><ele>203.0</ele><time>2026-03-25T08:24:27.11Z</time></trkpt><trkpt lat="46.1560924" lon="9.4252333"><ele>203.0</ele><time>2026-03-25T08:24:29.11Z</time></trkpt><trkpt lat="46.1560639" lon="9.4253804"><ele>203.0</ele><time>2026-03-25T08:24:31.11Z</time></trkpt><trkpt lat="46.1560437" lon="9.4255402"><ele>203.0</ele><time>2026-03-25T08:24:33.109Z</time></trkpt><trkpt lat="46.1560117" lon="9.425703"><ele>203.0</ele><time>2026-03-25T08:24:35.11Z</time></trkpt><trkpt lat="46.1559789" lon="9.4258668"><ele>203.0</ele><time>2026-03-25T08:24:37.109Z</time></trkpt><trkpt lat="46.1559561" lon="9.4260258"><ele>203.0</ele><time>2026-03-25T08:24:39.11Z</time></trkpt><trkpt lat="46.1559129" lon="9.4261639"><ele>203.25</ele><time>2026-03-25T08:24:41.108Z</time></trkpt><trkpt lat="46.1558919" lon="9.4263123"><ele>203.5</ele><time>2026-03-25T08:24:43.111Z</time></trkpt><trkpt lat="46.1558787" lon="9.4264849"><ele>203.75</ele><time>2026-03-25T08:24:45.109Z</time></trkpt><trkpt lat="46.1558655" lon="9.4266549"><ele>204.0</ele><time>2026-03-25T08:24:47.109Z</time></trkpt><trkpt lat="46.1558634" lon="9.4268118"><ele>204.0</ele><time>2026-03-25T08:24:49.109Z</time></trkpt><trkpt lat="46.155857" lon="9.4269807"><ele>204.0</ele><time>2026-03-25T08:24:51.11Z</time></trkpt><trkpt lat="46.155856" lon="9.4271372"><ele>204.0</ele><time>2026-03-25T08:24:53.109Z</time></trkpt><trkpt lat="46.1558598" lon="9.4273041"><ele>204.0</ele><time>2026-03-25T08:24:55.11Z</time></trkpt><trkpt lat="46.155859" lon="9.4274588"><ele>204.0</ele><time>2026-03-25T08:24:57.109Z</time></trkpt><trkpt lat="46.1558598" lon="9.4276163"><ele>203.6</ele><time>2026-03-25T08:24:59.109Z</time></trkpt><trkpt lat="46.1558639" lon="9.4277636"><ele>203.2</ele><time>2026-03-25T08:25:01.109Z</time></trkpt><trkpt lat="46.1558664" lon="9.4279199"><ele>202.79999999999998</ele><time>2026-03-25T08:25:03.11Z</time></trkpt><trkpt lat="46.1558706" lon="9.4280739"><ele>202.39999999999998</ele><time>2026-03-25T08:25:05.11Z</time></trkpt><trkpt lat="46.1558767" lon="9.428226"><ele>202.0</ele><time>2026-03-25T08:25:07.11Z</time></trkpt><trkpt lat="46.1558793" lon="9.42837"><ele>201.99999999999997</ele><time>2026-03-25T08:25:09.11Z</time></trkpt><trkpt lat="46.1558753" lon="9.4285084"><ele>202.0</ele><time>2026-03-25T08:25:11.11Z</time></trkpt><trkpt lat="46.1558818" lon="9.4286347"><ele>202.0</ele><time>2026-03-25T08:25:13.11Z</time></trkpt><trkpt lat="46.1558887" lon="9.4287527"><ele>202.0</ele><time>2026-03-25T08:25:15.109Z</time></trkpt><trkpt lat="46.1558952" lon="9.4288762"><ele>201.99999999999997</ele><time>2026-03-25T08:25:17.109Z</time></trkpt><trkpt lat="46.1558978" lon="9.4290176"><ele>202.0</ele><time>2026-03-25T08:25:19.11Z</time></trkpt><trkpt lat="46.1559002" lon="9.4291611"><ele>202.0</ele><time>2026-03-25T08:25:21.109Z</time></trkpt><trkpt lat="46.1559026" lon="9.4293172"><ele>202.0</ele><time>2026-03-25T08:25:23.111Z</time></trkpt><trkpt lat="46.1558959" lon="9.4294615"><ele>202.0</ele><time>2026-03-25T08:25:25.11Z</time></trkpt><trkpt lat="46.1558996" lon="9.4295978"><ele>202.0</ele><time>2026-03-25T08:25:27.109Z</time></trkpt><trkpt lat="46.1558965" lon="9.4297367"><ele>202.0</ele><time>2026-03-25T08:25:29.111Z</time></trkpt><trkpt lat="46.155896" lon="9.4298834"><ele>201.8</ele><time>2026-03-25T08:25:31.108Z</time></trkpt><trkpt lat="46.1558989" lon="9.4300333"><ele>201.6</ele><time>2026-03-25T08:25:33.109Z</time></trkpt><trkpt lat="46.1559005" lon="9.4301801"><ele>201.4</ele><time>2026-03-25T08:25:35.11Z</time></trkpt><trkpt lat="46.1559085" lon="9.430321"><ele>201.20000000000002</ele><time>2026-03-25T08:25:37.109Z</time></trkpt><trkpt lat="46.155907" lon="9.4304396"><ele>201.0</ele><time>2026-03-25T08:25:39.11Z</time></trkpt><trkpt lat="46.1558989" lon="9.4305437"><ele>201.4</ele><time>2026-03-25T08:25:41.111Z</time></trkpt><trkpt lat="46.1558783" lon="9.4306523"><ele>201.8</ele><time>2026-03-25T08:25:43.108Z</time></trkpt><trkpt lat="46.1558693" lon="9.4307759"><ele>202.20000000000002</ele><time>2026-03-25T08:25:45.109Z</time></trkpt><trkpt lat="46.1559044" lon="9.4308966"><ele>202.60000000000002</ele><time>2026-03-25T08:25:47.111Z</time></trkpt><trkpt lat="46.1559479" lon="9.4310281"><ele>203.0</ele><time>2026-03-25T08:25:49.109Z</time></trkpt><trkpt lat="46.1559704" lon="9.4311662"><ele>203.00000000000003</ele><time>2026-03-25T08:25:51.109Z</time></trkpt><trkpt lat="46.1559687" lon="9.4312815"><ele>203.0</ele><time>2026-03-25T08:25:53.109Z</time></trkpt><trkpt lat="46.1559627" lon="9.431377"><ele>203.0</ele><time>2026-03-25T08:25:55.11Z</time></trkpt><trkpt lat="46.1559727" lon="9.4314686"><ele>203.0</ele><time>2026-03-25T08:25:57.111Z</time></trkpt><trkpt lat="46.1560091" lon="9.4315678"><ele>203.00000000000003</ele><time>2026-03-25T08:26:00.109Z</time></trkpt><trkpt lat="46.1560826" lon="9.4316107"><ele>203.0</ele><time>2026-03-25T08:26:03.111Z</time></trkpt><trkpt lat="46.1561693" lon="9.4316397"><ele>203.50000000000003</ele><time>2026-03-25T08:26:06.109Z</time></trkpt><trkpt lat="46.1562357" lon="9.4316597"><ele>204.0</ele><time>2026-03-25T08:26:08.108Z</time></trkpt><trkpt lat="46.1562963" lon="9.4316848"><ele>204.5</ele><time>2026-03-25T08:26:10.11Z</time></trkpt><trkpt lat="46.1563886" lon="9.4316833"><ele>205.0</ele><time>2026-03-25T08:26:13.109Z</time></trkpt><trkpt lat="46.1564875" lon="9.431673"><ele>205.50000000000003</ele><time>2026-03-25T08:26:16.111Z</time></trkpt><trkpt lat="46.1565519" lon="9.4316591"><ele>206.0</ele><time>2026-03-25T08:26:18.11Z</time></trkpt><trkpt lat="46.1566268" lon="9.4316453"><ele>206.00000000000003</ele><time>2026-03-25T08:26:45.111Z</time></trkpt><trkpt lat="46.1567062" lon="9.431652"><ele>206.0</ele><time>2026-03-25T08:26:48.11Z</time></trkpt><trkpt lat="46.1567948" lon="9.4316315"><ele>206.0</ele><time>2026-03-25T08:26:51.11Z</time></trkpt><trkpt lat="46.15686" lon="9.4316326"><ele>206.0</ele><time>2026-03-25T08:26:53.109Z</time></trkpt><trkpt lat="46.1569287" lon="9.4316215"><ele>206.00000000000003</ele><time>2026-03-25T08:26:55.11Z</time></trkpt><trkpt lat="46.1570046" lon="9.4316355"><ele>206.0</ele><time>2026-03-25T08:26:57.111Z</time></trkpt><trkpt lat="46.1570798" lon="9.4316559"><ele>206.00000000000003</ele><time>2026-03-25T08:26:59.11Z</time></trkpt><trkpt lat="46.1571521" lon="9.4316942"><ele>206.0</ele><time>2026-03-25T08:27:01.11Z</time></trkpt><trkpt lat="46.1572204" lon="9.431722"><ele>206.0</ele><time>2026-03-25T08:27:03.11Z</time></trkpt><trkpt lat="46.1572896" lon="9.4317372"><ele>206.0</ele><time>2026-03-25T08:27:05.109Z</time></trkpt><trkpt lat="46.1573792" lon="9.4317429"><ele>206.00000000000003</ele><time>2026-03-25T08:27:08.109Z</time></trkpt><trkpt lat="46.157455" lon="9.4317248"><ele>206.0</ele><time>2026-03-25T08:27:11.109Z</time></trkpt><trkpt lat="46.1575337" lon="9.4317059"><ele>205.99999999999997</ele><time>2026-03-25T08:27:14.109Z</time></trkpt><trkpt lat="46.1575542" lon="9.4317981"><ele>206.0</ele><time>2026-03-25T08:27:19.11Z</time></trkpt><trkpt lat="46.1574882" lon="9.4318697"><ele>206.0</ele><time>2026-03-25T08:27:23.109Z</time></trkpt><trkpt lat="46.1574412" lon="9.4319305"><ele>206.0</ele><time>2026-03-25T08:27:26.11Z</time></trkpt><trkpt lat="46.1573768" lon="9.4320019"><ele>206.0</ele><time>2026-03-25T08:27:30.11Z</time></trkpt><trkpt lat="46.1573291" lon="9.4320654"><ele>205.99999999999997</ele><time>2026-03-25T08:27:33.11Z</time></trkpt><trkpt lat="46.1572682" lon="9.432114"><ele>206.0</ele><time>2026-03-25T08:27:36.109Z</time></trkpt><trkpt lat="46.157216" lon="9.4321788"><ele>208.00000000000003</ele><time>2026-03-25T08:27:39.111Z</time></trkpt><trkpt lat="46.1571622" lon="9.432244"><ele>210.0</ele><time>2026-03-25T08:27:42.111Z</time></trkpt><trkpt lat="46.1570931" lon="9.4322957"><ele>212.0</ele><time>2026-03-25T08:27:46.11Z</time></trkpt><trkpt lat="46.1570247" lon="9.4323664"><ele>214.0</ele><time>2026-03-25T08:27:50.111Z</time></trkpt><trkpt lat="46.1569715" lon="9.4324191"><ele>216.00000000000003</ele><time>2026-03-25T08:27:53.11Z</time></trkpt><trkpt lat="46.1569002" lon="9.4324855"><ele>218.0</ele><time>2026-03-25T08:27:57.109Z</time></trkpt><trkpt lat="46.1568348" lon="9.4325429"><ele>218.0</ele><time>2026-03-25T08:28:01.109Z</time></trkpt><trkpt lat="46.1567826" lon="9.4325971"><ele>218.0</ele><time>2026-03-25T08:28:04.109Z</time></trkpt><trkpt lat="46.156705" lon="9.4326324"><ele>218.0</ele><time>2026-03-25T08:28:08.11Z</time></trkpt><trkpt lat="46.1566417" lon="9.4326668"><ele>218.0</ele><time>2026-03-25T08:28:12.11Z</time></trkpt><trkpt lat="46.1565746" lon="9.4327154"><ele>218.0</ele><time>2026-03-25T08:28:17.11Z</time></trkpt><trkpt lat="46.1565151" lon="9.4327736"><ele>218.0</ele><time>2026-03-25T08:28:22.112Z</time></trkpt><trkpt lat="46.1564655" lon="9.4328376"><ele>218.0</ele><time>2026-03-25T08:28:27.111Z</time></trkpt><trkpt lat="46.1564028" lon="9.43289"><ele>218.0</ele><time>2026-03-25T08:28:33.111Z</time></trkpt><trkpt lat="46.156354" lon="9.4329654"><ele>218.0</ele><time>2026-03-25T08:28:39.111Z</time></trkpt><trkpt lat="46.1563131" lon="9.4330386"><ele>218.0</ele><time>2026-03-25T08:28:44.11Z</time></trkpt><trkpt lat="46.1562488" lon="9.4330674"><ele>218.0</ele><time>2026-03-25T08:28:50.11Z</time></trkpt><trkpt lat="46.156195" lon="9.4331195"><ele>218.0</ele><time>2026-03-25T08:28:54.111Z</time></trkpt><trkpt lat="46.1561312" lon="9.433156"><ele>218.0</ele><time>2026-03-25T08:28:59.109Z</time></trkpt><trkpt lat="46.1560655" lon="9.4331818"><ele>218.0</ele><time>2026-03-25T08:29:04.11Z</time></trkpt><trkpt lat="46.1559921" lon="9.4331843"><ele>219.0</ele><time>2026-03-25T08:29:09.11Z</time></trkpt><trkpt lat="46.155919" lon="9.4331867"><ele>220.0</ele><time>2026-03-25T08:29:15.109Z</time></trkpt><trkpt lat="46.155847" lon="9.4331657"><ele>221.0</ele><time>2026-03-25T08:29:21.111Z</time></trkpt><trkpt lat="46.1557876" lon="9.4331318"><ele>222.0</ele><time>2026-03-25T08:29:26.11Z</time></trkpt><trkpt lat="46.1557246" lon="9.4331246"><ele>223.0</ele><time>2026-03-25T08:29:31.111Z</time></trkpt><trkpt lat="46.1556572" lon="9.4331457"><ele>224.00000000000003</ele><time>2026-03-25T08:29:38.11Z</time></trkpt><trkpt lat="46.155599" lon="9.4331954"><ele>225.00000000000003</ele><time>2026-03-25T08:29:44.111Z</time></trkpt><trkpt lat="46.1555377" lon="9.433277"><ele>225.0</ele><time>2026-03-25T08:29:51.111Z</time></trkpt><trkpt lat="46.1554619" lon="9.4333299"><ele>225.0</ele><time>2026-03-25T08:29:55.111Z</time></trkpt><trkpt lat="46.1554191" lon="9.4334061"><ele>225.0</ele><time>2026-03-25T08:30:00.109Z</time></trkpt><trkpt lat="46.1553754" lon="9.4334757"><ele>225.0</ele><time>2026-03-25T08:30:04.111Z</time></trkpt><trkpt lat="46.155332" lon="9.4335638"><ele>225.0</ele><time>2026-03-25T08:30:08.111Z</time></trkpt><trkpt lat="46.1553007" lon="9.4336975"><ele>225.0</ele><time>2026-03-25T08:30:11.11Z</time></trkpt><trkpt lat="46.1552864" lon="9.4338179"><ele>227.0</ele><time>2026-03-25T08:30:13.112Z</time></trkpt><trkpt lat="46.1552769" lon="9.4339284"><ele>229.0</ele><time>2026-03-25T08:30:15.111Z</time></trkpt><trkpt lat="46.1552298" lon="9.4340415"><ele>231.0</ele><time>2026-03-25T08:30:18.11Z</time></trkpt><trkpt lat="46.1551694" lon="9.4341167"><ele>233.0</ele><time>2026-03-25T08:30:20.11Z</time></trkpt><trkpt lat="46.1551084" lon="9.434178"><ele>235.0</ele><time>2026-03-25T08:30:22.111Z</time></trkpt><trkpt lat="46.1550393" lon="9.4342322"><ele>237.0</ele><time>2026-03-25T08:30:24.11Z</time></trkpt><trkpt lat="46.1549775" lon="9.4342834"><ele>237.0</ele><time>2026-03-25T08:30:26.111Z</time></trkpt><trkpt lat="46.1549102" lon="9.4343436"><ele>237.0</ele><time>2026-03-25T08:30:28.11Z</time></trkpt><trkpt lat="46.1548542" lon="9.4344302"><ele>237.0</ele><time>2026-03-25T08:30:30.112Z</time></trkpt><trkpt lat="46.1547991" lon="9.4345441"><ele>237.0</ele><time>2026-03-25T08:30:32.111Z</time></trkpt><trkpt lat="46.1547386" lon="9.4346918"><ele>237.0</ele><time>2026-03-25T08:30:34.111Z</time></trkpt><trkpt lat="46.1546996" lon="9.4347711"><ele>237.0</ele><time>2026-03-25T08:30:35.111Z</time></trkpt><trkpt lat="46.1546311" lon="9.4349007"><ele>233.6</ele><time>2026-03-25T08:30:37.11Z</time></trkpt><trkpt lat="46.154569" lon="9.4350052"><ele>230.2</ele><time>2026-03-25T08:30:39.111Z</time></trkpt><trkpt lat="46.1544875" lon="9.4351097"><ele>226.8</ele><time>2026-03-25T08:30:41.109Z</time></trkpt><trkpt lat="46.1544049" lon="9.4352362"><ele>223.4</ele><time>2026-03-25T08:30:43.111Z</time></trkpt><trkpt lat="46.1543589" lon="9.4353094"><ele>220.0</ele><time>2026-03-25T08:30:44.11Z</time></trkpt><trkpt lat="46.1543136" lon="9.4353788"><ele>219.99999999999997</ele><time>2026-03-25T08:30:45.111Z</time></trkpt><trkpt lat="46.1542654" lon="9.4354449"><ele>220.0</ele><time>2026-03-25T08:30:46.112Z</time></trkpt><trkpt lat="46.154176" lon="9.4355687"><ele>220.0</ele><time>2026-03-25T08:30:48.111Z</time></trkpt><trkpt lat="46.1541183" lon="9.4356856"><ele>220.0</ele><time>2026-03-25T08:30:50.112Z</time></trkpt><trkpt lat="46.1540649" lon="9.4357628"><ele>219.99999999999997</ele><time>2026-03-25T08:30:52.112Z</time></trkpt><trkpt lat="46.1540271" lon="9.4358518"><ele>220.0</ele><time>2026-03-25T08:30:54.11Z</time></trkpt><trkpt lat="46.1539949" lon="9.4359338"><ele>217.99999999999997</ele><time>2026-03-25T08:30:56.11Z</time></trkpt><trkpt lat="46.1539678" lon="9.4360208"><ele>216.0</ele><time>2026-03-25T08:30:58.112Z</time></trkpt><trkpt lat="46.1539424" lon="9.4361518"><ele>214.0</ele><time>2026-03-25T08:31:01.11Z</time></trkpt><trkpt lat="46.1539367" lon="9.4362789"><ele>212.0</ele><time>2026-03-25T08:31:04.111Z</time></trkpt><trkpt lat="46.1539379" lon="9.4363997"><ele>209.99999999999997</ele><time>2026-03-25T08:31:06.112Z</time></trkpt><trkpt lat="46.1539553" lon="9.4365438"><ele>208.0</ele><time>2026-03-25T08:31:08.111Z</time></trkpt><trkpt lat="46.1539866" lon="9.4366986"><ele>207.99999999999997</ele><time>2026-03-25T08:31:10.111Z</time></trkpt><trkpt lat="46.1540175" lon="9.4367872"><ele>208.0</ele><time>2026-03-25T08:31:11.112Z</time></trkpt><trkpt lat="46.1540556" lon="9.4368776"><ele>208.0</ele><time>2026-03-25T08:31:12.111Z</time></trkpt><trkpt lat="46.1540943" lon="9.4369823"><ele>208.0</ele><time>2026-03-25T08:31:13.111Z</time></trkpt><trkpt lat="46.1541291" lon="9.4370889"><ele>207.99999999999997</ele><time>2026-03-25T08:31:14.112Z</time></trkpt><trkpt lat="46.154169" lon="9.4371957"><ele>208.0</ele><time>2026-03-25T08:31:15.111Z</time></trkpt><trkpt lat="46.1542062" lon="9.4372972"><ele>210.66666666666666</ele><time>2026-03-25T08:31:16.111Z</time></trkpt><trkpt lat="46.1542432" lon="9.4373994"><ele>213.33333333333331</ele><time>2026-03-25T08:31:17.111Z</time></trkpt><trkpt lat="46.1542787" lon="9.4375008"><ele>216.0</ele><time>2026-03-25T08:31:18.111Z</time></trkpt><trkpt lat="46.1543107" lon="9.4376039"><ele>218.66666666666669</ele><time>2026-03-25T08:31:19.11Z</time></trkpt><trkpt lat="46.1543366" lon="9.4377081"><ele>221.33333333333334</ele><time>2026-03-25T08:31:20.111Z</time></trkpt><trkpt lat="46.1543633" lon="9.4378133"><ele>224.0</ele><time>2026-03-25T08:31:21.111Z</time></trkpt><trkpt lat="46.1543836" lon="9.4379146"><ele>223.2</ele><time>2026-03-25T08:31:22.112Z</time></trkpt><trkpt lat="46.154394" lon="9.4380173"><ele>222.39999999999998</ele><time>2026-03-25T08:31:23.111Z</time></trkpt><trkpt lat="46.1544153" lon="9.4381095"><ele>221.6</ele><time>2026-03-25T08:31:24.111Z</time></trkpt><trkpt lat="46.1544501" lon="9.4382605"><ele>220.8</ele><time>2026-03-25T08:31:26.111Z</time></trkpt><trkpt lat="46.154476" lon="9.4384394"><ele>220.0</ele><time>2026-03-25T08:31:28.111Z</time></trkpt><trkpt lat="46.154523" lon="9.4385742"><ele>219.99999999999997</ele><time>2026-03-25T08:31:30.111Z</time></trkpt><trkpt lat="46.154549" lon="9.4386808"><ele>220.0</ele><time>2026-03-25T08:31:32.112Z</time></trkpt><trkpt lat="46.1545734" lon="9.4387936"><ele>220.0</ele><time>2026-03-25T08:31:34.113Z</time></trkpt><trkpt lat="46.1545944" lon="9.4389363"><ele>220.0</ele><time>2026-03-25T08:31:36.111Z</time></trkpt><trkpt lat="46.1546173" lon="9.4390784"><ele>219.99999999999997</ele><time>2026-03-25T08:31:38.111Z</time></trkpt><trkpt lat="46.1546308" lon="9.4391707"><ele>220.0</ele><time>2026-03-25T08:31:39.111Z</time></trkpt><trkpt lat="46.1546368" lon="9.4393386"><ele>219.0</ele><time>2026-03-25T08:31:41.11Z</time></trkpt><trkpt lat="46.1546283" lon="9.4394353"><ele>218.0</ele><time>2026-03-25T08:31:42.111Z</time></trkpt><trkpt lat="46.1546314" lon="9.4395371"><ele>217.0</ele><time>2026-03-25T08:31:43.112Z</time></trkpt><trkpt lat="46.1546257" lon="9.4397379"><ele>216.0</ele><time>2026-03-25T08:31:45.11Z</time></trkpt><trkpt lat="46.154631" lon="9.4399221"><ele>215.0</ele><time>2026-03-25T08:31:47.11Z</time></trkpt><trkpt lat="46.1546488" lon="9.4400221"><ele>213.8</ele><time>2026-03-25T08:31:48.112Z</time></trkpt><trkpt lat="46.1546623" lon="9.4401127"><ele>212.6</ele><time>2026-03-25T08:31:49.11Z</time></trkpt><trkpt lat="46.1547029" lon="9.4402826"><ele>211.39999999999998</ele><time>2026-03-25T08:31:51.111Z</time></trkpt><trkpt lat="46.1547563" lon="9.4404289"><ele>210.2</ele><time>2026-03-25T08:31:53.111Z</time></trkpt><trkpt lat="46.1548018" lon="9.4405681"><ele>209.0</ele><time>2026-03-25T08:31:55.111Z</time></trkpt><trkpt lat="46.1548474" lon="9.4407043"><ele>211.79999999999998</ele><time>2026-03-25T08:31:57.112Z</time></trkpt><trkpt lat="46.1548989" lon="9.4408485"><ele>214.6</ele><time>2026-03-25T08:31:59.111Z</time></trkpt><trkpt lat="46.1549332" lon="9.4409939"><ele>217.4</ele><time>2026-03-25T08:32:01.111Z</time></trkpt><trkpt lat="46.1549586" lon="9.4411298"><ele>220.2</ele><time>2026-03-25T08:32:03.111Z</time></trkpt><trkpt lat="46.1549761" lon="9.4412644"><ele>223.0</ele><time>2026-03-25T08:32:05.111Z</time></trkpt><trkpt lat="46.1549883" lon="9.4414153"><ele>223.0</ele><time>2026-03-25T08:32:07.111Z</time></trkpt><trkpt lat="46.1549983" lon="9.4415624"><ele>223.0</ele><time>2026-03-25T08:32:09.111Z</time></trkpt><trkpt lat="46.1550151" lon="9.4417035"><ele>223.0</ele><time>2026-03-25T08:32:11.112Z</time></trkpt><trkpt lat="46.1550253" lon="9.441845"><ele>223.0</ele><time>2026-03-25T08:32:13.112Z</time></trkpt><trkpt lat="46.1550349" lon="9.4420026"><ele>223.0</ele><time>2026-03-25T08:32:15.112Z</time></trkpt><trkpt lat="46.155044" lon="9.4421541"><ele>222.60000000000002</ele><time>2026-03-25T08:32:17.111Z</time></trkpt><trkpt lat="46.1550429" lon="9.44232"><ele>222.20000000000002</ele><time>2026-03-25T08:32:19.112Z</time></trkpt><trkpt lat="46.1550347" lon="9.4424637"><ele>221.8</ele><time>2026-03-25T08:32:21.112Z</time></trkpt><trkpt lat="46.1549985" lon="9.4426071"><ele>221.4</ele><time>2026-03-25T08:32:23.11Z</time></trkpt><trkpt lat="46.154955" lon="9.442756"><ele>221.0</ele><time>2026-03-25T08:32:25.112Z</time></trkpt><trkpt lat="46.1549376" lon="9.442932"><ele>220.83333333333334</ele><time>2026-03-25T08:32:27.111Z</time></trkpt><trkpt lat="46.1549376" lon="9.4430261"><ele>220.66666666666669</ele><time>2026-03-25T08:32:28.111Z</time></trkpt><trkpt lat="46.154934" lon="9.4431345"><ele>220.5</ele><time>2026-03-25T08:32:29.111Z</time></trkpt><trkpt lat="46.154932" lon="9.4432468"><ele>220.33333333333331</ele><time>2026-03-25T08:32:30.112Z</time></trkpt><trkpt lat="46.1549386" lon="9.4433512"><ele>220.16666666666666</ele><time>2026-03-25T08:32:31.112Z</time></trkpt><trkpt lat="46.1549487" lon="9.443457"><ele>220.0</ele><time>2026-03-25T08:32:32.112Z</time></trkpt><trkpt lat="46.1549746" lon="9.4435885"><ele>219.99999999999997</ele><time>2026-03-25T08:32:34.113Z</time></trkpt><trkpt lat="46.1550161" lon="9.4436716"><ele>220.0</ele><time>2026-03-25T08:32:37.11Z</time></trkpt><trkpt lat="46.1550824" lon="9.4436376"><ele>220.0</ele><time>2026-03-25T08:32:42.112Z</time></trkpt><trkpt lat="46.1550802" lon="9.4435288"><ele>220.0</ele><time>2026-03-25T08:32:45.112Z</time></trkpt><trkpt lat="46.1551031" lon="9.4434318"><ele>220.0</ele><time>2026-03-25T08:32:48.111Z</time></trkpt><trkpt lat="46.1551182" lon="9.4433284"><ele>219.99999999999997</ele><time>2026-03-25T08:32:51.11Z</time></trkpt><trkpt lat="46.1551271" lon="9.4432135"><ele>220.0</ele><time>2026-03-25T08:32:55.111Z</time></trkpt><trkpt lat="46.155118" lon="9.4430896"><ele>219.99999999999997</ele><time>2026-03-25T08:32:58.111Z</time></trkpt><trkpt lat="46.1551167" lon="9.4429891"><ele>220.0</ele><time>2026-03-25T08:33:01.11Z</time></trkpt><trkpt lat="46.1551343" lon="9.4428839"><ele>220.0</ele><time>2026-03-25T08:33:05.112Z</time></trkpt><trkpt lat="46.1551603" lon="9.4427711"><ele>220.0</ele><time>2026-03-25T08:33:09.11Z</time></trkpt><trkpt lat="46.1552283" lon="9.4427787"><ele>220.0</ele><time>2026-03-25T08:33:13.112Z</time></trkpt><trkpt lat="46.1552284" lon="9.4428904"><ele>219.99999999999997</ele><time>2026-03-25T08:33:16.112Z</time></trkpt><trkpt lat="46.1552252" lon="9.442996"><ele>220.0</ele><time>2026-03-25T08:33:19.112Z</time></trkpt><trkpt lat="46.1552424" lon="9.4430954"><ele>219.99999999999997</ele><time>2026-03-25T08:33:22.112Z</time></trkpt><trkpt lat="46.155265" lon="9.4431909"><ele>220.0</ele><time>2026-03-25T08:33:25.112Z</time></trkpt><trkpt lat="46.1552793" lon="9.4432936"><ele>220.0</ele><time>2026-03-25T08:33:28.112Z</time></trkpt><trkpt lat="46.1553049" lon="9.4433871"><ele>220.0</ele><time>2026-03-25T08:33:31.112Z</time></trkpt><trkpt lat="46.1553258" lon="9.4434798"><ele>220.0</ele><time>2026-03-25T08:33:34.112Z</time></trkpt><trkpt lat="46.1553519" lon="9.4435754"><ele>219.99999999999997</ele><time>2026-03-25T08:33:37.112Z</time></trkpt><trkpt lat="46.1553697" lon="9.4436907"><ele>220.0</ele><time>2026-03-25T08:33:40.111Z</time></trkpt><trkpt lat="46.1553895" lon="9.4437911"><ele>218.99999999999997</ele><time>2026-03-25T08:33:43.113Z</time></trkpt><trkpt lat="46.1554181" lon="9.4439009"><ele>218.0</ele><time>2026-03-25T08:33:46.11Z</time></trkpt><trkpt lat="46.1554407" lon="9.4440056"><ele>217.0</ele><time>2026-03-25T08:33:49.113Z</time></trkpt><trkpt lat="46.1554768" lon="9.4441078"><ele>216.0</ele><time>2026-03-25T08:33:52.112Z</time></trkpt><trkpt lat="46.155501" lon="9.4442148"><ele>214.99999999999997</ele><time>2026-03-25T08:33:55.111Z</time></trkpt><trkpt lat="46.1555285" lon="9.4443163"><ele>214.0</ele><time>2026-03-25T08:33:58.112Z</time></trkpt><trkpt lat="46.1555399" lon="9.4444241"><ele>213.99999999999997</ele><time>2026-03-25T08:34:01.112Z</time></trkpt><trkpt lat="46.1555602" lon="9.4445368"><ele>214.0</ele><time>2026-03-25T08:34:04.112Z</time></trkpt><trkpt lat="46.1555706" lon="9.4446448"><ele>214.0</ele><time>2026-03-25T08:34:07.112Z</time></trkpt><trkpt lat="46.15558" lon="9.4447579"><ele>214.0</ele><time>2026-03-25T08:34:10.112Z</time></trkpt><trkpt lat="46.1555796" lon="9.444862"><ele>213.99999999999997</ele><time>2026-03-25T08:34:13.112Z</time></trkpt><trkpt lat="46.1555797" lon="9.4449657"><ele>214.0</ele><time>2026-03-25T08:34:16.111Z</time></trkpt><trkpt lat="46.1555856" lon="9.4450735"><ele>214.00000000000003</ele><time>2026-03-25T08:34:19.112Z</time></trkpt><trkpt lat="46.1555927" lon="9.445179"><ele>214.0</ele><time>2026-03-25T08:34:22.111Z</time></trkpt><trkpt lat="46.1556046" lon="9.4452766"><ele>214.0</ele><time>2026-03-25T08:34:25.112Z</time></trkpt><trkpt lat="46.1556149" lon="9.4453744"><ele>214.0</ele><time>2026-03-25T08:34:28.113Z</time></trkpt><trkpt lat="46.155628" lon="9.4454868"><ele>214.0</ele><time>2026-03-25T08:34:31.112Z</time></trkpt><trkpt lat="46.1556533" lon="9.4455898"><ele>214.00000000000003</ele><time>2026-03-25T08:34:34.111Z</time></trkpt><trkpt lat="46.1556833" lon="9.4456744"><ele>214.0</ele><time>2026-03-25T08:34:37.112Z</time></trkpt><trkpt lat="46.1557116" lon="9.4457624"><ele>217.42857142857144</ele><time>2026-03-25T08:34:40.112Z</time></trkpt><trkpt lat="46.1557255" lon="9.4458604"><ele>220.85714285714286</ele><time>2026-03-25T08:34:43.111Z</time></trkpt><trkpt lat="46.1557518" lon="9.4459588"><ele>224.28571428571428</ele><time>2026-03-25T08:34:46.112Z</time></trkpt><trkpt lat="46.1557756" lon="9.446058"><ele>227.71428571428572</ele><time>2026-03-25T08:34:49.11Z</time></trkpt><trkpt lat="46.1557975" lon="9.446158"><ele>231.14285714285714</ele><time>2026-03-25T08:34:52.111Z</time></trkpt><trkpt lat="46.1558147" lon="9.4462643"><ele>234.57142857142858</ele><time>2026-03-25T08:34:55.113Z</time></trkpt><trkpt lat="46.1558257" lon="9.4463751"><ele>238.0</ele><time>2026-03-25T08:34:58.111Z</time></trkpt><trkpt lat="46.1558311" lon="9.4464777"><ele>237.99999999999997</ele><time>2026-03-25T08:35:01.111Z</time></trkpt><trkpt lat="46.1558295" lon="9.4465846"><ele>238.0</ele><time>2026-03-25T08:35:04.112Z</time></trkpt><trkpt lat="46.1558155" lon="9.4467067"><ele>238.0</ele><time>2026-03-25T08:35:07.112Z</time></trkpt><trkpt lat="46.1557999" lon="9.4468256"><ele>238.0</ele><time>2026-03-25T08:35:10.111Z</time></trkpt><trkpt lat="46.1557925" lon="9.4469467"><ele>237.99999999999997</ele><time>2026-03-25T08:35:13.113Z</time></trkpt><trkpt lat="46.1557821" lon="9.4470529"><ele>238.0</ele><time>2026-03-25T08:35:16.112Z</time></trkpt><trkpt lat="46.155776" lon="9.4471718"><ele>238.99999999999997</ele><time>2026-03-25T08:35:19.112Z</time></trkpt><trkpt lat="46.1557549" lon="9.4472944"><ele>240.0</ele><time>2026-03-25T08:35:22.113Z</time></trkpt><trkpt lat="46.155727" lon="9.4474201"><ele>241.0</ele><time>2026-03-25T08:35:25.113Z</time></trkpt><trkpt lat="46.1557182" lon="9.4475343"><ele>242.0</ele><time>2026-03-25T08:35:28.112Z</time></trkpt><trkpt lat="46.1557093" lon="9.4476573"><ele>242.99999999999997</ele><time>2026-03-25T08:35:31.111Z</time></trkpt><trkpt lat="46.1557001" lon="9.4477755"><ele>244.0</ele><time>2026-03-25T08:35:34.112Z</time></trkpt><trkpt lat="46.1556974" lon="9.4478989"><ele>244.49999999999997</ele><time>2026-03-25T08:35:37.112Z</time></trkpt><trkpt lat="46.1557103" lon="9.4480171"><ele>245.0</ele><time>2026-03-25T08:35:40.112Z</time></trkpt><trkpt lat="46.1557318" lon="9.4481278"><ele>245.5</ele><time>2026-03-25T08:35:43.112Z</time></trkpt><trkpt lat="46.1557589" lon="9.4482396"><ele>246.0</ele><time>2026-03-25T08:35:46.113Z</time></trkpt><trkpt lat="46.1557866" lon="9.4483549"><ele>246.49999999999997</ele><time>2026-03-25T08:35:49.113Z</time></trkpt><trkpt lat="46.15581" lon="9.4484636"><ele>247.0</ele><time>2026-03-25T08:35:52.112Z</time></trkpt><trkpt lat="46.1558313" lon="9.4485673"><ele>247.0</ele><time>2026-03-25T08:35:55.111Z</time></trkpt><trkpt lat="46.1558518" lon="9.4486654"><ele>247.0</ele><time>2026-03-25T08:35:58.111Z</time></trkpt><trkpt lat="46.1558706" lon="9.4487645"><ele>247.0</ele><time>2026-03-25T08:36:01.114Z</time></trkpt><trkpt lat="46.1558813" lon="9.4488749"><ele>247.0</ele><time>2026-03-25T08:36:04.112Z</time></trkpt><trkpt lat="46.1558978" lon="9.4489804"><ele>247.0</ele><time>2026-03-25T08:36:07.111Z</time></trkpt><trkpt lat="46.1559189" lon="9.449086"><ele>247.0</ele><time>2026-03-25T08:36:10.112Z</time></trkpt><trkpt lat="46.1559445" lon="9.4491799"><ele>247.0</ele><time>2026-03-25T08:36:13.113Z</time></trkpt><trkpt lat="46.1559776" lon="9.4492773"><ele>246.83333333333331</ele><time>2026-03-25T08:36:16.112Z</time></trkpt><trkpt lat="46.1560013" lon="9.4493901"><ele>246.66666666666666</ele><time>2026-03-25T08:36:19.114Z</time></trkpt><trkpt lat="46.1560227" lon="9.4494814"><ele>246.5</ele><time>2026-03-25T08:36:22.113Z</time></trkpt><trkpt lat="46.1560297" lon="9.4495855"><ele>246.33333333333331</ele><time>2026-03-25T08:36:25.111Z</time></trkpt><trkpt lat="46.1560323" lon="9.449707"><ele>246.16666666666666</ele><time>2026-03-25T08:36:28.113Z</time></trkpt><trkpt lat="46.156039" lon="9.4498208"><ele>246.0</ele><time>2026-03-25T08:36:31.113Z</time></trkpt><trkpt lat="46.1560168" lon="9.4499165"><ele>245.83333333333334</ele><time>2026-03-25T08:36:34.112Z</time></trkpt><trkpt lat="46.1559869" lon="9.4500264"><ele>245.66666666666669</ele><time>2026-03-25T08:36:36.113Z</time></trkpt><trkpt lat="46.1559584" lon="9.4501857"><ele>245.5</ele><time>2026-03-25T08:36:38.111Z</time></trkpt><trkpt lat="46.1559377" lon="9.4502807"><ele>245.33333333333334</ele><time>2026-03-25T08:36:39.112Z</time></trkpt><trkpt lat="46.1559137" lon="9.4503823"><ele>245.16666666666669</ele><time>2026-03-25T08:36:40.113Z</time></trkpt><trkpt lat="46.15589" lon="9.4504861"><ele>245.0</ele><time>2026-03-25T08:36:41.112Z</time></trkpt><trkpt lat="46.155866" lon="9.4505845"><ele>245.00000000000003</ele><time>2026-03-25T08:36:42.114Z</time></trkpt><trkpt lat="46.155841" lon="9.4506902"><ele>245.0</ele><time>2026-03-25T08:36:43.113Z</time></trkpt><trkpt lat="46.1558128" lon="9.4508117"><ele>245.0</ele><time>2026-03-25T08:36:44.111Z</time></trkpt><trkpt lat="46.1557934" lon="9.4509222"><ele>245.0</ele><time>2026-03-25T08:36:45.112Z</time></trkpt><trkpt lat="46.1557743" lon="9.451031"><ele>245.00000000000003</ele><time>2026-03-25T08:36:46.113Z</time></trkpt><trkpt lat="46.1557566" lon="9.4511402"><ele>245.0</ele><time>2026-03-25T08:36:47.113Z</time></trkpt><trkpt lat="46.1557419" lon="9.4512538"><ele>244.16666666666669</ele><time>2026-03-25T08:36:48.113Z</time></trkpt><trkpt lat="46.155729" lon="9.4513666"><ele>243.33333333333334</ele><time>2026-03-25T08:36:49.112Z</time></trkpt><trkpt lat="46.1557191" lon="9.4514732"><ele>242.5</ele><time>2026-03-25T08:36:50.113Z</time></trkpt><trkpt lat="46.1557033" lon="9.4515838"><ele>241.66666666666669</ele><time>2026-03-25T08:36:51.112Z</time></trkpt><trkpt lat="46.1556788" lon="9.4516921"><ele>240.83333333333334</ele><time>2026-03-25T08:36:52.114Z</time></trkpt><trkpt lat="46.155647" lon="9.4517854"><ele>240.0</ele><time>2026-03-25T08:36:53.113Z</time></trkpt><trkpt lat="46.1556054" lon="9.4518775"><ele>236.83333333333334</ele><time>2026-03-25T08:36:54.112Z</time></trkpt><trkpt lat="46.1555493" lon="9.4519641"><ele>233.66666666666669</ele><time>2026-03-25T08:36:55.112Z</time></trkpt><trkpt lat="46.1554821" lon="9.4520418"><ele>230.5</ele><time>2026-03-25T08:36:56.113Z</time></trkpt><trkpt lat="46.1554072" lon="9.4521033"><ele>227.33333333333334</ele><time>2026-03-25T08:36:57.112Z</time></trkpt><trkpt lat="46.1553368" lon="9.4521551"><ele>224.16666666666669</ele><time>2026-03-25T08:36:58.113Z</time></trkpt><trkpt lat="46.1552755" lon="9.4522051"><ele>221.0</ele><time>2026-03-25T08:36:59.113Z</time></trkpt><trkpt lat="46.1552212" lon="9.4522564"><ele>220.83333333333334</ele><time>2026-03-25T08:37:00.113Z</time></trkpt><trkpt lat="46.1551401" lon="9.4523467"><ele>220.66666666666669</ele><time>2026-03-25T08:37:02.113Z</time></trkpt><trkpt lat="46.1550916" lon="9.4524209"><ele>220.5</ele><time>2026-03-25T08:37:04.111Z</time></trkpt><trkpt lat="46.1550698" lon="9.4525339"><ele>220.33333333333331</ele><time>2026-03-25T08:37:06.112Z</time></trkpt><trkpt lat="46.1550814" lon="9.4526587"><ele>220.16666666666666</ele><time>2026-03-25T08:37:08.112Z</time></trkpt><trkpt lat="46.1550968" lon="9.4527874"><ele>220.0</ele><time>2026-03-25T08:37:10.114Z</time></trkpt><trkpt lat="46.1551094" lon="9.4528959"><ele>220.16666666666666</ele><time>2026-03-25T08:37:12.112Z</time></trkpt><trkpt lat="46.1551184" lon="9.453012"><ele>220.33333333333331</ele><time>2026-03-25T08:37:14.112Z</time></trkpt><trkpt lat="46.1551214" lon="9.4531233"><ele>220.5</ele><time>2026-03-25T08:37:16.114Z</time></trkpt><trkpt lat="46.1551274" lon="9.4532271"><ele>220.66666666666669</ele><time>2026-03-25T08:37:18.112Z</time></trkpt><trkpt lat="46.1551273" lon="9.4533308"><ele>220.83333333333334</ele><time>2026-03-25T08:37:20.112Z</time></trkpt><trkpt lat="46.1551436" lon="9.4534564"><ele>221.0</ele><time>2026-03-25T08:37:23.112Z</time></trkpt><trkpt lat="46.1551517" lon="9.4535762"><ele>221.00000000000003</ele><time>2026-03-25T08:37:26.111Z</time></trkpt><trkpt lat="46.1551519" lon="9.4536861"><ele>221.0</ele><time>2026-03-25T08:37:29.113Z</time></trkpt><trkpt lat="46.1551473" lon="9.4537945"><ele>221.0</ele><time>2026-03-25T08:37:32.113Z</time></trkpt><trkpt lat="46.1551411" lon="9.4538899"><ele>221.0</ele><time>2026-03-25T08:37:35.159Z</time></trkpt><trkpt lat="46.1551219" lon="9.4539894"><ele>221.0</ele><time>2026-03-25T08:37:39.112Z</time></trkpt><trkpt lat="46.1551298" lon="9.4540883"><ele>221.00000000000003</ele><time>2026-03-25T08:37:43.192Z</time></trkpt><trkpt lat="46.1551579" lon="9.4542122"><ele>221.0</ele><time>2026-03-25T08:37:48.113Z</time></trkpt><trkpt lat="46.1551654" lon="9.4543077"><ele>221.42857142857144</ele><time>2026-03-25T08:37:52.113Z</time></trkpt><trkpt lat="46.1551642" lon="9.454406"><ele>221.85714285714286</ele><time>2026-03-25T08:37:56.213Z</time></trkpt><trkpt lat="46.1551743" lon="9.4545079"><ele>222.28571428571428</ele><time>2026-03-25T08:38:01.114Z</time></trkpt><trkpt lat="46.1551902" lon="9.4546023"><ele>222.71428571428572</ele><time>2026-03-25T08:38:07.113Z</time></trkpt><trkpt lat="46.1552181" lon="9.4547054"><ele>223.14285714285714</ele><time>2026-03-25T08:38:13.112Z</time></trkpt><trkpt lat="46.1552706" lon="9.4547821"><ele>223.57142857142858</ele><time>2026-03-25T08:38:18.112Z</time></trkpt><trkpt lat="46.1553284" lon="9.4548515"><ele>224.0</ele><time>2026-03-25T08:38:23.208Z</time></trkpt><trkpt lat="46.1553851" lon="9.4548919"><ele>223.85714285714286</ele><time>2026-03-25T08:38:28.112Z</time></trkpt><trkpt lat="46.1554286" lon="9.4549636"><ele>223.71428571428572</ele><time>2026-03-25T08:38:32.111Z</time></trkpt><trkpt lat="46.1554202" lon="9.4550644"><ele>223.57142857142856</ele><time>2026-03-25T08:38:36.208Z</time></trkpt><trkpt lat="46.1553862" lon="9.4551418"><ele>223.42857142857144</ele><time>2026-03-25T08:38:39.174Z</time></trkpt><trkpt lat="46.1553604" lon="9.4552344"><ele>223.28571428571428</ele><time>2026-03-25T08:38:43.114Z</time></trkpt><trkpt lat="46.1553621" lon="9.4553299"><ele>223.14285714285714</ele><time>2026-03-25T08:38:47.147Z</time></trkpt><trkpt lat="46.1553513" lon="9.4554396"><ele>223.0</ele><time>2026-03-25T08:38:51.183Z</time></trkpt><trkpt lat="46.1553481" lon="9.4555671"><ele>222.99999999999997</ele><time>2026-03-25T08:38:54.208Z</time></trkpt><trkpt lat="46.1553554" lon="9.4556962"><ele>223.0</ele><time>2026-03-25T08:38:56.204Z</time></trkpt><trkpt lat="46.1553417" lon="9.4557903"><ele>223.0</ele><time>2026-03-25T08:38:57.113Z</time></trkpt><trkpt lat="46.1553118" lon="9.4559688"><ele>223.0</ele><time>2026-03-25T08:38:59.113Z</time></trkpt><trkpt lat="46.1552928" lon="9.4560628"><ele>222.99999999999997</ele><time>2026-03-25T08:39:00.114Z</time></trkpt><trkpt lat="46.1552665" lon="9.4561607"><ele>223.0</ele><time>2026-03-25T08:39:01.114Z</time></trkpt><trkpt lat="46.1552305" lon="9.4562694"><ele>223.28571428571428</ele><time>2026-03-25T08:39:02.114Z</time></trkpt><trkpt lat="46.1551949" lon="9.4563755"><ele>223.57142857142856</ele><time>2026-03-25T08:39:03.114Z</time></trkpt><trkpt lat="46.1551692" lon="9.4564851"><ele>223.8571428571429</ele><time>2026-03-25T08:39:04.114Z</time></trkpt><trkpt lat="46.1551554" lon="9.4565873"><ele>224.14285714285717</ele><time>2026-03-25T08:39:05.112Z</time></trkpt><trkpt lat="46.1551408" lon="9.4566882"><ele>224.42857142857144</ele><time>2026-03-25T08:39:06.114Z</time></trkpt><trkpt lat="46.1551401" lon="9.4567855"><ele>224.71428571428575</ele><time>2026-03-25T08:39:07.112Z</time></trkpt><trkpt lat="46.1551436" lon="9.4568785"><ele>225.00000000000003</ele><time>2026-03-25T08:39:08.113Z</time></trkpt><trkpt lat="46.1551477" lon="9.45697"><ele>225.0</ele><time>2026-03-25T08:39:09.112Z</time></trkpt><trkpt lat="46.1551468" lon="9.4570634"><ele>225.0</ele><time>2026-03-25T08:39:10.114Z</time></trkpt><trkpt lat="46.1551288" lon="9.4572332"><ele>225.0</ele><time>2026-03-25T08:39:12.113Z</time></trkpt><trkpt lat="46.1551032" lon="9.4573813"><ele>225.0</ele><time>2026-03-25T08:39:14.113Z</time></trkpt><trkpt lat="46.1550817" lon="9.4575338"><ele>225.0</ele><time>2026-03-25T08:39:16.113Z</time></trkpt><trkpt lat="46.155055" lon="9.4576942"><ele>225.16666666666666</ele><time>2026-03-25T08:39:18.113Z</time></trkpt><trkpt lat="46.1550268" lon="9.4578642"><ele>225.33333333333331</ele><time>2026-03-25T08:39:20.112Z</time></trkpt><trkpt lat="46.1550128" lon="9.4579584"><ele>225.5</ele><time>2026-03-25T08:39:21.113Z</time></trkpt><trkpt lat="46.1549948" lon="9.4580578"><ele>225.66666666666666</ele><time>2026-03-25T08:39:22.113Z</time></trkpt><trkpt lat="46.1549797" lon="9.4581534"><ele>225.83333333333331</ele><time>2026-03-25T08:39:23.113Z</time></trkpt><trkpt lat="46.1549618" lon="9.4582559"><ele>226.0</ele><time>2026-03-25T08:39:24.112Z</time></trkpt><trkpt lat="46.1549367" lon="9.4583588"><ele>227.0</ele><time>2026-03-25T08:39:25.113Z</time></trkpt><trkpt lat="46.1549039" lon="9.4584644"><ele>228.00000000000003</ele><time>2026-03-25T08:39:26.113Z</time></trkpt><trkpt lat="46.154863" lon="9.4585767"><ele>229.00000000000003</ele><time>2026-03-25T08:39:27.113Z</time></trkpt><trkpt lat="46.1548179" lon="9.4587"><ele>230.0</ele><time>2026-03-25T08:39:28.113Z</time></trkpt><trkpt lat="46.1547728" lon="9.4588309"><ele>231.0</ele><time>2026-03-25T08:39:29.114Z</time></trkpt><trkpt lat="46.1547292" lon="9.4589637"><ele>229.20000000000002</ele><time>2026-03-25T08:39:30.114Z</time></trkpt><trkpt lat="46.1546787" lon="9.4591049"><ele>227.40000000000003</ele><time>2026-03-25T08:39:31.114Z</time></trkpt><trkpt lat="46.1546329" lon="9.4592492"><ele>225.6</ele><time>2026-03-25T08:39:32.114Z</time></trkpt><trkpt lat="46.1545926" lon="9.4593902"><ele>223.8</ele><time>2026-03-25T08:39:33.114Z</time></trkpt><trkpt lat="46.1545573" lon="9.4595259"><ele>222.0</ele><time>2026-03-25T08:39:34.114Z</time></trkpt><trkpt lat="46.1545234" lon="9.4596435"><ele>222.0</ele><time>2026-03-25T08:39:35.113Z</time></trkpt><trkpt lat="46.1544904" lon="9.4597364"><ele>222.0</ele><time>2026-03-25T08:39:36.113Z</time></trkpt><trkpt lat="46.1544275" lon="9.4598674"><ele>222.0</ele><time>2026-03-25T08:39:38.114Z</time></trkpt><trkpt lat="46.1543862" lon="9.4599454"><ele>222.0</ele><time>2026-03-25T08:39:40.112Z</time></trkpt><trkpt lat="46.1543363" lon="9.460032"><ele>222.0</ele><time>2026-03-25T08:39:44.112Z</time></trkpt><trkpt lat="46.1542724" lon="9.4600993"><ele>222.0</ele><time>2026-03-25T08:39:47.114Z</time></trkpt><trkpt lat="46.1542397" lon="9.4601862"><ele>222.0</ele><time>2026-03-25T08:39:49.113Z</time></trkpt><trkpt lat="46.1541954" lon="9.4602987"><ele>222.0</ele><time>2026-03-25T08:39:51.113Z</time></trkpt><trkpt lat="46.1541472" lon="9.4604219"><ele>222.0</ele><time>2026-03-25T08:39:53.114Z</time></trkpt><trkpt lat="46.1541082" lon="9.4605659"><ele>222.0</ele><time>2026-03-25T08:39:55.113Z</time></trkpt><trkpt lat="46.1540755" lon="9.460712"><ele>222.0</ele><time>2026-03-25T08:39:57.112Z</time></trkpt><trkpt lat="46.1540443" lon="9.4608425"><ele>222.5</ele><time>2026-03-25T08:40:00.113Z</time></trkpt><trkpt lat="46.1540172" lon="9.4609288"><ele>223.0</ele><time>2026-03-25T08:40:02.113Z</time></trkpt><trkpt lat="46.1539771" lon="9.461023"><ele>223.5</ele><time>2026-03-25T08:40:04.113Z</time></trkpt><trkpt lat="46.1539299" lon="9.4610885"><ele>224.0</ele><time>2026-03-25T08:40:06.113Z</time></trkpt><trkpt lat="46.1538739" lon="9.4611992"><ele>224.5</ele><time>2026-03-25T08:40:09.115Z</time></trkpt><trkpt lat="46.1538121" lon="9.4612793"><ele>225.0</ele><time>2026-03-25T08:40:11.115Z</time></trkpt><trkpt lat="46.1537516" lon="9.4613443"><ele>225.00000000000003</ele><time>2026-03-25T08:40:13.113Z</time></trkpt><trkpt lat="46.1537042" lon="9.4614175"><ele>225.0</ele><time>2026-03-25T08:40:15.113Z</time></trkpt><trkpt lat="46.1536591" lon="9.4614831"><ele>225.00000000000003</ele><time>2026-03-25T08:40:17.114Z</time></trkpt><trkpt lat="46.1536305" lon="9.4615749"><ele>225.00000000000003</ele><time>2026-03-25T08:40:19.114Z</time></trkpt><trkpt lat="46.1536184" lon="9.4616937"><ele>225.0</ele><time>2026-03-25T08:40:22.113Z</time></trkpt><trkpt lat="46.1535857" lon="9.4617835"><ele>225.00000000000003</ele><time>2026-03-25T08:40:45.112Z</time></trkpt><trkpt lat="46.1536601" lon="9.4618112"><ele>225.00000000000003</ele><time>2026-03-25T08:42:07.114Z</time></trkpt><trkpt lat="46.1537216" lon="9.4618624"><ele>225.0</ele><time>2026-03-25T08:42:15.115Z</time></trkpt><trkpt lat="46.1537457" lon="9.4619548"><ele>225.0</ele><time>2026-03-25T08:42:27.114Z</time></trkpt><trkpt lat="46.1537099" lon="9.4620465"><ele>225.0</ele><time>2026-03-25T08:42:31.115Z</time></trkpt><trkpt lat="46.1536538" lon="9.4620969"><ele>225.0</ele><time>2026-03-25T08:42:35.114Z</time></trkpt><trkpt lat="46.1535538" lon="9.462143"><ele>225.0</ele><time>2026-03-25T08:42:38.115Z</time></trkpt><trkpt lat="46.1534876" lon="9.4622064"><ele>225.0</ele><time>2026-03-25T08:42:42.113Z</time></trkpt><trkpt lat="46.1534473" lon="9.4623035"><ele>225.71428571428575</ele><time>2026-03-25T08:42:45.115Z</time></trkpt><trkpt lat="46.1534265" lon="9.4624025"><ele>226.42857142857144</ele><time>2026-03-25T08:42:47.115Z</time></trkpt><trkpt lat="46.1533961" lon="9.4625056"><ele>227.14285714285714</ele><time>2026-03-25T08:42:50.115Z</time></trkpt><trkpt lat="46.1533612" lon="9.4625957"><ele>227.85714285714286</ele><time>2026-03-25T08:42:53.113Z</time></trkpt><trkpt lat="46.153323" lon="9.4626687"><ele>228.57142857142856</ele><time>2026-03-25T08:42:57.113Z</time></trkpt><trkpt lat="46.153249" lon="9.4626941"><ele>229.28571428571425</ele><time>2026-03-25T08:43:01.113Z</time></trkpt><trkpt lat="46.1532012" lon="9.4627651"><ele>229.99999999999997</ele><time>2026-03-25T08:43:03.113Z</time></trkpt><trkpt lat="46.1531886" lon="9.4628901"><ele>227.8</ele><time>2026-03-25T08:43:06.115Z</time></trkpt><trkpt lat="46.1531785" lon="9.4629999"><ele>225.6</ele><time>2026-03-25T08:43:08.113Z</time></trkpt><trkpt lat="46.1531579" lon="9.4631359"><ele>223.39999999999998</ele><time>2026-03-25T08:43:10.115Z</time></trkpt><trkpt lat="46.1531452" lon="9.4632872"><ele>221.2</ele><time>2026-03-25T08:43:12.114Z</time></trkpt><trkpt lat="46.1531204" lon="9.4634247"><ele>219.0</ele><time>2026-03-25T08:43:14.112Z</time></trkpt><trkpt lat="46.1530968" lon="9.46359"><ele>219.0</ele><time>2026-03-25T08:43:16.113Z</time></trkpt><trkpt lat="46.1530814" lon="9.4637449"><ele>218.99999999999997</ele><time>2026-03-25T08:43:18.114Z</time></trkpt><trkpt lat="46.1530802" lon="9.4639077"><ele>218.99999999999997</ele><time>2026-03-25T08:43:20.115Z</time></trkpt><trkpt lat="46.1530787" lon="9.4640897"><ele>219.0</ele><time>2026-03-25T08:43:22.114Z</time></trkpt><trkpt lat="46.1530766" lon="9.4641819"><ele>219.0</ele><time>2026-03-25T08:43:23.114Z</time></trkpt><trkpt lat="46.1530753" lon="9.4643525"><ele>219.0</ele><time>2026-03-25T08:43:25.113Z</time></trkpt><trkpt lat="46.1530364" lon="9.4645117"><ele>218.99999999999997</ele><time>2026-03-25T08:43:27.114Z</time></trkpt><trkpt lat="46.1529643" lon="9.4646431"><ele>218.99999999999997</ele><time>2026-03-25T08:43:29.113Z</time></trkpt><trkpt lat="46.1528935" lon="9.4647604"><ele>219.0</ele><time>2026-03-25T08:43:31.115Z</time></trkpt><trkpt lat="46.1528752" lon="9.4649149"><ele>219.0</ele><time>2026-03-25T08:43:33.114Z</time></trkpt><trkpt lat="46.1528562" lon="9.4650414"><ele>219.0</ele><time>2026-03-25T08:43:35.113Z</time></trkpt><trkpt lat="46.1528591" lon="9.4651659"><ele>219.0</ele><time>2026-03-25T08:43:37.114Z</time></trkpt><trkpt lat="46.1528795" lon="9.465262"><ele>219.0</ele><time>2026-03-25T08:43:39.115Z</time></trkpt><trkpt lat="46.1529277" lon="9.4653573"><ele>219.0</ele><time>2026-03-25T08:43:42.115Z</time></trkpt><trkpt lat="46.1529861" lon="9.4654044"><ele>219.0</ele><time>2026-03-25T08:43:44.113Z</time></trkpt><trkpt lat="46.1530721" lon="9.4654406"><ele>219.0</ele><time>2026-03-25T08:43:46.115Z</time></trkpt><trkpt lat="46.1531605" lon="9.4654858"><ele>220.0</ele><time>2026-03-25T08:43:48.115Z</time></trkpt><trkpt lat="46.1532284" lon="9.4655198"><ele>221.0</ele><time>2026-03-25T08:43:50.115Z</time></trkpt><trkpt lat="46.1532897" lon="9.4655705"><ele>222.0</ele><time>2026-03-25T08:43:53.114Z</time></trkpt><trkpt lat="46.1533353" lon="9.4656488"><ele>223.0</ele><time>2026-03-25T08:43:57.114Z</time></trkpt><trkpt lat="46.1533342" lon="9.4657448"><ele>224.0</ele><time>2026-03-25T08:43:59.115Z</time></trkpt><trkpt lat="46.1533091" lon="9.4658717"><ele>225.0</ele><time>2026-03-25T08:44:01.114Z</time></trkpt><trkpt lat="46.1532258" lon="9.4659706"><ele>224.0</ele><time>2026-03-25T08:44:03.113Z</time></trkpt><trkpt lat="46.153119" lon="9.4660691"><ele>223.0</ele><time>2026-03-25T08:44:05.114Z</time></trkpt><trkpt lat="46.1530637" lon="9.4661202"><ele>222.0</ele><time>2026-03-25T08:44:06.114Z</time></trkpt><trkpt lat="46.1530085" lon="9.4661801"><ele>221.0</ele><time>2026-03-25T08:44:07.113Z</time></trkpt><trkpt lat="46.152967" lon="9.466252"><ele>220.0</ele><time>2026-03-25T08:44:08.114Z</time></trkpt><trkpt lat="46.1529433" lon="9.466343"><ele>219.0</ele><time>2026-03-25T08:44:09.114Z</time></trkpt><trkpt lat="46.1529218" lon="9.466442"><ele>217.79999999999998</ele><time>2026-03-25T08:44:10.114Z</time></trkpt><trkpt lat="46.1529192" lon="9.4665581"><ele>216.59999999999997</ele><time>2026-03-25T08:44:11.113Z</time></trkpt><trkpt lat="46.1529334" lon="9.4666853"><ele>215.4</ele><time>2026-03-25T08:44:12.114Z</time></trkpt><trkpt lat="46.1529468" lon="9.4668265"><ele>214.2</ele><time>2026-03-25T08:44:13.114Z</time></trkpt><trkpt lat="46.1529586" lon="9.4669652"><ele>213.0</ele><time>2026-03-25T08:44:14.114Z</time></trkpt><trkpt lat="46.1529696" lon="9.4671102"><ele>212.4</ele><time>2026-03-25T08:44:15.114Z</time></trkpt><trkpt lat="46.1529855" lon="9.4672538"><ele>211.8</ele><time>2026-03-25T08:44:16.114Z</time></trkpt><trkpt lat="46.152999" lon="9.4673934"><ele>211.2</ele><time>2026-03-25T08:44:17.115Z</time></trkpt><trkpt lat="46.153028" lon="9.4675209"><ele>210.6</ele><time>2026-03-25T08:44:18.114Z</time></trkpt><trkpt lat="46.1530485" lon="9.4676471"><ele>210.0</ele><time>2026-03-25T08:44:19.113Z</time></trkpt><trkpt lat="46.1530594" lon="9.4677723"><ele>210.0</ele><time>2026-03-25T08:44:20.114Z</time></trkpt><trkpt lat="46.1530711" lon="9.4678874"><ele>210.0</ele><time>2026-03-25T08:44:21.114Z</time></trkpt><trkpt lat="46.1530852" lon="9.4679876"><ele>210.0</ele><time>2026-03-25T08:44:22.114Z</time></trkpt><trkpt lat="46.1531053" lon="9.4680917"><ele>210.0</ele><time>2026-03-25T08:44:23.115Z</time></trkpt><trkpt lat="46.1531204" lon="9.4681852"><ele>210.0</ele><time>2026-03-25T08:44:24.115Z</time></trkpt><trkpt lat="46.1531491" lon="9.4683623"><ele>210.0</ele><time>2026-03-25T08:44:26.113Z</time></trkpt><trkpt lat="46.1531514" lon="9.4685197"><ele>210.16666666666666</ele><time>2026-03-25T08:44:28.115Z</time></trkpt><trkpt lat="46.1531678" lon="9.4686716"><ele>210.33333333333331</ele><time>2026-03-25T08:44:30.113Z</time></trkpt><trkpt lat="46.15318" lon="9.4688128"><ele>210.5</ele><time>2026-03-25T08:44:32.114Z</time></trkpt><trkpt lat="46.1531791" lon="9.4689383"><ele>210.66666666666666</ele><time>2026-03-25T08:44:34.114Z</time></trkpt><trkpt lat="46.153178" lon="9.4690584"><ele>210.83333333333331</ele><time>2026-03-25T08:44:36.115Z</time></trkpt><trkpt lat="46.1531756" lon="9.4691603"><ele>211.0</ele><time>2026-03-25T08:44:38.114Z</time></trkpt><trkpt lat="46.1531771" lon="9.4692527"><ele>210.99999999999997</ele><time>2026-03-25T08:44:40.115Z</time></trkpt><trkpt lat="46.1531652" lon="9.4693742"><ele>211.0</ele><time>2026-03-25T08:44:43.115Z</time></trkpt><trkpt lat="46.1531728" lon="9.4695101"><ele>211.0</ele><time>2026-03-25T08:44:46.114Z</time></trkpt><trkpt lat="46.1531812" lon="9.4696415"><ele>211.0</ele><time>2026-03-25T08:44:49.115Z</time></trkpt><trkpt lat="46.1531895" lon="9.4697705"><ele>210.99999999999997</ele><time>2026-03-25T08:44:52.114Z</time></trkpt><trkpt lat="46.1531931" lon="9.4698958"><ele>211.0</ele><time>2026-03-25T08:44:55.114Z</time></trkpt><trkpt lat="46.1531997" lon="9.4700203"><ele>211.16666666666666</ele><time>2026-03-25T08:44:58.114Z</time></trkpt><trkpt lat="46.153197" lon="9.4701333"><ele>211.33333333333331</ele><time>2026-03-25T08:45:01.115Z</time></trkpt><trkpt lat="46.1531999" lon="9.4702473"><ele>211.5</ele><time>2026-03-25T08:45:04.115Z</time></trkpt><trkpt lat="46.1532035" lon="9.4703724"><ele>211.66666666666669</ele><time>2026-03-25T08:45:07.209Z</time></trkpt><trkpt lat="46.1532005" lon="9.4704704"><ele>211.83333333333334</ele><time>2026-03-25T08:45:10.114Z</time></trkpt><trkpt lat="46.1532101" lon="9.4705842"><ele>212.0</ele><time>2026-03-25T08:45:13.202Z</time></trkpt><trkpt lat="46.1532574" lon="9.4707041"><ele>214.00000000000003</ele><time>2026-03-25T08:45:16.114Z</time></trkpt><trkpt lat="46.1532953" lon="9.470806"><ele>216.0</ele><time>2026-03-25T08:45:18.205Z</time></trkpt><trkpt lat="46.1533706" lon="9.4709516"><ele>218.0</ele><time>2026-03-25T08:45:20.114Z</time></trkpt><trkpt lat="46.1534045" lon="9.4710339"><ele>220.0</ele><time>2026-03-25T08:45:21.114Z</time></trkpt><trkpt lat="46.1534405" lon="9.47113"><ele>222.00000000000003</ele><time>2026-03-25T08:45:22.113Z</time></trkpt><trkpt lat="46.1534765" lon="9.4712294"><ele>224.0</ele><time>2026-03-25T08:45:23.116Z</time></trkpt><trkpt lat="46.1535091" lon="9.471325"><ele>224.0</ele><time>2026-03-25T08:45:24.114Z</time></trkpt><trkpt lat="46.1535424" lon="9.4714229"><ele>223.99999999999997</ele><time>2026-03-25T08:45:25.115Z</time></trkpt><trkpt lat="46.1535696" lon="9.4715351"><ele>223.99999999999997</ele><time>2026-03-25T08:45:26.115Z</time></trkpt><trkpt lat="46.1535873" lon="9.4716616"><ele>224.0</ele><time>2026-03-25T08:45:27.113Z</time></trkpt><trkpt lat="46.1535926" lon="9.4718052"><ele>224.0</ele><time>2026-03-25T08:45:28.114Z</time></trkpt><trkpt lat="46.1535899" lon="9.4719585"><ele>223.79999999999998</ele><time>2026-03-25T08:45:29.114Z</time></trkpt><trkpt lat="46.1535841" lon="9.4721137"><ele>223.59999999999997</ele><time>2026-03-25T08:45:30.113Z</time></trkpt><trkpt lat="46.1535758" lon="9.4722733"><ele>223.4</ele><time>2026-03-25T08:45:31.113Z</time></trkpt><trkpt lat="46.1535612" lon="9.4724316"><ele>223.2</ele><time>2026-03-25T08:45:32.113Z</time></trkpt><trkpt lat="46.1535365" lon="9.4725838"><ele>223.0</ele><time>2026-03-25T08:45:33.116Z</time></trkpt><trkpt lat="46.1535053" lon="9.4727234"><ele>223.0</ele><time>2026-03-25T08:45:34.114Z</time></trkpt><trkpt lat="46.15345" lon="9.4728548"><ele>223.0</ele><time>2026-03-25T08:45:35.114Z</time></trkpt><trkpt lat="46.1533883" lon="9.4729849"><ele>223.0</ele><time>2026-03-25T08:45:36.114Z</time></trkpt><trkpt lat="46.1533227" lon="9.4731126"><ele>223.0</ele><time>2026-03-25T08:45:37.114Z</time></trkpt><trkpt lat="46.153189" lon="9.4733718"><ele>220.0</ele><time>2026-03-25T08:45:39.114Z</time></trkpt><trkpt lat="46.1531215" lon="9.4735035"><ele>217.0</ele><time>2026-03-25T08:45:40.114Z</time></trkpt><trkpt lat="46.1530613" lon="9.4736415"><ele>214.0</ele><time>2026-03-25T08:45:41.114Z</time></trkpt><trkpt lat="46.1530116" lon="9.4737805"><ele>211.0</ele><time>2026-03-25T08:45:42.114Z</time></trkpt><trkpt lat="46.152971" lon="9.4739131"><ele>208.0</ele><time>2026-03-25T08:45:43.114Z</time></trkpt><trkpt lat="46.1529353" lon="9.4740324"><ele>207.99999999999997</ele><time>2026-03-25T08:45:44.114Z</time></trkpt><trkpt lat="46.1529047" lon="9.4741319"><ele>208.0</ele><time>2026-03-25T08:45:45.114Z</time></trkpt><trkpt lat="46.1528787" lon="9.4742164"><ele>208.0</ele><time>2026-03-25T08:45:46.116Z</time></trkpt><trkpt lat="46.1528398" lon="9.4743579"><ele>208.0</ele><time>2026-03-25T08:45:48.114Z</time></trkpt><trkpt lat="46.1528132" lon="9.4744765"><ele>207.99999999999997</ele><time>2026-03-25T08:45:50.116Z</time></trkpt><trkpt lat="46.1528001" lon="9.4745672"><ele>208.0</ele><time>2026-03-25T08:45:52.115Z</time></trkpt><trkpt lat="46.1527782" lon="9.4746685"><ele>208.7142857142857</ele><time>2026-03-25T08:45:56.115Z</time></trkpt><trkpt lat="46.1528228" lon="9.47474"><ele>209.42857142857144</ele><time>2026-03-25T08:45:59.116Z</time></trkpt><trkpt lat="46.1528857" lon="9.474775"><ele>210.14285714285714</ele><time>2026-03-25T08:46:01.114Z</time></trkpt><trkpt lat="46.1529532" lon="9.4748227"><ele>210.85714285714283</ele><time>2026-03-25T08:46:03.115Z</time></trkpt><trkpt lat="46.1530139" lon="9.4748536"><ele>211.57142857142856</ele><time>2026-03-25T08:46:05.116Z</time></trkpt><trkpt lat="46.1530985" lon="9.474885"><ele>212.28571428571428</ele><time>2026-03-25T08:46:08.114Z</time></trkpt><trkpt lat="46.1531748" lon="9.4749289"><ele>213.0</ele><time>2026-03-25T08:46:11.116Z</time></trkpt><trkpt lat="46.1532557" lon="9.4749292"><ele>213.5</ele><time>2026-03-25T08:46:14.116Z</time></trkpt><trkpt lat="46.1533374" lon="9.4749204"><ele>214.0</ele><time>2026-03-25T08:46:17.113Z</time></trkpt><trkpt lat="46.1533872" lon="9.4748512"><ele>214.5</ele><time>2026-03-25T08:46:19.114Z</time></trkpt><trkpt lat="46.1534525" lon="9.4747577"><ele>215.0</ele><time>2026-03-25T08:46:22.115Z</time></trkpt><trkpt lat="46.1534991" lon="9.4746577"><ele>215.5</ele><time>2026-03-25T08:46:25.115Z</time></trkpt><trkpt lat="46.1535281" lon="9.4745529"><ele>216.0</ele><time>2026-03-25T08:46:28.113Z</time></trkpt><trkpt lat="46.1535552" lon="9.4744508"><ele>216.0</ele><time>2026-03-25T08:46:31.113Z</time></trkpt><trkpt lat="46.1535832" lon="9.4743631"><ele>216.0</ele><time>2026-03-25T08:46:34.115Z</time></trkpt><trkpt lat="46.15361" lon="9.4742559"><ele>216.0</ele><time>2026-03-25T08:46:38.114Z</time></trkpt><trkpt lat="46.1536699" lon="9.4742154"><ele>216.0</ele><time>2026-03-25T08:46:42.114Z</time></trkpt><trkpt lat="46.153693" lon="9.4743025"><ele>216.0</ele><time>2026-03-25T08:46:46.114Z</time></trkpt><trkpt lat="46.1536774" lon="9.4744132"><ele>216.0</ele><time>2026-03-25T08:46:50.115Z</time></trkpt><trkpt lat="46.1536675" lon="9.4745154"><ele>216.0</ele><time>2026-03-25T08:46:54.116Z</time></trkpt><trkpt lat="46.1536695" lon="9.4746177"><ele>217.0</ele><time>2026-03-25T08:46:58.114Z</time></trkpt><trkpt lat="46.1536763" lon="9.4747111"><ele>218.0</ele><time>2026-03-25T08:47:02.115Z</time></trkpt><trkpt lat="46.1536719" lon="9.4748095"><ele>219.0</ele><time>2026-03-25T08:47:06.116Z</time></trkpt><trkpt lat="46.1536772" lon="9.4749067"><ele>220.0</ele><time>2026-03-25T08:47:10.115Z</time></trkpt><trkpt lat="46.1536653" lon="9.4750079"><ele>221.0</ele><time>2026-03-25T08:47:14.114Z</time></trkpt><trkpt lat="46.1536497" lon="9.4751004"><ele>222.0</ele><time>2026-03-25T08:47:18.115Z</time></trkpt><trkpt lat="46.1536372" lon="9.4752177"><ele>223.0</ele><time>2026-03-25T08:47:23.114Z</time></trkpt><trkpt lat="46.1536305" lon="9.4753282"><ele>223.0</ele><time>2026-03-25T08:47:27.114Z</time></trkpt><trkpt lat="46.1536276" lon="9.4754216"><ele>223.0</ele><time>2026-03-25T08:47:31.114Z</time></trkpt><trkpt lat="46.153624" lon="9.4755363"><ele>223.0</ele><time>2026-03-25T08:47:36.115Z</time></trkpt><trkpt lat="46.1536142" lon="9.4756445"><ele>223.0</ele><time>2026-03-25T08:47:40.114Z</time></trkpt><trkpt lat="46.1536129" lon="9.475745"><ele>223.0</ele><time>2026-03-25T08:47:44.115Z</time></trkpt><trkpt lat="46.1536213" lon="9.4758448"><ele>223.0</ele><time>2026-03-25T08:47:48.116Z</time></trkpt><trkpt lat="46.1536078" lon="9.4759606"><ele>223.0</ele><time>2026-03-25T08:47:53.116Z</time></trkpt><trkpt lat="46.1535918" lon="9.4760628"><ele>223.71428571428572</ele><time>2026-03-25T08:47:57.115Z</time></trkpt><trkpt lat="46.1536005" lon="9.4761694"><ele>224.42857142857142</ele><time>2026-03-25T08:48:02.115Z</time></trkpt><trkpt lat="46.1536084" lon="9.4762684"><ele>225.14285714285714</ele><time>2026-03-25T08:48:07.115Z</time></trkpt><trkpt lat="46.1536731" lon="9.4762905"><ele>225.85714285714283</ele><time>2026-03-25T08:48:14.115Z</time></trkpt><trkpt lat="46.1536757" lon="9.4761908"><ele>226.57142857142856</ele><time>2026-03-25T08:48:18.115Z</time></trkpt><trkpt lat="46.1536802" lon="9.476094"><ele>227.28571428571428</ele><time>2026-03-25T08:48:23.114Z</time></trkpt><trkpt lat="46.1537046" lon="9.4760057"><ele>228.0</ele><time>2026-03-25T08:48:27.114Z</time></trkpt><trkpt lat="46.1537307" lon="9.4758801"><ele>228.0</ele><time>2026-03-25T08:48:33.115Z</time></trkpt><trkpt lat="46.1537495" lon="9.4757784"><ele>227.99999999999997</ele><time>2026-03-25T08:48:37.114Z</time></trkpt><trkpt lat="46.1537653" lon="9.4756756"><ele>228.0</ele><time>2026-03-25T08:48:41.116Z</time></trkpt><trkpt lat="46.1537727" lon="9.4755684"><ele>228.0</ele><time>2026-03-25T08:48:46.151Z</time></trkpt><trkpt lat="46.153786" lon="9.4754642"><ele>227.99999999999997</ele><time>2026-03-25T08:48:51.115Z</time></trkpt><trkpt lat="46.153855" lon="9.4754351"><ele>228.0</ele><time>2026-03-25T08:48:56.216Z</time></trkpt><trkpt lat="46.1538806" lon="9.4755255"><ele>228.0</ele><time>2026-03-25T08:49:00.062Z</time></trkpt><trkpt lat="46.1538758" lon="9.4756343"><ele>228.0</ele><time>2026-03-25T08:49:04.115Z</time></trkpt><trkpt lat="46.1538584" lon="9.4757367"><ele>227.99999999999997</ele><time>2026-03-25T08:49:08.218Z</time></trkpt><trkpt lat="46.1538273" lon="9.4758274"><ele>228.0</ele><time>2026-03-25T08:49:12.114Z</time></trkpt><trkpt lat="46.1538011" lon="9.4759327"><ele>228.0</ele><time>2026-03-25T08:49:17.221Z</time></trkpt><trkpt lat="46.1537822" lon="9.4760238"><ele>227.99999999999997</ele><time>2026-03-25T08:49:21.94Z</time></trkpt><trkpt lat="46.1537755" lon="9.476122"><ele>228.0</ele><time>2026-03-25T08:49:26.116Z</time></trkpt><trkpt lat="46.1537752" lon="9.4762173"><ele>228.0</ele><time>2026-03-25T08:49:30.115Z</time></trkpt><trkpt lat="46.1537829" lon="9.4763173"><ele>229.28571428571428</ele><time>2026-03-25T08:49:34.116Z</time></trkpt><trkpt lat="46.1538109" lon="9.4764082"><ele>230.57142857142856</ele><time>2026-03-25T08:49:38.216Z</time></trkpt><trkpt lat="46.1538283" lon="9.4765206"><ele>231.85714285714283</ele><time>2026-03-25T08:49:43.115Z</time></trkpt><trkpt lat="46.1538332" lon="9.4766143"><ele>233.1428571428571</ele><time>2026-03-25T08:49:47.06Z</time></trkpt><trkpt lat="46.1538515" lon="9.4767071"><ele>234.42857142857142</ele><time>2026-03-25T08:49:51.219Z</time></trkpt><trkpt lat="46.1538662" lon="9.4768035"><ele>235.71428571428567</ele><time>2026-03-25T08:49:55.936Z</time></trkpt><trkpt lat="46.1538726" lon="9.476917"><ele>236.99999999999997</ele><time>2026-03-25T08:50:01.074Z</time></trkpt><trkpt lat="46.1538661" lon="9.4770156"><ele>238.28571428571425</ele><time>2026-03-25T08:50:05.223Z</time></trkpt><trkpt lat="46.1538705" lon="9.477112"><ele>239.57142857142856</ele><time>2026-03-25T08:50:09.219Z</time></trkpt><trkpt lat="46.1538744" lon="9.4772072"><ele>240.85714285714286</ele><time>2026-03-25T08:50:14.115Z</time></trkpt><trkpt lat="46.1538917" lon="9.477309"><ele>242.14285714285714</ele><time>2026-03-25T08:50:19.202Z</time></trkpt><trkpt lat="46.1538899" lon="9.4774063"><ele>243.42857142857144</ele><time>2026-03-25T08:50:23.116Z</time></trkpt><trkpt lat="46.1539121" lon="9.4775148"><ele>244.71428571428575</ele><time>2026-03-25T08:50:28.116Z</time></trkpt><trkpt lat="46.1539287" lon="9.4776091"><ele>246.00000000000003</ele><time>2026-03-25T08:50:33.215Z</time></trkpt><trkpt lat="46.153949" lon="9.4776981"><ele>246.00000000000003</ele><time>2026-03-25T08:50:38.215Z</time></trkpt><trkpt lat="46.1539774" lon="9.4777913"><ele>246.0</ele><time>2026-03-25T08:50:43.117Z</time></trkpt><trkpt lat="46.1539947" lon="9.4778997"><ele>246.00000000000003</ele><time>2026-03-25T08:50:47.207Z</time></trkpt><trkpt lat="46.153975" lon="9.4779938"><ele>246.00000000000003</ele><time>2026-03-25T08:50:49.116Z</time></trkpt><trkpt lat="46.1539246" lon="9.4780973"><ele>246.0</ele><time>2026-03-25T08:50:53.115Z</time></trkpt><trkpt lat="46.1538833" lon="9.4781976"><ele>246.00000000000003</ele><time>2026-03-25T08:50:57.116Z</time></trkpt><trkpt lat="46.1538664" lon="9.4782868"><ele>246.00000000000003</ele><time>2026-03-25T08:51:00.115Z</time></trkpt><trkpt lat="46.1538643" lon="9.4783936"><ele>246.28571428571433</ele><time>2026-03-25T08:51:03.115Z</time></trkpt><trkpt lat="46.1538561" lon="9.4784919"><ele>246.57142857142858</ele><time>2026-03-25T08:51:06.117Z</time></trkpt><trkpt lat="46.1538789" lon="9.478608"><ele>246.8571428571429</ele><time>2026-03-25T08:51:10.117Z</time></trkpt><trkpt lat="46.1538944" lon="9.4787133"><ele>247.14285714285717</ele><time>2026-03-25T08:51:13.114Z</time></trkpt><trkpt lat="46.1539093" lon="9.4788108"><ele>247.42857142857144</ele><time>2026-03-25T08:51:16.115Z</time></trkpt><trkpt lat="46.1539313" lon="9.4789042"><ele>247.71428571428572</ele><time>2026-03-25T08:51:19.115Z</time></trkpt><trkpt lat="46.15396" lon="9.4790044"><ele>248.0</ele><time>2026-03-25T08:51:22.115Z</time></trkpt><trkpt lat="46.1539921" lon="9.479096"><ele>247.2857142857143</ele><time>2026-03-25T08:51:25.116Z</time></trkpt><trkpt lat="46.1540311" lon="9.4791784"><ele>246.5714285714286</ele><time>2026-03-25T08:51:28.116Z</time></trkpt><trkpt lat="46.1540724" lon="9.4792662"><ele>245.85714285714286</ele><time>2026-03-25T08:51:31.116Z</time></trkpt><trkpt lat="46.154116" lon="9.4793338"><ele>245.14285714285717</ele><time>2026-03-25T08:51:34.115Z</time></trkpt><trkpt lat="46.1541377" lon="9.47942"><ele>244.42857142857144</ele><time>2026-03-25T08:51:37.116Z</time></trkpt><trkpt lat="46.1541078" lon="9.4795118"><ele>243.71428571428572</ele><time>2026-03-25T08:51:40.117Z</time></trkpt><trkpt lat="46.154046" lon="9.4795678"><ele>243.0</ele><time>2026-03-25T08:51:43.115Z</time></trkpt><trkpt lat="46.1539752" lon="9.4795363"><ele>243.0</ele><time>2026-03-25T08:51:45.116Z</time></trkpt><trkpt lat="46.1538882" lon="9.4795448"><ele>243.0</ele><time>2026-03-25T08:51:47.116Z</time></trkpt><trkpt lat="46.1537858" lon="9.4795698"><ele>243.0</ele><time>2026-03-25T08:51:49.116Z</time></trkpt><trkpt lat="46.1536976" lon="9.4796817"><ele>243.0</ele><time>2026-03-25T08:51:51.116Z</time></trkpt><trkpt lat="46.15366" lon="9.4797581"><ele>243.0</ele><time>2026-03-25T08:51:52.115Z</time></trkpt><trkpt lat="46.1536297" lon="9.4798447"><ele>243.0</ele><time>2026-03-25T08:51:53.116Z</time></trkpt><trkpt lat="46.1536081" lon="9.4799328"><ele>243.0</ele><time>2026-03-25T08:51:54.117Z</time></trkpt><trkpt lat="46.1535911" lon="9.4800204"><ele>243.0</ele><time>2026-03-25T08:51:55.116Z</time></trkpt><trkpt lat="46.1535487" lon="9.4801875"><ele>243.0</ele><time>2026-03-25T08:51:57.116Z</time></trkpt><trkpt lat="46.1535182" lon="9.4803446"><ele>243.0</ele><time>2026-03-25T08:51:59.116Z</time></trkpt><trkpt lat="46.1534878" lon="9.4804931"><ele>243.0</ele><time>2026-03-25T08:52:01.116Z</time></trkpt><trkpt lat="46.1534782" lon="9.4805974"><ele>243.5</ele><time>2026-03-25T08:52:03.115Z</time></trkpt><trkpt lat="46.1534695" lon="9.4807082"><ele>244.0</ele><time>2026-03-25T08:52:05.115Z</time></trkpt><trkpt lat="46.1534636" lon="9.4808074"><ele>244.5</ele><time>2026-03-25T08:52:07.116Z</time></trkpt><trkpt lat="46.1534555" lon="9.4809127"><ele>245.0</ele><time>2026-03-25T08:52:09.116Z</time></trkpt><trkpt lat="46.1534492" lon="9.481022"><ele>245.5</ele><time>2026-03-25T08:52:11.116Z</time></trkpt><trkpt lat="46.1534383" lon="9.4811318"><ele>246.0</ele><time>2026-03-25T08:52:13.116Z</time></trkpt><trkpt lat="46.1534229" lon="9.4812685"><ele>246.60000000000002</ele><time>2026-03-25T08:52:15.117Z</time></trkpt><trkpt lat="46.1534068" lon="9.4813961"><ele>247.20000000000002</ele><time>2026-03-25T08:52:17.116Z</time></trkpt><trkpt lat="46.1533895" lon="9.4815385"><ele>247.79999999999998</ele><time>2026-03-25T08:52:19.117Z</time></trkpt><trkpt lat="46.1533904" lon="9.4816834"><ele>248.39999999999998</ele><time>2026-03-25T08:52:21.116Z</time></trkpt><trkpt lat="46.1533699" lon="9.4818546"><ele>249.0</ele><time>2026-03-25T08:52:23.116Z</time></trkpt><trkpt lat="46.1533524" lon="9.4820323"><ele>249.2</ele><time>2026-03-25T08:52:25.117Z</time></trkpt><trkpt lat="46.1533505" lon="9.4822115"><ele>249.39999999999998</ele><time>2026-03-25T08:52:27.116Z</time></trkpt><trkpt lat="46.1533748" lon="9.4823684"><ele>249.6</ele><time>2026-03-25T08:52:29.117Z</time></trkpt><trkpt lat="46.153386" lon="9.4824882"><ele>249.8</ele><time>2026-03-25T08:52:31.116Z</time></trkpt><trkpt lat="46.153311" lon="9.4824865"><ele>250.0</ele><time>2026-03-25T08:52:34.116Z</time></trkpt><trkpt lat="46.1532878" lon="9.4823923"><ele>249.99999999999997</ele><time>2026-03-25T08:52:36.117Z</time></trkpt><trkpt lat="46.1532551" lon="9.4822319"><ele>250.0</ele><time>2026-03-25T08:52:38.117Z</time></trkpt><trkpt lat="46.1532249" lon="9.4820709"><ele>250.0</ele><time>2026-03-25T08:52:40.118Z</time></trkpt><trkpt lat="46.1531692" lon="9.4819919"><ele>250.0</ele><time>2026-03-25T08:52:42.116Z</time></trkpt><trkpt lat="46.1531187" lon="9.4820466"><ele>249.99999999999997</ele><time>2026-03-25T08:52:44.116Z</time></trkpt><trkpt lat="46.1531268" lon="9.4821556"><ele>250.0</ele><time>2026-03-25T08:52:46.117Z</time></trkpt><trkpt lat="46.1531611" lon="9.4822974"><ele>244.4</ele><time>2026-03-25T08:52:48.116Z</time></trkpt><trkpt lat="46.1531876" lon="9.4824853"><ele>238.8</ele><time>2026-03-25T08:52:50.117Z</time></trkpt><trkpt lat="46.1531971" lon="9.4825986"><ele>233.2</ele><time>2026-03-25T08:52:51.116Z</time></trkpt><trkpt lat="46.1531989" lon="9.4827224"><ele>227.6</ele><time>2026-03-25T08:52:52.115Z</time></trkpt><trkpt lat="46.1531959" lon="9.482852"><ele>222.0</ele><time>2026-03-25T08:52:53.115Z</time></trkpt><trkpt lat="46.153182" lon="9.4829874"><ele>222.0</ele><time>2026-03-25T08:52:54.115Z</time></trkpt><trkpt lat="46.1531654" lon="9.4831333"><ele>222.0</ele><time>2026-03-25T08:52:55.116Z</time></trkpt><trkpt lat="46.1531364" lon="9.4832792"><ele>222.0</ele><time>2026-03-25T08:52:56.116Z</time></trkpt><trkpt lat="46.1531075" lon="9.4834365"><ele>222.0</ele><time>2026-03-25T08:52:57.117Z</time></trkpt><trkpt lat="46.1530788" lon="9.4835817"><ele>222.0</ele><time>2026-03-25T08:52:58.117Z</time></trkpt><trkpt lat="46.1530601" lon="9.4837023"><ele>221.33333333333334</ele><time>2026-03-25T08:52:59.116Z</time></trkpt><trkpt lat="46.1530374" lon="9.483825"><ele>220.66666666666669</ele><time>2026-03-25T08:53:00.117Z</time></trkpt><trkpt lat="46.1530191" lon="9.4839265"><ele>220.0</ele><time>2026-03-25T08:53:01.117Z</time></trkpt><trkpt lat="46.153002" lon="9.484018"><ele>219.33333333333334</ele><time>2026-03-25T08:53:02.115Z</time></trkpt><trkpt lat="46.1529821" lon="9.484114"><ele>218.66666666666669</ele><time>2026-03-25T08:53:03.116Z</time></trkpt><trkpt lat="46.1529675" lon="9.4842062"><ele>218.0</ele><time>2026-03-25T08:53:04.116Z</time></trkpt><trkpt lat="46.152945" lon="9.4843708"><ele>218.0</ele><time>2026-03-25T08:53:06.116Z</time></trkpt><trkpt lat="46.1529169" lon="9.4845232"><ele>218.0</ele><time>2026-03-25T08:53:08.116Z</time></trkpt><trkpt lat="46.1528981" lon="9.484693"><ele>218.0</ele><time>2026-03-25T08:53:10.118Z</time></trkpt><trkpt lat="46.152872" lon="9.4848673"><ele>218.0</ele><time>2026-03-25T08:53:12.117Z</time></trkpt><trkpt lat="46.1528604" lon="9.4849588"><ele>218.0</ele><time>2026-03-25T08:53:13.117Z</time></trkpt><trkpt lat="46.1528496" lon="9.485052"><ele>217.85714285714286</ele><time>2026-03-25T08:53:14.117Z</time></trkpt><trkpt lat="46.1528364" lon="9.4851482"><ele>217.71428571428572</ele><time>2026-03-25T08:53:15.116Z</time></trkpt><trkpt lat="46.1528244" lon="9.4852464"><ele>217.57142857142856</ele><time>2026-03-25T08:53:16.118Z</time></trkpt><trkpt lat="46.1528144" lon="9.485337"><ele>217.42857142857144</ele><time>2026-03-25T08:53:17.116Z</time></trkpt><trkpt lat="46.1528084" lon="9.4854291"><ele>217.28571428571428</ele><time>2026-03-25T08:53:18.115Z</time></trkpt><trkpt lat="46.1527997" lon="9.4855245"><ele>217.14285714285714</ele><time>2026-03-25T08:53:19.117Z</time></trkpt><trkpt lat="46.152783" lon="9.4856219"><ele>217.0</ele><time>2026-03-25T08:53:20.115Z</time></trkpt><trkpt lat="46.1527678" lon="9.4857656"><ele>216.99999999999997</ele><time>2026-03-25T08:53:22.117Z</time></trkpt><trkpt lat="46.1527235" lon="9.4859047"><ele>217.0</ele><time>2026-03-25T08:53:24.116Z</time></trkpt><trkpt lat="46.1526988" lon="9.4860797"><ele>217.0</ele><time>2026-03-25T08:53:26.116Z</time></trkpt><trkpt lat="46.1527049" lon="9.4861728"><ele>217.0</ele><time>2026-03-25T08:53:27.116Z</time></trkpt><trkpt lat="46.1527056" lon="9.4862747"><ele>216.99999999999997</ele><time>2026-03-25T08:53:28.116Z</time></trkpt><trkpt lat="46.1527139" lon="9.4863867"><ele>217.0</ele><time>2026-03-25T08:53:29.115Z</time></trkpt><trkpt lat="46.152718" lon="9.4865007"><ele>217.16666666666666</ele><time>2026-03-25T08:53:30.116Z</time></trkpt><trkpt lat="46.1527199" lon="9.4866087"><ele>217.33333333333331</ele><time>2026-03-25T08:53:31.116Z</time></trkpt><trkpt lat="46.1527094" lon="9.4867112"><ele>217.5</ele><time>2026-03-25T08:53:32.117Z</time></trkpt><trkpt lat="46.1526789" lon="9.4868016"><ele>217.66666666666669</ele><time>2026-03-25T08:53:33.117Z</time></trkpt><trkpt lat="46.1526309" lon="9.4868766"><ele>217.83333333333334</ele><time>2026-03-25T08:53:34.116Z</time></trkpt><trkpt lat="46.1525743" lon="9.486922"><ele>218.0</ele><time>2026-03-25T08:53:35.117Z</time></trkpt><trkpt lat="46.1524702" lon="9.4869601"><ele>218.00000000000003</ele><time>2026-03-25T08:53:37.115Z</time></trkpt><trkpt lat="46.1523881" lon="9.4869711"><ele>218.0</ele><time>2026-03-25T08:53:39.117Z</time></trkpt><trkpt lat="46.1523046" lon="9.4869919"><ele>218.0</ele><time>2026-03-25T08:53:42.117Z</time></trkpt><trkpt lat="46.1522821" lon="9.4871031"><ele>218.0</ele><time>2026-03-25T08:53:45.117Z</time></trkpt><trkpt lat="46.1522762" lon="9.4872095"><ele>218.00000000000003</ele><time>2026-03-25T08:53:47.115Z</time></trkpt><trkpt lat="46.1522688" lon="9.487348"><ele>218.0</ele><time>2026-03-25T08:53:49.116Z</time></trkpt><trkpt lat="46.152273" lon="9.4875287"><ele>216.85714285714286</ele><time>2026-03-25T08:53:51.117Z</time></trkpt><trkpt lat="46.1522778" lon="9.4876261"><ele>215.71428571428572</ele><time>2026-03-25T08:53:52.117Z</time></trkpt><trkpt lat="46.1522749" lon="9.487727"><ele>214.57142857142856</ele><time>2026-03-25T08:53:53.118Z</time></trkpt><trkpt lat="46.1522832" lon="9.487838"><ele>213.42857142857144</ele><time>2026-03-25T08:53:54.117Z</time></trkpt><trkpt lat="46.1522885" lon="9.4879412"><ele>212.28571428571428</ele><time>2026-03-25T08:53:55.117Z</time></trkpt><trkpt lat="46.1522955" lon="9.4880396"><ele>211.14285714285714</ele><time>2026-03-25T08:53:56.115Z</time></trkpt><trkpt lat="46.1522988" lon="9.4881352"><ele>210.0</ele><time>2026-03-25T08:53:57.116Z</time></trkpt><trkpt lat="46.1523047" lon="9.4882348"><ele>210.0</ele><time>2026-03-25T08:53:58.116Z</time></trkpt><trkpt lat="46.1523078" lon="9.4883341"><ele>210.0</ele><time>2026-03-25T08:53:59.118Z</time></trkpt><trkpt lat="46.1523087" lon="9.488429"><ele>210.0</ele><time>2026-03-25T08:54:00.116Z</time></trkpt><trkpt lat="46.1522993" lon="9.4885218"><ele>210.0</ele><time>2026-03-25T08:54:01.115Z</time></trkpt><trkpt lat="46.1522968" lon="9.4886129"><ele>210.0</ele><time>2026-03-25T08:54:02.115Z</time></trkpt><trkpt lat="46.1522959" lon="9.4887039"><ele>210.0</ele><time>2026-03-25T08:54:03.117Z</time></trkpt><trkpt lat="46.1523028" lon="9.4888047"><ele>210.0</ele><time>2026-03-25T08:54:04.117Z</time></trkpt><trkpt lat="46.1523217" lon="9.4888943"><ele>210.0</ele><time>2026-03-25T08:54:05.116Z</time></trkpt><trkpt lat="46.1523377" lon="9.4890679"><ele>210.0</ele><time>2026-03-25T08:54:07.116Z</time></trkpt><trkpt lat="46.1523517" lon="9.4891677"><ele>210.0</ele><time>2026-03-25T08:54:08.116Z</time></trkpt><trkpt lat="46.1523888" lon="9.4893378"><ele>210.0</ele><time>2026-03-25T08:54:10.117Z</time></trkpt><trkpt lat="46.1524119" lon="9.4895075"><ele>210.0</ele><time>2026-03-25T08:54:12.117Z</time></trkpt><trkpt lat="46.1524107" lon="9.4895984"><ele>210.6</ele><time>2026-03-25T08:54:13.116Z</time></trkpt><trkpt lat="46.1524186" lon="9.4897617"><ele>211.2</ele><time>2026-03-25T08:54:15.117Z</time></trkpt><trkpt lat="46.1524344" lon="9.489923"><ele>211.8</ele><time>2026-03-25T08:54:17.116Z</time></trkpt><trkpt lat="46.1524465" lon="9.4900599"><ele>212.4</ele><time>2026-03-25T08:54:19.117Z</time></trkpt><trkpt lat="46.152453" lon="9.490222"><ele>213.0</ele><time>2026-03-25T08:54:21.116Z</time></trkpt><trkpt lat="46.1524989" lon="9.4903632"><ele>213.5</ele><time>2026-03-25T08:54:23.117Z</time></trkpt><trkpt lat="46.1525733" lon="9.4904937"><ele>214.0</ele><time>2026-03-25T08:54:25.115Z</time></trkpt><trkpt lat="46.1526384" lon="9.4906382"><ele>214.5</ele><time>2026-03-25T08:54:27.115Z</time></trkpt><trkpt lat="46.1526781" lon="9.4907851"><ele>215.0</ele><time>2026-03-25T08:54:29.116Z</time></trkpt><trkpt lat="46.1526956" lon="9.4909397"><ele>215.0</ele><time>2026-03-25T08:54:31.116Z</time></trkpt><trkpt lat="46.1526956" lon="9.4911043"><ele>215.0</ele><time>2026-03-25T08:54:33.117Z</time></trkpt><trkpt lat="46.1526744" lon="9.4912717"><ele>215.0</ele><time>2026-03-25T08:54:35.116Z</time></trkpt><trkpt lat="46.1526611" lon="9.491449"><ele>215.0</ele><time>2026-03-25T08:54:37.118Z</time></trkpt><trkpt lat="46.1526742" lon="9.4916196"><ele>214.8</ele><time>2026-03-25T08:54:39.115Z</time></trkpt><trkpt lat="46.1526743" lon="9.4917112"><ele>214.6</ele><time>2026-03-25T08:54:40.117Z</time></trkpt><trkpt lat="46.1526847" lon="9.4918725"><ele>214.39999999999998</ele><time>2026-03-25T08:54:42.116Z</time></trkpt><trkpt lat="46.1527101" lon="9.4920227"><ele>214.2</ele><time>2026-03-25T08:54:44.118Z</time></trkpt><trkpt lat="46.152736" lon="9.492168"><ele>214.0</ele><time>2026-03-25T08:54:46.116Z</time></trkpt><trkpt lat="46.1527367" lon="9.4923263"><ele>213.6</ele><time>2026-03-25T08:54:48.117Z</time></trkpt><trkpt lat="46.1527454" lon="9.4924802"><ele>213.2</ele><time>2026-03-25T08:54:50.117Z</time></trkpt><trkpt lat="46.1527429" lon="9.4926463"><ele>212.79999999999998</ele><time>2026-03-25T08:54:52.116Z</time></trkpt><trkpt lat="46.1527601" lon="9.4927913"><ele>212.39999999999998</ele><time>2026-03-25T08:54:54.116Z</time></trkpt><trkpt lat="46.1527694" lon="9.492933"><ele>212.0</ele><time>2026-03-25T08:54:56.116Z</time></trkpt><trkpt lat="46.1527556" lon="9.4930729"><ele>211.8</ele><time>2026-03-25T08:54:58.116Z</time></trkpt><trkpt lat="46.1527421" lon="9.4932115"><ele>211.6</ele><time>2026-03-25T08:55:00.118Z</time></trkpt><trkpt lat="46.1527149" lon="9.4933697"><ele>211.4</ele><time>2026-03-25T08:55:02.116Z</time></trkpt><trkpt lat="46.1526755" lon="9.493521"><ele>211.20000000000002</ele><time>2026-03-25T08:55:04.118Z</time></trkpt><trkpt lat="46.1526471" lon="9.4936756"><ele>211.0</ele><time>2026-03-25T08:55:06.117Z</time></trkpt><trkpt lat="46.1526281" lon="9.4938026"><ele>210.66666666666666</ele><time>2026-03-25T08:55:08.117Z</time></trkpt><trkpt lat="46.1526022" lon="9.4939176"><ele>210.33333333333331</ele><time>2026-03-25T08:55:11.116Z</time></trkpt><trkpt lat="46.1526225" lon="9.4940238"><ele>210.0</ele><time>2026-03-25T08:55:14.117Z</time></trkpt><trkpt lat="46.1526382" lon="9.4941656"><ele>209.66666666666669</ele><time>2026-03-25T08:55:16.118Z</time></trkpt><trkpt lat="46.1526529" lon="9.4942632"><ele>209.33333333333334</ele><time>2026-03-25T08:55:17.117Z</time></trkpt><trkpt lat="46.1526656" lon="9.494376"><ele>209.0</ele><time>2026-03-25T08:55:19.119Z</time></trkpt><trkpt lat="46.1526979" lon="9.4944663"><ele>208.6</ele><time>2026-03-25T08:55:21.116Z</time></trkpt><trkpt lat="46.1527441" lon="9.4946076"><ele>208.2</ele><time>2026-03-25T08:55:23.117Z</time></trkpt><trkpt lat="46.1527315" lon="9.4947137"><ele>207.79999999999998</ele><time>2026-03-25T08:55:25.116Z</time></trkpt><trkpt lat="46.1526181" lon="9.4947849"><ele>207.39999999999998</ele><time>2026-03-25T08:55:28.691Z</time></trkpt><trkpt lat="46.152573" lon="9.4948797"><ele>207.0</ele><time>2026-03-25T08:55:30.929Z</time></trkpt><trkpt lat="46.1526084" lon="9.4949957"><ele>207.0</ele><time>2026-03-25T08:55:33.188Z</time></trkpt><trkpt lat="46.1526316" lon="9.4951393"><ele>207.0</ele><time>2026-03-25T08:55:35.116Z</time></trkpt><trkpt lat="46.1526429" lon="9.4952623"><ele>207.0</ele><time>2026-03-25T08:55:37.117Z</time></trkpt><trkpt lat="46.1526461" lon="9.4953562"><ele>207.0</ele><time>2026-03-25T08:55:39.115Z</time></trkpt><trkpt lat="46.1526312" lon="9.4954456"><ele>207.0</ele><time>2026-03-25T08:55:41.117Z</time></trkpt><trkpt lat="46.152618" lon="9.4955386"><ele>207.0</ele><time>2026-03-25T08:55:43.116Z</time></trkpt><trkpt lat="46.1526509" lon="9.4956303"><ele>207.16666666666666</ele><time>2026-03-25T08:55:45.116Z</time></trkpt><trkpt lat="46.1527229" lon="9.4956622"><ele>207.33333333333331</ele><time>2026-03-25T08:55:47.118Z</time></trkpt><trkpt lat="46.1528018" lon="9.4956417"><ele>207.5</ele><time>2026-03-25T08:55:49.117Z</time></trkpt><trkpt lat="46.1528819" lon="9.4956252"><ele>207.66666666666666</ele><time>2026-03-25T08:55:51.117Z</time></trkpt><trkpt lat="46.1529579" lon="9.4956302"><ele>207.83333333333331</ele><time>2026-03-25T08:55:53.116Z</time></trkpt><trkpt lat="46.1529957" lon="9.495714"><ele>208.0</ele><time>2026-03-25T08:55:55.117Z</time></trkpt><trkpt lat="46.1530006" lon="9.4958276"><ele>207.99999999999997</ele><time>2026-03-25T08:55:57.117Z</time></trkpt><trkpt lat="46.1530011" lon="9.4959413"><ele>208.0</ele><time>2026-03-25T08:55:59.116Z</time></trkpt><trkpt lat="46.1529962" lon="9.4960541"><ele>208.0</ele><time>2026-03-25T08:56:01.117Z</time></trkpt><trkpt lat="46.1529943" lon="9.496162"><ele>208.0</ele><time>2026-03-25T08:56:03.117Z</time></trkpt><trkpt lat="46.1529885" lon="9.4962632"><ele>207.99999999999997</ele><time>2026-03-25T08:56:05.116Z</time></trkpt><trkpt lat="46.1529793" lon="9.4963697"><ele>208.0</ele><time>2026-03-25T08:56:07.118Z</time></trkpt><trkpt lat="46.1529658" lon="9.4964857"><ele>208.66666666666666</ele><time>2026-03-25T08:56:09.117Z</time></trkpt><trkpt lat="46.1529451" lon="9.4966053"><ele>209.33333333333331</ele><time>2026-03-25T08:56:11.117Z</time></trkpt><trkpt lat="46.1529273" lon="9.4967189"><ele>210.0</ele><time>2026-03-25T08:56:13.117Z</time></trkpt><trkpt lat="46.1528997" lon="9.496826"><ele>210.66666666666669</ele><time>2026-03-25T08:56:15.118Z</time></trkpt><trkpt lat="46.1528676" lon="9.4969211"><ele>211.33333333333334</ele><time>2026-03-25T08:56:17.118Z</time></trkpt><trkpt lat="46.1528363" lon="9.4970154"><ele>212.0</ele><time>2026-03-25T08:56:19.118Z</time></trkpt><trkpt lat="46.1528059" lon="9.4971158"><ele>212.33333333333334</ele><time>2026-03-25T08:56:21.116Z</time></trkpt><trkpt lat="46.1527763" lon="9.4972174"><ele>212.66666666666669</ele><time>2026-03-25T08:56:23.117Z</time></trkpt><trkpt lat="46.1527369" lon="9.4973166"><ele>213.0</ele><time>2026-03-25T08:56:25.117Z</time></trkpt><trkpt lat="46.1527106" lon="9.4974272"><ele>213.33333333333331</ele><time>2026-03-25T08:56:27.117Z</time></trkpt><trkpt lat="46.1526874" lon="9.4975203"><ele>213.66666666666666</ele><time>2026-03-25T08:56:29.117Z</time></trkpt><trkpt lat="46.1526684" lon="9.4976239"><ele>214.0</ele><time>2026-03-25T08:56:31.117Z</time></trkpt><trkpt lat="46.152658" lon="9.4977277"><ele>214.00000000000003</ele><time>2026-03-25T08:56:33.118Z</time></trkpt><trkpt lat="46.1526493" lon="9.4978265"><ele>214.0</ele><time>2026-03-25T08:56:35.117Z</time></trkpt><trkpt lat="46.1526312" lon="9.4979209"><ele>214.0</ele><time>2026-03-25T08:56:37.117Z</time></trkpt><trkpt lat="46.1526164" lon="9.4980199"><ele>214.0</ele><time>2026-03-25T08:56:39.118Z</time></trkpt><trkpt lat="46.1525972" lon="9.4981163"><ele>214.0</ele><time>2026-03-25T08:56:41.117Z</time></trkpt><trkpt lat="46.152575" lon="9.4982224"><ele>214.00000000000003</ele><time>2026-03-25T08:56:43.117Z</time></trkpt><trkpt lat="46.1525556" lon="9.4983265"><ele>214.0</ele><time>2026-03-25T08:56:45.117Z</time></trkpt><trkpt lat="46.1525501" lon="9.4984225"><ele>214.14285714285717</ele><time>2026-03-25T08:56:47.117Z</time></trkpt><trkpt lat="46.1525391" lon="9.4985138"><ele>214.28571428571428</ele><time>2026-03-25T08:56:49.118Z</time></trkpt><trkpt lat="46.1525165" lon="9.4986027"><ele>214.42857142857144</ele><time>2026-03-25T08:56:51.117Z</time></trkpt><trkpt lat="46.1524895" lon="9.4987324"><ele>214.57142857142858</ele><time>2026-03-25T08:56:54.116Z</time></trkpt><trkpt lat="46.1524635" lon="9.4988504"><ele>214.71428571428572</ele><time>2026-03-25T08:56:57.117Z</time></trkpt><trkpt lat="46.1524346" lon="9.4989326"><ele>214.85714285714286</ele><time>2026-03-25T08:56:59.117Z</time></trkpt><trkpt lat="46.1524103" lon="9.4990186"><ele>215.0</ele><time>2026-03-25T08:57:01.118Z</time></trkpt><trkpt lat="46.152374" lon="9.4991076"><ele>215.0</ele><time>2026-03-25T08:57:03.117Z</time></trkpt><trkpt lat="46.1523355" lon="9.4991887"><ele>215.0</ele><time>2026-03-25T08:57:05.116Z</time></trkpt><trkpt lat="46.152308" lon="9.4992746"><ele>215.0</ele><time>2026-03-25T08:57:07.117Z</time></trkpt><trkpt lat="46.1522708" lon="9.4993652"><ele>215.0</ele><time>2026-03-25T08:57:09.117Z</time></trkpt><trkpt lat="46.1522354" lon="9.4994579"><ele>215.0</ele><time>2026-03-25T08:57:11.117Z</time></trkpt><trkpt lat="46.1522057" lon="9.4995503"><ele>215.0</ele><time>2026-03-25T08:57:13.117Z</time></trkpt><trkpt lat="46.1521664" lon="9.4996511"><ele>215.0</ele><time>2026-03-25T08:57:15.118Z</time></trkpt><trkpt lat="46.1521235" lon="9.4997462"><ele>215.0</ele><time>2026-03-25T08:57:17.118Z</time></trkpt><trkpt lat="46.1521097" lon="9.4998507"><ele>215.0</ele><time>2026-03-25T08:57:19.116Z</time></trkpt><trkpt lat="46.1521535" lon="9.4999212"><ele>215.0</ele><time>2026-03-25T08:57:21.118Z</time></trkpt><trkpt lat="46.1522145" lon="9.4999451"><ele>215.0</ele><time>2026-03-25T08:57:23.118Z</time></trkpt><trkpt lat="46.1523003" lon="9.4999568"><ele>215.0</ele><time>2026-03-25T08:57:26.117Z</time></trkpt><trkpt lat="46.1523665" lon="9.4999676"><ele>215.0</ele><time>2026-03-25T08:57:29.117Z</time></trkpt><trkpt lat="46.1524387" lon="9.4999955"><ele>215.0</ele><time>2026-03-25T08:57:33.117Z</time></trkpt><trkpt lat="46.1525117" lon="9.4999932"><ele>216.50000000000003</ele><time>2026-03-25T08:57:37.116Z</time></trkpt><trkpt lat="46.1525886" lon="9.5000268"><ele>218.0</ele><time>2026-03-25T08:57:41.117Z</time></trkpt><trkpt lat="46.1526596" lon="9.5000525"><ele>219.5</ele><time>2026-03-25T08:57:45.117Z</time></trkpt><trkpt lat="46.1527278" lon="9.5000649"><ele>221.0</ele><time>2026-03-25T08:57:49.117Z</time></trkpt><trkpt lat="46.1527979" lon="9.5000941"><ele>222.50000000000003</ele><time>2026-03-25T08:57:53.117Z</time></trkpt><trkpt lat="46.1528729" lon="9.5001475"><ele>224.0</ele><time>2026-03-25T08:57:57.117Z</time></trkpt><trkpt lat="46.1529211" lon="9.5002369"><ele>224.0</ele><time>2026-03-25T08:58:00.117Z</time></trkpt><trkpt lat="46.1529506" lon="9.5003262"><ele>223.99999999999997</ele><time>2026-03-25T08:58:02.117Z</time></trkpt><trkpt lat="46.1529354" lon="9.5004733"><ele>223.99999999999997</ele><time>2026-03-25T08:58:04.117Z</time></trkpt><trkpt lat="46.1529099" lon="9.5006429"><ele>224.0</ele><time>2026-03-25T08:58:06.117Z</time></trkpt><trkpt lat="46.1528932" lon="9.5008164"><ele>224.0</ele><time>2026-03-25T08:58:08.119Z</time></trkpt><trkpt lat="46.1529006" lon="9.5009635"><ele>224.50000000000003</ele><time>2026-03-25T08:58:10.117Z</time></trkpt><trkpt lat="46.1528943" lon="9.5010738"><ele>225.0</ele><time>2026-03-25T08:58:13.117Z</time></trkpt><trkpt lat="46.1529037" lon="9.5011818"><ele>225.5</ele><time>2026-03-25T08:58:17.117Z</time></trkpt><trkpt lat="46.1528857" lon="9.5012894"><ele>226.0</ele><time>2026-03-25T08:58:22.117Z</time></trkpt><trkpt lat="46.1528853" lon="9.5014012"><ele>226.50000000000003</ele><time>2026-03-25T08:58:27.117Z</time></trkpt><trkpt lat="46.1528549" lon="9.5015024"><ele>227.0</ele><time>2026-03-25T08:58:32.116Z</time></trkpt><trkpt lat="46.1528033" lon="9.5015708"><ele>227.2857142857143</ele><time>2026-03-25T08:58:36.117Z</time></trkpt><trkpt lat="46.1527642" lon="9.5016638"><ele>227.5714285714286</ele><time>2026-03-25T08:58:41.118Z</time></trkpt><trkpt lat="46.152729" lon="9.5017587"><ele>227.85714285714286</ele><time>2026-03-25T08:58:46.116Z</time></trkpt><trkpt lat="46.1527115" lon="9.5018541"><ele>228.14285714285717</ele><time>2026-03-25T08:58:51.119Z</time></trkpt><trkpt lat="46.1526951" lon="9.501955"><ele>228.42857142857144</ele><time>2026-03-25T08:58:56.118Z</time></trkpt><trkpt lat="46.1526738" lon="9.5020496"><ele>228.71428571428572</ele><time>2026-03-25T08:59:01.117Z</time></trkpt><trkpt lat="46.1526331" lon="9.5021462"><ele>229.0</ele><time>2026-03-25T08:59:06.117Z</time></trkpt><trkpt lat="46.1526239" lon="9.5022745"><ele>229.85714285714283</ele><time>2026-03-25T08:59:12.164Z</time></trkpt><trkpt lat="46.1526181" lon="9.5023841"><ele>230.71428571428572</ele><time>2026-03-25T08:59:17.118Z</time></trkpt><trkpt lat="46.1525806" lon="9.5024616"><ele>231.57142857142856</ele><time>2026-03-25T08:59:21.119Z</time></trkpt><trkpt lat="46.1525963" lon="9.5025583"><ele>232.42857142857142</ele><time>2026-03-25T08:59:27.118Z</time></trkpt><trkpt lat="46.1526753" lon="9.5025215"><ele>233.28571428571428</ele><time>2026-03-25T08:59:32.118Z</time></trkpt><trkpt lat="46.1527291" lon="9.5024438"><ele>234.14285714285714</ele><time>2026-03-25T08:59:36.119Z</time></trkpt><trkpt lat="46.1527802" lon="9.5023685"><ele>235.0</ele><time>2026-03-25T08:59:41.119Z</time></trkpt><trkpt lat="46.152853" lon="9.5023583"><ele>235.0</ele><time>2026-03-25T08:59:46.226Z</time></trkpt><trkpt lat="46.1528798" lon="9.5024586"><ele>234.99999999999997</ele><time>2026-03-25T08:59:50.116Z</time></trkpt><trkpt lat="46.1528577" lon="9.5025579"><ele>235.0</ele><time>2026-03-25T08:59:54.203Z</time></trkpt><trkpt lat="46.1528429" lon="9.5026503"><ele>235.0</ele><time>2026-03-25T08:59:59.118Z</time></trkpt><trkpt lat="46.1528288" lon="9.5027459"><ele>234.99999999999997</ele><time>2026-03-25T09:00:05.119Z</time></trkpt><trkpt lat="46.152809" lon="9.5028377"><ele>235.0</ele><time>2026-03-25T09:00:11.181Z</time></trkpt><trkpt lat="46.1527958" lon="9.5029393"><ele>235.0</ele><time>2026-03-25T09:00:17.118Z</time></trkpt><trkpt lat="46.1528077" lon="9.5030378"><ele>236.28571428571428</ele><time>2026-03-25T09:00:22.118Z</time></trkpt><trkpt lat="46.152791" lon="9.503137"><ele>237.57142857142856</ele><time>2026-03-25T09:00:27.213Z</time></trkpt><trkpt lat="46.1527958" lon="9.5032368"><ele>238.85714285714283</ele><time>2026-03-25T09:00:32.05Z</time></trkpt><trkpt lat="46.1528092" lon="9.5033275"><ele>240.1428571428571</ele><time>2026-03-25T09:00:37.118Z</time></trkpt><trkpt lat="46.1528086" lon="9.5034196"><ele>241.42857142857142</ele><time>2026-03-25T09:00:41.19Z</time></trkpt><trkpt lat="46.1528296" lon="9.5035064"><ele>242.71428571428567</ele><time>2026-03-25T09:00:44.119Z</time></trkpt><trkpt lat="46.1528696" lon="9.5036121"><ele>243.99999999999997</ele><time>2026-03-25T09:00:48.189Z</time></trkpt><trkpt lat="46.1528876" lon="9.5037187"><ele>243.83333333333331</ele><time>2026-03-25T09:00:52.118Z</time></trkpt><trkpt lat="46.1528949" lon="9.5038352"><ele>243.66666666666666</ele><time>2026-03-25T09:00:55.119Z</time></trkpt><trkpt lat="46.1529112" lon="9.5039659"><ele>243.5</ele><time>2026-03-25T09:00:58.169Z</time></trkpt><trkpt lat="46.1529206" lon="9.5040667"><ele>243.33333333333331</ele><time>2026-03-25T09:01:00.206Z</time></trkpt><trkpt lat="46.1529317" lon="9.5041825"><ele>243.16666666666666</ele><time>2026-03-25T09:01:02.118Z</time></trkpt><trkpt lat="46.1529441" lon="9.5043121"><ele>243.0</ele><time>2026-03-25T09:01:04.117Z</time></trkpt><trkpt lat="46.1529623" lon="9.5044348"><ele>243.0</ele><time>2026-03-25T09:01:06.162Z</time></trkpt><trkpt lat="46.152988" lon="9.5045466"><ele>243.0</ele><time>2026-03-25T09:01:08.189Z</time></trkpt><trkpt lat="46.1530298" lon="9.5046499"><ele>243.0</ele><time>2026-03-25T09:01:10.117Z</time></trkpt><trkpt lat="46.1530862" lon="9.5047527"><ele>243.0</ele><time>2026-03-25T09:01:12.112Z</time></trkpt><trkpt lat="46.1531482" lon="9.5048423"><ele>243.0</ele><time>2026-03-25T09:01:14.117Z</time></trkpt><trkpt lat="46.1531896" lon="9.504914"><ele>243.0</ele><time>2026-03-25T09:01:16.118Z</time></trkpt><trkpt lat="46.1532284" lon="9.5050196"><ele>242.2</ele><time>2026-03-25T09:01:19.119Z</time></trkpt><trkpt lat="46.1532566" lon="9.5051091"><ele>241.4</ele><time>2026-03-25T09:01:22.118Z</time></trkpt><trkpt lat="46.1532588" lon="9.5052229"><ele>240.59999999999997</ele><time>2026-03-25T09:01:28.119Z</time></trkpt><trkpt lat="46.1531592" lon="9.5052433"><ele>239.79999999999998</ele><time>2026-03-25T09:01:31.118Z</time></trkpt><trkpt lat="46.1530483" lon="9.5052362"><ele>239.0</ele><time>2026-03-25T09:01:33.118Z</time></trkpt><trkpt lat="46.1529509" lon="9.5052421"><ele>239.0</ele><time>2026-03-25T09:01:35.118Z</time></trkpt><trkpt lat="46.1528597" lon="9.5052329"><ele>238.99999999999997</ele><time>2026-03-25T09:01:37.119Z</time></trkpt><trkpt lat="46.1527856" lon="9.5052834"><ele>238.99999999999997</ele><time>2026-03-25T09:01:39.118Z</time></trkpt><trkpt lat="46.1527432" lon="9.5053776"><ele>239.0</ele><time>2026-03-25T09:01:41.118Z</time></trkpt><trkpt lat="46.1527222" lon="9.5055191"><ele>239.0</ele><time>2026-03-25T09:01:43.118Z</time></trkpt><trkpt lat="46.1527151" lon="9.505673"><ele>238.83333333333334</ele><time>2026-03-25T09:01:45.118Z</time></trkpt><trkpt lat="46.1527083" lon="9.5057973"><ele>238.66666666666669</ele><time>2026-03-25T09:01:47.117Z</time></trkpt><trkpt lat="46.1526951" lon="9.5059217"><ele>238.5</ele><time>2026-03-25T09:01:49.119Z</time></trkpt><trkpt lat="46.1526849" lon="9.5060394"><ele>238.33333333333331</ele><time>2026-03-25T09:01:51.118Z</time></trkpt><trkpt lat="46.1526248" lon="9.506081"><ele>238.16666666666666</ele><time>2026-03-25T09:01:53.118Z</time></trkpt><trkpt lat="46.1525418" lon="9.5060941"><ele>238.0</ele><time>2026-03-25T09:01:55.118Z</time></trkpt><trkpt lat="46.1524422" lon="9.5061192"><ele>236.33333333333331</ele><time>2026-03-25T09:01:57.119Z</time></trkpt><trkpt lat="46.1523702" lon="9.5061285"><ele>234.66666666666666</ele><time>2026-03-25T09:01:59.118Z</time></trkpt><trkpt lat="46.1522944" lon="9.5061581"><ele>233.0</ele><time>2026-03-25T09:02:03.118Z</time></trkpt><trkpt lat="46.152266" lon="9.5062649"><ele>231.33333333333331</ele><time>2026-03-25T09:02:05.118Z</time></trkpt><trkpt lat="46.1522653" lon="9.5064201"><ele>229.66666666666666</ele><time>2026-03-25T09:02:07.118Z</time></trkpt><trkpt lat="46.1522617" lon="9.5065396"><ele>228.0</ele><time>2026-03-25T09:02:09.118Z</time></trkpt><trkpt lat="46.1521926" lon="9.5065907"><ele>227.2</ele><time>2026-03-25T09:02:11.119Z</time></trkpt><trkpt lat="46.1520948" lon="9.5066253"><ele>226.4</ele><time>2026-03-25T09:02:13.118Z</time></trkpt><trkpt lat="46.1520135" lon="9.5067236"><ele>225.59999999999997</ele><time>2026-03-25T09:02:15.119Z</time></trkpt><trkpt lat="46.151976" lon="9.5068947"><ele>224.79999999999998</ele><time>2026-03-25T09:02:17.118Z</time></trkpt><trkpt lat="46.1519601" lon="9.5069864"><ele>224.0</ele><time>2026-03-25T09:02:18.119Z</time></trkpt><trkpt lat="46.1519265" lon="9.5071012"><ele>223.33333333333334</ele><time>2026-03-25T09:02:19.118Z</time></trkpt><trkpt lat="46.1518983" lon="9.5072256"><ele>222.66666666666669</ele><time>2026-03-25T09:02:20.119Z</time></trkpt><trkpt lat="46.1518803" lon="9.5073392"><ele>222.0</ele><time>2026-03-25T09:02:21.118Z</time></trkpt><trkpt lat="46.1518673" lon="9.5074578"><ele>221.33333333333331</ele><time>2026-03-25T09:02:22.118Z</time></trkpt><trkpt lat="46.151856" lon="9.507574"><ele>220.66666666666666</ele><time>2026-03-25T09:02:23.118Z</time></trkpt><trkpt lat="46.1518304" lon="9.5076832"><ele>220.0</ele><time>2026-03-25T09:02:24.119Z</time></trkpt><trkpt lat="46.1517924" lon="9.507779"><ele>219.99999999999997</ele><time>2026-03-25T09:02:25.117Z</time></trkpt><trkpt lat="46.1517425" lon="9.507866"><ele>220.0</ele><time>2026-03-25T09:02:26.118Z</time></trkpt><trkpt lat="46.1516882" lon="9.5079331"><ele>220.0</ele><time>2026-03-25T09:02:27.119Z</time></trkpt><trkpt lat="46.1516191" lon="9.5079852"><ele>220.0</ele><time>2026-03-25T09:02:28.118Z</time></trkpt><trkpt lat="46.1515501" lon="9.5080261"><ele>220.0</ele><time>2026-03-25T09:02:29.118Z</time></trkpt><trkpt lat="46.1514848" lon="9.5080436"><ele>219.99999999999997</ele><time>2026-03-25T09:02:30.118Z</time></trkpt><trkpt lat="46.1514184" lon="9.5080546"><ele>220.0</ele><time>2026-03-25T09:02:31.119Z</time></trkpt><trkpt lat="46.1513543" lon="9.5080597"><ele>218.66666666666666</ele><time>2026-03-25T09:02:32.119Z</time></trkpt><trkpt lat="46.1512402" lon="9.5080655"><ele>217.33333333333331</ele><time>2026-03-25T09:02:34.12Z</time></trkpt><trkpt lat="46.1511592" lon="9.5080958"><ele>216.0</ele><time>2026-03-25T09:02:36.117Z</time></trkpt><trkpt lat="46.1510912" lon="9.5081186"><ele>214.66666666666669</ele><time>2026-03-25T09:02:39.118Z</time></trkpt><trkpt lat="46.1510487" lon="9.5081905"><ele>213.33333333333334</ele><time>2026-03-25T09:02:45.12Z</time></trkpt><trkpt lat="46.1510439" lon="9.5083148"><ele>212.0</ele><time>2026-03-25T09:02:48.118Z</time></trkpt><trkpt lat="46.1510651" lon="9.5084198"><ele>212.0</ele><time>2026-03-25T09:02:50.117Z</time></trkpt><trkpt lat="46.1510902" lon="9.5085323"><ele>212.0</ele><time>2026-03-25T09:02:52.119Z</time></trkpt><trkpt lat="46.1511006" lon="9.5086762"><ele>212.0</ele><time>2026-03-25T09:02:54.12Z</time></trkpt><trkpt lat="46.1511196" lon="9.5088344"><ele>212.0</ele><time>2026-03-25T09:02:56.119Z</time></trkpt><trkpt lat="46.1511178" lon="9.5090092"><ele>212.0</ele><time>2026-03-25T09:02:58.118Z</time></trkpt><trkpt lat="46.1511116" lon="9.509183"><ele>211.66666666666669</ele><time>2026-03-25T09:03:00.119Z</time></trkpt><trkpt lat="46.1510971" lon="9.5093611"><ele>211.33333333333334</ele><time>2026-03-25T09:03:02.119Z</time></trkpt><trkpt lat="46.151086" lon="9.5094536"><ele>211.0</ele><time>2026-03-25T09:03:03.119Z</time></trkpt><trkpt lat="46.151071" lon="9.5095428"><ele>210.66666666666669</ele><time>2026-03-25T09:03:04.119Z</time></trkpt><trkpt lat="46.151058" lon="9.5096388"><ele>210.33333333333334</ele><time>2026-03-25T09:03:05.12Z</time></trkpt><trkpt lat="46.1510462" lon="9.50974"><ele>210.0</ele><time>2026-03-25T09:03:06.12Z</time></trkpt><trkpt lat="46.1510354" lon="9.5098371"><ele>210.0</ele><time>2026-03-25T09:03:07.118Z</time></trkpt><trkpt lat="46.1510186" lon="9.5099379"><ele>210.0</ele><time>2026-03-25T09:03:08.118Z</time></trkpt><trkpt lat="46.1510091" lon="9.510031"><ele>210.0</ele><time>2026-03-25T09:03:09.118Z</time></trkpt><trkpt lat="46.1509979" lon="9.5101327"><ele>210.0</ele><time>2026-03-25T09:03:10.12Z</time></trkpt><trkpt lat="46.150987" lon="9.5102315"><ele>210.0</ele><time>2026-03-25T09:03:11.12Z</time></trkpt><trkpt lat="46.1509786" lon="9.510341"><ele>210.0</ele><time>2026-03-25T09:03:12.119Z</time></trkpt><trkpt lat="46.1509696" lon="9.5104424"><ele>210.0</ele><time>2026-03-25T09:03:13.119Z</time></trkpt><trkpt lat="46.1509657" lon="9.5105469"><ele>209.83333333333334</ele><time>2026-03-25T09:03:14.12Z</time></trkpt><trkpt lat="46.1509565" lon="9.510647"><ele>209.66666666666669</ele><time>2026-03-25T09:03:15.118Z</time></trkpt><trkpt lat="46.1509519" lon="9.5107556"><ele>209.5</ele><time>2026-03-25T09:03:16.118Z</time></trkpt><trkpt lat="46.150953" lon="9.5108506"><ele>209.33333333333334</ele><time>2026-03-25T09:03:17.12Z</time></trkpt><trkpt lat="46.1509489" lon="9.5110447"><ele>209.16666666666669</ele><time>2026-03-25T09:03:19.118Z</time></trkpt><trkpt lat="46.1509506" lon="9.5111462"><ele>209.0</ele><time>2026-03-25T09:03:20.118Z</time></trkpt><trkpt lat="46.1509486" lon="9.5112512"><ele>209.50000000000003</ele><time>2026-03-25T09:03:21.12Z</time></trkpt><trkpt lat="46.1509455" lon="9.5113547"><ele>210.0</ele><time>2026-03-25T09:03:22.119Z</time></trkpt><trkpt lat="46.1509485" lon="9.5115397"><ele>210.5</ele><time>2026-03-25T09:03:24.118Z</time></trkpt><trkpt lat="46.1509442" lon="9.5116432"><ele>211.0</ele><time>2026-03-25T09:03:25.119Z</time></trkpt><trkpt lat="46.1509457" lon="9.5117424"><ele>211.50000000000003</ele><time>2026-03-25T09:03:26.118Z</time></trkpt><trkpt lat="46.1509453" lon="9.5118487"><ele>212.0</ele><time>2026-03-25T09:03:27.119Z</time></trkpt><trkpt lat="46.1509401" lon="9.5119562"><ele>212.0</ele><time>2026-03-25T09:03:28.12Z</time></trkpt><trkpt lat="46.150938" lon="9.512057"><ele>212.0</ele><time>2026-03-25T09:03:29.119Z</time></trkpt><trkpt lat="46.1509374" lon="9.5121567"><ele>212.0</ele><time>2026-03-25T09:03:30.119Z</time></trkpt><trkpt lat="46.1509347" lon="9.5122527"><ele>212.0</ele><time>2026-03-25T09:03:31.119Z</time></trkpt><trkpt lat="46.1509316" lon="9.5123459"><ele>212.0</ele><time>2026-03-25T09:03:32.12Z</time></trkpt><trkpt lat="46.1509293" lon="9.5124438"><ele>212.0</ele><time>2026-03-25T09:03:33.119Z</time></trkpt><trkpt lat="46.1509288" lon="9.5125353"><ele>212.0</ele><time>2026-03-25T09:03:34.119Z</time></trkpt><trkpt lat="46.1509169" lon="9.5126289"><ele>212.16666666666669</ele><time>2026-03-25T09:03:35.119Z</time></trkpt><trkpt lat="46.1509178" lon="9.5127232"><ele>212.33333333333334</ele><time>2026-03-25T09:03:36.118Z</time></trkpt><trkpt lat="46.1509137" lon="9.5128208"><ele>212.5</ele><time>2026-03-25T09:03:37.119Z</time></trkpt><trkpt lat="46.1509164" lon="9.5129143"><ele>212.66666666666669</ele><time>2026-03-25T09:03:38.118Z</time></trkpt><trkpt lat="46.1509219" lon="9.5130837"><ele>212.83333333333334</ele><time>2026-03-25T09:03:40.119Z</time></trkpt><trkpt lat="46.1509196" lon="9.5131775"><ele>213.0</ele><time>2026-03-25T09:03:41.118Z</time></trkpt><trkpt lat="46.150919" lon="9.5133585"><ele>212.8</ele><time>2026-03-25T09:03:43.12Z</time></trkpt><trkpt lat="46.1509173" lon="9.5135358"><ele>212.60000000000002</ele><time>2026-03-25T09:03:45.12Z</time></trkpt><trkpt lat="46.1509311" lon="9.5136971"><ele>212.39999999999998</ele><time>2026-03-25T09:03:47.118Z</time></trkpt><trkpt lat="46.1509411" lon="9.5138401"><ele>212.2</ele><time>2026-03-25T09:03:49.119Z</time></trkpt><trkpt lat="46.1509416" lon="9.5139738"><ele>212.0</ele><time>2026-03-25T09:03:51.118Z</time></trkpt><trkpt lat="46.1509392" lon="9.5140745"><ele>212.00000000000003</ele><time>2026-03-25T09:03:53.119Z</time></trkpt><trkpt lat="46.150951" lon="9.5141687"><ele>212.0</ele><time>2026-03-25T09:03:55.119Z</time></trkpt><trkpt lat="46.1510055" lon="9.5142628"><ele>212.0</ele><time>2026-03-25T09:03:57.119Z</time></trkpt><trkpt lat="46.1510772" lon="9.5143253"><ele>212.0</ele><time>2026-03-25T09:03:59.12Z</time></trkpt><trkpt lat="46.1511563" lon="9.5143809"><ele>212.00000000000003</ele><time>2026-03-25T09:04:01.119Z</time></trkpt><trkpt lat="46.1512273" lon="9.5144241"><ele>212.0</ele><time>2026-03-25T09:04:03.119Z</time></trkpt><trkpt lat="46.1512946" lon="9.5144689"><ele>212.00000000000003</ele><time>2026-03-25T09:04:05.119Z</time></trkpt><trkpt lat="46.1513447" lon="9.5145288"><ele>212.0</ele><time>2026-03-25T09:04:07.118Z</time></trkpt><trkpt lat="46.1513771" lon="9.5146422"><ele>212.0</ele><time>2026-03-25T09:04:10.119Z</time></trkpt><trkpt lat="46.1513708" lon="9.5147492"><ele>212.0</ele><time>2026-03-25T09:04:13.12Z</time></trkpt><trkpt lat="46.1513541" lon="9.5148712"><ele>212.00000000000003</ele><time>2026-03-25T09:04:16.119Z</time></trkpt><trkpt lat="46.1513532" lon="9.5150009"><ele>212.0</ele><time>2026-03-25T09:04:19.118Z</time></trkpt><trkpt lat="46.1513581" lon="9.515138"><ele>211.85714285714286</ele><time>2026-03-25T09:04:22.118Z</time></trkpt><trkpt lat="46.1513728" lon="9.5152307"><ele>211.7142857142857</ele><time>2026-03-25T09:04:24.118Z</time></trkpt><trkpt lat="46.1513931" lon="9.5153263"><ele>211.57142857142856</ele><time>2026-03-25T09:04:26.119Z</time></trkpt><trkpt lat="46.1514137" lon="9.5154235"><ele>211.42857142857144</ele><time>2026-03-25T09:04:28.119Z</time></trkpt><trkpt lat="46.1514205" lon="9.5155228"><ele>211.28571428571428</ele><time>2026-03-25T09:04:30.119Z</time></trkpt><trkpt lat="46.1514264" lon="9.515622"><ele>211.14285714285714</ele><time>2026-03-25T09:04:32.118Z</time></trkpt><trkpt lat="46.1514292" lon="9.5157262"><ele>211.0</ele><time>2026-03-25T09:04:34.12Z</time></trkpt><trkpt lat="46.1514219" lon="9.5158274"><ele>210.99999999999997</ele><time>2026-03-25T09:04:36.119Z</time></trkpt><trkpt lat="46.1514185" lon="9.5159279"><ele>211.0</ele><time>2026-03-25T09:04:38.117Z</time></trkpt><trkpt lat="46.1514067" lon="9.5160521"><ele>211.0</ele><time>2026-03-25T09:04:40.119Z</time></trkpt><trkpt lat="46.151391" lon="9.5161552"><ele>211.0</ele><time>2026-03-25T09:04:42.192Z</time></trkpt><trkpt lat="46.15138" lon="9.5162525"><ele>210.99999999999997</ele><time>2026-03-25T09:04:44.226Z</time></trkpt><trkpt lat="46.1513618" lon="9.516389"><ele>211.0</ele><time>2026-03-25T09:04:47.603Z</time></trkpt><trkpt lat="46.1513365" lon="9.5165048"><ele>211.0</ele><time>2026-03-25T09:04:51.198Z</time></trkpt><trkpt lat="46.151304" lon="9.516602"><ele>211.0</ele><time>2026-03-25T09:04:55.119Z</time></trkpt><trkpt lat="46.1512699" lon="9.5166938"><ele>211.0</ele><time>2026-03-25T09:04:58.12Z</time></trkpt><trkpt lat="46.1512539" lon="9.5168012"><ele>211.0</ele><time>2026-03-25T09:05:01.062Z</time></trkpt><trkpt lat="46.1512333" lon="9.5168968"><ele>211.0</ele><time>2026-03-25T09:05:04.196Z</time></trkpt><trkpt lat="46.1512122" lon="9.5170011"><ele>211.0</ele><time>2026-03-25T09:05:07.12Z</time></trkpt><trkpt lat="46.1511944" lon="9.5171073"><ele>211.0</ele><time>2026-03-25T09:05:10.118Z</time></trkpt><trkpt lat="46.1511833" lon="9.5172036"><ele>211.66666666666666</ele><time>2026-03-25T09:05:13.222Z</time></trkpt><trkpt lat="46.1511578" lon="9.5173296"><ele>212.33333333333331</ele><time>2026-03-25T09:05:16.118Z</time></trkpt><trkpt lat="46.151135" lon="9.5174367"><ele>213.0</ele><time>2026-03-25T09:05:18.118Z</time></trkpt><trkpt lat="46.1511222" lon="9.5175486"><ele>213.66666666666669</ele><time>2026-03-25T09:05:20.175Z</time></trkpt><trkpt lat="46.1511293" lon="9.5176445"><ele>214.33333333333334</ele><time>2026-03-25T09:05:22.118Z</time></trkpt><trkpt lat="46.1511386" lon="9.5177402"><ele>215.0</ele><time>2026-03-25T09:05:24.119Z</time></trkpt><trkpt lat="46.1511365" lon="9.517843"><ele>215.7142857142857</ele><time>2026-03-25T09:05:26.12Z</time></trkpt><trkpt lat="46.1511205" lon="9.5179476"><ele>216.42857142857144</ele><time>2026-03-25T09:05:28.118Z</time></trkpt><trkpt lat="46.1511034" lon="9.5180456"><ele>217.14285714285714</ele><time>2026-03-25T09:05:30.118Z</time></trkpt><trkpt lat="46.151088" lon="9.5181417"><ele>217.85714285714283</ele><time>2026-03-25T09:05:32.119Z</time></trkpt><trkpt lat="46.1510647" lon="9.5182277"><ele>218.57142857142856</ele><time>2026-03-25T09:05:34.119Z</time></trkpt><trkpt lat="46.1510433" lon="9.5183169"><ele>219.28571428571428</ele><time>2026-03-25T09:05:36.12Z</time></trkpt><trkpt lat="46.1510103" lon="9.5184429"><ele>220.0</ele><time>2026-03-25T09:05:39.119Z</time></trkpt><trkpt lat="46.1509654" lon="9.5185589"><ele>220.0</ele><time>2026-03-25T09:05:42.119Z</time></trkpt><trkpt lat="46.1509278" lon="9.5186577"><ele>220.0</ele><time>2026-03-25T09:05:44.118Z</time></trkpt><trkpt lat="46.1508893" lon="9.5187767"><ele>220.0</ele><time>2026-03-25T09:05:46.12Z</time></trkpt><trkpt lat="46.1508478" lon="9.5189066"><ele>220.0</ele><time>2026-03-25T09:05:48.119Z</time></trkpt><trkpt lat="46.1507944" lon="9.5190257"><ele>220.0</ele><time>2026-03-25T09:05:50.119Z</time></trkpt><trkpt lat="46.1507287" lon="9.5191588"><ele>219.5</ele><time>2026-03-25T09:05:52.118Z</time></trkpt><trkpt lat="46.1506757" lon="9.5192791"><ele>219.0</ele><time>2026-03-25T09:05:54.12Z</time></trkpt><trkpt lat="46.1506133" lon="9.5194321"><ele>218.5</ele><time>2026-03-25T09:05:56.119Z</time></trkpt><trkpt lat="46.1505476" lon="9.5195887"><ele>218.0</ele><time>2026-03-25T09:05:58.12Z</time></trkpt><trkpt lat="46.1504865" lon="9.5197297"><ele>218.00000000000003</ele><time>2026-03-25T09:06:00.119Z</time></trkpt><trkpt lat="46.150442" lon="9.5198334"><ele>218.0</ele><time>2026-03-25T09:06:02.119Z</time></trkpt><trkpt lat="46.1504029" lon="9.5199126"><ele>218.0</ele><time>2026-03-25T09:06:04.12Z</time></trkpt><trkpt lat="46.1503574" lon="9.5200218"><ele>218.0</ele><time>2026-03-25T09:06:07.12Z</time></trkpt><trkpt lat="46.1503291" lon="9.5201328"><ele>218.00000000000003</ele><time>2026-03-25T09:06:10.12Z</time></trkpt><trkpt lat="46.1502833" lon="9.5202348"><ele>218.0</ele><time>2026-03-25T09:06:13.119Z</time></trkpt><trkpt lat="46.1502348" lon="9.5203405"><ele>218.71428571428572</ele><time>2026-03-25T09:06:16.118Z</time></trkpt><trkpt lat="46.1501914" lon="9.5204432"><ele>219.42857142857144</ele><time>2026-03-25T09:06:19.119Z</time></trkpt><trkpt lat="46.1501532" lon="9.5205387"><ele>220.14285714285714</ele><time>2026-03-25T09:06:22.119Z</time></trkpt><trkpt lat="46.1501371" lon="9.5206318"><ele>220.85714285714286</ele><time>2026-03-25T09:06:25.119Z</time></trkpt><trkpt lat="46.1501715" lon="9.5207306"><ele>221.57142857142856</ele><time>2026-03-25T09:06:29.119Z</time></trkpt><trkpt lat="46.1502229" lon="9.5207872"><ele>222.28571428571428</ele><time>2026-03-25T09:06:33.12Z</time></trkpt><trkpt lat="46.1502737" lon="9.5208473"><ele>223.0</ele><time>2026-03-25T09:06:37.12Z</time></trkpt><trkpt lat="46.1503381" lon="9.5209007"><ele>223.0</ele><time>2026-03-25T09:06:41.119Z</time></trkpt><trkpt lat="46.1503955" lon="9.5209675"><ele>223.0</ele><time>2026-03-25T09:06:46.12Z</time></trkpt><trkpt lat="46.1504329" lon="9.5210585"><ele>223.0</ele><time>2026-03-25T09:06:51.12Z</time></trkpt><trkpt lat="46.1504466" lon="9.5211533"><ele>223.0</ele><time>2026-03-25T09:06:56.12Z</time></trkpt><trkpt lat="46.150461" lon="9.5212537"><ele>223.0</ele><time>2026-03-25T09:07:01.118Z</time></trkpt><trkpt lat="46.1504911" lon="9.5213357"><ele>223.0</ele><time>2026-03-25T09:07:06.118Z</time></trkpt><trkpt lat="46.1505156" lon="9.5214376"><ele>223.0</ele><time>2026-03-25T09:07:12.215Z</time></trkpt><trkpt lat="46.1505006" lon="9.5215292"><ele>224.0</ele><time>2026-03-25T09:07:17.106Z</time></trkpt><trkpt lat="46.1505003" lon="9.5216322"><ele>225.0</ele><time>2026-03-25T09:07:22.209Z</time></trkpt><trkpt lat="46.1504914" lon="9.521739"><ele>226.0</ele><time>2026-03-25T09:07:28.199Z</time></trkpt><trkpt lat="46.1504957" lon="9.5218518"><ele>227.0</ele><time>2026-03-25T09:07:33.119Z</time></trkpt><trkpt lat="46.1504867" lon="9.521956"><ele>228.0</ele><time>2026-03-25T09:07:38.119Z</time></trkpt><trkpt lat="46.1504768" lon="9.5220486"><ele>228.99999999999997</ele><time>2026-03-25T09:07:43.229Z</time></trkpt><trkpt lat="46.1504934" lon="9.5221473"><ele>229.99999999999997</ele><time>2026-03-25T09:07:49.117Z</time></trkpt><trkpt lat="46.150478" lon="9.5222443"><ele>230.83333333333334</ele><time>2026-03-25T09:07:55.12Z</time></trkpt><trkpt lat="46.1504803" lon="9.5223466"><ele>231.66666666666669</ele><time>2026-03-25T09:08:01.119Z</time></trkpt><trkpt lat="46.1504667" lon="9.5224452"><ele>232.5</ele><time>2026-03-25T09:08:07.121Z</time></trkpt><trkpt lat="46.1504579" lon="9.5225508"><ele>233.33333333333331</ele><time>2026-03-25T09:08:12.118Z</time></trkpt><trkpt lat="46.15045" lon="9.5226543"><ele>234.16666666666666</ele><time>2026-03-25T09:08:16.12Z</time></trkpt><trkpt lat="46.1504301" lon="9.5228011"><ele>235.0</ele><time>2026-03-25T09:08:19.12Z</time></trkpt><trkpt lat="46.1504137" lon="9.5229358"><ele>235.16666666666666</ele><time>2026-03-25T09:08:21.119Z</time></trkpt><trkpt lat="46.1504005" lon="9.5231014"><ele>235.33333333333331</ele><time>2026-03-25T09:08:23.12Z</time></trkpt><trkpt lat="46.1504056" lon="9.5231928"><ele>235.5</ele><time>2026-03-25T09:08:24.12Z</time></trkpt><trkpt lat="46.1503986" lon="9.5232837"><ele>235.66666666666669</ele><time>2026-03-25T09:08:25.12Z</time></trkpt><trkpt lat="46.1503967" lon="9.5234327"><ele>235.83333333333334</ele><time>2026-03-25T09:08:27.119Z</time></trkpt><trkpt lat="46.1503931" lon="9.5235675"><ele>236.0</ele><time>2026-03-25T09:08:29.12Z</time></trkpt><trkpt lat="46.1503993" lon="9.5236744"><ele>236.85714285714283</ele><time>2026-03-25T09:08:31.121Z</time></trkpt><trkpt lat="46.1504049" lon="9.5237966"><ele>237.71428571428572</ele><time>2026-03-25T09:08:34.121Z</time></trkpt><trkpt lat="46.1504123" lon="9.5239102"><ele>238.57142857142856</ele><time>2026-03-25T09:08:37.119Z</time></trkpt><trkpt lat="46.1504209" lon="9.5240024"><ele>239.42857142857142</ele><time>2026-03-25T09:08:40.121Z</time></trkpt><trkpt lat="46.1503845" lon="9.5240797"><ele>240.28571428571428</ele><time>2026-03-25T09:08:43.12Z</time></trkpt><trkpt lat="46.150351" lon="9.5241579"><ele>241.14285714285714</ele><time>2026-03-25T09:08:46.12Z</time></trkpt><trkpt lat="46.1503053" lon="9.5242306"><ele>242.0</ele><time>2026-03-25T09:08:49.12Z</time></trkpt><trkpt lat="46.1502875" lon="9.5243342"><ele>242.0</ele><time>2026-03-25T09:08:52.121Z</time></trkpt><trkpt lat="46.1502872" lon="9.5244594"><ele>241.99999999999997</ele><time>2026-03-25T09:08:55.121Z</time></trkpt><trkpt lat="46.1502922" lon="9.5245559"><ele>242.0</ele><time>2026-03-25T09:08:57.118Z</time></trkpt><trkpt lat="46.1502657" lon="9.5246402"><ele>242.0</ele><time>2026-03-25T09:09:00.12Z</time></trkpt><trkpt lat="46.1502394" lon="9.5247429"><ele>241.99999999999997</ele><time>2026-03-25T09:09:03.12Z</time></trkpt><trkpt lat="46.1502294" lon="9.5248532"><ele>242.0</ele><time>2026-03-25T09:09:07.12Z</time></trkpt><trkpt lat="46.1502225" lon="9.5249488"><ele>242.0</ele><time>2026-03-25T09:09:10.12Z</time></trkpt><trkpt lat="46.1502217" lon="9.525049"><ele>242.85714285714283</ele><time>2026-03-25T09:09:13.121Z</time></trkpt><trkpt lat="46.1502195" lon="9.5251406"><ele>243.7142857142857</ele><time>2026-03-25T09:09:16.121Z</time></trkpt><trkpt lat="46.1502265" lon="9.5252403"><ele>244.57142857142856</ele><time>2026-03-25T09:09:19.121Z</time></trkpt><trkpt lat="46.1502178" lon="9.5253321"><ele>245.42857142857144</ele><time>2026-03-25T09:09:22.12Z</time></trkpt><trkpt lat="46.1501784" lon="9.5254094"><ele>246.2857142857143</ele><time>2026-03-25T09:09:25.119Z</time></trkpt><trkpt lat="46.1501513" lon="9.5255005"><ele>247.14285714285717</ele><time>2026-03-25T09:09:27.12Z</time></trkpt><trkpt lat="46.1501435" lon="9.5255956"><ele>248.0</ele><time>2026-03-25T09:09:30.12Z</time></trkpt><trkpt lat="46.1501157" lon="9.5256862"><ele>247.50000000000003</ele><time>2026-03-25T09:09:33.12Z</time></trkpt><trkpt lat="46.150083" lon="9.5257739"><ele>247.0</ele><time>2026-03-25T09:09:35.12Z</time></trkpt><trkpt lat="46.1500308" lon="9.5258266"><ele>246.5</ele><time>2026-03-25T09:09:37.12Z</time></trkpt><trkpt lat="46.1499599" lon="9.5258993"><ele>246.0</ele><time>2026-03-25T09:09:40.119Z</time></trkpt><trkpt lat="46.1498893" lon="9.5259751"><ele>245.50000000000003</ele><time>2026-03-25T09:09:43.12Z</time></trkpt><trkpt lat="46.1498507" lon="9.5260531"><ele>245.0</ele><time>2026-03-25T09:09:45.12Z</time></trkpt><trkpt lat="46.1497965" lon="9.5261587"><ele>246.00000000000003</ele><time>2026-03-25T09:09:48.12Z</time></trkpt><trkpt lat="46.1497346" lon="9.5262498"><ele>247.0</ele><time>2026-03-25T09:09:51.122Z</time></trkpt><trkpt lat="46.1496624" lon="9.5263253"><ele>248.0</ele><time>2026-03-25T09:09:54.12Z</time></trkpt><trkpt lat="46.1496034" lon="9.5263953"><ele>249.0</ele><time>2026-03-25T09:09:57.12Z</time></trkpt><trkpt lat="46.1495646" lon="9.5264846"><ele>250.00000000000003</ele><time>2026-03-25T09:10:00.118Z</time></trkpt><trkpt lat="46.14953" lon="9.5265801"><ele>251.0</ele><time>2026-03-25T09:10:03.119Z</time></trkpt><trkpt lat="46.1495145" lon="9.5266911"><ele>250.99999999999997</ele><time>2026-03-25T09:10:06.121Z</time></trkpt><trkpt lat="46.1494969" lon="9.5267937"><ele>251.0</ele><time>2026-03-25T09:10:09.12Z</time></trkpt><trkpt lat="46.1494626" lon="9.5268852"><ele>250.99999999999997</ele><time>2026-03-25T09:10:12.12Z</time></trkpt><trkpt lat="46.1494416" lon="9.5269839"><ele>250.99999999999997</ele><time>2026-03-25T09:10:15.119Z</time></trkpt><trkpt lat="46.1494144" lon="9.5270684"><ele>251.0</ele><time>2026-03-25T09:10:18.12Z</time></trkpt><trkpt lat="46.1493774" lon="9.527156"><ele>250.99999999999997</ele><time>2026-03-25T09:10:21.12Z</time></trkpt><trkpt lat="46.1493428" lon="9.5272381"><ele>250.99999999999997</ele><time>2026-03-25T09:10:24.12Z</time></trkpt><trkpt lat="46.1493261" lon="9.5273369"><ele>251.28571428571425</ele><time>2026-03-25T09:10:27.12Z</time></trkpt><trkpt lat="46.1493166" lon="9.5274278"><ele>251.57142857142856</ele><time>2026-03-25T09:10:30.119Z</time></trkpt><trkpt lat="46.1493066" lon="9.5275329"><ele>251.85714285714286</ele><time>2026-03-25T09:10:34.121Z</time></trkpt><trkpt lat="46.1493294" lon="9.5276352"><ele>252.14285714285714</ele><time>2026-03-25T09:10:38.121Z</time></trkpt><trkpt lat="46.1493745" lon="9.5277301"><ele>252.42857142857144</ele><time>2026-03-25T09:10:42.12Z</time></trkpt><trkpt lat="46.1494045" lon="9.5278153"><ele>252.71428571428575</ele><time>2026-03-25T09:10:45.119Z</time></trkpt><trkpt lat="46.1494206" lon="9.5279076"><ele>253.00000000000003</ele><time>2026-03-25T09:10:49.12Z</time></trkpt><trkpt lat="46.1494333" lon="9.5280102"><ele>253.71428571428575</ele><time>2026-03-25T09:10:53.121Z</time></trkpt><trkpt lat="46.1494414" lon="9.52811"><ele>254.42857142857144</ele><time>2026-03-25T09:10:57.12Z</time></trkpt><trkpt lat="46.149438" lon="9.5282123"><ele>255.14285714285714</ele><time>2026-03-25T09:11:01.12Z</time></trkpt><trkpt lat="46.149447" lon="9.5283181"><ele>255.85714285714286</ele><time>2026-03-25T09:11:05.121Z</time></trkpt><trkpt lat="46.1494498" lon="9.5284245"><ele>256.57142857142856</ele><time>2026-03-25T09:11:09.228Z</time></trkpt><trkpt lat="46.1494497" lon="9.5285166"><ele>257.2857142857143</ele><time>2026-03-25T09:11:12.121Z</time></trkpt><trkpt lat="46.1494545" lon="9.5286115"><ele>258.0</ele><time>2026-03-25T09:11:15.186Z</time></trkpt><trkpt lat="46.1494451" lon="9.5287104"><ele>258.1428571428571</ele><time>2026-03-25T09:11:19.244Z</time></trkpt><trkpt lat="46.1494393" lon="9.5288093"><ele>258.2857142857143</ele><time>2026-03-25T09:11:23.12Z</time></trkpt><trkpt lat="46.1494525" lon="9.5289097"><ele>258.42857142857144</ele><time>2026-03-25T09:11:27.12Z</time></trkpt><trkpt lat="46.1494715" lon="9.529003"><ele>258.57142857142856</ele><time>2026-03-25T09:11:30.218Z</time></trkpt><trkpt lat="46.149485" lon="9.5291051"><ele>258.7142857142857</ele><time>2026-03-25T09:11:35.223Z</time></trkpt><trkpt lat="46.1495066" lon="9.5291915"><ele>258.85714285714283</ele><time>2026-03-25T09:11:37.212Z</time></trkpt><trkpt lat="46.1495169" lon="9.5292995"><ele>259.0</ele><time>2026-03-25T09:11:40.208Z</time></trkpt><trkpt lat="46.149515" lon="9.5294125"><ele>259.0</ele><time>2026-03-25T09:11:45.212Z</time></trkpt><trkpt lat="46.1495595" lon="9.5294815"><ele>259.0</ele><time>2026-03-25T09:11:48.207Z</time></trkpt><trkpt lat="46.149633" lon="9.5294882"><ele>259.0</ele><time>2026-03-25T09:11:51.203Z</time></trkpt><trkpt lat="46.1497051" lon="9.5294685"><ele>259.0</ele><time>2026-03-25T09:11:54.204Z</time></trkpt><trkpt lat="46.1497687" lon="9.5294856"><ele>259.0</ele><time>2026-03-25T09:11:57.203Z</time></trkpt><trkpt lat="46.1498417" lon="9.5295109"><ele>259.0</ele><time>2026-03-25T09:12:01.122Z</time></trkpt><trkpt lat="46.1499143" lon="9.529546"><ele>259.0</ele><time>2026-03-25T09:12:05.12Z</time></trkpt><trkpt lat="46.1499713" lon="9.5295849"><ele>259.85714285714283</ele><time>2026-03-25T09:12:08.204Z</time></trkpt><trkpt lat="46.1500407" lon="9.5296265"><ele>260.7142857142857</ele><time>2026-03-25T09:12:12.204Z</time></trkpt><trkpt lat="46.1501051" lon="9.5296487"><ele>261.57142857142856</ele><time>2026-03-25T09:12:16.121Z</time></trkpt><trkpt lat="46.1501679" lon="9.5296805"><ele>262.42857142857144</ele><time>2026-03-25T09:12:20.207Z</time></trkpt><trkpt lat="46.1502371" lon="9.5296972"><ele>263.2857142857143</ele><time>2026-03-25T09:12:25.159Z</time></trkpt><trkpt lat="46.1503045" lon="9.5297126"><ele>264.1428571428571</ele><time>2026-03-25T09:12:28.16Z</time></trkpt><trkpt lat="46.1503799" lon="9.5297487"><ele>265.0</ele><time>2026-03-25T09:12:32.12Z</time></trkpt><trkpt lat="46.1504479" lon="9.5298085"><ele>265.0</ele><time>2026-03-25T09:12:36.121Z</time></trkpt><trkpt lat="46.1505149" lon="9.5298784"><ele>265.0</ele><time>2026-03-25T09:12:40.208Z</time></trkpt><trkpt lat="46.1505544" lon="9.5299548"><ele>265.0</ele><time>2026-03-25T09:12:43.119Z</time></trkpt><trkpt lat="46.1505771" lon="9.5300716"><ele>265.0</ele><time>2026-03-25T09:12:47.121Z</time></trkpt><trkpt lat="46.1505719" lon="9.5301806"><ele>265.0</ele><time>2026-03-25T09:12:50.204Z</time></trkpt><trkpt lat="46.1505841" lon="9.5302863"><ele>265.0</ele><time>2026-03-25T09:12:54.12Z</time></trkpt><trkpt lat="46.1505974" lon="9.5303909"><ele>264.4285714285714</ele><time>2026-03-25T09:12:58.12Z</time></trkpt><trkpt lat="46.1506109" lon="9.5304842"><ele>263.85714285714283</ele><time>2026-03-25T09:13:01.204Z</time></trkpt><trkpt lat="46.1506239" lon="9.5305972"><ele>263.2857142857143</ele><time>2026-03-25T09:13:05.22Z</time></trkpt><trkpt lat="46.1506349" lon="9.5306926"><ele>262.71428571428567</ele><time>2026-03-25T09:13:09.119Z</time></trkpt><trkpt lat="46.1506416" lon="9.5307965"><ele>262.1428571428571</ele><time>2026-03-25T09:13:13.119Z</time></trkpt><trkpt lat="46.1506543" lon="9.5308935"><ele>261.57142857142856</ele><time>2026-03-25T09:13:17.122Z</time></trkpt><trkpt lat="46.1506653" lon="9.530984"><ele>261.0</ele><time>2026-03-25T09:13:20.203Z</time></trkpt><trkpt lat="46.1506828" lon="9.5310776"><ele>261.0</ele><time>2026-03-25T09:13:24.12Z</time></trkpt><trkpt lat="46.1507026" lon="9.5311791"><ele>261.0</ele><time>2026-03-25T09:13:28.203Z</time></trkpt><trkpt lat="46.1507459" lon="9.5312628"><ele>261.0</ele><time>2026-03-25T09:13:32.169Z</time></trkpt><trkpt lat="46.1507799" lon="9.5313589"><ele>261.0</ele><time>2026-03-25T09:13:36.121Z</time></trkpt><trkpt lat="46.1507831" lon="9.5314675"><ele>261.0</ele><time>2026-03-25T09:13:40.122Z</time></trkpt><trkpt lat="46.1507868" lon="9.5315774"><ele>261.0</ele><time>2026-03-25T09:13:44.12Z</time></trkpt><trkpt lat="46.1508067" lon="9.5316652"><ele>261.0</ele><time>2026-03-25T09:13:47.203Z</time></trkpt><trkpt lat="46.150821" lon="9.5317697"><ele>262.2857142857143</ele><time>2026-03-25T09:13:51.203Z</time></trkpt><trkpt lat="46.1508243" lon="9.5318704"><ele>263.57142857142856</ele><time>2026-03-25T09:13:55.12Z</time></trkpt><trkpt lat="46.1508209" lon="9.5319648"><ele>264.85714285714283</ele><time>2026-03-25T09:13:59.207Z</time></trkpt><trkpt lat="46.1508151" lon="9.5320569"><ele>266.1428571428571</ele><time>2026-03-25T09:14:03.204Z</time></trkpt><trkpt lat="46.1508154" lon="9.53216"><ele>267.4285714285714</ele><time>2026-03-25T09:14:07.204Z</time></trkpt><trkpt lat="46.1507906" lon="9.5322597"><ele>268.7142857142857</ele><time>2026-03-25T09:14:11.121Z</time></trkpt><trkpt lat="46.1507323" lon="9.5323369"><ele>270.0</ele><time>2026-03-25T09:14:15.121Z</time></trkpt><trkpt lat="46.1506631" lon="9.5323596"><ele>270.0</ele><time>2026-03-25T09:14:18.204Z</time></trkpt><trkpt lat="46.1505981" lon="9.5323895"><ele>270.0</ele><time>2026-03-25T09:14:21.122Z</time></trkpt><trkpt lat="46.1505346" lon="9.5323614"><ele>270.0</ele><time>2026-03-25T09:14:24.197Z</time></trkpt><trkpt lat="46.1504753" lon="9.5323214"><ele>270.0</ele><time>2026-03-25T09:14:27.122Z</time></trkpt><trkpt lat="46.1503934" lon="9.5323126"><ele>270.0</ele><time>2026-03-25T09:14:31.122Z</time></trkpt><trkpt lat="46.150327" lon="9.5323771"><ele>270.0</ele><time>2026-03-25T09:14:35.203Z</time></trkpt><trkpt lat="46.1502919" lon="9.5324745"><ele>270.0</ele><time>2026-03-25T09:14:39.203Z</time></trkpt><trkpt lat="46.150295" lon="9.5325783"><ele>270.0</ele><time>2026-03-25T09:14:43.121Z</time></trkpt><trkpt lat="46.1503134" lon="9.5326887"><ele>270.0</ele><time>2026-03-25T09:14:47.121Z</time></trkpt><trkpt lat="46.1503267" lon="9.5327997"><ele>270.0</ele><time>2026-03-25T09:14:51.189Z</time></trkpt><trkpt lat="46.1503059" lon="9.5329078"><ele>270.0</ele><time>2026-03-25T09:14:55.204Z</time></trkpt><trkpt lat="46.150278" lon="9.5330073"><ele>270.0</ele><time>2026-03-25T09:14:59.12Z</time></trkpt><trkpt lat="46.1502602" lon="9.5331435"><ele>270.0</ele><time>2026-03-25T09:15:04.122Z</time></trkpt><trkpt lat="46.1502191" lon="9.533248"><ele>272.3333333333333</ele><time>2026-03-25T09:15:08.121Z</time></trkpt><trkpt lat="46.1501832" lon="9.5333466"><ele>274.6666666666667</ele><time>2026-03-25T09:15:12.203Z</time></trkpt><trkpt lat="46.1501488" lon="9.5334549"><ele>277.0</ele><time>2026-03-25T09:15:16.203Z</time></trkpt><trkpt lat="46.1501235" lon="9.533568"><ele>279.33333333333337</ele><time>2026-03-25T09:15:20.122Z</time></trkpt><trkpt lat="46.1500853" lon="9.5336699"><ele>281.6666666666667</ele><time>2026-03-25T09:15:24.123Z</time></trkpt><trkpt lat="46.1500556" lon="9.5337731"><ele>284.0</ele><time>2026-03-25T09:15:28.208Z</time></trkpt><trkpt lat="46.1500382" lon="9.5338728"><ele>286.0</ele><time>2026-03-25T09:15:32.203Z</time></trkpt><trkpt lat="46.1500615" lon="9.5339687"><ele>288.0</ele><time>2026-03-25T09:15:36.121Z</time></trkpt><trkpt lat="46.1500357" lon="9.5340677"><ele>290.0</ele><time>2026-03-25T09:15:40.12Z</time></trkpt><trkpt lat="46.1500302" lon="9.5341725"><ele>292.0</ele><time>2026-03-25T09:15:44.203Z</time></trkpt><trkpt lat="46.1500688" lon="9.5342476"><ele>294.0</ele><time>2026-03-25T09:15:47.203Z</time></trkpt><trkpt lat="46.1500708" lon="9.5343564"><ele>296.0</ele><time>2026-03-25T09:15:51.123Z</time></trkpt><trkpt lat="46.1500699" lon="9.5344532"><ele>298.0</ele><time>2026-03-25T09:15:55.121Z</time></trkpt><trkpt lat="46.1500644" lon="9.5345712"><ele>299.57142857142856</ele><time>2026-03-25T09:15:59.204Z</time></trkpt><trkpt lat="46.1500438" lon="9.5346633"><ele>301.1428571428571</ele><time>2026-03-25T09:16:03.21Z</time></trkpt><trkpt lat="46.1500266" lon="9.5347616"><ele>302.7142857142857</ele><time>2026-03-25T09:16:07.122Z</time></trkpt><trkpt lat="46.1499835" lon="9.5348637"><ele>304.2857142857143</ele><time>2026-03-25T09:16:11.121Z</time></trkpt><trkpt lat="46.1499343" lon="9.5349552"><ele>305.8571428571429</ele><time>2026-03-25T09:16:15.203Z</time></trkpt><trkpt lat="46.149887" lon="9.5350517"><ele>307.42857142857144</ele><time>2026-03-25T09:16:19.204Z</time></trkpt><trkpt lat="46.1498494" lon="9.5351298"><ele>309.0</ele><time>2026-03-25T09:16:22.121Z</time></trkpt><trkpt lat="46.1498059" lon="9.5352307"><ele>304.42857142857144</ele><time>2026-03-25T09:16:26.203Z</time></trkpt><trkpt lat="46.1497734" lon="9.5353133"><ele>299.8571428571429</ele><time>2026-03-25T09:16:29.184Z</time></trkpt><trkpt lat="46.1497476" lon="9.5353963"><ele>295.2857142857143</ele><time>2026-03-25T09:16:32.122Z</time></trkpt><trkpt lat="46.1497126" lon="9.5354762"><ele>290.7142857142857</ele><time>2026-03-25T09:16:35.215Z</time></trkpt><trkpt lat="46.1497027" lon="9.535593"><ele>286.1428571428571</ele><time>2026-03-25T09:16:39.202Z</time></trkpt><trkpt lat="46.1496858" lon="9.5356886"><ele>281.57142857142856</ele><time>2026-03-25T09:16:43.122Z</time></trkpt><trkpt lat="46.1496787" lon="9.5357799"><ele>277.0</ele><time>2026-03-25T09:16:46.212Z</time></trkpt><trkpt lat="46.1496751" lon="9.5358836"><ele>277.0</ele><time>2026-03-25T09:16:50.121Z</time></trkpt><trkpt lat="46.149662" lon="9.5359849"><ele>277.0</ele><time>2026-03-25T09:16:53.122Z</time></trkpt><trkpt lat="46.1496421" lon="9.5360841"><ele>277.0</ele><time>2026-03-25T09:16:56.121Z</time></trkpt><trkpt lat="46.1496364" lon="9.5361835"><ele>277.0</ele><time>2026-03-25T09:16:59.122Z</time></trkpt><trkpt lat="46.1496214" lon="9.536274"><ele>277.0</ele><time>2026-03-25T09:17:02.123Z</time></trkpt><trkpt lat="46.1495951" lon="9.5363844"><ele>277.0</ele><time>2026-03-25T09:17:06.123Z</time></trkpt><trkpt lat="46.149547" lon="9.5364758"><ele>277.0</ele><time>2026-03-25T09:17:10.12Z</time></trkpt><trkpt lat="46.1495099" lon="9.5365536"><ele>277.66666666666663</ele><time>2026-03-25T09:17:13.192Z</time></trkpt><trkpt lat="46.1494937" lon="9.5366442"><ele>278.3333333333333</ele><time>2026-03-25T09:17:16.195Z</time></trkpt><trkpt lat="46.1494837" lon="9.53676"><ele>279.0</ele><time>2026-03-25T09:17:20.121Z</time></trkpt><trkpt lat="46.1494657" lon="9.5368778"><ele>279.6666666666667</ele><time>2026-03-25T09:17:24.193Z</time></trkpt><trkpt lat="46.1494685" lon="9.5369709"><ele>280.33333333333337</ele><time>2026-03-25T09:17:28.194Z</time></trkpt><trkpt lat="46.1494595" lon="9.5370867"><ele>281.0</ele><time>2026-03-25T09:17:32.204Z</time></trkpt><trkpt lat="46.1494435" lon="9.5372003"><ele>282.5714285714286</ele><time>2026-03-25T09:17:36.122Z</time></trkpt><trkpt lat="46.1494257" lon="9.5372881"><ele>284.14285714285717</ele><time>2026-03-25T09:17:39.203Z</time></trkpt><trkpt lat="46.1493985" lon="9.5374024"><ele>285.7142857142857</ele><time>2026-03-25T09:17:43.205Z</time></trkpt><trkpt lat="46.1493687" lon="9.5375047"><ele>287.28571428571433</ele><time>2026-03-25T09:17:47.203Z</time></trkpt><trkpt lat="46.1493425" lon="9.5375886"><ele>288.8571428571429</ele><time>2026-03-25T09:17:50.122Z</time></trkpt><trkpt lat="46.1493057" lon="9.5376637"><ele>290.42857142857144</ele><time>2026-03-25T09:17:53.184Z</time></trkpt><trkpt lat="46.1492719" lon="9.537743"><ele>292.0</ele><time>2026-03-25T09:17:56.121Z</time></trkpt><trkpt lat="46.1492383" lon="9.5378302"><ele>295.16666666666663</ele><time>2026-03-25T09:17:59.204Z</time></trkpt><trkpt lat="46.149223" lon="9.5379301"><ele>298.3333333333333</ele><time>2026-03-25T09:18:02.121Z</time></trkpt><trkpt lat="46.1492305" lon="9.5380458"><ele>301.5</ele><time>2026-03-25T09:18:06.122Z</time></trkpt><trkpt lat="46.1491925" lon="9.5381425"><ele>304.6666666666667</ele><time>2026-03-25T09:18:09.121Z</time></trkpt><trkpt lat="46.1491484" lon="9.5382167"><ele>307.83333333333337</ele><time>2026-03-25T09:18:11.207Z</time></trkpt><trkpt lat="46.1491194" lon="9.5383343"><ele>311.0</ele><time>2026-03-25T09:18:13.123Z</time></trkpt><trkpt lat="46.149111" lon="9.5384491"><ele>311.0</ele><time>2026-03-25T09:18:15.12Z</time></trkpt><trkpt lat="46.149089" lon="9.5385545"><ele>311.0</ele><time>2026-03-25T09:18:17.122Z</time></trkpt><trkpt lat="46.1490657" lon="9.5386606"><ele>311.0</ele><time>2026-03-25T09:18:19.122Z</time></trkpt><trkpt lat="46.1490418" lon="9.5387558"><ele>311.0</ele><time>2026-03-25T09:18:21.122Z</time></trkpt><trkpt lat="46.1490157" lon="9.5388701"><ele>311.0</ele><time>2026-03-25T09:18:24.122Z</time></trkpt><trkpt lat="46.148986" lon="9.5389593"><ele>311.0</ele><time>2026-03-25T09:18:27.122Z</time></trkpt><trkpt lat="46.1489443" lon="9.5390329"><ele>311.0</ele><time>2026-03-25T09:18:30.122Z</time></trkpt><trkpt lat="46.1488897" lon="9.5391019"><ele>309.0</ele><time>2026-03-25T09:18:33.12Z</time></trkpt><trkpt lat="46.1488158" lon="9.5391753"><ele>307.0</ele><time>2026-03-25T09:18:36.22Z</time></trkpt><trkpt lat="46.1487264" lon="9.5392631"><ele>305.0</ele><time>2026-03-25T09:18:39.811Z</time></trkpt><trkpt lat="46.1486817" lon="9.5393313"><ele>303.0</ele><time>2026-03-25T09:18:42.231Z</time></trkpt><trkpt lat="46.1486457" lon="9.5394176"><ele>301.0</ele><time>2026-03-25T09:18:45.122Z</time></trkpt><trkpt lat="46.1485967" lon="9.5395142"><ele>299.0</ele><time>2026-03-25T09:18:48.23Z</time></trkpt><trkpt lat="46.1485334" lon="9.5396321"><ele>299.0</ele><time>2026-03-25T09:18:52.22Z</time></trkpt><trkpt lat="46.1484936" lon="9.5397797"><ele>299.0</ele><time>2026-03-25T09:18:56.225Z</time></trkpt><trkpt lat="46.14847" lon="9.5398984"><ele>299.0</ele><time>2026-03-25T09:18:59.009Z</time></trkpt><trkpt lat="46.1484401" lon="9.5400289"><ele>299.0</ele><time>2026-03-25T09:19:02.223Z</time></trkpt><trkpt lat="46.1484057" lon="9.5401239"><ele>299.0</ele><time>2026-03-25T09:19:04.875Z</time></trkpt><trkpt lat="46.1483702" lon="9.5402132"><ele>299.0</ele><time>2026-03-25T09:19:07.203Z</time></trkpt><trkpt lat="46.1483374" lon="9.5403389"><ele>301.8</ele><time>2026-03-25T09:19:10.232Z</time></trkpt><trkpt lat="46.1483098" lon="9.5404733"><ele>304.59999999999997</ele><time>2026-03-25T09:19:13.224Z</time></trkpt><trkpt lat="46.1482975" lon="9.5405822"><ele>307.4</ele><time>2026-03-25T09:19:15.212Z</time></trkpt><trkpt lat="46.1482814" lon="9.5407203"><ele>310.2</ele><time>2026-03-25T09:19:17.122Z</time></trkpt><trkpt lat="46.1482653" lon="9.5408864"><ele>313.0</ele><time>2026-03-25T09:19:19.122Z</time></trkpt><trkpt lat="46.1482481" lon="9.5410684"><ele>313.0</ele><time>2026-03-25T09:19:21.122Z</time></trkpt><trkpt lat="46.1482372" lon="9.5411666"><ele>313.0</ele><time>2026-03-25T09:19:22.121Z</time></trkpt><trkpt lat="46.1482204" lon="9.5412666"><ele>313.0</ele><time>2026-03-25T09:19:23.122Z</time></trkpt><trkpt lat="46.1482055" lon="9.5413727"><ele>313.0</ele><time>2026-03-25T09:19:24.123Z</time></trkpt><trkpt lat="46.1481831" lon="9.5416079"><ele>313.0</ele><time>2026-03-25T09:19:26.121Z</time></trkpt><trkpt lat="46.1481687" lon="9.5417332"><ele>306.0</ele><time>2026-03-25T09:19:27.122Z</time></trkpt><trkpt lat="46.14815" lon="9.541856"><ele>299.0</ele><time>2026-03-25T09:19:28.122Z</time></trkpt><trkpt lat="46.1481337" lon="9.5419845"><ele>292.0</ele><time>2026-03-25T09:19:29.122Z</time></trkpt><trkpt lat="46.1481232" lon="9.5421172"><ele>285.0</ele><time>2026-03-25T09:19:30.122Z</time></trkpt><trkpt lat="46.1481123" lon="9.5422438"><ele>278.0</ele><time>2026-03-25T09:19:31.123Z</time></trkpt><trkpt lat="46.1481037" lon="9.5423687"><ele>271.0</ele><time>2026-03-25T09:19:32.122Z</time></trkpt><trkpt lat="46.1481009" lon="9.5424933"><ele>271.0</ele><time>2026-03-25T09:19:33.122Z</time></trkpt><trkpt lat="46.148103" lon="9.5426118"><ele>271.0</ele><time>2026-03-25T09:19:34.121Z</time></trkpt><trkpt lat="46.1481091" lon="9.5427231"><ele>271.0</ele><time>2026-03-25T09:19:35.122Z</time></trkpt><trkpt lat="46.1481096" lon="9.5428249"><ele>271.0</ele><time>2026-03-25T09:19:36.123Z</time></trkpt><trkpt lat="46.1481068" lon="9.5429167"><ele>271.0</ele><time>2026-03-25T09:19:37.122Z</time></trkpt><trkpt lat="46.1480894" lon="9.5430651"><ele>271.0</ele><time>2026-03-25T09:19:39.123Z</time></trkpt><trkpt lat="46.1480704" lon="9.5431657"><ele>272.66666666666663</ele><time>2026-03-25T09:19:41.122Z</time></trkpt><trkpt lat="46.1480473" lon="9.5432865"><ele>274.3333333333333</ele><time>2026-03-25T09:19:44.122Z</time></trkpt><trkpt lat="46.1480331" lon="9.5434162"><ele>276.0</ele><time>2026-03-25T09:19:47.122Z</time></trkpt><trkpt lat="46.1480179" lon="9.5435465"><ele>277.6666666666667</ele><time>2026-03-25T09:19:50.122Z</time></trkpt><trkpt lat="46.1480087" lon="9.5436609"><ele>279.33333333333337</ele><time>2026-03-25T09:19:53.121Z</time></trkpt><trkpt lat="46.1479985" lon="9.5437644"><ele>281.0</ele><time>2026-03-25T09:19:56.122Z</time></trkpt><trkpt lat="46.1479999" lon="9.5438677"><ele>282.7142857142857</ele><time>2026-03-25T09:19:59.122Z</time></trkpt><trkpt lat="46.1479949" lon="9.5439678"><ele>284.42857142857144</ele><time>2026-03-25T09:20:02.123Z</time></trkpt><trkpt lat="46.1479919" lon="9.5440695"><ele>286.1428571428571</ele><time>2026-03-25T09:20:05.122Z</time></trkpt><trkpt lat="46.1479744" lon="9.5441743"><ele>287.8571428571429</ele><time>2026-03-25T09:20:08.121Z</time></trkpt><trkpt lat="46.1479531" lon="9.544287"><ele>289.57142857142856</ele><time>2026-03-25T09:20:11.123Z</time></trkpt><trkpt lat="46.1479294" lon="9.5443845"><ele>291.2857142857143</ele><time>2026-03-25T09:20:13.226Z</time></trkpt><trkpt lat="46.1479083" lon="9.5444712"><ele>293.0</ele><time>2026-03-25T09:20:15.25Z</time></trkpt><trkpt lat="46.1478782" lon="9.5445906"><ele>295.6666666666667</ele><time>2026-03-25T09:20:18.182Z</time></trkpt><trkpt lat="46.1478562" lon="9.5446815"><ele>298.33333333333337</ele><time>2026-03-25T09:20:20.19Z</time></trkpt><trkpt lat="46.147816" lon="9.5448068"><ele>301.0</ele><time>2026-03-25T09:20:23.124Z</time></trkpt><trkpt lat="46.1477866" lon="9.5449041"><ele>303.6666666666667</ele><time>2026-03-25T09:20:25.193Z</time></trkpt><trkpt lat="46.1477469" lon="9.5449799"><ele>306.3333333333333</ele><time>2026-03-25T09:20:26.839Z</time></trkpt><trkpt lat="46.1476838" lon="9.5451055"><ele>309.0</ele><time>2026-03-25T09:20:29.122Z</time></trkpt><trkpt lat="46.1476338" lon="9.5452338"><ele>309.0</ele><time>2026-03-25T09:20:31.123Z</time></trkpt><trkpt lat="46.1475902" lon="9.5453531"><ele>309.0</ele><time>2026-03-25T09:20:33.123Z</time></trkpt><trkpt lat="46.1475546" lon="9.5454601"><ele>309.0</ele><time>2026-03-25T09:20:35.122Z</time></trkpt><trkpt lat="46.1475287" lon="9.5455503"><ele>309.0</ele><time>2026-03-25T09:20:37.122Z</time></trkpt><trkpt lat="46.1475082" lon="9.5456556"><ele>309.0</ele><time>2026-03-25T09:20:40.122Z</time></trkpt><trkpt lat="46.1474921" lon="9.5457554"><ele>309.0</ele><time>2026-03-25T09:20:43.122Z</time></trkpt><trkpt lat="46.1474972" lon="9.5458552"><ele>311.00000000000006</ele><time>2026-03-25T09:20:45.121Z</time></trkpt><trkpt lat="46.1474805" lon="9.5459473"><ele>313.0</ele><time>2026-03-25T09:20:48.123Z</time></trkpt><trkpt lat="46.1474407" lon="9.5460236"><ele>315.0</ele><time>2026-03-25T09:20:50.188Z</time></trkpt><trkpt lat="46.1473907" lon="9.546132"><ele>317.0</ele><time>2026-03-25T09:20:53.356Z</time></trkpt><trkpt lat="46.1473424" lon="9.5462321"><ele>319.0</ele><time>2026-03-25T09:20:56.122Z</time></trkpt><trkpt lat="46.1473238" lon="9.5463239"><ele>321.00000000000006</ele><time>2026-03-25T09:20:59.123Z</time></trkpt><trkpt lat="46.1473088" lon="9.5464156"><ele>323.0</ele><time>2026-03-25T09:21:02.122Z</time></trkpt><trkpt lat="46.1472963" lon="9.5465108"><ele>320.14285714285717</ele><time>2026-03-25T09:21:05.122Z</time></trkpt><trkpt lat="46.1472888" lon="9.5466235"><ele>317.2857142857143</ele><time>2026-03-25T09:21:09.122Z</time></trkpt><trkpt lat="46.147288" lon="9.5467245"><ele>314.42857142857144</ele><time>2026-03-25T09:21:14.123Z</time></trkpt><trkpt lat="46.1472744" lon="9.5468335"><ele>311.57142857142856</ele><time>2026-03-25T09:21:19.123Z</time></trkpt><trkpt lat="46.1472703" lon="9.5469278"><ele>308.7142857142857</ele><time>2026-03-25T09:21:22.122Z</time></trkpt><trkpt lat="46.1472398" lon="9.5470293"><ele>305.8571428571429</ele><time>2026-03-25T09:21:27.123Z</time></trkpt><trkpt lat="46.1472308" lon="9.5471229"><ele>303.0</ele><time>2026-03-25T09:21:32.121Z</time></trkpt><trkpt lat="46.1472046" lon="9.5472071"><ele>303.0</ele><time>2026-03-25T09:21:37.122Z</time></trkpt><trkpt lat="46.1471844" lon="9.5472938"><ele>303.0</ele><time>2026-03-25T09:21:42.122Z</time></trkpt><trkpt lat="46.1471569" lon="9.5473854"><ele>303.0</ele><time>2026-03-25T09:21:48.123Z</time></trkpt><trkpt lat="46.1471333" lon="9.5474765"><ele>303.0</ele><time>2026-03-25T09:21:54.124Z</time></trkpt><trkpt lat="46.1471115" lon="9.547563"><ele>303.0</ele><time>2026-03-25T09:21:59.122Z</time></trkpt><trkpt lat="46.1470846" lon="9.5476592"><ele>303.0</ele><time>2026-03-25T09:22:05.122Z</time></trkpt><trkpt lat="46.1470758" lon="9.5477524"><ele>303.0</ele><time>2026-03-25T09:22:10.122Z</time></trkpt><trkpt lat="46.1470528" lon="9.5478474"><ele>304.8571428571429</ele><time>2026-03-25T09:22:16.123Z</time></trkpt><trkpt lat="46.1470298" lon="9.547942"><ele>306.7142857142857</ele><time>2026-03-25T09:22:22.123Z</time></trkpt><trkpt lat="46.1470128" lon="9.5480378"><ele>308.57142857142856</ele><time>2026-03-25T09:22:28.122Z</time></trkpt><trkpt lat="46.1469864" lon="9.5481286"><ele>310.42857142857144</ele><time>2026-03-25T09:22:34.121Z</time></trkpt><trkpt lat="46.1469713" lon="9.5482196"><ele>312.2857142857143</ele><time>2026-03-25T09:22:40.122Z</time></trkpt><trkpt lat="46.1469664" lon="9.5483148"><ele>314.14285714285717</ele><time>2026-03-25T09:22:46.123Z</time></trkpt><trkpt lat="46.1469636" lon="9.5484085"><ele>316.0</ele><time>2026-03-25T09:22:52.123Z</time></trkpt><trkpt lat="46.1469656" lon="9.5485082"><ele>316.00000000000006</ele><time>2026-03-25T09:22:58.122Z</time></trkpt><trkpt lat="46.1469571" lon="9.5486083"><ele>316.0</ele><time>2026-03-25T09:23:04.123Z</time></trkpt><trkpt lat="46.1469795" lon="9.5487086"><ele>316.0</ele><time>2026-03-25T09:23:11.123Z</time></trkpt><trkpt lat="46.1469792" lon="9.5488161"><ele>316.0</ele><time>2026-03-25T09:23:18.124Z</time></trkpt><trkpt lat="46.1469784" lon="9.5489181"><ele>316.0</ele><time>2026-03-25T09:23:24.123Z</time></trkpt><trkpt lat="46.1469823" lon="9.5490115"><ele>316.00000000000006</ele><time>2026-03-25T09:23:30.123Z</time></trkpt><trkpt lat="46.1469771" lon="9.5491125"><ele>316.0</ele><time>2026-03-25T09:23:38.123Z</time></trkpt><trkpt lat="46.1470164" lon="9.5491921"><ele>317.28571428571433</ele><time>2026-03-25T09:23:45.124Z</time></trkpt><trkpt lat="46.1470268" lon="9.549284"><ele>318.57142857142856</ele><time>2026-03-25T09:23:52.123Z</time></trkpt><trkpt lat="46.1470392" lon="9.549379"><ele>319.8571428571429</ele><time>2026-03-25T09:23:58.124Z</time></trkpt><trkpt lat="46.147045" lon="9.5494841"><ele>321.14285714285717</ele><time>2026-03-25T09:24:06.122Z</time></trkpt><trkpt lat="46.1470696" lon="9.5495688"><ele>322.42857142857144</ele><time>2026-03-25T09:24:12.122Z</time></trkpt><trkpt lat="46.1470966" lon="9.54966"><ele>323.7142857142857</ele><time>2026-03-25T09:24:19.122Z</time></trkpt><trkpt lat="46.1471243" lon="9.5497492"><ele>325.0</ele><time>2026-03-25T09:24:25.123Z</time></trkpt><trkpt lat="46.1471365" lon="9.5498527"><ele>325.85714285714283</ele><time>2026-03-25T09:24:32.123Z</time></trkpt><trkpt lat="46.147171" lon="9.5499323"><ele>326.7142857142857</ele><time>2026-03-25T09:24:37.122Z</time></trkpt><trkpt lat="46.147183" lon="9.5500234"><ele>327.57142857142856</ele><time>2026-03-25T09:24:43.123Z</time></trkpt><trkpt lat="46.1472003" lon="9.5501147"><ele>328.42857142857144</ele><time>2026-03-25T09:24:48.124Z</time></trkpt><trkpt lat="46.1471898" lon="9.5502122"><ele>329.2857142857143</ele><time>2026-03-25T09:24:53.123Z</time></trkpt><trkpt lat="46.1471581" lon="9.5503014"><ele>330.14285714285717</ele><time>2026-03-25T09:24:58.123Z</time></trkpt><trkpt lat="46.1471696" lon="9.5504016"><ele>331.0</ele><time>2026-03-25T09:25:04.123Z</time></trkpt><trkpt lat="46.1471691" lon="9.5504938"><ele>332.42857142857144</ele><time>2026-03-25T09:25:09.123Z</time></trkpt><trkpt lat="46.1471692" lon="9.5505942"><ele>333.85714285714283</ele><time>2026-03-25T09:25:14.123Z</time></trkpt><trkpt lat="46.1471637" lon="9.5506875"><ele>335.2857142857143</ele><time>2026-03-25T09:25:19.123Z</time></trkpt><trkpt lat="46.147174" lon="9.5507896"><ele>336.7142857142857</ele><time>2026-03-25T09:25:24.124Z</time></trkpt><trkpt lat="46.1472026" lon="9.5508734"><ele>338.14285714285717</ele><time>2026-03-25T09:25:28.123Z</time></trkpt><trkpt lat="46.1472217" lon="9.5509601"><ele>339.57142857142856</ele><time>2026-03-25T09:25:32.124Z</time></trkpt><trkpt lat="46.1472517" lon="9.5510564"><ele>341.0</ele><time>2026-03-25T09:25:36.123Z</time></trkpt><trkpt lat="46.1472636" lon="9.5511579"><ele>341.57142857142856</ele><time>2026-03-25T09:25:40.124Z</time></trkpt><trkpt lat="46.1472445" lon="9.5512645"><ele>342.14285714285717</ele><time>2026-03-25T09:25:45.124Z</time></trkpt><trkpt lat="46.1472204" lon="9.5513715"><ele>342.7142857142857</ele><time>2026-03-25T09:25:49.124Z</time></trkpt><trkpt lat="46.1472095" lon="9.5514702"><ele>343.2857142857143</ele><time>2026-03-25T09:25:53.122Z</time></trkpt><trkpt lat="46.1471917" lon="9.5515743"><ele>343.85714285714283</ele><time>2026-03-25T09:25:57.123Z</time></trkpt><trkpt lat="46.1471932" lon="9.5516667"><ele>344.42857142857144</ele><time>2026-03-25T09:26:00.123Z</time></trkpt><trkpt lat="46.1471869" lon="9.5517806"><ele>345.0</ele><time>2026-03-25T09:26:03.124Z</time></trkpt><trkpt lat="46.1471832" lon="9.5518937"><ele>345.0</ele><time>2026-03-25T09:26:06.125Z</time></trkpt><trkpt lat="46.1471758" lon="9.5520137"><ele>345.0</ele><time>2026-03-25T09:26:09.124Z</time></trkpt><trkpt lat="46.1471785" lon="9.552116"><ele>345.0</ele><time>2026-03-25T09:26:12.123Z</time></trkpt><trkpt lat="46.1471741" lon="9.5522118"><ele>345.0</ele><time>2026-03-25T09:26:15.123Z</time></trkpt><trkpt lat="46.1471622" lon="9.5523048"><ele>345.0</ele><time>2026-03-25T09:26:18.125Z</time></trkpt><trkpt lat="46.147162" lon="9.5524089"><ele>345.0</ele><time>2026-03-25T09:26:22.123Z</time></trkpt><trkpt lat="46.1471522" lon="9.5525067"><ele>345.0</ele><time>2026-03-25T09:26:26.123Z</time></trkpt><trkpt lat="46.1471407" lon="9.5525991"><ele>345.8571428571429</ele><time>2026-03-25T09:26:31.124Z</time></trkpt><trkpt lat="46.1471205" lon="9.5526973"><ele>346.7142857142857</ele><time>2026-03-25T09:26:35.124Z</time></trkpt><trkpt lat="46.1471114" lon="9.5527936"><ele>347.57142857142856</ele><time>2026-03-25T09:26:39.123Z</time></trkpt><trkpt lat="46.1470931" lon="9.5528986"><ele>348.42857142857144</ele><time>2026-03-25T09:26:43.123Z</time></trkpt><trkpt lat="46.1470963" lon="9.5529953"><ele>349.2857142857143</ele><time>2026-03-25T09:26:47.123Z</time></trkpt><trkpt lat="46.1470902" lon="9.5531071"><ele>350.14285714285717</ele><time>2026-03-25T09:26:52.122Z</time></trkpt><trkpt lat="46.1470937" lon="9.5532186"><ele>351.0</ele><time>2026-03-25T09:26:56.123Z</time></trkpt><trkpt lat="46.1470918" lon="9.5533194"><ele>351.3333333333333</ele><time>2026-03-25T09:27:00.123Z</time></trkpt><trkpt lat="46.1470979" lon="9.5534296"><ele>351.6666666666667</ele><time>2026-03-25T09:27:05.125Z</time></trkpt><trkpt lat="46.1470866" lon="9.5535339"><ele>352.0</ele><time>2026-03-25T09:27:10.125Z</time></trkpt><trkpt lat="46.1470631" lon="9.5536265"><ele>352.33333333333337</ele><time>2026-03-25T09:27:23.124Z</time></trkpt><trkpt lat="46.1470552" lon="9.5537475"><ele>352.6666666666667</ele><time>2026-03-25T09:27:27.122Z</time></trkpt><trkpt lat="46.1470422" lon="9.5538705"><ele>353.0</ele><time>2026-03-25T09:27:30.125Z</time></trkpt><trkpt lat="46.1470241" lon="9.5539983"><ele>353.1666666666667</ele><time>2026-03-25T09:27:33.123Z</time></trkpt><trkpt lat="46.1469971" lon="9.5541087"><ele>353.33333333333337</ele><time>2026-03-25T09:27:36.124Z</time></trkpt><trkpt lat="46.1469675" lon="9.5542115"><ele>353.5</ele><time>2026-03-25T09:27:39.124Z</time></trkpt><trkpt lat="46.1469237" lon="9.5543108"><ele>353.6666666666667</ele><time>2026-03-25T09:27:42.123Z</time></trkpt><trkpt lat="46.1468811" lon="9.5544144"><ele>353.8333333333333</ele><time>2026-03-25T09:27:45.123Z</time></trkpt><trkpt lat="46.1468492" lon="9.5545229"><ele>354.0</ele><time>2026-03-25T09:27:48.124Z</time></trkpt><trkpt lat="46.1468175" lon="9.5546136"><ele>355.5714285714286</ele><time>2026-03-25T09:27:51.123Z</time></trkpt><trkpt lat="46.1467856" lon="9.554692"><ele>357.1428571428571</ele><time>2026-03-25T09:27:54.125Z</time></trkpt><trkpt lat="46.1467485" lon="9.5547774"><ele>358.7142857142857</ele><time>2026-03-25T09:27:58.124Z</time></trkpt><trkpt lat="46.1467282" lon="9.554865"><ele>360.28571428571433</ele><time>2026-03-25T09:28:02.124Z</time></trkpt><trkpt lat="46.1466959" lon="9.5549582"><ele>361.8571428571429</ele><time>2026-03-25T09:28:17.123Z</time></trkpt><trkpt lat="46.1466649" lon="9.5550435"><ele>363.42857142857144</ele><time>2026-03-25T09:28:21.124Z</time></trkpt><trkpt lat="46.1466371" lon="9.5551493"><ele>365.0</ele><time>2026-03-25T09:28:25.125Z</time></trkpt><trkpt lat="46.1466148" lon="9.5552358"><ele>365.00000000000006</ele><time>2026-03-25T09:28:29.124Z</time></trkpt><trkpt lat="46.1465943" lon="9.5553253"><ele>365.0</ele><time>2026-03-25T09:28:33.124Z</time></trkpt><trkpt lat="46.1465299" lon="9.5554036"><ele>365.0</ele><time>2026-03-25T09:29:09.123Z</time></trkpt><trkpt lat="46.1464651" lon="9.5554393"><ele>365.0</ele><time>2026-03-25T09:29:40.125Z</time></trkpt><trkpt lat="46.146398" lon="9.5554476"><ele>365.0</ele><time>2026-03-25T09:29:59.125Z</time></trkpt><trkpt lat="46.1463332" lon="9.5554575"><ele>365.00000000000006</ele><time>2026-03-25T09:30:12.125Z</time></trkpt><trkpt lat="46.1462717" lon="9.5555047"><ele>365.0</ele><time>2026-03-25T09:30:20.124Z</time></trkpt><trkpt lat="46.1462398" lon="9.5555872"><ele>357.42857142857144</ele><time>2026-03-25T09:30:29.125Z</time></trkpt><trkpt lat="46.1462021" lon="9.5556672"><ele>349.8571428571429</ele><time>2026-03-25T09:30:38.125Z</time></trkpt><trkpt lat="46.146146" lon="9.5557211"><ele>342.28571428571433</ele><time>2026-03-25T09:30:48.126Z</time></trkpt><trkpt lat="46.1460962" lon="9.5557838"><ele>334.7142857142857</ele><time>2026-03-25T09:31:00.125Z</time></trkpt><trkpt lat="46.1461099" lon="9.5558744"><ele>327.1428571428571</ele><time>2026-03-25T09:31:22.125Z</time></trkpt><trkpt lat="46.1461204" lon="9.5559687"><ele>319.5714285714286</ele><time>2026-03-25T09:31:33.125Z</time></trkpt><trkpt lat="46.1461433" lon="9.5560565"><ele>312.0</ele><time>2026-03-25T09:31:42.125Z</time></trkpt><trkpt lat="46.1460802" lon="9.5560798"><ele>312.0</ele><time>2026-03-25T09:32:01.125Z</time></trkpt><trkpt lat="46.1460188" lon="9.5560367"><ele>312.0</ele><time>2026-03-25T09:32:13.125Z</time></trkpt><trkpt lat="46.1459669" lon="9.5559769"><ele>312.0</ele><time>2026-03-25T09:32:29.124Z</time></trkpt><trkpt lat="46.145916" lon="9.5559198"><ele>312.0</ele><time>2026-03-25T09:32:35.125Z</time></trkpt><trkpt lat="46.1458994" lon="9.5560083"><ele>312.0</ele><time>2026-03-25T09:33:06.125Z</time></trkpt><trkpt lat="46.1459247" lon="9.5561131"><ele>312.0</ele><time>2026-03-25T09:33:34.126Z</time></trkpt><trkpt lat="46.145948" lon="9.5562177"><ele>312.0</ele><time>2026-03-25T09:33:51.125Z</time></trkpt><trkpt lat="46.1459028" lon="9.556281"><ele>312.0</ele><time>2026-03-25T09:34:01.124Z</time></trkpt><trkpt lat="46.1458564" lon="9.5561606"><ele>312.0</ele><time>2026-03-25T09:34:28.125Z</time></trkpt><trkpt lat="46.1458266" lon="9.5560793"><ele>312.0</ele><time>2026-03-25T09:34:41.126Z</time></trkpt><trkpt lat="46.1457792" lon="9.5560157"><ele>312.0</ele><time>2026-03-25T09:34:54.125Z</time></trkpt><trkpt lat="46.145742" lon="9.5559338"><ele>312.0</ele><time>2026-03-25T09:35:12.125Z</time></trkpt><trkpt lat="46.1457393" lon="9.5558366"><ele>312.0</ele><time>2026-03-25T09:35:36.126Z</time></trkpt><trkpt lat="46.1457136" lon="9.5557278"><ele>312.0</ele><time>2026-03-25T09:35:40.125Z</time></trkpt><trkpt lat="46.1456955" lon="9.5556401"><ele>303.5714285714286</ele><time>2026-03-25T09:35:43.126Z</time></trkpt><trkpt lat="46.1456948" lon="9.5555327"><ele>295.1428571428571</ele><time>2026-03-25T09:35:47.125Z</time></trkpt><trkpt lat="46.1456906" lon="9.5554362"><ele>286.7142857142857</ele><time>2026-03-25T09:35:50.126Z</time></trkpt><trkpt lat="46.1456889" lon="9.5553296"><ele>278.28571428571433</ele><time>2026-03-25T09:35:54.126Z</time></trkpt><trkpt lat="46.1456889" lon="9.555237"><ele>269.8571428571429</ele><time>2026-03-25T09:35:57.126Z</time></trkpt><trkpt lat="46.1456864" lon="9.5551334"><ele>261.42857142857144</ele><time>2026-03-25T09:36:01.126Z</time></trkpt><trkpt lat="46.1456812" lon="9.5550344"><ele>253.00000000000003</ele><time>2026-03-25T09:36:06.126Z</time></trkpt><trkpt lat="46.1456862" lon="9.5549322"><ele>252.99999999999997</ele><time>2026-03-25T09:36:16.125Z</time></trkpt><trkpt lat="46.1456835" lon="9.5548355"><ele>253.0</ele><time>2026-03-25T09:36:21.125Z</time></trkpt><trkpt lat="46.1457017" lon="9.5547408"><ele>253.0</ele><time>2026-03-25T09:36:26.127Z</time></trkpt><trkpt lat="46.1457324" lon="9.5546484"><ele>253.0</ele><time>2026-03-25T09:36:31.125Z</time></trkpt><trkpt lat="46.1457522" lon="9.554532"><ele>252.99999999999997</ele><time>2026-03-25T09:36:35.124Z</time></trkpt><trkpt lat="46.1457719" lon="9.5544158"><ele>253.0</ele><time>2026-03-25T09:36:40.126Z</time></trkpt><trkpt lat="46.1457688" lon="9.5543022"><ele>258.8571428571429</ele><time>2026-03-25T09:36:45.125Z</time></trkpt><trkpt lat="46.1457649" lon="9.5541986"><ele>264.7142857142857</ele><time>2026-03-25T09:36:49.125Z</time></trkpt><trkpt lat="46.1457556" lon="9.5541019"><ele>270.57142857142856</ele><time>2026-03-25T09:36:53.125Z</time></trkpt><trkpt lat="46.1457489" lon="9.5540032"><ele>276.42857142857144</ele><time>2026-03-25T09:36:57.125Z</time></trkpt><trkpt lat="46.1457508" lon="9.5539002"><ele>282.2857142857143</ele><time>2026-03-25T09:37:01.125Z</time></trkpt><trkpt lat="46.1457469" lon="9.5538028"><ele>288.14285714285717</ele><time>2026-03-25T09:37:05.124Z</time></trkpt><trkpt lat="46.1457343" lon="9.5536936"><ele>294.0</ele><time>2026-03-25T09:37:09.125Z</time></trkpt><trkpt lat="46.1457148" lon="9.5535684"><ele>284.8333333333333</ele><time>2026-03-25T09:37:13.126Z</time></trkpt><trkpt lat="46.1456878" lon="9.5534505"><ele>275.6666666666667</ele><time>2026-03-25T09:37:16.126Z</time></trkpt><trkpt lat="46.1456636" lon="9.5533181"><ele>266.5</ele><time>2026-03-25T09:37:19.126Z</time></trkpt><trkpt lat="46.1456464" lon="9.5531975"><ele>257.33333333333337</ele><time>2026-03-25T09:37:22.125Z</time></trkpt><trkpt lat="46.1456283" lon="9.5530823"><ele>248.16666666666669</ele><time>2026-03-25T09:37:25.125Z</time></trkpt><trkpt lat="46.1455894" lon="9.5529846"><ele>239.0</ele><time>2026-03-25T09:37:28.125Z</time></trkpt><trkpt lat="46.1455505" lon="9.5529001"><ele>239.00000000000003</ele><time>2026-03-25T09:37:31.126Z</time></trkpt><trkpt lat="46.1455128" lon="9.5527922"><ele>239.0</ele><time>2026-03-25T09:37:35.125Z</time></trkpt><trkpt lat="46.1454903" lon="9.552688"><ele>239.00000000000003</ele><time>2026-03-25T09:37:38.126Z</time></trkpt><trkpt lat="46.1454746" lon="9.5525992"><ele>239.00000000000003</ele><time>2026-03-25T09:37:41.125Z</time></trkpt><trkpt lat="46.145458" lon="9.5524835"><ele>239.0</ele><time>2026-03-25T09:37:46.127Z</time></trkpt><trkpt lat="46.1454423" lon="9.5523933"><ele>239.00000000000003</ele><time>2026-03-25T09:37:49.126Z</time></trkpt><trkpt lat="46.1454368" lon="9.5523007"><ele>239.00000000000003</ele><time>2026-03-25T09:37:52.125Z</time></trkpt><trkpt lat="46.1454292" lon="9.5521911"><ele>239.00000000000003</ele><time>2026-03-25T09:37:56.125Z</time></trkpt><trkpt lat="46.1454185" lon="9.5520886"><ele>239.0</ele><time>2026-03-25T09:37:59.234Z</time></trkpt><trkpt lat="46.1454091" lon="9.5519856"><ele>239.00000000000003</ele><time>2026-03-25T09:38:02.747Z</time></trkpt><trkpt lat="46.1453907" lon="9.5518889"><ele>239.00000000000003</ele><time>2026-03-25T09:38:06.34Z</time></trkpt><trkpt lat="46.1453808" lon="9.5517905"><ele>239.0</ele><time>2026-03-25T09:38:08.845Z</time></trkpt><trkpt lat="46.1453663" lon="9.5516921"><ele>239.00000000000003</ele><time>2026-03-25T09:38:12.095Z</time></trkpt><trkpt lat="46.1453599" lon="9.551595"><ele>239.00000000000003</ele><time>2026-03-25T09:38:15.221Z</time></trkpt><trkpt lat="46.145346" lon="9.5514777"><ele>239.16666666666669</ele><time>2026-03-25T09:38:19.235Z</time></trkpt><trkpt lat="46.1453548" lon="9.5513452"><ele>239.33333333333334</ele><time>2026-03-25T09:38:23.206Z</time></trkpt><trkpt lat="46.1453593" lon="9.5512339"><ele>239.5</ele><time>2026-03-25T09:38:26.126Z</time></trkpt><trkpt lat="46.1453594" lon="9.5511087"><ele>239.66666666666669</ele><time>2026-03-25T09:38:29.229Z</time></trkpt><trkpt lat="46.1453495" lon="9.5509894"><ele>239.83333333333334</ele><time>2026-03-25T09:38:33.125Z</time></trkpt><trkpt lat="46.1453367" lon="9.5508805"><ele>240.0</ele><time>2026-03-25T09:38:36.207Z</time></trkpt><trkpt lat="46.1453398" lon="9.5507428"><ele>240.16666666666666</ele><time>2026-03-25T09:38:39.248Z</time></trkpt><trkpt lat="46.1453467" lon="9.5506457"><ele>240.33333333333331</ele><time>2026-03-25T09:38:42.232Z</time></trkpt><trkpt lat="46.1453422" lon="9.5505375"><ele>240.5</ele><time>2026-03-25T09:38:46.219Z</time></trkpt><trkpt lat="46.1452848" lon="9.5504414"><ele>240.66666666666666</ele><time>2026-03-25T09:38:49.127Z</time></trkpt><trkpt lat="46.1452204" lon="9.5503781"><ele>240.83333333333331</ele><time>2026-03-25T09:38:52.127Z</time></trkpt><trkpt lat="46.1451813" lon="9.5502869"><ele>241.0</ele><time>2026-03-25T09:38:56.126Z</time></trkpt><trkpt lat="46.1451734" lon="9.5501746"><ele>240.99999999999997</ele><time>2026-03-25T09:39:00.127Z</time></trkpt><trkpt lat="46.1451152" lon="9.5500859"><ele>241.0</ele><time>2026-03-25T09:39:04.126Z</time></trkpt><trkpt lat="46.1450447" lon="9.5500835"><ele>241.0</ele><time>2026-03-25T09:39:07.126Z</time></trkpt><trkpt lat="46.144967" lon="9.5501198"><ele>241.0</ele><time>2026-03-25T09:39:10.126Z</time></trkpt><trkpt lat="46.1449013" lon="9.5501648"><ele>240.99999999999997</ele><time>2026-03-25T09:39:14.127Z</time></trkpt><trkpt lat="46.1448454" lon="9.5500991"><ele>241.0</ele><time>2026-03-25T09:39:18.125Z</time></trkpt><trkpt lat="46.1448289" lon="9.5499747"><ele>238.16666666666666</ele><time>2026-03-25T09:39:21.125Z</time></trkpt><trkpt lat="46.1448233" lon="9.5498484"><ele>235.33333333333331</ele><time>2026-03-25T09:39:23.125Z</time></trkpt><trkpt lat="46.1448205" lon="9.5497059"><ele>232.5</ele><time>2026-03-25T09:39:25.127Z</time></trkpt><trkpt lat="46.1448129" lon="9.5495839"><ele>229.66666666666669</ele><time>2026-03-25T09:39:27.126Z</time></trkpt><trkpt lat="46.1447915" lon="9.549481"><ele>226.83333333333334</ele><time>2026-03-25T09:39:29.125Z</time></trkpt><trkpt lat="46.1447298" lon="9.5494209"><ele>224.0</ele><time>2026-03-25T09:39:31.127Z</time></trkpt><trkpt lat="46.1446448" lon="9.5493993"><ele>223.50000000000003</ele><time>2026-03-25T09:39:33.125Z</time></trkpt><trkpt lat="46.1445539" lon="9.5493872"><ele>223.0</ele><time>2026-03-25T09:39:35.126Z</time></trkpt><trkpt lat="46.1444774" lon="9.5493779"><ele>222.5</ele><time>2026-03-25T09:39:37.126Z</time></trkpt><trkpt lat="46.1444161" lon="9.5493161"><ele>222.0</ele><time>2026-03-25T09:39:39.127Z</time></trkpt><trkpt lat="46.1443908" lon="9.5492046"><ele>221.50000000000003</ele><time>2026-03-25T09:39:41.126Z</time></trkpt><trkpt lat="46.14439" lon="9.5490423"><ele>221.0</ele><time>2026-03-25T09:39:43.126Z</time></trkpt><trkpt lat="46.144393" lon="9.5489448"><ele>221.00000000000003</ele><time>2026-03-25T09:39:44.126Z</time></trkpt><trkpt lat="46.1443989" lon="9.5488413"><ele>221.0</ele><time>2026-03-25T09:39:45.125Z</time></trkpt><trkpt lat="46.1444053" lon="9.5487377"><ele>221.0</ele><time>2026-03-25T09:39:46.127Z</time></trkpt><trkpt lat="46.1444099" lon="9.5486325"><ele>221.0</ele><time>2026-03-25T09:39:47.126Z</time></trkpt><trkpt lat="46.1444131" lon="9.5485275"><ele>221.0</ele><time>2026-03-25T09:39:48.124Z</time></trkpt><trkpt lat="46.1444225" lon="9.5484266"><ele>221.00000000000003</ele><time>2026-03-25T09:39:49.126Z</time></trkpt><trkpt lat="46.1444283" lon="9.5483355"><ele>221.0</ele><time>2026-03-25T09:39:50.126Z</time></trkpt><trkpt lat="46.1444129" lon="9.5481856"><ele>220.20000000000002</ele><time>2026-03-25T09:39:52.126Z</time></trkpt><trkpt lat="46.1443535" lon="9.5480795"><ele>219.40000000000003</ele><time>2026-03-25T09:39:54.125Z</time></trkpt><trkpt lat="46.1442649" lon="9.548028"><ele>218.6</ele><time>2026-03-25T09:39:56.127Z</time></trkpt><trkpt lat="46.1441795" lon="9.5479893"><ele>217.8</ele><time>2026-03-25T09:39:58.126Z</time></trkpt><trkpt lat="46.1440854" lon="9.5479693"><ele>217.0</ele><time>2026-03-25T09:40:00.126Z</time></trkpt><trkpt lat="46.1439954" lon="9.5479549"><ele>216.83333333333331</ele><time>2026-03-25T09:40:02.127Z</time></trkpt><trkpt lat="46.1439211" lon="9.5479263"><ele>216.66666666666666</ele><time>2026-03-25T09:40:05.127Z</time></trkpt><trkpt lat="46.1438947" lon="9.5478194"><ele>216.5</ele><time>2026-03-25T09:40:11.126Z</time></trkpt><trkpt lat="46.1439168" lon="9.5477026"><ele>216.33333333333331</ele><time>2026-03-25T09:40:14.126Z</time></trkpt><trkpt lat="46.1439327" lon="9.5475507"><ele>216.16666666666666</ele><time>2026-03-25T09:40:17.126Z</time></trkpt><trkpt lat="46.1439555" lon="9.5474442"><ele>216.0</ele><time>2026-03-25T09:40:19.127Z</time></trkpt><trkpt lat="46.1439834" lon="9.5473275"><ele>216.0</ele><time>2026-03-25T09:40:21.126Z</time></trkpt><trkpt lat="46.1439963" lon="9.5472099"><ele>216.00000000000003</ele><time>2026-03-25T09:40:23.126Z</time></trkpt><trkpt lat="46.1440023" lon="9.5470972"><ele>216.00000000000003</ele><time>2026-03-25T09:40:25.126Z</time></trkpt><trkpt lat="46.1440156" lon="9.5469634"><ele>216.0</ele><time>2026-03-25T09:40:27.126Z</time></trkpt><trkpt lat="46.1440186" lon="9.5468275"><ele>216.0</ele><time>2026-03-25T09:40:29.126Z</time></trkpt><trkpt lat="46.14402" lon="9.5466814"><ele>215.8</ele><time>2026-03-25T09:40:31.127Z</time></trkpt><trkpt lat="46.1440263" lon="9.5465238"><ele>215.60000000000002</ele><time>2026-03-25T09:40:33.126Z</time></trkpt><trkpt lat="46.144029" lon="9.5463609"><ele>215.4</ele><time>2026-03-25T09:40:35.126Z</time></trkpt><trkpt lat="46.1440362" lon="9.5461935"><ele>215.2</ele><time>2026-03-25T09:40:37.127Z</time></trkpt><trkpt lat="46.1440458" lon="9.5460988"><ele>215.0</ele><time>2026-03-25T09:40:38.126Z</time></trkpt><trkpt lat="46.1440697" lon="9.5459317"><ele>215.16666666666669</ele><time>2026-03-25T09:40:40.126Z</time></trkpt><trkpt lat="46.144084" lon="9.5457696"><ele>215.33333333333334</ele><time>2026-03-25T09:40:42.126Z</time></trkpt><trkpt lat="46.1440904" lon="9.5455932"><ele>215.5</ele><time>2026-03-25T09:40:44.126Z</time></trkpt><trkpt lat="46.1440895" lon="9.5455019"><ele>215.66666666666669</ele><time>2026-03-25T09:40:45.126Z</time></trkpt><trkpt lat="46.1440913" lon="9.5454108"><ele>215.83333333333334</ele><time>2026-03-25T09:40:46.126Z</time></trkpt><trkpt lat="46.1440949" lon="9.5453139"><ele>216.0</ele><time>2026-03-25T09:40:47.126Z</time></trkpt><trkpt lat="46.1440964" lon="9.5451289"><ele>216.0</ele><time>2026-03-25T09:40:49.126Z</time></trkpt><trkpt lat="46.1440974" lon="9.5450352"><ele>216.0</ele><time>2026-03-25T09:40:50.126Z</time></trkpt><trkpt lat="46.1440984" lon="9.5449432"><ele>216.0</ele><time>2026-03-25T09:40:51.125Z</time></trkpt><trkpt lat="46.1440954" lon="9.5448521"><ele>216.0</ele><time>2026-03-25T09:40:52.125Z</time></trkpt><trkpt lat="46.1440987" lon="9.5447603"><ele>216.0</ele><time>2026-03-25T09:40:53.127Z</time></trkpt><trkpt lat="46.1441012" lon="9.5446684"><ele>216.0</ele><time>2026-03-25T09:40:54.126Z</time></trkpt><trkpt lat="46.1441129" lon="9.5444897"><ele>216.0</ele><time>2026-03-25T09:40:56.126Z</time></trkpt><trkpt lat="46.1441151" lon="9.5443182"><ele>216.0</ele><time>2026-03-25T09:40:58.126Z</time></trkpt><trkpt lat="46.1441206" lon="9.5441569"><ele>216.00000000000003</ele><time>2026-03-25T09:41:00.128Z</time></trkpt><trkpt lat="46.1441256" lon="9.5440023"><ele>216.00000000000003</ele><time>2026-03-25T09:41:02.125Z</time></trkpt><trkpt lat="46.1441327" lon="9.5438539"><ele>216.0</ele><time>2026-03-25T09:41:04.126Z</time></trkpt><trkpt lat="46.1441501" lon="9.5436967"><ele>216.0</ele><time>2026-03-25T09:41:06.127Z</time></trkpt><trkpt lat="46.1441755" lon="9.5435297"><ele>216.0</ele><time>2026-03-25T09:41:08.126Z</time></trkpt><trkpt lat="46.1442248" lon="9.5433775"><ele>216.00000000000003</ele><time>2026-03-25T09:41:10.126Z</time></trkpt><trkpt lat="46.1442778" lon="9.5432381"><ele>216.00000000000003</ele><time>2026-03-25T09:41:12.126Z</time></trkpt><trkpt lat="46.1443321" lon="9.5430975"><ele>216.0</ele><time>2026-03-25T09:41:14.126Z</time></trkpt><trkpt lat="46.1443981" lon="9.5429762"><ele>216.0</ele><time>2026-03-25T09:41:16.126Z</time></trkpt><trkpt lat="46.1444547" lon="9.5428563"><ele>216.0</ele><time>2026-03-25T09:41:18.126Z</time></trkpt><trkpt lat="46.14451" lon="9.5427245"><ele>216.00000000000003</ele><time>2026-03-25T09:41:20.125Z</time></trkpt><trkpt lat="46.144575" lon="9.5425814"><ele>216.00000000000003</ele><time>2026-03-25T09:41:22.127Z</time></trkpt><trkpt lat="46.1446405" lon="9.5424275"><ele>216.0</ele><time>2026-03-25T09:41:24.126Z</time></trkpt><trkpt lat="46.1446777" lon="9.5423504"><ele>216.0</ele><time>2026-03-25T09:41:25.128Z</time></trkpt><trkpt lat="46.1447154" lon="9.5422722"><ele>216.0</ele><time>2026-03-25T09:41:26.126Z</time></trkpt><trkpt lat="46.1447531" lon="9.5421936"><ele>216.0</ele><time>2026-03-25T09:41:27.128Z</time></trkpt><trkpt lat="46.1447882" lon="9.542117"><ele>216.0</ele><time>2026-03-25T09:41:28.126Z</time></trkpt><trkpt lat="46.1448273" lon="9.5420447"><ele>216.0</ele><time>2026-03-25T09:41:29.127Z</time></trkpt><trkpt lat="46.1448999" lon="9.5419031"><ele>216.0</ele><time>2026-03-25T09:41:31.127Z</time></trkpt><trkpt lat="46.1449578" lon="9.5417764"><ele>216.0</ele><time>2026-03-25T09:41:33.128Z</time></trkpt><trkpt lat="46.1450081" lon="9.5416313"><ele>215.66666666666666</ele><time>2026-03-25T09:41:35.128Z</time></trkpt><trkpt lat="46.1450585" lon="9.5414881"><ele>215.33333333333331</ele><time>2026-03-25T09:41:37.126Z</time></trkpt><trkpt lat="46.145087" lon="9.5414052"><ele>215.0</ele><time>2026-03-25T09:41:38.126Z</time></trkpt><trkpt lat="46.1451182" lon="9.5413201"><ele>214.66666666666666</ele><time>2026-03-25T09:41:39.128Z</time></trkpt><trkpt lat="46.1451488" lon="9.5412362"><ele>214.33333333333331</ele><time>2026-03-25T09:41:40.127Z</time></trkpt><trkpt lat="46.1451767" lon="9.5411525"><ele>214.0</ele><time>2026-03-25T09:41:41.126Z</time></trkpt><trkpt lat="46.1452319" lon="9.5409834"><ele>213.79999999999998</ele><time>2026-03-25T09:41:43.126Z</time></trkpt><trkpt lat="46.1452644" lon="9.5408987"><ele>213.59999999999997</ele><time>2026-03-25T09:41:44.127Z</time></trkpt><trkpt lat="46.1452987" lon="9.5407342"><ele>213.4</ele><time>2026-03-25T09:41:46.127Z</time></trkpt><trkpt lat="46.1453337" lon="9.5405703"><ele>213.2</ele><time>2026-03-25T09:41:48.126Z</time></trkpt><trkpt lat="46.1453628" lon="9.5404155"><ele>213.0</ele><time>2026-03-25T09:41:50.128Z</time></trkpt><trkpt lat="46.1453871" lon="9.5402676"><ele>212.60000000000002</ele><time>2026-03-25T09:41:52.126Z</time></trkpt><trkpt lat="46.1454166" lon="9.5401314"><ele>212.20000000000002</ele><time>2026-03-25T09:41:54.127Z</time></trkpt><trkpt lat="46.145442" lon="9.5400101"><ele>211.8</ele><time>2026-03-25T09:41:56.127Z</time></trkpt><trkpt lat="46.1454697" lon="9.5399"><ele>211.4</ele><time>2026-03-25T09:41:58.127Z</time></trkpt><trkpt lat="46.1454936" lon="9.5397649"><ele>211.0</ele><time>2026-03-25T09:42:00.125Z</time></trkpt><trkpt lat="46.1455198" lon="9.5396151"><ele>211.5</ele><time>2026-03-25T09:42:02.127Z</time></trkpt><trkpt lat="46.1455612" lon="9.5394588"><ele>212.0</ele><time>2026-03-25T09:42:04.126Z</time></trkpt><trkpt lat="46.1456016" lon="9.5392926"><ele>212.5</ele><time>2026-03-25T09:42:06.125Z</time></trkpt><trkpt lat="46.1456467" lon="9.5391246"><ele>213.0</ele><time>2026-03-25T09:42:08.127Z</time></trkpt><trkpt lat="46.1456897" lon="9.5389708"><ele>213.0</ele><time>2026-03-25T09:42:10.126Z</time></trkpt><trkpt lat="46.1457408" lon="9.5388245"><ele>213.0</ele><time>2026-03-25T09:42:12.127Z</time></trkpt><trkpt lat="46.1457884" lon="9.5386754"><ele>213.0</ele><time>2026-03-25T09:42:14.126Z</time></trkpt><trkpt lat="46.1458371" lon="9.5385271"><ele>213.0</ele><time>2026-03-25T09:42:16.127Z</time></trkpt><trkpt lat="46.1458907" lon="9.5383887"><ele>213.0</ele><time>2026-03-25T09:42:18.127Z</time></trkpt><trkpt lat="46.1459472" lon="9.5382679"><ele>213.0</ele><time>2026-03-25T09:42:20.126Z</time></trkpt><trkpt lat="46.1459966" lon="9.5381479"><ele>213.0</ele><time>2026-03-25T09:42:22.126Z</time></trkpt><trkpt lat="46.1460432" lon="9.5380249"><ele>213.0</ele><time>2026-03-25T09:42:24.128Z</time></trkpt><trkpt lat="46.1460976" lon="9.5378919"><ele>213.0</ele><time>2026-03-25T09:42:26.127Z</time></trkpt><trkpt lat="46.1461464" lon="9.5377441"><ele>213.5</ele><time>2026-03-25T09:42:28.127Z</time></trkpt><trkpt lat="46.1461895" lon="9.5375954"><ele>214.0</ele><time>2026-03-25T09:42:30.126Z</time></trkpt><trkpt lat="46.1462279" lon="9.5374353"><ele>214.5</ele><time>2026-03-25T09:42:32.128Z</time></trkpt><trkpt lat="46.1462634" lon="9.5372771"><ele>215.0</ele><time>2026-03-25T09:42:34.128Z</time></trkpt><trkpt lat="46.1462989" lon="9.5371151"><ele>214.8</ele><time>2026-03-25T09:42:36.126Z</time></trkpt><trkpt lat="46.1463532" lon="9.5369646"><ele>214.6</ele><time>2026-03-25T09:42:38.126Z</time></trkpt><trkpt lat="46.1464135" lon="9.5368074"><ele>214.39999999999998</ele><time>2026-03-25T09:42:40.127Z</time></trkpt><trkpt lat="46.1464447" lon="9.5367261"><ele>214.2</ele><time>2026-03-25T09:42:41.126Z</time></trkpt><trkpt lat="46.1465096" lon="9.5365737"><ele>214.0</ele><time>2026-03-25T09:42:43.127Z</time></trkpt><trkpt lat="46.1465637" lon="9.5364314"><ele>213.75</ele><time>2026-03-25T09:42:45.127Z</time></trkpt><trkpt lat="46.1466161" lon="9.5362912"><ele>213.5</ele><time>2026-03-25T09:42:47.127Z</time></trkpt><trkpt lat="46.1466533" lon="9.5361422"><ele>213.25</ele><time>2026-03-25T09:42:49.128Z</time></trkpt><trkpt lat="46.1466968" lon="9.5359908"><ele>213.0</ele><time>2026-03-25T09:42:51.128Z</time></trkpt><trkpt lat="46.1467377" lon="9.5358341"><ele>213.0</ele><time>2026-03-25T09:42:53.126Z</time></trkpt><trkpt lat="46.146781" lon="9.5356809"><ele>213.0</ele><time>2026-03-25T09:42:55.126Z</time></trkpt><trkpt lat="46.1468295" lon="9.5355441"><ele>213.0</ele><time>2026-03-25T09:42:57.126Z</time></trkpt><trkpt lat="46.1468674" lon="9.5354116"><ele>213.0</ele><time>2026-03-25T09:42:59.127Z</time></trkpt><trkpt lat="46.1469072" lon="9.5352817"><ele>213.0</ele><time>2026-03-25T09:43:01.126Z</time></trkpt><trkpt lat="46.1469419" lon="9.5351536"><ele>213.4</ele><time>2026-03-25T09:43:03.128Z</time></trkpt><trkpt lat="46.1469799" lon="9.5350182"><ele>213.8</ele><time>2026-03-25T09:43:05.127Z</time></trkpt><trkpt lat="46.1470158" lon="9.5348726"><ele>214.2</ele><time>2026-03-25T09:43:07.126Z</time></trkpt><trkpt lat="46.147062" lon="9.5347416"><ele>214.6</ele><time>2026-03-25T09:43:09.126Z</time></trkpt><trkpt lat="46.147104" lon="9.5346243"><ele>215.0</ele><time>2026-03-25T09:43:11.126Z</time></trkpt><trkpt lat="46.1471525" lon="9.5345017"><ele>215.16666666666669</ele><time>2026-03-25T09:43:13.127Z</time></trkpt><trkpt lat="46.1471993" lon="9.5343985"><ele>215.33333333333334</ele><time>2026-03-25T09:43:15.127Z</time></trkpt><trkpt lat="46.1472278" lon="9.5343047"><ele>215.5</ele><time>2026-03-25T09:43:17.125Z</time></trkpt><trkpt lat="46.1472413" lon="9.5342035"><ele>215.66666666666669</ele><time>2026-03-25T09:43:20.126Z</time></trkpt><trkpt lat="46.1472617" lon="9.5340848"><ele>215.83333333333334</ele><time>2026-03-25T09:43:23.127Z</time></trkpt><trkpt lat="46.1472889" lon="9.5339545"><ele>216.0</ele><time>2026-03-25T09:43:26.126Z</time></trkpt><trkpt lat="46.1473061" lon="9.5338602"><ele>216.0</ele><time>2026-03-25T09:43:28.126Z</time></trkpt><trkpt lat="46.1473228" lon="9.5337691"><ele>216.0</ele><time>2026-03-25T09:43:30.128Z</time></trkpt><trkpt lat="46.1473452" lon="9.5336535"><ele>216.0</ele><time>2026-03-25T09:43:33.128Z</time></trkpt><trkpt lat="46.1473556" lon="9.533537"><ele>216.0</ele><time>2026-03-25T09:43:36.126Z</time></trkpt><trkpt lat="46.147377" lon="9.5334241"><ele>216.0</ele><time>2026-03-25T09:43:39.126Z</time></trkpt><trkpt lat="46.1473932" lon="9.5332977"><ele>216.0</ele><time>2026-03-25T09:43:42.126Z</time></trkpt><trkpt lat="46.1474068" lon="9.5331817"><ele>216.83333333333334</ele><time>2026-03-25T09:43:45.128Z</time></trkpt><trkpt lat="46.1474131" lon="9.5330694"><ele>217.66666666666669</ele><time>2026-03-25T09:43:48.127Z</time></trkpt><trkpt lat="46.1474411" lon="9.5329754"><ele>218.5</ele><time>2026-03-25T09:43:51.127Z</time></trkpt><trkpt lat="46.1474578" lon="9.5328655"><ele>219.33333333333334</ele><time>2026-03-25T09:43:54.125Z</time></trkpt><trkpt lat="46.1474755" lon="9.5327624"><ele>220.16666666666669</ele><time>2026-03-25T09:43:57.127Z</time></trkpt><trkpt lat="46.1474939" lon="9.5326589"><ele>221.0</ele><time>2026-03-25T09:44:00.127Z</time></trkpt><trkpt lat="46.1475196" lon="9.5325462"><ele>221.71428571428572</ele><time>2026-03-25T09:44:03.126Z</time></trkpt><trkpt lat="46.1475442" lon="9.5324347"><ele>222.42857142857144</ele><time>2026-03-25T09:44:06.126Z</time></trkpt><trkpt lat="46.1475667" lon="9.5323452"><ele>223.14285714285717</ele><time>2026-03-25T09:44:09.127Z</time></trkpt><trkpt lat="46.1475767" lon="9.5322317"><ele>223.85714285714286</ele><time>2026-03-25T09:44:13.126Z</time></trkpt><trkpt lat="46.1475826" lon="9.5321199"><ele>224.57142857142856</ele><time>2026-03-25T09:44:17.126Z</time></trkpt><trkpt lat="46.1476015" lon="9.5320075"><ele>225.2857142857143</ele><time>2026-03-25T09:44:22.128Z</time></trkpt><trkpt lat="46.1476063" lon="9.5319162"><ele>226.0</ele><time>2026-03-25T09:44:27.126Z</time></trkpt><trkpt lat="46.1476067" lon="9.531801"><ele>226.42857142857144</ele><time>2026-03-25T09:44:32.128Z</time></trkpt><trkpt lat="46.1475879" lon="9.5317014"><ele>226.85714285714283</ele><time>2026-03-25T09:44:36.127Z</time></trkpt><trkpt lat="46.1475736" lon="9.5316002"><ele>227.28571428571428</ele><time>2026-03-25T09:44:40.127Z</time></trkpt><trkpt lat="46.1475532" lon="9.5314986"><ele>227.71428571428572</ele><time>2026-03-25T09:44:43.128Z</time></trkpt><trkpt lat="46.1475336" lon="9.5313989"><ele>228.14285714285717</ele><time>2026-03-25T09:44:46.125Z</time></trkpt><trkpt lat="46.1475136" lon="9.5312965"><ele>228.57142857142856</ele><time>2026-03-25T09:44:49.126Z</time></trkpt><trkpt lat="46.1474969" lon="9.5311868"><ele>229.0</ele><time>2026-03-25T09:44:52.126Z</time></trkpt><trkpt lat="46.147478" lon="9.5310711"><ele>229.49999999999997</ele><time>2026-03-25T09:44:55.127Z</time></trkpt><trkpt lat="46.1474553" lon="9.5309567"><ele>230.0</ele><time>2026-03-25T09:44:58.128Z</time></trkpt><trkpt lat="46.1474364" lon="9.5308487"><ele>230.5</ele><time>2026-03-25T09:45:01.127Z</time></trkpt><trkpt lat="46.1474245" lon="9.5307433"><ele>231.0</ele><time>2026-03-25T09:45:04.126Z</time></trkpt><trkpt lat="46.1474112" lon="9.5306426"><ele>231.49999999999997</ele><time>2026-03-25T09:45:07.127Z</time></trkpt><trkpt lat="46.1473917" lon="9.5305444"><ele>232.0</ele><time>2026-03-25T09:45:10.126Z</time></trkpt><trkpt lat="46.1473958" lon="9.5304281"><ele>232.5714285714286</ele><time>2026-03-25T09:45:14.126Z</time></trkpt><trkpt lat="46.14739" lon="9.5303122"><ele>233.14285714285717</ele><time>2026-03-25T09:45:18.128Z</time></trkpt><trkpt lat="46.147409" lon="9.530205"><ele>233.71428571428572</ele><time>2026-03-25T09:45:22.126Z</time></trkpt><trkpt lat="46.1474298" lon="9.5301184"><ele>234.2857142857143</ele><time>2026-03-25T09:45:26.127Z</time></trkpt><trkpt lat="46.147444" lon="9.530019"><ele>234.8571428571429</ele><time>2026-03-25T09:45:30.128Z</time></trkpt><trkpt lat="46.14743" lon="9.5299268"><ele>235.42857142857142</ele><time>2026-03-25T09:45:33.127Z</time></trkpt><trkpt lat="46.1473766" lon="9.5298782"><ele>236.0</ele><time>2026-03-25T09:45:36.127Z</time></trkpt><trkpt lat="46.1472895" lon="9.5298728"><ele>234.4</ele><time>2026-03-25T09:45:39.128Z</time></trkpt><trkpt lat="46.1472048" lon="9.5298859"><ele>232.8</ele><time>2026-03-25T09:45:41.127Z</time></trkpt><trkpt lat="46.1470981" lon="9.5299155"><ele>231.20000000000002</ele><time>2026-03-25T09:45:43.127Z</time></trkpt><trkpt lat="46.1469695" lon="9.5299424"><ele>229.60000000000002</ele><time>2026-03-25T09:45:45.126Z</time></trkpt><trkpt lat="46.1468984" lon="9.5299635"><ele>228.0</ele><time>2026-03-25T09:45:46.127Z</time></trkpt><trkpt lat="46.1468225" lon="9.5299886"><ele>228.0</ele><time>2026-03-25T09:45:47.127Z</time></trkpt><trkpt lat="46.1467418" lon="9.5300122"><ele>228.0</ele><time>2026-03-25T09:45:48.127Z</time></trkpt><trkpt lat="46.1466543" lon="9.5300321"><ele>228.0</ele><time>2026-03-25T09:45:49.127Z</time></trkpt><trkpt lat="46.146562" lon="9.5300566"><ele>228.0</ele><time>2026-03-25T09:45:50.126Z</time></trkpt><trkpt lat="46.1464664" lon="9.5300856"><ele>228.0</ele><time>2026-03-25T09:45:51.127Z</time></trkpt><trkpt lat="46.14637" lon="9.5301166"><ele>227.0</ele><time>2026-03-25T09:45:52.127Z</time></trkpt><trkpt lat="46.1462706" lon="9.5301544"><ele>226.0</ele><time>2026-03-25T09:45:53.127Z</time></trkpt><trkpt lat="46.1461714" lon="9.5301994"><ele>225.0</ele><time>2026-03-25T09:45:54.127Z</time></trkpt><trkpt lat="46.1460816" lon="9.5302456"><ele>224.0</ele><time>2026-03-25T09:45:55.128Z</time></trkpt><trkpt lat="46.1460112" lon="9.5302926"><ele>223.0</ele><time>2026-03-25T09:45:56.127Z</time></trkpt><trkpt lat="46.1459058" lon="9.530358"><ele>223.0</ele><time>2026-03-25T09:45:58.127Z</time></trkpt><trkpt lat="46.1458304" lon="9.5303995"><ele>223.0</ele><time>2026-03-25T09:46:00.127Z</time></trkpt><trkpt lat="46.1457677" lon="9.5303882"><ele>223.0</ele><time>2026-03-25T09:46:14.127Z</time></trkpt><trkpt lat="46.1457465" lon="9.5302901"><ele>223.0</ele><time>2026-03-25T09:46:20.127Z</time></trkpt><trkpt lat="46.1457598" lon="9.5301917"><ele>223.0</ele><time>2026-03-25T09:46:23.127Z</time></trkpt><trkpt lat="46.1457837" lon="9.5300701"><ele>223.0</ele><time>2026-03-25T09:46:26.127Z</time></trkpt><trkpt lat="46.1458015" lon="9.529976"><ele>223.0</ele><time>2026-03-25T09:46:28.128Z</time></trkpt><trkpt lat="46.1458152" lon="9.5298717"><ele>223.0</ele><time>2026-03-25T09:46:30.127Z</time></trkpt><trkpt lat="46.1458267" lon="9.5297538"><ele>223.0</ele><time>2026-03-25T09:46:32.126Z</time></trkpt><trkpt lat="46.1458471" lon="9.5296283"><ele>223.0</ele><time>2026-03-25T09:46:34.127Z</time></trkpt><trkpt lat="46.1458636" lon="9.5295003"><ele>223.0</ele><time>2026-03-25T09:46:36.128Z</time></trkpt><trkpt lat="46.1458772" lon="9.5293519"><ele>223.0</ele><time>2026-03-25T09:46:38.126Z</time></trkpt><trkpt lat="46.1458979" lon="9.5291897"><ele>222.99999999999997</ele><time>2026-03-25T09:46:40.127Z</time></trkpt><trkpt lat="46.1459156" lon="9.5290248"><ele>223.0</ele><time>2026-03-25T09:46:42.127Z</time></trkpt><trkpt lat="46.1459495" lon="9.5288667"><ele>223.0</ele><time>2026-03-25T09:46:44.128Z</time></trkpt><trkpt lat="46.145974" lon="9.528779"><ele>223.0</ele><time>2026-03-25T09:46:45.127Z</time></trkpt><trkpt lat="46.1460023" lon="9.5286929"><ele>222.99999999999997</ele><time>2026-03-25T09:46:46.128Z</time></trkpt><trkpt lat="46.1460314" lon="9.5286079"><ele>223.0</ele><time>2026-03-25T09:46:47.126Z</time></trkpt><trkpt lat="46.1460687" lon="9.5285238"><ele>223.16666666666666</ele><time>2026-03-25T09:46:48.128Z</time></trkpt><trkpt lat="46.1461049" lon="9.5284358"><ele>223.33333333333331</ele><time>2026-03-25T09:46:49.128Z</time></trkpt><trkpt lat="46.1461498" lon="9.5283457"><ele>223.5</ele><time>2026-03-25T09:46:50.126Z</time></trkpt><trkpt lat="46.1461935" lon="9.5282652"><ele>223.66666666666669</ele><time>2026-03-25T09:46:51.128Z</time></trkpt><trkpt lat="46.1462361" lon="9.5281733"><ele>223.83333333333334</ele><time>2026-03-25T09:46:52.128Z</time></trkpt><trkpt lat="46.1462754" lon="9.5280809"><ele>224.0</ele><time>2026-03-25T09:46:53.128Z</time></trkpt><trkpt lat="46.1463228" lon="9.5279836"><ele>223.50000000000003</ele><time>2026-03-25T09:46:54.127Z</time></trkpt><trkpt lat="46.1463665" lon="9.5278918"><ele>223.0</ele><time>2026-03-25T09:46:55.128Z</time></trkpt><trkpt lat="46.1464088" lon="9.5278057"><ele>222.5</ele><time>2026-03-25T09:46:56.126Z</time></trkpt><trkpt lat="46.1464509" lon="9.5277107"><ele>222.0</ele><time>2026-03-25T09:46:57.127Z</time></trkpt><trkpt lat="46.146488" lon="9.5276169"><ele>221.50000000000003</ele><time>2026-03-25T09:46:58.127Z</time></trkpt><trkpt lat="46.1465261" lon="9.5275253"><ele>221.0</ele><time>2026-03-25T09:46:59.127Z</time></trkpt><trkpt lat="46.1465829" lon="9.5273485"><ele>221.2857142857143</ele><time>2026-03-25T09:47:01.127Z</time></trkpt><trkpt lat="46.1466163" lon="9.5272693"><ele>221.57142857142858</ele><time>2026-03-25T09:47:02.128Z</time></trkpt><trkpt lat="46.1466515" lon="9.5271806"><ele>221.85714285714286</ele><time>2026-03-25T09:47:03.129Z</time></trkpt><trkpt lat="46.1466847" lon="9.5270929"><ele>222.14285714285717</ele><time>2026-03-25T09:47:04.127Z</time></trkpt><trkpt lat="46.146716" lon="9.5269993"><ele>222.42857142857142</ele><time>2026-03-25T09:47:05.127Z</time></trkpt><trkpt lat="46.1467435" lon="9.5269079"><ele>222.71428571428572</ele><time>2026-03-25T09:47:06.128Z</time></trkpt><trkpt lat="46.1467742" lon="9.5268167"><ele>223.0</ele><time>2026-03-25T09:47:07.127Z</time></trkpt><trkpt lat="46.1468043" lon="9.5267363"><ele>223.0</ele><time>2026-03-25T09:47:08.128Z</time></trkpt><trkpt lat="46.1468343" lon="9.5266551"><ele>223.0</ele><time>2026-03-25T09:47:09.128Z</time></trkpt><trkpt lat="46.1468938" lon="9.5265074"><ele>223.0</ele><time>2026-03-25T09:47:11.126Z</time></trkpt><trkpt lat="46.1469539" lon="9.5263678"><ele>223.0</ele><time>2026-03-25T09:47:13.128Z</time></trkpt><trkpt lat="46.1470288" lon="9.5262417"><ele>223.0</ele><time>2026-03-25T09:47:15.126Z</time></trkpt><trkpt lat="46.1470996" lon="9.5261006"><ele>223.4</ele><time>2026-03-25T09:47:17.126Z</time></trkpt><trkpt lat="46.1471746" lon="9.525964"><ele>223.8</ele><time>2026-03-25T09:47:19.127Z</time></trkpt><trkpt lat="46.147209" lon="9.5258842"><ele>224.2</ele><time>2026-03-25T09:47:20.127Z</time></trkpt><trkpt lat="46.1472755" lon="9.5257361"><ele>224.6</ele><time>2026-03-25T09:47:22.129Z</time></trkpt><trkpt lat="46.1473496" lon="9.5255992"><ele>225.0</ele><time>2026-03-25T09:47:24.127Z</time></trkpt><trkpt lat="46.1474282" lon="9.5254496"><ele>224.75</ele><time>2026-03-25T09:47:26.128Z</time></trkpt><trkpt lat="46.147495" lon="9.5253117"><ele>224.5</ele><time>2026-03-25T09:47:28.126Z</time></trkpt><trkpt lat="46.1475628" lon="9.5251625"><ele>224.25</ele><time>2026-03-25T09:47:30.128Z</time></trkpt><trkpt lat="46.1476342" lon="9.5250251"><ele>224.0</ele><time>2026-03-25T09:47:32.126Z</time></trkpt><trkpt lat="46.1476931" lon="9.5248858"><ele>224.0</ele><time>2026-03-25T09:47:34.128Z</time></trkpt><trkpt lat="46.1477601" lon="9.5247415"><ele>223.99999999999997</ele><time>2026-03-25T09:47:36.127Z</time></trkpt><trkpt lat="46.1478273" lon="9.5246236"><ele>223.99999999999997</ele><time>2026-03-25T09:47:38.128Z</time></trkpt><trkpt lat="46.1478756" lon="9.5245575"><ele>224.0</ele><time>2026-03-25T09:47:39.127Z</time></trkpt><trkpt lat="46.1479377" lon="9.5244204"><ele>224.0</ele><time>2026-03-25T09:47:41.128Z</time></trkpt><trkpt lat="46.147966" lon="9.5243331"><ele>223.85714285714286</ele><time>2026-03-25T09:47:42.127Z</time></trkpt><trkpt lat="46.1479957" lon="9.5242455"><ele>223.71428571428572</ele><time>2026-03-25T09:47:43.129Z</time></trkpt><trkpt lat="46.148036" lon="9.5241639"><ele>223.57142857142856</ele><time>2026-03-25T09:47:44.128Z</time></trkpt><trkpt lat="46.1480793" lon="9.5240829"><ele>223.42857142857144</ele><time>2026-03-25T09:47:45.127Z</time></trkpt><trkpt lat="46.1481195" lon="9.5240085"><ele>223.28571428571428</ele><time>2026-03-25T09:47:46.127Z</time></trkpt><trkpt lat="46.1481564" lon="9.5239283"><ele>223.14285714285714</ele><time>2026-03-25T09:47:47.127Z</time></trkpt><trkpt lat="46.1481935" lon="9.523854"><ele>223.0</ele><time>2026-03-25T09:47:48.126Z</time></trkpt><trkpt lat="46.1482328" lon="9.5237712"><ele>222.85714285714286</ele><time>2026-03-25T09:47:49.126Z</time></trkpt><trkpt lat="46.1482783" lon="9.52369"><ele>222.71428571428572</ele><time>2026-03-25T09:47:50.127Z</time></trkpt><trkpt lat="46.1483199" lon="9.523614"><ele>222.57142857142856</ele><time>2026-03-25T09:47:51.127Z</time></trkpt><trkpt lat="46.1483604" lon="9.5235322"><ele>222.42857142857144</ele><time>2026-03-25T09:47:52.129Z</time></trkpt><trkpt lat="46.1484025" lon="9.5234431"><ele>222.2857142857143</ele><time>2026-03-25T09:47:53.128Z</time></trkpt><trkpt lat="46.148438" lon="9.5233534"><ele>222.14285714285714</ele><time>2026-03-25T09:47:54.126Z</time></trkpt><trkpt lat="46.1484737" lon="9.5232596"><ele>222.0</ele><time>2026-03-25T09:47:55.128Z</time></trkpt><trkpt lat="46.1485086" lon="9.5231801"><ele>222.0</ele><time>2026-03-25T09:47:56.126Z</time></trkpt><trkpt lat="46.1485419" lon="9.523092"><ele>222.0</ele><time>2026-03-25T09:47:57.127Z</time></trkpt><trkpt lat="46.1485765" lon="9.5230035"><ele>222.0</ele><time>2026-03-25T09:47:58.128Z</time></trkpt><trkpt lat="46.1486065" lon="9.5229207"><ele>222.0</ele><time>2026-03-25T09:47:59.128Z</time></trkpt><trkpt lat="46.1486404" lon="9.5228363"><ele>222.0</ele><time>2026-03-25T09:48:00.126Z</time></trkpt><trkpt lat="46.1486767" lon="9.5227556"><ele>222.0</ele><time>2026-03-25T09:48:01.128Z</time></trkpt><trkpt lat="46.1487109" lon="9.5226618"><ele>222.0</ele><time>2026-03-25T09:48:02.127Z</time></trkpt><trkpt lat="46.1487394" lon="9.522577"><ele>221.57142857142856</ele><time>2026-03-25T09:48:03.127Z</time></trkpt><trkpt lat="46.1487682" lon="9.522488"><ele>221.14285714285717</ele><time>2026-03-25T09:48:04.129Z</time></trkpt><trkpt lat="46.1487995" lon="9.5223983"><ele>220.71428571428572</ele><time>2026-03-25T09:48:05.127Z</time></trkpt><trkpt lat="46.1488302" lon="9.5223076"><ele>220.28571428571428</ele><time>2026-03-25T09:48:06.128Z</time></trkpt><trkpt lat="46.148854" lon="9.5222153"><ele>219.85714285714283</ele><time>2026-03-25T09:48:07.128Z</time></trkpt><trkpt lat="46.1488843" lon="9.5221207"><ele>219.42857142857144</ele><time>2026-03-25T09:48:08.126Z</time></trkpt><trkpt lat="46.1489107" lon="9.5220266"><ele>219.0</ele><time>2026-03-25T09:48:09.128Z</time></trkpt><trkpt lat="46.1489441" lon="9.521931"><ele>218.83333333333334</ele><time>2026-03-25T09:48:10.126Z</time></trkpt><trkpt lat="46.1489787" lon="9.5218384"><ele>218.66666666666669</ele><time>2026-03-25T09:48:11.129Z</time></trkpt><trkpt lat="46.1490103" lon="9.5217467"><ele>218.5</ele><time>2026-03-25T09:48:12.127Z</time></trkpt><trkpt lat="46.149046" lon="9.5216551"><ele>218.33333333333334</ele><time>2026-03-25T09:48:13.129Z</time></trkpt><trkpt lat="46.1491071" lon="9.5214903"><ele>218.16666666666669</ele><time>2026-03-25T09:48:15.127Z</time></trkpt><trkpt lat="46.1491366" lon="9.5214032"><ele>218.0</ele><time>2026-03-25T09:48:16.129Z</time></trkpt><trkpt lat="46.149166" lon="9.5213063"><ele>218.16666666666669</ele><time>2026-03-25T09:48:17.127Z</time></trkpt><trkpt lat="46.1492007" lon="9.521207"><ele>218.33333333333334</ele><time>2026-03-25T09:48:18.128Z</time></trkpt><trkpt lat="46.149257" lon="9.5210268"><ele>218.5</ele><time>2026-03-25T09:48:20.129Z</time></trkpt><trkpt lat="46.1492962" lon="9.5209276"><ele>218.66666666666669</ele><time>2026-03-25T09:48:21.129Z</time></trkpt><trkpt lat="46.1493266" lon="9.520833"><ele>218.83333333333334</ele><time>2026-03-25T09:48:22.128Z</time></trkpt><trkpt lat="46.1493583" lon="9.5207425"><ele>219.0</ele><time>2026-03-25T09:48:23.128Z</time></trkpt><trkpt lat="46.1493938" lon="9.5206456"><ele>219.0</ele><time>2026-03-25T09:48:24.127Z</time></trkpt><trkpt lat="46.1494347" lon="9.5205535"><ele>219.0</ele><time>2026-03-25T09:48:25.127Z</time></trkpt><trkpt lat="46.149465" lon="9.5204634"><ele>219.0</ele><time>2026-03-25T09:48:26.129Z</time></trkpt><trkpt lat="46.1494932" lon="9.5203674"><ele>219.0</ele><time>2026-03-25T09:48:27.127Z</time></trkpt><trkpt lat="46.1495234" lon="9.5202725"><ele>219.0</ele><time>2026-03-25T09:48:28.128Z</time></trkpt><trkpt lat="46.149556" lon="9.5201705"><ele>219.0</ele><time>2026-03-25T09:48:29.126Z</time></trkpt><trkpt lat="46.1495908" lon="9.5200716"><ele>219.0</ele><time>2026-03-25T09:48:30.127Z</time></trkpt><trkpt lat="46.1496222" lon="9.5199713"><ele>218.16666666666666</ele><time>2026-03-25T09:48:31.128Z</time></trkpt><trkpt lat="46.1496556" lon="9.5198714"><ele>217.33333333333331</ele><time>2026-03-25T09:48:32.128Z</time></trkpt><trkpt lat="46.1496925" lon="9.5197757"><ele>216.5</ele><time>2026-03-25T09:48:33.128Z</time></trkpt><trkpt lat="46.149726" lon="9.5196763"><ele>215.66666666666666</ele><time>2026-03-25T09:48:34.127Z</time></trkpt><trkpt lat="46.1497604" lon="9.5195757"><ele>214.83333333333331</ele><time>2026-03-25T09:48:35.128Z</time></trkpt><trkpt lat="46.1497893" lon="9.5194789"><ele>214.0</ele><time>2026-03-25T09:48:36.128Z</time></trkpt><trkpt lat="46.1498238" lon="9.5193814"><ele>214.33333333333331</ele><time>2026-03-25T09:48:37.128Z</time></trkpt><trkpt lat="46.1498563" lon="9.519288"><ele>214.66666666666666</ele><time>2026-03-25T09:48:38.127Z</time></trkpt><trkpt lat="46.1498885" lon="9.5191923"><ele>215.0</ele><time>2026-03-25T09:48:39.127Z</time></trkpt><trkpt lat="46.1499223" lon="9.5190973"><ele>215.33333333333331</ele><time>2026-03-25T09:48:40.128Z</time></trkpt><trkpt lat="46.1499555" lon="9.5190135"><ele>215.66666666666666</ele><time>2026-03-25T09:48:41.127Z</time></trkpt><trkpt lat="46.149995" lon="9.5189307"><ele>216.0</ele><time>2026-03-25T09:48:42.127Z</time></trkpt><trkpt lat="46.1500613" lon="9.5187901"><ele>215.33333333333334</ele><time>2026-03-25T09:48:44.127Z</time></trkpt><trkpt lat="46.150098" lon="9.5186426"><ele>214.66666666666669</ele><time>2026-03-25T09:48:46.128Z</time></trkpt><trkpt lat="46.150111" lon="9.5185023"><ele>214.0</ele><time>2026-03-25T09:48:48.127Z</time></trkpt><trkpt lat="46.1500959" lon="9.518391"><ele>213.33333333333334</ele><time>2026-03-25T09:48:50.128Z</time></trkpt><trkpt lat="46.1500401" lon="9.5183235"><ele>212.66666666666669</ele><time>2026-03-25T09:48:53.127Z</time></trkpt><trkpt lat="46.1499635" lon="9.5183936"><ele>212.0</ele><time>2026-03-25T09:48:56.129Z</time></trkpt><trkpt lat="46.1499065" lon="9.5184596"><ele>212.0</ele><time>2026-03-25T09:48:59.127Z</time></trkpt><trkpt lat="46.1498588" lon="9.5183468"><ele>212.0</ele><time>2026-03-25T09:50:51.128Z</time></trkpt><trkpt lat="46.1499257" lon="9.5183317"><ele>212.0</ele><time>2026-03-25T10:02:22.096Z</time></trkpt><trkpt lat="46.1499619" lon="9.5184141"><ele>212.0</ele><time>2026-03-25T10:02:34.129Z</time></trkpt><trkpt lat="46.149919" lon="9.5184823"><ele>212.0</ele><time>2026-03-25T10:02:38.131Z</time></trkpt><trkpt lat="46.1498935" lon="9.5183836"><ele>212.0</ele><time>2026-03-25T10:03:40.129Z</time></trkpt><trkpt lat="46.1499672" lon="9.5183912"><ele>212.0</ele><time>2026-03-25T10:03:41.129Z</time></trkpt><trkpt lat="46.1500464" lon="9.5183614"><ele>212.00000000000003</ele><time>2026-03-25T10:03:45.129Z</time></trkpt><trkpt lat="46.1501202" lon="9.5183697"><ele>212.0</ele><time>2026-03-25T10:03:48.131Z</time></trkpt><trkpt lat="46.1501741" lon="9.5183071"><ele>212.0</ele><time>2026-03-25T10:03:50.13Z</time></trkpt><trkpt lat="46.1502083" lon="9.5181811"><ele>212.0</ele><time>2026-03-25T10:03:52.13Z</time></trkpt><trkpt lat="46.1502498" lon="9.5180701"><ele>212.00000000000003</ele><time>2026-03-25T10:03:54.129Z</time></trkpt><trkpt lat="46.1502897" lon="9.5179372"><ele>212.0</ele><time>2026-03-25T10:03:56.131Z</time></trkpt><trkpt lat="46.1503263" lon="9.5178591"><ele>211.8</ele><time>2026-03-25T10:03:57.131Z</time></trkpt><trkpt lat="46.1503767" lon="9.5177123"><ele>211.6</ele><time>2026-03-25T10:03:59.13Z</time></trkpt><trkpt lat="46.1504325" lon="9.5175489"><ele>211.4</ele><time>2026-03-25T10:04:01.13Z</time></trkpt><trkpt lat="46.1504845" lon="9.5173997"><ele>211.20000000000002</ele><time>2026-03-25T10:04:03.129Z</time></trkpt><trkpt lat="46.1505169" lon="9.5173187"><ele>211.0</ele><time>2026-03-25T10:04:04.131Z</time></trkpt><trkpt lat="46.1505504" lon="9.5172399"><ele>211.0</ele><time>2026-03-25T10:04:05.129Z</time></trkpt><trkpt lat="46.1505773" lon="9.517146"><ele>211.0</ele><time>2026-03-25T10:04:06.13Z</time></trkpt><trkpt lat="46.1506182" lon="9.5169976"><ele>211.0</ele><time>2026-03-25T10:04:08.131Z</time></trkpt><trkpt lat="46.1506515" lon="9.5169098"><ele>211.0</ele><time>2026-03-25T10:04:09.129Z</time></trkpt><trkpt lat="46.1507098" lon="9.5167386"><ele>211.0</ele><time>2026-03-25T10:04:11.129Z</time></trkpt><trkpt lat="46.1507467" lon="9.5165704"><ele>210.99999999999997</ele><time>2026-03-25T10:04:13.13Z</time></trkpt><trkpt lat="46.1507677" lon="9.516477"><ele>211.0</ele><time>2026-03-25T10:04:14.129Z</time></trkpt><trkpt lat="46.15079" lon="9.516379"><ele>211.0</ele><time>2026-03-25T10:04:15.129Z</time></trkpt><trkpt lat="46.150811" lon="9.5162802"><ele>211.0</ele><time>2026-03-25T10:04:16.13Z</time></trkpt><trkpt lat="46.1508501" lon="9.5161113"><ele>210.99999999999997</ele><time>2026-03-25T10:04:18.131Z</time></trkpt><trkpt lat="46.1508682" lon="9.5160082"><ele>211.0</ele><time>2026-03-25T10:04:19.129Z</time></trkpt><trkpt lat="46.1508817" lon="9.5159067"><ele>211.0</ele><time>2026-03-25T10:04:20.131Z</time></trkpt><trkpt lat="46.1508892" lon="9.5158079"><ele>211.0</ele><time>2026-03-25T10:04:21.13Z</time></trkpt><trkpt lat="46.1508972" lon="9.5156924"><ele>211.0</ele><time>2026-03-25T10:04:22.13Z</time></trkpt><trkpt lat="46.1509063" lon="9.5155925"><ele>211.0</ele><time>2026-03-25T10:04:23.13Z</time></trkpt><trkpt lat="46.1509108" lon="9.5154864"><ele>211.0</ele><time>2026-03-25T10:04:24.129Z</time></trkpt><trkpt lat="46.1509217" lon="9.5153862"><ele>211.0</ele><time>2026-03-25T10:04:25.13Z</time></trkpt><trkpt lat="46.150921" lon="9.5152894"><ele>211.0</ele><time>2026-03-25T10:04:26.129Z</time></trkpt><trkpt lat="46.1509284" lon="9.5151905"><ele>210.85714285714286</ele><time>2026-03-25T10:04:27.13Z</time></trkpt><trkpt lat="46.1509367" lon="9.5150866"><ele>210.71428571428572</ele><time>2026-03-25T10:04:28.13Z</time></trkpt><trkpt lat="46.1509422" lon="9.5149775"><ele>210.57142857142856</ele><time>2026-03-25T10:04:29.129Z</time></trkpt><trkpt lat="46.150936" lon="9.5148708"><ele>210.42857142857144</ele><time>2026-03-25T10:04:30.129Z</time></trkpt><trkpt lat="46.1509359" lon="9.5147658"><ele>210.28571428571428</ele><time>2026-03-25T10:04:31.131Z</time></trkpt><trkpt lat="46.1509346" lon="9.5146601"><ele>210.14285714285714</ele><time>2026-03-25T10:04:32.129Z</time></trkpt><trkpt lat="46.150935" lon="9.5145592"><ele>210.0</ele><time>2026-03-25T10:04:33.128Z</time></trkpt><trkpt lat="46.1509392" lon="9.5144443"><ele>210.14285714285714</ele><time>2026-03-25T10:04:34.131Z</time></trkpt><trkpt lat="46.1509443" lon="9.514338"><ele>210.28571428571428</ele><time>2026-03-25T10:04:35.13Z</time></trkpt><trkpt lat="46.1509443" lon="9.5142332"><ele>210.42857142857144</ele><time>2026-03-25T10:04:36.13Z</time></trkpt><trkpt lat="46.1509466" lon="9.5141313"><ele>210.57142857142856</ele><time>2026-03-25T10:04:37.128Z</time></trkpt><trkpt lat="46.150951" lon="9.5140262"><ele>210.71428571428572</ele><time>2026-03-25T10:04:38.13Z</time></trkpt><trkpt lat="46.1509515" lon="9.5139242"><ele>210.85714285714286</ele><time>2026-03-25T10:04:39.129Z</time></trkpt><trkpt lat="46.1509509" lon="9.5138197"><ele>211.0</ele><time>2026-03-25T10:04:40.13Z</time></trkpt><trkpt lat="46.1509793" lon="9.5136438"><ele>211.0</ele><time>2026-03-25T10:04:42.13Z</time></trkpt><trkpt lat="46.1509874" lon="9.5135394"><ele>211.0</ele><time>2026-03-25T10:04:43.131Z</time></trkpt><trkpt lat="46.1509881" lon="9.5134393"><ele>211.0</ele><time>2026-03-25T10:04:44.13Z</time></trkpt><trkpt lat="46.1509909" lon="9.5133409"><ele>211.0</ele><time>2026-03-25T10:04:45.13Z</time></trkpt><trkpt lat="46.1509923" lon="9.5132416"><ele>211.0</ele><time>2026-03-25T10:04:46.129Z</time></trkpt><trkpt lat="46.1509882" lon="9.5131496"><ele>211.0</ele><time>2026-03-25T10:04:47.13Z</time></trkpt><trkpt lat="46.1509874" lon="9.5130508"><ele>211.0</ele><time>2026-03-25T10:04:48.131Z</time></trkpt><trkpt lat="46.1509961" lon="9.5129483"><ele>211.28571428571428</ele><time>2026-03-25T10:04:49.13Z</time></trkpt><trkpt lat="46.1509928" lon="9.5128544"><ele>211.57142857142858</ele><time>2026-03-25T10:04:50.13Z</time></trkpt><trkpt lat="46.15099" lon="9.5127561"><ele>211.85714285714283</ele><time>2026-03-25T10:04:51.13Z</time></trkpt><trkpt lat="46.1509937" lon="9.5126609"><ele>212.14285714285714</ele><time>2026-03-25T10:04:52.13Z</time></trkpt><trkpt lat="46.1509925" lon="9.5125624"><ele>212.42857142857142</ele><time>2026-03-25T10:04:53.13Z</time></trkpt><trkpt lat="46.1509904" lon="9.5124588"><ele>212.7142857142857</ele><time>2026-03-25T10:04:54.13Z</time></trkpt><trkpt lat="46.1509956" lon="9.5123634"><ele>213.0</ele><time>2026-03-25T10:04:55.13Z</time></trkpt><trkpt lat="46.1509951" lon="9.5122608"><ele>212.99999999999997</ele><time>2026-03-25T10:04:56.131Z</time></trkpt><trkpt lat="46.150996" lon="9.5121606"><ele>213.0</ele><time>2026-03-25T10:04:57.13Z</time></trkpt><trkpt lat="46.1509993" lon="9.5120635"><ele>213.0</ele><time>2026-03-25T10:04:58.128Z</time></trkpt><trkpt lat="46.151" lon="9.5119646"><ele>213.0</ele><time>2026-03-25T10:04:59.128Z</time></trkpt><trkpt lat="46.1510068" lon="9.5118552"><ele>213.0</ele><time>2026-03-25T10:05:00.13Z</time></trkpt><trkpt lat="46.1510076" lon="9.511756"><ele>212.99999999999997</ele><time>2026-03-25T10:05:01.13Z</time></trkpt><trkpt lat="46.1510203" lon="9.5116605"><ele>213.0</ele><time>2026-03-25T10:05:02.129Z</time></trkpt><trkpt lat="46.1510273" lon="9.5115607"><ele>212.8</ele><time>2026-03-25T10:05:03.13Z</time></trkpt><trkpt lat="46.1510483" lon="9.5114454"><ele>212.60000000000002</ele><time>2026-03-25T10:05:04.129Z</time></trkpt><trkpt lat="46.1510407" lon="9.5113509"><ele>212.39999999999998</ele><time>2026-03-25T10:05:05.13Z</time></trkpt><trkpt lat="46.1510408" lon="9.5111748"><ele>212.2</ele><time>2026-03-25T10:05:07.131Z</time></trkpt><trkpt lat="46.1510449" lon="9.5110815"><ele>212.0</ele><time>2026-03-25T10:05:08.129Z</time></trkpt><trkpt lat="46.1510568" lon="9.5109067"><ele>211.66666666666669</ele><time>2026-03-25T10:05:10.129Z</time></trkpt><trkpt lat="46.1510582" lon="9.5108093"><ele>211.33333333333334</ele><time>2026-03-25T10:05:11.13Z</time></trkpt><trkpt lat="46.1510556" lon="9.5107127"><ele>211.0</ele><time>2026-03-25T10:05:12.129Z</time></trkpt><trkpt lat="46.1510623" lon="9.5106207"><ele>210.66666666666669</ele><time>2026-03-25T10:05:13.131Z</time></trkpt><trkpt lat="46.1510947" lon="9.5104457"><ele>210.33333333333334</ele><time>2026-03-25T10:05:15.129Z</time></trkpt><trkpt lat="46.1511002" lon="9.5103521"><ele>210.0</ele><time>2026-03-25T10:05:16.13Z</time></trkpt><trkpt lat="46.1511071" lon="9.5102615"><ele>210.0</ele><time>2026-03-25T10:05:17.129Z</time></trkpt><trkpt lat="46.1511233" lon="9.5101662"><ele>210.0</ele><time>2026-03-25T10:05:18.129Z</time></trkpt><trkpt lat="46.1511358" lon="9.5100642"><ele>210.0</ele><time>2026-03-25T10:05:19.129Z</time></trkpt><trkpt lat="46.1511463" lon="9.5099709"><ele>210.0</ele><time>2026-03-25T10:05:20.131Z</time></trkpt><trkpt lat="46.1511824" lon="9.5097979"><ele>210.0</ele><time>2026-03-25T10:05:22.13Z</time></trkpt><trkpt lat="46.1511986" lon="9.5096341"><ele>210.0</ele><time>2026-03-25T10:05:24.131Z</time></trkpt><trkpt lat="46.1512093" lon="9.5094727"><ele>209.8</ele><time>2026-03-25T10:05:26.13Z</time></trkpt><trkpt lat="46.1512019" lon="9.5093797"><ele>209.6</ele><time>2026-03-25T10:05:27.129Z</time></trkpt><trkpt lat="46.1512061" lon="9.5091911"><ele>209.39999999999998</ele><time>2026-03-25T10:05:29.13Z</time></trkpt><trkpt lat="46.1512024" lon="9.509024"><ele>209.2</ele><time>2026-03-25T10:05:31.129Z</time></trkpt><trkpt lat="46.1512066" lon="9.5088563"><ele>209.0</ele><time>2026-03-25T10:05:33.13Z</time></trkpt><trkpt lat="46.1511874" lon="9.5087066"><ele>209.6</ele><time>2026-03-25T10:05:35.13Z</time></trkpt><trkpt lat="46.151156" lon="9.5085586"><ele>210.2</ele><time>2026-03-25T10:05:37.13Z</time></trkpt><trkpt lat="46.1511299" lon="9.5084009"><ele>210.79999999999998</ele><time>2026-03-25T10:05:39.129Z</time></trkpt><trkpt lat="46.1511008" lon="9.5082386"><ele>211.39999999999998</ele><time>2026-03-25T10:05:41.129Z</time></trkpt><trkpt lat="46.1510529" lon="9.508096"><ele>212.0</ele><time>2026-03-25T10:05:43.129Z</time></trkpt><trkpt lat="46.1510088" lon="9.5079474"><ele>212.39999999999998</ele><time>2026-03-25T10:05:45.129Z</time></trkpt><trkpt lat="46.1509874" lon="9.5078529"><ele>212.79999999999998</ele><time>2026-03-25T10:05:46.13Z</time></trkpt><trkpt lat="46.1509631" lon="9.5077689"><ele>213.2</ele><time>2026-03-25T10:05:47.13Z</time></trkpt><trkpt lat="46.1509205" lon="9.5076141"><ele>213.6</ele><time>2026-03-25T10:05:49.13Z</time></trkpt><trkpt lat="46.1508794" lon="9.5074663"><ele>214.0</ele><time>2026-03-25T10:05:51.13Z</time></trkpt><trkpt lat="46.1508037" lon="9.507257"><ele>214.0</ele><time>2026-03-25T10:05:54.129Z</time></trkpt><trkpt lat="46.1507589" lon="9.5071132"><ele>213.99999999999997</ele><time>2026-03-25T10:05:56.13Z</time></trkpt><trkpt lat="46.1507193" lon="9.5069704"><ele>213.99999999999997</ele><time>2026-03-25T10:05:58.131Z</time></trkpt><trkpt lat="46.15068" lon="9.5068223"><ele>214.0</ele><time>2026-03-25T10:06:00.129Z</time></trkpt><trkpt lat="46.1506296" lon="9.5066782"><ele>214.0</ele><time>2026-03-25T10:06:02.129Z</time></trkpt><trkpt lat="46.1505875" lon="9.5065272"><ele>213.2</ele><time>2026-03-25T10:06:04.13Z</time></trkpt><trkpt lat="46.1505545" lon="9.5063939"><ele>212.39999999999998</ele><time>2026-03-25T10:06:06.13Z</time></trkpt><trkpt lat="46.1505347" lon="9.5062582"><ele>211.6</ele><time>2026-03-25T10:06:08.13Z</time></trkpt><trkpt lat="46.1504943" lon="9.5061056"><ele>210.8</ele><time>2026-03-25T10:06:10.129Z</time></trkpt><trkpt lat="46.1504475" lon="9.5059549"><ele>210.0</ele><time>2026-03-25T10:06:12.129Z</time></trkpt><trkpt lat="46.1504102" lon="9.5058067"><ele>210.0</ele><time>2026-03-25T10:06:14.13Z</time></trkpt><trkpt lat="46.1503667" lon="9.5056519"><ele>210.0</ele><time>2026-03-25T10:06:16.131Z</time></trkpt><trkpt lat="46.1503312" lon="9.5054904"><ele>210.0</ele><time>2026-03-25T10:06:18.13Z</time></trkpt><trkpt lat="46.1503035" lon="9.5053368"><ele>210.0</ele><time>2026-03-25T10:06:20.13Z</time></trkpt><trkpt lat="46.1502783" lon="9.5051702"><ele>210.5</ele><time>2026-03-25T10:06:22.129Z</time></trkpt><trkpt lat="46.150252" lon="9.505012"><ele>211.0</ele><time>2026-03-25T10:06:24.13Z</time></trkpt><trkpt lat="46.1502286" lon="9.5048416"><ele>211.5</ele><time>2026-03-25T10:06:26.129Z</time></trkpt><trkpt lat="46.1502192" lon="9.504683"><ele>212.0</ele><time>2026-03-25T10:06:28.129Z</time></trkpt><trkpt lat="46.1502076" lon="9.5045131"><ele>212.25</ele><time>2026-03-25T10:06:30.131Z</time></trkpt><trkpt lat="46.1501773" lon="9.5043503"><ele>212.5</ele><time>2026-03-25T10:06:32.129Z</time></trkpt><trkpt lat="46.1501737" lon="9.5041825"><ele>212.75</ele><time>2026-03-25T10:06:34.13Z</time></trkpt><trkpt lat="46.1501711" lon="9.5040101"><ele>213.0</ele><time>2026-03-25T10:06:36.129Z</time></trkpt><trkpt lat="46.1501695" lon="9.5038463"><ele>212.8</ele><time>2026-03-25T10:06:38.129Z</time></trkpt><trkpt lat="46.1501821" lon="9.5037075"><ele>212.60000000000002</ele><time>2026-03-25T10:06:40.787Z</time></trkpt><trkpt lat="46.1502053" lon="9.5035693"><ele>212.39999999999998</ele><time>2026-03-25T10:06:42.13Z</time></trkpt><trkpt lat="46.1502097" lon="9.5034008"><ele>212.2</ele><time>2026-03-25T10:06:44.131Z</time></trkpt><trkpt lat="46.1502161" lon="9.503226"><ele>212.0</ele><time>2026-03-25T10:06:46.13Z</time></trkpt><trkpt lat="46.1502291" lon="9.503056"><ele>211.6</ele><time>2026-03-25T10:06:48.13Z</time></trkpt><trkpt lat="46.1502386" lon="9.5028987"><ele>211.2</ele><time>2026-03-25T10:06:50.129Z</time></trkpt><trkpt lat="46.1502568" lon="9.502734"><ele>210.8</ele><time>2026-03-25T10:06:52.129Z</time></trkpt><trkpt lat="46.1502787" lon="9.5026292"><ele>210.4</ele><time>2026-03-25T10:06:53.13Z</time></trkpt><trkpt lat="46.1502928" lon="9.5024673"><ele>210.0</ele><time>2026-03-25T10:06:55.13Z</time></trkpt><trkpt lat="46.1503177" lon="9.5023118"><ele>210.0</ele><time>2026-03-25T10:06:57.13Z</time></trkpt><trkpt lat="46.1503611" lon="9.5021553"><ele>210.0</ele><time>2026-03-25T10:06:59.131Z</time></trkpt><trkpt lat="46.150393" lon="9.5019994"><ele>210.0</ele><time>2026-03-25T10:07:01.13Z</time></trkpt><trkpt lat="46.1504416" lon="9.501831"><ele>210.0</ele><time>2026-03-25T10:07:03.13Z</time></trkpt><trkpt lat="46.1504919" lon="9.5016759"><ele>209.8</ele><time>2026-03-25T10:07:05.13Z</time></trkpt><trkpt lat="46.1505386" lon="9.5015911"><ele>209.6</ele><time>2026-03-25T10:07:06.131Z</time></trkpt><trkpt lat="46.1505889" lon="9.5014401"><ele>209.39999999999998</ele><time>2026-03-25T10:07:08.13Z</time></trkpt><trkpt lat="46.1506464" lon="9.5012863"><ele>209.2</ele><time>2026-03-25T10:07:10.131Z</time></trkpt><trkpt lat="46.1506822" lon="9.5012072"><ele>209.0</ele><time>2026-03-25T10:07:11.13Z</time></trkpt><trkpt lat="46.1507132" lon="9.5011115"><ele>209.42857142857142</ele><time>2026-03-25T10:07:12.131Z</time></trkpt><trkpt lat="46.1507463" lon="9.501034"><ele>209.85714285714283</ele><time>2026-03-25T10:07:13.13Z</time></trkpt><trkpt lat="46.1507761" lon="9.500945"><ele>210.28571428571428</ele><time>2026-03-25T10:07:14.131Z</time></trkpt><trkpt lat="46.1507985" lon="9.5008553"><ele>210.71428571428572</ele><time>2026-03-25T10:07:15.13Z</time></trkpt><trkpt lat="46.1508298" lon="9.5007707"><ele>211.14285714285714</ele><time>2026-03-25T10:07:16.13Z</time></trkpt><trkpt lat="46.1508607" lon="9.5006646"><ele>211.57142857142858</ele><time>2026-03-25T10:07:17.13Z</time></trkpt><trkpt lat="46.1508925" lon="9.5005701"><ele>212.0</ele><time>2026-03-25T10:07:18.129Z</time></trkpt><trkpt lat="46.1509481" lon="9.5004048"><ele>212.00000000000003</ele><time>2026-03-25T10:07:20.129Z</time></trkpt><trkpt lat="46.1509799" lon="9.5003201"><ele>212.0</ele><time>2026-03-25T10:07:21.131Z</time></trkpt><trkpt lat="46.151011" lon="9.5002269"><ele>212.0</ele><time>2026-03-25T10:07:22.13Z</time></trkpt><trkpt lat="46.1510644" lon="9.5000725"><ele>212.0</ele><time>2026-03-25T10:07:24.129Z</time></trkpt><trkpt lat="46.1510947" lon="9.4999875"><ele>212.00000000000003</ele><time>2026-03-25T10:07:25.129Z</time></trkpt><trkpt lat="46.1511257" lon="9.4999046"><ele>212.0</ele><time>2026-03-25T10:07:26.129Z</time></trkpt><trkpt lat="46.1511617" lon="9.499814"><ele>212.0</ele><time>2026-03-25T10:07:27.13Z</time></trkpt><trkpt lat="46.1511978" lon="9.4997321"><ele>212.0</ele><time>2026-03-25T10:07:28.13Z</time></trkpt><trkpt lat="46.1512351" lon="9.4996545"><ele>212.0</ele><time>2026-03-25T10:07:29.131Z</time></trkpt><trkpt lat="46.1512665" lon="9.499564"><ele>212.0</ele><time>2026-03-25T10:07:30.131Z</time></trkpt><trkpt lat="46.1512981" lon="9.4994726"><ele>212.0</ele><time>2026-03-25T10:07:31.13Z</time></trkpt><trkpt lat="46.1513293" lon="9.4993829"><ele>212.0</ele><time>2026-03-25T10:07:32.13Z</time></trkpt><trkpt lat="46.1513635" lon="9.4993039"><ele>212.0</ele><time>2026-03-25T10:07:33.13Z</time></trkpt><trkpt lat="46.1513992" lon="9.4992114"><ele>211.83333333333334</ele><time>2026-03-25T10:07:34.13Z</time></trkpt><trkpt lat="46.1514252" lon="9.4991193"><ele>211.66666666666669</ele><time>2026-03-25T10:07:35.13Z</time></trkpt><trkpt lat="46.1514644" lon="9.4990068"><ele>211.5</ele><time>2026-03-25T10:07:36.13Z</time></trkpt><trkpt lat="46.1514998" lon="9.498909"><ele>211.33333333333331</ele><time>2026-03-25T10:07:37.131Z</time></trkpt><trkpt lat="46.1515384" lon="9.4988049"><ele>211.16666666666666</ele><time>2026-03-25T10:07:38.13Z</time></trkpt><trkpt lat="46.151569" lon="9.4987121"><ele>211.0</ele><time>2026-03-25T10:07:39.131Z</time></trkpt><trkpt lat="46.1515956" lon="9.4986205"><ele>210.83333333333331</ele><time>2026-03-25T10:07:40.13Z</time></trkpt><trkpt lat="46.1516543" lon="9.4984633"><ele>210.66666666666666</ele><time>2026-03-25T10:07:42.13Z</time></trkpt><trkpt lat="46.1516856" lon="9.4983736"><ele>210.5</ele><time>2026-03-25T10:07:43.13Z</time></trkpt><trkpt lat="46.1517168" lon="9.4982909"><ele>210.33333333333331</ele><time>2026-03-25T10:07:44.13Z</time></trkpt><trkpt lat="46.1517483" lon="9.4982097"><ele>210.16666666666666</ele><time>2026-03-25T10:07:45.13Z</time></trkpt><trkpt lat="46.1517807" lon="9.4981264"><ele>210.0</ele><time>2026-03-25T10:07:46.131Z</time></trkpt><trkpt lat="46.1518125" lon="9.4980428"><ele>210.0</ele><time>2026-03-25T10:07:47.131Z</time></trkpt><trkpt lat="46.1518489" lon="9.4979565"><ele>210.0</ele><time>2026-03-25T10:07:48.13Z</time></trkpt><trkpt lat="46.1519016" lon="9.4977952"><ele>210.0</ele><time>2026-03-25T10:07:50.13Z</time></trkpt><trkpt lat="46.151951" lon="9.4976459"><ele>210.0</ele><time>2026-03-25T10:07:52.129Z</time></trkpt><trkpt lat="46.1519802" lon="9.4975578"><ele>210.0</ele><time>2026-03-25T10:07:53.129Z</time></trkpt><trkpt lat="46.1520394" lon="9.4973909"><ele>209.57142857142858</ele><time>2026-03-25T10:07:55.13Z</time></trkpt><trkpt lat="46.1520701" lon="9.4972924"><ele>209.14285714285714</ele><time>2026-03-25T10:07:56.13Z</time></trkpt><trkpt lat="46.1521005" lon="9.4972091"><ele>208.71428571428572</ele><time>2026-03-25T10:07:57.13Z</time></trkpt><trkpt lat="46.1521303" lon="9.4971277"><ele>208.28571428571428</ele><time>2026-03-25T10:07:58.13Z</time></trkpt><trkpt lat="46.1521664" lon="9.4970461"><ele>207.85714285714286</ele><time>2026-03-25T10:07:59.13Z</time></trkpt><trkpt lat="46.152196" lon="9.4969651"><ele>207.42857142857144</ele><time>2026-03-25T10:08:00.13Z</time></trkpt><trkpt lat="46.1522435" lon="9.4968263"><ele>207.0</ele><time>2026-03-25T10:08:02.13Z</time></trkpt><trkpt lat="46.1522911" lon="9.4966637"><ele>207.0</ele><time>2026-03-25T10:08:04.132Z</time></trkpt><trkpt lat="46.1523544" lon="9.4965057"><ele>207.0</ele><time>2026-03-25T10:08:06.131Z</time></trkpt><trkpt lat="46.152402" lon="9.4963472"><ele>207.0</ele><time>2026-03-25T10:08:08.13Z</time></trkpt><trkpt lat="46.1524236" lon="9.4962534"><ele>207.0</ele><time>2026-03-25T10:08:09.13Z</time></trkpt><trkpt lat="46.1524609" lon="9.4961725"><ele>207.0</ele><time>2026-03-25T10:08:10.13Z</time></trkpt><trkpt lat="46.1524839" lon="9.4960402"><ele>207.0</ele><time>2026-03-25T10:08:12.131Z</time></trkpt><trkpt lat="46.1525176" lon="9.4958696"><ele>207.0</ele><time>2026-03-25T10:08:14.13Z</time></trkpt><trkpt lat="46.1525508" lon="9.4956949"><ele>207.0</ele><time>2026-03-25T10:08:16.13Z</time></trkpt><trkpt lat="46.1525694" lon="9.4955302"><ele>207.0</ele><time>2026-03-25T10:08:18.129Z</time></trkpt><trkpt lat="46.1525746" lon="9.4954297"><ele>207.0</ele><time>2026-03-25T10:08:19.13Z</time></trkpt><trkpt lat="46.1525834" lon="9.4952463"><ele>207.0</ele><time>2026-03-25T10:08:21.131Z</time></trkpt><trkpt lat="46.1525678" lon="9.4950641"><ele>207.0</ele><time>2026-03-25T10:08:23.131Z</time></trkpt><trkpt lat="46.1525572" lon="9.494971"><ele>207.0</ele><time>2026-03-25T10:08:24.13Z</time></trkpt><trkpt lat="46.1525323" lon="9.4947854"><ele>207.0</ele><time>2026-03-25T10:08:26.132Z</time></trkpt><trkpt lat="46.1525209" lon="9.4946875"><ele>207.0</ele><time>2026-03-25T10:08:27.129Z</time></trkpt><trkpt lat="46.1525108" lon="9.4945946"><ele>207.33333333333334</ele><time>2026-03-25T10:08:28.13Z</time></trkpt><trkpt lat="46.152489" lon="9.4944975"><ele>207.66666666666669</ele><time>2026-03-25T10:08:29.13Z</time></trkpt><trkpt lat="46.1524767" lon="9.4944045"><ele>208.0</ele><time>2026-03-25T10:08:30.131Z</time></trkpt><trkpt lat="46.1524633" lon="9.4943117"><ele>208.33333333333334</ele><time>2026-03-25T10:08:31.13Z</time></trkpt><trkpt lat="46.1524462" lon="9.4942228"><ele>208.66666666666669</ele><time>2026-03-25T10:08:32.131Z</time></trkpt><trkpt lat="46.1524307" lon="9.4941211"><ele>209.0</ele><time>2026-03-25T10:08:33.131Z</time></trkpt><trkpt lat="46.1523988" lon="9.4939527"><ele>209.0</ele><time>2026-03-25T10:08:35.129Z</time></trkpt><trkpt lat="46.1523891" lon="9.4938565"><ele>209.0</ele><time>2026-03-25T10:08:36.13Z</time></trkpt><trkpt lat="46.1523553" lon="9.4936859"><ele>209.0</ele><time>2026-03-25T10:08:38.13Z</time></trkpt><trkpt lat="46.1523456" lon="9.4935274"><ele>209.0</ele><time>2026-03-25T10:08:40.13Z</time></trkpt><trkpt lat="46.1523188" lon="9.4933753"><ele>209.0</ele><time>2026-03-25T10:08:42.13Z</time></trkpt><trkpt lat="46.1522902" lon="9.4931945"><ele>208.33333333333334</ele><time>2026-03-25T10:08:44.129Z</time></trkpt><trkpt lat="46.1522907" lon="9.4930962"><ele>207.66666666666669</ele><time>2026-03-25T10:08:45.129Z</time></trkpt><trkpt lat="46.1522809" lon="9.4929996"><ele>207.0</ele><time>2026-03-25T10:08:46.13Z</time></trkpt><trkpt lat="46.1522636" lon="9.492813"><ele>206.33333333333331</ele><time>2026-03-25T10:08:48.13Z</time></trkpt><trkpt lat="46.1522406" lon="9.4926516"><ele>205.66666666666666</ele><time>2026-03-25T10:08:50.129Z</time></trkpt><trkpt lat="46.152231" lon="9.4925582"><ele>205.0</ele><time>2026-03-25T10:08:51.13Z</time></trkpt><trkpt lat="46.152224" lon="9.4924634"><ele>205.0</ele><time>2026-03-25T10:08:52.13Z</time></trkpt><trkpt lat="46.1522021" lon="9.4923667"><ele>205.0</ele><time>2026-03-25T10:08:53.13Z</time></trkpt><trkpt lat="46.1521844" lon="9.4921905"><ele>205.0</ele><time>2026-03-25T10:08:55.131Z</time></trkpt><trkpt lat="46.1521566" lon="9.4920101"><ele>205.0</ele><time>2026-03-25T10:08:57.131Z</time></trkpt><trkpt lat="46.152147" lon="9.4919164"><ele>205.0</ele><time>2026-03-25T10:08:58.129Z</time></trkpt><trkpt lat="46.1521282" lon="9.49174"><ele>205.0</ele><time>2026-03-25T10:09:00.13Z</time></trkpt><trkpt lat="46.1521001" lon="9.4915803"><ele>205.0</ele><time>2026-03-25T10:09:02.13Z</time></trkpt><trkpt lat="46.152069" lon="9.4914049"><ele>205.0</ele><time>2026-03-25T10:09:04.129Z</time></trkpt><trkpt lat="46.1520334" lon="9.4912398"><ele>205.0</ele><time>2026-03-25T10:09:06.129Z</time></trkpt><trkpt lat="46.1520065" lon="9.4910711"><ele>204.8</ele><time>2026-03-25T10:09:08.13Z</time></trkpt><trkpt lat="46.1519841" lon="9.4909074"><ele>204.6</ele><time>2026-03-25T10:09:10.13Z</time></trkpt><trkpt lat="46.1519635" lon="9.4907386"><ele>204.39999999999998</ele><time>2026-03-25T10:09:12.129Z</time></trkpt><trkpt lat="46.1519508" lon="9.4905568"><ele>204.2</ele><time>2026-03-25T10:09:14.129Z</time></trkpt><trkpt lat="46.1519411" lon="9.4904631"><ele>204.0</ele><time>2026-03-25T10:09:15.13Z</time></trkpt><trkpt lat="46.1519275" lon="9.4903729"><ele>204.57142857142858</ele><time>2026-03-25T10:09:16.13Z</time></trkpt><trkpt lat="46.1519001" lon="9.4902876"><ele>205.14285714285717</ele><time>2026-03-25T10:09:17.131Z</time></trkpt><trkpt lat="46.1518802" lon="9.4901872"><ele>205.71428571428572</ele><time>2026-03-25T10:09:18.131Z</time></trkpt><trkpt lat="46.1518646" lon="9.4900945"><ele>206.28571428571428</ele><time>2026-03-25T10:09:19.132Z</time></trkpt><trkpt lat="46.1518452" lon="9.4900062"><ele>206.85714285714286</ele><time>2026-03-25T10:09:20.13Z</time></trkpt><trkpt lat="46.1518375" lon="9.4899153"><ele>207.42857142857142</ele><time>2026-03-25T10:09:21.131Z</time></trkpt><trkpt lat="46.151824" lon="9.4898228"><ele>208.0</ele><time>2026-03-25T10:09:22.131Z</time></trkpt><trkpt lat="46.1518016" lon="9.4896445"><ele>208.33333333333331</ele><time>2026-03-25T10:09:24.13Z</time></trkpt><trkpt lat="46.151782" lon="9.489552"><ele>208.66666666666666</ele><time>2026-03-25T10:09:25.13Z</time></trkpt><trkpt lat="46.1517615" lon="9.4894565"><ele>209.0</ele><time>2026-03-25T10:09:26.131Z</time></trkpt><trkpt lat="46.1517471" lon="9.4893557"><ele>209.33333333333331</ele><time>2026-03-25T10:09:27.13Z</time></trkpt><trkpt lat="46.1517315" lon="9.4892592"><ele>209.66666666666666</ele><time>2026-03-25T10:09:28.129Z</time></trkpt><trkpt lat="46.1517198" lon="9.4891635"><ele>210.0</ele><time>2026-03-25T10:09:29.13Z</time></trkpt><trkpt lat="46.1516855" lon="9.4890144"><ele>210.0</ele><time>2026-03-25T10:09:31.131Z</time></trkpt><trkpt lat="46.1516736" lon="9.4889187"><ele>210.0</ele><time>2026-03-25T10:09:32.13Z</time></trkpt><trkpt lat="46.1516597" lon="9.488829"><ele>210.0</ele><time>2026-03-25T10:09:33.131Z</time></trkpt><trkpt lat="46.1516417" lon="9.4887311"><ele>210.0</ele><time>2026-03-25T10:09:34.13Z</time></trkpt><trkpt lat="46.1516319" lon="9.4886313"><ele>210.0</ele><time>2026-03-25T10:09:35.13Z</time></trkpt><trkpt lat="46.1516126" lon="9.4885413"><ele>210.0</ele><time>2026-03-25T10:09:36.131Z</time></trkpt><trkpt lat="46.1515772" lon="9.4883742"><ele>210.0</ele><time>2026-03-25T10:09:38.129Z</time></trkpt><trkpt lat="46.1515625" lon="9.488204"><ele>210.0</ele><time>2026-03-25T10:09:40.131Z</time></trkpt><trkpt lat="46.1515414" lon="9.4880276"><ele>210.0</ele><time>2026-03-25T10:09:42.131Z</time></trkpt><trkpt lat="46.1515359" lon="9.4878985"><ele>210.0</ele><time>2026-03-25T10:09:44.131Z</time></trkpt><trkpt lat="46.1515075" lon="9.4877477"><ele>210.0</ele><time>2026-03-25T10:09:46.131Z</time></trkpt><trkpt lat="46.1514929" lon="9.4875929"><ele>209.16666666666666</ele><time>2026-03-25T10:09:48.13Z</time></trkpt><trkpt lat="46.1514842" lon="9.4874996"><ele>208.33333333333331</ele><time>2026-03-25T10:09:49.13Z</time></trkpt><trkpt lat="46.1514713" lon="9.4873983"><ele>207.5</ele><time>2026-03-25T10:09:50.129Z</time></trkpt><trkpt lat="46.1514594" lon="9.4873004"><ele>206.66666666666666</ele><time>2026-03-25T10:09:51.131Z</time></trkpt><trkpt lat="46.1514622" lon="9.4872053"><ele>205.83333333333331</ele><time>2026-03-25T10:09:52.131Z</time></trkpt><trkpt lat="46.1514486" lon="9.4870468"><ele>205.0</ele><time>2026-03-25T10:09:54.131Z</time></trkpt><trkpt lat="46.151437" lon="9.4868886"><ele>205.0</ele><time>2026-03-25T10:09:56.13Z</time></trkpt><trkpt lat="46.1514524" lon="9.4867387"><ele>205.0</ele><time>2026-03-25T10:09:58.131Z</time></trkpt><trkpt lat="46.151486" lon="9.4865813"><ele>205.0</ele><time>2026-03-25T10:10:00.13Z</time></trkpt><trkpt lat="46.151479" lon="9.4864233"><ele>205.0</ele><time>2026-03-25T10:10:02.131Z</time></trkpt><trkpt lat="46.1514778" lon="9.4862656"><ele>205.0</ele><time>2026-03-25T10:10:04.13Z</time></trkpt><trkpt lat="46.1515047" lon="9.4861201"><ele>205.0</ele><time>2026-03-25T10:10:06.129Z</time></trkpt><trkpt lat="46.1515484" lon="9.4860011"><ele>205.0</ele><time>2026-03-25T10:10:08.13Z</time></trkpt><trkpt lat="46.1515598" lon="9.4858673"><ele>205.0</ele><time>2026-03-25T10:10:10.131Z</time></trkpt><trkpt lat="46.1515051" lon="9.4857737"><ele>205.0</ele><time>2026-03-25T10:10:12.131Z</time></trkpt><trkpt lat="46.1514171" lon="9.4857532"><ele>205.0</ele><time>2026-03-25T10:10:14.131Z</time></trkpt><trkpt lat="46.1513463" lon="9.4858385"><ele>205.0</ele><time>2026-03-25T10:10:16.131Z</time></trkpt><trkpt lat="46.1512922" lon="9.4859682"><ele>205.0</ele><time>2026-03-25T10:10:18.13Z</time></trkpt><trkpt lat="46.1512285" lon="9.4860569"><ele>205.0</ele><time>2026-03-25T10:10:20.129Z</time></trkpt><trkpt lat="46.1511526" lon="9.4861279"><ele>205.0</ele><time>2026-03-25T10:10:22.13Z</time></trkpt><trkpt lat="46.1510499" lon="9.4861566"><ele>205.0</ele><time>2026-03-25T10:10:24.131Z</time></trkpt><trkpt lat="46.15095" lon="9.4861675"><ele>205.0</ele><time>2026-03-25T10:10:26.131Z</time></trkpt><trkpt lat="46.1508455" lon="9.4861702"><ele>205.0</ele><time>2026-03-25T10:10:28.131Z</time></trkpt><trkpt lat="46.1507463" lon="9.4861658"><ele>205.0</ele><time>2026-03-25T10:10:30.131Z</time></trkpt><trkpt lat="46.1506325" lon="9.4861613"><ele>205.0</ele><time>2026-03-25T10:10:32.13Z</time></trkpt><trkpt lat="46.1505218" lon="9.4861648"><ele>205.0</ele><time>2026-03-25T10:10:34.132Z</time></trkpt><trkpt lat="46.150422" lon="9.4861596"><ele>205.4</ele><time>2026-03-25T10:10:36.13Z</time></trkpt><trkpt lat="46.1503201" lon="9.4861506"><ele>205.8</ele><time>2026-03-25T10:10:38.132Z</time></trkpt><trkpt lat="46.150218" lon="9.4860984"><ele>206.2</ele><time>2026-03-25T10:10:40.129Z</time></trkpt><trkpt lat="46.1501399" lon="9.4859815"><ele>206.6</ele><time>2026-03-25T10:10:42.13Z</time></trkpt><trkpt lat="46.1501063" lon="9.4859034"><ele>207.0</ele><time>2026-03-25T10:10:43.13Z</time></trkpt><trkpt lat="46.1500737" lon="9.4858246"><ele>207.0</ele><time>2026-03-25T10:10:44.129Z</time></trkpt><trkpt lat="46.1500485" lon="9.4857394"><ele>207.0</ele><time>2026-03-25T10:10:45.132Z</time></trkpt><trkpt lat="46.1500286" lon="9.485651"><ele>207.0</ele><time>2026-03-25T10:10:46.131Z</time></trkpt><trkpt lat="46.1500055" lon="9.4855646"><ele>207.0</ele><time>2026-03-25T10:10:47.131Z</time></trkpt><trkpt lat="46.149963" lon="9.4853894"><ele>207.0</ele><time>2026-03-25T10:10:49.132Z</time></trkpt><trkpt lat="46.1499423" lon="9.4852992"><ele>207.0</ele><time>2026-03-25T10:10:50.131Z</time></trkpt><trkpt lat="46.149927" lon="9.4852047"><ele>207.0</ele><time>2026-03-25T10:10:51.13Z</time></trkpt><trkpt lat="46.1499134" lon="9.4850403"><ele>207.0</ele><time>2026-03-25T10:10:53.131Z</time></trkpt><trkpt lat="46.1498903" lon="9.4849481"><ele>207.0</ele><time>2026-03-25T10:10:54.129Z</time></trkpt><trkpt lat="46.1498706" lon="9.4848514"><ele>207.0</ele><time>2026-03-25T10:10:55.129Z</time></trkpt><trkpt lat="46.1498514" lon="9.4847613"><ele>207.0</ele><time>2026-03-25T10:10:56.129Z</time></trkpt><trkpt lat="46.1498299" lon="9.4846633"><ele>207.0</ele><time>2026-03-25T10:10:57.131Z</time></trkpt><trkpt lat="46.1498028" lon="9.4845735"><ele>207.16666666666666</ele><time>2026-03-25T10:10:58.132Z</time></trkpt><trkpt lat="46.149778" lon="9.4844851"><ele>207.33333333333331</ele><time>2026-03-25T10:10:59.129Z</time></trkpt><trkpt lat="46.1497608" lon="9.4843887"><ele>207.5</ele><time>2026-03-25T10:11:00.129Z</time></trkpt><trkpt lat="46.1497364" lon="9.4842997"><ele>207.66666666666666</ele><time>2026-03-25T10:11:01.131Z</time></trkpt><trkpt lat="46.1497119" lon="9.4842133"><ele>207.83333333333331</ele><time>2026-03-25T10:11:02.131Z</time></trkpt><trkpt lat="46.1496776" lon="9.4840456"><ele>208.0</ele><time>2026-03-25T10:11:04.131Z</time></trkpt><trkpt lat="46.1496641" lon="9.4839557"><ele>208.0</ele><time>2026-03-25T10:11:05.13Z</time></trkpt><trkpt lat="46.14965" lon="9.4838642"><ele>208.0</ele><time>2026-03-25T10:11:06.129Z</time></trkpt><trkpt lat="46.1496271" lon="9.4837716"><ele>208.0</ele><time>2026-03-25T10:11:07.131Z</time></trkpt><trkpt lat="46.1496092" lon="9.4836712"><ele>208.0</ele><time>2026-03-25T10:11:08.131Z</time></trkpt><trkpt lat="46.1495863" lon="9.4835776"><ele>208.0</ele><time>2026-03-25T10:11:09.131Z</time></trkpt><trkpt lat="46.1495642" lon="9.4834849"><ele>208.0</ele><time>2026-03-25T10:11:10.129Z</time></trkpt><trkpt lat="46.1495442" lon="9.483392"><ele>208.0</ele><time>2026-03-25T10:11:11.129Z</time></trkpt><trkpt lat="46.1495211" lon="9.4833014"><ele>208.16666666666666</ele><time>2026-03-25T10:11:12.131Z</time></trkpt><trkpt lat="46.1495018" lon="9.483209"><ele>208.33333333333331</ele><time>2026-03-25T10:11:13.13Z</time></trkpt><trkpt lat="46.1494798" lon="9.4831208"><ele>208.5</ele><time>2026-03-25T10:11:14.131Z</time></trkpt><trkpt lat="46.149443" lon="9.4829517"><ele>208.66666666666669</ele><time>2026-03-25T10:11:16.131Z</time></trkpt><trkpt lat="46.1494244" lon="9.4828622"><ele>208.83333333333334</ele><time>2026-03-25T10:11:17.13Z</time></trkpt><trkpt lat="46.1494015" lon="9.4827688"><ele>209.0</ele><time>2026-03-25T10:11:18.131Z</time></trkpt><trkpt lat="46.1493613" lon="9.4826113"><ele>208.6</ele><time>2026-03-25T10:11:20.129Z</time></trkpt><trkpt lat="46.1493288" lon="9.4824622"><ele>208.2</ele><time>2026-03-25T10:11:22.13Z</time></trkpt><trkpt lat="46.1492952" lon="9.4823275"><ele>207.79999999999998</ele><time>2026-03-25T10:11:24.13Z</time></trkpt><trkpt lat="46.1492637" lon="9.4821779"><ele>207.39999999999998</ele><time>2026-03-25T10:11:26.131Z</time></trkpt><trkpt lat="46.1492368" lon="9.4820365"><ele>207.0</ele><time>2026-03-25T10:11:28.13Z</time></trkpt><trkpt lat="46.1492032" lon="9.481916"><ele>207.0</ele><time>2026-03-25T10:11:30.131Z</time></trkpt><trkpt lat="46.1491803" lon="9.4818014"><ele>207.0</ele><time>2026-03-25T10:11:32.131Z</time></trkpt><trkpt lat="46.1491532" lon="9.4816926"><ele>207.0</ele><time>2026-03-25T10:11:34.13Z</time></trkpt><trkpt lat="46.1491364" lon="9.481548"><ele>207.0</ele><time>2026-03-25T10:11:37.131Z</time></trkpt><trkpt lat="46.1491234" lon="9.4814565"><ele>207.0</ele><time>2026-03-25T10:11:39.131Z</time></trkpt><trkpt lat="46.149095" lon="9.4813687"><ele>207.0</ele><time>2026-03-25T10:13:29.13Z</time></trkpt><trkpt lat="46.1490658" lon="9.4812579"><ele>207.0</ele><time>2026-03-25T10:13:33.131Z</time></trkpt><trkpt lat="46.1490433" lon="9.4811647"><ele>207.0</ele><time>2026-03-25T10:13:36.131Z</time></trkpt><trkpt lat="46.1490044" lon="9.4810723"><ele>207.0</ele><time>2026-03-25T10:13:39.131Z</time></trkpt><trkpt lat="46.1489853" lon="9.4809854"><ele>207.0</ele><time>2026-03-25T10:13:41.132Z</time></trkpt><trkpt lat="46.1489568" lon="9.4808856"><ele>207.0</ele><time>2026-03-25T10:13:43.13Z</time></trkpt><trkpt lat="46.1489235" lon="9.4807738"><ele>207.0</ele><time>2026-03-25T10:13:45.13Z</time></trkpt><trkpt lat="46.1488963" lon="9.4806477"><ele>206.8</ele><time>2026-03-25T10:13:47.131Z</time></trkpt><trkpt lat="46.1488667" lon="9.4805044"><ele>206.6</ele><time>2026-03-25T10:13:49.131Z</time></trkpt><trkpt lat="46.1488322" lon="9.4803564"><ele>206.4</ele><time>2026-03-25T10:13:51.13Z</time></trkpt><trkpt lat="46.1487981" lon="9.4802136"><ele>206.20000000000002</ele><time>2026-03-25T10:13:53.13Z</time></trkpt><trkpt lat="46.1487626" lon="9.4800561"><ele>206.0</ele><time>2026-03-25T10:13:55.131Z</time></trkpt><trkpt lat="46.1487266" lon="9.4798986"><ele>206.0</ele><time>2026-03-25T10:13:57.13Z</time></trkpt><trkpt lat="46.1486995" lon="9.4797331"><ele>206.0</ele><time>2026-03-25T10:13:59.131Z</time></trkpt><trkpt lat="46.148666" lon="9.479576"><ele>206.0</ele><time>2026-03-25T10:14:01.13Z</time></trkpt><trkpt lat="46.148636" lon="9.4794242"><ele>206.0</ele><time>2026-03-25T10:14:03.13Z</time></trkpt><trkpt lat="46.1486058" lon="9.4792769"><ele>206.0</ele><time>2026-03-25T10:14:05.131Z</time></trkpt><trkpt lat="46.14857" lon="9.4791061"><ele>205.8</ele><time>2026-03-25T10:14:07.132Z</time></trkpt><trkpt lat="46.1485331" lon="9.4789471"><ele>205.60000000000002</ele><time>2026-03-25T10:14:09.13Z</time></trkpt><trkpt lat="46.1485061" lon="9.4788601"><ele>205.4</ele><time>2026-03-25T10:14:10.13Z</time></trkpt><trkpt lat="46.1484625" lon="9.4787058"><ele>205.2</ele><time>2026-03-25T10:14:12.131Z</time></trkpt><trkpt lat="46.1484163" lon="9.4785547"><ele>205.0</ele><time>2026-03-25T10:14:14.131Z</time></trkpt><trkpt lat="46.1483876" lon="9.4784097"><ele>205.4</ele><time>2026-03-25T10:14:16.131Z</time></trkpt><trkpt lat="46.1483371" lon="9.4783186"><ele>205.8</ele><time>2026-03-25T10:14:18.132Z</time></trkpt><trkpt lat="46.1482524" lon="9.4782853"><ele>206.2</ele><time>2026-03-25T10:14:20.129Z</time></trkpt><trkpt lat="46.1481578" lon="9.4782479"><ele>206.6</ele><time>2026-03-25T10:14:22.131Z</time></trkpt><trkpt lat="46.1480617" lon="9.4782096"><ele>207.0</ele><time>2026-03-25T10:14:24.132Z</time></trkpt><trkpt lat="46.1479471" lon="9.4781746"><ele>207.0</ele><time>2026-03-25T10:14:26.132Z</time></trkpt><trkpt lat="46.1478392" lon="9.4781263"><ele>207.0</ele><time>2026-03-25T10:14:28.131Z</time></trkpt><trkpt lat="46.1477337" lon="9.4780934"><ele>207.0</ele><time>2026-03-25T10:14:30.132Z</time></trkpt><trkpt lat="46.1476273" lon="9.4780765"><ele>207.0</ele><time>2026-03-25T10:14:32.13Z</time></trkpt><trkpt lat="46.1475145" lon="9.4780458"><ele>207.0</ele><time>2026-03-25T10:14:34.132Z</time></trkpt><trkpt lat="46.1474145" lon="9.4779833"><ele>207.2</ele><time>2026-03-25T10:14:36.131Z</time></trkpt><trkpt lat="46.1473456" lon="9.4778964"><ele>207.39999999999998</ele><time>2026-03-25T10:14:38.131Z</time></trkpt><trkpt lat="46.147348" lon="9.4777775"><ele>207.60000000000002</ele><time>2026-03-25T10:14:40.131Z</time></trkpt><trkpt lat="46.147368" lon="9.4776473"><ele>207.8</ele><time>2026-03-25T10:14:42.132Z</time></trkpt><trkpt lat="46.147354" lon="9.4774897"><ele>208.0</ele><time>2026-03-25T10:14:44.131Z</time></trkpt><trkpt lat="46.1473174" lon="9.4773385"><ele>208.0</ele><time>2026-03-25T10:14:46.132Z</time></trkpt><trkpt lat="46.1472806" lon="9.4771851"><ele>208.0</ele><time>2026-03-25T10:14:48.132Z</time></trkpt><trkpt lat="46.1472709" lon="9.4770947"><ele>208.0</ele><time>2026-03-25T10:14:49.132Z</time></trkpt><trkpt lat="46.147255" lon="9.4770065"><ele>208.0</ele><time>2026-03-25T10:14:50.13Z</time></trkpt><trkpt lat="46.1472306" lon="9.4768313"><ele>208.0</ele><time>2026-03-25T10:14:52.132Z</time></trkpt><trkpt lat="46.1472114" lon="9.4766549"><ele>207.25</ele><time>2026-03-25T10:14:54.131Z</time></trkpt><trkpt lat="46.1471859" lon="9.476492"><ele>206.5</ele><time>2026-03-25T10:14:56.132Z</time></trkpt><trkpt lat="46.1471647" lon="9.4763117"><ele>205.75</ele><time>2026-03-25T10:14:58.131Z</time></trkpt><trkpt lat="46.1471416" lon="9.4761407"><ele>205.0</ele><time>2026-03-25T10:15:00.131Z</time></trkpt><trkpt lat="46.147112" lon="9.4759754"><ele>204.8</ele><time>2026-03-25T10:15:02.131Z</time></trkpt><trkpt lat="46.1470923" lon="9.4758159"><ele>204.6</ele><time>2026-03-25T10:15:04.132Z</time></trkpt><trkpt lat="46.147077" lon="9.4757179"><ele>204.39999999999998</ele><time>2026-03-25T10:15:05.131Z</time></trkpt><trkpt lat="46.1470644" lon="9.4755401"><ele>204.2</ele><time>2026-03-25T10:15:07.132Z</time></trkpt><trkpt lat="46.1470564" lon="9.475362"><ele>204.0</ele><time>2026-03-25T10:15:09.13Z</time></trkpt><trkpt lat="46.1470751" lon="9.4752738"><ele>205.2</ele><time>2026-03-25T10:15:10.132Z</time></trkpt><trkpt lat="46.1470903" lon="9.4751797"><ele>206.39999999999998</ele><time>2026-03-25T10:15:11.13Z</time></trkpt><trkpt lat="46.1471309" lon="9.4750326"><ele>207.6</ele><time>2026-03-25T10:15:13.131Z</time></trkpt><trkpt lat="46.1471537" lon="9.4748818"><ele>208.8</ele><time>2026-03-25T10:15:15.131Z</time></trkpt><trkpt lat="46.1471838" lon="9.4747882"><ele>210.0</ele><time>2026-03-25T10:15:16.13Z</time></trkpt><trkpt lat="46.1472257" lon="9.4746596"><ele>210.4</ele><time>2026-03-25T10:15:18.131Z</time></trkpt><trkpt lat="46.1472851" lon="9.4745092"><ele>210.8</ele><time>2026-03-25T10:15:20.13Z</time></trkpt><trkpt lat="46.1473162" lon="9.4744147"><ele>211.2</ele><time>2026-03-25T10:15:21.131Z</time></trkpt><trkpt lat="46.1473788" lon="9.4742358"><ele>211.6</ele><time>2026-03-25T10:15:23.133Z</time></trkpt><trkpt lat="46.1474062" lon="9.4740855"><ele>212.0</ele><time>2026-03-25T10:15:25.131Z</time></trkpt><trkpt lat="46.1474203" lon="9.4739739"><ele>211.66666666666669</ele><time>2026-03-25T10:15:26.132Z</time></trkpt><trkpt lat="46.1474555" lon="9.4738653"><ele>211.33333333333334</ele><time>2026-03-25T10:15:27.131Z</time></trkpt><trkpt lat="46.1474792" lon="9.4737785"><ele>211.0</ele><time>2026-03-25T10:15:28.132Z</time></trkpt><trkpt lat="46.1474861" lon="9.4736357"><ele>210.66666666666669</ele><time>2026-03-25T10:15:31.131Z</time></trkpt><trkpt lat="46.147512" lon="9.4734935"><ele>210.33333333333334</ele><time>2026-03-25T10:15:33.13Z</time></trkpt><trkpt lat="46.1475486" lon="9.4733942"><ele>210.0</ele><time>2026-03-25T10:15:34.131Z</time></trkpt><trkpt lat="46.1475881" lon="9.473211"><ele>210.0</ele><time>2026-03-25T10:15:36.131Z</time></trkpt><trkpt lat="46.1476214" lon="9.4731238"><ele>210.0</ele><time>2026-03-25T10:15:37.131Z</time></trkpt><trkpt lat="46.1476485" lon="9.473035"><ele>210.0</ele><time>2026-03-25T10:15:38.132Z</time></trkpt><trkpt lat="46.1476687" lon="9.4729308"><ele>210.0</ele><time>2026-03-25T10:15:39.13Z</time></trkpt><trkpt lat="46.1476958" lon="9.4728478"><ele>210.0</ele><time>2026-03-25T10:15:40.131Z</time></trkpt><trkpt lat="46.1477243" lon="9.472676"><ele>210.0</ele><time>2026-03-25T10:15:42.13Z</time></trkpt><trkpt lat="46.1477447" lon="9.4725897"><ele>209.6</ele><time>2026-03-25T10:15:43.131Z</time></trkpt><trkpt lat="46.147766" lon="9.4724333"><ele>209.2</ele><time>2026-03-25T10:15:45.131Z</time></trkpt><trkpt lat="46.1478067" lon="9.4722784"><ele>208.8</ele><time>2026-03-25T10:15:47.13Z</time></trkpt><trkpt lat="46.1478194" lon="9.4721654"><ele>208.4</ele><time>2026-03-25T10:15:48.132Z</time></trkpt><trkpt lat="46.1478458" lon="9.4719971"><ele>208.0</ele><time>2026-03-25T10:15:50.131Z</time></trkpt><trkpt lat="46.1478542" lon="9.4718982"><ele>207.66666666666666</ele><time>2026-03-25T10:15:51.131Z</time></trkpt><trkpt lat="46.1478768" lon="9.4718044"><ele>207.33333333333331</ele><time>2026-03-25T10:15:52.132Z</time></trkpt><trkpt lat="46.1478742" lon="9.4717027"><ele>207.0</ele><time>2026-03-25T10:15:53.13Z</time></trkpt><trkpt lat="46.1478913" lon="9.471601"><ele>206.66666666666669</ele><time>2026-03-25T10:15:54.13Z</time></trkpt><trkpt lat="46.1479315" lon="9.4714724"><ele>206.33333333333334</ele><time>2026-03-25T10:15:56.132Z</time></trkpt><trkpt lat="46.1479459" lon="9.4713328"><ele>206.0</ele><time>2026-03-25T10:15:58.132Z</time></trkpt><trkpt lat="46.1479684" lon="9.4711763"><ele>206.0</ele><time>2026-03-25T10:16:00.131Z</time></trkpt><trkpt lat="46.147919" lon="9.4710279"><ele>206.0</ele><time>2026-03-25T10:16:02.132Z</time></trkpt><trkpt lat="46.1478644" lon="9.4708616"><ele>206.0</ele><time>2026-03-25T10:16:04.132Z</time></trkpt><trkpt lat="46.1478036" lon="9.4706931"><ele>206.0</ele><time>2026-03-25T10:16:06.132Z</time></trkpt><trkpt lat="46.1477795" lon="9.4706077"><ele>206.0</ele><time>2026-03-25T10:16:07.132Z</time></trkpt><trkpt lat="46.1477166" lon="9.4704907"><ele>205.8</ele><time>2026-03-25T10:16:09.132Z</time></trkpt><trkpt lat="46.1476559" lon="9.4703748"><ele>205.60000000000002</ele><time>2026-03-25T10:16:11.13Z</time></trkpt><trkpt lat="46.1475913" lon="9.4702706"><ele>205.4</ele><time>2026-03-25T10:16:13.132Z</time></trkpt><trkpt lat="46.1474862" lon="9.4701577"><ele>205.2</ele><time>2026-03-25T10:16:15.13Z</time></trkpt><trkpt lat="46.1474056" lon="9.470105"><ele>205.0</ele><time>2026-03-25T10:16:17.131Z</time></trkpt><trkpt lat="46.1473096" lon="9.4700278"><ele>205.0</ele><time>2026-03-25T10:16:19.131Z</time></trkpt><trkpt lat="46.1472356" lon="9.4699351"><ele>205.0</ele><time>2026-03-25T10:16:21.131Z</time></trkpt><trkpt lat="46.1472118" lon="9.4698118"><ele>205.0</ele><time>2026-03-25T10:16:23.132Z</time></trkpt><trkpt lat="46.147227" lon="9.4696643"><ele>205.0</ele><time>2026-03-25T10:16:25.131Z</time></trkpt><trkpt lat="46.147267" lon="9.4695333"><ele>205.0</ele><time>2026-03-25T10:16:27.131Z</time></trkpt><trkpt lat="46.1472904" lon="9.4694088"><ele>205.0</ele><time>2026-03-25T10:16:29.131Z</time></trkpt><trkpt lat="46.1473658" lon="9.4692321"><ele>205.0</ele><time>2026-03-25T10:16:31.131Z</time></trkpt><trkpt lat="46.1474025" lon="9.4691566"><ele>205.0</ele><time>2026-03-25T10:16:32.13Z</time></trkpt><trkpt lat="46.1474625" lon="9.4690026"><ele>205.0</ele><time>2026-03-25T10:16:34.132Z</time></trkpt><trkpt lat="46.1475062" lon="9.4688388"><ele>204.75</ele><time>2026-03-25T10:16:36.132Z</time></trkpt><trkpt lat="46.1474491" lon="9.4686754"><ele>204.5</ele><time>2026-03-25T10:16:38.13Z</time></trkpt><trkpt lat="46.1474132" lon="9.4685151"><ele>204.25</ele><time>2026-03-25T10:16:40.132Z</time></trkpt><trkpt lat="46.147355" lon="9.4683614"><ele>204.0</ele><time>2026-03-25T10:16:42.131Z</time></trkpt><trkpt lat="46.1473118" lon="9.4681976"><ele>204.0</ele><time>2026-03-25T10:16:44.131Z</time></trkpt><trkpt lat="46.1472899" lon="9.468111"><ele>204.0</ele><time>2026-03-25T10:16:45.131Z</time></trkpt><trkpt lat="46.1472539" lon="9.4679489"><ele>204.0</ele><time>2026-03-25T10:16:47.131Z</time></trkpt><trkpt lat="46.1472135" lon="9.4677918"><ele>204.0</ele><time>2026-03-25T10:16:49.13Z</time></trkpt><trkpt lat="46.1471869" lon="9.4676318"><ele>204.0</ele><time>2026-03-25T10:16:51.131Z</time></trkpt><trkpt lat="46.1471519" lon="9.4674804"><ele>204.0</ele><time>2026-03-25T10:16:53.13Z</time></trkpt><trkpt lat="46.1471128" lon="9.4673243"><ele>204.0</ele><time>2026-03-25T10:16:55.132Z</time></trkpt><trkpt lat="46.1470763" lon="9.4671468"><ele>204.0</ele><time>2026-03-25T10:16:57.133Z</time></trkpt><trkpt lat="46.1470459" lon="9.4669815"><ele>204.0</ele><time>2026-03-25T10:16:59.132Z</time></trkpt><trkpt lat="46.147028" lon="9.4668045"><ele>204.0</ele><time>2026-03-25T10:17:01.131Z</time></trkpt><trkpt lat="46.1470146" lon="9.466713"><ele>204.0</ele><time>2026-03-25T10:17:02.132Z</time></trkpt><trkpt lat="46.1469944" lon="9.4666183"><ele>204.0</ele><time>2026-03-25T10:17:03.131Z</time></trkpt><trkpt lat="46.1469596" lon="9.4664465"><ele>204.0</ele><time>2026-03-25T10:17:05.131Z</time></trkpt><trkpt lat="46.146928" lon="9.4662752"><ele>204.0</ele><time>2026-03-25T10:17:07.132Z</time></trkpt><trkpt lat="46.1468902" lon="9.4661073"><ele>204.0</ele><time>2026-03-25T10:17:09.13Z</time></trkpt><trkpt lat="46.1468446" lon="9.4659467"><ele>204.0</ele><time>2026-03-25T10:17:11.131Z</time></trkpt><trkpt lat="46.1468268" lon="9.4658458"><ele>204.0</ele><time>2026-03-25T10:17:12.13Z</time></trkpt><trkpt lat="46.1468094" lon="9.465758"><ele>204.0</ele><time>2026-03-25T10:17:13.131Z</time></trkpt><trkpt lat="46.1467977" lon="9.465579"><ele>204.0</ele><time>2026-03-25T10:17:15.131Z</time></trkpt><trkpt lat="46.1468085" lon="9.4654879"><ele>204.0</ele><time>2026-03-25T10:17:16.132Z</time></trkpt><trkpt lat="46.1468094" lon="9.4653339"><ele>204.0</ele><time>2026-03-25T10:17:18.132Z</time></trkpt><trkpt lat="46.1468155" lon="9.4651726"><ele>204.0</ele><time>2026-03-25T10:17:20.13Z</time></trkpt><trkpt lat="46.1468206" lon="9.4650351"><ele>204.0</ele><time>2026-03-25T10:17:22.131Z</time></trkpt><trkpt lat="46.1468213" lon="9.4649053"><ele>204.0</ele><time>2026-03-25T10:17:24.131Z</time></trkpt><trkpt lat="46.1468333" lon="9.4647695"><ele>204.0</ele><time>2026-03-25T10:17:26.132Z</time></trkpt><trkpt lat="46.1468485" lon="9.4646596"><ele>204.2</ele><time>2026-03-25T10:17:28.132Z</time></trkpt><trkpt lat="46.1468784" lon="9.4645481"><ele>204.39999999999998</ele><time>2026-03-25T10:17:30.13Z</time></trkpt><trkpt lat="46.1469195" lon="9.4644364"><ele>204.6</ele><time>2026-03-25T10:17:32.131Z</time></trkpt><trkpt lat="46.1469729" lon="9.4643246"><ele>204.8</ele><time>2026-03-25T10:17:34.131Z</time></trkpt><trkpt lat="46.147014" lon="9.4642057"><ele>205.0</ele><time>2026-03-25T10:17:36.131Z</time></trkpt><trkpt lat="46.1470642" lon="9.4640792"><ele>205.0</ele><time>2026-03-25T10:17:38.131Z</time></trkpt><trkpt lat="46.1471143" lon="9.4639405"><ele>205.0</ele><time>2026-03-25T10:17:40.131Z</time></trkpt><trkpt lat="46.147178" lon="9.4637876"><ele>205.0</ele><time>2026-03-25T10:17:42.131Z</time></trkpt><trkpt lat="46.1472384" lon="9.4636307"><ele>205.0</ele><time>2026-03-25T10:17:44.13Z</time></trkpt><trkpt lat="46.1472929" lon="9.4634939"><ele>205.25</ele><time>2026-03-25T10:17:46.132Z</time></trkpt><trkpt lat="46.1473615" lon="9.4633612"><ele>205.5</ele><time>2026-03-25T10:17:48.13Z</time></trkpt><trkpt lat="46.1474244" lon="9.4632467"><ele>205.75</ele><time>2026-03-25T10:17:50.131Z</time></trkpt><trkpt lat="46.1474981" lon="9.4631213"><ele>206.0</ele><time>2026-03-25T10:17:52.132Z</time></trkpt><trkpt lat="46.1475801" lon="9.4629914"><ele>205.60000000000002</ele><time>2026-03-25T10:17:54.131Z</time></trkpt><trkpt lat="46.1476474" lon="9.4628774"><ele>205.2</ele><time>2026-03-25T10:17:56.131Z</time></trkpt><trkpt lat="46.1477219" lon="9.4627579"><ele>204.8</ele><time>2026-03-25T10:17:58.131Z</time></trkpt><trkpt lat="46.1477685" lon="9.4626966"><ele>204.39999999999998</ele><time>2026-03-25T10:17:59.133Z</time></trkpt><trkpt lat="46.1478534" lon="9.4625825"><ele>204.0</ele><time>2026-03-25T10:18:01.131Z</time></trkpt><trkpt lat="46.1479431" lon="9.4624883"><ele>204.0</ele><time>2026-03-25T10:18:03.131Z</time></trkpt><trkpt lat="46.1479859" lon="9.4624206"><ele>204.0</ele><time>2026-03-25T10:18:04.132Z</time></trkpt><trkpt lat="46.1480357" lon="9.4623649"><ele>204.0</ele><time>2026-03-25T10:18:05.131Z</time></trkpt><trkpt lat="46.1481256" lon="9.46226"><ele>204.0</ele><time>2026-03-25T10:18:07.131Z</time></trkpt><trkpt lat="46.1482198" lon="9.4621464"><ele>204.0</ele><time>2026-03-25T10:18:09.133Z</time></trkpt><trkpt lat="46.1482972" lon="9.4620743"><ele>203.75</ele><time>2026-03-25T10:18:11.131Z</time></trkpt><trkpt lat="46.1483959" lon="9.4619721"><ele>203.5</ele><time>2026-03-25T10:18:13.131Z</time></trkpt><trkpt lat="46.148478" lon="9.4618741"><ele>203.25</ele><time>2026-03-25T10:18:15.13Z</time></trkpt><trkpt lat="46.1485598" lon="9.4617773"><ele>203.0</ele><time>2026-03-25T10:18:17.131Z</time></trkpt><trkpt lat="46.148653" lon="9.4616731"><ele>203.0</ele><time>2026-03-25T10:18:19.131Z</time></trkpt><trkpt lat="46.1487432" lon="9.4615666"><ele>203.0</ele><time>2026-03-25T10:18:21.131Z</time></trkpt><trkpt lat="46.1488268" lon="9.4614616"><ele>203.0</ele><time>2026-03-25T10:18:23.132Z</time></trkpt><trkpt lat="46.1489174" lon="9.4613391"><ele>203.0</ele><time>2026-03-25T10:18:25.131Z</time></trkpt><trkpt lat="46.1489971" lon="9.4612073"><ele>202.8</ele><time>2026-03-25T10:18:27.131Z</time></trkpt><trkpt lat="46.1490598" lon="9.4610802"><ele>202.60000000000002</ele><time>2026-03-25T10:18:29.132Z</time></trkpt><trkpt lat="46.1491195" lon="9.4609323"><ele>202.39999999999998</ele><time>2026-03-25T10:18:31.131Z</time></trkpt><trkpt lat="46.1491521" lon="9.4607947"><ele>202.2</ele><time>2026-03-25T10:18:33.132Z</time></trkpt><trkpt lat="46.1491881" lon="9.4606505"><ele>202.0</ele><time>2026-03-25T10:18:35.13Z</time></trkpt><trkpt lat="46.1492472" lon="9.4605141"><ele>202.2</ele><time>2026-03-25T10:18:37.131Z</time></trkpt><trkpt lat="46.1493534" lon="9.4602698"><ele>202.39999999999998</ele><time>2026-03-25T10:18:40.132Z</time></trkpt><trkpt lat="46.149385" lon="9.4601755"><ele>202.60000000000002</ele><time>2026-03-25T10:18:41.131Z</time></trkpt><trkpt lat="46.1494212" lon="9.4600687"><ele>202.8</ele><time>2026-03-25T10:18:42.133Z</time></trkpt><trkpt lat="46.1494463" lon="9.4599825"><ele>203.0</ele><time>2026-03-25T10:18:43.132Z</time></trkpt><trkpt lat="46.1494782" lon="9.4598893"><ele>203.00000000000003</ele><time>2026-03-25T10:18:44.131Z</time></trkpt><trkpt lat="46.1495192" lon="9.4598035"><ele>203.0</ele><time>2026-03-25T10:18:45.131Z</time></trkpt><trkpt lat="46.1495529" lon="9.4597148"><ele>203.0</ele><time>2026-03-25T10:18:46.131Z</time></trkpt><trkpt lat="46.1495633" lon="9.4596173"><ele>203.0</ele><time>2026-03-25T10:18:47.132Z</time></trkpt><trkpt lat="46.1495782" lon="9.4594342"><ele>203.00000000000003</ele><time>2026-03-25T10:18:49.131Z</time></trkpt><trkpt lat="46.1495732" lon="9.4593413"><ele>203.0</ele><time>2026-03-25T10:18:50.13Z</time></trkpt><trkpt lat="46.1495479" lon="9.459166"><ele>203.0</ele><time>2026-03-25T10:18:52.132Z</time></trkpt><trkpt lat="46.1495271" lon="9.4590787"><ele>203.0</ele><time>2026-03-25T10:18:53.131Z</time></trkpt><trkpt lat="46.1494564" lon="9.4589044"><ele>203.0</ele><time>2026-03-25T10:18:55.131Z</time></trkpt><trkpt lat="46.1494207" lon="9.4588227"><ele>203.0</ele><time>2026-03-25T10:18:56.132Z</time></trkpt><trkpt lat="46.1493499" lon="9.4586747"><ele>203.0</ele><time>2026-03-25T10:18:58.132Z</time></trkpt><trkpt lat="46.1493106" lon="9.4585961"><ele>203.2</ele><time>2026-03-25T10:18:59.132Z</time></trkpt><trkpt lat="46.1492704" lon="9.4585183"><ele>203.4</ele><time>2026-03-25T10:19:00.133Z</time></trkpt><trkpt lat="46.1491932" lon="9.4583779"><ele>203.6</ele><time>2026-03-25T10:19:02.13Z</time></trkpt><trkpt lat="46.1491569" lon="9.4582969"><ele>203.79999999999998</ele><time>2026-03-25T10:19:03.131Z</time></trkpt><trkpt lat="46.149105" lon="9.4582272"><ele>204.0</ele><time>2026-03-25T10:19:04.132Z</time></trkpt><trkpt lat="46.149037" lon="9.458082"><ele>203.66666666666666</ele><time>2026-03-25T10:19:06.133Z</time></trkpt><trkpt lat="46.1489638" lon="9.4579369"><ele>203.33333333333331</ele><time>2026-03-25T10:19:08.131Z</time></trkpt><trkpt lat="46.1489171" lon="9.4578666"><ele>203.0</ele><time>2026-03-25T10:19:09.131Z</time></trkpt><trkpt lat="46.1488684" lon="9.4577989"><ele>202.66666666666666</ele><time>2026-03-25T10:19:10.133Z</time></trkpt><trkpt lat="46.1488126" lon="9.4577281"><ele>202.33333333333331</ele><time>2026-03-25T10:19:11.132Z</time></trkpt><trkpt lat="46.148767" lon="9.4576649"><ele>202.0</ele><time>2026-03-25T10:19:12.13Z</time></trkpt><trkpt lat="46.1487169" lon="9.4576066"><ele>201.99999999999997</ele><time>2026-03-25T10:19:13.131Z</time></trkpt><trkpt lat="46.1486658" lon="9.4575371"><ele>202.0</ele><time>2026-03-25T10:19:14.132Z</time></trkpt><trkpt lat="46.1485767" lon="9.4574158"><ele>202.0</ele><time>2026-03-25T10:19:16.13Z</time></trkpt><trkpt lat="46.1485329" lon="9.457348"><ele>202.0</ele><time>2026-03-25T10:19:17.131Z</time></trkpt><trkpt lat="46.1484918" lon="9.4572755"><ele>201.99999999999997</ele><time>2026-03-25T10:19:18.133Z</time></trkpt><trkpt lat="46.148395" lon="9.4571584"><ele>202.0</ele><time>2026-03-25T10:19:20.132Z</time></trkpt><trkpt lat="46.1483008" lon="9.4570456"><ele>202.28571428571428</ele><time>2026-03-25T10:19:22.13Z</time></trkpt><trkpt lat="46.148246" lon="9.456981"><ele>202.57142857142856</ele><time>2026-03-25T10:19:23.133Z</time></trkpt><trkpt lat="46.1481942" lon="9.4569241"><ele>202.85714285714286</ele><time>2026-03-25T10:19:24.133Z</time></trkpt><trkpt lat="46.1481046" lon="9.4568269"><ele>203.14285714285714</ele><time>2026-03-25T10:19:26.132Z</time></trkpt><trkpt lat="46.1480515" lon="9.4567692"><ele>203.42857142857144</ele><time>2026-03-25T10:19:27.132Z</time></trkpt><trkpt lat="46.1479958" lon="9.4567055"><ele>203.71428571428572</ele><time>2026-03-25T10:19:28.133Z</time></trkpt><trkpt lat="46.1479498" lon="9.4566427"><ele>204.0</ele><time>2026-03-25T10:19:29.131Z</time></trkpt><trkpt lat="46.14785" lon="9.4565372"><ele>204.25</ele><time>2026-03-25T10:19:31.131Z</time></trkpt><trkpt lat="46.1477547" lon="9.4564361"><ele>204.5</ele><time>2026-03-25T10:19:33.133Z</time></trkpt><trkpt lat="46.1476572" lon="9.4563389"><ele>204.75</ele><time>2026-03-25T10:19:35.132Z</time></trkpt><trkpt lat="46.1475565" lon="9.4562487"><ele>205.0</ele><time>2026-03-25T10:19:37.131Z</time></trkpt><trkpt lat="46.1474514" lon="9.4561515"><ele>204.4</ele><time>2026-03-25T10:19:39.131Z</time></trkpt><trkpt lat="46.1473432" lon="9.4560671"><ele>203.8</ele><time>2026-03-25T10:19:41.132Z</time></trkpt><trkpt lat="46.1472365" lon="9.4559782"><ele>203.2</ele><time>2026-03-25T10:19:43.132Z</time></trkpt><trkpt lat="46.1471265" lon="9.4558827"><ele>202.6</ele><time>2026-03-25T10:19:45.13Z</time></trkpt><trkpt lat="46.14707" lon="9.4558366"><ele>202.0</ele><time>2026-03-25T10:19:46.13Z</time></trkpt><trkpt lat="46.1470127" lon="9.4557954"><ele>201.99999999999997</ele><time>2026-03-25T10:19:47.131Z</time></trkpt><trkpt lat="46.1469568" lon="9.4557497"><ele>202.0</ele><time>2026-03-25T10:19:48.132Z</time></trkpt><trkpt lat="46.1468979" lon="9.4557047"><ele>202.0</ele><time>2026-03-25T10:19:49.133Z</time></trkpt><trkpt lat="46.1467862" lon="9.4556234"><ele>202.0</ele><time>2026-03-25T10:19:51.132Z</time></trkpt><trkpt lat="46.1467264" lon="9.4555888"><ele>201.99999999999997</ele><time>2026-03-25T10:19:52.132Z</time></trkpt><trkpt lat="46.1466201" lon="9.4555226"><ele>202.0</ele><time>2026-03-25T10:19:54.132Z</time></trkpt><trkpt lat="46.1465552" lon="9.4554766"><ele>201.83333333333331</ele><time>2026-03-25T10:19:55.132Z</time></trkpt><trkpt lat="46.1464948" lon="9.4554479"><ele>201.66666666666666</ele><time>2026-03-25T10:19:56.132Z</time></trkpt><trkpt lat="46.1464371" lon="9.4554112"><ele>201.5</ele><time>2026-03-25T10:19:57.131Z</time></trkpt><trkpt lat="46.1463677" lon="9.4553755"><ele>201.33333333333331</ele><time>2026-03-25T10:19:58.13Z</time></trkpt><trkpt lat="46.1463054" lon="9.4553446"><ele>201.16666666666666</ele><time>2026-03-25T10:19:59.132Z</time></trkpt><trkpt lat="46.1461801" lon="9.4552806"><ele>201.0</ele><time>2026-03-25T10:20:01.131Z</time></trkpt><trkpt lat="46.1461171" lon="9.4552564"><ele>201.0</ele><time>2026-03-25T10:20:02.133Z</time></trkpt><trkpt lat="46.1460199" lon="9.4552067"><ele>201.0</ele><time>2026-03-25T10:20:04.132Z</time></trkpt><trkpt lat="46.1459099" lon="9.4551496"><ele>201.0</ele><time>2026-03-25T10:20:06.132Z</time></trkpt><trkpt lat="46.1458007" lon="9.45509"><ele>201.0</ele><time>2026-03-25T10:20:08.133Z</time></trkpt><trkpt lat="46.1457361" lon="9.4550668"><ele>201.0</ele><time>2026-03-25T10:20:09.131Z</time></trkpt><trkpt lat="46.1456695" lon="9.4550486"><ele>201.83333333333334</ele><time>2026-03-25T10:20:10.131Z</time></trkpt><trkpt lat="46.145604" lon="9.4550318"><ele>202.66666666666669</ele><time>2026-03-25T10:20:11.132Z</time></trkpt><trkpt lat="46.145537" lon="9.4550206"><ele>203.5</ele><time>2026-03-25T10:20:12.131Z</time></trkpt><trkpt lat="46.1454739" lon="9.4549973"><ele>204.33333333333334</ele><time>2026-03-25T10:20:13.131Z</time></trkpt><trkpt lat="46.1454127" lon="9.4549561"><ele>205.16666666666669</ele><time>2026-03-25T10:20:14.131Z</time></trkpt><trkpt lat="46.1453036" lon="9.4548782"><ele>206.0</ele><time>2026-03-25T10:20:16.132Z</time></trkpt><trkpt lat="46.1451998" lon="9.4548092"><ele>206.0</ele><time>2026-03-25T10:20:18.131Z</time></trkpt><trkpt lat="46.1450862" lon="9.4547253"><ele>206.0</ele><time>2026-03-25T10:20:20.132Z</time></trkpt><trkpt lat="46.1449666" lon="9.4546728"><ele>206.0</ele><time>2026-03-25T10:20:22.131Z</time></trkpt><trkpt lat="46.14491" lon="9.454632"><ele>206.0</ele><time>2026-03-25T10:20:23.132Z</time></trkpt><trkpt lat="46.1448114" lon="9.45458"><ele>206.0</ele><time>2026-03-25T10:20:25.132Z</time></trkpt><trkpt lat="46.1447093" lon="9.4545265"><ele>205.4</ele><time>2026-03-25T10:20:27.132Z</time></trkpt><trkpt lat="46.1446105" lon="9.4544657"><ele>204.8</ele><time>2026-03-25T10:20:29.132Z</time></trkpt><trkpt lat="46.1445148" lon="9.4544392"><ele>204.20000000000002</ele><time>2026-03-25T10:20:31.132Z</time></trkpt><trkpt lat="46.1444238" lon="9.4544166"><ele>203.60000000000002</ele><time>2026-03-25T10:20:33.131Z</time></trkpt><trkpt lat="46.1443276" lon="9.4543813"><ele>203.0</ele><time>2026-03-25T10:20:35.131Z</time></trkpt><trkpt lat="46.1442584" lon="9.4543426"><ele>203.0</ele><time>2026-03-25T10:20:37.132Z</time></trkpt><trkpt lat="46.1442137" lon="9.4542253"><ele>203.0</ele><time>2026-03-25T10:20:39.131Z</time></trkpt><trkpt lat="46.1441783" lon="9.4540896"><ele>203.0</ele><time>2026-03-25T10:20:41.131Z</time></trkpt><trkpt lat="46.144131" lon="9.453938"><ele>203.0</ele><time>2026-03-25T10:20:43.13Z</time></trkpt><trkpt lat="46.144089" lon="9.4537927"><ele>203.0</ele><time>2026-03-25T10:20:45.132Z</time></trkpt><trkpt lat="46.1440699" lon="9.4537018"><ele>203.0</ele><time>2026-03-25T10:20:46.131Z</time></trkpt><trkpt lat="46.1440271" lon="9.4535583"><ele>203.0</ele><time>2026-03-25T10:20:48.132Z</time></trkpt><trkpt lat="46.1439989" lon="9.4534085"><ele>203.0</ele><time>2026-03-25T10:20:50.131Z</time></trkpt><trkpt lat="46.1439733" lon="9.4532497"><ele>203.0</ele><time>2026-03-25T10:20:52.132Z</time></trkpt><trkpt lat="46.1439027" lon="9.4531138"><ele>203.0</ele><time>2026-03-25T10:20:54.132Z</time></trkpt><trkpt lat="46.1438103" lon="9.4530055"><ele>202.83333333333334</ele><time>2026-03-25T10:20:56.131Z</time></trkpt><trkpt lat="46.1437005" lon="9.4529102"><ele>202.66666666666669</ele><time>2026-03-25T10:20:58.132Z</time></trkpt><trkpt lat="46.1436401" lon="9.4528665"><ele>202.5</ele><time>2026-03-25T10:20:59.133Z</time></trkpt><trkpt lat="46.1435767" lon="9.4528442"><ele>202.33333333333331</ele><time>2026-03-25T10:21:00.131Z</time></trkpt><trkpt lat="46.1435071" lon="9.4528302"><ele>202.16666666666666</ele><time>2026-03-25T10:21:01.131Z</time></trkpt><trkpt lat="46.1434424" lon="9.4528273"><ele>202.0</ele><time>2026-03-25T10:21:02.131Z</time></trkpt><trkpt lat="46.1433771" lon="9.4528225"><ele>201.99999999999997</ele><time>2026-03-25T10:21:03.131Z</time></trkpt><trkpt lat="46.1432503" lon="9.4528384"><ele>202.0</ele><time>2026-03-25T10:21:05.131Z</time></trkpt><trkpt lat="46.1431836" lon="9.4528457"><ele>202.0</ele><time>2026-03-25T10:21:06.133Z</time></trkpt><trkpt lat="46.1431146" lon="9.4528544"><ele>202.0</ele><time>2026-03-25T10:21:07.132Z</time></trkpt><trkpt lat="46.1430498" lon="9.4528665"><ele>201.99999999999997</ele><time>2026-03-25T10:21:08.131Z</time></trkpt><trkpt lat="46.1429859" lon="9.4528824"><ele>202.0</ele><time>2026-03-25T10:21:09.131Z</time></trkpt><trkpt lat="46.1429159" lon="9.4528954"><ele>202.16666666666666</ele><time>2026-03-25T10:21:10.131Z</time></trkpt><trkpt lat="46.1428479" lon="9.4529055"><ele>202.33333333333331</ele><time>2026-03-25T10:21:11.131Z</time></trkpt><trkpt lat="46.1427815" lon="9.4529066"><ele>202.5</ele><time>2026-03-25T10:21:12.132Z</time></trkpt><trkpt lat="46.142664" lon="9.4528773"><ele>202.66666666666669</ele><time>2026-03-25T10:21:14.132Z</time></trkpt><trkpt lat="46.1426016" lon="9.4528587"><ele>202.83333333333334</ele><time>2026-03-25T10:21:15.132Z</time></trkpt><trkpt lat="46.1424866" lon="9.4528077"><ele>203.0</ele><time>2026-03-25T10:21:17.131Z</time></trkpt><trkpt lat="46.1423669" lon="9.4527583"><ele>203.0</ele><time>2026-03-25T10:21:19.131Z</time></trkpt><trkpt lat="46.1422482" lon="9.4527397"><ele>203.0</ele><time>2026-03-25T10:21:21.133Z</time></trkpt><trkpt lat="46.1421338" lon="9.4527802"><ele>203.0</ele><time>2026-03-25T10:21:23.134Z</time></trkpt><trkpt lat="46.1420719" lon="9.4528179"><ele>203.0</ele><time>2026-03-25T10:21:24.131Z</time></trkpt><trkpt lat="46.1419714" lon="9.4528768"><ele>203.0</ele><time>2026-03-25T10:21:26.131Z</time></trkpt><trkpt lat="46.1419096" lon="9.4529106"><ele>203.0</ele><time>2026-03-25T10:21:27.132Z</time></trkpt><trkpt lat="46.1418492" lon="9.4529455"><ele>203.0</ele><time>2026-03-25T10:21:28.133Z</time></trkpt><trkpt lat="46.1417858" lon="9.4529826"><ele>203.0</ele><time>2026-03-25T10:21:29.131Z</time></trkpt><trkpt lat="46.1417203" lon="9.4530216"><ele>203.0</ele><time>2026-03-25T10:21:30.131Z</time></trkpt><trkpt lat="46.1416534" lon="9.4530568"><ele>203.0</ele><time>2026-03-25T10:21:31.133Z</time></trkpt><trkpt lat="46.1415929" lon="9.4530841"><ele>203.0</ele><time>2026-03-25T10:21:32.132Z</time></trkpt><trkpt lat="46.1415296" lon="9.4531149"><ele>203.0</ele><time>2026-03-25T10:21:33.132Z</time></trkpt><trkpt lat="46.1414617" lon="9.4531559"><ele>203.16666666666669</ele><time>2026-03-25T10:21:34.133Z</time></trkpt><trkpt lat="46.1414031" lon="9.4531955"><ele>203.33333333333334</ele><time>2026-03-25T10:21:35.131Z</time></trkpt><trkpt lat="46.141341" lon="9.4532189"><ele>203.5</ele><time>2026-03-25T10:21:36.132Z</time></trkpt><trkpt lat="46.141277" lon="9.453248"><ele>203.66666666666669</ele><time>2026-03-25T10:21:37.131Z</time></trkpt><trkpt lat="46.1412159" lon="9.4532818"><ele>203.83333333333334</ele><time>2026-03-25T10:21:38.132Z</time></trkpt><trkpt lat="46.1410918" lon="9.4533438"><ele>204.0</ele><time>2026-03-25T10:21:40.132Z</time></trkpt><trkpt lat="46.1409761" lon="9.4534095"><ele>204.0</ele><time>2026-03-25T10:21:42.131Z</time></trkpt><trkpt lat="46.1408713" lon="9.4534658"><ele>204.0</ele><time>2026-03-25T10:21:44.132Z</time></trkpt><trkpt lat="46.1407953" lon="9.4535042"><ele>204.0</ele><time>2026-03-25T10:21:46.133Z</time></trkpt><trkpt lat="46.1407146" lon="9.4535401"><ele>204.0</ele><time>2026-03-25T10:21:49.133Z</time></trkpt><trkpt lat="46.1406718" lon="9.4536553"><ele>204.0</ele><time>2026-03-25T10:21:52.132Z</time></trkpt><trkpt lat="46.1406547" lon="9.45375"><ele>204.0</ele><time>2026-03-25T10:21:54.131Z</time></trkpt><trkpt lat="46.1406284" lon="9.4538498"><ele>204.16666666666666</ele><time>2026-03-25T10:21:56.131Z</time></trkpt><trkpt lat="46.1406103" lon="9.4539408"><ele>204.33333333333331</ele><time>2026-03-25T10:21:58.132Z</time></trkpt><trkpt lat="46.1405795" lon="9.4540282"><ele>204.5</ele><time>2026-03-25T10:22:00.132Z</time></trkpt><trkpt lat="46.1405455" lon="9.4541285"><ele>204.66666666666666</ele><time>2026-03-25T10:22:02.131Z</time></trkpt><trkpt lat="46.1404934" lon="9.454231"><ele>204.83333333333331</ele><time>2026-03-25T10:22:04.131Z</time></trkpt><trkpt lat="46.1404535" lon="9.4543648"><ele>205.0</ele><time>2026-03-25T10:22:06.132Z</time></trkpt><trkpt lat="46.1404191" lon="9.4544769"><ele>205.0</ele><time>2026-03-25T10:22:08.133Z</time></trkpt><trkpt lat="46.1403933" lon="9.454596"><ele>205.0</ele><time>2026-03-25T10:22:10.133Z</time></trkpt><trkpt lat="46.1403408" lon="9.4547065"><ele>205.0</ele><time>2026-03-25T10:22:12.132Z</time></trkpt><trkpt lat="46.1402995" lon="9.4548504"><ele>205.0</ele><time>2026-03-25T10:22:14.132Z</time></trkpt><trkpt lat="46.1402713" lon="9.4549773"><ele>205.0</ele><time>2026-03-25T10:22:16.132Z</time></trkpt><trkpt lat="46.1402331" lon="9.4551348"><ele>205.4</ele><time>2026-03-25T10:22:18.131Z</time></trkpt><trkpt lat="46.1401922" lon="9.4552668"><ele>205.8</ele><time>2026-03-25T10:22:20.133Z</time></trkpt><trkpt lat="46.1401472" lon="9.4553968"><ele>206.2</ele><time>2026-03-25T10:22:22.132Z</time></trkpt><trkpt lat="46.140088" lon="9.4555264"><ele>206.6</ele><time>2026-03-25T10:22:24.132Z</time></trkpt><trkpt lat="46.1400361" lon="9.4556435"><ele>207.0</ele><time>2026-03-25T10:22:26.132Z</time></trkpt><trkpt lat="46.1399827" lon="9.4557447"><ele>207.0</ele><time>2026-03-25T10:22:28.132Z</time></trkpt><trkpt lat="46.1399227" lon="9.4558505"><ele>207.0</ele><time>2026-03-25T10:22:30.132Z</time></trkpt><trkpt lat="46.1398544" lon="9.4559481"><ele>207.0</ele><time>2026-03-25T10:22:32.133Z</time></trkpt><trkpt lat="46.13978" lon="9.4560304"><ele>207.0</ele><time>2026-03-25T10:22:34.132Z</time></trkpt><trkpt lat="46.1396965" lon="9.4560346"><ele>207.0</ele><time>2026-03-25T10:22:36.132Z</time></trkpt><trkpt lat="46.1396008" lon="9.4560278"><ele>207.0</ele><time>2026-03-25T10:22:38.132Z</time></trkpt><trkpt lat="46.1395083" lon="9.4560357"><ele>207.0</ele><time>2026-03-25T10:22:40.131Z</time></trkpt><trkpt lat="46.1393991" lon="9.4560382"><ele>207.0</ele><time>2026-03-25T10:22:42.132Z</time></trkpt><trkpt lat="46.1392848" lon="9.4560332"><ele>207.0</ele><time>2026-03-25T10:22:44.131Z</time></trkpt><trkpt lat="46.1391842" lon="9.4560298"><ele>207.0</ele><time>2026-03-25T10:22:46.133Z</time></trkpt><trkpt lat="46.1390694" lon="9.4560374"><ele>208.6</ele><time>2026-03-25T10:22:48.131Z</time></trkpt><trkpt lat="46.1389778" lon="9.4560329"><ele>210.2</ele><time>2026-03-25T10:22:50.133Z</time></trkpt><trkpt lat="46.1388866" lon="9.4560246"><ele>211.8</ele><time>2026-03-25T10:22:52.132Z</time></trkpt><trkpt lat="46.1387962" lon="9.4559655"><ele>213.4</ele><time>2026-03-25T10:22:54.133Z</time></trkpt><trkpt lat="46.1387611" lon="9.4558504"><ele>215.0</ele><time>2026-03-25T10:22:56.132Z</time></trkpt><trkpt lat="46.1387618" lon="9.4556816"><ele>215.0</ele><time>2026-03-25T10:22:58.133Z</time></trkpt><trkpt lat="46.1387548" lon="9.455535"><ele>215.0</ele><time>2026-03-25T10:23:00.132Z</time></trkpt><trkpt lat="46.1387451" lon="9.4553829"><ele>215.0</ele><time>2026-03-25T10:23:02.131Z</time></trkpt><trkpt lat="46.1387277" lon="9.4552161"><ele>215.0</ele><time>2026-03-25T10:23:04.133Z</time></trkpt><trkpt lat="46.1387264" lon="9.4550597"><ele>215.0</ele><time>2026-03-25T10:23:06.131Z</time></trkpt><trkpt lat="46.1387218" lon="9.4548919"><ele>214.5</ele><time>2026-03-25T10:23:08.132Z</time></trkpt><trkpt lat="46.1387221" lon="9.4547295"><ele>214.0</ele><time>2026-03-25T10:23:10.131Z</time></trkpt><trkpt lat="46.1387187" lon="9.4545567"><ele>213.5</ele><time>2026-03-25T10:23:12.131Z</time></trkpt><trkpt lat="46.1387083" lon="9.4543868"><ele>213.0</ele><time>2026-03-25T10:23:14.131Z</time></trkpt><trkpt lat="46.1387198" lon="9.4542205"><ele>213.0</ele><time>2026-03-25T10:23:16.133Z</time></trkpt><trkpt lat="46.1387169" lon="9.4540504"><ele>213.0</ele><time>2026-03-25T10:23:18.132Z</time></trkpt><trkpt lat="46.1387189" lon="9.4538761"><ele>213.0</ele><time>2026-03-25T10:23:20.133Z</time></trkpt><trkpt lat="46.1387227" lon="9.453703"><ele>213.0</ele><time>2026-03-25T10:23:22.131Z</time></trkpt><trkpt lat="46.13872" lon="9.4535332"><ele>213.0</ele><time>2026-03-25T10:23:24.133Z</time></trkpt><trkpt lat="46.1387164" lon="9.4533283"><ele>213.0</ele><time>2026-03-25T10:23:26.132Z</time></trkpt><trkpt lat="46.1387079" lon="9.4531686"><ele>213.0</ele><time>2026-03-25T10:23:28.132Z</time></trkpt><trkpt lat="46.1387103" lon="9.4530718"><ele>213.0</ele><time>2026-03-25T10:23:29.132Z</time></trkpt><trkpt lat="46.1387102" lon="9.4529809"><ele>213.0</ele><time>2026-03-25T10:23:30.133Z</time></trkpt><trkpt lat="46.138705" lon="9.4527957"><ele>213.0</ele><time>2026-03-25T10:23:32.131Z</time></trkpt><trkpt lat="46.1387152" lon="9.4526228"><ele>213.0</ele><time>2026-03-25T10:23:34.132Z</time></trkpt><trkpt lat="46.1387267" lon="9.4524471"><ele>213.0</ele><time>2026-03-25T10:23:36.131Z</time></trkpt><trkpt lat="46.1387367" lon="9.4523498"><ele>213.0</ele><time>2026-03-25T10:23:37.132Z</time></trkpt><trkpt lat="46.1387606" lon="9.4521679"><ele>213.0</ele><time>2026-03-25T10:23:39.132Z</time></trkpt><trkpt lat="46.1387605" lon="9.4520694"><ele>212.5</ele><time>2026-03-25T10:23:40.132Z</time></trkpt><trkpt lat="46.1387723" lon="9.4519745"><ele>212.0</ele><time>2026-03-25T10:23:41.133Z</time></trkpt><trkpt lat="46.1387716" lon="9.4518769"><ele>211.5</ele><time>2026-03-25T10:23:42.133Z</time></trkpt><trkpt lat="46.1387621" lon="9.4517023"><ele>211.0</ele><time>2026-03-25T10:23:44.133Z</time></trkpt><trkpt lat="46.1387566" lon="9.4516084"><ele>210.5</ele><time>2026-03-25T10:23:45.132Z</time></trkpt><trkpt lat="46.138744" lon="9.4515119"><ele>210.0</ele><time>2026-03-25T10:23:46.132Z</time></trkpt><trkpt lat="46.1387322" lon="9.4513284"><ele>209.33333333333334</ele><time>2026-03-25T10:23:48.131Z</time></trkpt><trkpt lat="46.138729" lon="9.4512343"><ele>208.66666666666669</ele><time>2026-03-25T10:23:49.132Z</time></trkpt><trkpt lat="46.1387292" lon="9.4511415"><ele>208.0</ele><time>2026-03-25T10:23:50.132Z</time></trkpt><trkpt lat="46.1387201" lon="9.4510452"><ele>207.33333333333334</ele><time>2026-03-25T10:23:51.132Z</time></trkpt><trkpt lat="46.1387157" lon="9.4509422"><ele>206.66666666666669</ele><time>2026-03-25T10:23:52.131Z</time></trkpt><trkpt lat="46.1387155" lon="9.4507656"><ele>206.0</ele><time>2026-03-25T10:23:54.133Z</time></trkpt><trkpt lat="46.1387138" lon="9.4506705"><ele>206.00000000000003</ele><time>2026-03-25T10:23:55.131Z</time></trkpt><trkpt lat="46.1387048" lon="9.4505715"><ele>206.0</ele><time>2026-03-25T10:23:56.133Z</time></trkpt><trkpt lat="46.1387026" lon="9.4504768"><ele>206.0</ele><time>2026-03-25T10:23:57.133Z</time></trkpt><trkpt lat="46.1386998" lon="9.4503829"><ele>206.0</ele><time>2026-03-25T10:23:58.132Z</time></trkpt><trkpt lat="46.1387044" lon="9.4502046"><ele>206.00000000000003</ele><time>2026-03-25T10:24:00.131Z</time></trkpt><trkpt lat="46.1386968" lon="9.4500338"><ele>206.0</ele><time>2026-03-25T10:24:02.133Z</time></trkpt><trkpt lat="46.1387107" lon="9.4498685"><ele>205.8</ele><time>2026-03-25T10:24:04.132Z</time></trkpt><trkpt lat="46.1387166" lon="9.4497545"><ele>205.60000000000002</ele><time>2026-03-25T10:24:05.133Z</time></trkpt><trkpt lat="46.1387164" lon="9.4496609"><ele>205.4</ele><time>2026-03-25T10:24:06.133Z</time></trkpt><trkpt lat="46.1387115" lon="9.4494872"><ele>205.2</ele><time>2026-03-25T10:24:08.133Z</time></trkpt><trkpt lat="46.1387154" lon="9.4493919"><ele>205.0</ele><time>2026-03-25T10:24:09.131Z</time></trkpt><trkpt lat="46.1387143" lon="9.4492161"><ele>204.85714285714286</ele><time>2026-03-25T10:24:11.132Z</time></trkpt><trkpt lat="46.1387126" lon="9.4491174"><ele>204.7142857142857</ele><time>2026-03-25T10:24:12.133Z</time></trkpt><trkpt lat="46.1387185" lon="9.4490195"><ele>204.57142857142856</ele><time>2026-03-25T10:24:13.133Z</time></trkpt><trkpt lat="46.1387215" lon="9.4489101"><ele>204.42857142857144</ele><time>2026-03-25T10:24:14.133Z</time></trkpt><trkpt lat="46.1387194" lon="9.4488144"><ele>204.28571428571428</ele><time>2026-03-25T10:24:15.132Z</time></trkpt><trkpt lat="46.1387278" lon="9.4487165"><ele>204.14285714285714</ele><time>2026-03-25T10:24:16.132Z</time></trkpt><trkpt lat="46.1387258" lon="9.448619"><ele>204.0</ele><time>2026-03-25T10:24:17.133Z</time></trkpt><trkpt lat="46.1387244" lon="9.4485229"><ele>204.0</ele><time>2026-03-25T10:24:18.132Z</time></trkpt><trkpt lat="46.138728" lon="9.4483436"><ele>204.0</ele><time>2026-03-25T10:24:20.133Z</time></trkpt><trkpt lat="46.1387364" lon="9.4481599"><ele>204.0</ele><time>2026-03-25T10:24:22.133Z</time></trkpt><trkpt lat="46.138752" lon="9.4479881"><ele>204.0</ele><time>2026-03-25T10:24:24.132Z</time></trkpt><trkpt lat="46.1387527" lon="9.4478907"><ele>204.0</ele><time>2026-03-25T10:24:25.131Z</time></trkpt><trkpt lat="46.1387459" lon="9.4477853"><ele>204.0</ele><time>2026-03-25T10:24:26.133Z</time></trkpt><trkpt lat="46.1387413" lon="9.4476917"><ele>204.0</ele><time>2026-03-25T10:24:27.131Z</time></trkpt><trkpt lat="46.1387385" lon="9.4475906"><ele>204.0</ele><time>2026-03-25T10:24:28.132Z</time></trkpt><trkpt lat="46.1387448" lon="9.4474901"><ele>204.0</ele><time>2026-03-25T10:24:29.132Z</time></trkpt><trkpt lat="46.1387452" lon="9.4473933"><ele>204.0</ele><time>2026-03-25T10:24:30.131Z</time></trkpt><trkpt lat="46.1387424" lon="9.4472904"><ele>204.0</ele><time>2026-03-25T10:24:31.133Z</time></trkpt><trkpt lat="46.1387364" lon="9.4471907"><ele>204.0</ele><time>2026-03-25T10:24:32.131Z</time></trkpt><trkpt lat="46.1387366" lon="9.4470956"><ele>204.0</ele><time>2026-03-25T10:24:33.131Z</time></trkpt><trkpt lat="46.1387369" lon="9.4470038"><ele>204.0</ele><time>2026-03-25T10:24:34.132Z</time></trkpt><trkpt lat="46.1387322" lon="9.4468252"><ele>204.0</ele><time>2026-03-25T10:24:36.132Z</time></trkpt><trkpt lat="46.1387341" lon="9.4466499"><ele>204.0</ele><time>2026-03-25T10:24:38.133Z</time></trkpt><trkpt lat="46.1387315" lon="9.4465552"><ele>204.0</ele><time>2026-03-25T10:24:39.131Z</time></trkpt><trkpt lat="46.1387308" lon="9.4464633"><ele>204.0</ele><time>2026-03-25T10:24:40.131Z</time></trkpt><trkpt lat="46.138731" lon="9.4463672"><ele>204.14285714285714</ele><time>2026-03-25T10:24:41.131Z</time></trkpt><trkpt lat="46.1387356" lon="9.4462739"><ele>204.28571428571428</ele><time>2026-03-25T10:24:42.132Z</time></trkpt><trkpt lat="46.1387375" lon="9.4461808"><ele>204.42857142857144</ele><time>2026-03-25T10:24:43.134Z</time></trkpt><trkpt lat="46.1387375" lon="9.4460806"><ele>204.57142857142856</ele><time>2026-03-25T10:24:44.133Z</time></trkpt><trkpt lat="46.1387391" lon="9.4459874"><ele>204.7142857142857</ele><time>2026-03-25T10:24:45.133Z</time></trkpt><trkpt lat="46.1387401" lon="9.4458895"><ele>204.85714285714286</ele><time>2026-03-25T10:24:46.132Z</time></trkpt><trkpt lat="46.1387372" lon="9.4457854"><ele>205.0</ele><time>2026-03-25T10:24:47.131Z</time></trkpt><trkpt lat="46.1387363" lon="9.4456843"><ele>205.0</ele><time>2026-03-25T10:24:48.133Z</time></trkpt><trkpt lat="46.1387305" lon="9.4455042"><ele>205.0</ele><time>2026-03-25T10:24:50.131Z</time></trkpt><trkpt lat="46.1387199" lon="9.4453148"><ele>205.0</ele><time>2026-03-25T10:24:52.132Z</time></trkpt><trkpt lat="46.1387163" lon="9.4452146"><ele>205.0</ele><time>2026-03-25T10:24:53.133Z</time></trkpt><trkpt lat="46.1387141" lon="9.4451223"><ele>205.0</ele><time>2026-03-25T10:24:54.134Z</time></trkpt><trkpt lat="46.138713" lon="9.4450254"><ele>204.8</ele><time>2026-03-25T10:24:55.132Z</time></trkpt><trkpt lat="46.1387077" lon="9.4448515"><ele>204.6</ele><time>2026-03-25T10:24:57.132Z</time></trkpt><trkpt lat="46.1387019" lon="9.4447533"><ele>204.39999999999998</ele><time>2026-03-25T10:24:58.133Z</time></trkpt><trkpt lat="46.1387031" lon="9.4445754"><ele>204.2</ele><time>2026-03-25T10:25:00.132Z</time></trkpt><trkpt lat="46.1387008" lon="9.4444846"><ele>204.0</ele><time>2026-03-25T10:25:01.133Z</time></trkpt><trkpt lat="46.1386989" lon="9.4443084"><ele>203.83333333333334</ele><time>2026-03-25T10:25:03.131Z</time></trkpt><trkpt lat="46.1386926" lon="9.4441388"><ele>203.66666666666669</ele><time>2026-03-25T10:25:05.131Z</time></trkpt><trkpt lat="46.1386949" lon="9.4440408"><ele>203.5</ele><time>2026-03-25T10:25:06.133Z</time></trkpt><trkpt lat="46.1386943" lon="9.4439377"><ele>203.33333333333334</ele><time>2026-03-25T10:25:07.132Z</time></trkpt><trkpt lat="46.138691" lon="9.4438455"><ele>203.16666666666669</ele><time>2026-03-25T10:25:08.133Z</time></trkpt><trkpt lat="46.1386901" lon="9.4437512"><ele>203.0</ele><time>2026-03-25T10:25:09.134Z</time></trkpt><trkpt lat="46.1386926" lon="9.4436568"><ele>202.8</ele><time>2026-03-25T10:25:10.132Z</time></trkpt><trkpt lat="46.1386909" lon="9.4435574"><ele>202.60000000000002</ele><time>2026-03-25T10:25:11.132Z</time></trkpt><trkpt lat="46.1386994" lon="9.443376"><ele>202.39999999999998</ele><time>2026-03-25T10:25:13.133Z</time></trkpt><trkpt lat="46.1386974" lon="9.4432827"><ele>202.2</ele><time>2026-03-25T10:25:14.131Z</time></trkpt><trkpt lat="46.1387062" lon="9.4430884"><ele>202.0</ele><time>2026-03-25T10:25:16.132Z</time></trkpt><trkpt lat="46.138707" lon="9.4429946"><ele>201.99999999999997</ele><time>2026-03-25T10:25:17.133Z</time></trkpt><trkpt lat="46.1387005" lon="9.4428888"><ele>202.0</ele><time>2026-03-25T10:25:18.131Z</time></trkpt><trkpt lat="46.1387075" lon="9.4427001"><ele>202.0</ele><time>2026-03-25T10:25:20.132Z</time></trkpt><trkpt lat="46.1386993" lon="9.4425974"><ele>202.0</ele><time>2026-03-25T10:25:21.133Z</time></trkpt><trkpt lat="46.1387019" lon="9.442498"><ele>201.99999999999997</ele><time>2026-03-25T10:25:22.132Z</time></trkpt><trkpt lat="46.1387015" lon="9.4423923"><ele>202.0</ele><time>2026-03-25T10:25:23.134Z</time></trkpt><trkpt lat="46.1387016" lon="9.4422995"><ele>202.0</ele><time>2026-03-25T10:25:24.132Z</time></trkpt><trkpt lat="46.138703" lon="9.4422022"><ele>202.0</ele><time>2026-03-25T10:25:25.132Z</time></trkpt><trkpt lat="46.1387094" lon="9.4420959"><ele>202.0</ele><time>2026-03-25T10:25:26.134Z</time></trkpt><trkpt lat="46.1387101" lon="9.4419965"><ele>202.0</ele><time>2026-03-25T10:25:27.134Z</time></trkpt><trkpt lat="46.1387135" lon="9.4419052"><ele>202.0</ele><time>2026-03-25T10:25:28.133Z</time></trkpt><trkpt lat="46.138708" lon="9.4418055"><ele>202.0</ele><time>2026-03-25T10:25:29.132Z</time></trkpt><trkpt lat="46.1387071" lon="9.44171"><ele>202.0</ele><time>2026-03-25T10:25:30.132Z</time></trkpt><trkpt lat="46.1387077" lon="9.4416173"><ele>201.83333333333331</ele><time>2026-03-25T10:25:31.132Z</time></trkpt><trkpt lat="46.1387087" lon="9.4415153"><ele>201.66666666666666</ele><time>2026-03-25T10:25:32.132Z</time></trkpt><trkpt lat="46.1387104" lon="9.4414218"><ele>201.5</ele><time>2026-03-25T10:25:33.132Z</time></trkpt><trkpt lat="46.138711" lon="9.4413284"><ele>201.33333333333331</ele><time>2026-03-25T10:25:34.131Z</time></trkpt><trkpt lat="46.1387406" lon="9.4411878"><ele>201.16666666666666</ele><time>2026-03-25T10:25:36.133Z</time></trkpt><trkpt lat="46.1387463" lon="9.4410903"><ele>201.0</ele><time>2026-03-25T10:25:37.133Z</time></trkpt><trkpt lat="46.138745" lon="9.4409187"><ele>201.4</ele><time>2026-03-25T10:25:39.132Z</time></trkpt><trkpt lat="46.1387258" lon="9.4408225"><ele>201.8</ele><time>2026-03-25T10:25:40.133Z</time></trkpt><trkpt lat="46.1387339" lon="9.4406494"><ele>202.20000000000002</ele><time>2026-03-25T10:25:42.131Z</time></trkpt><trkpt lat="46.1387383" lon="9.4404877"><ele>202.60000000000002</ele><time>2026-03-25T10:25:44.133Z</time></trkpt><trkpt lat="46.1387373" lon="9.4403239"><ele>203.0</ele><time>2026-03-25T10:25:46.131Z</time></trkpt><trkpt lat="46.1387442" lon="9.4401712"><ele>203.0</ele><time>2026-03-25T10:25:48.132Z</time></trkpt><trkpt lat="46.1387564" lon="9.4400101"><ele>203.0</ele><time>2026-03-25T10:25:50.132Z</time></trkpt><trkpt lat="46.1387622" lon="9.4399191"><ele>203.0</ele><time>2026-03-25T10:25:51.131Z</time></trkpt><trkpt lat="46.1387986" lon="9.4397557"><ele>203.0</ele><time>2026-03-25T10:25:53.134Z</time></trkpt><trkpt lat="46.1388136" lon="9.439592"><ele>203.0</ele><time>2026-03-25T10:25:55.133Z</time></trkpt><trkpt lat="46.1388415" lon="9.4394243"><ele>202.75</ele><time>2026-03-25T10:25:57.132Z</time></trkpt><trkpt lat="46.1388762" lon="9.4392597"><ele>202.5</ele><time>2026-03-25T10:25:59.134Z</time></trkpt><trkpt lat="46.1389122" lon="9.4390894"><ele>202.25</ele><time>2026-03-25T10:26:01.133Z</time></trkpt><trkpt lat="46.1389547" lon="9.4389241"><ele>202.0</ele><time>2026-03-25T10:26:03.132Z</time></trkpt><trkpt lat="46.1389905" lon="9.438747"><ele>202.0</ele><time>2026-03-25T10:26:05.132Z</time></trkpt><trkpt lat="46.1390364" lon="9.4385883"><ele>202.0</ele><time>2026-03-25T10:26:07.132Z</time></trkpt><trkpt lat="46.1390743" lon="9.4384415"><ele>202.0</ele><time>2026-03-25T10:26:09.132Z</time></trkpt><trkpt lat="46.1391133" lon="9.4383002"><ele>202.0</ele><time>2026-03-25T10:26:11.131Z</time></trkpt><trkpt lat="46.1391361" lon="9.4381707"><ele>202.0</ele><time>2026-03-25T10:26:13.134Z</time></trkpt><trkpt lat="46.1391697" lon="9.4380473"><ele>201.6</ele><time>2026-03-25T10:26:15.132Z</time></trkpt><trkpt lat="46.1392084" lon="9.4379238"><ele>201.2</ele><time>2026-03-25T10:26:17.134Z</time></trkpt><trkpt lat="46.1392564" lon="9.4378063"><ele>200.8</ele><time>2026-03-25T10:26:19.133Z</time></trkpt><trkpt lat="46.1392948" lon="9.4376949"><ele>200.4</ele><time>2026-03-25T10:26:21.133Z</time></trkpt><trkpt lat="46.1393248" lon="9.4375651"><ele>200.0</ele><time>2026-03-25T10:26:23.132Z</time></trkpt><trkpt lat="46.1393752" lon="9.4374239"><ele>200.0</ele><time>2026-03-25T10:26:25.134Z</time></trkpt><trkpt lat="46.1394021" lon="9.4372934"><ele>200.0</ele><time>2026-03-25T10:26:27.134Z</time></trkpt><trkpt lat="46.1394195" lon="9.4371694"><ele>200.0</ele><time>2026-03-25T10:26:29.131Z</time></trkpt><trkpt lat="46.1394576" lon="9.4370512"><ele>200.0</ele><time>2026-03-25T10:26:31.134Z</time></trkpt><trkpt lat="46.1395108" lon="9.4369093"><ele>200.0</ele><time>2026-03-25T10:26:33.133Z</time></trkpt><trkpt lat="46.1395539" lon="9.4367528"><ele>199.83333333333334</ele><time>2026-03-25T10:26:35.133Z</time></trkpt><trkpt lat="46.1395746" lon="9.4366607"><ele>199.66666666666669</ele><time>2026-03-25T10:26:36.132Z</time></trkpt><trkpt lat="46.1396212" lon="9.4364916"><ele>199.5</ele><time>2026-03-25T10:26:38.131Z</time></trkpt><trkpt lat="46.1396508" lon="9.4364044"><ele>199.33333333333331</ele><time>2026-03-25T10:26:39.132Z</time></trkpt><trkpt lat="46.1396811" lon="9.4363181"><ele>199.16666666666666</ele><time>2026-03-25T10:26:40.134Z</time></trkpt><trkpt lat="46.1397156" lon="9.4362371"><ele>199.0</ele><time>2026-03-25T10:26:41.133Z</time></trkpt><trkpt lat="46.1397679" lon="9.4360749"><ele>199.39999999999998</ele><time>2026-03-25T10:26:43.133Z</time></trkpt><trkpt lat="46.1398086" lon="9.4359113"><ele>199.8</ele><time>2026-03-25T10:26:45.133Z</time></trkpt><trkpt lat="46.1398365" lon="9.4358275"><ele>200.2</ele><time>2026-03-25T10:26:46.132Z</time></trkpt><trkpt lat="46.1398888" lon="9.4356726"><ele>200.60000000000002</ele><time>2026-03-25T10:26:48.131Z</time></trkpt><trkpt lat="46.1399446" lon="9.4355021"><ele>201.0</ele><time>2026-03-25T10:26:50.134Z</time></trkpt><trkpt lat="46.1399939" lon="9.4353391"><ele>201.0</ele><time>2026-03-25T10:26:52.132Z</time></trkpt><trkpt lat="46.140015" lon="9.4352503"><ele>201.0</ele><time>2026-03-25T10:26:53.133Z</time></trkpt><trkpt lat="46.1400378" lon="9.4351615"><ele>201.0</ele><time>2026-03-25T10:26:54.132Z</time></trkpt><trkpt lat="46.1400875" lon="9.4350159"><ele>201.0</ele><time>2026-03-25T10:26:56.134Z</time></trkpt><trkpt lat="46.140126" lon="9.4348677"><ele>201.0</ele><time>2026-03-25T10:26:58.133Z</time></trkpt><trkpt lat="46.1401838" lon="9.4347089"><ele>201.20000000000002</ele><time>2026-03-25T10:27:00.133Z</time></trkpt><trkpt lat="46.1402375" lon="9.434549"><ele>201.4</ele><time>2026-03-25T10:27:02.131Z</time></trkpt><trkpt lat="46.1402757" lon="9.4344191"><ele>201.6</ele><time>2026-03-25T10:27:04.133Z</time></trkpt><trkpt lat="46.1403324" lon="9.4342837"><ele>201.8</ele><time>2026-03-25T10:27:06.132Z</time></trkpt><trkpt lat="46.1403931" lon="9.434175"><ele>202.0</ele><time>2026-03-25T10:27:08.131Z</time></trkpt><trkpt lat="46.1404658" lon="9.4341105"><ele>202.0</ele><time>2026-03-25T10:27:10.133Z</time></trkpt><trkpt lat="46.1405581" lon="9.4341053"><ele>202.0</ele><time>2026-03-25T10:27:12.134Z</time></trkpt><trkpt lat="46.1406642" lon="9.4341012"><ele>202.0</ele><time>2026-03-25T10:27:14.132Z</time></trkpt><trkpt lat="46.1407722" lon="9.4341379"><ele>202.0</ele><time>2026-03-25T10:27:16.132Z</time></trkpt><trkpt lat="46.1408706" lon="9.4341563"><ele>202.0</ele><time>2026-03-25T10:27:18.133Z</time></trkpt><trkpt lat="46.1409761" lon="9.4341744"><ele>201.8</ele><time>2026-03-25T10:27:20.133Z</time></trkpt><trkpt lat="46.1410434" lon="9.4341797"><ele>201.6</ele><time>2026-03-25T10:27:21.133Z</time></trkpt><trkpt lat="46.1411574" lon="9.4341718"><ele>201.4</ele><time>2026-03-25T10:27:23.133Z</time></trkpt><trkpt lat="46.1412832" lon="9.4341709"><ele>201.20000000000002</ele><time>2026-03-25T10:27:25.133Z</time></trkpt><trkpt lat="46.1413491" lon="9.4341722"><ele>201.0</ele><time>2026-03-25T10:27:26.133Z</time></trkpt><trkpt lat="46.1414732" lon="9.4341689"><ele>201.0</ele><time>2026-03-25T10:27:28.133Z</time></trkpt><trkpt lat="46.1415859" lon="9.434165"><ele>201.0</ele><time>2026-03-25T10:27:30.132Z</time></trkpt><trkpt lat="46.1416519" lon="9.4341667"><ele>201.0</ele><time>2026-03-25T10:27:31.133Z</time></trkpt><trkpt lat="46.1417701" lon="9.4341721"><ele>201.0</ele><time>2026-03-25T10:27:33.133Z</time></trkpt><trkpt lat="46.1418751" lon="9.4341623"><ele>201.0</ele><time>2026-03-25T10:27:35.132Z</time></trkpt><trkpt lat="46.1419828" lon="9.4341643"><ele>201.0</ele><time>2026-03-25T10:27:37.133Z</time></trkpt><trkpt lat="46.142089" lon="9.4341723"><ele>201.0</ele><time>2026-03-25T10:27:39.132Z</time></trkpt><trkpt lat="46.142207" lon="9.4341769"><ele>201.0</ele><time>2026-03-25T10:27:41.133Z</time></trkpt><trkpt lat="46.1423187" lon="9.4341821"><ele>201.0</ele><time>2026-03-25T10:27:43.133Z</time></trkpt><trkpt lat="46.142426" lon="9.434184"><ele>201.0</ele><time>2026-03-25T10:27:45.133Z</time></trkpt><trkpt lat="46.1425322" lon="9.434166"><ele>201.0</ele><time>2026-03-25T10:27:47.132Z</time></trkpt><trkpt lat="46.1426104" lon="9.4340725"><ele>201.0</ele><time>2026-03-25T10:27:49.133Z</time></trkpt><trkpt lat="46.1426733" lon="9.4339306"><ele>201.0</ele><time>2026-03-25T10:27:51.134Z</time></trkpt><trkpt lat="46.1427217" lon="9.4337817"><ele>201.0</ele><time>2026-03-25T10:27:53.133Z</time></trkpt><trkpt lat="46.1427745" lon="9.4336392"><ele>201.0</ele><time>2026-03-25T10:27:55.133Z</time></trkpt><trkpt lat="46.1428095" lon="9.4334997"><ele>201.20000000000002</ele><time>2026-03-25T10:27:57.132Z</time></trkpt><trkpt lat="46.1428571" lon="9.4333468"><ele>201.4</ele><time>2026-03-25T10:27:59.134Z</time></trkpt><trkpt lat="46.142898" lon="9.4331978"><ele>201.6</ele><time>2026-03-25T10:28:01.134Z</time></trkpt><trkpt lat="46.1429203" lon="9.4331063"><ele>201.8</ele><time>2026-03-25T10:28:02.132Z</time></trkpt><trkpt lat="46.1429566" lon="9.4329499"><ele>202.0</ele><time>2026-03-25T10:28:04.131Z</time></trkpt><trkpt lat="46.1430014" lon="9.4327916"><ele>201.8</ele><time>2026-03-25T10:28:06.134Z</time></trkpt><trkpt lat="46.1430478" lon="9.4326445"><ele>201.6</ele><time>2026-03-25T10:28:08.132Z</time></trkpt><trkpt lat="46.1430887" lon="9.4324973"><ele>201.4</ele><time>2026-03-25T10:28:10.133Z</time></trkpt><trkpt lat="46.1431252" lon="9.4323562"><ele>201.20000000000002</ele><time>2026-03-25T10:28:12.133Z</time></trkpt><trkpt lat="46.1431388" lon="9.432214"><ele>201.0</ele><time>2026-03-25T10:28:14.133Z</time></trkpt><trkpt lat="46.1431912" lon="9.4320611"><ele>200.8</ele><time>2026-03-25T10:28:16.131Z</time></trkpt><trkpt lat="46.1432393" lon="9.4319207"><ele>200.60000000000002</ele><time>2026-03-25T10:28:18.134Z</time></trkpt><trkpt lat="46.1432938" lon="9.43177"><ele>200.4</ele><time>2026-03-25T10:28:20.133Z</time></trkpt><trkpt lat="46.1433485" lon="9.4316324"><ele>200.2</ele><time>2026-03-25T10:28:22.133Z</time></trkpt><trkpt lat="46.1433959" lon="9.4314992"><ele>200.0</ele><time>2026-03-25T10:28:24.134Z</time></trkpt><trkpt lat="46.1434493" lon="9.4313627"><ele>200.2</ele><time>2026-03-25T10:28:26.133Z</time></trkpt><trkpt lat="46.1435097" lon="9.4312185"><ele>200.4</ele><time>2026-03-25T10:28:28.133Z</time></trkpt><trkpt lat="46.1435634" lon="9.4310907"><ele>200.60000000000002</ele><time>2026-03-25T10:28:30.132Z</time></trkpt><trkpt lat="46.1436217" lon="9.4309455"><ele>200.8</ele><time>2026-03-25T10:28:32.134Z</time></trkpt><trkpt lat="46.1436849" lon="9.4308156"><ele>201.0</ele><time>2026-03-25T10:28:34.133Z</time></trkpt><trkpt lat="46.1437397" lon="9.4306698"><ele>201.0</ele><time>2026-03-25T10:28:36.132Z</time></trkpt><trkpt lat="46.1437967" lon="9.4305162"><ele>201.0</ele><time>2026-03-25T10:28:38.133Z</time></trkpt><trkpt lat="46.1438574" lon="9.4303801"><ele>201.0</ele><time>2026-03-25T10:28:40.133Z</time></trkpt><trkpt lat="46.1439168" lon="9.4302447"><ele>201.0</ele><time>2026-03-25T10:28:42.131Z</time></trkpt><trkpt lat="46.1439702" lon="9.4301025"><ele>201.0</ele><time>2026-03-25T10:28:44.133Z</time></trkpt><trkpt lat="46.1440098" lon="9.4299568"><ele>201.0</ele><time>2026-03-25T10:28:46.134Z</time></trkpt><trkpt lat="46.1440597" lon="9.4298318"><ele>201.0</ele><time>2026-03-25T10:28:48.132Z</time></trkpt><trkpt lat="46.1441065" lon="9.4296888"><ele>201.0</ele><time>2026-03-25T10:28:50.133Z</time></trkpt><trkpt lat="46.1441557" lon="9.4295559"><ele>201.0</ele><time>2026-03-25T10:28:52.131Z</time></trkpt><trkpt lat="46.1442192" lon="9.4294079"><ele>200.8</ele><time>2026-03-25T10:28:54.132Z</time></trkpt><trkpt lat="46.1442663" lon="9.4292682"><ele>200.60000000000002</ele><time>2026-03-25T10:28:56.132Z</time></trkpt><trkpt lat="46.144318" lon="9.4291411"><ele>200.4</ele><time>2026-03-25T10:28:58.132Z</time></trkpt><trkpt lat="46.1443738" lon="9.4290217"><ele>200.2</ele><time>2026-03-25T10:29:00.133Z</time></trkpt><trkpt lat="46.1444281" lon="9.4288967"><ele>200.0</ele><time>2026-03-25T10:29:02.133Z</time></trkpt><trkpt lat="46.14448" lon="9.4287483"><ele>200.4</ele><time>2026-03-25T10:29:04.132Z</time></trkpt><trkpt lat="46.1445291" lon="9.4286169"><ele>200.8</ele><time>2026-03-25T10:29:06.131Z</time></trkpt><trkpt lat="46.1445875" lon="9.4284844"><ele>201.2</ele><time>2026-03-25T10:29:08.132Z</time></trkpt><trkpt lat="46.1446466" lon="9.4283498"><ele>201.6</ele><time>2026-03-25T10:29:10.133Z</time></trkpt><trkpt lat="46.1447192" lon="9.4282082"><ele>202.0</ele><time>2026-03-25T10:29:12.132Z</time></trkpt><trkpt lat="46.1447749" lon="9.4280749"><ele>202.0</ele><time>2026-03-25T10:29:14.132Z</time></trkpt><trkpt lat="46.1448402" lon="9.4279403"><ele>202.0</ele><time>2026-03-25T10:29:16.133Z</time></trkpt><trkpt lat="46.1448971" lon="9.4278022"><ele>202.0</ele><time>2026-03-25T10:29:18.132Z</time></trkpt><trkpt lat="46.1449474" lon="9.4276688"><ele>202.0</ele><time>2026-03-25T10:29:20.134Z</time></trkpt><trkpt lat="46.1449678" lon="9.4275215"><ele>202.0</ele><time>2026-03-25T10:29:22.132Z</time></trkpt><trkpt lat="46.1449957" lon="9.4273728"><ele>202.0</ele><time>2026-03-25T10:29:24.133Z</time></trkpt><trkpt lat="46.144992" lon="9.4272231"><ele>202.0</ele><time>2026-03-25T10:29:26.133Z</time></trkpt><trkpt lat="46.1449761" lon="9.4270867"><ele>202.0</ele><time>2026-03-25T10:29:28.134Z</time></trkpt><trkpt lat="46.1448655" lon="9.4270075"><ele>202.0</ele><time>2026-03-25T10:29:30.131Z</time></trkpt><trkpt lat="46.1447859" lon="9.4269092"><ele>202.0</ele><time>2026-03-25T10:29:32.132Z</time></trkpt><trkpt lat="46.1447771" lon="9.4267587"><ele>202.25</ele><time>2026-03-25T10:29:34.134Z</time></trkpt><trkpt lat="46.1447516" lon="9.4265905"><ele>202.5</ele><time>2026-03-25T10:29:36.132Z</time></trkpt><trkpt lat="46.1447385" lon="9.4264305"><ele>202.75</ele><time>2026-03-25T10:29:38.133Z</time></trkpt><trkpt lat="46.1446574" lon="9.4263198"><ele>203.0</ele><time>2026-03-25T10:29:40.134Z</time></trkpt><trkpt lat="46.1445584" lon="9.4262337"><ele>203.00000000000003</ele><time>2026-03-25T10:29:42.132Z</time></trkpt><trkpt lat="46.1444869" lon="9.426236"><ele>203.0</ele><time>2026-03-25T10:29:43.134Z</time></trkpt><trkpt lat="46.1443683" lon="9.4262395"><ele>203.0</ele><time>2026-03-25T10:29:45.133Z</time></trkpt><trkpt lat="46.1442444" lon="9.426262"><ele>203.0</ele><time>2026-03-25T10:29:47.133Z</time></trkpt><trkpt lat="46.1441818" lon="9.4262754"><ele>203.00000000000003</ele><time>2026-03-25T10:29:48.133Z</time></trkpt><trkpt lat="46.1441129" lon="9.4262979"><ele>203.0</ele><time>2026-03-25T10:29:49.133Z</time></trkpt><trkpt lat="46.1440367" lon="9.4263158"><ele>203.0</ele><time>2026-03-25T10:29:50.134Z</time></trkpt><trkpt lat="46.1439742" lon="9.4263299"><ele>203.0</ele><time>2026-03-25T10:29:51.133Z</time></trkpt><trkpt lat="46.1438603" lon="9.4263468"><ele>203.0</ele><time>2026-03-25T10:29:53.134Z</time></trkpt><trkpt lat="46.1437535" lon="9.4263724"><ele>203.0</ele><time>2026-03-25T10:29:55.134Z</time></trkpt><trkpt lat="46.1436862" lon="9.4263916"><ele>203.0</ele><time>2026-03-25T10:29:56.134Z</time></trkpt><trkpt lat="46.1435823" lon="9.4264112"><ele>203.0</ele><time>2026-03-25T10:29:58.133Z</time></trkpt><trkpt lat="46.1434635" lon="9.4264195"><ele>203.0</ele><time>2026-03-25T10:30:00.132Z</time></trkpt><trkpt lat="46.1432866" lon="9.4264343"><ele>203.0</ele><time>2026-03-25T10:30:03.133Z</time></trkpt><trkpt lat="46.1432192" lon="9.4264431"><ele>203.0</ele><time>2026-03-25T10:30:04.133Z</time></trkpt><trkpt lat="46.1430975" lon="9.4264511"><ele>203.0</ele><time>2026-03-25T10:30:06.134Z</time></trkpt><trkpt lat="46.1430321" lon="9.4264553"><ele>203.0</ele><time>2026-03-25T10:30:07.133Z</time></trkpt><trkpt lat="46.142909" lon="9.4264268"><ele>203.0</ele><time>2026-03-25T10:30:09.133Z</time></trkpt><trkpt lat="46.1427823" lon="9.4264012"><ele>203.0</ele><time>2026-03-25T10:30:11.133Z</time></trkpt><trkpt lat="46.1426676" lon="9.4263703"><ele>203.0</ele><time>2026-03-25T10:30:13.133Z</time></trkpt><trkpt lat="46.1425489" lon="9.4263594"><ele>203.00000000000003</ele><time>2026-03-25T10:30:15.132Z</time></trkpt><trkpt lat="46.1424805" lon="9.4263179"><ele>203.0</ele><time>2026-03-25T10:30:17.133Z</time></trkpt><trkpt lat="46.142439" lon="9.4262294"><ele>203.0</ele><time>2026-03-25T10:30:20.133Z</time></trkpt><trkpt lat="46.1424504" lon="9.4261234"><ele>203.0</ele><time>2026-03-25T10:30:22.133Z</time></trkpt><trkpt lat="46.1424751" lon="9.4260057"><ele>203.00000000000003</ele><time>2026-03-25T10:30:24.133Z</time></trkpt><trkpt lat="46.1425195" lon="9.4259326"><ele>203.0</ele><time>2026-03-25T10:30:25.133Z</time></trkpt><trkpt lat="46.1425587" lon="9.4258166"><ele>202.66666666666669</ele><time>2026-03-25T10:30:27.134Z</time></trkpt><trkpt lat="46.1425919" lon="9.4257024"><ele>202.33333333333334</ele><time>2026-03-25T10:30:29.134Z</time></trkpt><trkpt lat="46.1426148" lon="9.4255961"><ele>202.0</ele><time>2026-03-25T10:30:31.132Z</time></trkpt><trkpt lat="46.1426532" lon="9.425513"><ele>201.66666666666669</ele><time>2026-03-25T10:30:33.132Z</time></trkpt><trkpt lat="46.1426885" lon="9.4254219"><ele>201.33333333333334</ele><time>2026-03-25T10:30:35.134Z</time></trkpt><trkpt lat="46.1427113" lon="9.4253151"><ele>201.0</ele><time>2026-03-25T10:30:37.132Z</time></trkpt><trkpt lat="46.1427388" lon="9.4252064"><ele>200.83333333333334</ele><time>2026-03-25T10:30:39.134Z</time></trkpt><trkpt lat="46.142765" lon="9.4250922"><ele>200.66666666666669</ele><time>2026-03-25T10:30:41.132Z</time></trkpt><trkpt lat="46.1427949" lon="9.4249779"><ele>200.5</ele><time>2026-03-25T10:30:43.132Z</time></trkpt><trkpt lat="46.1428236" lon="9.424862"><ele>200.33333333333334</ele><time>2026-03-25T10:30:45.132Z</time></trkpt><trkpt lat="46.1428629" lon="9.4247607"><ele>200.16666666666669</ele><time>2026-03-25T10:30:47.134Z</time></trkpt><trkpt lat="46.1428953" lon="9.4246419"><ele>200.0</ele><time>2026-03-25T10:30:49.133Z</time></trkpt><trkpt lat="46.1429328" lon="9.4245158"><ele>200.0</ele><time>2026-03-25T10:30:51.133Z</time></trkpt><trkpt lat="46.142976" lon="9.4243923"><ele>200.0</ele><time>2026-03-25T10:30:53.132Z</time></trkpt><trkpt lat="46.1430097" lon="9.4242655"><ele>200.0</ele><time>2026-03-25T10:30:55.133Z</time></trkpt><trkpt lat="46.1430498" lon="9.4241094"><ele>200.0</ele><time>2026-03-25T10:30:57.133Z</time></trkpt><trkpt lat="46.1430896" lon="9.4239859"><ele>200.0</ele><time>2026-03-25T10:30:59.132Z</time></trkpt><trkpt lat="46.1431304" lon="9.4238672"><ele>200.2</ele><time>2026-03-25T10:31:01.133Z</time></trkpt><trkpt lat="46.1431618" lon="9.4237569"><ele>200.4</ele><time>2026-03-25T10:31:03.133Z</time></trkpt><trkpt lat="46.1431949" lon="9.4236118"><ele>200.60000000000002</ele><time>2026-03-25T10:31:05.134Z</time></trkpt><trkpt lat="46.1432337" lon="9.423483"><ele>200.8</ele><time>2026-03-25T10:31:07.134Z</time></trkpt><trkpt lat="46.143284" lon="9.423353"><ele>201.0</ele><time>2026-03-25T10:31:09.132Z</time></trkpt><trkpt lat="46.1433231" lon="9.4232194"><ele>201.0</ele><time>2026-03-25T10:31:11.134Z</time></trkpt><trkpt lat="46.143347" lon="9.4230695"><ele>201.0</ele><time>2026-03-25T10:31:13.134Z</time></trkpt><trkpt lat="46.1433817" lon="9.4229371"><ele>201.0</ele><time>2026-03-25T10:31:15.134Z</time></trkpt><trkpt lat="46.1434199" lon="9.4228093"><ele>201.0</ele><time>2026-03-25T10:31:17.133Z</time></trkpt><trkpt lat="46.1434646" lon="9.4226658"><ele>201.0</ele><time>2026-03-25T10:31:19.134Z</time></trkpt><trkpt lat="46.143497" lon="9.4225386"><ele>201.20000000000002</ele><time>2026-03-25T10:31:21.134Z</time></trkpt><trkpt lat="46.143542" lon="9.4223946"><ele>201.4</ele><time>2026-03-25T10:31:23.133Z</time></trkpt><trkpt lat="46.1435892" lon="9.4222592"><ele>201.6</ele><time>2026-03-25T10:31:25.132Z</time></trkpt><trkpt lat="46.1436113" lon="9.4221375"><ele>201.8</ele><time>2026-03-25T10:31:27.134Z</time></trkpt><trkpt lat="46.1436438" lon="9.4220131"><ele>202.0</ele><time>2026-03-25T10:31:29.135Z</time></trkpt><trkpt lat="46.1436717" lon="9.421927"><ele>201.99999999999997</ele><time>2026-03-25T10:31:31.133Z</time></trkpt><trkpt lat="46.1437032" lon="9.4218171"><ele>202.0</ele><time>2026-03-25T10:31:34.134Z</time></trkpt><trkpt lat="46.143731" lon="9.4217205"><ele>202.0</ele><time>2026-03-25T10:31:36.133Z</time></trkpt><trkpt lat="46.1437772" lon="9.4216175"><ele>202.0</ele><time>2026-03-25T10:31:38.133Z</time></trkpt><trkpt lat="46.1438292" lon="9.4214968"><ele>201.99999999999997</ele><time>2026-03-25T10:31:40.134Z</time></trkpt><trkpt lat="46.1438689" lon="9.4213713"><ele>202.0</ele><time>2026-03-25T10:31:42.134Z</time></trkpt><trkpt lat="46.1439054" lon="9.4212496"><ele>202.0</ele><time>2026-03-25T10:31:44.133Z</time></trkpt><trkpt lat="46.143939" lon="9.4211281"><ele>202.0</ele><time>2026-03-25T10:31:46.132Z</time></trkpt><trkpt lat="46.1439634" lon="9.4210143"><ele>202.0</ele><time>2026-03-25T10:31:48.134Z</time></trkpt><trkpt lat="46.1440152" lon="9.4208802"><ele>202.0</ele><time>2026-03-25T10:31:50.133Z</time></trkpt><trkpt lat="46.1440576" lon="9.4207551"><ele>202.0</ele><time>2026-03-25T10:31:52.132Z</time></trkpt><trkpt lat="46.1441008" lon="9.420608"><ele>201.39999999999998</ele><time>2026-03-25T10:31:54.133Z</time></trkpt><trkpt lat="46.1441358" lon="9.4204654"><ele>200.79999999999998</ele><time>2026-03-25T10:31:56.133Z</time></trkpt><trkpt lat="46.1441561" lon="9.4203462"><ele>200.2</ele><time>2026-03-25T10:31:58.133Z</time></trkpt><trkpt lat="46.1441622" lon="9.4202045"><ele>199.6</ele><time>2026-03-25T10:32:00.134Z</time></trkpt><trkpt lat="46.1441585" lon="9.4200596"><ele>199.0</ele><time>2026-03-25T10:32:02.135Z</time></trkpt><trkpt lat="46.1441535" lon="9.41991"><ele>199.0</ele><time>2026-03-25T10:32:04.135Z</time></trkpt><trkpt lat="46.1441344" lon="9.4197664"><ele>199.0</ele><time>2026-03-25T10:32:06.133Z</time></trkpt><trkpt lat="46.144127" lon="9.4196343"><ele>199.0</ele><time>2026-03-25T10:32:08.133Z</time></trkpt><trkpt lat="46.1441085" lon="9.4194884"><ele>199.0</ele><time>2026-03-25T10:32:10.133Z</time></trkpt><trkpt lat="46.1440961" lon="9.4193392"><ele>199.0</ele><time>2026-03-25T10:32:12.132Z</time></trkpt><trkpt lat="46.1440908" lon="9.4191737"><ele>199.0</ele><time>2026-03-25T10:32:14.134Z</time></trkpt><trkpt lat="46.1440648" lon="9.4189967"><ele>199.0</ele><time>2026-03-25T10:32:16.133Z</time></trkpt><trkpt lat="46.1440246" lon="9.4188355"><ele>199.0</ele><time>2026-03-25T10:32:18.132Z</time></trkpt><trkpt lat="46.1439854" lon="9.4187013"><ele>199.0</ele><time>2026-03-25T10:32:20.133Z</time></trkpt><trkpt lat="46.143931" lon="9.4185582"><ele>199.0</ele><time>2026-03-25T10:32:22.134Z</time></trkpt><trkpt lat="46.1438381" lon="9.418439"><ele>199.0</ele><time>2026-03-25T10:32:24.134Z</time></trkpt><trkpt lat="46.1437474" lon="9.4183612"><ele>199.0</ele><time>2026-03-25T10:32:26.133Z</time></trkpt><trkpt lat="46.1436417" lon="9.418291"><ele>199.0</ele><time>2026-03-25T10:32:28.133Z</time></trkpt><trkpt lat="46.1435697" lon="9.4181911"><ele>199.0</ele><time>2026-03-25T10:32:30.132Z</time></trkpt><trkpt lat="46.1435578" lon="9.418053"><ele>199.0</ele><time>2026-03-25T10:32:32.133Z</time></trkpt><trkpt lat="46.1435548" lon="9.4179171"><ele>199.0</ele><time>2026-03-25T10:32:34.133Z</time></trkpt><trkpt lat="46.1435508" lon="9.4177653"><ele>199.0</ele><time>2026-03-25T10:32:36.133Z</time></trkpt><trkpt lat="46.1435416" lon="9.417603"><ele>199.0</ele><time>2026-03-25T10:32:38.135Z</time></trkpt><trkpt lat="46.1435398" lon="9.4175041"><ele>199.0</ele><time>2026-03-25T10:32:39.134Z</time></trkpt><trkpt lat="46.1435058" lon="9.4173529"><ele>199.0</ele><time>2026-03-25T10:32:41.134Z</time></trkpt><trkpt lat="46.1434731" lon="9.4171845"><ele>199.0</ele><time>2026-03-25T10:32:43.133Z</time></trkpt><trkpt lat="46.143416" lon="9.4170491"><ele>199.0</ele><time>2026-03-25T10:32:45.132Z</time></trkpt><trkpt lat="46.1433495" lon="9.4169406"><ele>199.0</ele><time>2026-03-25T10:32:47.134Z</time></trkpt><trkpt lat="46.1432806" lon="9.416844"><ele>199.0</ele><time>2026-03-25T10:32:49.133Z</time></trkpt><trkpt lat="46.1432106" lon="9.4167351"><ele>199.33333333333331</ele><time>2026-03-25T10:32:51.133Z</time></trkpt><trkpt lat="46.1431594" lon="9.4166163"><ele>199.66666666666666</ele><time>2026-03-25T10:32:53.133Z</time></trkpt><trkpt lat="46.1431496" lon="9.4164893"><ele>200.0</ele><time>2026-03-25T10:32:55.134Z</time></trkpt><trkpt lat="46.1431735" lon="9.4163672"><ele>200.33333333333331</ele><time>2026-03-25T10:32:57.133Z</time></trkpt><trkpt lat="46.1432062" lon="9.4162368"><ele>200.66666666666666</ele><time>2026-03-25T10:32:59.134Z</time></trkpt><trkpt lat="46.1432207" lon="9.4161355"><ele>201.0</ele><time>2026-03-25T10:33:01.134Z</time></trkpt><trkpt lat="46.1431769" lon="9.4160658"><ele>201.0</ele><time>2026-03-25T10:33:27.134Z</time></trkpt><trkpt lat="46.1431293" lon="9.4159645"><ele>201.0</ele><time>2026-03-25T10:33:30.134Z</time></trkpt><trkpt lat="46.1430968" lon="9.4158518"><ele>201.0</ele><time>2026-03-25T10:33:32.134Z</time></trkpt><trkpt lat="46.1430746" lon="9.415715"><ele>201.0</ele><time>2026-03-25T10:33:34.135Z</time></trkpt><trkpt lat="46.1430492" lon="9.415578"><ele>201.0</ele><time>2026-03-25T10:33:36.133Z</time></trkpt><trkpt lat="46.1429881" lon="9.4154365"><ele>201.0</ele><time>2026-03-25T10:33:38.133Z</time></trkpt><trkpt lat="46.1429428" lon="9.4153639"><ele>201.0</ele><time>2026-03-25T10:33:39.133Z</time></trkpt><trkpt lat="46.1428421" lon="9.4152934"><ele>201.0</ele><time>2026-03-25T10:33:41.133Z</time></trkpt><trkpt lat="46.1427785" lon="9.4152833"><ele>201.0</ele><time>2026-03-25T10:33:42.135Z</time></trkpt><trkpt lat="46.142714" lon="9.4152947"><ele>201.0</ele><time>2026-03-25T10:33:43.135Z</time></trkpt><trkpt lat="46.1426042" lon="9.4153458"><ele>201.0</ele><time>2026-03-25T10:33:45.133Z</time></trkpt><trkpt lat="46.1425384" lon="9.4154782"><ele>201.0</ele><time>2026-03-25T10:33:47.133Z</time></trkpt><trkpt lat="46.1424975" lon="9.4156356"><ele>201.0</ele><time>2026-03-25T10:33:49.134Z</time></trkpt><trkpt lat="46.1424879" lon="9.4157846"><ele>201.0</ele><time>2026-03-25T10:33:51.134Z</time></trkpt><trkpt lat="46.1424454" lon="9.41593"><ele>201.0</ele><time>2026-03-25T10:33:53.134Z</time></trkpt><trkpt lat="46.1423544" lon="9.4160287"><ele>201.0</ele><time>2026-03-25T10:33:55.132Z</time></trkpt><trkpt lat="46.1422438" lon="9.416114"><ele>201.0</ele><time>2026-03-25T10:33:57.134Z</time></trkpt><trkpt lat="46.1421855" lon="9.4161589"><ele>201.0</ele><time>2026-03-25T10:33:58.133Z</time></trkpt><trkpt lat="46.1420681" lon="9.416218"><ele>201.0</ele><time>2026-03-25T10:34:00.134Z</time></trkpt><trkpt lat="46.1419561" lon="9.4162075"><ele>201.0</ele><time>2026-03-25T10:34:02.135Z</time></trkpt><trkpt lat="46.1418606" lon="9.4162464"><ele>201.0</ele><time>2026-03-25T10:34:04.134Z</time></trkpt><trkpt lat="46.1417834" lon="9.4163428"><ele>201.20000000000002</ele><time>2026-03-25T10:34:06.134Z</time></trkpt><trkpt lat="46.1417501" lon="9.4164927"><ele>201.4</ele><time>2026-03-25T10:34:08.132Z</time></trkpt><trkpt lat="46.141772" lon="9.4166482"><ele>201.6</ele><time>2026-03-25T10:34:10.134Z</time></trkpt><trkpt lat="46.1418283" lon="9.4168116"><ele>201.8</ele><time>2026-03-25T10:34:12.133Z</time></trkpt><trkpt lat="46.1418474" lon="9.4169045"><ele>202.0</ele><time>2026-03-25T10:34:13.135Z</time></trkpt><trkpt lat="46.1418622" lon="9.4169944"><ele>202.2</ele><time>2026-03-25T10:34:14.135Z</time></trkpt><trkpt lat="46.1418443" lon="9.4171764"><ele>202.39999999999998</ele><time>2026-03-25T10:34:16.134Z</time></trkpt><trkpt lat="46.1418163" lon="9.4173512"><ele>202.60000000000002</ele><time>2026-03-25T10:34:18.134Z</time></trkpt><trkpt lat="46.1418023" lon="9.4174408"><ele>202.8</ele><time>2026-03-25T10:34:19.133Z</time></trkpt><trkpt lat="46.1417672" lon="9.4176195"><ele>203.0</ele><time>2026-03-25T10:34:21.134Z</time></trkpt><trkpt lat="46.1417292" lon="9.4177672"><ele>203.0</ele><time>2026-03-25T10:34:23.135Z</time></trkpt><trkpt lat="46.1416453" lon="9.417844"><ele>203.0</ele><time>2026-03-25T10:34:25.134Z</time></trkpt><trkpt lat="46.1415443" lon="9.4179017"><ele>203.0</ele><time>2026-03-25T10:34:27.134Z</time></trkpt><trkpt lat="46.1414276" lon="9.417926"><ele>203.0</ele><time>2026-03-25T10:34:29.134Z</time></trkpt><trkpt lat="46.1413103" lon="9.417933"><ele>203.0</ele><time>2026-03-25T10:34:31.134Z</time></trkpt><trkpt lat="46.1412443" lon="9.4179107"><ele>203.8</ele><time>2026-03-25T10:34:32.134Z</time></trkpt><trkpt lat="46.1411806" lon="9.4179162"><ele>204.60000000000002</ele><time>2026-03-25T10:34:33.132Z</time></trkpt><trkpt lat="46.1410581" lon="9.417926"><ele>205.39999999999998</ele><time>2026-03-25T10:34:35.133Z</time></trkpt><trkpt lat="46.1409937" lon="9.4179331"><ele>206.2</ele><time>2026-03-25T10:34:36.133Z</time></trkpt><trkpt lat="46.1408639" lon="9.417931"><ele>207.0</ele><time>2026-03-25T10:34:38.134Z</time></trkpt><trkpt lat="46.1407471" lon="9.4179538"><ele>206.8</ele><time>2026-03-25T10:34:40.134Z</time></trkpt><trkpt lat="46.1406285" lon="9.4179791"><ele>206.6</ele><time>2026-03-25T10:34:42.135Z</time></trkpt><trkpt lat="46.1405025" lon="9.4179825"><ele>206.4</ele><time>2026-03-25T10:34:44.133Z</time></trkpt><trkpt lat="46.1403957" lon="9.4180211"><ele>206.20000000000002</ele><time>2026-03-25T10:34:46.135Z</time></trkpt><trkpt lat="46.14032" lon="9.4180191"><ele>206.0</ele><time>2026-03-25T10:34:47.134Z</time></trkpt><trkpt lat="46.140195" lon="9.4180217"><ele>206.00000000000003</ele><time>2026-03-25T10:34:49.133Z</time></trkpt><trkpt lat="46.1401232" lon="9.4180261"><ele>206.0</ele><time>2026-03-25T10:34:50.134Z</time></trkpt><trkpt lat="46.1400565" lon="9.4180262"><ele>206.0</ele><time>2026-03-25T10:34:51.135Z</time></trkpt><trkpt lat="46.1399886" lon="9.4179838"><ele>206.0</ele><time>2026-03-25T10:34:52.133Z</time></trkpt><trkpt lat="46.1398791" lon="9.4179"><ele>206.00000000000003</ele><time>2026-03-25T10:34:54.135Z</time></trkpt><trkpt lat="46.1398126" lon="9.4178625"><ele>206.0</ele><time>2026-03-25T10:34:55.132Z</time></trkpt><trkpt lat="46.1397515" lon="9.4178238"><ele>205.60000000000002</ele><time>2026-03-25T10:34:56.134Z</time></trkpt><trkpt lat="46.139686" lon="9.4177925"><ele>205.2</ele><time>2026-03-25T10:34:57.133Z</time></trkpt><trkpt lat="46.1395664" lon="9.4177884"><ele>204.8</ele><time>2026-03-25T10:34:59.134Z</time></trkpt><trkpt lat="46.1394537" lon="9.4178027"><ele>204.39999999999998</ele><time>2026-03-25T10:35:01.134Z</time></trkpt><trkpt lat="46.1393318" lon="9.4178109"><ele>204.0</ele><time>2026-03-25T10:35:03.133Z</time></trkpt><trkpt lat="46.1392119" lon="9.4178221"><ele>204.0</ele><time>2026-03-25T10:35:05.134Z</time></trkpt><trkpt lat="46.1391474" lon="9.4178379"><ele>204.0</ele><time>2026-03-25T10:35:06.134Z</time></trkpt><trkpt lat="46.1390836" lon="9.4178538"><ele>204.0</ele><time>2026-03-25T10:35:07.133Z</time></trkpt><trkpt lat="46.1389613" lon="9.4178656"><ele>204.0</ele><time>2026-03-25T10:35:09.134Z</time></trkpt><trkpt lat="46.1388482" lon="9.4178928"><ele>204.0</ele><time>2026-03-25T10:35:11.134Z</time></trkpt><trkpt lat="46.1387271" lon="9.4179034"><ele>206.75</ele><time>2026-03-25T10:35:13.134Z</time></trkpt><trkpt lat="46.138614" lon="9.4179044"><ele>209.5</ele><time>2026-03-25T10:35:15.133Z</time></trkpt><trkpt lat="46.1385001" lon="9.4178573"><ele>212.25</ele><time>2026-03-25T10:35:17.132Z</time></trkpt><trkpt lat="46.1384697" lon="9.4177186"><ele>215.0</ele><time>2026-03-25T10:35:19.134Z</time></trkpt><trkpt lat="46.1384536" lon="9.4175487"><ele>215.0</ele><time>2026-03-25T10:35:21.133Z</time></trkpt><trkpt lat="46.1384128" lon="9.4173972"><ele>215.0</ele><time>2026-03-25T10:35:23.134Z</time></trkpt><trkpt lat="46.1383709" lon="9.417257"><ele>215.0</ele><time>2026-03-25T10:35:25.133Z</time></trkpt><trkpt lat="46.1383145" lon="9.4171286"><ele>215.0</ele><time>2026-03-25T10:35:27.135Z</time></trkpt><trkpt lat="46.138262" lon="9.4169987"><ele>215.0</ele><time>2026-03-25T10:35:29.134Z</time></trkpt><trkpt lat="46.1382034" lon="9.4168718"><ele>216.4</ele><time>2026-03-25T10:35:31.133Z</time></trkpt><trkpt lat="46.1381462" lon="9.4167421"><ele>217.8</ele><time>2026-03-25T10:35:33.133Z</time></trkpt><trkpt lat="46.1380858" lon="9.416595"><ele>219.2</ele><time>2026-03-25T10:35:35.133Z</time></trkpt><trkpt lat="46.138037" lon="9.4164501"><ele>220.6</ele><time>2026-03-25T10:35:37.134Z</time></trkpt><trkpt lat="46.1379804" lon="9.4163129"><ele>222.0</ele><time>2026-03-25T10:35:39.134Z</time></trkpt><trkpt lat="46.1379444" lon="9.4162359"><ele>222.0</ele><time>2026-03-25T10:35:40.133Z</time></trkpt><trkpt lat="46.1378973" lon="9.4161006"><ele>222.0</ele><time>2026-03-25T10:35:42.135Z</time></trkpt><trkpt lat="46.1378372" lon="9.4159692"><ele>222.0</ele><time>2026-03-25T10:35:44.134Z</time></trkpt><trkpt lat="46.1377761" lon="9.415836"><ele>222.0</ele><time>2026-03-25T10:35:46.135Z</time></trkpt><trkpt lat="46.1377297" lon="9.4157027"><ele>222.0</ele><time>2026-03-25T10:35:48.134Z</time></trkpt><trkpt lat="46.137676" lon="9.4155484"><ele>219.2</ele><time>2026-03-25T10:35:50.134Z</time></trkpt><trkpt lat="46.1376219" lon="9.4154247"><ele>216.39999999999998</ele><time>2026-03-25T10:35:52.134Z</time></trkpt><trkpt lat="46.1375654" lon="9.415291"><ele>213.60000000000002</ele><time>2026-03-25T10:35:54.135Z</time></trkpt><trkpt lat="46.1375083" lon="9.4151545"><ele>210.8</ele><time>2026-03-25T10:35:56.133Z</time></trkpt><trkpt lat="46.137449" lon="9.4150262"><ele>208.0</ele><time>2026-03-25T10:35:58.134Z</time></trkpt><trkpt lat="46.1373927" lon="9.4148948"><ele>214.2</ele><time>2026-03-25T10:36:00.134Z</time></trkpt><trkpt lat="46.1373427" lon="9.4147453"><ele>220.4</ele><time>2026-03-25T10:36:02.134Z</time></trkpt><trkpt lat="46.1372821" lon="9.4146087"><ele>226.59999999999997</ele><time>2026-03-25T10:36:04.133Z</time></trkpt><trkpt lat="46.1372375" lon="9.41448"><ele>232.79999999999998</ele><time>2026-03-25T10:36:06.134Z</time></trkpt><trkpt lat="46.1371915" lon="9.4143218"><ele>239.0</ele><time>2026-03-25T10:36:08.134Z</time></trkpt><trkpt lat="46.1371431" lon="9.4141608"><ele>239.0</ele><time>2026-03-25T10:36:10.134Z</time></trkpt><trkpt lat="46.1371098" lon="9.414073"><ele>238.99999999999997</ele><time>2026-03-25T10:36:11.135Z</time></trkpt><trkpt lat="46.1370572" lon="9.4139528"><ele>238.99999999999997</ele><time>2026-03-25T10:36:13.133Z</time></trkpt><trkpt lat="46.1370042" lon="9.4138315"><ele>239.0</ele><time>2026-03-25T10:36:15.133Z</time></trkpt><trkpt lat="46.1369602" lon="9.4136967"><ele>239.0</ele><time>2026-03-25T10:36:17.134Z</time></trkpt><trkpt lat="46.1369302" lon="9.4135624"><ele>236.50000000000003</ele><time>2026-03-25T10:36:19.133Z</time></trkpt><trkpt lat="46.1369194" lon="9.4134434"><ele>234.0</ele><time>2026-03-25T10:36:21.134Z</time></trkpt><trkpt lat="46.1369087" lon="9.4133412"><ele>231.5</ele><time>2026-03-25T10:36:23.134Z</time></trkpt><trkpt lat="46.1368844" lon="9.4132278"><ele>229.0</ele><time>2026-03-25T10:36:25.133Z</time></trkpt><trkpt lat="46.1368772" lon="9.4130789"><ele>226.50000000000003</ele><time>2026-03-25T10:36:27.135Z</time></trkpt><trkpt lat="46.1368581" lon="9.4129473"><ele>224.0</ele><time>2026-03-25T10:36:29.134Z</time></trkpt><trkpt lat="46.1368238" lon="9.4128066"><ele>222.50000000000003</ele><time>2026-03-25T10:36:31.133Z</time></trkpt><trkpt lat="46.1367985" lon="9.41269"><ele>221.0</ele><time>2026-03-25T10:36:33.133Z</time></trkpt><trkpt lat="46.1368105" lon="9.4125818"><ele>219.5</ele><time>2026-03-25T10:36:35.134Z</time></trkpt><trkpt lat="46.1367899" lon="9.4124616"><ele>218.0</ele><time>2026-03-25T10:36:37.134Z</time></trkpt><trkpt lat="46.1367771" lon="9.4123351"><ele>216.50000000000003</ele><time>2026-03-25T10:36:39.134Z</time></trkpt><trkpt lat="46.1367437" lon="9.412211"><ele>215.0</ele><time>2026-03-25T10:36:41.132Z</time></trkpt><trkpt lat="46.1367508" lon="9.4121198"><ele>213.83333333333334</ele><time>2026-03-25T10:36:43.133Z</time></trkpt><trkpt lat="46.1367375" lon="9.4120041"><ele>212.66666666666669</ele><time>2026-03-25T10:36:45.134Z</time></trkpt><trkpt lat="46.1367118" lon="9.4118999"><ele>211.5</ele><time>2026-03-25T10:36:47.133Z</time></trkpt><trkpt lat="46.1367001" lon="9.4117875"><ele>210.33333333333331</ele><time>2026-03-25T10:36:49.135Z</time></trkpt><trkpt lat="46.136678" lon="9.4116915"><ele>209.16666666666666</ele><time>2026-03-25T10:36:50.134Z</time></trkpt><trkpt lat="46.1366452" lon="9.4116056"><ele>208.0</ele><time>2026-03-25T10:36:52.136Z</time></trkpt><trkpt lat="46.1366193" lon="9.4114735"><ele>207.99999999999997</ele><time>2026-03-25T10:36:54.133Z</time></trkpt><trkpt lat="46.1366081" lon="9.411364"><ele>208.0</ele><time>2026-03-25T10:36:56.135Z</time></trkpt><trkpt lat="46.1365952" lon="9.4112276"><ele>208.0</ele><time>2026-03-25T10:36:58.134Z</time></trkpt><trkpt lat="46.1365772" lon="9.4111158"><ele>208.0</ele><time>2026-03-25T10:37:00.135Z</time></trkpt><trkpt lat="46.1365738" lon="9.4110234"><ele>207.99999999999997</ele><time>2026-03-25T10:37:01.134Z</time></trkpt><trkpt lat="46.1365365" lon="9.4108713"><ele>208.0</ele><time>2026-03-25T10:37:03.134Z</time></trkpt><trkpt lat="46.1365181" lon="9.4107805"><ele>209.66666666666666</ele><time>2026-03-25T10:37:04.134Z</time></trkpt><trkpt lat="46.1364869" lon="9.4106898"><ele>211.33333333333331</ele><time>2026-03-25T10:37:05.134Z</time></trkpt><trkpt lat="46.1364648" lon="9.4105938"><ele>213.0</ele><time>2026-03-25T10:37:06.134Z</time></trkpt><trkpt lat="46.1364468" lon="9.4104207"><ele>214.66666666666669</ele><time>2026-03-25T10:37:08.134Z</time></trkpt><trkpt lat="46.1364264" lon="9.4103188"><ele>216.33333333333334</ele><time>2026-03-25T10:37:09.134Z</time></trkpt><trkpt lat="46.1364329" lon="9.4102078"><ele>218.0</ele><time>2026-03-25T10:37:10.134Z</time></trkpt><trkpt lat="46.1364173" lon="9.4100451"><ele>218.0</ele><time>2026-03-25T10:37:12.134Z</time></trkpt><trkpt lat="46.1363811" lon="9.4098724"><ele>218.0</ele><time>2026-03-25T10:37:14.133Z</time></trkpt><trkpt lat="46.136357" lon="9.4097007"><ele>218.0</ele><time>2026-03-25T10:37:16.134Z</time></trkpt><trkpt lat="46.1363474" lon="9.4095259"><ele>218.0</ele><time>2026-03-25T10:37:18.135Z</time></trkpt><trkpt lat="46.1363309" lon="9.4093619"><ele>216.60000000000002</ele><time>2026-03-25T10:37:20.133Z</time></trkpt><trkpt lat="46.1363171" lon="9.409267"><ele>215.20000000000002</ele><time>2026-03-25T10:37:21.135Z</time></trkpt><trkpt lat="46.1363225" lon="9.4091158"><ele>213.8</ele><time>2026-03-25T10:37:23.134Z</time></trkpt><trkpt lat="46.1363448" lon="9.4089541"><ele>212.4</ele><time>2026-03-25T10:37:25.134Z</time></trkpt><trkpt lat="46.1363657" lon="9.4087958"><ele>211.0</ele><time>2026-03-25T10:37:27.135Z</time></trkpt><trkpt lat="46.1364128" lon="9.4086351"><ele>210.8</ele><time>2026-03-25T10:37:29.134Z</time></trkpt><trkpt lat="46.1364533" lon="9.4085035"><ele>210.60000000000002</ele><time>2026-03-25T10:37:31.134Z</time></trkpt><trkpt lat="46.1364966" lon="9.4083638"><ele>210.4</ele><time>2026-03-25T10:37:33.133Z</time></trkpt><trkpt lat="46.1365275" lon="9.4082168"><ele>210.2</ele><time>2026-03-25T10:37:35.135Z</time></trkpt><trkpt lat="46.1365369" lon="9.4080815"><ele>210.0</ele><time>2026-03-25T10:37:37.133Z</time></trkpt><trkpt lat="46.1365754" lon="9.4079405"><ele>210.0</ele><time>2026-03-25T10:37:39.133Z</time></trkpt><trkpt lat="46.1366168" lon="9.4077813"><ele>210.0</ele><time>2026-03-25T10:37:41.134Z</time></trkpt><trkpt lat="46.136638" lon="9.4076271"><ele>210.0</ele><time>2026-03-25T10:37:43.134Z</time></trkpt><trkpt lat="46.1366646" lon="9.4074894"><ele>210.0</ele><time>2026-03-25T10:37:45.134Z</time></trkpt><trkpt lat="46.136709" lon="9.4073511"><ele>210.0</ele><time>2026-03-25T10:37:47.133Z</time></trkpt><trkpt lat="46.1367566" lon="9.4072004"><ele>210.33333333333334</ele><time>2026-03-25T10:37:49.135Z</time></trkpt><trkpt lat="46.136787" lon="9.4070778"><ele>210.66666666666669</ele><time>2026-03-25T10:37:51.135Z</time></trkpt><trkpt lat="46.1368059" lon="9.4069684"><ele>211.0</ele><time>2026-03-25T10:37:53.135Z</time></trkpt><trkpt lat="46.1368514" lon="9.4068589"><ele>211.33333333333334</ele><time>2026-03-25T10:37:55.135Z</time></trkpt><trkpt lat="46.1368927" lon="9.4067342"><ele>211.66666666666669</ele><time>2026-03-25T10:37:57.135Z</time></trkpt><trkpt lat="46.1369256" lon="9.4066055"><ele>212.0</ele><time>2026-03-25T10:37:59.134Z</time></trkpt><trkpt lat="46.1369613" lon="9.4064909"><ele>212.00000000000003</ele><time>2026-03-25T10:38:01.135Z</time></trkpt><trkpt lat="46.1369823" lon="9.4063921"><ele>212.0</ele><time>2026-03-25T10:38:04.136Z</time></trkpt><trkpt lat="46.1370059" lon="9.4062952"><ele>212.0</ele><time>2026-03-25T10:38:05.135Z</time></trkpt><trkpt lat="46.1370414" lon="9.4061554"><ele>212.0</ele><time>2026-03-25T10:38:07.231Z</time></trkpt><trkpt lat="46.1370773" lon="9.406042"><ele>212.00000000000003</ele><time>2026-03-25T10:38:09.2Z</time></trkpt><trkpt lat="46.1371148" lon="9.4059096"><ele>212.0</ele><time>2026-03-25T10:38:11.134Z</time></trkpt><trkpt lat="46.1371416" lon="9.4057602"><ele>212.0</ele><time>2026-03-25T10:38:13.133Z</time></trkpt><trkpt lat="46.1371778" lon="9.4056309"><ele>212.0</ele><time>2026-03-25T10:38:15.134Z</time></trkpt><trkpt lat="46.1372168" lon="9.405497"><ele>212.0</ele><time>2026-03-25T10:38:17.135Z</time></trkpt><trkpt lat="46.1372458" lon="9.4053678"><ele>212.0</ele><time>2026-03-25T10:38:19.135Z</time></trkpt><trkpt lat="46.1372505" lon="9.4052426"><ele>212.0</ele><time>2026-03-25T10:38:21.136Z</time></trkpt><trkpt lat="46.1372518" lon="9.4050951"><ele>212.16666666666669</ele><time>2026-03-25T10:38:23.133Z</time></trkpt><trkpt lat="46.137252" lon="9.4049735"><ele>212.33333333333334</ele><time>2026-03-25T10:38:25.133Z</time></trkpt><trkpt lat="46.1372795" lon="9.4048846"><ele>212.5</ele><time>2026-03-25T10:38:27.133Z</time></trkpt><trkpt lat="46.1373133" lon="9.4048026"><ele>212.66666666666669</ele><time>2026-03-25T10:38:29.135Z</time></trkpt><trkpt lat="46.1373503" lon="9.4046993"><ele>212.83333333333334</ele><time>2026-03-25T10:38:31.134Z</time></trkpt><trkpt lat="46.1373882" lon="9.404593"><ele>213.0</ele><time>2026-03-25T10:38:33.134Z</time></trkpt><trkpt lat="46.137411" lon="9.4044791"><ele>213.0</ele><time>2026-03-25T10:38:35.134Z</time></trkpt><trkpt lat="46.1374336" lon="9.4043733"><ele>213.0</ele><time>2026-03-25T10:38:37.134Z</time></trkpt><trkpt lat="46.1374563" lon="9.4042667"><ele>213.0</ele><time>2026-03-25T10:38:39.133Z</time></trkpt><trkpt lat="46.1374801" lon="9.4041598"><ele>213.0</ele><time>2026-03-25T10:38:41.134Z</time></trkpt><trkpt lat="46.1375074" lon="9.4040458"><ele>213.0</ele><time>2026-03-25T10:38:43.135Z</time></trkpt><trkpt lat="46.1375353" lon="9.4039285"><ele>213.0</ele><time>2026-03-25T10:38:45.135Z</time></trkpt><trkpt lat="46.137564" lon="9.4038097"><ele>213.0</ele><time>2026-03-25T10:38:47.134Z</time></trkpt><trkpt lat="46.1375955" lon="9.4036967"><ele>213.0</ele><time>2026-03-25T10:38:49.134Z</time></trkpt><trkpt lat="46.1376231" lon="9.4035895"><ele>213.0</ele><time>2026-03-25T10:38:51.135Z</time></trkpt><trkpt lat="46.1376496" lon="9.4034715"><ele>213.0</ele><time>2026-03-25T10:38:53.135Z</time></trkpt><trkpt lat="46.137672" lon="9.4033585"><ele>213.0</ele><time>2026-03-25T10:38:55.136Z</time></trkpt><trkpt lat="46.1376971" lon="9.4032443"><ele>213.0</ele><time>2026-03-25T10:38:57.134Z</time></trkpt><trkpt lat="46.1377226" lon="9.4031282"><ele>213.0</ele><time>2026-03-25T10:38:59.133Z</time></trkpt><trkpt lat="46.1377493" lon="9.4030077"><ele>213.0</ele><time>2026-03-25T10:39:01.134Z</time></trkpt><trkpt lat="46.137779" lon="9.402884"><ele>213.0</ele><time>2026-03-25T10:39:03.135Z</time></trkpt><trkpt lat="46.1378146" lon="9.4027602"><ele>213.0</ele><time>2026-03-25T10:39:05.136Z</time></trkpt><trkpt lat="46.1378456" lon="9.4026409"><ele>213.0</ele><time>2026-03-25T10:39:07.135Z</time></trkpt><trkpt lat="46.1378825" lon="9.4025299"><ele>213.0</ele><time>2026-03-25T10:39:09.134Z</time></trkpt><trkpt lat="46.1379104" lon="9.4024151"><ele>213.33333333333334</ele><time>2026-03-25T10:39:11.135Z</time></trkpt><trkpt lat="46.1379378" lon="9.4022916"><ele>213.66666666666669</ele><time>2026-03-25T10:39:13.134Z</time></trkpt><trkpt lat="46.137973" lon="9.4021823"><ele>214.0</ele><time>2026-03-25T10:39:15.134Z</time></trkpt><trkpt lat="46.1380044" lon="9.4020757"><ele>214.33333333333334</ele><time>2026-03-25T10:39:17.134Z</time></trkpt><trkpt lat="46.1380284" lon="9.4019424"><ele>214.66666666666669</ele><time>2026-03-25T10:39:20.134Z</time></trkpt><trkpt lat="46.1380573" lon="9.4018509"><ele>215.0</ele><time>2026-03-25T10:39:22.133Z</time></trkpt><trkpt lat="46.1380824" lon="9.4017638"><ele>215.16666666666669</ele><time>2026-03-25T10:39:24.135Z</time></trkpt><trkpt lat="46.138118" lon="9.4016613"><ele>215.33333333333334</ele><time>2026-03-25T10:39:26.134Z</time></trkpt><trkpt lat="46.1381489" lon="9.4015459"><ele>215.5</ele><time>2026-03-25T10:39:28.135Z</time></trkpt><trkpt lat="46.1381846" lon="9.4014346"><ele>215.66666666666669</ele><time>2026-03-25T10:39:30.134Z</time></trkpt><trkpt lat="46.1382252" lon="9.4013089"><ele>215.83333333333334</ele><time>2026-03-25T10:39:32.133Z</time></trkpt><trkpt lat="46.1382657" lon="9.4011772"><ele>216.0</ele><time>2026-03-25T10:39:34.135Z</time></trkpt><trkpt lat="46.1382914" lon="9.4010587"><ele>215.60000000000002</ele><time>2026-03-25T10:39:36.134Z</time></trkpt><trkpt lat="46.1383181" lon="9.4009395"><ele>215.20000000000002</ele><time>2026-03-25T10:39:38.134Z</time></trkpt><trkpt lat="46.1383547" lon="9.4008333"><ele>214.79999999999998</ele><time>2026-03-25T10:39:40.135Z</time></trkpt><trkpt lat="46.1383824" lon="9.4007117"><ele>214.39999999999998</ele><time>2026-03-25T10:39:42.134Z</time></trkpt><trkpt lat="46.1384258" lon="9.4005414"><ele>214.0</ele><time>2026-03-25T10:39:45.134Z</time></trkpt><trkpt lat="46.1384564" lon="9.4004215"><ele>213.99999999999997</ele><time>2026-03-25T10:39:47.134Z</time></trkpt><trkpt lat="46.1384803" lon="9.4003135"><ele>214.0</ele><time>2026-03-25T10:39:49.133Z</time></trkpt><trkpt lat="46.1385033" lon="9.4002048"><ele>214.0</ele><time>2026-03-25T10:39:51.134Z</time></trkpt><trkpt lat="46.1385264" lon="9.4000992"><ele>214.0</ele><time>2026-03-25T10:39:53.135Z</time></trkpt><trkpt lat="46.138552" lon="9.3999909"><ele>213.99999999999997</ele><time>2026-03-25T10:39:55.133Z</time></trkpt><trkpt lat="46.1385725" lon="9.3998759"><ele>214.0</ele><time>2026-03-25T10:39:57.135Z</time></trkpt><trkpt lat="46.1385963" lon="9.3997683"><ele>214.49999999999997</ele><time>2026-03-25T10:39:59.135Z</time></trkpt><trkpt lat="46.1386178" lon="9.3996603"><ele>215.0</ele><time>2026-03-25T10:40:01.135Z</time></trkpt><trkpt lat="46.1386386" lon="9.3995496"><ele>215.5</ele><time>2026-03-25T10:40:03.136Z</time></trkpt><trkpt lat="46.1386669" lon="9.399439"><ele>216.0</ele><time>2026-03-25T10:40:05.134Z</time></trkpt><trkpt lat="46.1386944" lon="9.3993225"><ele>216.49999999999997</ele><time>2026-03-25T10:40:07.135Z</time></trkpt><trkpt lat="46.1387223" lon="9.3992088"><ele>217.0</ele><time>2026-03-25T10:40:09.134Z</time></trkpt><trkpt lat="46.1387405" lon="9.3990978"><ele>217.0</ele><time>2026-03-25T10:40:11.134Z</time></trkpt><trkpt lat="46.1387747" lon="9.3989722"><ele>217.0</ele><time>2026-03-25T10:40:13.133Z</time></trkpt><trkpt lat="46.1388072" lon="9.3988599"><ele>217.0</ele><time>2026-03-25T10:40:15.133Z</time></trkpt><trkpt lat="46.1388533" lon="9.398727"><ele>217.0</ele><time>2026-03-25T10:40:17.135Z</time></trkpt><trkpt lat="46.13889" lon="9.398602"><ele>217.0</ele><time>2026-03-25T10:40:19.134Z</time></trkpt><trkpt lat="46.138919" lon="9.3984899"><ele>217.14285714285714</ele><time>2026-03-25T10:40:21.134Z</time></trkpt><trkpt lat="46.1389474" lon="9.3983943"><ele>217.28571428571428</ele><time>2026-03-25T10:40:23.135Z</time></trkpt><trkpt lat="46.1389777" lon="9.398278"><ele>217.42857142857144</ele><time>2026-03-25T10:40:26.135Z</time></trkpt><trkpt lat="46.1389923" lon="9.39816"><ele>217.57142857142856</ele><time>2026-03-25T10:40:29.135Z</time></trkpt><trkpt lat="46.1390135" lon="9.3980742"><ele>217.71428571428572</ele><time>2026-03-25T10:40:31.135Z</time></trkpt><trkpt lat="46.1390332" lon="9.3979825"><ele>217.85714285714286</ele><time>2026-03-25T10:40:33.134Z</time></trkpt><trkpt lat="46.1390547" lon="9.3978812"><ele>218.0</ele><time>2026-03-25T10:40:35.134Z</time></trkpt><trkpt lat="46.1390852" lon="9.3977766"><ele>217.83333333333334</ele><time>2026-03-25T10:40:37.135Z</time></trkpt><trkpt lat="46.1391139" lon="9.3976636"><ele>217.66666666666669</ele><time>2026-03-25T10:40:39.136Z</time></trkpt><trkpt lat="46.139138" lon="9.3975461"><ele>217.5</ele><time>2026-03-25T10:40:41.134Z</time></trkpt><trkpt lat="46.1391618" lon="9.3974131"><ele>217.33333333333331</ele><time>2026-03-25T10:40:43.136Z</time></trkpt><trkpt lat="46.1391911" lon="9.3972911"><ele>217.16666666666666</ele><time>2026-03-25T10:40:45.135Z</time></trkpt><trkpt lat="46.1392258" lon="9.3971686"><ele>217.0</ele><time>2026-03-25T10:40:47.134Z</time></trkpt><trkpt lat="46.1392407" lon="9.3970514"><ele>217.0</ele><time>2026-03-25T10:40:49.136Z</time></trkpt><trkpt lat="46.139267" lon="9.3969118"><ele>217.0</ele><time>2026-03-25T10:40:51.134Z</time></trkpt><trkpt lat="46.1392965" lon="9.3967972"><ele>217.0</ele><time>2026-03-25T10:40:53.136Z</time></trkpt><trkpt lat="46.1393526" lon="9.3966389"><ele>217.0</ele><time>2026-03-25T10:40:55.135Z</time></trkpt><trkpt lat="46.1393998" lon="9.3965082"><ele>217.0</ele><time>2026-03-25T10:40:57.133Z</time></trkpt><trkpt lat="46.1394385" lon="9.3963723"><ele>217.0</ele><time>2026-03-25T10:40:59.135Z</time></trkpt><trkpt lat="46.1394411" lon="9.3962507"><ele>217.0</ele><time>2026-03-25T10:41:01.134Z</time></trkpt><trkpt lat="46.1394673" lon="9.3961064"><ele>217.0</ele><time>2026-03-25T10:41:03.135Z</time></trkpt><trkpt lat="46.1395021" lon="9.3959691"><ele>217.0</ele><time>2026-03-25T10:41:05.133Z</time></trkpt><trkpt lat="46.139534" lon="9.3958329"><ele>217.0</ele><time>2026-03-25T10:41:07.135Z</time></trkpt><trkpt lat="46.1395717" lon="9.3957067"><ele>217.0</ele><time>2026-03-25T10:41:09.135Z</time></trkpt><trkpt lat="46.1395937" lon="9.3955868"><ele>217.0</ele><time>2026-03-25T10:41:11.136Z</time></trkpt><trkpt lat="46.1396369" lon="9.3954476"><ele>217.0</ele><time>2026-03-25T10:41:13.136Z</time></trkpt><trkpt lat="46.1396741" lon="9.3953228"><ele>217.0</ele><time>2026-03-25T10:41:15.136Z</time></trkpt><trkpt lat="46.1397079" lon="9.395196"><ele>217.0</ele><time>2026-03-25T10:41:17.134Z</time></trkpt><trkpt lat="46.1397267" lon="9.3950806"><ele>216.99999999999997</ele><time>2026-03-25T10:41:19.133Z</time></trkpt><trkpt lat="46.139754" lon="9.3949604"><ele>217.0</ele><time>2026-03-25T10:41:21.135Z</time></trkpt><trkpt lat="46.1397789" lon="9.3948337"><ele>217.0</ele><time>2026-03-25T10:41:24.136Z</time></trkpt><trkpt lat="46.139824" lon="9.394764"><ele>217.0</ele><time>2026-03-25T10:41:31.135Z</time></trkpt><trkpt lat="46.1398804" lon="9.394698"><ele>216.99999999999997</ele><time>2026-03-25T10:41:34.135Z</time></trkpt><trkpt lat="46.1399054" lon="9.3946041"><ele>217.0</ele><time>2026-03-25T10:41:36.134Z</time></trkpt><trkpt lat="46.1399554" lon="9.3945223"><ele>216.6</ele><time>2026-03-25T10:41:38.134Z</time></trkpt><trkpt lat="46.1400273" lon="9.3944506"><ele>216.2</ele><time>2026-03-25T10:41:40.134Z</time></trkpt><trkpt lat="46.1401088" lon="9.3944109"><ele>215.8</ele><time>2026-03-25T10:41:42.135Z</time></trkpt><trkpt lat="46.1401716" lon="9.3943084"><ele>215.4</ele><time>2026-03-25T10:41:44.134Z</time></trkpt><trkpt lat="46.1401875" lon="9.3941695"><ele>215.0</ele><time>2026-03-25T10:41:46.135Z</time></trkpt><trkpt lat="46.1401695" lon="9.3940078"><ele>215.0</ele><time>2026-03-25T10:41:48.135Z</time></trkpt><trkpt lat="46.1401483" lon="9.3938397"><ele>215.0</ele><time>2026-03-25T10:41:50.136Z</time></trkpt><trkpt lat="46.1401476" lon="9.3937121"><ele>215.0</ele><time>2026-03-25T10:41:52.134Z</time></trkpt><trkpt lat="46.1401573" lon="9.3935681"><ele>215.0</ele><time>2026-03-25T10:41:54.134Z</time></trkpt><trkpt lat="46.1401573" lon="9.3934154"><ele>215.0</ele><time>2026-03-25T10:41:56.135Z</time></trkpt><trkpt lat="46.1401708" lon="9.3932417"><ele>215.6</ele><time>2026-03-25T10:41:58.135Z</time></trkpt><trkpt lat="46.1401694" lon="9.3930795"><ele>216.2</ele><time>2026-03-25T10:42:00.136Z</time></trkpt><trkpt lat="46.1401723" lon="9.3929425"><ele>216.8</ele><time>2026-03-25T10:42:02.135Z</time></trkpt><trkpt lat="46.1401786" lon="9.392775"><ele>217.4</ele><time>2026-03-25T10:42:04.136Z</time></trkpt><trkpt lat="46.1401753" lon="9.3926462"><ele>218.0</ele><time>2026-03-25T10:42:06.134Z</time></trkpt><trkpt lat="46.1401694" lon="9.3924951"><ele>218.2</ele><time>2026-03-25T10:42:08.136Z</time></trkpt><trkpt lat="46.1401621" lon="9.3923334"><ele>218.4</ele><time>2026-03-25T10:42:10.135Z</time></trkpt><trkpt lat="46.1401507" lon="9.392177"><ele>218.59999999999997</ele><time>2026-03-25T10:42:12.135Z</time></trkpt><trkpt lat="46.1401558" lon="9.3920268"><ele>218.79999999999998</ele><time>2026-03-25T10:42:14.134Z</time></trkpt><trkpt lat="46.1401303" lon="9.3919036"><ele>219.0</ele><time>2026-03-25T10:42:16.135Z</time></trkpt><trkpt lat="46.140122" lon="9.3918032"><ele>219.0</ele><time>2026-03-25T10:42:17.135Z</time></trkpt><trkpt lat="46.1401287" lon="9.39166"><ele>218.99999999999997</ele><time>2026-03-25T10:42:19.136Z</time></trkpt><trkpt lat="46.1401273" lon="9.3915336"><ele>218.99999999999997</ele><time>2026-03-25T10:42:21.134Z</time></trkpt><trkpt lat="46.1401144" lon="9.3913907"><ele>219.0</ele><time>2026-03-25T10:42:23.135Z</time></trkpt><trkpt lat="46.1402156" lon="9.391327"><ele>219.0</ele><time>2026-03-25T10:42:26.136Z</time></trkpt><trkpt lat="46.1403157" lon="9.3913892"><ele>218.6</ele><time>2026-03-25T10:42:28.134Z</time></trkpt><trkpt lat="46.140432" lon="9.3914232"><ele>218.2</ele><time>2026-03-25T10:42:30.135Z</time></trkpt><trkpt lat="46.1405077" lon="9.3914473"><ele>217.79999999999998</ele><time>2026-03-25T10:42:31.135Z</time></trkpt><trkpt lat="46.1405767" lon="9.3914705"><ele>217.39999999999998</ele><time>2026-03-25T10:42:32.134Z</time></trkpt><trkpt lat="46.1406977" lon="9.3915077"><ele>217.0</ele><time>2026-03-25T10:42:34.134Z</time></trkpt><trkpt lat="46.1407599" lon="9.391533"><ele>216.42857142857142</ele><time>2026-03-25T10:42:35.136Z</time></trkpt><trkpt lat="46.1408327" lon="9.3915676"><ele>215.85714285714286</ele><time>2026-03-25T10:42:36.135Z</time></trkpt><trkpt lat="46.140899" lon="9.3916032"><ele>215.28571428571428</ele><time>2026-03-25T10:42:37.135Z</time></trkpt><trkpt lat="46.140967" lon="9.3916249"><ele>214.71428571428572</ele><time>2026-03-25T10:42:38.133Z</time></trkpt><trkpt lat="46.141041" lon="9.3916508"><ele>214.14285714285714</ele><time>2026-03-25T10:42:39.134Z</time></trkpt><trkpt lat="46.1411183" lon="9.3916618"><ele>213.57142857142856</ele><time>2026-03-25T10:42:40.135Z</time></trkpt><trkpt lat="46.1411915" lon="9.3916833"><ele>213.0</ele><time>2026-03-25T10:42:41.136Z</time></trkpt><trkpt lat="46.1412693" lon="9.3916919"><ele>213.0</ele><time>2026-03-25T10:42:42.135Z</time></trkpt><trkpt lat="46.1413429" lon="9.3916907"><ele>213.0</ele><time>2026-03-25T10:42:43.134Z</time></trkpt><trkpt lat="46.14142" lon="9.3917081"><ele>213.0</ele><time>2026-03-25T10:42:44.134Z</time></trkpt><trkpt lat="46.1414893" lon="9.3916988"><ele>213.0</ele><time>2026-03-25T10:42:45.135Z</time></trkpt><trkpt lat="46.1415625" lon="9.3916892"><ele>213.0</ele><time>2026-03-25T10:42:46.134Z</time></trkpt><trkpt lat="46.1416603" lon="9.3916463"><ele>213.0</ele><time>2026-03-25T10:42:48.133Z</time></trkpt><trkpt lat="46.1417164" lon="9.3915628"><ele>212.8</ele><time>2026-03-25T10:42:51.136Z</time></trkpt><trkpt lat="46.1417333" lon="9.3914343"><ele>212.60000000000002</ele><time>2026-03-25T10:42:52.134Z</time></trkpt><trkpt lat="46.1417535" lon="9.3912709"><ele>212.39999999999998</ele><time>2026-03-25T10:42:54.135Z</time></trkpt><trkpt lat="46.1417737" lon="9.3911138"><ele>212.2</ele><time>2026-03-25T10:42:56.135Z</time></trkpt><trkpt lat="46.1417953" lon="9.3909486"><ele>212.0</ele><time>2026-03-25T10:42:58.135Z</time></trkpt><trkpt lat="46.1418068" lon="9.3908581"><ele>211.8</ele><time>2026-03-25T10:42:59.136Z</time></trkpt><trkpt lat="46.1418199" lon="9.3907562"><ele>211.6</ele><time>2026-03-25T10:43:00.134Z</time></trkpt><trkpt lat="46.1418421" lon="9.3906097"><ele>211.4</ele><time>2026-03-25T10:43:02.136Z</time></trkpt><trkpt lat="46.1418738" lon="9.3904234"><ele>211.20000000000002</ele><time>2026-03-25T10:43:04.136Z</time></trkpt><trkpt lat="46.1418856" lon="9.3902691"><ele>211.0</ele><time>2026-03-25T10:43:06.134Z</time></trkpt><trkpt lat="46.1418789" lon="9.3901261"><ele>211.0</ele><time>2026-03-25T10:43:08.134Z</time></trkpt><trkpt lat="46.1418334" lon="9.3899824"><ele>211.0</ele><time>2026-03-25T10:43:10.134Z</time></trkpt><trkpt lat="46.1417958" lon="9.3898142"><ele>211.0</ele><time>2026-03-25T10:43:12.135Z</time></trkpt><trkpt lat="46.1417518" lon="9.389653"><ele>211.0</ele><time>2026-03-25T10:43:14.135Z</time></trkpt><trkpt lat="46.1417141" lon="9.3895156"><ele>210.75</ele><time>2026-03-25T10:43:16.136Z</time></trkpt><trkpt lat="46.141676" lon="9.3893879"><ele>210.5</ele><time>2026-03-25T10:43:18.135Z</time></trkpt><trkpt lat="46.1416514" lon="9.389258"><ele>210.25</ele><time>2026-03-25T10:43:20.135Z</time></trkpt><trkpt lat="46.141598" lon="9.3890188"><ele>210.0</ele><time>2026-03-25T10:43:23.136Z</time></trkpt><trkpt lat="46.141557" lon="9.3888817"><ele>210.66666666666666</ele><time>2026-03-25T10:43:25.134Z</time></trkpt><trkpt lat="46.1415212" lon="9.388774"><ele>211.33333333333331</ele><time>2026-03-25T10:43:27.136Z</time></trkpt><trkpt lat="46.1414954" lon="9.3886585"><ele>212.0</ele><time>2026-03-25T10:43:29.135Z</time></trkpt><trkpt lat="46.1414646" lon="9.3885219"><ele>212.66666666666666</ele><time>2026-03-25T10:43:31.135Z</time></trkpt><trkpt lat="46.1414458" lon="9.3884029"><ele>213.33333333333331</ele><time>2026-03-25T10:43:33.135Z</time></trkpt><trkpt lat="46.1414011" lon="9.3883121"><ele>214.0</ele><time>2026-03-25T10:43:35.135Z</time></trkpt><trkpt lat="46.1413708" lon="9.3882157"><ele>213.99999999999997</ele><time>2026-03-25T10:43:38.135Z</time></trkpt><trkpt lat="46.1413143" lon="9.3881364"><ele>214.0</ele><time>2026-03-25T10:44:10.135Z</time></trkpt><trkpt lat="46.141263" lon="9.388038"><ele>214.0</ele><time>2026-03-25T10:44:13.135Z</time></trkpt><trkpt lat="46.1412338" lon="9.3879542"><ele>214.0</ele><time>2026-03-25T10:44:15.135Z</time></trkpt><trkpt lat="46.1412014" lon="9.3878568"><ele>213.99999999999997</ele><time>2026-03-25T10:44:17.134Z</time></trkpt><trkpt lat="46.1411643" lon="9.387755"><ele>214.0</ele><time>2026-03-25T10:44:19.135Z</time></trkpt><trkpt lat="46.1411143" lon="9.3876317"><ele>213.99999999999997</ele><time>2026-03-25T10:44:21.135Z</time></trkpt><trkpt lat="46.141071" lon="9.3875269"><ele>214.0</ele><time>2026-03-25T10:44:23.135Z</time></trkpt><trkpt lat="46.1410197" lon="9.3874294"><ele>214.0</ele><time>2026-03-25T10:44:25.135Z</time></trkpt><trkpt lat="46.1409836" lon="9.3873258"><ele>214.0</ele><time>2026-03-25T10:44:27.134Z</time></trkpt><trkpt lat="46.1409511" lon="9.3871994"><ele>213.99999999999997</ele><time>2026-03-25T10:44:29.135Z</time></trkpt><trkpt lat="46.1409173" lon="9.387078"><ele>214.0</ele><time>2026-03-25T10:44:31.135Z</time></trkpt><trkpt lat="46.1408754" lon="9.3869535"><ele>214.16666666666666</ele><time>2026-03-25T10:44:33.134Z</time></trkpt><trkpt lat="46.1408383" lon="9.386842"><ele>214.33333333333331</ele><time>2026-03-25T10:44:35.136Z</time></trkpt><trkpt lat="46.140801" lon="9.3867297"><ele>214.5</ele><time>2026-03-25T10:44:37.134Z</time></trkpt><trkpt lat="46.1407619" lon="9.3866153"><ele>214.66666666666669</ele><time>2026-03-25T10:44:39.134Z</time></trkpt><trkpt lat="46.1407282" lon="9.3864979"><ele>214.83333333333334</ele><time>2026-03-25T10:44:41.135Z</time></trkpt><trkpt lat="46.1406911" lon="9.3863788"><ele>215.0</ele><time>2026-03-25T10:44:43.135Z</time></trkpt><trkpt lat="46.1406663" lon="9.3862449"><ele>215.8</ele><time>2026-03-25T10:44:45.136Z</time></trkpt><trkpt lat="46.1406374" lon="9.3861225"><ele>216.6</ele><time>2026-03-25T10:44:47.136Z</time></trkpt><trkpt lat="46.1406214" lon="9.3860135"><ele>217.39999999999998</ele><time>2026-03-25T10:44:49.135Z</time></trkpt><trkpt lat="46.1405827" lon="9.3858691"><ele>218.2</ele><time>2026-03-25T10:44:51.135Z</time></trkpt><trkpt lat="46.140558" lon="9.3857511"><ele>219.0</ele><time>2026-03-25T10:44:53.136Z</time></trkpt><trkpt lat="46.140514" lon="9.3856312"><ele>218.79999999999998</ele><time>2026-03-25T10:44:55.136Z</time></trkpt><trkpt lat="46.1404752" lon="9.3855024"><ele>218.59999999999997</ele><time>2026-03-25T10:44:57.136Z</time></trkpt><trkpt lat="46.1404332" lon="9.3853812"><ele>218.4</ele><time>2026-03-25T10:44:59.134Z</time></trkpt><trkpt lat="46.1403948" lon="9.3852565"><ele>218.2</ele><time>2026-03-25T10:45:01.135Z</time></trkpt><trkpt lat="46.1403554" lon="9.3851273"><ele>218.0</ele><time>2026-03-25T10:45:03.136Z</time></trkpt><trkpt lat="46.140307" lon="9.3850222"><ele>218.0</ele><time>2026-03-25T10:45:05.136Z</time></trkpt><trkpt lat="46.1402632" lon="9.3849014"><ele>218.0</ele><time>2026-03-25T10:45:07.136Z</time></trkpt><trkpt lat="46.1402334" lon="9.384799"><ele>218.0</ele><time>2026-03-25T10:45:09.136Z</time></trkpt><trkpt lat="46.1402627" lon="9.3847097"><ele>218.0</ele><time>2026-03-25T10:45:11.134Z</time></trkpt><trkpt lat="46.1403588" lon="9.3846611"><ele>218.0</ele><time>2026-03-25T10:45:13.135Z</time></trkpt><trkpt lat="46.1404791" lon="9.3846324"><ele>218.00000000000003</ele><time>2026-03-25T10:45:15.134Z</time></trkpt><trkpt lat="46.1405435" lon="9.3846113"><ele>218.0</ele><time>2026-03-25T10:45:16.135Z</time></trkpt><trkpt lat="46.1406073" lon="9.38458"><ele>218.0</ele><time>2026-03-25T10:45:17.134Z</time></trkpt><trkpt lat="46.1406711" lon="9.3845603"><ele>218.0</ele><time>2026-03-25T10:45:18.136Z</time></trkpt><trkpt lat="46.140769" lon="9.3845164"><ele>218.00000000000003</ele><time>2026-03-25T10:45:20.136Z</time></trkpt><trkpt lat="46.1408554" lon="9.3844886"><ele>218.0</ele><time>2026-03-25T10:45:22.134Z</time></trkpt><trkpt lat="46.1409341" lon="9.3844654"><ele>217.16666666666669</ele><time>2026-03-25T10:45:24.135Z</time></trkpt><trkpt lat="46.1410256" lon="9.3844615"><ele>216.33333333333334</ele><time>2026-03-25T10:45:26.135Z</time></trkpt><trkpt lat="46.1410907" lon="9.3844309"><ele>215.5</ele><time>2026-03-25T10:45:28.136Z</time></trkpt><trkpt lat="46.1411531" lon="9.3844054"><ele>214.66666666666669</ele><time>2026-03-25T10:45:31.239Z</time></trkpt><trkpt lat="46.1412377" lon="9.3843632"><ele>213.83333333333334</ele><time>2026-03-25T10:45:33.135Z</time></trkpt><trkpt lat="46.1413084" lon="9.3843282"><ele>213.0</ele><time>2026-03-25T10:45:35.136Z</time></trkpt><trkpt lat="46.1413806" lon="9.3843088"><ele>213.0</ele><time>2026-03-25T10:45:37.231Z</time></trkpt><trkpt lat="46.1414511" lon="9.3842879"><ele>213.0</ele><time>2026-03-25T10:45:39.135Z</time></trkpt><trkpt lat="46.1416065" lon="9.3842217"><ele>213.0</ele><time>2026-03-25T10:45:42.134Z</time></trkpt><trkpt lat="46.1416747" lon="9.3841932"><ele>213.0</ele><time>2026-03-25T10:45:43.137Z</time></trkpt><trkpt lat="46.141743" lon="9.3841545"><ele>213.0</ele><time>2026-03-25T10:45:44.135Z</time></trkpt><trkpt lat="46.1418021" lon="9.3840882"><ele>212.2</ele><time>2026-03-25T10:45:45.135Z</time></trkpt><trkpt lat="46.1418642" lon="9.3839644"><ele>211.4</ele><time>2026-03-25T10:45:46.135Z</time></trkpt><trkpt lat="46.1419138" lon="9.3838458"><ele>210.6</ele><time>2026-03-25T10:45:47.135Z</time></trkpt><trkpt lat="46.1419373" lon="9.3837158"><ele>209.79999999999998</ele><time>2026-03-25T10:45:48.135Z</time></trkpt><trkpt lat="46.1419527" lon="9.3835737"><ele>209.0</ele><time>2026-03-25T10:45:49.135Z</time></trkpt><trkpt lat="46.141955" lon="9.3834309"><ele>209.0</ele><time>2026-03-25T10:45:50.136Z</time></trkpt><trkpt lat="46.1419077" lon="9.3833101"><ele>209.0</ele><time>2026-03-25T10:45:51.137Z</time></trkpt><trkpt lat="46.141847" lon="9.3831978"><ele>209.0</ele><time>2026-03-25T10:45:52.135Z</time></trkpt><trkpt lat="46.1417701" lon="9.383104"><ele>209.0</ele><time>2026-03-25T10:45:53.134Z</time></trkpt><trkpt lat="46.1416944" lon="9.3830284"><ele>209.0</ele><time>2026-03-25T10:45:54.136Z</time></trkpt><trkpt lat="46.1416035" lon="9.3830054"><ele>209.50000000000003</ele><time>2026-03-25T10:45:55.136Z</time></trkpt><trkpt lat="46.1415113" lon="9.3830119"><ele>210.0</ele><time>2026-03-25T10:45:56.135Z</time></trkpt><trkpt lat="46.1414254" lon="9.3830335"><ele>210.5</ele><time>2026-03-25T10:45:57.135Z</time></trkpt><trkpt lat="46.1413393" lon="9.3830413"><ele>211.0</ele><time>2026-03-25T10:45:58.135Z</time></trkpt><trkpt lat="46.141256" lon="9.3830286"><ele>211.50000000000003</ele><time>2026-03-25T10:45:59.134Z</time></trkpt><trkpt lat="46.1411855" lon="9.3829576"><ele>212.0</ele><time>2026-03-25T10:46:00.137Z</time></trkpt><trkpt lat="46.1411471" lon="9.3828628"><ele>212.00000000000003</ele><time>2026-03-25T10:46:01.134Z</time></trkpt><trkpt lat="46.1411249" lon="9.3827538"><ele>212.0</ele><time>2026-03-25T10:46:02.135Z</time></trkpt><trkpt lat="46.1411184" lon="9.3826477"><ele>212.0</ele><time>2026-03-25T10:46:03.136Z</time></trkpt><trkpt lat="46.1410942" lon="9.3825579"><ele>212.0</ele><time>2026-03-25T10:46:04.135Z</time></trkpt><trkpt lat="46.1410664" lon="9.3824636"><ele>212.00000000000003</ele><time>2026-03-25T10:46:05.135Z</time></trkpt><trkpt lat="46.141036" lon="9.3823761"><ele>212.0</ele><time>2026-03-25T10:46:06.136Z</time></trkpt><trkpt lat="46.1410084" lon="9.3822083"><ele>211.66666666666669</ele><time>2026-03-25T10:46:08.136Z</time></trkpt><trkpt lat="46.1409912" lon="9.3821209"><ele>211.33333333333334</ele><time>2026-03-25T10:46:09.134Z</time></trkpt><trkpt lat="46.1409521" lon="9.3819412"><ele>211.0</ele><time>2026-03-25T10:46:11.135Z</time></trkpt><trkpt lat="46.1409297" lon="9.381856"><ele>210.66666666666669</ele><time>2026-03-25T10:46:12.135Z</time></trkpt><trkpt lat="46.1409076" lon="9.3817625"><ele>210.33333333333334</ele><time>2026-03-25T10:46:13.136Z</time></trkpt><trkpt lat="46.1408862" lon="9.381667"><ele>210.0</ele><time>2026-03-25T10:46:14.135Z</time></trkpt><trkpt lat="46.1408655" lon="9.3815727"><ele>210.0</ele><time>2026-03-25T10:46:15.136Z</time></trkpt><trkpt lat="46.1408443" lon="9.3814781"><ele>210.0</ele><time>2026-03-25T10:46:16.135Z</time></trkpt><trkpt lat="46.1408155" lon="9.3813858"><ele>210.0</ele><time>2026-03-25T10:46:17.137Z</time></trkpt><trkpt lat="46.1407853" lon="9.3812912"><ele>210.0</ele><time>2026-03-25T10:46:18.134Z</time></trkpt><trkpt lat="46.1407487" lon="9.3812027"><ele>210.0</ele><time>2026-03-25T10:46:19.135Z</time></trkpt><trkpt lat="46.1407196" lon="9.3811003"><ele>210.0</ele><time>2026-03-25T10:46:20.136Z</time></trkpt><trkpt lat="46.1406697" lon="9.3809297"><ele>210.33333333333334</ele><time>2026-03-25T10:46:22.136Z</time></trkpt><trkpt lat="46.140645" lon="9.3808288"><ele>210.66666666666669</ele><time>2026-03-25T10:46:23.134Z</time></trkpt><trkpt lat="46.140619" lon="9.3807141"><ele>211.0</ele><time>2026-03-25T10:46:24.136Z</time></trkpt><trkpt lat="46.1405942" lon="9.3806192"><ele>211.33333333333334</ele><time>2026-03-25T10:46:25.136Z</time></trkpt><trkpt lat="46.1405724" lon="9.380529"><ele>211.66666666666669</ele><time>2026-03-25T10:46:26.134Z</time></trkpt><trkpt lat="46.1405516" lon="9.3804352"><ele>212.0</ele><time>2026-03-25T10:46:27.135Z</time></trkpt><trkpt lat="46.1405233" lon="9.380293"><ele>212.0</ele><time>2026-03-25T10:46:29.136Z</time></trkpt><trkpt lat="46.1404862" lon="9.3801818"><ele>212.0</ele><time>2026-03-25T10:46:30.136Z</time></trkpt><trkpt lat="46.1404438" lon="9.3799809"><ele>212.0</ele><time>2026-03-25T10:46:32.135Z</time></trkpt><trkpt lat="46.1404369" lon="9.3798864"><ele>212.0</ele><time>2026-03-25T10:46:33.136Z</time></trkpt><trkpt lat="46.1404216" lon="9.3797757"><ele>212.0</ele><time>2026-03-25T10:46:34.134Z</time></trkpt><trkpt lat="46.1403952" lon="9.3796744"><ele>211.66666666666669</ele><time>2026-03-25T10:46:35.136Z</time></trkpt><trkpt lat="46.1403577" lon="9.3795765"><ele>211.33333333333334</ele><time>2026-03-25T10:46:36.136Z</time></trkpt><trkpt lat="46.1403326" lon="9.3794903"><ele>211.0</ele><time>2026-03-25T10:46:37.135Z</time></trkpt><trkpt lat="46.1403079" lon="9.3793949"><ele>210.66666666666669</ele><time>2026-03-25T10:46:38.135Z</time></trkpt><trkpt lat="46.1402907" lon="9.3793024"><ele>210.33333333333334</ele><time>2026-03-25T10:46:39.136Z</time></trkpt><trkpt lat="46.1402722" lon="9.3792095"><ele>210.0</ele><time>2026-03-25T10:46:40.134Z</time></trkpt><trkpt lat="46.1402372" lon="9.379049"><ele>210.0</ele><time>2026-03-25T10:46:42.136Z</time></trkpt><trkpt lat="46.1402357" lon="9.3789568"><ele>210.0</ele><time>2026-03-25T10:46:43.136Z</time></trkpt><trkpt lat="46.1402335" lon="9.378794"><ele>210.0</ele><time>2026-03-25T10:46:45.136Z</time></trkpt><trkpt lat="46.1401958" lon="9.3786257"><ele>210.0</ele><time>2026-03-25T10:46:47.135Z</time></trkpt><trkpt lat="46.1401574" lon="9.3785341"><ele>210.0</ele><time>2026-03-25T10:46:48.136Z</time></trkpt><trkpt lat="46.1401167" lon="9.378445"><ele>210.0</ele><time>2026-03-25T10:46:49.135Z</time></trkpt><trkpt lat="46.140081" lon="9.378359"><ele>209.85714285714286</ele><time>2026-03-25T10:46:50.135Z</time></trkpt><trkpt lat="46.1400397" lon="9.3782723"><ele>209.71428571428572</ele><time>2026-03-25T10:46:51.137Z</time></trkpt><trkpt lat="46.1399899" lon="9.3781884"><ele>209.57142857142856</ele><time>2026-03-25T10:46:52.135Z</time></trkpt><trkpt lat="46.1399486" lon="9.3781029"><ele>209.42857142857144</ele><time>2026-03-25T10:46:53.136Z</time></trkpt><trkpt lat="46.1399008" lon="9.378024"><ele>209.28571428571428</ele><time>2026-03-25T10:46:54.135Z</time></trkpt><trkpt lat="46.1398495" lon="9.3779432"><ele>209.14285714285714</ele><time>2026-03-25T10:46:55.135Z</time></trkpt><trkpt lat="46.139801" lon="9.377861"><ele>209.0</ele><time>2026-03-25T10:46:56.137Z</time></trkpt><trkpt lat="46.1397538" lon="9.3777834"><ele>209.0</ele><time>2026-03-25T10:46:57.136Z</time></trkpt><trkpt lat="46.1397073" lon="9.3777081"><ele>209.0</ele><time>2026-03-25T10:46:58.135Z</time></trkpt><trkpt lat="46.1396631" lon="9.3776251"><ele>209.0</ele><time>2026-03-25T10:46:59.136Z</time></trkpt><trkpt lat="46.1396384" lon="9.3775295"><ele>209.0</ele><time>2026-03-25T10:47:00.135Z</time></trkpt><trkpt lat="46.1396064" lon="9.377442"><ele>209.0</ele><time>2026-03-25T10:47:01.136Z</time></trkpt><trkpt lat="46.1395675" lon="9.3773535"><ele>209.0</ele><time>2026-03-25T10:47:02.136Z</time></trkpt><trkpt lat="46.1395356" lon="9.3772693"><ele>209.0</ele><time>2026-03-25T10:47:03.135Z</time></trkpt><trkpt lat="46.1395008" lon="9.3771788"><ele>208.85714285714286</ele><time>2026-03-25T10:47:04.136Z</time></trkpt><trkpt lat="46.1394666" lon="9.3770871"><ele>208.71428571428572</ele><time>2026-03-25T10:47:05.135Z</time></trkpt><trkpt lat="46.1394352" lon="9.3769954"><ele>208.57142857142856</ele><time>2026-03-25T10:47:06.135Z</time></trkpt><trkpt lat="46.1394038" lon="9.3768999"><ele>208.42857142857144</ele><time>2026-03-25T10:47:07.134Z</time></trkpt><trkpt lat="46.1393705" lon="9.3768048"><ele>208.2857142857143</ele><time>2026-03-25T10:47:08.135Z</time></trkpt><trkpt lat="46.139346" lon="9.3767123"><ele>208.14285714285714</ele><time>2026-03-25T10:47:09.137Z</time></trkpt><trkpt lat="46.1393235" lon="9.376621"><ele>208.0</ele><time>2026-03-25T10:47:10.137Z</time></trkpt><trkpt lat="46.1393032" lon="9.3765348"><ele>208.0</ele><time>2026-03-25T10:47:11.135Z</time></trkpt><trkpt lat="46.1392691" lon="9.3764443"><ele>208.0</ele><time>2026-03-25T10:47:12.136Z</time></trkpt><trkpt lat="46.1392371" lon="9.3763552"><ele>208.0</ele><time>2026-03-25T10:47:13.135Z</time></trkpt><trkpt lat="46.1392058" lon="9.3762705"><ele>208.0</ele><time>2026-03-25T10:47:14.136Z</time></trkpt><trkpt lat="46.1391764" lon="9.3761782"><ele>208.0</ele><time>2026-03-25T10:47:15.135Z</time></trkpt><trkpt lat="46.1391513" lon="9.3760901"><ele>208.0</ele><time>2026-03-25T10:47:16.136Z</time></trkpt><trkpt lat="46.1391193" lon="9.3759877"><ele>208.0</ele><time>2026-03-25T10:47:17.136Z</time></trkpt><trkpt lat="46.139091" lon="9.3758895"><ele>208.16666666666666</ele><time>2026-03-25T10:47:18.137Z</time></trkpt><trkpt lat="46.1390337" lon="9.3757098"><ele>208.33333333333331</ele><time>2026-03-25T10:47:20.135Z</time></trkpt><trkpt lat="46.1390004" lon="9.3756121"><ele>208.5</ele><time>2026-03-25T10:47:21.136Z</time></trkpt><trkpt lat="46.1389648" lon="9.3755187"><ele>208.66666666666669</ele><time>2026-03-25T10:47:22.136Z</time></trkpt><trkpt lat="46.1389327" lon="9.3754119"><ele>208.83333333333334</ele><time>2026-03-25T10:47:24.136Z</time></trkpt><trkpt lat="46.1389069" lon="9.3753286"><ele>209.0</ele><time>2026-03-25T10:47:25.135Z</time></trkpt><trkpt lat="46.1388684" lon="9.3752324"><ele>208.66666666666669</ele><time>2026-03-25T10:47:26.134Z</time></trkpt><trkpt lat="46.1388272" lon="9.3751435"><ele>208.33333333333334</ele><time>2026-03-25T10:47:27.134Z</time></trkpt><trkpt lat="46.1387689" lon="9.3749809"><ele>208.0</ele><time>2026-03-25T10:47:29.136Z</time></trkpt><trkpt lat="46.1387452" lon="9.3748793"><ele>207.66666666666669</ele><time>2026-03-25T10:47:30.137Z</time></trkpt><trkpt lat="46.138737" lon="9.3747846"><ele>207.33333333333334</ele><time>2026-03-25T10:47:31.135Z</time></trkpt><trkpt lat="46.138727" lon="9.3746805"><ele>207.0</ele><time>2026-03-25T10:47:32.135Z</time></trkpt><trkpt lat="46.1387046" lon="9.3745627"><ele>206.5</ele><time>2026-03-25T10:47:33.136Z</time></trkpt><trkpt lat="46.1386935" lon="9.3744557"><ele>206.0</ele><time>2026-03-25T10:47:34.135Z</time></trkpt><trkpt lat="46.13869" lon="9.3743469"><ele>205.5</ele><time>2026-03-25T10:47:35.137Z</time></trkpt><trkpt lat="46.1386805" lon="9.3742435"><ele>205.0</ele><time>2026-03-25T10:47:36.136Z</time></trkpt><trkpt lat="46.1386783" lon="9.3741497"><ele>204.5</ele><time>2026-03-25T10:47:37.137Z</time></trkpt><trkpt lat="46.13865" lon="9.3740427"><ele>204.0</ele><time>2026-03-25T10:47:38.136Z</time></trkpt><trkpt lat="46.1386354" lon="9.3738485"><ele>203.57142857142858</ele><time>2026-03-25T10:47:40.135Z</time></trkpt><trkpt lat="46.1386233" lon="9.3737475"><ele>203.14285714285717</ele><time>2026-03-25T10:47:41.135Z</time></trkpt><trkpt lat="46.1386248" lon="9.3736426"><ele>202.71428571428572</ele><time>2026-03-25T10:47:42.136Z</time></trkpt><trkpt lat="46.1386204" lon="9.3735511"><ele>202.28571428571428</ele><time>2026-03-25T10:47:43.136Z</time></trkpt><trkpt lat="46.1386102" lon="9.3734433"><ele>201.85714285714286</ele><time>2026-03-25T10:47:44.136Z</time></trkpt><trkpt lat="46.1385998" lon="9.3733402"><ele>201.42857142857142</ele><time>2026-03-25T10:47:45.137Z</time></trkpt><trkpt lat="46.1385878" lon="9.373247"><ele>201.0</ele><time>2026-03-25T10:47:46.136Z</time></trkpt><trkpt lat="46.1385671" lon="9.3730597"><ele>200.60000000000002</ele><time>2026-03-25T10:47:48.136Z</time></trkpt><trkpt lat="46.138553" lon="9.3729644"><ele>200.2</ele><time>2026-03-25T10:47:49.135Z</time></trkpt><trkpt lat="46.1385289" lon="9.3727993"><ele>199.8</ele><time>2026-03-25T10:47:51.137Z</time></trkpt><trkpt lat="46.1384811" lon="9.3726366"><ele>199.39999999999998</ele><time>2026-03-25T10:47:53.137Z</time></trkpt><trkpt lat="46.1383973" lon="9.3725278"><ele>199.0</ele><time>2026-03-25T10:47:55.136Z</time></trkpt><trkpt lat="46.1383018" lon="9.3724539"><ele>198.99999999999997</ele><time>2026-03-25T10:47:57.136Z</time></trkpt><trkpt lat="46.1382197" lon="9.3724125"><ele>199.0</ele><time>2026-03-25T10:47:59.136Z</time></trkpt><trkpt lat="46.1381598" lon="9.3723793"><ele>199.0</ele><time>2026-03-25T10:48:00.137Z</time></trkpt><trkpt lat="46.1380695" lon="9.3722865"><ele>199.0</ele><time>2026-03-25T10:48:02.135Z</time></trkpt><trkpt lat="46.1379956" lon="9.3722459"><ele>198.99999999999997</ele><time>2026-03-25T10:48:04.136Z</time></trkpt><trkpt lat="46.1379205" lon="9.3722028"><ele>199.0</ele><time>2026-03-25T10:48:06.137Z</time></trkpt><trkpt lat="46.1378267" lon="9.3721455"><ele>199.6</ele><time>2026-03-25T10:48:08.137Z</time></trkpt><trkpt lat="46.1377461" lon="9.3720951"><ele>200.2</ele><time>2026-03-25T10:48:10.135Z</time></trkpt><trkpt lat="46.1376808" lon="9.3719988"><ele>200.79999999999998</ele><time>2026-03-25T10:48:12.137Z</time></trkpt><trkpt lat="46.1376197" lon="9.3718846"><ele>201.39999999999998</ele><time>2026-03-25T10:48:14.135Z</time></trkpt><trkpt lat="46.1375782" lon="9.3718141"><ele>202.0</ele><time>2026-03-25T10:48:16.136Z</time></trkpt><trkpt lat="46.1375471" lon="9.371668"><ele>201.99999999999997</ele><time>2026-03-25T10:48:18.136Z</time></trkpt><trkpt lat="46.1375599" lon="9.3715368"><ele>202.0</ele><time>2026-03-25T10:48:20.135Z</time></trkpt><trkpt lat="46.137524" lon="9.3714022"><ele>202.0</ele><time>2026-03-25T10:48:22.135Z</time></trkpt><trkpt lat="46.1374739" lon="9.3713044"><ele>202.0</ele><time>2026-03-25T10:48:24.136Z</time></trkpt><trkpt lat="46.1374297" lon="9.3712023"><ele>201.99999999999997</ele><time>2026-03-25T10:48:26.136Z</time></trkpt><trkpt lat="46.1373864" lon="9.3711325"><ele>202.0</ele><time>2026-03-25T10:48:27.135Z</time></trkpt><trkpt lat="46.1373175" lon="9.3710325"><ele>202.49999999999997</ele><time>2026-03-25T10:48:29.136Z</time></trkpt><trkpt lat="46.1372678" lon="9.3709208"><ele>203.0</ele><time>2026-03-25T10:48:31.136Z</time></trkpt><trkpt lat="46.1372393" lon="9.3708232"><ele>203.5</ele><time>2026-03-25T10:48:33.135Z</time></trkpt><trkpt lat="46.1372181" lon="9.3707117"><ele>204.0</ele><time>2026-03-25T10:48:35.136Z</time></trkpt><trkpt lat="46.1371919" lon="9.3706059"><ele>204.49999999999997</ele><time>2026-03-25T10:48:37.135Z</time></trkpt><trkpt lat="46.1371569" lon="9.3705009"><ele>205.0</ele><time>2026-03-25T10:48:39.135Z</time></trkpt><trkpt lat="46.137116" lon="9.370363"><ele>204.99999999999997</ele><time>2026-03-25T10:48:42.134Z</time></trkpt><trkpt lat="46.1371056" lon="9.3702486"><ele>205.0</ele><time>2026-03-25T10:48:44.135Z</time></trkpt><trkpt lat="46.1371255" lon="9.3701486"><ele>205.0</ele><time>2026-03-25T10:48:46.136Z</time></trkpt><trkpt lat="46.1371608" lon="9.3700289"><ele>205.0</ele><time>2026-03-25T10:48:48.135Z</time></trkpt><trkpt lat="46.1371845" lon="9.3699132"><ele>204.99999999999997</ele><time>2026-03-25T10:48:50.135Z</time></trkpt><trkpt lat="46.1372101" lon="9.3697896"><ele>205.0</ele><time>2026-03-25T10:48:52.136Z</time></trkpt><trkpt lat="46.1372413" lon="9.3696651"><ele>205.0</ele><time>2026-03-25T10:48:54.134Z</time></trkpt><trkpt lat="46.1372765" lon="9.3695436"><ele>205.0</ele><time>2026-03-25T10:48:56.136Z</time></trkpt><trkpt lat="46.1373049" lon="9.3694004"><ele>205.0</ele><time>2026-03-25T10:48:58.136Z</time></trkpt><trkpt lat="46.1373259" lon="9.3692728"><ele>205.0</ele><time>2026-03-25T10:49:00.135Z</time></trkpt><trkpt lat="46.1373436" lon="9.3691386"><ele>205.0</ele><time>2026-03-25T10:49:02.137Z</time></trkpt><trkpt lat="46.137335" lon="9.369023"><ele>204.99999999999997</ele><time>2026-03-25T10:49:04.136Z</time></trkpt><trkpt lat="46.1373355" lon="9.3689028"><ele>205.0</ele><time>2026-03-25T10:49:06.136Z</time></trkpt><trkpt lat="46.1373268" lon="9.3687925"><ele>205.0</ele><time>2026-03-25T10:49:08.136Z</time></trkpt><trkpt lat="46.1373177" lon="9.3686814"><ele>205.0</ele><time>2026-03-25T10:49:10.137Z</time></trkpt><trkpt lat="46.1373273" lon="9.3685738"><ele>204.99999999999997</ele><time>2026-03-25T10:49:12.136Z</time></trkpt><trkpt lat="46.1373392" lon="9.3684554"><ele>205.0</ele><time>2026-03-25T10:49:14.137Z</time></trkpt><trkpt lat="46.1373093" lon="9.3683106"><ele>205.0</ele><time>2026-03-25T10:49:16.136Z</time></trkpt><trkpt lat="46.1372661" lon="9.3681751"><ele>205.0</ele><time>2026-03-25T10:49:18.136Z</time></trkpt><trkpt lat="46.1372175" lon="9.3680826"><ele>205.0</ele><time>2026-03-25T10:49:20.136Z</time></trkpt><trkpt lat="46.1371561" lon="9.3679293"><ele>205.0</ele><time>2026-03-25T10:49:23.136Z</time></trkpt><trkpt lat="46.1370838" lon="9.3677561"><ele>205.0</ele><time>2026-03-25T10:49:26.136Z</time></trkpt><trkpt lat="46.1370113" lon="9.3676357"><ele>204.49999999999997</ele><time>2026-03-25T10:49:28.137Z</time></trkpt><trkpt lat="46.1369523" lon="9.36752"><ele>204.0</ele><time>2026-03-25T10:49:30.137Z</time></trkpt><trkpt lat="46.1369159" lon="9.3674386"><ele>203.5</ele><time>2026-03-25T10:49:31.136Z</time></trkpt><trkpt lat="46.1368618" lon="9.3672855"><ele>203.0</ele><time>2026-03-25T10:49:33.135Z</time></trkpt><trkpt lat="46.1368233" lon="9.3672113"><ele>202.49999999999997</ele><time>2026-03-25T10:49:34.135Z</time></trkpt><trkpt lat="46.1367871" lon="9.3671313"><ele>202.0</ele><time>2026-03-25T10:49:35.137Z</time></trkpt><trkpt lat="46.1367656" lon="9.3670386"><ele>201.6</ele><time>2026-03-25T10:49:36.137Z</time></trkpt><trkpt lat="46.1367382" lon="9.3668721"><ele>201.2</ele><time>2026-03-25T10:49:38.136Z</time></trkpt><trkpt lat="46.1367158" lon="9.3667543"><ele>200.8</ele><time>2026-03-25T10:49:40.136Z</time></trkpt><trkpt lat="46.1367041" lon="9.3665889"><ele>200.4</ele><time>2026-03-25T10:49:42.135Z</time></trkpt><trkpt lat="46.1366951" lon="9.3664435"><ele>200.0</ele><time>2026-03-25T10:49:44.136Z</time></trkpt><trkpt lat="46.1366787" lon="9.3663523"><ele>200.0</ele><time>2026-03-25T10:49:45.138Z</time></trkpt><trkpt lat="46.1366404" lon="9.366204"><ele>200.0</ele><time>2026-03-25T10:49:47.136Z</time></trkpt><trkpt lat="46.1366149" lon="9.3660615"><ele>200.0</ele><time>2026-03-25T10:49:49.136Z</time></trkpt><trkpt lat="46.1365772" lon="9.3659814"><ele>200.0</ele><time>2026-03-25T10:49:50.135Z</time></trkpt><trkpt lat="46.1365405" lon="9.3658718"><ele>200.0</ele><time>2026-03-25T10:49:52.136Z</time></trkpt><trkpt lat="46.1364658" lon="9.3657958"><ele>200.2</ele><time>2026-03-25T10:49:54.135Z</time></trkpt><trkpt lat="46.1364065" lon="9.365712"><ele>200.4</ele><time>2026-03-25T10:49:56.136Z</time></trkpt><trkpt lat="46.1363413" lon="9.3655932"><ele>200.60000000000002</ele><time>2026-03-25T10:49:58.136Z</time></trkpt><trkpt lat="46.1362504" lon="9.3654752"><ele>200.8</ele><time>2026-03-25T10:50:00.137Z</time></trkpt><trkpt lat="46.1362062" lon="9.3654103"><ele>201.0</ele><time>2026-03-25T10:50:01.136Z</time></trkpt><trkpt lat="46.1361431" lon="9.3652874"><ele>201.0</ele><time>2026-03-25T10:50:03.136Z</time></trkpt><trkpt lat="46.1360812" lon="9.3651426"><ele>201.0</ele><time>2026-03-25T10:50:05.136Z</time></trkpt><trkpt lat="46.1360634" lon="9.3650552"><ele>201.0</ele><time>2026-03-25T10:50:06.137Z</time></trkpt><trkpt lat="46.1360365" lon="9.364973"><ele>201.0</ele><time>2026-03-25T10:50:07.135Z</time></trkpt><trkpt lat="46.1360046" lon="9.3648925"><ele>201.0</ele><time>2026-03-25T10:50:08.137Z</time></trkpt><trkpt lat="46.135975" lon="9.36481"><ele>201.0</ele><time>2026-03-25T10:50:09.136Z</time></trkpt><trkpt lat="46.1359362" lon="9.3646361"><ele>200.8</ele><time>2026-03-25T10:50:11.137Z</time></trkpt><trkpt lat="46.1359087" lon="9.3644817"><ele>200.60000000000002</ele><time>2026-03-25T10:50:13.136Z</time></trkpt><trkpt lat="46.1358677" lon="9.3643442"><ele>200.4</ele><time>2026-03-25T10:50:15.134Z</time></trkpt><trkpt lat="46.1358238" lon="9.3641971"><ele>200.2</ele><time>2026-03-25T10:50:17.136Z</time></trkpt><trkpt lat="46.1357978" lon="9.3640438"><ele>200.0</ele><time>2026-03-25T10:50:19.136Z</time></trkpt><trkpt lat="46.135782" lon="9.3638792"><ele>199.8</ele><time>2026-03-25T10:50:21.135Z</time></trkpt><trkpt lat="46.1357648" lon="9.3637889"><ele>199.6</ele><time>2026-03-25T10:50:22.135Z</time></trkpt><trkpt lat="46.135755" lon="9.3636211"><ele>199.39999999999998</ele><time>2026-03-25T10:50:24.136Z</time></trkpt><trkpt lat="46.1357658" lon="9.3634516"><ele>199.2</ele><time>2026-03-25T10:50:26.135Z</time></trkpt><trkpt lat="46.135748" lon="9.3632867"><ele>199.0</ele><time>2026-03-25T10:50:28.136Z</time></trkpt><trkpt lat="46.1357348" lon="9.363147"><ele>198.66666666666666</ele><time>2026-03-25T10:50:30.136Z</time></trkpt><trkpt lat="46.1357296" lon="9.3630026"><ele>198.33333333333331</ele><time>2026-03-25T10:50:32.136Z</time></trkpt><trkpt lat="46.1357322" lon="9.3628761"><ele>198.0</ele><time>2026-03-25T10:50:34.135Z</time></trkpt><trkpt lat="46.1357215" lon="9.3627498"><ele>197.66666666666669</ele><time>2026-03-25T10:50:36.136Z</time></trkpt><trkpt lat="46.1356471" lon="9.3626966"><ele>197.33333333333334</ele><time>2026-03-25T10:50:38.136Z</time></trkpt><trkpt lat="46.1355625" lon="9.3627102"><ele>197.0</ele><time>2026-03-25T10:50:40.137Z</time></trkpt><trkpt lat="46.1354896" lon="9.3627505"><ele>197.66666666666669</ele><time>2026-03-25T10:50:42.136Z</time></trkpt><trkpt lat="46.1354108" lon="9.3628013"><ele>198.33333333333334</ele><time>2026-03-25T10:50:44.135Z</time></trkpt><trkpt lat="46.1353342" lon="9.3628484"><ele>199.0</ele><time>2026-03-25T10:50:46.137Z</time></trkpt><trkpt lat="46.1352519" lon="9.3628821"><ele>199.66666666666669</ele><time>2026-03-25T10:50:48.136Z</time></trkpt><trkpt lat="46.1351664" lon="9.3629292"><ele>200.33333333333334</ele><time>2026-03-25T10:50:50.231Z</time></trkpt><trkpt lat="46.1350853" lon="9.3629653"><ele>201.0</ele><time>2026-03-25T10:50:52.136Z</time></trkpt><trkpt lat="46.1349992" lon="9.3630095"><ele>201.16666666666666</ele><time>2026-03-25T10:50:54.23Z</time></trkpt><trkpt lat="46.1349266" lon="9.3630689"><ele>201.33333333333331</ele><time>2026-03-25T10:50:56.199Z</time></trkpt><trkpt lat="46.1348734" lon="9.3631209"><ele>201.5</ele><time>2026-03-25T10:50:57.802Z</time></trkpt><trkpt lat="46.1348021" lon="9.3631881"><ele>201.66666666666666</ele><time>2026-03-25T10:51:00.137Z</time></trkpt><trkpt lat="46.1347355" lon="9.3632388"><ele>201.83333333333331</ele><time>2026-03-25T10:51:02.136Z</time></trkpt><trkpt lat="46.1346648" lon="9.363286"><ele>202.0</ele><time>2026-03-25T10:51:04.135Z</time></trkpt><trkpt lat="46.1345983" lon="9.3633244"><ele>202.28571428571428</ele><time>2026-03-25T10:51:06.136Z</time></trkpt><trkpt lat="46.1345336" lon="9.3633697"><ele>202.57142857142856</ele><time>2026-03-25T10:51:08.136Z</time></trkpt><trkpt lat="46.1344648" lon="9.363418"><ele>202.85714285714286</ele><time>2026-03-25T10:51:10.137Z</time></trkpt><trkpt lat="46.1344016" lon="9.3634616"><ele>203.14285714285714</ele><time>2026-03-25T10:51:12.136Z</time></trkpt><trkpt lat="46.1343316" lon="9.3635152"><ele>203.42857142857144</ele><time>2026-03-25T10:51:14.136Z</time></trkpt><trkpt lat="46.1342625" lon="9.363564"><ele>203.71428571428572</ele><time>2026-03-25T10:51:16.136Z</time></trkpt><trkpt lat="46.1341948" lon="9.3636083"><ele>204.0</ele><time>2026-03-25T10:51:18.136Z</time></trkpt><trkpt lat="46.1341334" lon="9.3636497"><ele>204.0</ele><time>2026-03-25T10:51:20.136Z</time></trkpt><trkpt lat="46.1340739" lon="9.3636942"><ele>204.0</ele><time>2026-03-25T10:51:22.137Z</time></trkpt><trkpt lat="46.1340121" lon="9.3637271"><ele>204.0</ele><time>2026-03-25T10:51:24.137Z</time></trkpt><trkpt lat="46.1339491" lon="9.3637643"><ele>204.0</ele><time>2026-03-25T10:51:26.136Z</time></trkpt><trkpt lat="46.1338828" lon="9.3638013"><ele>204.0</ele><time>2026-03-25T10:51:28.135Z</time></trkpt><trkpt lat="46.1338108" lon="9.3638301"><ele>204.0</ele><time>2026-03-25T10:51:30.135Z</time></trkpt><trkpt lat="46.1337391" lon="9.3638735"><ele>204.0</ele><time>2026-03-25T10:51:32.137Z</time></trkpt><trkpt lat="46.1336655" lon="9.3639151"><ele>204.5</ele><time>2026-03-25T10:51:34.137Z</time></trkpt><trkpt lat="46.1335886" lon="9.3639266"><ele>205.0</ele><time>2026-03-25T10:51:36.136Z</time></trkpt><trkpt lat="46.1335123" lon="9.3638887"><ele>205.5</ele><time>2026-03-25T10:51:38.137Z</time></trkpt><trkpt lat="46.1334514" lon="9.363843"><ele>206.0</ele><time>2026-03-25T10:51:40.137Z</time></trkpt><trkpt lat="46.1333992" lon="9.3637667"><ele>206.5</ele><time>2026-03-25T10:51:43.136Z</time></trkpt><trkpt lat="46.1333425" lon="9.3636859"><ele>207.0</ele><time>2026-03-25T10:51:46.136Z</time></trkpt><trkpt lat="46.1333095" lon="9.3635977"><ele>207.0</ele><time>2026-03-25T10:51:48.137Z</time></trkpt><trkpt lat="46.133269" lon="9.3635"><ele>207.0</ele><time>2026-03-25T10:51:50.137Z</time></trkpt><trkpt lat="46.1332244" lon="9.3634053"><ele>207.0</ele><time>2026-03-25T10:51:52.135Z</time></trkpt><trkpt lat="46.1331696" lon="9.3633112"><ele>207.0</ele><time>2026-03-25T10:51:54.136Z</time></trkpt><trkpt lat="46.1331162" lon="9.3632254"><ele>207.0</ele><time>2026-03-25T10:51:56.136Z</time></trkpt><trkpt lat="46.1330636" lon="9.3631307"><ele>207.0</ele><time>2026-03-25T10:51:58.136Z</time></trkpt><trkpt lat="46.1330088" lon="9.3630297"><ele>207.5</ele><time>2026-03-25T10:52:00.136Z</time></trkpt><trkpt lat="46.1329608" lon="9.3629276"><ele>208.0</ele><time>2026-03-25T10:52:02.135Z</time></trkpt><trkpt lat="46.1329124" lon="9.3628245"><ele>208.5</ele><time>2026-03-25T10:52:04.136Z</time></trkpt><trkpt lat="46.1328561" lon="9.3627399"><ele>209.0</ele><time>2026-03-25T10:52:06.137Z</time></trkpt><trkpt lat="46.1328136" lon="9.3626365"><ele>209.5</ele><time>2026-03-25T10:52:08.136Z</time></trkpt><trkpt lat="46.1327548" lon="9.3625268"><ele>210.0</ele><time>2026-03-25T10:52:10.135Z</time></trkpt><trkpt lat="46.1327121" lon="9.3624206"><ele>210.0</ele><time>2026-03-25T10:52:12.135Z</time></trkpt><trkpt lat="46.1326591" lon="9.3623268"><ele>210.0</ele><time>2026-03-25T10:52:14.137Z</time></trkpt><trkpt lat="46.1326172" lon="9.3622358"><ele>210.0</ele><time>2026-03-25T10:52:16.136Z</time></trkpt><trkpt lat="46.1325623" lon="9.3621257"><ele>210.0</ele><time>2026-03-25T10:52:18.135Z</time></trkpt><trkpt lat="46.1325136" lon="9.3620161"><ele>210.0</ele><time>2026-03-25T10:52:20.136Z</time></trkpt><trkpt lat="46.1324661" lon="9.3619126"><ele>210.0</ele><time>2026-03-25T10:52:22.138Z</time></trkpt><trkpt lat="46.1324209" lon="9.3618005"><ele>210.66666666666666</ele><time>2026-03-25T10:52:24.136Z</time></trkpt><trkpt lat="46.1323779" lon="9.3617018"><ele>211.33333333333331</ele><time>2026-03-25T10:52:26.137Z</time></trkpt><trkpt lat="46.1323319" lon="9.361587"><ele>212.0</ele><time>2026-03-25T10:52:28.136Z</time></trkpt><trkpt lat="46.1322668" lon="9.3614927"><ele>212.66666666666666</ele><time>2026-03-25T10:52:30.136Z</time></trkpt><trkpt lat="46.1322149" lon="9.3614033"><ele>213.33333333333331</ele><time>2026-03-25T10:52:32.136Z</time></trkpt><trkpt lat="46.1321647" lon="9.3613151"><ele>214.0</ele><time>2026-03-25T10:52:34.136Z</time></trkpt><trkpt lat="46.1321157" lon="9.3612224"><ele>213.99999999999997</ele><time>2026-03-25T10:52:36.136Z</time></trkpt><trkpt lat="46.1320766" lon="9.3611294"><ele>214.0</ele><time>2026-03-25T10:52:38.136Z</time></trkpt><trkpt lat="46.1320263" lon="9.3610311"><ele>214.0</ele><time>2026-03-25T10:52:40.136Z</time></trkpt><trkpt lat="46.1319764" lon="9.3609285"><ele>214.0</ele><time>2026-03-25T10:52:42.137Z</time></trkpt><trkpt lat="46.1319245" lon="9.3608318"><ele>213.99999999999997</ele><time>2026-03-25T10:52:44.136Z</time></trkpt><trkpt lat="46.1318801" lon="9.3607115"><ele>214.0</ele><time>2026-03-25T10:52:46.136Z</time></trkpt><trkpt lat="46.1318048" lon="9.3605963"><ele>214.33333333333331</ele><time>2026-03-25T10:52:48.135Z</time></trkpt><trkpt lat="46.1317387" lon="9.360487"><ele>214.66666666666666</ele><time>2026-03-25T10:52:50.136Z</time></trkpt><trkpt lat="46.131681" lon="9.3603772"><ele>215.0</ele><time>2026-03-25T10:52:52.138Z</time></trkpt><trkpt lat="46.1316322" lon="9.3602756"><ele>215.33333333333331</ele><time>2026-03-25T10:52:54.136Z</time></trkpt><trkpt lat="46.1315849" lon="9.3601867"><ele>215.66666666666666</ele><time>2026-03-25T10:52:56.136Z</time></trkpt><trkpt lat="46.1315398" lon="9.3600832"><ele>216.0</ele><time>2026-03-25T10:52:58.135Z</time></trkpt><trkpt lat="46.1315051" lon="9.3599861"><ele>216.0</ele><time>2026-03-25T10:53:00.137Z</time></trkpt><trkpt lat="46.1314456" lon="9.3598773"><ele>216.00000000000003</ele><time>2026-03-25T10:53:02.138Z</time></trkpt><trkpt lat="46.1313919" lon="9.3597476"><ele>216.00000000000003</ele><time>2026-03-25T10:53:04.138Z</time></trkpt><trkpt lat="46.1313475" lon="9.3596193"><ele>216.0</ele><time>2026-03-25T10:53:06.137Z</time></trkpt><trkpt lat="46.1313076" lon="9.3594718"><ele>216.0</ele><time>2026-03-25T10:53:08.137Z</time></trkpt><trkpt lat="46.1312859" lon="9.3593281"><ele>215.20000000000002</ele><time>2026-03-25T10:53:10.136Z</time></trkpt><trkpt lat="46.1312552" lon="9.3592076"><ele>214.40000000000003</ele><time>2026-03-25T10:53:12.136Z</time></trkpt><trkpt lat="46.1312049" lon="9.3590887"><ele>213.6</ele><time>2026-03-25T10:53:14.136Z</time></trkpt><trkpt lat="46.1311693" lon="9.3589448"><ele>212.8</ele><time>2026-03-25T10:53:16.137Z</time></trkpt><trkpt lat="46.1311524" lon="9.3587692"><ele>212.0</ele><time>2026-03-25T10:53:18.136Z</time></trkpt><trkpt lat="46.1311257" lon="9.3586255"><ele>211.8</ele><time>2026-03-25T10:53:20.136Z</time></trkpt><trkpt lat="46.1311021" lon="9.3585278"><ele>211.6</ele><time>2026-03-25T10:53:21.136Z</time></trkpt><trkpt lat="46.1310537" lon="9.3583794"><ele>211.4</ele><time>2026-03-25T10:53:23.137Z</time></trkpt><trkpt lat="46.1310021" lon="9.3582442"><ele>211.20000000000002</ele><time>2026-03-25T10:53:25.137Z</time></trkpt><trkpt lat="46.1309498" lon="9.358125"><ele>211.0</ele><time>2026-03-25T10:53:27.137Z</time></trkpt><trkpt lat="46.130902" lon="9.3580338"><ele>211.0</ele><time>2026-03-25T10:53:29.137Z</time></trkpt><trkpt lat="46.130823" lon="9.3579391"><ele>211.0</ele><time>2026-03-25T10:53:31.137Z</time></trkpt><trkpt lat="46.130757" lon="9.3578141"><ele>211.0</ele><time>2026-03-25T10:53:33.137Z</time></trkpt><trkpt lat="46.1307154" lon="9.3576774"><ele>211.0</ele><time>2026-03-25T10:53:35.135Z</time></trkpt><trkpt lat="46.1306933" lon="9.3575789"><ele>211.0</ele><time>2026-03-25T10:53:36.136Z</time></trkpt><trkpt lat="46.1306485" lon="9.3574349"><ele>211.5</ele><time>2026-03-25T10:53:39.137Z</time></trkpt><trkpt lat="46.1306149" lon="9.3572861"><ele>212.0</ele><time>2026-03-25T10:53:41.138Z</time></trkpt><trkpt lat="46.1305523" lon="9.3571338"><ele>212.5</ele><time>2026-03-25T10:53:43.138Z</time></trkpt><trkpt lat="46.1305076" lon="9.3569852"><ele>213.0</ele><time>2026-03-25T10:53:45.138Z</time></trkpt><trkpt lat="46.1304508" lon="9.3568303"><ele>213.0</ele><time>2026-03-25T10:53:47.135Z</time></trkpt><trkpt lat="46.1304166" lon="9.3566557"><ele>213.0</ele><time>2026-03-25T10:53:49.136Z</time></trkpt><trkpt lat="46.1303686" lon="9.3564762"><ele>213.0</ele><time>2026-03-25T10:53:51.137Z</time></trkpt><trkpt lat="46.1303743" lon="9.3563294"><ele>213.0</ele><time>2026-03-25T10:53:53.135Z</time></trkpt><trkpt lat="46.1303467" lon="9.3561786"><ele>212.4</ele><time>2026-03-25T10:53:55.136Z</time></trkpt><trkpt lat="46.1303207" lon="9.3560897"><ele>211.8</ele><time>2026-03-25T10:53:56.137Z</time></trkpt><trkpt lat="46.1302811" lon="9.3559204"><ele>211.2</ele><time>2026-03-25T10:53:58.138Z</time></trkpt><trkpt lat="46.1302444" lon="9.3557519"><ele>210.6</ele><time>2026-03-25T10:54:00.137Z</time></trkpt><trkpt lat="46.1302098" lon="9.3556567"><ele>210.0</ele><time>2026-03-25T10:54:01.136Z</time></trkpt><trkpt lat="46.1301777" lon="9.355502"><ele>210.0</ele><time>2026-03-25T10:54:03.137Z</time></trkpt><trkpt lat="46.1301549" lon="9.3554136"><ele>210.0</ele><time>2026-03-25T10:54:04.136Z</time></trkpt><trkpt lat="46.1301238" lon="9.3553333"><ele>210.0</ele><time>2026-03-25T10:54:05.136Z</time></trkpt><trkpt lat="46.1300673" lon="9.3551842"><ele>210.0</ele><time>2026-03-25T10:54:07.135Z</time></trkpt><trkpt lat="46.1300141" lon="9.3550264"><ele>210.0</ele><time>2026-03-25T10:54:09.137Z</time></trkpt><trkpt lat="46.1299865" lon="9.3549255"><ele>210.0</ele><time>2026-03-25T10:54:10.137Z</time></trkpt><trkpt lat="46.1299407" lon="9.3547625"><ele>210.2</ele><time>2026-03-25T10:54:12.137Z</time></trkpt><trkpt lat="46.1299056" lon="9.3546121"><ele>210.4</ele><time>2026-03-25T10:54:14.136Z</time></trkpt><trkpt lat="46.1298727" lon="9.3544494"><ele>210.60000000000002</ele><time>2026-03-25T10:54:16.137Z</time></trkpt><trkpt lat="46.1298416" lon="9.3543092"><ele>210.8</ele><time>2026-03-25T10:54:18.137Z</time></trkpt><trkpt lat="46.1297903" lon="9.3541743"><ele>211.0</ele><time>2026-03-25T10:54:20.136Z</time></trkpt><trkpt lat="46.1297538" lon="9.354097"><ele>210.99999999999997</ele><time>2026-03-25T10:54:21.137Z</time></trkpt><trkpt lat="46.1297073" lon="9.3540241"><ele>211.0</ele><time>2026-03-25T10:54:22.135Z</time></trkpt><trkpt lat="46.1296225" lon="9.3538932"><ele>211.0</ele><time>2026-03-25T10:54:24.138Z</time></trkpt><trkpt lat="46.1295737" lon="9.3538198"><ele>211.0</ele><time>2026-03-25T10:54:25.135Z</time></trkpt><trkpt lat="46.1295272" lon="9.3537499"><ele>210.99999999999997</ele><time>2026-03-25T10:54:26.137Z</time></trkpt><trkpt lat="46.1294776" lon="9.3536925"><ele>211.0</ele><time>2026-03-25T10:54:27.136Z</time></trkpt><trkpt lat="46.1293844" lon="9.3535619"><ele>210.99999999999997</ele><time>2026-03-25T10:54:29.137Z</time></trkpt><trkpt lat="46.1293153" lon="9.3534956"><ele>211.0</ele><time>2026-03-25T10:54:30.136Z</time></trkpt><trkpt lat="46.129276" lon="9.3534117"><ele>211.0</ele><time>2026-03-25T10:54:31.137Z</time></trkpt><trkpt lat="46.1292293" lon="9.353345"><ele>211.0</ele><time>2026-03-25T10:54:32.137Z</time></trkpt><trkpt lat="46.129178" lon="9.3532883"><ele>210.99999999999997</ele><time>2026-03-25T10:54:33.137Z</time></trkpt><trkpt lat="46.1291285" lon="9.3532199"><ele>211.0</ele><time>2026-03-25T10:54:34.136Z</time></trkpt><trkpt lat="46.1290342" lon="9.353092"><ele>210.5</ele><time>2026-03-25T10:54:36.137Z</time></trkpt><trkpt lat="46.1289457" lon="9.3529643"><ele>210.0</ele><time>2026-03-25T10:54:38.137Z</time></trkpt><trkpt lat="46.1288652" lon="9.3528432"><ele>209.5</ele><time>2026-03-25T10:54:40.137Z</time></trkpt><trkpt lat="46.1287775" lon="9.3527163"><ele>209.0</ele><time>2026-03-25T10:54:42.137Z</time></trkpt><trkpt lat="46.1286991" lon="9.3526117"><ele>209.0</ele><time>2026-03-25T10:54:44.136Z</time></trkpt><trkpt lat="46.1286463" lon="9.3525471"><ele>209.0</ele><time>2026-03-25T10:54:45.136Z</time></trkpt><trkpt lat="46.1285478" lon="9.3524348"><ele>209.0</ele><time>2026-03-25T10:54:47.138Z</time></trkpt><trkpt lat="46.1284479" lon="9.3523298"><ele>209.0</ele><time>2026-03-25T10:54:49.138Z</time></trkpt><trkpt lat="46.128395" lon="9.352263"><ele>209.0</ele><time>2026-03-25T10:54:50.136Z</time></trkpt><trkpt lat="46.1283053" lon="9.3521516"><ele>209.0</ele><time>2026-03-25T10:54:52.137Z</time></trkpt><trkpt lat="46.1282513" lon="9.3520978"><ele>209.0</ele><time>2026-03-25T10:54:53.136Z</time></trkpt><trkpt lat="46.1281526" lon="9.3519991"><ele>209.0</ele><time>2026-03-25T10:54:55.136Z</time></trkpt><trkpt lat="46.128092" lon="9.3519494"><ele>209.0</ele><time>2026-03-25T10:54:56.137Z</time></trkpt><trkpt lat="46.1279691" lon="9.351907"><ele>209.0</ele><time>2026-03-25T10:54:58.138Z</time></trkpt><trkpt lat="46.1278414" lon="9.3518749"><ele>209.00000000000003</ele><time>2026-03-25T10:55:00.138Z</time></trkpt><trkpt lat="46.1277204" lon="9.3518553"><ele>209.0</ele><time>2026-03-25T10:55:02.136Z</time></trkpt><trkpt lat="46.1276575" lon="9.3518332"><ele>209.0</ele><time>2026-03-25T10:55:03.136Z</time></trkpt><trkpt lat="46.1275771" lon="9.3518108"><ele>209.0</ele><time>2026-03-25T10:55:04.139Z</time></trkpt><trkpt lat="46.1275172" lon="9.3517734"><ele>209.00000000000003</ele><time>2026-03-25T10:55:05.137Z</time></trkpt><trkpt lat="46.1274574" lon="9.3517194"><ele>209.0</ele><time>2026-03-25T10:55:06.137Z</time></trkpt><trkpt lat="46.1273828" lon="9.3516641"><ele>209.00000000000003</ele><time>2026-03-25T10:55:07.136Z</time></trkpt><trkpt lat="46.127314" lon="9.351627"><ele>209.0</ele><time>2026-03-25T10:55:08.137Z</time></trkpt><trkpt lat="46.1272348" lon="9.3516107"><ele>209.0</ele><time>2026-03-25T10:55:09.137Z</time></trkpt><trkpt lat="46.1271642" lon="9.3516101"><ele>209.0</ele><time>2026-03-25T10:55:10.137Z</time></trkpt><trkpt lat="46.127093" lon="9.3516073"><ele>209.00000000000003</ele><time>2026-03-25T10:55:11.136Z</time></trkpt><trkpt lat="46.1269754" lon="9.3516176"><ele>209.0</ele><time>2026-03-25T10:55:13.137Z</time></trkpt><trkpt lat="46.1269051" lon="9.3516096"><ele>209.0</ele><time>2026-03-25T10:55:14.137Z</time></trkpt><trkpt lat="46.1267807" lon="9.3516264"><ele>209.0</ele><time>2026-03-25T10:55:16.137Z</time></trkpt><trkpt lat="46.1266734" lon="9.3516327"><ele>209.0</ele><time>2026-03-25T10:55:18.136Z</time></trkpt><trkpt lat="46.1265545" lon="9.3516152"><ele>209.0</ele><time>2026-03-25T10:55:20.137Z</time></trkpt><trkpt lat="46.1264588" lon="9.3515248"><ele>209.0</ele><time>2026-03-25T10:55:22.137Z</time></trkpt><trkpt lat="46.1263848" lon="9.3513996"><ele>209.0</ele><time>2026-03-25T10:55:24.137Z</time></trkpt><trkpt lat="46.1263395" lon="9.3513349"><ele>209.0</ele><time>2026-03-25T10:55:25.136Z</time></trkpt><trkpt lat="46.1262548" lon="9.351211"><ele>209.0</ele><time>2026-03-25T10:55:27.137Z</time></trkpt><trkpt lat="46.1261578" lon="9.3510889"><ele>209.0</ele><time>2026-03-25T10:55:29.137Z</time></trkpt><trkpt lat="46.1261075" lon="9.3510227"><ele>209.0</ele><time>2026-03-25T10:55:30.138Z</time></trkpt><trkpt lat="46.1260503" lon="9.3509657"><ele>209.0</ele><time>2026-03-25T10:55:31.137Z</time></trkpt><trkpt lat="46.1259546" lon="9.350855"><ele>209.0</ele><time>2026-03-25T10:55:33.136Z</time></trkpt><trkpt lat="46.1258747" lon="9.3507554"><ele>209.0</ele><time>2026-03-25T10:55:35.137Z</time></trkpt><trkpt lat="46.1257863" lon="9.350626"><ele>209.0</ele><time>2026-03-25T10:55:37.137Z</time></trkpt><trkpt lat="46.1257014" lon="9.3505132"><ele>208.6</ele><time>2026-03-25T10:55:39.136Z</time></trkpt><trkpt lat="46.1256072" lon="9.3503992"><ele>208.2</ele><time>2026-03-25T10:55:41.137Z</time></trkpt><trkpt lat="46.125557" lon="9.3503312"><ele>207.79999999999998</ele><time>2026-03-25T10:55:42.138Z</time></trkpt><trkpt lat="46.1255102" lon="9.350255"><ele>207.39999999999998</ele><time>2026-03-25T10:55:43.137Z</time></trkpt><trkpt lat="46.1254255" lon="9.3501143"><ele>207.0</ele><time>2026-03-25T10:55:45.138Z</time></trkpt><trkpt lat="46.125378" lon="9.350038"><ele>207.0</ele><time>2026-03-25T10:55:46.138Z</time></trkpt><trkpt lat="46.1253421" lon="9.3499511"><ele>207.0</ele><time>2026-03-25T10:55:47.138Z</time></trkpt><trkpt lat="46.1253003" lon="9.349863"><ele>207.0</ele><time>2026-03-25T10:55:48.137Z</time></trkpt><trkpt lat="46.1252331" lon="9.349725"><ele>207.0</ele><time>2026-03-25T10:55:50.138Z</time></trkpt><trkpt lat="46.1251928" lon="9.3496472"><ele>207.0</ele><time>2026-03-25T10:55:51.135Z</time></trkpt><trkpt lat="46.1251435" lon="9.3495823"><ele>207.0</ele><time>2026-03-25T10:55:52.137Z</time></trkpt><trkpt lat="46.1250572" lon="9.3494553"><ele>206.66666666666666</ele><time>2026-03-25T10:55:54.137Z</time></trkpt><trkpt lat="46.1250062" lon="9.3494007"><ele>206.33333333333331</ele><time>2026-03-25T10:55:55.135Z</time></trkpt><trkpt lat="46.1249128" lon="9.349304"><ele>206.0</ele><time>2026-03-25T10:55:57.138Z</time></trkpt><trkpt lat="46.1248594" lon="9.3492384"><ele>205.66666666666666</ele><time>2026-03-25T10:55:58.136Z</time></trkpt><trkpt lat="46.1248093" lon="9.3491576"><ele>205.33333333333331</ele><time>2026-03-25T10:55:59.136Z</time></trkpt><trkpt lat="46.1247576" lon="9.3490868"><ele>205.0</ele><time>2026-03-25T10:56:00.138Z</time></trkpt><trkpt lat="46.1246963" lon="9.3489658"><ele>204.83333333333331</ele><time>2026-03-25T10:56:02.138Z</time></trkpt><trkpt lat="46.1246102" lon="9.3488511"><ele>204.66666666666666</ele><time>2026-03-25T10:56:04.138Z</time></trkpt><trkpt lat="46.1245603" lon="9.3487915"><ele>204.5</ele><time>2026-03-25T10:56:05.137Z</time></trkpt><trkpt lat="46.1245014" lon="9.3487204"><ele>204.33333333333331</ele><time>2026-03-25T10:56:06.136Z</time></trkpt><trkpt lat="46.1244334" lon="9.3486283"><ele>204.16666666666666</ele><time>2026-03-25T10:56:07.138Z</time></trkpt><trkpt lat="46.1243729" lon="9.3485379"><ele>204.0</ele><time>2026-03-25T10:56:08.136Z</time></trkpt><trkpt lat="46.1243155" lon="9.3484776"><ele>204.0</ele><time>2026-03-25T10:56:09.137Z</time></trkpt><trkpt lat="46.1242618" lon="9.3484183"><ele>204.0</ele><time>2026-03-25T10:56:10.137Z</time></trkpt><trkpt lat="46.1242072" lon="9.3483571"><ele>204.0</ele><time>2026-03-25T10:56:11.138Z</time></trkpt><trkpt lat="46.1241096" lon="9.3482326"><ele>204.0</ele><time>2026-03-25T10:56:13.138Z</time></trkpt><trkpt lat="46.1240408" lon="9.3481331"><ele>204.0</ele><time>2026-03-25T10:56:15.138Z</time></trkpt><trkpt lat="46.1239645" lon="9.3480641"><ele>204.33333333333334</ele><time>2026-03-25T10:56:17.136Z</time></trkpt><trkpt lat="46.1239068" lon="9.3479869"><ele>204.66666666666669</ele><time>2026-03-25T10:56:19.137Z</time></trkpt><trkpt lat="46.1238301" lon="9.3479638"><ele>205.0</ele><time>2026-03-25T10:56:22.137Z</time></trkpt><trkpt lat="46.1238013" lon="9.3480498"><ele>205.33333333333334</ele><time>2026-03-25T10:56:25.138Z</time></trkpt><trkpt lat="46.1237762" lon="9.3481584"><ele>205.66666666666669</ele><time>2026-03-25T10:56:28.136Z</time></trkpt><trkpt lat="46.1237792" lon="9.3482875"><ele>206.0</ele><time>2026-03-25T10:56:31.137Z</time></trkpt><trkpt lat="46.1237682" lon="9.3484137"><ele>206.16666666666669</ele><time>2026-03-25T10:56:34.137Z</time></trkpt><trkpt lat="46.1237664" lon="9.3485282"><ele>206.33333333333334</ele><time>2026-03-25T10:56:37.137Z</time></trkpt><trkpt lat="46.1237468" lon="9.3486266"><ele>206.5</ele><time>2026-03-25T10:56:40.137Z</time></trkpt><trkpt lat="46.1237388" lon="9.3487387"><ele>206.66666666666669</ele><time>2026-03-25T10:56:43.138Z</time></trkpt><trkpt lat="46.1237202" lon="9.348874"><ele>206.83333333333334</ele><time>2026-03-25T10:56:46.138Z</time></trkpt><trkpt lat="46.1237033" lon="9.3489709"><ele>207.0</ele><time>2026-03-25T10:56:48.139Z</time></trkpt><trkpt lat="46.1236776" lon="9.3490782"><ele>207.5</ele><time>2026-03-25T10:56:51.138Z</time></trkpt><trkpt lat="46.1236653" lon="9.3492082"><ele>208.0</ele><time>2026-03-25T10:56:54.137Z</time></trkpt><trkpt lat="46.1236253" lon="9.3492994"><ele>208.5</ele><time>2026-03-25T10:56:57.137Z</time></trkpt><trkpt lat="46.1235499" lon="9.3492928"><ele>209.0</ele><time>2026-03-25T10:57:00.136Z</time></trkpt><trkpt lat="46.1234896" lon="9.3492601"><ele>209.5</ele><time>2026-03-25T10:57:02.137Z</time></trkpt><trkpt lat="46.1234269" lon="9.3492371"><ele>210.0</ele><time>2026-03-25T10:57:04.138Z</time></trkpt><trkpt lat="46.123347" lon="9.3492063"><ele>210.0</ele><time>2026-03-25T10:57:07.138Z</time></trkpt><trkpt lat="46.1232735" lon="9.3491801"><ele>210.0</ele><time>2026-03-25T10:57:09.137Z</time></trkpt><trkpt lat="46.1231686" lon="9.3491421"><ele>210.0</ele><time>2026-03-25T10:57:11.136Z</time></trkpt><trkpt lat="46.1230576" lon="9.349076"><ele>210.0</ele><time>2026-03-25T10:57:13.137Z</time></trkpt><trkpt lat="46.122999" lon="9.3490392"><ele>210.0</ele><time>2026-03-25T10:57:14.138Z</time></trkpt><trkpt lat="46.1229218" lon="9.3489925"><ele>209.5</ele><time>2026-03-25T10:57:15.137Z</time></trkpt><trkpt lat="46.1228523" lon="9.3489535"><ele>209.0</ele><time>2026-03-25T10:57:16.137Z</time></trkpt><trkpt lat="46.1227303" lon="9.3488868"><ele>208.5</ele><time>2026-03-25T10:57:18.136Z</time></trkpt><trkpt lat="46.1226687" lon="9.3488561"><ele>208.0</ele><time>2026-03-25T10:57:19.138Z</time></trkpt><trkpt lat="46.1226012" lon="9.3488282"><ele>207.5</ele><time>2026-03-25T10:57:20.139Z</time></trkpt><trkpt lat="46.1225237" lon="9.3487921"><ele>207.0</ele><time>2026-03-25T10:57:21.138Z</time></trkpt><trkpt lat="46.1224551" lon="9.3487579"><ele>206.83333333333334</ele><time>2026-03-25T10:57:22.137Z</time></trkpt><trkpt lat="46.1223921" lon="9.348726"><ele>206.66666666666669</ele><time>2026-03-25T10:57:23.138Z</time></trkpt><trkpt lat="46.122327" lon="9.3486853"><ele>206.5</ele><time>2026-03-25T10:57:24.137Z</time></trkpt><trkpt lat="46.1222605" lon="9.3486538"><ele>206.33333333333334</ele><time>2026-03-25T10:57:25.138Z</time></trkpt><trkpt lat="46.1221387" lon="9.3485992"><ele>206.16666666666669</ele><time>2026-03-25T10:57:27.137Z</time></trkpt><trkpt lat="46.1220715" lon="9.3485574"><ele>206.0</ele><time>2026-03-25T10:57:28.138Z</time></trkpt><trkpt lat="46.1219475" lon="9.3485053"><ele>206.0</ele><time>2026-03-25T10:57:30.137Z</time></trkpt><trkpt lat="46.1218317" lon="9.3484546"><ele>206.0</ele><time>2026-03-25T10:57:32.137Z</time></trkpt><trkpt lat="46.121765" lon="9.348418"><ele>206.0</ele><time>2026-03-25T10:57:33.138Z</time></trkpt><trkpt lat="46.1216902" lon="9.3483852"><ele>206.0</ele><time>2026-03-25T10:57:34.138Z</time></trkpt><trkpt lat="46.1216208" lon="9.3483559"><ele>206.0</ele><time>2026-03-25T10:57:35.137Z</time></trkpt><trkpt lat="46.1215088" lon="9.3483123"><ele>206.20000000000002</ele><time>2026-03-25T10:57:37.137Z</time></trkpt><trkpt lat="46.1214031" lon="9.348249"><ele>206.4</ele><time>2026-03-25T10:57:39.137Z</time></trkpt><trkpt lat="46.1213285" lon="9.3481966"><ele>206.6</ele><time>2026-03-25T10:57:40.138Z</time></trkpt><trkpt lat="46.1212157" lon="9.3481405"><ele>206.8</ele><time>2026-03-25T10:57:42.137Z</time></trkpt><trkpt lat="46.1211474" lon="9.3481257"><ele>207.0</ele><time>2026-03-25T10:57:43.137Z</time></trkpt><trkpt lat="46.1210325" lon="9.3480956"><ele>207.0</ele><time>2026-03-25T10:57:45.137Z</time></trkpt><trkpt lat="46.1209657" lon="9.3480618"><ele>207.0</ele><time>2026-03-25T10:57:46.138Z</time></trkpt><trkpt lat="46.1208578" lon="9.3480009"><ele>207.0</ele><time>2026-03-25T10:57:48.137Z</time></trkpt><trkpt lat="46.1208005" lon="9.3479612"><ele>207.0</ele><time>2026-03-25T10:57:49.138Z</time></trkpt><trkpt lat="46.1207315" lon="9.3479207"><ele>207.0</ele><time>2026-03-25T10:57:50.136Z</time></trkpt><trkpt lat="46.1206242" lon="9.3478644"><ele>207.0</ele><time>2026-03-25T10:57:52.137Z</time></trkpt><trkpt lat="46.1205626" lon="9.3478346"><ele>206.6</ele><time>2026-03-25T10:57:53.137Z</time></trkpt><trkpt lat="46.120455" lon="9.3477794"><ele>206.2</ele><time>2026-03-25T10:57:55.139Z</time></trkpt><trkpt lat="46.120361" lon="9.3477285"><ele>205.8</ele><time>2026-03-25T10:57:57.138Z</time></trkpt><trkpt lat="46.1202647" lon="9.3476636"><ele>205.4</ele><time>2026-03-25T10:57:59.136Z</time></trkpt><trkpt lat="46.1201671" lon="9.3476153"><ele>205.0</ele><time>2026-03-25T10:58:01.138Z</time></trkpt><trkpt lat="46.1200666" lon="9.3475714"><ele>205.0</ele><time>2026-03-25T10:58:03.137Z</time></trkpt><trkpt lat="46.1199575" lon="9.3475233"><ele>205.0</ele><time>2026-03-25T10:58:05.138Z</time></trkpt><trkpt lat="46.1198731" lon="9.3475009"><ele>205.0</ele><time>2026-03-25T10:58:07.138Z</time></trkpt><trkpt lat="46.1197768" lon="9.3474362"><ele>205.0</ele><time>2026-03-25T10:58:09.137Z</time></trkpt><trkpt lat="46.1196678" lon="9.3473863"><ele>205.0</ele><time>2026-03-25T10:58:11.138Z</time></trkpt><trkpt lat="46.1195724" lon="9.3473372"><ele>205.6</ele><time>2026-03-25T10:58:13.137Z</time></trkpt><trkpt lat="46.119467" lon="9.3472856"><ele>206.2</ele><time>2026-03-25T10:58:15.136Z</time></trkpt><trkpt lat="46.1193712" lon="9.3472475"><ele>206.8</ele><time>2026-03-25T10:58:17.137Z</time></trkpt><trkpt lat="46.1192629" lon="9.3472125"><ele>207.4</ele><time>2026-03-25T10:58:19.138Z</time></trkpt><trkpt lat="46.1191489" lon="9.3471926"><ele>208.0</ele><time>2026-03-25T10:58:21.139Z</time></trkpt><trkpt lat="46.1190378" lon="9.3471549"><ele>206.83333333333331</ele><time>2026-03-25T10:58:23.137Z</time></trkpt><trkpt lat="46.1189757" lon="9.3471319"><ele>205.66666666666666</ele><time>2026-03-25T10:58:24.138Z</time></trkpt><trkpt lat="46.1189118" lon="9.3471094"><ele>204.5</ele><time>2026-03-25T10:58:25.137Z</time></trkpt><trkpt lat="46.1188019" lon="9.3470738"><ele>203.33333333333331</ele><time>2026-03-25T10:58:27.136Z</time></trkpt><trkpt lat="46.1186736" lon="9.3470259"><ele>202.16666666666666</ele><time>2026-03-25T10:58:29.138Z</time></trkpt><trkpt lat="46.11861" lon="9.3470023"><ele>201.0</ele><time>2026-03-25T10:58:30.137Z</time></trkpt><trkpt lat="46.1185461" lon="9.3469807"><ele>201.0</ele><time>2026-03-25T10:58:31.138Z</time></trkpt><trkpt lat="46.1184808" lon="9.3469541"><ele>201.0</ele><time>2026-03-25T10:58:32.137Z</time></trkpt><trkpt lat="46.1184153" lon="9.3469374"><ele>201.0</ele><time>2026-03-25T10:58:33.136Z</time></trkpt><trkpt lat="46.1183478" lon="9.3469168"><ele>201.0</ele><time>2026-03-25T10:58:34.137Z</time></trkpt><trkpt lat="46.1182723" lon="9.3468877"><ele>201.0</ele><time>2026-03-25T10:58:35.138Z</time></trkpt><trkpt lat="46.1182033" lon="9.3468659"><ele>201.0</ele><time>2026-03-25T10:58:36.138Z</time></trkpt><trkpt lat="46.1181378" lon="9.3468513"><ele>201.0</ele><time>2026-03-25T10:58:37.138Z</time></trkpt><trkpt lat="46.1180673" lon="9.3468337"><ele>201.33333333333334</ele><time>2026-03-25T10:58:38.138Z</time></trkpt><trkpt lat="46.1180037" lon="9.3468147"><ele>201.66666666666669</ele><time>2026-03-25T10:58:39.137Z</time></trkpt><trkpt lat="46.1179402" lon="9.3467848"><ele>202.0</ele><time>2026-03-25T10:58:40.136Z</time></trkpt><trkpt lat="46.1178751" lon="9.3467616"><ele>202.33333333333334</ele><time>2026-03-25T10:58:41.138Z</time></trkpt><trkpt lat="46.1178102" lon="9.3467357"><ele>202.66666666666669</ele><time>2026-03-25T10:58:42.138Z</time></trkpt><trkpt lat="46.1177424" lon="9.3467163"><ele>203.0</ele><time>2026-03-25T10:58:43.137Z</time></trkpt><trkpt lat="46.1176291" lon="9.3466752"><ele>203.0</ele><time>2026-03-25T10:58:45.136Z</time></trkpt><trkpt lat="46.1175619" lon="9.3466539"><ele>203.0</ele><time>2026-03-25T10:58:46.138Z</time></trkpt><trkpt lat="46.1174446" lon="9.3466108"><ele>203.0</ele><time>2026-03-25T10:58:48.138Z</time></trkpt><trkpt lat="46.117332" lon="9.346563"><ele>203.0</ele><time>2026-03-25T10:58:50.138Z</time></trkpt><trkpt lat="46.1172476" lon="9.3465267"><ele>203.0</ele><time>2026-03-25T10:58:52.137Z</time></trkpt><trkpt lat="46.1171786" lon="9.3464861"><ele>203.83333333333334</ele><time>2026-03-25T10:58:55.139Z</time></trkpt><trkpt lat="46.1171235" lon="9.3464357"><ele>204.66666666666669</ele><time>2026-03-25T10:59:20.136Z</time></trkpt><trkpt lat="46.1170683" lon="9.3463856"><ele>205.5</ele><time>2026-03-25T10:59:23.138Z</time></trkpt><trkpt lat="46.1170126" lon="9.3463128"><ele>206.33333333333331</ele><time>2026-03-25T10:59:26.138Z</time></trkpt><trkpt lat="46.1169642" lon="9.3462378"><ele>207.16666666666666</ele><time>2026-03-25T10:59:28.138Z</time></trkpt><trkpt lat="46.1168617" lon="9.3461454"><ele>208.0</ele><time>2026-03-25T10:59:30.139Z</time></trkpt><trkpt lat="46.1167781" lon="9.3459909"><ele>208.0</ele><time>2026-03-25T10:59:32.138Z</time></trkpt><trkpt lat="46.1167269" lon="9.3459242"><ele>208.0</ele><time>2026-03-25T10:59:33.136Z</time></trkpt><trkpt lat="46.1166556" lon="9.3458041"><ele>208.0</ele><time>2026-03-25T10:59:35.137Z</time></trkpt><trkpt lat="46.1165793" lon="9.3456662"><ele>208.0</ele><time>2026-03-25T10:59:37.137Z</time></trkpt><trkpt lat="46.1165189" lon="9.3455052"><ele>208.0</ele><time>2026-03-25T10:59:39.138Z</time></trkpt><trkpt lat="46.1164666" lon="9.3453323"><ele>211.83333333333331</ele><time>2026-03-25T10:59:41.137Z</time></trkpt><trkpt lat="46.1164451" lon="9.3451482"><ele>215.66666666666666</ele><time>2026-03-25T10:59:43.139Z</time></trkpt><trkpt lat="46.1164273" lon="9.3450527"><ele>219.5</ele><time>2026-03-25T10:59:44.137Z</time></trkpt><trkpt lat="46.1164095" lon="9.3449653"><ele>223.33333333333331</ele><time>2026-03-25T10:59:45.138Z</time></trkpt><trkpt lat="46.116407" lon="9.3448135"><ele>227.16666666666666</ele><time>2026-03-25T10:59:47.138Z</time></trkpt><trkpt lat="46.1163889" lon="9.3447059"><ele>231.0</ele><time>2026-03-25T10:59:48.137Z</time></trkpt><trkpt lat="46.1163652" lon="9.3446171"><ele>231.0</ele><time>2026-03-25T10:59:49.137Z</time></trkpt><trkpt lat="46.1163593" lon="9.3445201"><ele>231.00000000000003</ele><time>2026-03-25T10:59:50.137Z</time></trkpt><trkpt lat="46.1163362" lon="9.3443421"><ele>231.00000000000003</ele><time>2026-03-25T10:59:52.138Z</time></trkpt><trkpt lat="46.116331" lon="9.3442407"><ele>231.0</ele><time>2026-03-25T10:59:53.138Z</time></trkpt><trkpt lat="46.116306" lon="9.3441247"><ele>231.0</ele><time>2026-03-25T10:59:54.137Z</time></trkpt><trkpt lat="46.1163028" lon="9.3439323"><ele>231.28571428571428</ele><time>2026-03-25T10:59:56.139Z</time></trkpt><trkpt lat="46.1162925" lon="9.3438333"><ele>231.57142857142856</ele><time>2026-03-25T10:59:57.138Z</time></trkpt><trkpt lat="46.1162934" lon="9.3437374"><ele>231.85714285714286</ele><time>2026-03-25T10:59:58.136Z</time></trkpt><trkpt lat="46.11628" lon="9.3436448"><ele>232.14285714285714</ele><time>2026-03-25T10:59:59.137Z</time></trkpt><trkpt lat="46.1162781" lon="9.3435397"><ele>232.42857142857142</ele><time>2026-03-25T11:00:00.138Z</time></trkpt><trkpt lat="46.1162697" lon="9.3434379"><ele>232.71428571428572</ele><time>2026-03-25T11:00:01.137Z</time></trkpt><trkpt lat="46.1162627" lon="9.3433427"><ele>233.0</ele><time>2026-03-25T11:00:02.137Z</time></trkpt><trkpt lat="46.1162622" lon="9.3432453"><ele>233.0</ele><time>2026-03-25T11:00:03.138Z</time></trkpt><trkpt lat="46.1162554" lon="9.3431381"><ele>233.0</ele><time>2026-03-25T11:00:04.137Z</time></trkpt><trkpt lat="46.1162439" lon="9.3429582"><ele>233.0</ele><time>2026-03-25T11:00:06.137Z</time></trkpt><trkpt lat="46.1162387" lon="9.3427659"><ele>233.0</ele><time>2026-03-25T11:00:08.137Z</time></trkpt><trkpt lat="46.1162348" lon="9.342667"><ele>233.0</ele><time>2026-03-25T11:00:09.137Z</time></trkpt><trkpt lat="46.1162507" lon="9.3425432"><ele>234.50000000000003</ele><time>2026-03-25T11:00:10.139Z</time></trkpt><trkpt lat="46.1162661" lon="9.3423607"><ele>236.0</ele><time>2026-03-25T11:00:12.137Z</time></trkpt><trkpt lat="46.1162741" lon="9.3422636"><ele>237.5</ele><time>2026-03-25T11:00:13.137Z</time></trkpt><trkpt lat="46.1162846" lon="9.3421739"><ele>239.0</ele><time>2026-03-25T11:00:14.138Z</time></trkpt><trkpt lat="46.116304" lon="9.3420771"><ele>240.50000000000003</ele><time>2026-03-25T11:00:15.137Z</time></trkpt><trkpt lat="46.1163242" lon="9.3419895"><ele>242.0</ele><time>2026-03-25T11:00:16.138Z</time></trkpt><trkpt lat="46.1163414" lon="9.3418834"><ele>243.8</ele><time>2026-03-25T11:00:17.138Z</time></trkpt><trkpt lat="46.1163753" lon="9.3417435"><ele>245.6</ele><time>2026-03-25T11:00:19.136Z</time></trkpt><trkpt lat="46.1163937" lon="9.3416544"><ele>247.40000000000003</ele><time>2026-03-25T11:00:20.138Z</time></trkpt><trkpt lat="46.1164277" lon="9.3415057"><ele>249.20000000000002</ele><time>2026-03-25T11:00:22.136Z</time></trkpt><trkpt lat="46.1164593" lon="9.341373"><ele>251.0</ele><time>2026-03-25T11:00:24.138Z</time></trkpt><trkpt lat="46.116496" lon="9.3412579"><ele>254.16666666666669</ele><time>2026-03-25T11:00:25.139Z</time></trkpt><trkpt lat="46.1165209" lon="9.3411714"><ele>257.33333333333337</ele><time>2026-03-25T11:00:26.138Z</time></trkpt><trkpt lat="46.1165497" lon="9.3410736"><ele>260.5</ele><time>2026-03-25T11:00:27.137Z</time></trkpt><trkpt lat="46.1166025" lon="9.3409053"><ele>263.6666666666667</ele><time>2026-03-25T11:00:29.138Z</time></trkpt><trkpt lat="46.1166304" lon="9.3408194"><ele>266.8333333333333</ele><time>2026-03-25T11:00:30.138Z</time></trkpt><trkpt lat="46.1166636" lon="9.340666"><ele>270.0</ele><time>2026-03-25T11:00:32.138Z</time></trkpt><trkpt lat="46.1166971" lon="9.3405145"><ele>262.5</ele><time>2026-03-25T11:00:34.138Z</time></trkpt><trkpt lat="46.1167285" lon="9.3404272"><ele>255.0</ele><time>2026-03-25T11:00:35.138Z</time></trkpt><trkpt lat="46.1167766" lon="9.3402619"><ele>247.5</ele><time>2026-03-25T11:00:37.139Z</time></trkpt><trkpt lat="46.1168046" lon="9.3401797"><ele>240.0</ele><time>2026-03-25T11:00:38.139Z</time></trkpt><trkpt lat="46.1168184" lon="9.3400868"><ele>232.5</ele><time>2026-03-25T11:00:39.137Z</time></trkpt><trkpt lat="46.1168476" lon="9.339994"><ele>225.0</ele><time>2026-03-25T11:00:40.137Z</time></trkpt><trkpt lat="46.116865" lon="9.3399052"><ele>225.0</ele><time>2026-03-25T11:00:41.139Z</time></trkpt><trkpt lat="46.116893" lon="9.3397504"><ele>225.0</ele><time>2026-03-25T11:00:43.139Z</time></trkpt><trkpt lat="46.1169203" lon="9.3395834"><ele>225.0</ele><time>2026-03-25T11:00:45.138Z</time></trkpt><trkpt lat="46.1169526" lon="9.3394072"><ele>225.0</ele><time>2026-03-25T11:00:47.138Z</time></trkpt><trkpt lat="46.1169787" lon="9.3392275"><ele>227.4</ele><time>2026-03-25T11:00:49.139Z</time></trkpt><trkpt lat="46.1170056" lon="9.3390616"><ele>229.8</ele><time>2026-03-25T11:00:51.139Z</time></trkpt><trkpt lat="46.1170204" lon="9.338914"><ele>232.2</ele><time>2026-03-25T11:00:53.138Z</time></trkpt><trkpt lat="46.1170342" lon="9.3387688"><ele>234.6</ele><time>2026-03-25T11:00:55.138Z</time></trkpt><trkpt lat="46.1170318" lon="9.3385977"><ele>237.0</ele><time>2026-03-25T11:00:57.137Z</time></trkpt><trkpt lat="46.1170301" lon="9.3384369"><ele>237.5</ele><time>2026-03-25T11:00:59.137Z</time></trkpt><trkpt lat="46.1170205" lon="9.3383271"><ele>238.0</ele><time>2026-03-25T11:01:00.687Z</time></trkpt><trkpt lat="46.1170155" lon="9.3382333"><ele>238.5</ele><time>2026-03-25T11:01:02.141Z</time></trkpt><trkpt lat="46.1170051" lon="9.3381046"><ele>239.0</ele><time>2026-03-25T11:01:04.141Z</time></trkpt><trkpt lat="46.117026" lon="9.3379695"><ele>239.5</ele><time>2026-03-25T11:01:06.14Z</time></trkpt><trkpt lat="46.1170089" lon="9.3378583"><ele>240.0</ele><time>2026-03-25T11:01:08.146Z</time></trkpt><trkpt lat="46.1170025" lon="9.337711"><ele>238.8</ele><time>2026-03-25T11:01:10.136Z</time></trkpt><trkpt lat="46.1169858" lon="9.3375733"><ele>237.6</ele><time>2026-03-25T11:01:12.133Z</time></trkpt><trkpt lat="46.1169652" lon="9.3374375"><ele>236.39999999999998</ele><time>2026-03-25T11:01:14.144Z</time></trkpt><trkpt lat="46.1169461" lon="9.3372824"><ele>235.2</ele><time>2026-03-25T11:01:16.138Z</time></trkpt><trkpt lat="46.1169059" lon="9.3371419"><ele>234.0</ele><time>2026-03-25T11:01:18.14Z</time></trkpt><trkpt lat="46.1168629" lon="9.3370705"><ele>232.0</ele><time>2026-03-25T11:01:19.141Z</time></trkpt><trkpt lat="46.1168462" lon="9.3369116"><ele>230.0</ele><time>2026-03-25T11:01:21.134Z</time></trkpt><trkpt lat="46.1167909" lon="9.336792"><ele>228.0</ele><time>2026-03-25T11:01:23.138Z</time></trkpt><trkpt lat="46.1167353" lon="9.336743"><ele>226.0</ele><time>2026-03-25T11:01:25.141Z</time></trkpt><trkpt lat="46.1166801" lon="9.3366753"><ele>224.0</ele><time>2026-03-25T11:01:27.135Z</time></trkpt><trkpt lat="46.1166159" lon="9.3366138"><ele>222.0</ele><time>2026-03-25T11:01:28.107Z</time></trkpt><trkpt lat="46.116574" lon="9.3365391"><ele>228.83333333333334</ele><time>2026-03-25T11:01:30.14Z</time></trkpt><trkpt lat="46.1165338" lon="9.3364444"><ele>235.66666666666669</ele><time>2026-03-25T11:01:32.134Z</time></trkpt><trkpt lat="46.116489" lon="9.3363627"><ele>242.5</ele><time>2026-03-25T11:01:34.132Z</time></trkpt><trkpt lat="46.1164521" lon="9.336268"><ele>249.33333333333334</ele><time>2026-03-25T11:01:36.153Z</time></trkpt><trkpt lat="46.1164094" lon="9.3361553"><ele>256.1666666666667</ele><time>2026-03-25T11:01:38.138Z</time></trkpt><trkpt lat="46.116364" lon="9.3360586"><ele>263.0</ele><time>2026-03-25T11:01:40.14Z</time></trkpt><trkpt lat="46.1163167" lon="9.3359747"><ele>263.0</ele><time>2026-03-25T11:01:42.134Z</time></trkpt><trkpt lat="46.116267" lon="9.3358957"><ele>263.0</ele><time>2026-03-25T11:01:44.143Z</time></trkpt><trkpt lat="46.1162073" lon="9.3357791"><ele>263.0</ele><time>2026-03-25T11:01:46.14Z</time></trkpt><trkpt lat="46.1161475" lon="9.3357026"><ele>263.0</ele><time>2026-03-25T11:01:48.135Z</time></trkpt><trkpt lat="46.1161062" lon="9.3356195"><ele>263.0</ele><time>2026-03-25T11:01:50.134Z</time></trkpt><trkpt lat="46.116064" lon="9.3355201"><ele>263.0</ele><time>2026-03-25T11:01:52.141Z</time></trkpt><trkpt lat="46.1160053" lon="9.3354342"><ele>259.5</ele><time>2026-03-25T11:01:54.136Z</time></trkpt><trkpt lat="46.1159701" lon="9.3353152"><ele>256.0</ele><time>2026-03-25T11:01:57.137Z</time></trkpt><trkpt lat="46.1159415" lon="9.3352047"><ele>252.5</ele><time>2026-03-25T11:01:59.136Z</time></trkpt><trkpt lat="46.1159163" lon="9.3350607"><ele>249.0</ele><time>2026-03-25T11:02:01.138Z</time></trkpt><trkpt lat="46.1159178" lon="9.3349378"><ele>245.50000000000003</ele><time>2026-03-25T11:02:03.136Z</time></trkpt><trkpt lat="46.1159186" lon="9.3348117"><ele>242.0</ele><time>2026-03-25T11:02:05.134Z</time></trkpt><trkpt lat="46.1159292" lon="9.3346945"><ele>239.00000000000003</ele><time>2026-03-25T11:02:07.142Z</time></trkpt><trkpt lat="46.1159094" lon="9.3345812"><ele>236.0</ele><time>2026-03-25T11:02:09.144Z</time></trkpt><trkpt lat="46.1158861" lon="9.3344696"><ele>233.0</ele><time>2026-03-25T11:02:11.137Z</time></trkpt><trkpt lat="46.1158564" lon="9.3343601"><ele>230.0</ele><time>2026-03-25T11:02:13.138Z</time></trkpt><trkpt lat="46.1158157" lon="9.3342371"><ele>227.00000000000003</ele><time>2026-03-25T11:02:15.139Z</time></trkpt><trkpt lat="46.115772" lon="9.334165"><ele>224.0</ele><time>2026-03-25T11:02:17.134Z</time></trkpt><trkpt lat="46.1157298" lon="9.3340636"><ele>227.83333333333334</ele><time>2026-03-25T11:02:19.138Z</time></trkpt><trkpt lat="46.1156898" lon="9.3339578"><ele>231.66666666666669</ele><time>2026-03-25T11:02:21.145Z</time></trkpt><trkpt lat="46.1156515" lon="9.3338491"><ele>235.5</ele><time>2026-03-25T11:02:23.145Z</time></trkpt><trkpt lat="46.1156016" lon="9.3337475"><ele>239.33333333333331</ele><time>2026-03-25T11:02:25.143Z</time></trkpt><trkpt lat="46.1155598" lon="9.3336604"><ele>243.16666666666666</ele><time>2026-03-25T11:02:27.135Z</time></trkpt><trkpt lat="46.1155252" lon="9.3335664"><ele>247.0</ele><time>2026-03-25T11:02:29.14Z</time></trkpt><trkpt lat="46.115481" lon="9.3334707"><ele>246.99999999999997</ele><time>2026-03-25T11:02:31.144Z</time></trkpt><trkpt lat="46.1154408" lon="9.3333901"><ele>247.0</ele><time>2026-03-25T11:02:33.143Z</time></trkpt><trkpt lat="46.1153856" lon="9.3333025"><ele>247.0</ele><time>2026-03-25T11:02:36.131Z</time></trkpt><trkpt lat="46.1153126" lon="9.3331951"><ele>247.0</ele><time>2026-03-25T11:02:39.135Z</time></trkpt><trkpt lat="46.1152587" lon="9.3331055"><ele>246.99999999999997</ele><time>2026-03-25T11:02:41.145Z</time></trkpt><trkpt lat="46.1151876" lon="9.3330046"><ele>247.0</ele><time>2026-03-25T11:02:43.139Z</time></trkpt><trkpt lat="46.1151372" lon="9.3329333"><ele>243.33333333333331</ele><time>2026-03-25T11:02:45.138Z</time></trkpt><trkpt lat="46.1150857" lon="9.3328591"><ele>239.66666666666666</ele><time>2026-03-25T11:02:47.136Z</time></trkpt><trkpt lat="46.1150435" lon="9.3327425"><ele>236.0</ele><time>2026-03-25T11:02:49.137Z</time></trkpt><trkpt lat="46.1150176" lon="9.332633"><ele>232.33333333333331</ele><time>2026-03-25T11:02:51.142Z</time></trkpt><trkpt lat="46.1149841" lon="9.3325148"><ele>228.66666666666666</ele><time>2026-03-25T11:02:54.136Z</time></trkpt><trkpt lat="46.1149573" lon="9.332403"><ele>225.0</ele><time>2026-03-25T11:02:57.093Z</time></trkpt><trkpt lat="46.1149282" lon="9.3323222"><ele>230.4</ele><time>2026-03-25T11:02:59.143Z</time></trkpt><trkpt lat="46.114894" lon="9.3322396"><ele>235.8</ele><time>2026-03-25T11:03:01.133Z</time></trkpt><trkpt lat="46.114843" lon="9.3321283"><ele>241.2</ele><time>2026-03-25T11:03:03.141Z</time></trkpt><trkpt lat="46.1147879" lon="9.3320081"><ele>246.6</ele><time>2026-03-25T11:03:05.138Z</time></trkpt><trkpt lat="46.1147462" lon="9.3318808"><ele>252.0</ele><time>2026-03-25T11:03:07.138Z</time></trkpt><trkpt lat="46.1147135" lon="9.3317544"><ele>252.0</ele><time>2026-03-25T11:03:09.072Z</time></trkpt><trkpt lat="46.114675" lon="9.331602"><ele>252.0</ele><time>2026-03-25T11:03:11.137Z</time></trkpt><trkpt lat="46.1146413" lon="9.3314766"><ele>252.0</ele><time>2026-03-25T11:03:13.138Z</time></trkpt><trkpt lat="46.1146056" lon="9.3313539"><ele>252.0</ele><time>2026-03-25T11:03:15.135Z</time></trkpt><trkpt lat="46.1145727" lon="9.3312463"><ele>252.0</ele><time>2026-03-25T11:03:17.136Z</time></trkpt><trkpt lat="46.1145424" lon="9.3311335"><ele>250.83333333333334</ele><time>2026-03-25T11:03:19.142Z</time></trkpt><trkpt lat="46.114517" lon="9.3310228"><ele>249.66666666666669</ele><time>2026-03-25T11:03:21.138Z</time></trkpt><trkpt lat="46.1144803" lon="9.3308854"><ele>248.5</ele><time>2026-03-25T11:03:23.05Z</time></trkpt><trkpt lat="46.1144681" lon="9.3307956"><ele>247.33333333333334</ele><time>2026-03-25T11:03:24.138Z</time></trkpt><trkpt lat="46.1144389" lon="9.3306377"><ele>246.16666666666669</ele><time>2026-03-25T11:03:26.135Z</time></trkpt><trkpt lat="46.1144364" lon="9.3305094"><ele>245.0</ele><time>2026-03-25T11:03:28.141Z</time></trkpt><trkpt lat="46.1144389" lon="9.3303842"><ele>243.66666666666669</ele><time>2026-03-25T11:03:30.133Z</time></trkpt><trkpt lat="46.1144363" lon="9.3302519"><ele>242.33333333333334</ele><time>2026-03-25T11:03:32.134Z</time></trkpt><trkpt lat="46.1144398" lon="9.330138"><ele>241.0</ele><time>2026-03-25T11:03:34.141Z</time></trkpt><trkpt lat="46.1144321" lon="9.3300062"><ele>239.66666666666669</ele><time>2026-03-25T11:03:36.134Z</time></trkpt><trkpt lat="46.1144265" lon="9.3298863"><ele>238.33333333333334</ele><time>2026-03-25T11:03:38.143Z</time></trkpt><trkpt lat="46.114437" lon="9.3297438"><ele>237.0</ele><time>2026-03-25T11:03:40.142Z</time></trkpt><trkpt lat="46.1144295" lon="9.3296184"><ele>236.5</ele><time>2026-03-25T11:03:42.133Z</time></trkpt><trkpt lat="46.114426" lon="9.3294692"><ele>236.0</ele><time>2026-03-25T11:03:44.144Z</time></trkpt><trkpt lat="46.1144233" lon="9.3293376"><ele>235.5</ele><time>2026-03-25T11:03:46.141Z</time></trkpt><trkpt lat="46.1144189" lon="9.3292276"><ele>235.0</ele><time>2026-03-25T11:03:48.141Z</time></trkpt><trkpt lat="46.1144265" lon="9.3291008"><ele>234.5</ele><time>2026-03-25T11:03:50.135Z</time></trkpt><trkpt lat="46.1144231" lon="9.3290008"><ele>234.0</ele><time>2026-03-25T11:03:52.137Z</time></trkpt><trkpt lat="46.1144143" lon="9.3288985"><ele>232.83333333333334</ele><time>2026-03-25T11:03:54.133Z</time></trkpt><trkpt lat="46.1144051" lon="9.328783"><ele>231.66666666666669</ele><time>2026-03-25T11:03:56.143Z</time></trkpt><trkpt lat="46.1143862" lon="9.3286765"><ele>230.5</ele><time>2026-03-25T11:03:58.139Z</time></trkpt><trkpt lat="46.1143352" lon="9.3285542"><ele>229.33333333333334</ele><time>2026-03-25T11:04:00.136Z</time></trkpt><trkpt lat="46.11427" lon="9.328451"><ele>228.16666666666669</ele><time>2026-03-25T11:04:02.132Z</time></trkpt><trkpt lat="46.1142176" lon="9.3283701"><ele>227.0</ele><time>2026-03-25T11:04:04.144Z</time></trkpt><trkpt lat="46.1141562" lon="9.3282787"><ele>227.0</ele><time>2026-03-25T11:04:06.133Z</time></trkpt><trkpt lat="46.1141002" lon="9.3281664"><ele>227.0</ele><time>2026-03-25T11:04:08.141Z</time></trkpt><trkpt lat="46.1140664" lon="9.3280483"><ele>227.0</ele><time>2026-03-25T11:04:10.132Z</time></trkpt><trkpt lat="46.1140505" lon="9.3279129"><ele>227.0</ele><time>2026-03-25T11:04:12.131Z</time></trkpt><trkpt lat="46.1140428" lon="9.3277811"><ele>227.0</ele><time>2026-03-25T11:04:14.139Z</time></trkpt><trkpt lat="46.1140084" lon="9.3276348"><ele>238.39999999999998</ele><time>2026-03-25T11:04:16.145Z</time></trkpt><trkpt lat="46.1139992" lon="9.3274953"><ele>249.79999999999998</ele><time>2026-03-25T11:04:18.144Z</time></trkpt><trkpt lat="46.1139883" lon="9.3273622"><ele>261.2</ele><time>2026-03-25T11:04:20.14Z</time></trkpt><trkpt lat="46.1139783" lon="9.3272132"><ele>272.59999999999997</ele><time>2026-03-25T11:04:22.146Z</time></trkpt><trkpt lat="46.113976" lon="9.3270672"><ele>284.0</ele><time>2026-03-25T11:04:24.145Z</time></trkpt><trkpt lat="46.11398" lon="9.3269239"><ele>284.4</ele><time>2026-03-25T11:04:26.134Z</time></trkpt><trkpt lat="46.1139882" lon="9.3267803"><ele>284.79999999999995</ele><time>2026-03-25T11:04:28.136Z</time></trkpt><trkpt lat="46.1140027" lon="9.3266447"><ele>285.20000000000005</ele><time>2026-03-25T11:04:30.143Z</time></trkpt><trkpt lat="46.1140355" lon="9.3265108"><ele>285.6</ele><time>2026-03-25T11:04:32.132Z</time></trkpt><trkpt lat="46.1140638" lon="9.3263758"><ele>286.0</ele><time>2026-03-25T11:04:34.143Z</time></trkpt><trkpt lat="46.1140981" lon="9.3262344"><ele>276.40000000000003</ele><time>2026-03-25T11:04:36.137Z</time></trkpt><trkpt lat="46.1141328" lon="9.3260912"><ele>266.8</ele><time>2026-03-25T11:04:38.136Z</time></trkpt><trkpt lat="46.1141618" lon="9.3259643"><ele>257.20000000000005</ele><time>2026-03-25T11:04:40.137Z</time></trkpt><trkpt lat="46.1141822" lon="9.325838"><ele>247.60000000000002</ele><time>2026-03-25T11:04:42.14Z</time></trkpt><trkpt lat="46.1142067" lon="9.3257079"><ele>238.0</ele><time>2026-03-25T11:04:44.138Z</time></trkpt><trkpt lat="46.1142371" lon="9.3256015"><ele>240.66666666666666</ele><time>2026-03-25T11:04:46.132Z</time></trkpt><trkpt lat="46.1142719" lon="9.3254892"><ele>243.33333333333331</ele><time>2026-03-25T11:04:48.14Z</time></trkpt><trkpt lat="46.1143033" lon="9.3254053"><ele>246.0</ele><time>2026-03-25T11:04:50.14Z</time></trkpt><trkpt lat="46.1143361" lon="9.3252899"><ele>248.66666666666669</ele><time>2026-03-25T11:04:52.135Z</time></trkpt><trkpt lat="46.1143867" lon="9.3252064"><ele>251.33333333333334</ele><time>2026-03-25T11:04:54.146Z</time></trkpt><trkpt lat="46.1144381" lon="9.325125"><ele>254.0</ele><time>2026-03-25T11:04:56.144Z</time></trkpt><trkpt lat="46.1144855" lon="9.3250476"><ele>254.00000000000003</ele><time>2026-03-25T11:04:58.133Z</time></trkpt><trkpt lat="46.1145277" lon="9.3249757"><ele>254.0</ele><time>2026-03-25T11:05:00.136Z</time></trkpt><trkpt lat="46.1145842" lon="9.3248731"><ele>254.0</ele><time>2026-03-25T11:05:03.145Z</time></trkpt><trkpt lat="46.1146052" lon="9.324785"><ele>254.0</ele><time>2026-03-25T11:05:06.137Z</time></trkpt><trkpt lat="46.1146427" lon="9.3246901"><ele>254.00000000000003</ele><time>2026-03-25T11:05:09.136Z</time></trkpt><trkpt lat="46.114666" lon="9.3245748"><ele>254.0</ele><time>2026-03-25T11:05:12.135Z</time></trkpt><trkpt lat="46.1146899" lon="9.3244534"><ele>256.5</ele><time>2026-03-25T11:05:15.139Z</time></trkpt><trkpt lat="46.1147143" lon="9.3243639"><ele>259.0</ele><time>2026-03-25T11:05:17.132Z</time></trkpt><trkpt lat="46.1147207" lon="9.3242386"><ele>261.5</ele><time>2026-03-25T11:05:20.144Z</time></trkpt><trkpt lat="46.1147277" lon="9.3241367"><ele>264.0</ele><time>2026-03-25T11:05:23.134Z</time></trkpt><trkpt lat="46.1147405" lon="9.324047"><ele>266.5</ele><time>2026-03-25T11:05:26.144Z</time></trkpt><trkpt lat="46.1147373" lon="9.3239086"><ele>269.0</ele><time>2026-03-25T11:05:29.143Z</time></trkpt><trkpt lat="46.1147254" lon="9.323787"><ele>269.5</ele><time>2026-03-25T11:05:32.145Z</time></trkpt><trkpt lat="46.1147079" lon="9.3236995"><ele>270.0</ele><time>2026-03-25T11:05:34.141Z</time></trkpt><trkpt lat="46.114678" lon="9.3235974"><ele>270.5</ele><time>2026-03-25T11:05:37.134Z</time></trkpt><trkpt lat="46.1146593" lon="9.3234971"><ele>271.0</ele><time>2026-03-25T11:05:40.132Z</time></trkpt><trkpt lat="46.1146244" lon="9.3234191"><ele>271.5</ele><time>2026-03-25T11:05:43.14Z</time></trkpt><trkpt lat="46.1146168" lon="9.3233178"><ele>272.0</ele><time>2026-03-25T11:05:46.143Z</time></trkpt><trkpt lat="46.1146107" lon="9.3231688"><ele>272.0</ele><time>2026-03-25T11:05:51.137Z</time></trkpt><trkpt lat="46.1146082" lon="9.3230671"><ele>272.0</ele><time>2026-03-25T11:05:53.145Z</time></trkpt><trkpt lat="46.1145964" lon="9.3229538"><ele>272.0</ele><time>2026-03-25T11:05:56.136Z</time></trkpt><trkpt lat="46.1146023" lon="9.3228517"><ele>272.0</ele><time>2026-03-25T11:05:59.138Z</time></trkpt><trkpt lat="46.1146121" lon="9.3227561"><ele>272.0</ele><time>2026-03-25T11:06:02.138Z</time></trkpt><trkpt lat="46.1146155" lon="9.3226358"><ele>272.0</ele><time>2026-03-25T11:06:05.139Z</time></trkpt><trkpt lat="46.1146083" lon="9.3225071"><ele>271.6666666666667</ele><time>2026-03-25T11:06:08.138Z</time></trkpt><trkpt lat="46.1145872" lon="9.3223723"><ele>271.33333333333337</ele><time>2026-03-25T11:06:11.139Z</time></trkpt><trkpt lat="46.1145655" lon="9.3222501"><ele>271.0</ele><time>2026-03-25T11:06:14.138Z</time></trkpt><trkpt lat="46.1145479" lon="9.3221465"><ele>270.6666666666667</ele><time>2026-03-25T11:06:17.139Z</time></trkpt><trkpt lat="46.1145612" lon="9.3220381"><ele>270.3333333333333</ele><time>2026-03-25T11:06:20.139Z</time></trkpt><trkpt lat="46.1145601" lon="9.3219227"><ele>270.0</ele><time>2026-03-25T11:06:23.139Z</time></trkpt><trkpt lat="46.1145605" lon="9.321821"><ele>269.8333333333333</ele><time>2026-03-25T11:06:26.138Z</time></trkpt><trkpt lat="46.1145414" lon="9.3217049"><ele>269.6666666666667</ele><time>2026-03-25T11:06:30.139Z</time></trkpt><trkpt lat="46.1145539" lon="9.321588"><ele>269.5</ele><time>2026-03-25T11:06:33.139Z</time></trkpt><trkpt lat="46.1145734" lon="9.3214688"><ele>269.33333333333337</ele><time>2026-03-25T11:06:36.138Z</time></trkpt><trkpt lat="46.1145783" lon="9.3213583"><ele>269.1666666666667</ele><time>2026-03-25T11:06:39.138Z</time></trkpt><trkpt lat="46.1145879" lon="9.3212514"><ele>269.0</ele><time>2026-03-25T11:06:43.138Z</time></trkpt><trkpt lat="46.1145884" lon="9.321147"><ele>268.7142857142857</ele><time>2026-03-25T11:06:46.138Z</time></trkpt><trkpt lat="46.1145888" lon="9.3210529"><ele>268.42857142857144</ele><time>2026-03-25T11:06:49.138Z</time></trkpt><trkpt lat="46.1145822" lon="9.3209518"><ele>268.14285714285717</ele><time>2026-03-25T11:06:52.138Z</time></trkpt><trkpt lat="46.1145785" lon="9.3208591"><ele>267.8571428571429</ele><time>2026-03-25T11:06:55.139Z</time></trkpt><trkpt lat="46.1145774" lon="9.32074"><ele>267.57142857142856</ele><time>2026-03-25T11:06:58.138Z</time></trkpt><trkpt lat="46.1145723" lon="9.3206189"><ele>267.28571428571433</ele><time>2026-03-25T11:07:01.139Z</time></trkpt><trkpt lat="46.1145674" lon="9.3205139"><ele>267.0</ele><time>2026-03-25T11:07:04.139Z</time></trkpt><trkpt lat="46.1145732" lon="9.3204039"><ele>266.8333333333333</ele><time>2026-03-25T11:07:07.139Z</time></trkpt><trkpt lat="46.1145689" lon="9.3202815"><ele>266.6666666666667</ele><time>2026-03-25T11:07:10.138Z</time></trkpt><trkpt lat="46.1145788" lon="9.3201288"><ele>266.5</ele><time>2026-03-25T11:07:14.138Z</time></trkpt><trkpt lat="46.114589" lon="9.3200113"><ele>266.33333333333337</ele><time>2026-03-25T11:07:17.138Z</time></trkpt><trkpt lat="46.1145795" lon="9.319903"><ele>266.1666666666667</ele><time>2026-03-25T11:07:20.138Z</time></trkpt><trkpt lat="46.1145732" lon="9.319774"><ele>266.0</ele><time>2026-03-25T11:07:23.138Z</time></trkpt><trkpt lat="46.1145868" lon="9.3196746"><ele>266.0</ele><time>2026-03-25T11:07:26.138Z</time></trkpt><trkpt lat="46.1145821" lon="9.31958"><ele>266.0</ele><time>2026-03-25T11:07:29.138Z</time></trkpt><trkpt lat="46.1145733" lon="9.3194738"><ele>266.0</ele><time>2026-03-25T11:07:32.138Z</time></trkpt><trkpt lat="46.1145706" lon="9.3193622"><ele>266.0</ele><time>2026-03-25T11:07:35.139Z</time></trkpt><trkpt lat="46.1145888" lon="9.3192412"><ele>266.0</ele><time>2026-03-25T11:07:38.139Z</time></trkpt><trkpt lat="46.114598" lon="9.3191477"><ele>266.0</ele><time>2026-03-25T11:07:41.138Z</time></trkpt><trkpt lat="46.1146019" lon="9.3190564"><ele>266.0</ele><time>2026-03-25T11:07:44.138Z</time></trkpt><trkpt lat="46.1146031" lon="9.3189344"><ele>265.0</ele><time>2026-03-25T11:07:47.139Z</time></trkpt><trkpt lat="46.1145915" lon="9.318828"><ele>264.0</ele><time>2026-03-25T11:07:50.139Z</time></trkpt><trkpt lat="46.1146048" lon="9.318726"><ele>263.0</ele><time>2026-03-25T11:07:53.138Z</time></trkpt><trkpt lat="46.1146096" lon="9.3186033"><ele>262.0</ele><time>2026-03-25T11:07:56.139Z</time></trkpt><trkpt lat="46.1146166" lon="9.3184816"><ele>261.0</ele><time>2026-03-25T11:07:59.139Z</time></trkpt><trkpt lat="46.1145984" lon="9.3183916"><ele>260.0</ele><time>2026-03-25T11:08:01.138Z</time></trkpt><trkpt lat="46.1145898" lon="9.3182994"><ele>259.0</ele><time>2026-03-25T11:08:03.138Z</time></trkpt><trkpt lat="46.1145602" lon="9.3181535"><ele>258.2</ele><time>2026-03-25T11:08:06.138Z</time></trkpt><trkpt lat="46.1145349" lon="9.3180319"><ele>257.4</ele><time>2026-03-25T11:08:09.139Z</time></trkpt><trkpt lat="46.1145012" lon="9.3179023"><ele>256.6</ele><time>2026-03-25T11:08:12.139Z</time></trkpt><trkpt lat="46.11446" lon="9.317772"><ele>255.8</ele><time>2026-03-25T11:08:14.138Z</time></trkpt><trkpt lat="46.1144021" lon="9.3176376"><ele>255.0</ele><time>2026-03-25T11:08:16.138Z</time></trkpt><trkpt lat="46.114353" lon="9.3175279"><ele>255.0</ele><time>2026-03-25T11:08:18.138Z</time></trkpt><trkpt lat="46.1142808" lon="9.3174027"><ele>255.0</ele><time>2026-03-25T11:08:20.139Z</time></trkpt><trkpt lat="46.1142279" lon="9.3173139"><ele>255.0</ele><time>2026-03-25T11:08:21.138Z</time></trkpt><trkpt lat="46.1141688" lon="9.3172278"><ele>255.0</ele><time>2026-03-25T11:08:22.138Z</time></trkpt><trkpt lat="46.1140784" lon="9.3170881"><ele>255.0</ele><time>2026-03-25T11:08:24.139Z</time></trkpt><trkpt lat="46.1140209" lon="9.317023"><ele>254.83333333333334</ele><time>2026-03-25T11:08:25.138Z</time></trkpt><trkpt lat="46.1139607" lon="9.3169578"><ele>254.66666666666669</ele><time>2026-03-25T11:08:26.138Z</time></trkpt><trkpt lat="46.113888" lon="9.3168945"><ele>254.5</ele><time>2026-03-25T11:08:27.139Z</time></trkpt><trkpt lat="46.1138279" lon="9.31682"><ele>254.33333333333334</ele><time>2026-03-25T11:08:28.139Z</time></trkpt><trkpt lat="46.1137731" lon="9.3167446"><ele>254.16666666666669</ele><time>2026-03-25T11:08:29.139Z</time></trkpt><trkpt lat="46.1136966" lon="9.3166886"><ele>254.0</ele><time>2026-03-25T11:08:30.139Z</time></trkpt><trkpt lat="46.1136321" lon="9.3166435"><ele>254.00000000000003</ele><time>2026-03-25T11:08:31.138Z</time></trkpt><trkpt lat="46.1135619" lon="9.3165899"><ele>254.0</ele><time>2026-03-25T11:08:32.139Z</time></trkpt><trkpt lat="46.1134929" lon="9.3165474"><ele>254.0</ele><time>2026-03-25T11:08:33.139Z</time></trkpt><trkpt lat="46.1134189" lon="9.3165064"><ele>254.0</ele><time>2026-03-25T11:08:34.139Z</time></trkpt><trkpt lat="46.1133513" lon="9.3165202"><ele>254.00000000000003</ele><time>2026-03-25T11:08:35.139Z</time></trkpt><trkpt lat="46.1132774" lon="9.3165434"><ele>254.0</ele><time>2026-03-25T11:08:36.138Z</time></trkpt><trkpt lat="46.1132011" lon="9.3165476"><ele>253.2</ele><time>2026-03-25T11:08:37.138Z</time></trkpt><trkpt lat="46.1131119" lon="9.3165783"><ele>252.39999999999998</ele><time>2026-03-25T11:08:38.138Z</time></trkpt><trkpt lat="46.1130305" lon="9.3165874"><ele>251.6</ele><time>2026-03-25T11:08:39.139Z</time></trkpt><trkpt lat="46.1129549" lon="9.3166037"><ele>250.8</ele><time>2026-03-25T11:08:40.139Z</time></trkpt><trkpt lat="46.112871" lon="9.3166983"><ele>250.0</ele><time>2026-03-25T11:08:41.138Z</time></trkpt><trkpt lat="46.1127773" lon="9.3167038"><ele>250.0</ele><time>2026-03-25T11:08:42.139Z</time></trkpt><trkpt lat="46.1126894" lon="9.3167219"><ele>250.0</ele><time>2026-03-25T11:08:43.139Z</time></trkpt><trkpt lat="46.1125932" lon="9.3167296"><ele>250.0</ele><time>2026-03-25T11:08:44.139Z</time></trkpt><trkpt lat="46.1124929" lon="9.3167306"><ele>250.0</ele><time>2026-03-25T11:08:45.138Z</time></trkpt><trkpt lat="46.1124075" lon="9.3167213"><ele>250.0</ele><time>2026-03-25T11:08:46.139Z</time></trkpt><trkpt lat="46.1123166" lon="9.3167123"><ele>247.83333333333331</ele><time>2026-03-25T11:08:47.138Z</time></trkpt><trkpt lat="46.1122317" lon="9.3167183"><ele>245.66666666666666</ele><time>2026-03-25T11:08:48.139Z</time></trkpt><trkpt lat="46.1121461" lon="9.3167223"><ele>243.5</ele><time>2026-03-25T11:08:49.138Z</time></trkpt><trkpt lat="46.1120649" lon="9.3167337"><ele>241.33333333333331</ele><time>2026-03-25T11:08:50.138Z</time></trkpt><trkpt lat="46.111983" lon="9.3167632"><ele>239.16666666666666</ele><time>2026-03-25T11:08:51.138Z</time></trkpt><trkpt lat="46.111903" lon="9.316806"><ele>237.0</ele><time>2026-03-25T11:08:52.138Z</time></trkpt><trkpt lat="46.1118274" lon="9.3168527"><ele>237.0</ele><time>2026-03-25T11:08:53.138Z</time></trkpt><trkpt lat="46.1117539" lon="9.3169024"><ele>237.0</ele><time>2026-03-25T11:08:54.138Z</time></trkpt><trkpt lat="46.1116853" lon="9.3169601"><ele>237.0</ele><time>2026-03-25T11:08:55.138Z</time></trkpt><trkpt lat="46.1116245" lon="9.317047"><ele>237.0</ele><time>2026-03-25T11:08:56.138Z</time></trkpt><trkpt lat="46.1115598" lon="9.3171351"><ele>237.0</ele><time>2026-03-25T11:08:57.139Z</time></trkpt><trkpt lat="46.1115091" lon="9.3172198"><ele>237.0</ele><time>2026-03-25T11:08:58.138Z</time></trkpt><trkpt lat="46.1114424" lon="9.3172974"><ele>236.33333333333334</ele><time>2026-03-25T11:08:59.138Z</time></trkpt><trkpt lat="46.1113849" lon="9.3173728"><ele>235.66666666666669</ele><time>2026-03-25T11:09:00.138Z</time></trkpt><trkpt lat="46.1113266" lon="9.3174535"><ele>235.0</ele><time>2026-03-25T11:09:01.138Z</time></trkpt><trkpt lat="46.1112615" lon="9.3175387"><ele>234.33333333333334</ele><time>2026-03-25T11:09:02.138Z</time></trkpt><trkpt lat="46.1112064" lon="9.3176112"><ele>233.66666666666669</ele><time>2026-03-25T11:09:03.138Z</time></trkpt><trkpt lat="46.1111401" lon="9.3176807"><ele>233.0</ele><time>2026-03-25T11:09:04.139Z</time></trkpt><trkpt lat="46.1110742" lon="9.3177503"><ele>233.00000000000003</ele><time>2026-03-25T11:09:05.138Z</time></trkpt><trkpt lat="46.1110083" lon="9.3178188"><ele>233.0</ele><time>2026-03-25T11:09:06.138Z</time></trkpt><trkpt lat="46.1109439" lon="9.3178877"><ele>233.0</ele><time>2026-03-25T11:09:07.138Z</time></trkpt><trkpt lat="46.1108732" lon="9.3179615"><ele>233.0</ele><time>2026-03-25T11:09:08.139Z</time></trkpt><trkpt lat="46.1108137" lon="9.3180427"><ele>233.00000000000003</ele><time>2026-03-25T11:09:09.138Z</time></trkpt><trkpt lat="46.1107584" lon="9.3181005"><ele>233.0</ele><time>2026-03-25T11:09:10.139Z</time></trkpt><trkpt lat="46.1106849" lon="9.3181638"><ele>231.33333333333334</ele><time>2026-03-25T11:09:11.138Z</time></trkpt><trkpt lat="46.1106114" lon="9.3181961"><ele>229.66666666666669</ele><time>2026-03-25T11:09:12.138Z</time></trkpt><trkpt lat="46.1105353" lon="9.3182221"><ele>228.0</ele><time>2026-03-25T11:09:13.139Z</time></trkpt><trkpt lat="46.1104693" lon="9.318233"><ele>226.33333333333331</ele><time>2026-03-25T11:09:14.138Z</time></trkpt><trkpt lat="46.1103874" lon="9.3182376"><ele>224.66666666666666</ele><time>2026-03-25T11:09:15.138Z</time></trkpt><trkpt lat="46.1103113" lon="9.3182543"><ele>223.0</ele><time>2026-03-25T11:09:16.138Z</time></trkpt><trkpt lat="46.1102162" lon="9.318282"><ele>222.99999999999997</ele><time>2026-03-25T11:09:17.138Z</time></trkpt><trkpt lat="46.1101385" lon="9.3182932"><ele>223.0</ele><time>2026-03-25T11:09:18.138Z</time></trkpt><trkpt lat="46.1100641" lon="9.3183384"><ele>223.0</ele><time>2026-03-25T11:09:19.138Z</time></trkpt><trkpt lat="46.1100039" lon="9.3183975"><ele>223.0</ele><time>2026-03-25T11:09:20.139Z</time></trkpt><trkpt lat="46.1099343" lon="9.3184456"><ele>222.99999999999997</ele><time>2026-03-25T11:09:21.139Z</time></trkpt><trkpt lat="46.1098717" lon="9.3185179"><ele>223.0</ele><time>2026-03-25T11:09:22.138Z</time></trkpt><trkpt lat="46.1098047" lon="9.3185939"><ele>223.66666666666666</ele><time>2026-03-25T11:09:23.138Z</time></trkpt><trkpt lat="46.1097434" lon="9.3186767"><ele>224.33333333333331</ele><time>2026-03-25T11:09:24.138Z</time></trkpt><trkpt lat="46.1096739" lon="9.3187436"><ele>225.0</ele><time>2026-03-25T11:09:25.138Z</time></trkpt><trkpt lat="46.1096114" lon="9.3188213"><ele>225.66666666666669</ele><time>2026-03-25T11:09:26.138Z</time></trkpt><trkpt lat="46.109539" lon="9.3188994"><ele>226.33333333333334</ele><time>2026-03-25T11:09:27.139Z</time></trkpt><trkpt lat="46.109472" lon="9.3189751"><ele>227.0</ele><time>2026-03-25T11:09:28.138Z</time></trkpt><trkpt lat="46.1094271" lon="9.319048"><ele>227.00000000000003</ele><time>2026-03-25T11:09:29.138Z</time></trkpt><trkpt lat="46.1093691" lon="9.3191224"><ele>227.0</ele><time>2026-03-25T11:09:30.139Z</time></trkpt><trkpt lat="46.1093224" lon="9.3191972"><ele>227.0</ele><time>2026-03-25T11:09:31.138Z</time></trkpt><trkpt lat="46.1092628" lon="9.3192693"><ele>227.0</ele><time>2026-03-25T11:09:32.138Z</time></trkpt><trkpt lat="46.1091697" lon="9.3193199"><ele>227.00000000000003</ele><time>2026-03-25T11:09:33.139Z</time></trkpt><trkpt lat="46.1090984" lon="9.3193873"><ele>227.0</ele><time>2026-03-25T11:09:34.139Z</time></trkpt><trkpt lat="46.1090397" lon="9.3194622"><ele>224.66666666666669</ele><time>2026-03-25T11:09:35.138Z</time></trkpt><trkpt lat="46.1089775" lon="9.3195248"><ele>222.33333333333334</ele><time>2026-03-25T11:09:36.138Z</time></trkpt><trkpt lat="46.1088946" lon="9.319551"><ele>220.0</ele><time>2026-03-25T11:09:37.138Z</time></trkpt><trkpt lat="46.1088279" lon="9.3195927"><ele>217.66666666666669</ele><time>2026-03-25T11:09:38.139Z</time></trkpt><trkpt lat="46.10875" lon="9.3195819"><ele>215.33333333333334</ele><time>2026-03-25T11:09:39.139Z</time></trkpt><trkpt lat="46.1086701" lon="9.3195964"><ele>213.0</ele><time>2026-03-25T11:09:40.138Z</time></trkpt><trkpt lat="46.1085708" lon="9.3196104"><ele>213.0</ele><time>2026-03-25T11:09:41.139Z</time></trkpt><trkpt lat="46.1084855" lon="9.3196354"><ele>213.0</ele><time>2026-03-25T11:09:42.139Z</time></trkpt><trkpt lat="46.1083963" lon="9.3196474"><ele>213.0</ele><time>2026-03-25T11:09:43.138Z</time></trkpt><trkpt lat="46.1083005" lon="9.3196807"><ele>213.0</ele><time>2026-03-25T11:09:44.138Z</time></trkpt><trkpt lat="46.1082131" lon="9.3197093"><ele>213.0</ele><time>2026-03-25T11:09:45.138Z</time></trkpt><trkpt lat="46.1081231" lon="9.3197417"><ele>215.33333333333334</ele><time>2026-03-25T11:09:46.138Z</time></trkpt><trkpt lat="46.1080337" lon="9.3197677"><ele>217.66666666666669</ele><time>2026-03-25T11:09:47.138Z</time></trkpt><trkpt lat="46.1079555" lon="9.3198126"><ele>220.0</ele><time>2026-03-25T11:09:48.138Z</time></trkpt><trkpt lat="46.10787" lon="9.319848"><ele>222.33333333333334</ele><time>2026-03-25T11:09:49.139Z</time></trkpt><trkpt lat="46.1077852" lon="9.3198754"><ele>224.66666666666669</ele><time>2026-03-25T11:09:50.138Z</time></trkpt><trkpt lat="46.1077099" lon="9.3199158"><ele>227.0</ele><time>2026-03-25T11:09:51.138Z</time></trkpt><trkpt lat="46.1076281" lon="9.319949"><ele>227.00000000000003</ele><time>2026-03-25T11:09:52.139Z</time></trkpt><trkpt lat="46.1075319" lon="9.3199798"><ele>227.0</ele><time>2026-03-25T11:09:53.138Z</time></trkpt><trkpt lat="46.1074476" lon="9.320008"><ele>227.0</ele><time>2026-03-25T11:09:54.138Z</time></trkpt><trkpt lat="46.1073667" lon="9.3200338"><ele>227.0</ele><time>2026-03-25T11:09:55.138Z</time></trkpt><trkpt lat="46.1072883" lon="9.3200553"><ele>227.00000000000003</ele><time>2026-03-25T11:09:56.139Z</time></trkpt><trkpt lat="46.1072083" lon="9.3200744"><ele>227.0</ele><time>2026-03-25T11:09:57.138Z</time></trkpt><trkpt lat="46.1071285" lon="9.3201016"><ele>224.83333333333334</ele><time>2026-03-25T11:09:58.139Z</time></trkpt><trkpt lat="46.1070446" lon="9.3201366"><ele>222.66666666666669</ele><time>2026-03-25T11:09:59.138Z</time></trkpt><trkpt lat="46.1069627" lon="9.320179"><ele>220.5</ele><time>2026-03-25T11:10:00.139Z</time></trkpt><trkpt lat="46.1068812" lon="9.3202315"><ele>218.33333333333331</ele><time>2026-03-25T11:10:01.138Z</time></trkpt><trkpt lat="46.1068018" lon="9.3202904"><ele>216.16666666666666</ele><time>2026-03-25T11:10:02.138Z</time></trkpt><trkpt lat="46.1067209" lon="9.3203469"><ele>214.0</ele><time>2026-03-25T11:10:03.138Z</time></trkpt><trkpt lat="46.1066429" lon="9.3204117"><ele>214.16666666666666</ele><time>2026-03-25T11:10:04.139Z</time></trkpt><trkpt lat="46.1065722" lon="9.3204707"><ele>214.33333333333331</ele><time>2026-03-25T11:10:05.139Z</time></trkpt><trkpt lat="46.1064965" lon="9.3205387"><ele>214.5</ele><time>2026-03-25T11:10:06.139Z</time></trkpt><trkpt lat="46.1064203" lon="9.3206003"><ele>214.66666666666669</ele><time>2026-03-25T11:10:07.138Z</time></trkpt><trkpt lat="46.1063496" lon="9.3206479"><ele>214.83333333333334</ele><time>2026-03-25T11:10:08.139Z</time></trkpt><trkpt lat="46.1062649" lon="9.3206869"><ele>215.0</ele><time>2026-03-25T11:10:09.139Z</time></trkpt><trkpt lat="46.1061814" lon="9.3207083"><ele>215.00000000000003</ele><time>2026-03-25T11:10:10.138Z</time></trkpt><trkpt lat="46.1061073" lon="9.3207496"><ele>215.0</ele><time>2026-03-25T11:10:11.138Z</time></trkpt><trkpt lat="46.1060218" lon="9.3207732"><ele>215.0</ele><time>2026-03-25T11:10:12.138Z</time></trkpt><trkpt lat="46.1059383" lon="9.3207908"><ele>215.0</ele><time>2026-03-25T11:10:13.138Z</time></trkpt><trkpt lat="46.1058622" lon="9.3208171"><ele>215.00000000000003</ele><time>2026-03-25T11:10:14.138Z</time></trkpt><trkpt lat="46.1057796" lon="9.3208369"><ele>215.0</ele><time>2026-03-25T11:10:15.138Z</time></trkpt><trkpt lat="46.1057052" lon="9.3208603"><ele>215.83333333333334</ele><time>2026-03-25T11:10:16.139Z</time></trkpt><trkpt lat="46.1056186" lon="9.3208909"><ele>216.66666666666669</ele><time>2026-03-25T11:10:17.138Z</time></trkpt><trkpt lat="46.1055435" lon="9.3209186"><ele>217.5</ele><time>2026-03-25T11:10:18.139Z</time></trkpt><trkpt lat="46.1054665" lon="9.3209325"><ele>218.33333333333331</ele><time>2026-03-25T11:10:19.139Z</time></trkpt><trkpt lat="46.1053912" lon="9.320962"><ele>219.16666666666666</ele><time>2026-03-25T11:10:20.139Z</time></trkpt><trkpt lat="46.1053083" lon="9.320994"><ele>220.0</ele><time>2026-03-25T11:10:21.139Z</time></trkpt><trkpt lat="46.1052231" lon="9.3210169"><ele>219.99999999999997</ele><time>2026-03-25T11:10:22.138Z</time></trkpt><trkpt lat="46.1051473" lon="9.3210341"><ele>220.0</ele><time>2026-03-25T11:10:23.139Z</time></trkpt><trkpt lat="46.1050737" lon="9.3210538"><ele>220.0</ele><time>2026-03-25T11:10:24.138Z</time></trkpt><trkpt lat="46.1050014" lon="9.3210826"><ele>220.0</ele><time>2026-03-25T11:10:25.138Z</time></trkpt><trkpt lat="46.1049242" lon="9.3211012"><ele>219.99999999999997</ele><time>2026-03-25T11:10:26.138Z</time></trkpt><trkpt lat="46.1048513" lon="9.3210792"><ele>220.0</ele><time>2026-03-25T11:10:27.138Z</time></trkpt><trkpt lat="46.1047815" lon="9.3210549"><ele>220.16666666666666</ele><time>2026-03-25T11:10:28.139Z</time></trkpt><trkpt lat="46.1047056" lon="9.3210385"><ele>220.33333333333331</ele><time>2026-03-25T11:10:29.138Z</time></trkpt><trkpt lat="46.1046428" lon="9.3210184"><ele>220.5</ele><time>2026-03-25T11:10:30.138Z</time></trkpt><trkpt lat="46.1045091" lon="9.3209643"><ele>220.66666666666669</ele><time>2026-03-25T11:10:32.138Z</time></trkpt><trkpt lat="46.1044398" lon="9.3209213"><ele>220.83333333333334</ele><time>2026-03-25T11:10:33.138Z</time></trkpt><trkpt lat="46.1043688" lon="9.3208828"><ele>221.0</ele><time>2026-03-25T11:10:34.139Z</time></trkpt><trkpt lat="46.1042976" lon="9.3208397"><ele>221.00000000000003</ele><time>2026-03-25T11:10:35.138Z</time></trkpt><trkpt lat="46.1042271" lon="9.3207958"><ele>221.0</ele><time>2026-03-25T11:10:36.138Z</time></trkpt><trkpt lat="46.1041581" lon="9.3207434"><ele>221.0</ele><time>2026-03-25T11:10:37.139Z</time></trkpt><trkpt lat="46.1040958" lon="9.3206849"><ele>221.0</ele><time>2026-03-25T11:10:38.139Z</time></trkpt><trkpt lat="46.1040294" lon="9.3206215"><ele>221.00000000000003</ele><time>2026-03-25T11:10:39.139Z</time></trkpt><trkpt lat="46.1039578" lon="9.3205644"><ele>221.0</ele><time>2026-03-25T11:10:40.138Z</time></trkpt><trkpt lat="46.1038958" lon="9.3205076"><ele>219.85714285714286</ele><time>2026-03-25T11:10:41.138Z</time></trkpt><trkpt lat="46.1038313" lon="9.3204508"><ele>218.71428571428572</ele><time>2026-03-25T11:10:42.138Z</time></trkpt><trkpt lat="46.103761" lon="9.3204009"><ele>217.57142857142856</ele><time>2026-03-25T11:10:43.138Z</time></trkpt><trkpt lat="46.1037017" lon="9.3203447"><ele>216.42857142857144</ele><time>2026-03-25T11:10:44.139Z</time></trkpt><trkpt lat="46.1036393" lon="9.3202977"><ele>215.28571428571428</ele><time>2026-03-25T11:10:45.139Z</time></trkpt><trkpt lat="46.1035746" lon="9.3202386"><ele>214.14285714285714</ele><time>2026-03-25T11:10:46.138Z</time></trkpt><trkpt lat="46.1035185" lon="9.320179"><ele>213.0</ele><time>2026-03-25T11:10:47.139Z</time></trkpt><trkpt lat="46.1034526" lon="9.3201189"><ele>213.0</ele><time>2026-03-25T11:10:48.139Z</time></trkpt><trkpt lat="46.1033702" lon="9.3200461"><ele>213.0</ele><time>2026-03-25T11:10:49.139Z</time></trkpt><trkpt lat="46.103294" lon="9.3199788"><ele>213.0</ele><time>2026-03-25T11:10:50.138Z</time></trkpt><trkpt lat="46.1032324" lon="9.319921"><ele>213.0</ele><time>2026-03-25T11:10:51.139Z</time></trkpt><trkpt lat="46.1031783" lon="9.319873"><ele>213.0</ele><time>2026-03-25T11:10:52.139Z</time></trkpt><trkpt lat="46.1031153" lon="9.3198108"><ele>213.0</ele><time>2026-03-25T11:10:53.138Z</time></trkpt><trkpt lat="46.1029975" lon="9.3197239"><ele>214.0</ele><time>2026-03-25T11:10:55.138Z</time></trkpt><trkpt lat="46.1029281" lon="9.3196647"><ele>215.0</ele><time>2026-03-25T11:10:56.138Z</time></trkpt><trkpt lat="46.1028566" lon="9.3196168"><ele>216.0</ele><time>2026-03-25T11:10:57.138Z</time></trkpt><trkpt lat="46.1027967" lon="9.3195754"><ele>217.0</ele><time>2026-03-25T11:10:58.138Z</time></trkpt><trkpt lat="46.1027356" lon="9.3195225"><ele>218.0</ele><time>2026-03-25T11:10:59.138Z</time></trkpt><trkpt lat="46.1026712" lon="9.3194694"><ele>219.0</ele><time>2026-03-25T11:11:00.139Z</time></trkpt><trkpt lat="46.1025526" lon="9.3193815"><ele>219.0</ele><time>2026-03-25T11:11:02.138Z</time></trkpt><trkpt lat="46.1024901" lon="9.3193298"><ele>219.0</ele><time>2026-03-25T11:11:03.138Z</time></trkpt><trkpt lat="46.1024301" lon="9.3192799"><ele>219.0</ele><time>2026-03-25T11:11:04.138Z</time></trkpt><trkpt lat="46.1023735" lon="9.3192298"><ele>219.0</ele><time>2026-03-25T11:11:05.138Z</time></trkpt><trkpt lat="46.1023229" lon="9.3191687"><ele>219.0</ele><time>2026-03-25T11:11:06.139Z</time></trkpt><trkpt lat="46.1022635" lon="9.3191213"><ele>219.0</ele><time>2026-03-25T11:11:07.138Z</time></trkpt><trkpt lat="46.1021831" lon="9.3189753"><ele>219.0</ele><time>2026-03-25T11:11:09.138Z</time></trkpt><trkpt lat="46.102138" lon="9.3188994"><ele>219.0</ele><time>2026-03-25T11:11:10.138Z</time></trkpt><trkpt lat="46.1020952" lon="9.3188206"><ele>219.0</ele><time>2026-03-25T11:11:11.138Z</time></trkpt><trkpt lat="46.1020452" lon="9.3187418"><ele>219.0</ele><time>2026-03-25T11:11:12.138Z</time></trkpt><trkpt lat="46.1019957" lon="9.3186656"><ele>219.0</ele><time>2026-03-25T11:11:13.138Z</time></trkpt><trkpt lat="46.1019047" lon="9.3185151"><ele>219.0</ele><time>2026-03-25T11:11:15.138Z</time></trkpt><trkpt lat="46.1018486" lon="9.3184496"><ele>219.0</ele><time>2026-03-25T11:11:16.139Z</time></trkpt><trkpt lat="46.101798" lon="9.3183916"><ele>219.0</ele><time>2026-03-25T11:11:17.139Z</time></trkpt><trkpt lat="46.1017445" lon="9.3183375"><ele>219.0</ele><time>2026-03-25T11:11:18.138Z</time></trkpt><trkpt lat="46.1016807" lon="9.3182838"><ele>219.0</ele><time>2026-03-25T11:11:19.138Z</time></trkpt><trkpt lat="46.1016167" lon="9.3182378"><ele>219.0</ele><time>2026-03-25T11:11:20.138Z</time></trkpt><trkpt lat="46.1015547" lon="9.3181925"><ele>219.0</ele><time>2026-03-25T11:11:21.139Z</time></trkpt><trkpt lat="46.1014574" lon="9.3181351"><ele>218.83333333333334</ele><time>2026-03-25T11:11:23.139Z</time></trkpt><trkpt lat="46.1013943" lon="9.3180976"><ele>218.66666666666669</ele><time>2026-03-25T11:11:24.138Z</time></trkpt><trkpt lat="46.1013303" lon="9.3180528"><ele>218.5</ele><time>2026-03-25T11:11:25.138Z</time></trkpt><trkpt lat="46.1012642" lon="9.3180078"><ele>218.33333333333334</ele><time>2026-03-25T11:11:26.139Z</time></trkpt><trkpt lat="46.101146" lon="9.3179282"><ele>218.16666666666669</ele><time>2026-03-25T11:11:28.139Z</time></trkpt><trkpt lat="46.1010853" lon="9.3178849"><ele>218.0</ele><time>2026-03-25T11:11:29.138Z</time></trkpt><trkpt lat="46.1010236" lon="9.31784"><ele>218.00000000000003</ele><time>2026-03-25T11:11:30.138Z</time></trkpt><trkpt lat="46.1009588" lon="9.3177959"><ele>218.0</ele><time>2026-03-25T11:11:31.138Z</time></trkpt><trkpt lat="46.100897" lon="9.3177526"><ele>218.0</ele><time>2026-03-25T11:11:32.139Z</time></trkpt><trkpt lat="46.1008367" lon="9.3177177"><ele>218.0</ele><time>2026-03-25T11:11:33.138Z</time></trkpt><trkpt lat="46.1007241" lon="9.3176351"><ele>218.00000000000003</ele><time>2026-03-25T11:11:35.138Z</time></trkpt><trkpt lat="46.1006624" lon="9.3175928"><ele>218.0</ele><time>2026-03-25T11:11:36.138Z</time></trkpt><trkpt lat="46.1005962" lon="9.31755"><ele>220.0</ele><time>2026-03-25T11:11:37.138Z</time></trkpt><trkpt lat="46.1004777" lon="9.3174764"><ele>222.0</ele><time>2026-03-25T11:11:39.138Z</time></trkpt><trkpt lat="46.1004122" lon="9.3174218"><ele>224.0</ele><time>2026-03-25T11:11:40.139Z</time></trkpt><trkpt lat="46.1002949" lon="9.3173481"><ele>226.0</ele><time>2026-03-25T11:11:42.139Z</time></trkpt><trkpt lat="46.10019" lon="9.317271"><ele>221.5</ele><time>2026-03-25T11:11:44.139Z</time></trkpt><trkpt lat="46.1000721" lon="9.3172094"><ele>217.0</ele><time>2026-03-25T11:11:46.139Z</time></trkpt><trkpt lat="46.0999569" lon="9.3171775"><ele>212.5</ele><time>2026-03-25T11:11:48.138Z</time></trkpt><trkpt lat="46.0998364" lon="9.3171492"><ele>208.0</ele><time>2026-03-25T11:11:50.138Z</time></trkpt><trkpt lat="46.0997158" lon="9.3171443"><ele>207.60000000000002</ele><time>2026-03-25T11:11:52.138Z</time></trkpt><trkpt lat="46.0996518" lon="9.3171629"><ele>207.20000000000002</ele><time>2026-03-25T11:11:53.138Z</time></trkpt><trkpt lat="46.0995331" lon="9.3171511"><ele>206.8</ele><time>2026-03-25T11:11:55.139Z</time></trkpt><trkpt lat="46.0994698" lon="9.317121"><ele>206.4</ele><time>2026-03-25T11:11:56.138Z</time></trkpt><trkpt lat="46.0993527" lon="9.3171039"><ele>206.0</ele><time>2026-03-25T11:11:58.138Z</time></trkpt><trkpt lat="46.0992434" lon="9.3170989"><ele>206.0</ele><time>2026-03-25T11:12:00.139Z</time></trkpt><trkpt lat="46.0991253" lon="9.3170889"><ele>206.0</ele><time>2026-03-25T11:12:02.139Z</time></trkpt><trkpt lat="46.0990233" lon="9.317094"><ele>206.0</ele><time>2026-03-25T11:12:04.138Z</time></trkpt><trkpt lat="46.0989019" lon="9.3170953"><ele>206.0</ele><time>2026-03-25T11:12:06.139Z</time></trkpt><trkpt lat="46.0988378" lon="9.3170918"><ele>206.0</ele><time>2026-03-25T11:12:07.138Z</time></trkpt><trkpt lat="46.0987241" lon="9.3170953"><ele>206.60000000000002</ele><time>2026-03-25T11:12:09.139Z</time></trkpt><trkpt lat="46.0986035" lon="9.3170947"><ele>207.2</ele><time>2026-03-25T11:12:11.139Z</time></trkpt><trkpt lat="46.098492" lon="9.3171075"><ele>207.8</ele><time>2026-03-25T11:12:13.138Z</time></trkpt><trkpt lat="46.0983733" lon="9.3171201"><ele>208.39999999999998</ele><time>2026-03-25T11:12:15.138Z</time></trkpt><trkpt lat="46.0983089" lon="9.3171324"><ele>209.0</ele><time>2026-03-25T11:12:16.139Z</time></trkpt><trkpt lat="46.0982418" lon="9.3171365"><ele>210.33333333333334</ele><time>2026-03-25T11:12:17.138Z</time></trkpt><trkpt lat="46.0981731" lon="9.3171429"><ele>211.66666666666669</ele><time>2026-03-25T11:12:18.138Z</time></trkpt><trkpt lat="46.0980594" lon="9.31709"><ele>213.0</ele><time>2026-03-25T11:12:20.139Z</time></trkpt><trkpt lat="46.0979925" lon="9.3170641"><ele>214.33333333333331</ele><time>2026-03-25T11:12:21.139Z</time></trkpt><trkpt lat="46.0979225" lon="9.3170327"><ele>215.66666666666666</ele><time>2026-03-25T11:12:22.138Z</time></trkpt><trkpt lat="46.0978613" lon="9.3170065"><ele>217.0</ele><time>2026-03-25T11:12:23.138Z</time></trkpt><trkpt lat="46.0977615" lon="9.3169319"><ele>217.0</ele><time>2026-03-25T11:12:25.138Z</time></trkpt><trkpt lat="46.097651" lon="9.3168298"><ele>217.0</ele><time>2026-03-25T11:12:27.139Z</time></trkpt><trkpt lat="46.0975581" lon="9.3167509"><ele>217.0</ele><time>2026-03-25T11:12:29.138Z</time></trkpt><trkpt lat="46.097464" lon="9.3166777"><ele>217.0</ele><time>2026-03-25T11:12:31.138Z</time></trkpt><trkpt lat="46.0973616" lon="9.3166169"><ele>218.0</ele><time>2026-03-25T11:12:33.139Z</time></trkpt><trkpt lat="46.0972557" lon="9.3165649"><ele>219.0</ele><time>2026-03-25T11:12:35.138Z</time></trkpt><trkpt lat="46.0971489" lon="9.3165428"><ele>220.0</ele><time>2026-03-25T11:12:37.138Z</time></trkpt><trkpt lat="46.0970433" lon="9.3165296"><ele>221.0</ele><time>2026-03-25T11:12:39.138Z</time></trkpt><trkpt lat="46.0969321" lon="9.3165474"><ele>222.0</ele><time>2026-03-25T11:12:41.138Z</time></trkpt><trkpt lat="46.0968222" lon="9.3165754"><ele>222.0</ele><time>2026-03-25T11:12:43.139Z</time></trkpt><trkpt lat="46.0967156" lon="9.3166199"><ele>222.0</ele><time>2026-03-25T11:12:45.138Z</time></trkpt><trkpt lat="46.0966093" lon="9.3166593"><ele>222.0</ele><time>2026-03-25T11:12:47.138Z</time></trkpt><trkpt lat="46.0965003" lon="9.3166463"><ele>222.0</ele><time>2026-03-25T11:12:49.139Z</time></trkpt><trkpt lat="46.0963776" lon="9.3166307"><ele>222.5</ele><time>2026-03-25T11:12:51.138Z</time></trkpt><trkpt lat="46.0962762" lon="9.3166111"><ele>223.0</ele><time>2026-03-25T11:12:53.138Z</time></trkpt><trkpt lat="46.0961657" lon="9.3165911"><ele>223.5</ele><time>2026-03-25T11:12:55.139Z</time></trkpt><trkpt lat="46.09605" lon="9.3165588"><ele>224.0</ele><time>2026-03-25T11:12:57.139Z</time></trkpt><trkpt lat="46.0959326" lon="9.3165265"><ele>224.0</ele><time>2026-03-25T11:12:59.139Z</time></trkpt><trkpt lat="46.0958103" lon="9.3164838"><ele>223.99999999999997</ele><time>2026-03-25T11:13:01.138Z</time></trkpt><trkpt lat="46.0957036" lon="9.316443"><ele>223.99999999999997</ele><time>2026-03-25T11:13:03.138Z</time></trkpt><trkpt lat="46.0956085" lon="9.3164029"><ele>224.0</ele><time>2026-03-25T11:13:05.139Z</time></trkpt><trkpt lat="46.0955128" lon="9.3163661"><ele>224.0</ele><time>2026-03-25T11:13:07.138Z</time></trkpt><trkpt lat="46.0954196" lon="9.3163364"><ele>222.79999999999998</ele><time>2026-03-25T11:13:09.139Z</time></trkpt><trkpt lat="46.0953218" lon="9.3162808"><ele>221.59999999999997</ele><time>2026-03-25T11:13:11.139Z</time></trkpt><trkpt lat="46.0952641" lon="9.3162361"><ele>220.4</ele><time>2026-03-25T11:13:12.139Z</time></trkpt><trkpt lat="46.0951669" lon="9.3161551"><ele>219.2</ele><time>2026-03-25T11:13:14.138Z</time></trkpt><trkpt lat="46.0950828" lon="9.316048"><ele>218.0</ele><time>2026-03-25T11:13:16.139Z</time></trkpt><trkpt lat="46.0950341" lon="9.3159756"><ele>218.0</ele><time>2026-03-25T11:13:17.138Z</time></trkpt><trkpt lat="46.09499" lon="9.3158998"><ele>218.0</ele><time>2026-03-25T11:13:18.138Z</time></trkpt><trkpt lat="46.0949481" lon="9.3158253"><ele>218.0</ele><time>2026-03-25T11:13:19.139Z</time></trkpt><trkpt lat="46.0948683" lon="9.3156951"><ele>218.0</ele><time>2026-03-25T11:13:21.139Z</time></trkpt><trkpt lat="46.0947774" lon="9.3155633"><ele>218.0</ele><time>2026-03-25T11:13:23.139Z</time></trkpt><trkpt lat="46.0947315" lon="9.3154941"><ele>219.16666666666669</ele><time>2026-03-25T11:13:24.139Z</time></trkpt><trkpt lat="46.0946433" lon="9.3153695"><ele>220.33333333333334</ele><time>2026-03-25T11:13:26.139Z</time></trkpt><trkpt lat="46.0945969" lon="9.3153073"><ele>221.5</ele><time>2026-03-25T11:13:27.139Z</time></trkpt><trkpt lat="46.0945524" lon="9.3152416"><ele>222.66666666666669</ele><time>2026-03-25T11:13:28.138Z</time></trkpt><trkpt lat="46.0945049" lon="9.3151771"><ele>223.83333333333334</ele><time>2026-03-25T11:13:29.138Z</time></trkpt><trkpt lat="46.09443" lon="9.3150541"><ele>225.0</ele><time>2026-03-25T11:13:31.138Z</time></trkpt><trkpt lat="46.094347" lon="9.3149457"><ele>225.0</ele><time>2026-03-25T11:13:33.138Z</time></trkpt><trkpt lat="46.0942742" lon="9.3148309"><ele>225.0</ele><time>2026-03-25T11:13:35.138Z</time></trkpt><trkpt lat="46.0941917" lon="9.3147075"><ele>225.0</ele><time>2026-03-25T11:13:37.138Z</time></trkpt><trkpt lat="46.0941434" lon="9.3146463"><ele>225.0</ele><time>2026-03-25T11:13:38.138Z</time></trkpt><trkpt lat="46.0940975" lon="9.3145796"><ele>225.0</ele><time>2026-03-25T11:13:39.138Z</time></trkpt><trkpt lat="46.0940079" lon="9.3144489"><ele>226.6</ele><time>2026-03-25T11:13:41.139Z</time></trkpt><trkpt lat="46.0939236" lon="9.3143283"><ele>228.2</ele><time>2026-03-25T11:13:43.139Z</time></trkpt><trkpt lat="46.093846" lon="9.3142189"><ele>229.8</ele><time>2026-03-25T11:13:45.139Z</time></trkpt><trkpt lat="46.0937719" lon="9.3141385"><ele>231.4</ele><time>2026-03-25T11:13:47.138Z</time></trkpt><trkpt lat="46.093697" lon="9.3140835"><ele>233.0</ele><time>2026-03-25T11:13:49.138Z</time></trkpt><trkpt lat="46.0936186" lon="9.314022"><ele>233.0</ele><time>2026-03-25T11:13:51.138Z</time></trkpt><trkpt lat="46.0935402" lon="9.3139457"><ele>233.0</ele><time>2026-03-25T11:13:53.139Z</time></trkpt><trkpt lat="46.0934449" lon="9.3138638"><ele>233.0</ele><time>2026-03-25T11:13:55.139Z</time></trkpt><trkpt lat="46.0933524" lon="9.3137905"><ele>233.0</ele><time>2026-03-25T11:13:57.139Z</time></trkpt><trkpt lat="46.0932612" lon="9.3137142"><ele>233.0</ele><time>2026-03-25T11:13:59.138Z</time></trkpt><trkpt lat="46.09317" lon="9.3136386"><ele>232.0</ele><time>2026-03-25T11:14:01.138Z</time></trkpt><trkpt lat="46.093081" lon="9.3135607"><ele>231.0</ele><time>2026-03-25T11:14:03.138Z</time></trkpt><trkpt lat="46.0929993" lon="9.3134765"><ele>230.0</ele><time>2026-03-25T11:14:05.138Z</time></trkpt><trkpt lat="46.0929141" lon="9.3134133"><ele>229.0</ele><time>2026-03-25T11:14:07.138Z</time></trkpt><trkpt lat="46.0928193" lon="9.3133494"><ele>228.0</ele><time>2026-03-25T11:14:09.139Z</time></trkpt><trkpt lat="46.0927311" lon="9.3132819"><ele>228.0</ele><time>2026-03-25T11:14:11.138Z</time></trkpt><trkpt lat="46.0926409" lon="9.3132108"><ele>228.0</ele><time>2026-03-25T11:14:13.139Z</time></trkpt><trkpt lat="46.0925571" lon="9.3131383"><ele>228.0</ele><time>2026-03-25T11:14:15.138Z</time></trkpt><trkpt lat="46.0924688" lon="9.3130685"><ele>228.0</ele><time>2026-03-25T11:14:17.138Z</time></trkpt><trkpt lat="46.0923781" lon="9.3130034"><ele>228.0</ele><time>2026-03-25T11:14:19.139Z</time></trkpt><trkpt lat="46.0922887" lon="9.3129512"><ele>227.66666666666666</ele><time>2026-03-25T11:14:21.139Z</time></trkpt><trkpt lat="46.0922196" lon="9.3129063"><ele>227.33333333333331</ele><time>2026-03-25T11:14:23.139Z</time></trkpt><trkpt lat="46.0921368" lon="9.3128619"><ele>227.0</ele><time>2026-03-25T11:14:25.138Z</time></trkpt><trkpt lat="46.0920675" lon="9.3128092"><ele>226.66666666666666</ele><time>2026-03-25T11:14:27.139Z</time></trkpt><trkpt lat="46.0919962" lon="9.3127523"><ele>226.33333333333331</ele><time>2026-03-25T11:14:29.138Z</time></trkpt><trkpt lat="46.0919204" lon="9.3127019"><ele>226.0</ele><time>2026-03-25T11:14:31.138Z</time></trkpt><trkpt lat="46.0918495" lon="9.3126519"><ele>225.99999999999997</ele><time>2026-03-25T11:14:33.138Z</time></trkpt><trkpt lat="46.0917755" lon="9.3126134"><ele>226.0</ele><time>2026-03-25T11:14:35.138Z</time></trkpt><trkpt lat="46.0917023" lon="9.3125836"><ele>226.0</ele><time>2026-03-25T11:14:37.139Z</time></trkpt><trkpt lat="46.0916253" lon="9.3125614"><ele>226.0</ele><time>2026-03-25T11:14:39.138Z</time></trkpt><trkpt lat="46.0915532" lon="9.3125337"><ele>225.99999999999997</ele><time>2026-03-25T11:14:41.138Z</time></trkpt><trkpt lat="46.091482" lon="9.3124966"><ele>226.0</ele><time>2026-03-25T11:14:43.138Z</time></trkpt><trkpt lat="46.0914048" lon="9.3124568"><ele>225.49999999999997</ele><time>2026-03-25T11:14:45.139Z</time></trkpt><trkpt lat="46.091328" lon="9.3124015"><ele>225.0</ele><time>2026-03-25T11:14:47.138Z</time></trkpt><trkpt lat="46.0912738" lon="9.3123501"><ele>224.5</ele><time>2026-03-25T11:14:48.139Z</time></trkpt><trkpt lat="46.0912022" lon="9.312296"><ele>224.0</ele><time>2026-03-25T11:14:50.138Z</time></trkpt><trkpt lat="46.0911381" lon="9.3122319"><ele>223.49999999999997</ele><time>2026-03-25T11:14:52.139Z</time></trkpt><trkpt lat="46.0910726" lon="9.3121736"><ele>223.0</ele><time>2026-03-25T11:14:54.138Z</time></trkpt><trkpt lat="46.09101" lon="9.3121007"><ele>222.99999999999997</ele><time>2026-03-25T11:14:56.138Z</time></trkpt><trkpt lat="46.0909466" lon="9.3120363"><ele>223.0</ele><time>2026-03-25T11:14:58.138Z</time></trkpt><trkpt lat="46.0908825" lon="9.311967"><ele>223.0</ele><time>2026-03-25T11:15:00.139Z</time></trkpt><trkpt lat="46.0908209" lon="9.3119058"><ele>223.0</ele><time>2026-03-25T11:15:02.139Z</time></trkpt><trkpt lat="46.0907577" lon="9.311847"><ele>222.99999999999997</ele><time>2026-03-25T11:15:04.138Z</time></trkpt><trkpt lat="46.0906916" lon="9.3117953"><ele>223.0</ele><time>2026-03-25T11:15:06.138Z</time></trkpt><trkpt lat="46.0906188" lon="9.3117522"><ele>226.8</ele><time>2026-03-25T11:15:08.138Z</time></trkpt><trkpt lat="46.0905463" lon="9.3117118"><ele>230.60000000000002</ele><time>2026-03-25T11:15:10.138Z</time></trkpt><trkpt lat="46.0904677" lon="9.3116819"><ele>234.39999999999998</ele><time>2026-03-25T11:15:12.138Z</time></trkpt><trkpt lat="46.0903446" lon="9.3116584"><ele>238.2</ele><time>2026-03-25T11:15:16.138Z</time></trkpt><trkpt lat="46.0902666" lon="9.3116351"><ele>242.0</ele><time>2026-03-25T11:15:18.139Z</time></trkpt><trkpt lat="46.0901766" lon="9.31159"><ele>242.00000000000003</ele><time>2026-03-25T11:15:20.138Z</time></trkpt><trkpt lat="46.0900871" lon="9.3115488"><ele>242.0</ele><time>2026-03-25T11:15:22.139Z</time></trkpt><trkpt lat="46.0899888" lon="9.311494"><ele>242.0</ele><time>2026-03-25T11:15:24.138Z</time></trkpt><trkpt lat="46.0899135" lon="9.3114817"><ele>242.0</ele><time>2026-03-25T11:15:26.139Z</time></trkpt><trkpt lat="46.0898508" lon="9.311442"><ele>242.00000000000003</ele><time>2026-03-25T11:15:28.138Z</time></trkpt><trkpt lat="46.0897676" lon="9.3114193"><ele>242.0</ele><time>2026-03-25T11:15:30.138Z</time></trkpt><trkpt lat="46.0896823" lon="9.3114139"><ele>241.8</ele><time>2026-03-25T11:15:32.138Z</time></trkpt><trkpt lat="46.0895922" lon="9.3114012"><ele>241.6</ele><time>2026-03-25T11:15:34.139Z</time></trkpt><trkpt lat="46.0895246" lon="9.3114084"><ele>241.40000000000003</ele><time>2026-03-25T11:15:36.138Z</time></trkpt><trkpt lat="46.089418" lon="9.3114094"><ele>241.20000000000002</ele><time>2026-03-25T11:15:38.138Z</time></trkpt><trkpt lat="46.0893204" lon="9.3114139"><ele>241.0</ele><time>2026-03-25T11:15:40.138Z</time></trkpt><trkpt lat="46.0892274" lon="9.3113955"><ele>238.0</ele><time>2026-03-25T11:15:42.138Z</time></trkpt><trkpt lat="46.0891416" lon="9.3113982"><ele>235.00000000000003</ele><time>2026-03-25T11:15:44.139Z</time></trkpt><trkpt lat="46.0889934" lon="9.311382"><ele>232.00000000000003</ele><time>2026-03-25T11:15:46.138Z</time></trkpt><trkpt lat="46.0889309" lon="9.3113538"><ele>229.0</ele><time>2026-03-25T11:15:47.138Z</time></trkpt><trkpt lat="46.0888135" lon="9.3112817"><ele>226.0</ele><time>2026-03-25T11:15:49.138Z</time></trkpt><trkpt lat="46.0887347" lon="9.3112525"><ele>225.99999999999997</ele><time>2026-03-25T11:15:50.138Z</time></trkpt><trkpt lat="46.0886725" lon="9.3111702"><ele>226.0</ele><time>2026-03-25T11:15:51.138Z</time></trkpt><trkpt lat="46.0886051" lon="9.311116"><ele>226.0</ele><time>2026-03-25T11:15:52.139Z</time></trkpt><trkpt lat="46.0885312" lon="9.3110906"><ele>226.0</ele><time>2026-03-25T11:15:53.138Z</time></trkpt><trkpt lat="46.0884557" lon="9.3110319"><ele>225.99999999999997</ele><time>2026-03-25T11:15:54.139Z</time></trkpt><trkpt lat="46.0883893" lon="9.3109731"><ele>226.0</ele><time>2026-03-25T11:15:55.139Z</time></trkpt><trkpt lat="46.0883164" lon="9.3109158"><ele>228.20000000000002</ele><time>2026-03-25T11:15:56.139Z</time></trkpt><trkpt lat="46.0882196" lon="9.310847"><ele>230.40000000000003</ele><time>2026-03-25T11:15:57.139Z</time></trkpt><trkpt lat="46.0881298" lon="9.3107695"><ele>232.6</ele><time>2026-03-25T11:15:58.138Z</time></trkpt><trkpt lat="46.088036" lon="9.3106903"><ele>234.8</ele><time>2026-03-25T11:15:59.139Z</time></trkpt><trkpt lat="46.087936" lon="9.3106138"><ele>237.0</ele><time>2026-03-25T11:16:00.139Z</time></trkpt><trkpt lat="46.0878648" lon="9.3105661"><ele>233.0</ele><time>2026-03-25T11:16:01.139Z</time></trkpt><trkpt lat="46.0877949" lon="9.3105029"><ele>229.0</ele><time>2026-03-25T11:16:02.138Z</time></trkpt><trkpt lat="46.0877135" lon="9.3104326"><ele>225.0</ele><time>2026-03-25T11:16:03.139Z</time></trkpt><trkpt lat="46.0876331" lon="9.310381"><ele>221.0</ele><time>2026-03-25T11:16:04.138Z</time></trkpt><trkpt lat="46.0875717" lon="9.3103384"><ele>217.0</ele><time>2026-03-25T11:16:05.139Z</time></trkpt><trkpt lat="46.0875149" lon="9.3102719"><ele>213.0</ele><time>2026-03-25T11:16:06.139Z</time></trkpt><trkpt lat="46.0874366" lon="9.310209"><ele>214.0</ele><time>2026-03-25T11:16:07.138Z</time></trkpt><trkpt lat="46.0873532" lon="9.3101418"><ele>215.0</ele><time>2026-03-25T11:16:08.138Z</time></trkpt><trkpt lat="46.0872704" lon="9.3100981"><ele>216.0</ele><time>2026-03-25T11:16:09.139Z</time></trkpt><trkpt lat="46.0871759" lon="9.3100612"><ele>217.0</ele><time>2026-03-25T11:16:10.139Z</time></trkpt><trkpt lat="46.0870849" lon="9.3100529"><ele>218.0</ele><time>2026-03-25T11:16:11.139Z</time></trkpt><trkpt lat="46.0869914" lon="9.3100467"><ele>218.0</ele><time>2026-03-25T11:16:12.139Z</time></trkpt><trkpt lat="46.0869034" lon="9.3100399"><ele>218.0</ele><time>2026-03-25T11:16:13.139Z</time></trkpt><trkpt lat="46.0868194" lon="9.3100535"><ele>218.0</ele><time>2026-03-25T11:16:14.139Z</time></trkpt><trkpt lat="46.0867233" lon="9.3100466"><ele>218.0</ele><time>2026-03-25T11:16:15.138Z</time></trkpt><trkpt lat="46.0866345" lon="9.310052"><ele>218.0</ele><time>2026-03-25T11:16:16.139Z</time></trkpt><trkpt lat="46.0865381" lon="9.3100763"><ele>216.00000000000003</ele><time>2026-03-25T11:16:17.139Z</time></trkpt><trkpt lat="46.0864488" lon="9.3101011"><ele>214.0</ele><time>2026-03-25T11:16:18.139Z</time></trkpt><trkpt lat="46.0863596" lon="9.3101197"><ele>212.0</ele><time>2026-03-25T11:16:19.138Z</time></trkpt><trkpt lat="46.0862743" lon="9.3101423"><ele>210.0</ele><time>2026-03-25T11:16:20.138Z</time></trkpt><trkpt lat="46.0861938" lon="9.310169"><ele>208.00000000000003</ele><time>2026-03-25T11:16:21.139Z</time></trkpt><trkpt lat="46.0861097" lon="9.3101928"><ele>206.0</ele><time>2026-03-25T11:16:22.138Z</time></trkpt><trkpt lat="46.0860254" lon="9.3102212"><ele>206.00000000000003</ele><time>2026-03-25T11:16:23.139Z</time></trkpt><trkpt lat="46.0859495" lon="9.3102431"><ele>206.0</ele><time>2026-03-25T11:16:24.138Z</time></trkpt><trkpt lat="46.0858728" lon="9.3102697"><ele>206.0</ele><time>2026-03-25T11:16:25.138Z</time></trkpt><trkpt lat="46.0857908" lon="9.3102935"><ele>206.0</ele><time>2026-03-25T11:16:26.139Z</time></trkpt><trkpt lat="46.0857169" lon="9.3103359"><ele>206.00000000000003</ele><time>2026-03-25T11:16:27.138Z</time></trkpt><trkpt lat="46.0856425" lon="9.3103681"><ele>206.0</ele><time>2026-03-25T11:16:28.138Z</time></trkpt><trkpt lat="46.0855543" lon="9.3104138"><ele>205.50000000000003</ele><time>2026-03-25T11:16:29.138Z</time></trkpt><trkpt lat="46.0854805" lon="9.3104506"><ele>205.0</ele><time>2026-03-25T11:16:30.139Z</time></trkpt><trkpt lat="46.0853999" lon="9.31049"><ele>204.5</ele><time>2026-03-25T11:16:31.138Z</time></trkpt><trkpt lat="46.0853249" lon="9.3105346"><ele>204.0</ele><time>2026-03-25T11:16:32.139Z</time></trkpt><trkpt lat="46.0852463" lon="9.3105818"><ele>203.50000000000003</ele><time>2026-03-25T11:16:33.138Z</time></trkpt><trkpt lat="46.0851645" lon="9.3106252"><ele>203.0</ele><time>2026-03-25T11:16:34.139Z</time></trkpt><trkpt lat="46.0850869" lon="9.3106734"><ele>205.50000000000003</ele><time>2026-03-25T11:16:35.139Z</time></trkpt><trkpt lat="46.0850087" lon="9.3107132"><ele>208.0</ele><time>2026-03-25T11:16:36.138Z</time></trkpt><trkpt lat="46.0849288" lon="9.3107497"><ele>210.5</ele><time>2026-03-25T11:16:37.138Z</time></trkpt><trkpt lat="46.0848469" lon="9.3107817"><ele>213.0</ele><time>2026-03-25T11:16:38.139Z</time></trkpt><trkpt lat="46.0847658" lon="9.3108075"><ele>215.50000000000003</ele><time>2026-03-25T11:16:39.138Z</time></trkpt><trkpt lat="46.084694" lon="9.310831"><ele>218.0</ele><time>2026-03-25T11:16:40.138Z</time></trkpt><trkpt lat="46.0846344" lon="9.3108753"><ele>218.0</ele><time>2026-03-25T11:16:41.138Z</time></trkpt><trkpt lat="46.0845675" lon="9.3108979"><ele>218.0</ele><time>2026-03-25T11:16:42.139Z</time></trkpt><trkpt lat="46.0844998" lon="9.3109131"><ele>218.0</ele><time>2026-03-25T11:16:43.139Z</time></trkpt><trkpt lat="46.0844312" lon="9.3109463"><ele>218.0</ele><time>2026-03-25T11:16:44.138Z</time></trkpt><trkpt lat="46.0843622" lon="9.3109629"><ele>218.0</ele><time>2026-03-25T11:16:45.138Z</time></trkpt><trkpt lat="46.0842952" lon="9.3109914"><ele>218.0</ele><time>2026-03-25T11:16:46.138Z</time></trkpt><trkpt lat="46.084214" lon="9.3110189"><ele>218.0</ele><time>2026-03-25T11:16:47.138Z</time></trkpt><trkpt lat="46.0841555" lon="9.3110538"><ele>216.83333333333334</ele><time>2026-03-25T11:16:48.139Z</time></trkpt><trkpt lat="46.0840869" lon="9.311053"><ele>215.66666666666669</ele><time>2026-03-25T11:16:49.139Z</time></trkpt><trkpt lat="46.0840122" lon="9.3110637"><ele>214.5</ele><time>2026-03-25T11:16:50.138Z</time></trkpt><trkpt lat="46.0839359" lon="9.3110839"><ele>213.33333333333331</ele><time>2026-03-25T11:16:51.139Z</time></trkpt><trkpt lat="46.083847" lon="9.311102"><ele>212.16666666666666</ele><time>2026-03-25T11:16:52.138Z</time></trkpt><trkpt lat="46.0837716" lon="9.3111143"><ele>211.0</ele><time>2026-03-25T11:16:53.138Z</time></trkpt><trkpt lat="46.0836957" lon="9.3111204"><ele>210.99999999999997</ele><time>2026-03-25T11:16:54.138Z</time></trkpt><trkpt lat="46.0836214" lon="9.311135"><ele>211.0</ele><time>2026-03-25T11:16:55.138Z</time></trkpt><trkpt lat="46.0835484" lon="9.3111537"><ele>211.0</ele><time>2026-03-25T11:16:56.139Z</time></trkpt><trkpt lat="46.083423" lon="9.3111792"><ele>211.0</ele><time>2026-03-25T11:16:58.138Z</time></trkpt><trkpt lat="46.0833502" lon="9.3111998"><ele>210.99999999999997</ele><time>2026-03-25T11:16:59.138Z</time></trkpt><trkpt lat="46.0832848" lon="9.3112139"><ele>211.0</ele><time>2026-03-25T11:17:00.139Z</time></trkpt><trkpt lat="46.0832138" lon="9.3112323"><ele>210.0</ele><time>2026-03-25T11:17:01.139Z</time></trkpt><trkpt lat="46.0830899" lon="9.311272"><ele>209.0</ele><time>2026-03-25T11:17:03.139Z</time></trkpt><trkpt lat="46.0829547" lon="9.3112828"><ele>208.0</ele><time>2026-03-25T11:17:05.138Z</time></trkpt><trkpt lat="46.0828912" lon="9.3113031"><ele>207.0</ele><time>2026-03-25T11:17:06.139Z</time></trkpt><trkpt lat="46.0828264" lon="9.3113046"><ele>206.0</ele><time>2026-03-25T11:17:07.139Z</time></trkpt><trkpt lat="46.0827597" lon="9.3112963"><ele>206.0</ele><time>2026-03-25T11:17:08.138Z</time></trkpt><trkpt lat="46.0826913" lon="9.3112916"><ele>206.0</ele><time>2026-03-25T11:17:09.138Z</time></trkpt><trkpt lat="46.0825637" lon="9.3112378"><ele>206.0</ele><time>2026-03-25T11:17:11.139Z</time></trkpt><trkpt lat="46.0824538" lon="9.3111448"><ele>206.0</ele><time>2026-03-25T11:17:13.139Z</time></trkpt><trkpt lat="46.0823386" lon="9.3110661"><ele>207.16666666666669</ele><time>2026-03-25T11:17:15.139Z</time></trkpt><trkpt lat="46.0822713" lon="9.3110262"><ele>208.33333333333334</ele><time>2026-03-25T11:17:16.139Z</time></trkpt><trkpt lat="46.08221" lon="9.3109916"><ele>209.5</ele><time>2026-03-25T11:17:17.139Z</time></trkpt><trkpt lat="46.0820868" lon="9.3109657"><ele>210.66666666666669</ele><time>2026-03-25T11:17:19.139Z</time></trkpt><trkpt lat="46.082022" lon="9.3109572"><ele>211.83333333333334</ele><time>2026-03-25T11:17:20.138Z</time></trkpt><trkpt lat="46.0819057" lon="9.3109428"><ele>213.0</ele><time>2026-03-25T11:17:22.139Z</time></trkpt><trkpt lat="46.0817892" lon="9.3109102"><ele>213.0</ele><time>2026-03-25T11:17:24.139Z</time></trkpt><trkpt lat="46.0816797" lon="9.3109151"><ele>213.0</ele><time>2026-03-25T11:17:26.139Z</time></trkpt><trkpt lat="46.0816141" lon="9.3108932"><ele>213.0</ele><time>2026-03-25T11:17:27.139Z</time></trkpt><trkpt lat="46.0815502" lon="9.3108775"><ele>213.0</ele><time>2026-03-25T11:17:28.139Z</time></trkpt><trkpt lat="46.0814326" lon="9.3108318"><ele>213.0</ele><time>2026-03-25T11:17:30.138Z</time></trkpt><trkpt lat="46.0813625" lon="9.3107919"><ele>213.0</ele><time>2026-03-25T11:17:31.139Z</time></trkpt><trkpt lat="46.0813019" lon="9.3107516"><ele>212.2</ele><time>2026-03-25T11:17:32.139Z</time></trkpt><trkpt lat="46.0812165" lon="9.3107025"><ele>211.4</ele><time>2026-03-25T11:17:34.138Z</time></trkpt><trkpt lat="46.0811566" lon="9.3106598"><ele>210.6</ele><time>2026-03-25T11:17:35.139Z</time></trkpt><trkpt lat="46.0810921" lon="9.3105994"><ele>209.79999999999998</ele><time>2026-03-25T11:17:36.139Z</time></trkpt><trkpt lat="46.0809924" lon="9.3105133"><ele>209.0</ele><time>2026-03-25T11:17:38.138Z</time></trkpt><trkpt lat="46.0809059" lon="9.310409"><ele>209.00000000000003</ele><time>2026-03-25T11:17:40.139Z</time></trkpt><trkpt lat="46.0808568" lon="9.3103471"><ele>209.0</ele><time>2026-03-25T11:17:41.138Z</time></trkpt><trkpt lat="46.0808069" lon="9.3102722"><ele>209.0</ele><time>2026-03-25T11:17:42.138Z</time></trkpt><trkpt lat="46.0807611" lon="9.3102026"><ele>209.0</ele><time>2026-03-25T11:17:43.138Z</time></trkpt><trkpt lat="46.0806879" lon="9.3100604"><ele>209.00000000000003</ele><time>2026-03-25T11:17:45.138Z</time></trkpt><trkpt lat="46.0806246" lon="9.309928"><ele>209.0</ele><time>2026-03-25T11:17:47.138Z</time></trkpt><trkpt lat="46.0805872" lon="9.3098515"><ele>210.25</ele><time>2026-03-25T11:17:48.139Z</time></trkpt><trkpt lat="46.0805295" lon="9.3097204"><ele>211.5</ele><time>2026-03-25T11:17:50.139Z</time></trkpt><trkpt lat="46.0804705" lon="9.3095946"><ele>212.75</ele><time>2026-03-25T11:17:52.138Z</time></trkpt><trkpt lat="46.0804024" lon="9.3094484"><ele>214.0</ele><time>2026-03-25T11:17:54.139Z</time></trkpt><trkpt lat="46.0803348" lon="9.3093114"><ele>214.0</ele><time>2026-03-25T11:17:56.138Z</time></trkpt><trkpt lat="46.0802702" lon="9.3091716"><ele>213.99999999999997</ele><time>2026-03-25T11:17:58.138Z</time></trkpt><trkpt lat="46.0802278" lon="9.3090873"><ele>213.99999999999997</ele><time>2026-03-25T11:17:59.138Z</time></trkpt><trkpt lat="46.0801699" lon="9.3090013"><ele>214.0</ele><time>2026-03-25T11:18:00.139Z</time></trkpt><trkpt lat="46.0801079" lon="9.3088663"><ele>214.0</ele><time>2026-03-25T11:18:02.138Z</time></trkpt><trkpt lat="46.0800531" lon="9.3087292"><ele>213.75</ele><time>2026-03-25T11:18:04.139Z</time></trkpt><trkpt lat="46.0799946" lon="9.3085812"><ele>213.5</ele><time>2026-03-25T11:18:06.138Z</time></trkpt><trkpt lat="46.0799212" lon="9.3084368"><ele>213.25</ele><time>2026-03-25T11:18:08.139Z</time></trkpt><trkpt lat="46.0798487" lon="9.3082979"><ele>213.0</ele><time>2026-03-25T11:18:10.139Z</time></trkpt><trkpt lat="46.0797839" lon="9.3081531"><ele>212.75</ele><time>2026-03-25T11:18:12.138Z</time></trkpt><trkpt lat="46.079716" lon="9.30802"><ele>212.5</ele><time>2026-03-25T11:18:14.138Z</time></trkpt><trkpt lat="46.0796549" lon="9.3078889"><ele>212.25</ele><time>2026-03-25T11:18:16.138Z</time></trkpt><trkpt lat="46.0795854" lon="9.307764"><ele>212.0</ele><time>2026-03-25T11:18:18.139Z</time></trkpt><trkpt lat="46.079489" lon="9.3075755"><ele>212.0</ele><time>2026-03-25T11:18:20.138Z</time></trkpt><trkpt lat="46.0794308" lon="9.3074466"><ele>212.0</ele><time>2026-03-25T11:18:22.138Z</time></trkpt><trkpt lat="46.0793732" lon="9.3073265"><ele>212.0</ele><time>2026-03-25T11:18:24.139Z</time></trkpt><trkpt lat="46.0793088" lon="9.3071714"><ele>212.0</ele><time>2026-03-25T11:18:26.139Z</time></trkpt><trkpt lat="46.0792652" lon="9.3070896"><ele>212.0</ele><time>2026-03-25T11:18:27.138Z</time></trkpt><trkpt lat="46.0792229" lon="9.3070122"><ele>212.0</ele><time>2026-03-25T11:18:28.138Z</time></trkpt><trkpt lat="46.0791604" lon="9.3068921"><ele>212.0</ele><time>2026-03-25T11:18:30.139Z</time></trkpt><trkpt lat="46.0791195" lon="9.3067779"><ele>212.0</ele><time>2026-03-25T11:18:32.138Z</time></trkpt><trkpt lat="46.0790592" lon="9.3066467"><ele>212.0</ele><time>2026-03-25T11:18:34.138Z</time></trkpt><trkpt lat="46.078994" lon="9.3065282"><ele>212.0</ele><time>2026-03-25T11:18:36.138Z</time></trkpt><trkpt lat="46.0789314" lon="9.3064088"><ele>212.6</ele><time>2026-03-25T11:18:38.139Z</time></trkpt><trkpt lat="46.0788612" lon="9.3062901"><ele>213.2</ele><time>2026-03-25T11:18:40.138Z</time></trkpt><trkpt lat="46.0788012" lon="9.3061807"><ele>213.8</ele><time>2026-03-25T11:18:42.138Z</time></trkpt><trkpt lat="46.0787543" lon="9.3060781"><ele>214.4</ele><time>2026-03-25T11:18:44.138Z</time></trkpt><trkpt lat="46.0787006" lon="9.3059622"><ele>215.0</ele><time>2026-03-25T11:18:46.139Z</time></trkpt><trkpt lat="46.0786584" lon="9.3058721"><ele>215.0</ele><time>2026-03-25T11:18:48.139Z</time></trkpt><trkpt lat="46.0786076" lon="9.3057506"><ele>215.0</ele><time>2026-03-25T11:18:50.139Z</time></trkpt><trkpt lat="46.0785388" lon="9.30564"><ele>215.0</ele><time>2026-03-25T11:18:52.139Z</time></trkpt><trkpt lat="46.0784545" lon="9.3055617"><ele>215.0</ele><time>2026-03-25T11:18:54.138Z</time></trkpt><trkpt lat="46.0783811" lon="9.3054624"><ele>215.0</ele><time>2026-03-25T11:18:56.138Z</time></trkpt><trkpt lat="46.0783151" lon="9.3053812"><ele>214.6</ele><time>2026-03-25T11:18:58.139Z</time></trkpt><trkpt lat="46.0782464" lon="9.3053119"><ele>214.2</ele><time>2026-03-25T11:19:00.139Z</time></trkpt><trkpt lat="46.0781594" lon="9.3052263"><ele>213.8</ele><time>2026-03-25T11:19:02.139Z</time></trkpt><trkpt lat="46.0780772" lon="9.3051357"><ele>213.4</ele><time>2026-03-25T11:19:04.139Z</time></trkpt><trkpt lat="46.0780033" lon="9.3050593"><ele>213.0</ele><time>2026-03-25T11:19:06.138Z</time></trkpt><trkpt lat="46.0779134" lon="9.3049856"><ele>213.0</ele><time>2026-03-25T11:19:08.138Z</time></trkpt><trkpt lat="46.0778292" lon="9.3049309"><ele>213.0</ele><time>2026-03-25T11:19:10.138Z</time></trkpt><trkpt lat="46.0777612" lon="9.3048758"><ele>213.0</ele><time>2026-03-25T11:19:12.138Z</time></trkpt><trkpt lat="46.0776884" lon="9.3048127"><ele>213.0</ele><time>2026-03-25T11:19:14.138Z</time></trkpt><trkpt lat="46.0776033" lon="9.3047592"><ele>213.0</ele><time>2026-03-25T11:19:16.138Z</time></trkpt><trkpt lat="46.0775164" lon="9.3047073"><ele>213.0</ele><time>2026-03-25T11:19:19.139Z</time></trkpt><trkpt lat="46.0774496" lon="9.3046706"><ele>212.5</ele><time>2026-03-25T11:19:20.139Z</time></trkpt><trkpt lat="46.0773487" lon="9.3046238"><ele>212.0</ele><time>2026-03-25T11:19:22.139Z</time></trkpt><trkpt lat="46.0772592" lon="9.3045926"><ele>211.5</ele><time>2026-03-25T11:19:24.138Z</time></trkpt><trkpt lat="46.0771801" lon="9.3045675"><ele>211.0</ele><time>2026-03-25T11:19:26.138Z</time></trkpt><trkpt lat="46.0771106" lon="9.3045583"><ele>210.5</ele><time>2026-03-25T11:19:28.138Z</time></trkpt><trkpt lat="46.0770438" lon="9.3045627"><ele>210.0</ele><time>2026-03-25T11:19:30.139Z</time></trkpt><trkpt lat="46.0769783" lon="9.3045505"><ele>210.0</ele><time>2026-03-25T11:19:32.138Z</time></trkpt><trkpt lat="46.0769077" lon="9.3045319"><ele>210.0</ele><time>2026-03-25T11:19:35.138Z</time></trkpt><trkpt lat="46.0768409" lon="9.3045122"><ele>210.0</ele><time>2026-03-25T11:19:48.139Z</time></trkpt><trkpt lat="46.0767584" lon="9.304507"><ele>210.0</ele><time>2026-03-25T11:19:51.138Z</time></trkpt><trkpt lat="46.0766679" lon="9.304481"><ele>210.0</ele><time>2026-03-25T11:19:54.139Z</time></trkpt><trkpt lat="46.0766003" lon="9.3044555"><ele>210.0</ele><time>2026-03-25T11:19:56.139Z</time></trkpt><trkpt lat="46.0765244" lon="9.3044398"><ele>210.16666666666666</ele><time>2026-03-25T11:19:58.138Z</time></trkpt><trkpt lat="46.0764446" lon="9.3044238"><ele>210.33333333333331</ele><time>2026-03-25T11:20:00.138Z</time></trkpt><trkpt lat="46.0763608" lon="9.3044111"><ele>210.5</ele><time>2026-03-25T11:20:02.138Z</time></trkpt><trkpt lat="46.0762767" lon="9.3043999"><ele>210.66666666666666</ele><time>2026-03-25T11:20:04.138Z</time></trkpt><trkpt lat="46.0761937" lon="9.3043914"><ele>210.83333333333331</ele><time>2026-03-25T11:20:06.139Z</time></trkpt><trkpt lat="46.0761167" lon="9.3043829"><ele>211.0</ele><time>2026-03-25T11:20:08.139Z</time></trkpt><trkpt lat="46.0760293" lon="9.3043783"><ele>211.0</ele><time>2026-03-25T11:20:10.138Z</time></trkpt><trkpt lat="46.0759309" lon="9.304403"><ele>211.0</ele><time>2026-03-25T11:20:12.138Z</time></trkpt><trkpt lat="46.0758322" lon="9.3043699"><ele>211.0</ele><time>2026-03-25T11:20:14.138Z</time></trkpt><trkpt lat="46.0757362" lon="9.3043576"><ele>211.0</ele><time>2026-03-25T11:20:16.138Z</time></trkpt><trkpt lat="46.0756462" lon="9.304367"><ele>211.0</ele><time>2026-03-25T11:20:18.138Z</time></trkpt><trkpt lat="46.075553" lon="9.3043852"><ele>210.60000000000002</ele><time>2026-03-25T11:20:20.138Z</time></trkpt><trkpt lat="46.07546" lon="9.3043885"><ele>210.2</ele><time>2026-03-25T11:20:22.139Z</time></trkpt><trkpt lat="46.0753645" lon="9.3043993"><ele>209.8</ele><time>2026-03-25T11:20:24.138Z</time></trkpt><trkpt lat="46.0752694" lon="9.3044182"><ele>209.39999999999998</ele><time>2026-03-25T11:20:26.139Z</time></trkpt><trkpt lat="46.0751802" lon="9.3044383"><ele>209.0</ele><time>2026-03-25T11:20:28.139Z</time></trkpt><trkpt lat="46.0750788" lon="9.3044522"><ele>209.0</ele><time>2026-03-25T11:20:30.138Z</time></trkpt><trkpt lat="46.0749971" lon="9.3044883"><ele>209.0</ele><time>2026-03-25T11:20:32.139Z</time></trkpt><trkpt lat="46.0749067" lon="9.3045393"><ele>209.0</ele><time>2026-03-25T11:20:34.139Z</time></trkpt><trkpt lat="46.0748173" lon="9.3045778"><ele>209.0</ele><time>2026-03-25T11:20:36.139Z</time></trkpt><trkpt lat="46.0747257" lon="9.3046053"><ele>209.0</ele><time>2026-03-25T11:20:38.138Z</time></trkpt><trkpt lat="46.0746412" lon="9.3046397"><ele>208.79999999999998</ele><time>2026-03-25T11:20:40.139Z</time></trkpt><trkpt lat="46.0745485" lon="9.3046887"><ele>208.6</ele><time>2026-03-25T11:20:42.139Z</time></trkpt><trkpt lat="46.0744698" lon="9.3047414"><ele>208.4</ele><time>2026-03-25T11:20:44.138Z</time></trkpt><trkpt lat="46.0743905" lon="9.3047701"><ele>208.2</ele><time>2026-03-25T11:20:46.139Z</time></trkpt><trkpt lat="46.0743103" lon="9.3048122"><ele>208.0</ele><time>2026-03-25T11:20:48.139Z</time></trkpt><trkpt lat="46.0742072" lon="9.3048151"><ele>208.0</ele><time>2026-03-25T11:20:51.138Z</time></trkpt><trkpt lat="46.0741224" lon="9.3047331"><ele>208.0</ele><time>2026-03-25T11:20:53.139Z</time></trkpt><trkpt lat="46.0740755" lon="9.3046665"><ele>208.0</ele><time>2026-03-25T11:20:54.138Z</time></trkpt><trkpt lat="46.0740275" lon="9.3045877"><ele>208.0</ele><time>2026-03-25T11:20:55.138Z</time></trkpt><trkpt lat="46.0739824" lon="9.3045144"><ele>208.0</ele><time>2026-03-25T11:20:56.138Z</time></trkpt><trkpt lat="46.0738904" lon="9.3043407"><ele>208.14285714285714</ele><time>2026-03-25T11:20:58.138Z</time></trkpt><trkpt lat="46.0738289" lon="9.3042744"><ele>208.2857142857143</ele><time>2026-03-25T11:20:59.138Z</time></trkpt><trkpt lat="46.0737826" lon="9.3041986"><ele>208.42857142857144</ele><time>2026-03-25T11:21:00.139Z</time></trkpt><trkpt lat="46.0737386" lon="9.3041316"><ele>208.57142857142856</ele><time>2026-03-25T11:21:01.138Z</time></trkpt><trkpt lat="46.0736858" lon="9.3040744"><ele>208.71428571428572</ele><time>2026-03-25T11:21:02.138Z</time></trkpt><trkpt lat="46.0736383" lon="9.3040031"><ele>208.85714285714286</ele><time>2026-03-25T11:21:03.139Z</time></trkpt><trkpt lat="46.0735906" lon="9.3039228"><ele>209.0</ele><time>2026-03-25T11:21:04.138Z</time></trkpt><trkpt lat="46.073517" lon="9.3037791"><ele>208.6</ele><time>2026-03-25T11:21:06.138Z</time></trkpt><trkpt lat="46.0734895" lon="9.3036725"><ele>208.2</ele><time>2026-03-25T11:21:07.139Z</time></trkpt><trkpt lat="46.0734726" lon="9.3035727"><ele>207.79999999999998</ele><time>2026-03-25T11:21:08.138Z</time></trkpt><trkpt lat="46.0734338" lon="9.3033984"><ele>207.39999999999998</ele><time>2026-03-25T11:21:10.138Z</time></trkpt><trkpt lat="46.0734031" lon="9.3033165"><ele>207.0</ele><time>2026-03-25T11:21:11.139Z</time></trkpt><trkpt lat="46.0733263" lon="9.3031788"><ele>206.39999999999998</ele><time>2026-03-25T11:21:13.138Z</time></trkpt><trkpt lat="46.073257" lon="9.3030467"><ele>205.79999999999998</ele><time>2026-03-25T11:21:15.139Z</time></trkpt><trkpt lat="46.0732032" lon="9.3029727"><ele>205.2</ele><time>2026-03-25T11:21:16.138Z</time></trkpt><trkpt lat="46.0731247" lon="9.3028863"><ele>204.6</ele><time>2026-03-25T11:21:18.138Z</time></trkpt><trkpt lat="46.0730423" lon="9.3028986"><ele>204.0</ele><time>2026-03-25T11:21:20.138Z</time></trkpt><trkpt lat="46.0729846" lon="9.3029772"><ele>204.5</ele><time>2026-03-25T11:21:22.139Z</time></trkpt><trkpt lat="46.0729472" lon="9.3031051"><ele>205.0</ele><time>2026-03-25T11:21:24.139Z</time></trkpt><trkpt lat="46.0729601" lon="9.3032179"><ele>205.5</ele><time>2026-03-25T11:21:26.139Z</time></trkpt><trkpt lat="46.0729077" lon="9.3033395"><ele>206.0</ele><time>2026-03-25T11:21:28.138Z</time></trkpt><trkpt lat="46.0728973" lon="9.3034527"><ele>206.5</ele><time>2026-03-25T11:21:30.139Z</time></trkpt><trkpt lat="46.0728922" lon="9.3035544"><ele>207.0</ele><time>2026-03-25T11:21:32.138Z</time></trkpt><trkpt lat="46.0728785" lon="9.3036525"><ele>207.0</ele><time>2026-03-25T11:21:34.138Z</time></trkpt><trkpt lat="46.0729111" lon="9.3037744"><ele>207.0</ele><time>2026-03-25T11:21:37.139Z</time></trkpt><trkpt lat="46.0729377" lon="9.3038608"><ele>207.0</ele><time>2026-03-25T11:21:39.138Z</time></trkpt><trkpt lat="46.0729826" lon="9.3039471"><ele>207.0</ele><time>2026-03-25T11:22:05.141Z</time></trkpt><trkpt lat="46.072997" lon="9.3040476"><ele>207.0</ele><time>2026-03-25T11:22:08.141Z</time></trkpt><trkpt lat="46.0730119" lon="9.3041601"><ele>207.0</ele><time>2026-03-25T11:22:10.141Z</time></trkpt><trkpt lat="46.0730291" lon="9.3042797"><ele>207.0</ele><time>2026-03-25T11:22:13.142Z</time></trkpt><trkpt lat="46.0729677" lon="9.3042106"><ele>207.0</ele><time>2026-03-25T11:22:26.142Z</time></trkpt></trkseg></trk></gpx>